<?xml version="1.0" encoding="UTF-8" standalone="no" ?>
<gpx xmlns="http://www.topografix.com/GPX/1/1" xmlns:xsi="http://www.w3.org/2001/XMLSchema-instance" xsi:schemaLocation="http://www.topografix.com/GPX/1/1 http://www.topografix.com/GPX/1/1/gpx.xsd" version="1.1" creator="VisuGPX - https://www.visugpx.com">
  <metadata>
    <name>GR5, j06, hameau de Roya &amp;gt; Saint-Dalmas-le-Selvage</name>
    <desc><![CDATA[Du vallon de Roya au vallon de la Tinée ; départ effectif au hameau de Roya (1520 m), enregistrement du tracé à partir du Collet (1827 m), soit 3 km, +345 m.]]></desc>
  </metadata>
  <trk>
    <name><![CDATA[GR5, j06, hameau de Roya &gt; Saint-Dalmas-le-Selvage_1]]></name>
    <trkseg>
      <trkpt lat="44.20141" lon="6.93985">
        <ele>1863.6676790593</ele>
        <time>2019-06-23T07:16:28Z</time>
      </trkpt>
      <trkpt lat="44.20144" lon="6.93984">
        <ele>1862.0145479998</ele>
        <time>2019-06-23T07:16:33Z</time>
      </trkpt>
      <trkpt lat="44.20146" lon="6.93984">
        <ele>1863.2925022535</ele>
        <time>2019-06-23T07:16:35Z</time>
      </trkpt>
      <trkpt lat="44.20147" lon="6.93985">
        <ele>1864.1212011139</ele>
        <time>2019-06-23T07:16:39Z</time>
      </trkpt>
      <trkpt lat="44.20149" lon="6.93986">
        <ele>1863.864883228</ele>
        <time>2019-06-23T07:16:42Z</time>
      </trkpt>
      <trkpt lat="44.20152" lon="6.93985">
        <ele>1863.8865080031</ele>
        <time>2019-06-23T07:16:44Z</time>
      </trkpt>
      <trkpt lat="44.20153" lon="6.93986">
        <ele>1863.5108691449</ele>
        <time>2019-06-23T07:16:46Z</time>
      </trkpt>
      <trkpt lat="44.20156" lon="6.93988">
        <ele>1862.8605398651</ele>
        <time>2019-06-23T07:16:48Z</time>
      </trkpt>
      <trkpt lat="44.20159" lon="6.93988">
        <ele>1862.1861364123</ele>
        <time>2019-06-23T07:16:51Z</time>
      </trkpt>
      <trkpt lat="44.20161" lon="6.93988">
        <ele>1862.1046913142</ele>
        <time>2019-06-23T07:16:53Z</time>
      </trkpt>
      <trkpt lat="44.20164" lon="6.93988">
        <ele>1862.1140117471</ele>
        <time>2019-06-23T07:16:55Z</time>
      </trkpt>
      <trkpt lat="44.20166" lon="6.93987">
        <ele>1861.7518965547</ele>
        <time>2019-06-23T07:16:58Z</time>
      </trkpt>
      <trkpt lat="44.20168" lon="6.93986">
        <ele>1861.7154717133</ele>
        <time>2019-06-23T07:17:02Z</time>
      </trkpt>
      <trkpt lat="44.2017" lon="6.93986">
        <ele>1862.3006612058</ele>
        <time>2019-06-23T07:17:05Z</time>
      </trkpt>
      <trkpt lat="44.20172" lon="6.93985">
        <ele>1862.0916333809</ele>
        <time>2019-06-23T07:17:07Z</time>
      </trkpt>
      <trkpt lat="44.20175" lon="6.93985">
        <ele>1861.9425374242</ele>
        <time>2019-06-23T07:17:10Z</time>
      </trkpt>
      <trkpt lat="44.20177" lon="6.93984">
        <ele>1861.9448118782</ele>
        <time>2019-06-23T07:17:12Z</time>
      </trkpt>
      <trkpt lat="44.20179" lon="6.93984">
        <ele>1861.2439450573</ele>
        <time>2019-06-23T07:17:17Z</time>
      </trkpt>
      <trkpt lat="44.20182" lon="6.93983">
        <ele>1861.4609796466</ele>
        <time>2019-06-23T07:17:19Z</time>
      </trkpt>
      <trkpt lat="44.20183" lon="6.93981">
        <ele>1861.9201346661</ele>
        <time>2019-06-23T07:17:24Z</time>
      </trkpt>
      <trkpt lat="44.20184" lon="6.93979">
        <ele>1863.7957847645</ele>
        <time>2019-06-23T07:17:28Z</time>
      </trkpt>
      <trkpt lat="44.20187" lon="6.93979">
        <ele>1864.492105003</ele>
        <time>2019-06-23T07:17:30Z</time>
      </trkpt>
      <trkpt lat="44.20189" lon="6.93977">
        <ele>1865.0151443969</ele>
        <time>2019-06-23T07:17:33Z</time>
      </trkpt>
      <trkpt lat="44.20191" lon="6.93979">
        <ele>1865.0600533084</ele>
        <time>2019-06-23T07:17:36Z</time>
      </trkpt>
      <trkpt lat="44.20194" lon="6.93979">
        <ele>1864.6100952432</ele>
        <time>2019-06-23T07:17:40Z</time>
      </trkpt>
      <trkpt lat="44.20197" lon="6.9398">
        <ele>1864.5706434164</ele>
        <time>2019-06-23T07:17:43Z</time>
      </trkpt>
      <trkpt lat="44.202" lon="6.93979">
        <ele>1865.3272832586</ele>
        <time>2019-06-23T07:17:46Z</time>
      </trkpt>
      <trkpt lat="44.20203" lon="6.93979">
        <ele>1865.7617777625</ele>
        <time>2019-06-23T07:17:48Z</time>
      </trkpt>
      <trkpt lat="44.20205" lon="6.93978">
        <ele>1866.3956357915</ele>
        <time>2019-06-23T07:17:51Z</time>
      </trkpt>
      <trkpt lat="44.20208" lon="6.93979">
        <ele>1866.4959304581</ele>
        <time>2019-06-23T07:17:56Z</time>
      </trkpt>
      <trkpt lat="44.2021" lon="6.93978">
        <ele>1865.6388981643</ele>
        <time>2019-06-23T07:18:00Z</time>
      </trkpt>
      <trkpt lat="44.20211" lon="6.93977">
        <ele>1865.6595223224</ele>
        <time>2019-06-23T07:18:02Z</time>
      </trkpt>
      <trkpt lat="44.20213" lon="6.93974">
        <ele>1866.4296504598</ele>
        <time>2019-06-23T07:18:05Z</time>
      </trkpt>
      <trkpt lat="44.20216" lon="6.93974">
        <ele>1867.1051741426</ele>
        <time>2019-06-23T07:18:08Z</time>
      </trkpt>
      <trkpt lat="44.20217" lon="6.93972">
        <ele>1867.3714422941</ele>
        <time>2019-06-23T07:18:11Z</time>
      </trkpt>
      <trkpt lat="44.20219" lon="6.93971">
        <ele>1867.4863667701</ele>
        <time>2019-06-23T07:18:14Z</time>
      </trkpt>
      <trkpt lat="44.20221" lon="6.9397">
        <ele>1867.0197705621</ele>
        <time>2019-06-23T07:18:17Z</time>
      </trkpt>
      <trkpt lat="44.20223" lon="6.93971">
        <ele>1866.6046459876</ele>
        <time>2019-06-23T07:18:21Z</time>
      </trkpt>
      <trkpt lat="44.20225" lon="6.93971">
        <ele>1866.6246946621</ele>
        <time>2019-06-23T07:18:24Z</time>
      </trkpt>
      <trkpt lat="44.20227" lon="6.93969">
        <ele>1866.5100827283</ele>
        <time>2019-06-23T07:18:28Z</time>
      </trkpt>
      <trkpt lat="44.20228" lon="6.93968">
        <ele>1866.9292008346</ele>
        <time>2019-06-23T07:18:32Z</time>
      </trkpt>
      <trkpt lat="44.2023" lon="6.93966">
        <ele>1867.5430212136</ele>
        <time>2019-06-23T07:18:37Z</time>
      </trkpt>
      <trkpt lat="44.20232" lon="6.93964">
        <ele>1867.9225901047</ele>
        <time>2019-06-23T07:18:40Z</time>
      </trkpt>
      <trkpt lat="44.20234" lon="6.93963">
        <ele>1870.507387856</ele>
        <time>2019-06-23T07:18:48Z</time>
      </trkpt>
      <trkpt lat="44.20236" lon="6.93963">
        <ele>1871.5527096311</ele>
        <time>2019-06-23T07:18:51Z</time>
      </trkpt>
      <trkpt lat="44.20238" lon="6.93961">
        <ele>1872.7019056086</ele>
        <time>2019-06-23T07:18:55Z</time>
      </trkpt>
      <trkpt lat="44.20239" lon="6.93961">
        <ele>1873.2081900871</ele>
        <time>2019-06-23T07:18:58Z</time>
      </trkpt>
      <trkpt lat="44.20241" lon="6.9396">
        <ele>1875.404869599</ele>
        <time>2019-06-23T07:19:04Z</time>
      </trkpt>
      <trkpt lat="44.20243" lon="6.93959">
        <ele>1875.7883149199</ele>
        <time>2019-06-23T07:19:06Z</time>
      </trkpt>
      <trkpt lat="44.20245" lon="6.93957">
        <ele>1875.0237879698</ele>
        <time>2019-06-23T07:19:10Z</time>
      </trkpt>
      <trkpt lat="44.20247" lon="6.93956">
        <ele>1875.2689244537</ele>
        <time>2019-06-23T07:19:13Z</time>
      </trkpt>
      <trkpt lat="44.2025" lon="6.93955">
        <ele>1875.7588219214</ele>
        <time>2019-06-23T07:19:15Z</time>
      </trkpt>
      <trkpt lat="44.20252" lon="6.93956">
        <ele>1875.8445413233</ele>
        <time>2019-06-23T07:19:16Z</time>
      </trkpt>
      <trkpt lat="44.20254" lon="6.93954">
        <ele>1876.2831839857</ele>
        <time>2019-06-23T07:19:18Z</time>
      </trkpt>
      <trkpt lat="44.20256" lon="6.93955">
        <ele>1876.3980285927</ele>
        <time>2019-06-23T07:19:21Z</time>
      </trkpt>
      <trkpt lat="44.20258" lon="6.93954">
        <ele>1876.0640559225</ele>
        <time>2019-06-23T07:19:24Z</time>
      </trkpt>
      <trkpt lat="44.2026" lon="6.93953">
        <ele>1875.6255880615</ele>
        <time>2019-06-23T07:19:26Z</time>
      </trkpt>
      <trkpt lat="44.20263" lon="6.93951">
        <ele>1875.4399061912</ele>
        <time>2019-06-23T07:19:28Z</time>
      </trkpt>
      <trkpt lat="44.20265" lon="6.93949">
        <ele>1875.5063685498</ele>
        <time>2019-06-23T07:19:33Z</time>
      </trkpt>
      <trkpt lat="44.20267" lon="6.93948">
        <ele>1875.3230209457</ele>
        <time>2019-06-23T07:19:36Z</time>
      </trkpt>
      <trkpt lat="44.20269" lon="6.93947">
        <ele>1874.9590726027</ele>
        <time>2019-06-23T07:19:39Z</time>
      </trkpt>
      <trkpt lat="44.20271" lon="6.93945">
        <ele>1875.9119824486</ele>
        <time>2019-06-23T07:19:42Z</time>
      </trkpt>
      <trkpt lat="44.20273" lon="6.93944">
        <ele>1876.2584856696</ele>
        <time>2019-06-23T07:19:44Z</time>
      </trkpt>
      <trkpt lat="44.20275" lon="6.93945">
        <ele>1876.0335725234</ele>
        <time>2019-06-23T07:19:47Z</time>
      </trkpt>
      <trkpt lat="44.20277" lon="6.93943">
        <ele>1875.6819377592</ele>
        <time>2019-06-23T07:19:50Z</time>
      </trkpt>
      <trkpt lat="44.20279" lon="6.93941">
        <ele>1875.5888853381</ele>
        <time>2019-06-23T07:19:53Z</time>
      </trkpt>
      <trkpt lat="44.20281" lon="6.9394">
        <ele>1876.7960035</ele>
        <time>2019-06-23T07:19:58Z</time>
      </trkpt>
      <trkpt lat="44.20283" lon="6.93939">
        <ele>1877.3328509213</ele>
        <time>2019-06-23T07:20:02Z</time>
      </trkpt>
      <trkpt lat="44.20285" lon="6.93939">
        <ele>1877.7386410818</ele>
        <time>2019-06-23T07:20:04Z</time>
      </trkpt>
      <trkpt lat="44.20287" lon="6.93939">
        <ele>1877.6510922468</ele>
        <time>2019-06-23T07:20:08Z</time>
      </trkpt>
      <trkpt lat="44.2029" lon="6.93938">
        <ele>1878.523376508</ele>
        <time>2019-06-23T07:20:16Z</time>
      </trkpt>
      <trkpt lat="44.20292" lon="6.93936">
        <ele>1879.2567338845</ele>
        <time>2019-06-23T07:20:19Z</time>
      </trkpt>
      <trkpt lat="44.20294" lon="6.93935">
        <ele>1879.384998977</ele>
        <time>2019-06-23T07:20:21Z</time>
      </trkpt>
      <trkpt lat="44.20296" lon="6.93936">
        <ele>1880.6825372479</ele>
        <time>2019-06-23T07:20:32Z</time>
      </trkpt>
      <trkpt lat="44.20299" lon="6.93936">
        <ele>1882.8085949384</ele>
        <time>2019-06-23T07:20:36Z</time>
      </trkpt>
      <trkpt lat="44.20301" lon="6.93935">
        <ele>1884.3067310939</ele>
        <time>2019-06-23T07:20:39Z</time>
      </trkpt>
      <trkpt lat="44.20303" lon="6.93934">
        <ele>1885.7342273994</ele>
        <time>2019-06-23T07:20:43Z</time>
      </trkpt>
      <trkpt lat="44.20305" lon="6.93934">
        <ele>1885.3254790559</ele>
        <time>2019-06-23T07:20:46Z</time>
      </trkpt>
      <trkpt lat="44.20307" lon="6.93934">
        <ele>1884.6878384534</ele>
        <time>2019-06-23T07:20:48Z</time>
      </trkpt>
      <trkpt lat="44.20309" lon="6.93935">
        <ele>1883.8642721392</ele>
        <time>2019-06-23T07:20:52Z</time>
      </trkpt>
      <trkpt lat="44.2031" lon="6.93935">
        <ele>1883.3439386642</ele>
        <time>2019-06-23T07:20:54Z</time>
      </trkpt>
      <trkpt lat="44.20312" lon="6.93935">
        <ele>1882.4529924113</ele>
        <time>2019-06-23T07:21:01Z</time>
      </trkpt>
      <trkpt lat="44.20314" lon="6.93935">
        <ele>1884.5660131608</ele>
        <time>2019-06-23T07:21:13Z</time>
      </trkpt>
      <trkpt lat="44.20315" lon="6.93933">
        <ele>1885.6202975471</ele>
        <time>2019-06-23T07:21:18Z</time>
      </trkpt>
      <trkpt lat="44.20316" lon="6.93931">
        <ele>1885.393929152</ele>
        <time>2019-06-23T07:21:21Z</time>
      </trkpt>
      <trkpt lat="44.20318" lon="6.93932">
        <ele>1885.5689804129</ele>
        <time>2019-06-23T07:21:27Z</time>
      </trkpt>
      <trkpt lat="44.2032" lon="6.93928">
        <ele>1885.1882273832</ele>
        <time>2019-06-23T07:21:30Z</time>
      </trkpt>
      <trkpt lat="44.20321" lon="6.93927">
        <ele>1885.9599306429</ele>
        <time>2019-06-23T07:21:36Z</time>
      </trkpt>
      <trkpt lat="44.20323" lon="6.93927">
        <ele>1885.7173979886</ele>
        <time>2019-06-23T07:21:38Z</time>
      </trkpt>
      <trkpt lat="44.20325" lon="6.93927">
        <ele>1885.3553029091</ele>
        <time>2019-06-23T07:21:40Z</time>
      </trkpt>
      <trkpt lat="44.20327" lon="6.93927">
        <ele>1885.4083638025</ele>
        <time>2019-06-23T07:21:44Z</time>
      </trkpt>
      <trkpt lat="44.20329" lon="6.93928">
        <ele>1885.6782131807</ele>
        <time>2019-06-23T07:21:46Z</time>
      </trkpt>
      <trkpt lat="44.20331" lon="6.93929">
        <ele>1886.1514125114</ele>
        <time>2019-06-23T07:21:49Z</time>
      </trkpt>
      <trkpt lat="44.20332" lon="6.93928">
        <ele>1886.3057002745</ele>
        <time>2019-06-23T07:21:53Z</time>
      </trkpt>
      <trkpt lat="44.20335" lon="6.93927">
        <ele>1886.5658220273</ele>
        <time>2019-06-23T07:21:56Z</time>
      </trkpt>
      <trkpt lat="44.20335" lon="6.93927">
        <ele>1886.8600378704</ele>
        <time>2019-06-23T07:21:58Z</time>
      </trkpt>
      <trkpt lat="44.20337" lon="6.93928">
        <ele>1886.6482991125</ele>
        <time>2019-06-23T07:22:01Z</time>
      </trkpt>
      <trkpt lat="44.20339" lon="6.93929">
        <ele>1885.9254269958</ele>
        <time>2019-06-23T07:22:06Z</time>
      </trkpt>
      <trkpt lat="44.20341" lon="6.9393">
        <ele>1885.2066130146</ele>
        <time>2019-06-23T07:22:09Z</time>
      </trkpt>
      <trkpt lat="44.20343" lon="6.9393">
        <ele>1884.9660095341</ele>
        <time>2019-06-23T07:22:12Z</time>
      </trkpt>
      <trkpt lat="44.20345" lon="6.93929">
        <ele>1885.1806869868</ele>
        <time>2019-06-23T07:22:15Z</time>
      </trkpt>
      <trkpt lat="44.20347" lon="6.93932">
        <ele>1885.0107846127</ele>
        <time>2019-06-23T07:22:18Z</time>
      </trkpt>
      <trkpt lat="44.20348" lon="6.93932">
        <ele>1885.0063674398</ele>
        <time>2019-06-23T07:22:22Z</time>
      </trkpt>
      <trkpt lat="44.2035" lon="6.93931">
        <ele>1886.4216221339</ele>
        <time>2019-06-23T07:22:26Z</time>
      </trkpt>
      <trkpt lat="44.20352" lon="6.93933">
        <ele>1887.3760024805</ele>
        <time>2019-06-23T07:22:33Z</time>
      </trkpt>
      <trkpt lat="44.20354" lon="6.93933">
        <ele>1887.7045466738</ele>
        <time>2019-06-23T07:22:35Z</time>
      </trkpt>
      <trkpt lat="44.20356" lon="6.93934">
        <ele>1888.2729815316</ele>
        <time>2019-06-23T07:22:38Z</time>
      </trkpt>
      <trkpt lat="44.20358" lon="6.93935">
        <ele>1889.7676689457</ele>
        <time>2019-06-23T07:22:43Z</time>
      </trkpt>
      <trkpt lat="44.2036" lon="6.93935">
        <ele>1890.1142410321</ele>
        <time>2019-06-23T07:22:45Z</time>
      </trkpt>
      <trkpt lat="44.20363" lon="6.93936">
        <ele>1890.3584175685</ele>
        <time>2019-06-23T07:22:48Z</time>
      </trkpt>
      <trkpt lat="44.20364" lon="6.93937">
        <ele>1890.935710419</ele>
        <time>2019-06-23T07:22:50Z</time>
      </trkpt>
      <trkpt lat="44.20367" lon="6.93938">
        <ele>1891.9981027386</ele>
        <time>2019-06-23T07:22:55Z</time>
      </trkpt>
      <trkpt lat="44.20369" lon="6.93939">
        <ele>1892.8077885012</ele>
        <time>2019-06-23T07:22:58Z</time>
      </trkpt>
      <trkpt lat="44.20372" lon="6.9394">
        <ele>1893.3122483584</ele>
        <time>2019-06-23T07:23:01Z</time>
      </trkpt>
      <trkpt lat="44.20374" lon="6.93942">
        <ele>1893.6467642218</ele>
        <time>2019-06-23T07:23:03Z</time>
      </trkpt>
      <trkpt lat="44.20374" lon="6.93945">
        <ele>1894.209770531</ele>
        <time>2019-06-23T07:23:07Z</time>
      </trkpt>
      <trkpt lat="44.20376" lon="6.93947">
        <ele>1894.0547894505</ele>
        <time>2019-06-23T07:23:11Z</time>
      </trkpt>
      <trkpt lat="44.20378" lon="6.93948">
        <ele>1894.0694749986</ele>
        <time>2019-06-23T07:23:15Z</time>
      </trkpt>
      <trkpt lat="44.20379" lon="6.93951">
        <ele>1893.7732566311</ele>
        <time>2019-06-23T07:23:19Z</time>
      </trkpt>
      <trkpt lat="44.2038" lon="6.93953">
        <ele>1893.8746070662</ele>
        <time>2019-06-23T07:23:22Z</time>
      </trkpt>
      <trkpt lat="44.20382" lon="6.93954">
        <ele>1894.2999276892</ele>
        <time>2019-06-23T07:23:25Z</time>
      </trkpt>
      <trkpt lat="44.20382" lon="6.93958">
        <ele>1894.4170612813</ele>
        <time>2019-06-23T07:23:28Z</time>
      </trkpt>
      <trkpt lat="44.20384" lon="6.93959">
        <ele>1894.0253724184</ele>
        <time>2019-06-23T07:23:31Z</time>
      </trkpt>
      <trkpt lat="44.20386" lon="6.9396">
        <ele>1894.8921268774</ele>
        <time>2019-06-23T07:23:35Z</time>
      </trkpt>
      <trkpt lat="44.20388" lon="6.93962">
        <ele>1896.8649552049</ele>
        <time>2019-06-23T07:23:39Z</time>
      </trkpt>
      <trkpt lat="44.2039" lon="6.93964">
        <ele>1897.7478383914</ele>
        <time>2019-06-23T07:23:42Z</time>
      </trkpt>
      <trkpt lat="44.20392" lon="6.93964">
        <ele>1899.6667587413</ele>
        <time>2019-06-23T07:23:45Z</time>
      </trkpt>
      <trkpt lat="44.20394" lon="6.93966">
        <ele>1901.5922289681</ele>
        <time>2019-06-23T07:23:48Z</time>
      </trkpt>
      <trkpt lat="44.20394" lon="6.9397">
        <ele>1903.962014524</ele>
        <time>2019-06-23T07:23:52Z</time>
      </trkpt>
      <trkpt lat="44.20396" lon="6.93971">
        <ele>1904.9359648293</ele>
        <time>2019-06-23T07:23:55Z</time>
      </trkpt>
      <trkpt lat="44.20396" lon="6.93974">
        <ele>1905.344086657</ele>
        <time>2019-06-23T07:23:58Z</time>
      </trkpt>
      <trkpt lat="44.20396" lon="6.93977">
        <ele>1905.1842785475</ele>
        <time>2019-06-23T07:24:03Z</time>
      </trkpt>
      <trkpt lat="44.20399" lon="6.93978">
        <ele>1904.788864443</ele>
        <time>2019-06-23T07:24:08Z</time>
      </trkpt>
      <trkpt lat="44.204" lon="6.9398">
        <ele>1905.1911965057</ele>
        <time>2019-06-23T07:24:11Z</time>
      </trkpt>
      <trkpt lat="44.20402" lon="6.93982">
        <ele>1906.5141947202</ele>
        <time>2019-06-23T07:24:20Z</time>
      </trkpt>
      <trkpt lat="44.20403" lon="6.93983">
        <ele>1907.8057622936</ele>
        <time>2019-06-23T07:24:27Z</time>
      </trkpt>
      <trkpt lat="44.20405" lon="6.93985">
        <ele>1908.4513285289</ele>
        <time>2019-06-23T07:24:37Z</time>
      </trkpt>
      <trkpt lat="44.20407" lon="6.93986">
        <ele>1908.6764227198</ele>
        <time>2019-06-23T07:24:40Z</time>
      </trkpt>
      <trkpt lat="44.20409" lon="6.93988">
        <ele>1908.6637233741</ele>
        <time>2019-06-23T07:24:43Z</time>
      </trkpt>
      <trkpt lat="44.20411" lon="6.93987">
        <ele>1910.6302207023</ele>
        <time>2019-06-23T07:24:50Z</time>
      </trkpt>
      <trkpt lat="44.20413" lon="6.93988">
        <ele>1911.6236951169</ele>
        <time>2019-06-23T07:24:54Z</time>
      </trkpt>
      <trkpt lat="44.20415" lon="6.9399">
        <ele>1910.6812085633</ele>
        <time>2019-06-23T07:24:58Z</time>
      </trkpt>
      <trkpt lat="44.20417" lon="6.9399">
        <ele>1911.0831071981</ele>
        <time>2019-06-23T07:25:02Z</time>
      </trkpt>
      <trkpt lat="44.20418" lon="6.93991">
        <ele>1912.44819913</ele>
        <time>2019-06-23T07:25:07Z</time>
      </trkpt>
      <trkpt lat="44.20419" lon="6.93992">
        <ele>1923.8195253458</ele>
        <time>2019-06-23T07:25:22Z</time>
      </trkpt>
      <trkpt lat="44.2042" lon="6.93995">
        <ele>1928.7824594299</ele>
        <time>2019-06-23T07:25:34Z</time>
      </trkpt>
      <trkpt lat="44.2042" lon="6.93993">
        <ele>1929.4319350412</ele>
        <time>2019-06-23T07:25:48Z</time>
      </trkpt>
      <trkpt lat="44.20421" lon="6.9399">
        <ele>1929.1435644293</ele>
        <time>2019-06-23T07:26:02Z</time>
      </trkpt>
      <trkpt lat="44.20422" lon="6.93987">
        <ele>1930.4051308699</ele>
        <time>2019-06-23T07:26:09Z</time>
      </trkpt>
      <trkpt lat="44.20421" lon="6.93983">
        <ele>1930.2342911498</ele>
        <time>2019-06-23T07:26:11Z</time>
      </trkpt>
      <trkpt lat="44.20421" lon="6.93981">
        <ele>1930.5102121909</ele>
        <time>2019-06-23T07:26:14Z</time>
      </trkpt>
      <trkpt lat="44.20421" lon="6.93977">
        <ele>1930.9246158913</ele>
        <time>2019-06-23T07:26:17Z</time>
      </trkpt>
      <trkpt lat="44.20421" lon="6.93974">
        <ele>1932.3730569625</ele>
        <time>2019-06-23T07:26:20Z</time>
      </trkpt>
      <trkpt lat="44.2042" lon="6.93972">
        <ele>1934.7468999357</ele>
        <time>2019-06-23T07:26:24Z</time>
      </trkpt>
      <trkpt lat="44.2042" lon="6.93968">
        <ele>1937.2727509496</ele>
        <time>2019-06-23T07:26:30Z</time>
      </trkpt>
      <trkpt lat="44.20421" lon="6.93965">
        <ele>1937.5501228921</ele>
        <time>2019-06-23T07:26:33Z</time>
      </trkpt>
      <trkpt lat="44.20421" lon="6.93961">
        <ele>1938.4780300091</ele>
        <time>2019-06-23T07:26:39Z</time>
      </trkpt>
      <trkpt lat="44.20421" lon="6.93958">
        <ele>1939.0830680721</ele>
        <time>2019-06-23T07:26:43Z</time>
      </trkpt>
      <trkpt lat="44.20421" lon="6.93955">
        <ele>1938.9877058858</ele>
        <time>2019-06-23T07:26:47Z</time>
      </trkpt>
      <trkpt lat="44.20423" lon="6.93956">
        <ele>1934.7088259219</ele>
        <time>2019-06-23T07:26:59Z</time>
      </trkpt>
      <trkpt lat="44.20425" lon="6.93957">
        <ele>1934.8968130403</ele>
        <time>2019-06-23T07:27:02Z</time>
      </trkpt>
      <trkpt lat="44.20427" lon="6.93959">
        <ele>1935.4937612319</ele>
        <time>2019-06-23T07:27:05Z</time>
      </trkpt>
      <trkpt lat="44.20428" lon="6.93961">
        <ele>1935.5272956832</ele>
        <time>2019-06-23T07:27:09Z</time>
      </trkpt>
      <trkpt lat="44.2043" lon="6.93961">
        <ele>1935.7545446535</ele>
        <time>2019-06-23T07:27:13Z</time>
      </trkpt>
      <trkpt lat="44.20433" lon="6.93961">
        <ele>1935.2996902763</ele>
        <time>2019-06-23T07:27:17Z</time>
      </trkpt>
      <trkpt lat="44.20434" lon="6.93964">
        <ele>1935.4406747473</ele>
        <time>2019-06-23T07:27:20Z</time>
      </trkpt>
      <trkpt lat="44.20435" lon="6.93966">
        <ele>1935.9974878838</ele>
        <time>2019-06-23T07:27:34Z</time>
      </trkpt>
      <trkpt lat="44.20436" lon="6.93969">
        <ele>1940.9857386593</ele>
        <time>2019-06-23T07:27:52Z</time>
      </trkpt>
      <trkpt lat="44.20437" lon="6.93973">
        <ele>1943.5519271368</ele>
        <time>2019-06-23T07:28:01Z</time>
      </trkpt>
      <trkpt lat="44.20439" lon="6.93976">
        <ele>1943.1860560165</ele>
        <time>2019-06-23T07:28:03Z</time>
      </trkpt>
      <trkpt lat="44.20441" lon="6.93975">
        <ele>1942.6978764646</ele>
        <time>2019-06-23T07:28:07Z</time>
      </trkpt>
      <trkpt lat="44.20443" lon="6.93974">
        <ele>1942.9674351519</ele>
        <time>2019-06-23T07:28:10Z</time>
      </trkpt>
      <trkpt lat="44.20445" lon="6.93975">
        <ele>1943.1091816605</ele>
        <time>2019-06-23T07:28:14Z</time>
      </trkpt>
      <trkpt lat="44.20447" lon="6.93974">
        <ele>1943.1637172489</ele>
        <time>2019-06-23T07:28:16Z</time>
      </trkpt>
      <trkpt lat="44.20449" lon="6.93974">
        <ele>1944.0241310571</ele>
        <time>2019-06-23T07:28:21Z</time>
      </trkpt>
      <trkpt lat="44.20451" lon="6.93976">
        <ele>1944.3141622615</ele>
        <time>2019-06-23T07:28:24Z</time>
      </trkpt>
      <trkpt lat="44.20453" lon="6.93976">
        <ele>1944.379343567</ele>
        <time>2019-06-23T07:28:26Z</time>
      </trkpt>
      <trkpt lat="44.20454" lon="6.93978">
        <ele>1943.5052897536</ele>
        <time>2019-06-23T07:28:30Z</time>
      </trkpt>
      <trkpt lat="44.20456" lon="6.93979">
        <ele>1942.6505979303</ele>
        <time>2019-06-23T07:28:33Z</time>
      </trkpt>
      <trkpt lat="44.20458" lon="6.93978">
        <ele>1942.0667938702</ele>
        <time>2019-06-23T07:28:36Z</time>
      </trkpt>
      <trkpt lat="44.20461" lon="6.93978">
        <ele>1942.6218112752</ele>
        <time>2019-06-23T07:28:39Z</time>
      </trkpt>
      <trkpt lat="44.20463" lon="6.93978">
        <ele>1942.8276458467</ele>
        <time>2019-06-23T07:28:43Z</time>
      </trkpt>
      <trkpt lat="44.20465" lon="6.93978">
        <ele>1942.6924378846</ele>
        <time>2019-06-23T07:28:45Z</time>
      </trkpt>
      <trkpt lat="44.20467" lon="6.93978">
        <ele>1942.6335321197</ele>
        <time>2019-06-23T07:28:47Z</time>
      </trkpt>
      <trkpt lat="44.20468" lon="6.93976">
        <ele>1942.2883672321</ele>
        <time>2019-06-23T07:28:50Z</time>
      </trkpt>
      <trkpt lat="44.20471" lon="6.93977">
        <ele>1942.4025817687</ele>
        <time>2019-06-23T07:28:54Z</time>
      </trkpt>
      <trkpt lat="44.20473" lon="6.93976">
        <ele>1942.2596462056</ele>
        <time>2019-06-23T07:28:57Z</time>
      </trkpt>
      <trkpt lat="44.20475" lon="6.93974">
        <ele>1942.394471275</ele>
        <time>2019-06-23T07:28:59Z</time>
      </trkpt>
      <trkpt lat="44.20477" lon="6.93975">
        <ele>1942.1093357131</ele>
        <time>2019-06-23T07:29:02Z</time>
      </trkpt>
      <trkpt lat="44.20479" lon="6.93974">
        <ele>1941.864062623</ele>
        <time>2019-06-23T07:29:04Z</time>
      </trkpt>
      <trkpt lat="44.20481" lon="6.93974">
        <ele>1941.8496504683</ele>
        <time>2019-06-23T07:29:07Z</time>
      </trkpt>
      <trkpt lat="44.20483" lon="6.93974">
        <ele>1941.674441801</ele>
        <time>2019-06-23T07:29:09Z</time>
      </trkpt>
      <trkpt lat="44.20485" lon="6.93975">
        <ele>1941.4347519573</ele>
        <time>2019-06-23T07:29:12Z</time>
      </trkpt>
      <trkpt lat="44.20488" lon="6.93974">
        <ele>1942.6256128224</ele>
        <time>2019-06-23T07:29:19Z</time>
      </trkpt>
      <trkpt lat="44.2049" lon="6.93973">
        <ele>1942.4259822444</ele>
        <time>2019-06-23T07:29:23Z</time>
      </trkpt>
      <trkpt lat="44.20492" lon="6.93972">
        <ele>1942.6814460474</ele>
        <time>2019-06-23T07:29:25Z</time>
      </trkpt>
      <trkpt lat="44.20494" lon="6.93971">
        <ele>1942.9022905756</ele>
        <time>2019-06-23T07:29:27Z</time>
      </trkpt>
      <trkpt lat="44.20496" lon="6.93971">
        <ele>1943.2435289949</ele>
        <time>2019-06-23T07:29:29Z</time>
      </trkpt>
      <trkpt lat="44.20498" lon="6.93971">
        <ele>1943.5934833882</ele>
        <time>2019-06-23T07:29:31Z</time>
      </trkpt>
      <trkpt lat="44.205" lon="6.93974">
        <ele>1943.3660477088</ele>
        <time>2019-06-23T07:29:34Z</time>
      </trkpt>
      <trkpt lat="44.20502" lon="6.93975">
        <ele>1943.1814388481</ele>
        <time>2019-06-23T07:29:37Z</time>
      </trkpt>
      <trkpt lat="44.20503" lon="6.93975">
        <ele>1942.9750165154</ele>
        <time>2019-06-23T07:29:39Z</time>
      </trkpt>
      <trkpt lat="44.20505" lon="6.93976">
        <ele>1942.8495150728</ele>
        <time>2019-06-23T07:29:41Z</time>
      </trkpt>
      <trkpt lat="44.20508" lon="6.93976">
        <ele>1942.7701553494</ele>
        <time>2019-06-23T07:29:44Z</time>
      </trkpt>
      <trkpt lat="44.2051" lon="6.93977">
        <ele>1943.1860883942</ele>
        <time>2019-06-23T07:29:46Z</time>
      </trkpt>
      <trkpt lat="44.20512" lon="6.93977">
        <ele>1943.0647815938</ele>
        <time>2019-06-23T07:29:49Z</time>
      </trkpt>
      <trkpt lat="44.20515" lon="6.93976">
        <ele>1943.2102079632</ele>
        <time>2019-06-23T07:29:51Z</time>
      </trkpt>
      <trkpt lat="44.20517" lon="6.93978">
        <ele>1942.515265504</ele>
        <time>2019-06-23T07:29:55Z</time>
      </trkpt>
      <trkpt lat="44.20519" lon="6.9398">
        <ele>1941.5154714215</ele>
        <time>2019-06-23T07:29:58Z</time>
      </trkpt>
      <trkpt lat="44.20521" lon="6.9398">
        <ele>1940.4121512353</ele>
        <time>2019-06-23T07:30:00Z</time>
      </trkpt>
      <trkpt lat="44.20523" lon="6.93979">
        <ele>1940.6628944298</ele>
        <time>2019-06-23T07:30:03Z</time>
      </trkpt>
      <trkpt lat="44.20525" lon="6.93978">
        <ele>1941.6850866239</ele>
        <time>2019-06-23T07:30:05Z</time>
      </trkpt>
      <trkpt lat="44.20528" lon="6.93979">
        <ele>1943.1956354873</ele>
        <time>2019-06-23T07:30:08Z</time>
      </trkpt>
      <trkpt lat="44.2053" lon="6.93979">
        <ele>1943.6637626883</ele>
        <time>2019-06-23T07:30:10Z</time>
      </trkpt>
      <trkpt lat="44.20532" lon="6.93978">
        <ele>1943.5401645609</ele>
        <time>2019-06-23T07:30:12Z</time>
      </trkpt>
      <trkpt lat="44.20535" lon="6.93978">
        <ele>1943.5092158915</ele>
        <time>2019-06-23T07:30:14Z</time>
      </trkpt>
      <trkpt lat="44.20537" lon="6.93978">
        <ele>1943.6669135555</ele>
        <time>2019-06-23T07:30:16Z</time>
      </trkpt>
      <trkpt lat="44.2054" lon="6.93979">
        <ele>1943.7222679462</ele>
        <time>2019-06-23T07:30:19Z</time>
      </trkpt>
      <trkpt lat="44.20542" lon="6.93978">
        <ele>1943.8269111334</ele>
        <time>2019-06-23T07:30:22Z</time>
      </trkpt>
      <trkpt lat="44.20545" lon="6.93978">
        <ele>1943.4444883932</ele>
        <time>2019-06-23T07:30:24Z</time>
      </trkpt>
      <trkpt lat="44.20548" lon="6.93977">
        <ele>1942.6977735189</ele>
        <time>2019-06-23T07:30:27Z</time>
      </trkpt>
      <trkpt lat="44.2055" lon="6.93977">
        <ele>1942.4881514127</ele>
        <time>2019-06-23T07:30:29Z</time>
      </trkpt>
      <trkpt lat="44.20552" lon="6.93977">
        <ele>1942.4465233516</ele>
        <time>2019-06-23T07:30:31Z</time>
      </trkpt>
      <trkpt lat="44.20555" lon="6.93978">
        <ele>1942.7361183517</ele>
        <time>2019-06-23T07:30:33Z</time>
      </trkpt>
      <trkpt lat="44.20557" lon="6.93978">
        <ele>1943.1885330356</ele>
        <time>2019-06-23T07:30:35Z</time>
      </trkpt>
      <trkpt lat="44.20559" lon="6.93978">
        <ele>1943.3010797335</ele>
        <time>2019-06-23T07:30:38Z</time>
      </trkpt>
      <trkpt lat="44.20559" lon="6.93981">
        <ele>1943.2245650427</ele>
        <time>2019-06-23T07:30:41Z</time>
      </trkpt>
      <trkpt lat="44.20561" lon="6.93982">
        <ele>1942.8206641261</ele>
        <time>2019-06-23T07:30:44Z</time>
      </trkpt>
      <trkpt lat="44.20563" lon="6.93984">
        <ele>1942.5449868005</ele>
        <time>2019-06-23T07:30:46Z</time>
      </trkpt>
      <trkpt lat="44.20566" lon="6.93985">
        <ele>1942.253494821</ele>
        <time>2019-06-23T07:30:48Z</time>
      </trkpt>
      <trkpt lat="44.20569" lon="6.93984">
        <ele>1942.085172252</ele>
        <time>2019-06-23T07:30:51Z</time>
      </trkpt>
      <trkpt lat="44.20571" lon="6.93983">
        <ele>1942.8961547011</ele>
        <time>2019-06-23T07:30:54Z</time>
      </trkpt>
      <trkpt lat="44.20573" lon="6.93983">
        <ele>1942.8191486921</ele>
        <time>2019-06-23T07:30:56Z</time>
      </trkpt>
      <trkpt lat="44.20575" lon="6.93983">
        <ele>1942.5896462946</ele>
        <time>2019-06-23T07:30:58Z</time>
      </trkpt>
      <trkpt lat="44.20578" lon="6.93984">
        <ele>1941.8692240858</ele>
        <time>2019-06-23T07:31:01Z</time>
      </trkpt>
      <trkpt lat="44.20581" lon="6.93985">
        <ele>1941.1556713523</ele>
        <time>2019-06-23T07:31:04Z</time>
      </trkpt>
      <trkpt lat="44.20583" lon="6.93985">
        <ele>1941.383487635</ele>
        <time>2019-06-23T07:31:07Z</time>
      </trkpt>
      <trkpt lat="44.20586" lon="6.93985">
        <ele>1942.3888330159</ele>
        <time>2019-06-23T07:31:09Z</time>
      </trkpt>
      <trkpt lat="44.20588" lon="6.93985">
        <ele>1943.647282488</ele>
        <time>2019-06-23T07:31:12Z</time>
      </trkpt>
      <trkpt lat="44.2059" lon="6.93986">
        <ele>1944.5669955165</ele>
        <time>2019-06-23T07:31:15Z</time>
      </trkpt>
      <trkpt lat="44.20593" lon="6.93986">
        <ele>1944.7002122308</ele>
        <time>2019-06-23T07:31:18Z</time>
      </trkpt>
      <trkpt lat="44.20594" lon="6.93988">
        <ele>1944.5693907606</ele>
        <time>2019-06-23T07:31:22Z</time>
      </trkpt>
      <trkpt lat="44.20596" lon="6.93988">
        <ele>1944.1692728963</ele>
        <time>2019-06-23T07:31:26Z</time>
      </trkpt>
      <trkpt lat="44.20598" lon="6.93989">
        <ele>1943.6953124003</ele>
        <time>2019-06-23T07:31:29Z</time>
      </trkpt>
      <trkpt lat="44.206" lon="6.9399">
        <ele>1943.5008917729</ele>
        <time>2019-06-23T07:31:32Z</time>
      </trkpt>
      <trkpt lat="44.20602" lon="6.93989">
        <ele>1944.4778546129</ele>
        <time>2019-06-23T07:31:35Z</time>
      </trkpt>
      <trkpt lat="44.20604" lon="6.93991">
        <ele>1945.660284613</ele>
        <time>2019-06-23T07:31:40Z</time>
      </trkpt>
      <trkpt lat="44.20606" lon="6.93991">
        <ele>1945.574342263</ele>
        <time>2019-06-23T07:31:43Z</time>
      </trkpt>
      <trkpt lat="44.20607" lon="6.93994">
        <ele>1945.0886592815</ele>
        <time>2019-06-23T07:31:47Z</time>
      </trkpt>
      <trkpt lat="44.20609" lon="6.93995">
        <ele>1945.0750187269</ele>
        <time>2019-06-23T07:31:49Z</time>
      </trkpt>
      <trkpt lat="44.2061" lon="6.93997">
        <ele>1944.9885376912</ele>
        <time>2019-06-23T07:31:52Z</time>
      </trkpt>
      <trkpt lat="44.20613" lon="6.93997">
        <ele>1945.607756239</ele>
        <time>2019-06-23T07:31:55Z</time>
      </trkpt>
      <trkpt lat="44.20614" lon="6.93998">
        <ele>1946.828517828</ele>
        <time>2019-06-23T07:31:59Z</time>
      </trkpt>
      <trkpt lat="44.20617" lon="6.93999">
        <ele>1947.2985152615</ele>
        <time>2019-06-23T07:32:01Z</time>
      </trkpt>
      <trkpt lat="44.20619" lon="6.93998">
        <ele>1947.7389933912</ele>
        <time>2019-06-23T07:32:03Z</time>
      </trkpt>
      <trkpt lat="44.20621" lon="6.93998">
        <ele>1948.1222744539</ele>
        <time>2019-06-23T07:32:05Z</time>
      </trkpt>
      <trkpt lat="44.20623" lon="6.93998">
        <ele>1948.4138879965</ele>
        <time>2019-06-23T07:32:08Z</time>
      </trkpt>
      <trkpt lat="44.20625" lon="6.93996">
        <ele>1950.1376801903</ele>
        <time>2019-06-23T07:32:12Z</time>
      </trkpt>
      <trkpt lat="44.20626" lon="6.93999">
        <ele>1950.9923323164</ele>
        <time>2019-06-23T07:32:16Z</time>
      </trkpt>
      <trkpt lat="44.20629" lon="6.93999">
        <ele>1950.2979131873</ele>
        <time>2019-06-23T07:32:19Z</time>
      </trkpt>
      <trkpt lat="44.2063" lon="6.94002">
        <ele>1949.9619741101</ele>
        <time>2019-06-23T07:32:21Z</time>
      </trkpt>
      <trkpt lat="44.2063" lon="6.93999">
        <ele>1951.3480712974</ele>
        <time>2019-06-23T07:32:28Z</time>
      </trkpt>
      <trkpt lat="44.20632" lon="6.94001">
        <ele>1953.8095817645</ele>
        <time>2019-06-23T07:32:48Z</time>
      </trkpt>
      <trkpt lat="44.20632" lon="6.94004">
        <ele>1953.7400129702</ele>
        <time>2019-06-23T07:32:53Z</time>
      </trkpt>
      <trkpt lat="44.20633" lon="6.94007">
        <ele>1952.0805021638</ele>
        <time>2019-06-23T07:32:56Z</time>
      </trkpt>
      <trkpt lat="44.20635" lon="6.94009">
        <ele>1950.9173917677</ele>
        <time>2019-06-23T07:32:58Z</time>
      </trkpt>
      <trkpt lat="44.20637" lon="6.9401">
        <ele>1950.4561585939</ele>
        <time>2019-06-23T07:33:00Z</time>
      </trkpt>
      <trkpt lat="44.20638" lon="6.94011">
        <ele>1950.4717123784</ele>
        <time>2019-06-23T07:33:01Z</time>
      </trkpt>
      <trkpt lat="44.20641" lon="6.94013">
        <ele>1950.5931472737</ele>
        <time>2019-06-23T07:33:03Z</time>
      </trkpt>
      <trkpt lat="44.20643" lon="6.94015">
        <ele>1951.394455846</ele>
        <time>2019-06-23T07:33:06Z</time>
      </trkpt>
      <trkpt lat="44.20645" lon="6.94016">
        <ele>1953.0535491592</ele>
        <time>2019-06-23T07:33:09Z</time>
      </trkpt>
      <trkpt lat="44.20647" lon="6.94017">
        <ele>1953.6538579189</ele>
        <time>2019-06-23T07:33:11Z</time>
      </trkpt>
      <trkpt lat="44.20649" lon="6.94018">
        <ele>1954.6322273564</ele>
        <time>2019-06-23T07:33:14Z</time>
      </trkpt>
      <trkpt lat="44.2065" lon="6.9402">
        <ele>1954.9714061312</ele>
        <time>2019-06-23T07:33:16Z</time>
      </trkpt>
      <trkpt lat="44.20653" lon="6.94021">
        <ele>1955.2474474073</ele>
        <time>2019-06-23T07:33:19Z</time>
      </trkpt>
      <trkpt lat="44.20656" lon="6.94022">
        <ele>1955.57308842</ele>
        <time>2019-06-23T07:33:21Z</time>
      </trkpt>
      <trkpt lat="44.20659" lon="6.94023">
        <ele>1955.9435394832</ele>
        <time>2019-06-23T07:33:23Z</time>
      </trkpt>
      <trkpt lat="44.20661" lon="6.94024">
        <ele>1956.3506189625</ele>
        <time>2019-06-23T07:33:25Z</time>
      </trkpt>
      <trkpt lat="44.20663" lon="6.94025">
        <ele>1959.2438608018</ele>
        <time>2019-06-23T07:33:32Z</time>
      </trkpt>
      <trkpt lat="44.20665" lon="6.94027">
        <ele>1959.9856122259</ele>
        <time>2019-06-23T07:33:35Z</time>
      </trkpt>
      <trkpt lat="44.20667" lon="6.94027">
        <ele>1960.372431938</ele>
        <time>2019-06-23T07:33:37Z</time>
      </trkpt>
      <trkpt lat="44.20668" lon="6.94029">
        <ele>1960.8233519959</ele>
        <time>2019-06-23T07:33:40Z</time>
      </trkpt>
      <trkpt lat="44.2067" lon="6.94032">
        <ele>1961.3336707844</ele>
        <time>2019-06-23T07:33:46Z</time>
      </trkpt>
      <trkpt lat="44.20672" lon="6.94032">
        <ele>1961.6567071569</ele>
        <time>2019-06-23T07:33:48Z</time>
      </trkpt>
      <trkpt lat="44.20673" lon="6.94035">
        <ele>1961.9878660583</ele>
        <time>2019-06-23T07:33:51Z</time>
      </trkpt>
      <trkpt lat="44.20673" lon="6.94038">
        <ele>1961.9256143875</ele>
        <time>2019-06-23T07:33:56Z</time>
      </trkpt>
      <trkpt lat="44.20675" lon="6.94039">
        <ele>1962.4493986881</ele>
        <time>2019-06-23T07:34:00Z</time>
      </trkpt>
      <trkpt lat="44.20677" lon="6.94039">
        <ele>1963.1746944724</ele>
        <time>2019-06-23T07:34:03Z</time>
      </trkpt>
      <trkpt lat="44.20679" lon="6.94042">
        <ele>1963.5106656641</ele>
        <time>2019-06-23T07:34:06Z</time>
      </trkpt>
      <trkpt lat="44.2068" lon="6.94044">
        <ele>1964.1347915145</ele>
        <time>2019-06-23T07:34:09Z</time>
      </trkpt>
      <trkpt lat="44.20682" lon="6.94045">
        <ele>1963.935288241</ele>
        <time>2019-06-23T07:34:11Z</time>
      </trkpt>
      <trkpt lat="44.20684" lon="6.94047">
        <ele>1964.68657171</ele>
        <time>2019-06-23T07:34:14Z</time>
      </trkpt>
      <trkpt lat="44.20686" lon="6.94048">
        <ele>1966.8736918651</ele>
        <time>2019-06-23T07:34:18Z</time>
      </trkpt>
      <trkpt lat="44.20688" lon="6.94047">
        <ele>1967.5709637998</ele>
        <time>2019-06-23T07:34:20Z</time>
      </trkpt>
      <trkpt lat="44.20689" lon="6.9405">
        <ele>1969.1748828987</ele>
        <time>2019-06-23T07:34:24Z</time>
      </trkpt>
      <trkpt lat="44.20689" lon="6.94053">
        <ele>1969.5674797838</ele>
        <time>2019-06-23T07:34:28Z</time>
      </trkpt>
      <trkpt lat="44.2069" lon="6.94056">
        <ele>1970.0946754833</ele>
        <time>2019-06-23T07:34:31Z</time>
      </trkpt>
      <trkpt lat="44.20691" lon="6.94058">
        <ele>1970.7783016134</ele>
        <time>2019-06-23T07:34:34Z</time>
      </trkpt>
      <trkpt lat="44.20693" lon="6.94061">
        <ele>1971.1269905063</ele>
        <time>2019-06-23T07:34:36Z</time>
      </trkpt>
      <trkpt lat="44.20694" lon="6.94063">
        <ele>1971.3098048233</ele>
        <time>2019-06-23T07:34:38Z</time>
      </trkpt>
      <trkpt lat="44.20695" lon="6.94065">
        <ele>1971.5833064867</ele>
        <time>2019-06-23T07:34:41Z</time>
      </trkpt>
      <trkpt lat="44.20696" lon="6.94068">
        <ele>1971.9589179045</ele>
        <time>2019-06-23T07:34:44Z</time>
      </trkpt>
      <trkpt lat="44.20698" lon="6.94071">
        <ele>1972.2768536663</ele>
        <time>2019-06-23T07:34:47Z</time>
      </trkpt>
      <trkpt lat="44.20699" lon="6.94073">
        <ele>1971.9909167589</ele>
        <time>2019-06-23T07:34:49Z</time>
      </trkpt>
      <trkpt lat="44.20701" lon="6.94075">
        <ele>1971.7136870686</ele>
        <time>2019-06-23T07:34:51Z</time>
      </trkpt>
      <trkpt lat="44.20702" lon="6.94077">
        <ele>1971.8704525133</ele>
        <time>2019-06-23T07:34:54Z</time>
      </trkpt>
      <trkpt lat="44.20704" lon="6.94079">
        <ele>1972.1686971338</ele>
        <time>2019-06-23T07:34:57Z</time>
      </trkpt>
      <trkpt lat="44.20706" lon="6.9408">
        <ele>1972.6871957072</ele>
        <time>2019-06-23T07:34:59Z</time>
      </trkpt>
      <trkpt lat="44.20708" lon="6.94081">
        <ele>1973.9319653666</ele>
        <time>2019-06-23T07:35:03Z</time>
      </trkpt>
      <trkpt lat="44.20709" lon="6.94084">
        <ele>1974.7079979573</ele>
        <time>2019-06-23T07:35:05Z</time>
      </trkpt>
      <trkpt lat="44.2071" lon="6.94086">
        <ele>1974.9833487617</ele>
        <time>2019-06-23T07:35:07Z</time>
      </trkpt>
      <trkpt lat="44.20712" lon="6.94089">
        <ele>1974.7915293228</ele>
        <time>2019-06-23T07:35:10Z</time>
      </trkpt>
      <trkpt lat="44.20714" lon="6.9409">
        <ele>1975.4911449817</ele>
        <time>2019-06-23T07:35:13Z</time>
      </trkpt>
      <trkpt lat="44.20715" lon="6.94092">
        <ele>1975.4895087637</ele>
        <time>2019-06-23T07:35:15Z</time>
      </trkpt>
      <trkpt lat="44.20716" lon="6.94096">
        <ele>1975.9692823791</ele>
        <time>2019-06-23T07:35:19Z</time>
      </trkpt>
      <trkpt lat="44.20718" lon="6.94098">
        <ele>1975.8266637434</ele>
        <time>2019-06-23T07:35:21Z</time>
      </trkpt>
      <trkpt lat="44.20718" lon="6.94101">
        <ele>1975.2665832773</ele>
        <time>2019-06-23T07:35:24Z</time>
      </trkpt>
      <trkpt lat="44.20719" lon="6.94104">
        <ele>1975.6501877511</ele>
        <time>2019-06-23T07:35:27Z</time>
      </trkpt>
      <trkpt lat="44.20721" lon="6.94108">
        <ele>1975.9771981827</ele>
        <time>2019-06-23T07:35:29Z</time>
      </trkpt>
      <trkpt lat="44.20723" lon="6.94109">
        <ele>1976.6219469591</ele>
        <time>2019-06-23T07:35:33Z</time>
      </trkpt>
      <trkpt lat="44.20725" lon="6.9411">
        <ele>1976.9712932583</ele>
        <time>2019-06-23T07:35:39Z</time>
      </trkpt>
      <trkpt lat="44.20727" lon="6.94112">
        <ele>1977.3753597923</ele>
        <time>2019-06-23T07:35:41Z</time>
      </trkpt>
      <trkpt lat="44.20729" lon="6.94114">
        <ele>1977.7870802091</ele>
        <time>2019-06-23T07:35:44Z</time>
      </trkpt>
      <trkpt lat="44.2073" lon="6.94116">
        <ele>1978.4525982898</ele>
        <time>2019-06-23T07:35:47Z</time>
      </trkpt>
      <trkpt lat="44.20733" lon="6.94118">
        <ele>1978.4859315744</ele>
        <time>2019-06-23T07:35:50Z</time>
      </trkpt>
      <trkpt lat="44.20735" lon="6.94121">
        <ele>1978.3247744865</ele>
        <time>2019-06-23T07:35:52Z</time>
      </trkpt>
      <trkpt lat="44.20736" lon="6.94123">
        <ele>1978.4526614866</ele>
        <time>2019-06-23T07:35:57Z</time>
      </trkpt>
      <trkpt lat="44.20739" lon="6.94124">
        <ele>1978.2503344092</ele>
        <time>2019-06-23T07:36:00Z</time>
      </trkpt>
      <trkpt lat="44.20741" lon="6.94126">
        <ele>1977.9150082378</ele>
        <time>2019-06-23T07:36:02Z</time>
      </trkpt>
      <trkpt lat="44.20742" lon="6.94128">
        <ele>1977.6429698062</ele>
        <time>2019-06-23T07:36:04Z</time>
      </trkpt>
      <trkpt lat="44.20743" lon="6.94131">
        <ele>1977.8665402115</ele>
        <time>2019-06-23T07:36:07Z</time>
      </trkpt>
      <trkpt lat="44.20745" lon="6.94133">
        <ele>1977.9869962842</ele>
        <time>2019-06-23T07:36:09Z</time>
      </trkpt>
      <trkpt lat="44.20745" lon="6.94136">
        <ele>1978.6946518983</ele>
        <time>2019-06-23T07:36:12Z</time>
      </trkpt>
      <trkpt lat="44.20745" lon="6.94136">
        <ele>1978.8496376428</ele>
        <time>2019-06-23T07:36:21Z</time>
      </trkpt>
      <trkpt lat="44.20743" lon="6.94136">
        <ele>1980.6611079813</ele>
        <time>2019-06-23T07:36:24Z</time>
      </trkpt>
      <trkpt lat="44.20742" lon="6.94138">
        <ele>1985.4140187263</ele>
        <time>2019-06-23T07:36:39Z</time>
      </trkpt>
      <trkpt lat="44.20742" lon="6.94139">
        <ele>1982.7148104463</ele>
        <time>2019-06-23T07:36:57Z</time>
      </trkpt>
      <trkpt lat="44.20742" lon="6.94142">
        <ele>1993.6922277028</ele>
        <time>2019-06-23T07:37:37Z</time>
      </trkpt>
      <trkpt lat="44.20739" lon="6.94141">
        <ele>1993.8467497181</ele>
        <time>2019-06-23T07:37:43Z</time>
      </trkpt>
      <trkpt lat="44.20739" lon="6.94144">
        <ele>1994.0433364852</ele>
        <time>2019-06-23T07:37:57Z</time>
      </trkpt>
      <trkpt lat="44.2074" lon="6.94147">
        <ele>1993.5200455923</ele>
        <time>2019-06-23T07:37:58Z</time>
      </trkpt>
      <trkpt lat="44.2074" lon="6.9415">
        <ele>1992.836548278</ele>
        <time>2019-06-23T07:38:00Z</time>
      </trkpt>
      <trkpt lat="44.20742" lon="6.94152">
        <ele>1991.5783860174</ele>
        <time>2019-06-23T07:38:03Z</time>
      </trkpt>
      <trkpt lat="44.20744" lon="6.94154">
        <ele>1990.1717747658</ele>
        <time>2019-06-23T07:38:05Z</time>
      </trkpt>
      <trkpt lat="44.20745" lon="6.94155">
        <ele>1988.698061078</ele>
        <time>2019-06-23T07:38:07Z</time>
      </trkpt>
      <trkpt lat="44.20747" lon="6.94157">
        <ele>1987.7048200236</ele>
        <time>2019-06-23T07:38:09Z</time>
      </trkpt>
      <trkpt lat="44.20749" lon="6.94159">
        <ele>1986.5532637052</ele>
        <time>2019-06-23T07:38:11Z</time>
      </trkpt>
      <trkpt lat="44.20751" lon="6.9416">
        <ele>1985.3677901975</ele>
        <time>2019-06-23T07:38:13Z</time>
      </trkpt>
      <trkpt lat="44.20753" lon="6.94161">
        <ele>1984.5024960546</ele>
        <time>2019-06-23T07:38:15Z</time>
      </trkpt>
      <trkpt lat="44.20755" lon="6.94165">
        <ele>1984.4094986938</ele>
        <time>2019-06-23T07:38:18Z</time>
      </trkpt>
      <trkpt lat="44.20756" lon="6.94168">
        <ele>1984.3870238881</ele>
        <time>2019-06-23T07:38:20Z</time>
      </trkpt>
      <trkpt lat="44.20757" lon="6.94171">
        <ele>1984.0874531003</ele>
        <time>2019-06-23T07:38:21Z</time>
      </trkpt>
      <trkpt lat="44.20758" lon="6.94173">
        <ele>1984.2692051921</ele>
        <time>2019-06-23T07:38:23Z</time>
      </trkpt>
      <trkpt lat="44.20759" lon="6.94175">
        <ele>1985.0114008109</ele>
        <time>2019-06-23T07:38:25Z</time>
      </trkpt>
      <trkpt lat="44.20761" lon="6.94177">
        <ele>1985.4630999273</ele>
        <time>2019-06-23T07:38:27Z</time>
      </trkpt>
      <trkpt lat="44.20762" lon="6.9418">
        <ele>1985.9429055061</ele>
        <time>2019-06-23T07:38:29Z</time>
      </trkpt>
      <trkpt lat="44.20764" lon="6.94183">
        <ele>1987.0228585065</ele>
        <time>2019-06-23T07:38:31Z</time>
      </trkpt>
      <trkpt lat="44.20766" lon="6.94186">
        <ele>1988.5309140847</ele>
        <time>2019-06-23T07:38:35Z</time>
      </trkpt>
      <trkpt lat="44.20767" lon="6.94189">
        <ele>1988.2703840363</ele>
        <time>2019-06-23T07:38:37Z</time>
      </trkpt>
      <trkpt lat="44.20768" lon="6.94192">
        <ele>1988.3409031582</ele>
        <time>2019-06-23T07:38:39Z</time>
      </trkpt>
      <trkpt lat="44.20768" lon="6.94195">
        <ele>1988.0096520742</ele>
        <time>2019-06-23T07:38:41Z</time>
      </trkpt>
      <trkpt lat="44.2077" lon="6.94198">
        <ele>1987.2694080565</ele>
        <time>2019-06-23T07:38:43Z</time>
      </trkpt>
      <trkpt lat="44.20771" lon="6.94201">
        <ele>1986.1823934049</ele>
        <time>2019-06-23T07:38:45Z</time>
      </trkpt>
      <trkpt lat="44.20773" lon="6.94202">
        <ele>1985.7012733199</ele>
        <time>2019-06-23T07:38:47Z</time>
      </trkpt>
      <trkpt lat="44.20774" lon="6.94205">
        <ele>1986.5250773368</ele>
        <time>2019-06-23T07:38:51Z</time>
      </trkpt>
      <trkpt lat="44.20776" lon="6.94209">
        <ele>1986.4387770327</ele>
        <time>2019-06-23T07:38:53Z</time>
      </trkpt>
      <trkpt lat="44.20777" lon="6.94212">
        <ele>1985.8359227628</ele>
        <time>2019-06-23T07:38:55Z</time>
      </trkpt>
      <trkpt lat="44.20779" lon="6.94214">
        <ele>1986.5764401298</ele>
        <time>2019-06-23T07:38:59Z</time>
      </trkpt>
      <trkpt lat="44.20781" lon="6.94216">
        <ele>1987.524375227</ele>
        <time>2019-06-23T07:39:01Z</time>
      </trkpt>
      <trkpt lat="44.20783" lon="6.94219">
        <ele>1988.6867575295</ele>
        <time>2019-06-23T07:39:04Z</time>
      </trkpt>
      <trkpt lat="44.20782" lon="6.94221">
        <ele>1996.9917069119</ele>
        <time>2019-06-23T07:39:48Z</time>
      </trkpt>
      <trkpt lat="44.20782" lon="6.94224">
        <ele>1998.1458428517</ele>
        <time>2019-06-23T07:39:50Z</time>
      </trkpt>
      <trkpt lat="44.20783" lon="6.94227">
        <ele>2001.2061859288</ele>
        <time>2019-06-23T07:39:54Z</time>
      </trkpt>
      <trkpt lat="44.20785" lon="6.94225">
        <ele>2007.322192658</ele>
        <time>2019-06-23T07:40:01Z</time>
      </trkpt>
      <trkpt lat="44.20787" lon="6.94223">
        <ele>2006.429171762</ele>
        <time>2019-06-23T07:40:13Z</time>
      </trkpt>
      <trkpt lat="44.20789" lon="6.94222">
        <ele>1999.0432107805</ele>
        <time>2019-06-23T07:40:27Z</time>
      </trkpt>
      <trkpt lat="44.20789" lon="6.94219">
        <ele>1996.3029922399</ele>
        <time>2019-06-23T07:40:42Z</time>
      </trkpt>
      <trkpt lat="44.20787" lon="6.94216">
        <ele>1999.1907613662</ele>
        <time>2019-06-23T07:40:49Z</time>
      </trkpt>
      <trkpt lat="44.20785" lon="6.94213">
        <ele>1998.7760072397</ele>
        <time>2019-06-23T07:40:52Z</time>
      </trkpt>
      <trkpt lat="44.20783" lon="6.94212">
        <ele>1994.9335589795</ele>
        <time>2019-06-23T07:41:03Z</time>
      </trkpt>
      <trkpt lat="44.20784" lon="6.94215">
        <ele>1995.4053492387</ele>
        <time>2019-06-23T07:41:28Z</time>
      </trkpt>
      <trkpt lat="44.20784" lon="6.94218">
        <ele>1995.5856652468</ele>
        <time>2019-06-23T07:41:42Z</time>
      </trkpt>
      <trkpt lat="44.20783" lon="6.9422">
        <ele>1996.66469299</ele>
        <time>2019-06-23T07:41:50Z</time>
      </trkpt>
      <trkpt lat="44.20784" lon="6.94223">
        <ele>1996.0438356369</ele>
        <time>2019-06-23T07:41:59Z</time>
      </trkpt>
      <trkpt lat="44.20783" lon="6.9422">
        <ele>1992.9513336017</ele>
        <time>2019-06-23T07:42:20Z</time>
      </trkpt>
      <trkpt lat="44.20781" lon="6.94221">
        <ele>1994.8973450223</ele>
        <time>2019-06-23T07:42:28Z</time>
      </trkpt>
      <trkpt lat="44.20782" lon="6.94227">
        <ele>1995.6029848332</ele>
        <time>2019-06-23T07:42:31Z</time>
      </trkpt>
      <trkpt lat="44.20782" lon="6.94231">
        <ele>1995.4571092496</ele>
        <time>2019-06-23T07:42:32Z</time>
      </trkpt>
      <trkpt lat="44.20782" lon="6.94234">
        <ele>1994.8768843831</ele>
        <time>2019-06-23T07:42:34Z</time>
      </trkpt>
      <trkpt lat="44.2078" lon="6.9423">
        <ele>1990.319915081</ele>
        <time>2019-06-23T07:42:43Z</time>
      </trkpt>
      <trkpt lat="44.2078" lon="6.94228">
        <ele>1997.7318811447</ele>
        <time>2019-06-23T07:42:54Z</time>
      </trkpt>
      <trkpt lat="44.20782" lon="6.94231">
        <ele>1997.7264104687</ele>
        <time>2019-06-23T07:42:59Z</time>
      </trkpt>
      <trkpt lat="44.20784" lon="6.94231">
        <ele>1997.9927590235</ele>
        <time>2019-06-23T07:43:01Z</time>
      </trkpt>
      <trkpt lat="44.20783" lon="6.94234">
        <ele>1997.6643326998</ele>
        <time>2019-06-23T07:43:07Z</time>
      </trkpt>
      <trkpt lat="44.20785" lon="6.94235">
        <ele>1997.915805238</ele>
        <time>2019-06-23T07:43:09Z</time>
      </trkpt>
      <trkpt lat="44.20787" lon="6.94238">
        <ele>1998.2960513872</ele>
        <time>2019-06-23T07:43:12Z</time>
      </trkpt>
      <trkpt lat="44.2079" lon="6.9424">
        <ele>1998.5763318047</ele>
        <time>2019-06-23T07:43:16Z</time>
      </trkpt>
      <trkpt lat="44.20791" lon="6.94242">
        <ele>1999.1809701509</ele>
        <time>2019-06-23T07:43:18Z</time>
      </trkpt>
      <trkpt lat="44.20794" lon="6.94245">
        <ele>1999.7040221496</ele>
        <time>2019-06-23T07:43:20Z</time>
      </trkpt>
      <trkpt lat="44.20796" lon="6.94247">
        <ele>2001.0008641403</ele>
        <time>2019-06-23T07:43:23Z</time>
      </trkpt>
      <trkpt lat="44.20797" lon="6.9425">
        <ele>2001.5955218708</ele>
        <time>2019-06-23T07:43:25Z</time>
      </trkpt>
      <trkpt lat="44.20798" lon="6.94252">
        <ele>2001.8100076619</ele>
        <time>2019-06-23T07:43:26Z</time>
      </trkpt>
      <trkpt lat="44.208" lon="6.94255">
        <ele>2002.0599194583</ele>
        <time>2019-06-23T07:43:28Z</time>
      </trkpt>
      <trkpt lat="44.20801" lon="6.94257">
        <ele>2002.3777042208</ele>
        <time>2019-06-23T07:43:30Z</time>
      </trkpt>
      <trkpt lat="44.20804" lon="6.94259">
        <ele>2002.8554035528</ele>
        <time>2019-06-23T07:43:32Z</time>
      </trkpt>
      <trkpt lat="44.20806" lon="6.94259">
        <ele>2004.0985785099</ele>
        <time>2019-06-23T07:43:35Z</time>
      </trkpt>
      <trkpt lat="44.20809" lon="6.9426">
        <ele>2004.4098404837</ele>
        <time>2019-06-23T07:43:38Z</time>
      </trkpt>
      <trkpt lat="44.20812" lon="6.9426">
        <ele>2005.3117893686</ele>
        <time>2019-06-23T07:43:40Z</time>
      </trkpt>
      <trkpt lat="44.20814" lon="6.94261">
        <ele>2005.9379328809</ele>
        <time>2019-06-23T07:43:42Z</time>
      </trkpt>
      <trkpt lat="44.20815" lon="6.94263">
        <ele>2005.6352568779</ele>
        <time>2019-06-23T07:44:01Z</time>
      </trkpt>
      <trkpt lat="44.20818" lon="6.94267">
        <ele>2005.2738742324</ele>
        <time>2019-06-23T07:44:05Z</time>
      </trkpt>
      <trkpt lat="44.2082" lon="6.94268">
        <ele>2005.6082275576</ele>
        <time>2019-06-23T07:44:06Z</time>
      </trkpt>
      <trkpt lat="44.20822" lon="6.94267">
        <ele>2006.2510632784</ele>
        <time>2019-06-23T07:44:08Z</time>
      </trkpt>
      <trkpt lat="44.20825" lon="6.94267">
        <ele>2007.158394824</ele>
        <time>2019-06-23T07:44:11Z</time>
      </trkpt>
      <trkpt lat="44.20827" lon="6.94267">
        <ele>2007.563071164</ele>
        <time>2019-06-23T07:44:15Z</time>
      </trkpt>
      <trkpt lat="44.20829" lon="6.9427">
        <ele>2008.016690816</ele>
        <time>2019-06-23T07:44:17Z</time>
      </trkpt>
      <trkpt lat="44.20832" lon="6.94271">
        <ele>2008.2468642196</ele>
        <time>2019-06-23T07:44:19Z</time>
      </trkpt>
      <trkpt lat="44.20833" lon="6.94272">
        <ele>2008.1520028677</ele>
        <time>2019-06-23T07:44:21Z</time>
      </trkpt>
      <trkpt lat="44.20835" lon="6.94273">
        <ele>2008.2660811096</ele>
        <time>2019-06-23T07:44:23Z</time>
      </trkpt>
      <trkpt lat="44.20836" lon="6.94275">
        <ele>2008.2986647631</ele>
        <time>2019-06-23T07:44:25Z</time>
      </trkpt>
      <trkpt lat="44.20839" lon="6.94276">
        <ele>2008.5924707458</ele>
        <time>2019-06-23T07:44:28Z</time>
      </trkpt>
      <trkpt lat="44.20841" lon="6.94276">
        <ele>2008.9709081517</ele>
        <time>2019-06-23T07:44:30Z</time>
      </trkpt>
      <trkpt lat="44.20843" lon="6.94276">
        <ele>2009.4004249716</ele>
        <time>2019-06-23T07:44:33Z</time>
      </trkpt>
      <trkpt lat="44.20845" lon="6.94276">
        <ele>2010.0943416978</ele>
        <time>2019-06-23T07:44:35Z</time>
      </trkpt>
      <trkpt lat="44.20847" lon="6.94277">
        <ele>2010.5106753963</ele>
        <time>2019-06-23T07:44:37Z</time>
      </trkpt>
      <trkpt lat="44.20848" lon="6.94279">
        <ele>2010.4558919849</ele>
        <time>2019-06-23T07:44:40Z</time>
      </trkpt>
      <trkpt lat="44.2085" lon="6.94282">
        <ele>2010.617408575</ele>
        <time>2019-06-23T07:44:42Z</time>
      </trkpt>
      <trkpt lat="44.20852" lon="6.94285">
        <ele>2010.4133377057</ele>
        <time>2019-06-23T07:44:44Z</time>
      </trkpt>
      <trkpt lat="44.20853" lon="6.94287">
        <ele>2009.9973101806</ele>
        <time>2019-06-23T07:44:46Z</time>
      </trkpt>
      <trkpt lat="44.20855" lon="6.9429">
        <ele>2009.5660067935</ele>
        <time>2019-06-23T07:44:49Z</time>
      </trkpt>
      <trkpt lat="44.20857" lon="6.94292">
        <ele>2009.4215028871</ele>
        <time>2019-06-23T07:44:51Z</time>
      </trkpt>
      <trkpt lat="44.20859" lon="6.94295">
        <ele>2009.2545378286</ele>
        <time>2019-06-23T07:44:53Z</time>
      </trkpt>
      <trkpt lat="44.2086" lon="6.94298">
        <ele>2009.0163325334</ele>
        <time>2019-06-23T07:44:55Z</time>
      </trkpt>
      <trkpt lat="44.20862" lon="6.943">
        <ele>2008.6133669844</ele>
        <time>2019-06-23T07:44:57Z</time>
      </trkpt>
      <trkpt lat="44.20864" lon="6.94302">
        <ele>2008.2995448484</ele>
        <time>2019-06-23T07:44:59Z</time>
      </trkpt>
      <trkpt lat="44.20863" lon="6.94305">
        <ele>2008.1075296739</ele>
        <time>2019-06-23T07:45:01Z</time>
      </trkpt>
      <trkpt lat="44.20866" lon="6.94306">
        <ele>2007.6496329597</ele>
        <time>2019-06-23T07:45:03Z</time>
      </trkpt>
      <trkpt lat="44.20867" lon="6.9431">
        <ele>2008.2177214782</ele>
        <time>2019-06-23T07:45:08Z</time>
      </trkpt>
      <trkpt lat="44.20868" lon="6.94312">
        <ele>2008.5847247774</ele>
        <time>2019-06-23T07:45:12Z</time>
      </trkpt>
      <trkpt lat="44.2087" lon="6.94315">
        <ele>2008.9412761612</ele>
        <time>2019-06-23T07:45:17Z</time>
      </trkpt>
      <trkpt lat="44.20872" lon="6.94317">
        <ele>2009.704670253</ele>
        <time>2019-06-23T07:45:21Z</time>
      </trkpt>
      <trkpt lat="44.20873" lon="6.94318">
        <ele>2010.0553959088</ele>
        <time>2019-06-23T07:45:25Z</time>
      </trkpt>
      <trkpt lat="44.20876" lon="6.9432">
        <ele>2010.6696095626</ele>
        <time>2019-06-23T07:45:31Z</time>
      </trkpt>
      <trkpt lat="44.20878" lon="6.94321">
        <ele>2011.2490623523</ele>
        <time>2019-06-23T07:45:33Z</time>
      </trkpt>
      <trkpt lat="44.2088" lon="6.94322">
        <ele>2011.7820687943</ele>
        <time>2019-06-23T07:45:35Z</time>
      </trkpt>
      <trkpt lat="44.20883" lon="6.94322">
        <ele>2012.608692804</ele>
        <time>2019-06-23T07:45:37Z</time>
      </trkpt>
      <trkpt lat="44.20886" lon="6.94322">
        <ele>2013.3048350207</ele>
        <time>2019-06-23T07:45:39Z</time>
      </trkpt>
      <trkpt lat="44.20888" lon="6.94322">
        <ele>2014.2422786738</ele>
        <time>2019-06-23T07:45:42Z</time>
      </trkpt>
      <trkpt lat="44.2089" lon="6.94323">
        <ele>2014.7925353874</ele>
        <time>2019-06-23T07:45:46Z</time>
      </trkpt>
      <trkpt lat="44.20892" lon="6.94323">
        <ele>2014.8096523605</ele>
        <time>2019-06-23T07:45:49Z</time>
      </trkpt>
      <trkpt lat="44.20894" lon="6.94324">
        <ele>2014.8096694775</ele>
        <time>2019-06-23T07:45:52Z</time>
      </trkpt>
      <trkpt lat="44.20896" lon="6.94323">
        <ele>2014.8096694946</ele>
        <time>2019-06-23T07:45:56Z</time>
      </trkpt>
      <trkpt lat="44.20897" lon="6.94324">
        <ele>2014.8096694946</ele>
        <time>2019-06-23T07:45:58Z</time>
      </trkpt>
      <trkpt lat="44.20899" lon="6.94323">
        <ele>2014.8096694946</ele>
        <time>2019-06-23T07:46:01Z</time>
      </trkpt>
      <trkpt lat="44.209" lon="6.94321">
        <ele>2014.8096694946</ele>
        <time>2019-06-23T07:46:03Z</time>
      </trkpt>
      <trkpt lat="44.20901" lon="6.94318">
        <ele>2014.8096694946</ele>
        <time>2019-06-23T07:46:05Z</time>
      </trkpt>
      <trkpt lat="44.20902" lon="6.94321">
        <ele>2014.8096694946</ele>
        <time>2019-06-23T07:46:12Z</time>
      </trkpt>
      <trkpt lat="44.20903" lon="6.94321">
        <ele>2014.8096694946</ele>
        <time>2019-06-23T07:46:30Z</time>
      </trkpt>
      <trkpt lat="44.20905" lon="6.94319">
        <ele>2014.8096694946</ele>
        <time>2019-06-23T07:46:39Z</time>
      </trkpt>
      <trkpt lat="44.20906" lon="6.94316">
        <ele>2014.8096694946</ele>
        <time>2019-06-23T07:46:43Z</time>
      </trkpt>
      <trkpt lat="44.20908" lon="6.94313">
        <ele>2014.8096694946</ele>
        <time>2019-06-23T07:46:46Z</time>
      </trkpt>
      <trkpt lat="44.20908" lon="6.94311">
        <ele>2014.8096694946</ele>
        <time>2019-06-23T07:46:48Z</time>
      </trkpt>
      <trkpt lat="44.2091" lon="6.94308">
        <ele>2014.8096694946</ele>
        <time>2019-06-23T07:46:52Z</time>
      </trkpt>
      <trkpt lat="44.20911" lon="6.94305">
        <ele>2014.8096694946</ele>
        <time>2019-06-23T07:46:54Z</time>
      </trkpt>
      <trkpt lat="44.20913" lon="6.94305">
        <ele>2014.8096694946</ele>
        <time>2019-06-23T07:47:11Z</time>
      </trkpt>
      <trkpt lat="44.20915" lon="6.94303">
        <ele>2014.8096694946</ele>
        <time>2019-06-23T07:47:13Z</time>
      </trkpt>
      <trkpt lat="44.20917" lon="6.94301">
        <ele>2014.8096694946</ele>
        <time>2019-06-23T07:47:16Z</time>
      </trkpt>
      <trkpt lat="44.20919" lon="6.94302">
        <ele>2013.5595656494</ele>
        <time>2019-06-23T07:47:21Z</time>
      </trkpt>
      <trkpt lat="44.2092" lon="6.94305">
        <ele>2013.1039641467</ele>
        <time>2019-06-23T07:47:43Z</time>
      </trkpt>
      <trkpt lat="44.2092" lon="6.94302">
        <ele>2012.6899829712</ele>
        <time>2019-06-23T07:47:55Z</time>
      </trkpt>
      <trkpt lat="44.2092" lon="6.943">
        <ele>2013.1003315464</ele>
        <time>2019-06-23T07:47:58Z</time>
      </trkpt>
      <trkpt lat="44.20919" lon="6.94301">
        <ele>2013.4097307358</ele>
        <time>2019-06-23T07:48:29Z</time>
      </trkpt>
      <trkpt lat="44.20917" lon="6.94302">
        <ele>2014.4634878176</ele>
        <time>2019-06-23T07:48:32Z</time>
      </trkpt>
      <trkpt lat="44.20915" lon="6.943">
        <ele>2014.8096694946</ele>
        <time>2019-06-23T07:48:46Z</time>
      </trkpt>
      <trkpt lat="44.20916" lon="6.94298">
        <ele>2014.8096694946</ele>
        <time>2019-06-23T07:49:09Z</time>
      </trkpt>
      <trkpt lat="44.20917" lon="6.94299">
        <ele>2014.7011245728</ele>
        <time>2019-06-23T07:49:12Z</time>
      </trkpt>
      <trkpt lat="44.20918" lon="6.94301">
        <ele>2014.4182548369</ele>
        <time>2019-06-23T07:49:37Z</time>
      </trkpt>
      <trkpt lat="44.20919" lon="6.94304">
        <ele>2013.7777774817</ele>
        <time>2019-06-23T07:49:53Z</time>
      </trkpt>
      <trkpt lat="44.20921" lon="6.94304">
        <ele>2007.7291036791</ele>
        <time>2019-06-23T07:49:58Z</time>
      </trkpt>
      <trkpt lat="44.20922" lon="6.94307">
        <ele>2011.7089637075</ele>
        <time>2019-06-23T07:50:00Z</time>
      </trkpt>
      <trkpt lat="44.20923" lon="6.9431">
        <ele>2011.2808012107</ele>
        <time>2019-06-23T07:50:03Z</time>
      </trkpt>
      <trkpt lat="44.20925" lon="6.94311">
        <ele>2010.2101794447</ele>
        <time>2019-06-23T07:50:06Z</time>
      </trkpt>
      <trkpt lat="44.20925" lon="6.94314">
        <ele>2010.1698524753</ele>
        <time>2019-06-23T07:50:09Z</time>
      </trkpt>
      <trkpt lat="44.20924" lon="6.94317">
        <ele>2009.7359312505</ele>
        <time>2019-06-23T07:50:18Z</time>
      </trkpt>
      <trkpt lat="44.20923" lon="6.94317">
        <ele>2010.8974831321</ele>
        <time>2019-06-23T07:50:25Z</time>
      </trkpt>
      <trkpt lat="44.20924" lon="6.94314">
        <ele>2010.7494183196</ele>
        <time>2019-06-23T07:50:33Z</time>
      </trkpt>
      <trkpt lat="44.20922" lon="6.94312">
        <ele>2011.2782969585</ele>
        <time>2019-06-23T07:50:38Z</time>
      </trkpt>
      <trkpt lat="44.20921" lon="6.94308">
        <ele>2011.7671019043</ele>
        <time>2019-06-23T07:50:42Z</time>
      </trkpt>
      <trkpt lat="44.2092" lon="6.94306">
        <ele>2012.1287998326</ele>
        <time>2019-06-23T07:50:46Z</time>
      </trkpt>
      <trkpt lat="44.2092" lon="6.94303">
        <ele>2012.9304200102</ele>
        <time>2019-06-23T07:50:51Z</time>
      </trkpt>
      <trkpt lat="44.2092" lon="6.943">
        <ele>2013.1881694803</ele>
        <time>2019-06-23T07:50:53Z</time>
      </trkpt>
      <trkpt lat="44.2092" lon="6.94297">
        <ele>2013.2795553188</ele>
        <time>2019-06-23T07:50:56Z</time>
      </trkpt>
      <trkpt lat="44.20921" lon="6.94293">
        <ele>2013.0331500912</ele>
        <time>2019-06-23T07:50:58Z</time>
      </trkpt>
      <trkpt lat="44.20922" lon="6.94291">
        <ele>2012.5271971744</ele>
        <time>2019-06-23T07:51:01Z</time>
      </trkpt>
      <trkpt lat="44.20924" lon="6.94294">
        <ele>2011.9367928587</ele>
        <time>2019-06-23T07:51:05Z</time>
      </trkpt>
      <trkpt lat="44.20925" lon="6.94296">
        <ele>2011.179424615</ele>
        <time>2019-06-23T07:51:07Z</time>
      </trkpt>
      <trkpt lat="44.20926" lon="6.94295">
        <ele>2010.7375593617</ele>
        <time>2019-06-23T07:51:13Z</time>
      </trkpt>
      <trkpt lat="44.20927" lon="6.94292">
        <ele>2010.4956125212</ele>
        <time>2019-06-23T07:51:16Z</time>
      </trkpt>
      <trkpt lat="44.20924" lon="6.94293">
        <ele>2011.1924377036</ele>
        <time>2019-06-23T07:51:35Z</time>
      </trkpt>
      <trkpt lat="44.20922" lon="6.94294">
        <ele>2011.938393612</ele>
        <time>2019-06-23T07:51:41Z</time>
      </trkpt>
      <trkpt lat="44.20921" lon="6.94296">
        <ele>2012.5264952703</ele>
        <time>2019-06-23T07:51:48Z</time>
      </trkpt>
      <trkpt lat="44.20919" lon="6.94296">
        <ele>2013.0676808206</ele>
        <time>2019-06-23T07:51:53Z</time>
      </trkpt>
      <trkpt lat="44.20917" lon="6.94296">
        <ele>2014.3964089188</ele>
        <time>2019-06-23T07:51:57Z</time>
      </trkpt>
      <trkpt lat="44.20917" lon="6.94299">
        <ele>2014.7464800868</ele>
        <time>2019-06-23T07:52:19Z</time>
      </trkpt>
      <trkpt lat="44.20918" lon="6.94301">
        <ele>2014.4688185648</ele>
        <time>2019-06-23T07:52:32Z</time>
      </trkpt>
      <trkpt lat="44.20918" lon="6.94304">
        <ele>2013.8112360531</ele>
        <time>2019-06-23T07:52:41Z</time>
      </trkpt>
      <trkpt lat="44.20916" lon="6.94306">
        <ele>2014.8088172667</ele>
        <time>2019-06-23T07:52:53Z</time>
      </trkpt>
      <trkpt lat="44.20915" lon="6.94308">
        <ele>2014.8096694094</ele>
        <time>2019-06-23T07:52:57Z</time>
      </trkpt>
      <trkpt lat="44.20914" lon="6.94307">
        <ele>2014.8096694946</ele>
        <time>2019-06-23T07:53:47Z</time>
      </trkpt>
      <trkpt lat="44.20916" lon="6.94306">
        <ele>2014.8096694946</ele>
        <time>2019-06-23T07:54:03Z</time>
      </trkpt>
      <trkpt lat="44.20917" lon="6.94304">
        <ele>2014.6780532837</ele>
        <time>2019-06-23T07:54:06Z</time>
      </trkpt>
      <trkpt lat="44.20919" lon="6.94301">
        <ele>2014.0220179053</ele>
        <time>2019-06-23T07:54:10Z</time>
      </trkpt>
      <trkpt lat="44.2092" lon="6.94298">
        <ele>2013.5155967185</ele>
        <time>2019-06-23T07:54:11Z</time>
      </trkpt>
      <trkpt lat="44.20921" lon="6.94296">
        <ele>2012.6672048411</ele>
        <time>2019-06-23T07:54:13Z</time>
      </trkpt>
      <trkpt lat="44.20921" lon="6.94293">
        <ele>2012.6694216059</ele>
        <time>2019-06-23T07:54:15Z</time>
      </trkpt>
      <trkpt lat="44.20922" lon="6.9429">
        <ele>2012.5534281486</ele>
        <time>2019-06-23T07:54:17Z</time>
      </trkpt>
      <trkpt lat="44.20924" lon="6.9429">
        <ele>2011.8137684386</ele>
        <time>2019-06-23T07:54:22Z</time>
      </trkpt>
      <trkpt lat="44.20926" lon="6.94289">
        <ele>2011.0385639231</ele>
        <time>2019-06-23T07:54:26Z</time>
      </trkpt>
      <trkpt lat="44.20928" lon="6.94289">
        <ele>2010.2201382213</ele>
        <time>2019-06-23T07:54:32Z</time>
      </trkpt>
      <trkpt lat="44.20931" lon="6.94289">
        <ele>2010.0634116798</ele>
        <time>2019-06-23T07:54:33Z</time>
      </trkpt>
      <trkpt lat="44.20933" lon="6.94289">
        <ele>2008.7217918774</ele>
        <time>2019-06-23T07:54:35Z</time>
      </trkpt>
      <trkpt lat="44.20935" lon="6.94289">
        <ele>2007.6720594002</ele>
        <time>2019-06-23T07:54:38Z</time>
      </trkpt>
      <trkpt lat="44.20936" lon="6.94293">
        <ele>2006.7045753416</ele>
        <time>2019-06-23T07:54:41Z</time>
      </trkpt>
      <trkpt lat="44.20938" lon="6.94296">
        <ele>2005.6405082015</ele>
        <time>2019-06-23T07:54:43Z</time>
      </trkpt>
      <trkpt lat="44.20939" lon="6.94299">
        <ele>2004.1715862801</ele>
        <time>2019-06-23T07:54:45Z</time>
      </trkpt>
      <trkpt lat="44.20941" lon="6.943">
        <ele>2002.4586304594</ele>
        <time>2019-06-23T07:54:47Z</time>
      </trkpt>
      <trkpt lat="44.20943" lon="6.94302">
        <ele>2001.4442501451</ele>
        <time>2019-06-23T07:54:49Z</time>
      </trkpt>
      <trkpt lat="44.20945" lon="6.94303">
        <ele>1999.4981543394</ele>
        <time>2019-06-23T07:54:53Z</time>
      </trkpt>
      <trkpt lat="44.20946" lon="6.94306">
        <ele>1998.3488146445</ele>
        <time>2019-06-23T07:54:56Z</time>
      </trkpt>
      <trkpt lat="44.20947" lon="6.94309">
        <ele>1997.8588382285</ele>
        <time>2019-06-23T07:55:00Z</time>
      </trkpt>
      <trkpt lat="44.20949" lon="6.94311">
        <ele>1997.6122105443</ele>
        <time>2019-06-23T07:55:04Z</time>
      </trkpt>
      <trkpt lat="44.20951" lon="6.94312">
        <ele>1997.2035457352</ele>
        <time>2019-06-23T07:55:06Z</time>
      </trkpt>
      <trkpt lat="44.20953" lon="6.94313">
        <ele>1996.3122471731</ele>
        <time>2019-06-23T07:55:08Z</time>
      </trkpt>
      <trkpt lat="44.20956" lon="6.94314">
        <ele>1995.6083379409</ele>
        <time>2019-06-23T07:55:12Z</time>
      </trkpt>
      <trkpt lat="44.20958" lon="6.94315">
        <ele>1994.8337621361</ele>
        <time>2019-06-23T07:55:14Z</time>
      </trkpt>
      <trkpt lat="44.2096" lon="6.94314">
        <ele>1994.363426046</ele>
        <time>2019-06-23T07:55:16Z</time>
      </trkpt>
      <trkpt lat="44.20963" lon="6.94313">
        <ele>1993.7209223922</ele>
        <time>2019-06-23T07:55:18Z</time>
      </trkpt>
      <trkpt lat="44.20966" lon="6.94314">
        <ele>1992.9384341232</ele>
        <time>2019-06-23T07:55:20Z</time>
      </trkpt>
      <trkpt lat="44.20968" lon="6.94314">
        <ele>1992.1066566038</ele>
        <time>2019-06-23T07:55:22Z</time>
      </trkpt>
      <trkpt lat="44.20969" lon="6.94317">
        <ele>1991.4518593364</ele>
        <time>2019-06-23T07:55:24Z</time>
      </trkpt>
      <trkpt lat="44.2097" lon="6.9432">
        <ele>1991.4796765981</ele>
        <time>2019-06-23T07:55:26Z</time>
      </trkpt>
      <trkpt lat="44.20971" lon="6.94322">
        <ele>1991.2707497948</ele>
        <time>2019-06-23T07:55:27Z</time>
      </trkpt>
      <trkpt lat="44.20972" lon="6.94326">
        <ele>1990.7590630125</ele>
        <time>2019-06-23T07:55:29Z</time>
      </trkpt>
      <trkpt lat="44.20972" lon="6.94328">
        <ele>1990.59367759</ele>
        <time>2019-06-23T07:55:31Z</time>
      </trkpt>
      <trkpt lat="44.20974" lon="6.9433">
        <ele>1990.2863998486</ele>
        <time>2019-06-23T07:55:35Z</time>
      </trkpt>
      <trkpt lat="44.20975" lon="6.94332">
        <ele>1989.953347931</ele>
        <time>2019-06-23T07:55:37Z</time>
      </trkpt>
      <trkpt lat="44.20977" lon="6.94335">
        <ele>1989.4275186174</ele>
        <time>2019-06-23T07:55:40Z</time>
      </trkpt>
      <trkpt lat="44.2098" lon="6.94338">
        <ele>1988.7098409058</ele>
        <time>2019-06-23T07:55:42Z</time>
      </trkpt>
      <trkpt lat="44.20982" lon="6.9434">
        <ele>1987.8952678884</ele>
        <time>2019-06-23T07:55:44Z</time>
      </trkpt>
      <trkpt lat="44.20984" lon="6.94341">
        <ele>1987.2623186915</ele>
        <time>2019-06-23T07:55:46Z</time>
      </trkpt>
      <trkpt lat="44.20986" lon="6.94344">
        <ele>1986.7729093655</ele>
        <time>2019-06-23T07:55:48Z</time>
      </trkpt>
      <trkpt lat="44.20987" lon="6.94346">
        <ele>1986.3218430616</ele>
        <time>2019-06-23T07:55:51Z</time>
      </trkpt>
      <trkpt lat="44.20989" lon="6.9435">
        <ele>1985.8165820018</ele>
        <time>2019-06-23T07:55:53Z</time>
      </trkpt>
      <trkpt lat="44.2099" lon="6.94353">
        <ele>1985.3901268033</ele>
        <time>2019-06-23T07:55:55Z</time>
      </trkpt>
      <trkpt lat="44.20992" lon="6.94356">
        <ele>1984.978675972</ele>
        <time>2019-06-23T07:55:57Z</time>
      </trkpt>
      <trkpt lat="44.20993" lon="6.94359">
        <ele>1984.565419618</ele>
        <time>2019-06-23T07:55:59Z</time>
      </trkpt>
      <trkpt lat="44.20994" lon="6.94362">
        <ele>1984.3538651795</ele>
        <time>2019-06-23T07:56:01Z</time>
      </trkpt>
      <trkpt lat="44.20995" lon="6.94365">
        <ele>1984.0657205823</ele>
        <time>2019-06-23T07:56:03Z</time>
      </trkpt>
      <trkpt lat="44.20997" lon="6.94367">
        <ele>1983.8501987555</ele>
        <time>2019-06-23T07:56:05Z</time>
      </trkpt>
      <trkpt lat="44.20999" lon="6.94369">
        <ele>1983.3657217599</ele>
        <time>2019-06-23T07:56:07Z</time>
      </trkpt>
      <trkpt lat="44.21" lon="6.9437">
        <ele>1982.4720171267</ele>
        <time>2019-06-23T07:56:09Z</time>
      </trkpt>
      <trkpt lat="44.21002" lon="6.94372">
        <ele>1982.262934707</ele>
        <time>2019-06-23T07:56:14Z</time>
      </trkpt>
      <trkpt lat="44.21004" lon="6.94374">
        <ele>1981.6704350569</ele>
        <time>2019-06-23T07:56:16Z</time>
      </trkpt>
      <trkpt lat="44.21006" lon="6.94374">
        <ele>1981.1027131854</ele>
        <time>2019-06-23T07:56:18Z</time>
      </trkpt>
      <trkpt lat="44.21008" lon="6.94376">
        <ele>1980.4072795549</ele>
        <time>2019-06-23T07:56:21Z</time>
      </trkpt>
      <trkpt lat="44.2101" lon="6.94378">
        <ele>1979.7782881008</ele>
        <time>2019-06-23T07:56:24Z</time>
      </trkpt>
      <trkpt lat="44.21013" lon="6.9438">
        <ele>1979.0739528487</ele>
        <time>2019-06-23T07:56:26Z</time>
      </trkpt>
      <trkpt lat="44.21013" lon="6.94382">
        <ele>1978.7120621855</ele>
        <time>2019-06-23T07:56:27Z</time>
      </trkpt>
      <trkpt lat="44.21015" lon="6.94385">
        <ele>1978.4089888317</ele>
        <time>2019-06-23T07:56:29Z</time>
      </trkpt>
      <trkpt lat="44.21017" lon="6.94389">
        <ele>1977.7964256275</ele>
        <time>2019-06-23T07:56:31Z</time>
      </trkpt>
      <trkpt lat="44.21019" lon="6.94392">
        <ele>1977.2806112747</ele>
        <time>2019-06-23T07:56:33Z</time>
      </trkpt>
      <trkpt lat="44.2102" lon="6.94394">
        <ele>1977.2759914613</ele>
        <time>2019-06-23T07:56:35Z</time>
      </trkpt>
      <trkpt lat="44.21021" lon="6.94397">
        <ele>1977.0170378065</ele>
        <time>2019-06-23T07:56:39Z</time>
      </trkpt>
      <trkpt lat="44.21021" lon="6.944">
        <ele>1976.9866446852</ele>
        <time>2019-06-23T07:56:42Z</time>
      </trkpt>
      <trkpt lat="44.21024" lon="6.94403">
        <ele>1976.6079408302</ele>
        <time>2019-06-23T07:56:45Z</time>
      </trkpt>
      <trkpt lat="44.21026" lon="6.94404">
        <ele>1975.7156551377</ele>
        <time>2019-06-23T07:56:47Z</time>
      </trkpt>
      <trkpt lat="44.21027" lon="6.94406">
        <ele>1974.7213851727</ele>
        <time>2019-06-23T07:56:50Z</time>
      </trkpt>
      <trkpt lat="44.21028" lon="6.94406">
        <ele>1974.6004504374</ele>
        <time>2019-06-23T07:56:51Z</time>
      </trkpt>
      <trkpt lat="44.21029" lon="6.94405">
        <ele>1974.0754647922</ele>
        <time>2019-06-23T07:56:54Z</time>
      </trkpt>
      <trkpt lat="44.21031" lon="6.94406">
        <ele>1973.4692683013</ele>
        <time>2019-06-23T07:56:59Z</time>
      </trkpt>
      <trkpt lat="44.21032" lon="6.94409">
        <ele>1973.0102620647</ele>
        <time>2019-06-23T07:57:01Z</time>
      </trkpt>
      <trkpt lat="44.21034" lon="6.94411">
        <ele>1972.7608197074</ele>
        <time>2019-06-23T07:57:03Z</time>
      </trkpt>
      <trkpt lat="44.21035" lon="6.94414">
        <ele>1972.3057821439</ele>
        <time>2019-06-23T07:57:06Z</time>
      </trkpt>
      <trkpt lat="44.21036" lon="6.94416">
        <ele>1972.1404208963</ele>
        <time>2019-06-23T07:57:07Z</time>
      </trkpt>
      <trkpt lat="44.21037" lon="6.9442">
        <ele>1972.0048971747</ele>
        <time>2019-06-23T07:57:09Z</time>
      </trkpt>
      <trkpt lat="44.21039" lon="6.94422">
        <ele>1972.0771983405</ele>
        <time>2019-06-23T07:57:12Z</time>
      </trkpt>
      <trkpt lat="44.21041" lon="6.94424">
        <ele>1971.8145200761</ele>
        <time>2019-06-23T07:57:14Z</time>
      </trkpt>
      <trkpt lat="44.21042" lon="6.94426">
        <ele>1971.6659863569</ele>
        <time>2019-06-23T07:57:17Z</time>
      </trkpt>
      <trkpt lat="44.21044" lon="6.94427">
        <ele>1970.9926022275</ele>
        <time>2019-06-23T07:57:20Z</time>
      </trkpt>
      <trkpt lat="44.21045" lon="6.94429">
        <ele>1970.6798386657</ele>
        <time>2019-06-23T07:57:22Z</time>
      </trkpt>
      <trkpt lat="44.21047" lon="6.94431">
        <ele>1970.4537874461</ele>
        <time>2019-06-23T07:57:24Z</time>
      </trkpt>
      <trkpt lat="44.21049" lon="6.94434">
        <ele>1969.8122764456</ele>
        <time>2019-06-23T07:57:26Z</time>
      </trkpt>
      <trkpt lat="44.21049" lon="6.94439">
        <ele>1969.3359101637</ele>
        <time>2019-06-23T07:57:28Z</time>
      </trkpt>
      <trkpt lat="44.2105" lon="6.94442">
        <ele>1969.3982729658</ele>
        <time>2019-06-23T07:57:30Z</time>
      </trkpt>
      <trkpt lat="44.2105" lon="6.94443">
        <ele>1969.3278682206</ele>
        <time>2019-06-23T07:57:31Z</time>
      </trkpt>
      <trkpt lat="44.21051" lon="6.94445">
        <ele>1968.853259685</ele>
        <time>2019-06-23T07:57:33Z</time>
      </trkpt>
      <trkpt lat="44.21053" lon="6.94447">
        <ele>1968.0041416737</ele>
        <time>2019-06-23T07:57:36Z</time>
      </trkpt>
      <trkpt lat="44.21054" lon="6.9445">
        <ele>1967.4770585524</ele>
        <time>2019-06-23T07:57:38Z</time>
      </trkpt>
      <trkpt lat="44.21056" lon="6.94452">
        <ele>1966.8063568129</ele>
        <time>2019-06-23T07:57:40Z</time>
      </trkpt>
      <trkpt lat="44.21058" lon="6.94455">
        <ele>1965.7830189362</ele>
        <time>2019-06-23T07:57:42Z</time>
      </trkpt>
      <trkpt lat="44.21059" lon="6.94457">
        <ele>1965.2106810652</ele>
        <time>2019-06-23T07:57:44Z</time>
      </trkpt>
      <trkpt lat="44.21061" lon="6.94458">
        <ele>1964.7947138167</ele>
        <time>2019-06-23T07:57:47Z</time>
      </trkpt>
      <trkpt lat="44.21063" lon="6.94462">
        <ele>1964.2855056132</ele>
        <time>2019-06-23T07:57:50Z</time>
      </trkpt>
      <trkpt lat="44.21065" lon="6.94464">
        <ele>1963.7484769281</ele>
        <time>2019-06-23T07:57:52Z</time>
      </trkpt>
      <trkpt lat="44.21067" lon="6.94465">
        <ele>1963.2150268072</ele>
        <time>2019-06-23T07:57:54Z</time>
      </trkpt>
      <trkpt lat="44.2107" lon="6.94464">
        <ele>1962.6174122642</ele>
        <time>2019-06-23T07:57:58Z</time>
      </trkpt>
      <trkpt lat="44.21071" lon="6.94463">
        <ele>1962.0635883028</ele>
        <time>2019-06-23T07:57:59Z</time>
      </trkpt>
      <trkpt lat="44.21072" lon="6.94459">
        <ele>1961.7427762192</ele>
        <time>2019-06-23T07:58:00Z</time>
      </trkpt>
      <trkpt lat="44.21072" lon="6.94456">
        <ele>1961.4144595462</ele>
        <time>2019-06-23T07:58:02Z</time>
      </trkpt>
      <trkpt lat="44.21072" lon="6.94452">
        <ele>1961.4361641248</ele>
        <time>2019-06-23T07:58:03Z</time>
      </trkpt>
      <trkpt lat="44.21072" lon="6.94449">
        <ele>1961.3752923511</ele>
        <time>2019-06-23T07:58:05Z</time>
      </trkpt>
      <trkpt lat="44.21071" lon="6.94446">
        <ele>1961.4385691314</ele>
        <time>2019-06-23T07:58:07Z</time>
      </trkpt>
      <trkpt lat="44.21071" lon="6.94443">
        <ele>1961.727911616</ele>
        <time>2019-06-23T07:58:09Z</time>
      </trkpt>
      <trkpt lat="44.21071" lon="6.94439">
        <ele>1961.3538421502</ele>
        <time>2019-06-23T07:58:11Z</time>
      </trkpt>
      <trkpt lat="44.2107" lon="6.94435">
        <ele>1960.6590417923</ele>
        <time>2019-06-23T07:58:14Z</time>
      </trkpt>
      <trkpt lat="44.2107" lon="6.94432">
        <ele>1960.3374656111</ele>
        <time>2019-06-23T07:58:15Z</time>
      </trkpt>
      <trkpt lat="44.2107" lon="6.94428">
        <ele>1959.7931355232</ele>
        <time>2019-06-23T07:58:18Z</time>
      </trkpt>
      <trkpt lat="44.21069" lon="6.94425">
        <ele>1959.4178200749</ele>
        <time>2019-06-23T07:58:21Z</time>
      </trkpt>
      <trkpt lat="44.21068" lon="6.94423">
        <ele>1959.5049146081</ele>
        <time>2019-06-23T07:58:24Z</time>
      </trkpt>
      <trkpt lat="44.21068" lon="6.9442">
        <ele>1959.4947969946</ele>
        <time>2019-06-23T07:58:26Z</time>
      </trkpt>
      <trkpt lat="44.21068" lon="6.94417">
        <ele>1959.2858033526</ele>
        <time>2019-06-23T07:58:29Z</time>
      </trkpt>
      <trkpt lat="44.21069" lon="6.94415">
        <ele>1958.7289456773</ele>
        <time>2019-06-23T07:58:32Z</time>
      </trkpt>
      <trkpt lat="44.21069" lon="6.94411">
        <ele>1958.5347533697</ele>
        <time>2019-06-23T07:58:34Z</time>
      </trkpt>
      <trkpt lat="44.21068" lon="6.94408">
        <ele>1958.6564076381</ele>
        <time>2019-06-23T07:58:36Z</time>
      </trkpt>
      <trkpt lat="44.21068" lon="6.94405">
        <ele>1958.729419835</ele>
        <time>2019-06-23T07:58:38Z</time>
      </trkpt>
      <trkpt lat="44.21067" lon="6.94401">
        <ele>1958.9791753045</ele>
        <time>2019-06-23T07:58:41Z</time>
      </trkpt>
      <trkpt lat="44.21066" lon="6.94398">
        <ele>1959.6765598652</ele>
        <time>2019-06-23T07:58:43Z</time>
      </trkpt>
      <trkpt lat="44.21065" lon="6.94395">
        <ele>1960.3715085644</ele>
        <time>2019-06-23T07:58:45Z</time>
      </trkpt>
      <trkpt lat="44.21065" lon="6.94392">
        <ele>1960.8267441842</ele>
        <time>2019-06-23T07:58:47Z</time>
      </trkpt>
      <trkpt lat="44.21064" lon="6.94388">
        <ele>1961.0754457103</ele>
        <time>2019-06-23T07:58:49Z</time>
      </trkpt>
      <trkpt lat="44.21063" lon="6.94385">
        <ele>1961.3320464951</ele>
        <time>2019-06-23T07:58:51Z</time>
      </trkpt>
      <trkpt lat="44.21063" lon="6.94382">
        <ele>1960.9258441924</ele>
        <time>2019-06-23T07:58:53Z</time>
      </trkpt>
      <trkpt lat="44.21063" lon="6.94379">
        <ele>1960.0741543217</ele>
        <time>2019-06-23T07:58:56Z</time>
      </trkpt>
      <trkpt lat="44.21065" lon="6.94376">
        <ele>1958.8220411572</ele>
        <time>2019-06-23T07:58:59Z</time>
      </trkpt>
      <trkpt lat="44.21067" lon="6.94374">
        <ele>1957.7520624984</ele>
        <time>2019-06-23T07:59:01Z</time>
      </trkpt>
      <trkpt lat="44.21069" lon="6.94372">
        <ele>1956.352379832</ele>
        <time>2019-06-23T07:59:04Z</time>
      </trkpt>
      <trkpt lat="44.21071" lon="6.9437">
        <ele>1955.0926799847</ele>
        <time>2019-06-23T07:59:10Z</time>
      </trkpt>
      <trkpt lat="44.21073" lon="6.94368">
        <ele>1954.2226585598</ele>
        <time>2019-06-23T07:59:13Z</time>
      </trkpt>
      <trkpt lat="44.21073" lon="6.94365">
        <ele>1953.5785971853</ele>
        <time>2019-06-23T07:59:18Z</time>
      </trkpt>
      <trkpt lat="44.21074" lon="6.94362">
        <ele>1953.1991215278</ele>
        <time>2019-06-23T07:59:21Z</time>
      </trkpt>
      <trkpt lat="44.21074" lon="6.94359">
        <ele>1952.7810334974</ele>
        <time>2019-06-23T07:59:23Z</time>
      </trkpt>
      <trkpt lat="44.21073" lon="6.94355">
        <ele>1952.8738289354</ele>
        <time>2019-06-23T07:59:25Z</time>
      </trkpt>
      <trkpt lat="44.21073" lon="6.94351">
        <ele>1952.9899705129</ele>
        <time>2019-06-23T07:59:27Z</time>
      </trkpt>
      <trkpt lat="44.21074" lon="6.94347">
        <ele>1952.9057242138</ele>
        <time>2019-06-23T07:59:29Z</time>
      </trkpt>
      <trkpt lat="44.21073" lon="6.94343">
        <ele>1952.9014430301</ele>
        <time>2019-06-23T07:59:31Z</time>
      </trkpt>
      <trkpt lat="44.21073" lon="6.9434">
        <ele>1953.0776035533</ele>
        <time>2019-06-23T07:59:34Z</time>
      </trkpt>
      <trkpt lat="44.21074" lon="6.9434">
        <ele>1952.9836796974</ele>
        <time>2019-06-23T07:59:35Z</time>
      </trkpt>
      <trkpt lat="44.21076" lon="6.9434">
        <ele>1952.458869872</ele>
        <time>2019-06-23T07:59:38Z</time>
      </trkpt>
      <trkpt lat="44.21078" lon="6.9434">
        <ele>1951.9366156</ele>
        <time>2019-06-23T07:59:40Z</time>
      </trkpt>
      <trkpt lat="44.2108" lon="6.94342">
        <ele>1951.4035988678</ele>
        <time>2019-06-23T07:59:42Z</time>
      </trkpt>
      <trkpt lat="44.21082" lon="6.94344">
        <ele>1950.9149852835</ele>
        <time>2019-06-23T07:59:43Z</time>
      </trkpt>
      <trkpt lat="44.21084" lon="6.94347">
        <ele>1950.1990588342</ele>
        <time>2019-06-23T07:59:45Z</time>
      </trkpt>
      <trkpt lat="44.21087" lon="6.94349">
        <ele>1949.0878285247</ele>
        <time>2019-06-23T07:59:47Z</time>
      </trkpt>
      <trkpt lat="44.21088" lon="6.9435">
        <ele>1948.2334570773</ele>
        <time>2019-06-23T07:59:48Z</time>
      </trkpt>
      <trkpt lat="44.2109" lon="6.94352">
        <ele>1946.4622594212</ele>
        <time>2019-06-23T07:59:50Z</time>
      </trkpt>
      <trkpt lat="44.21092" lon="6.94354">
        <ele>1946.0179704795</ele>
        <time>2019-06-23T07:59:51Z</time>
      </trkpt>
      <trkpt lat="44.21095" lon="6.94357">
        <ele>1944.3067244283</ele>
        <time>2019-06-23T07:59:53Z</time>
      </trkpt>
      <trkpt lat="44.21096" lon="6.94359">
        <ele>1943.5580200075</ele>
        <time>2019-06-23T07:59:54Z</time>
      </trkpt>
      <trkpt lat="44.21098" lon="6.94362">
        <ele>1942.4469027556</ele>
        <time>2019-06-23T07:59:56Z</time>
      </trkpt>
      <trkpt lat="44.211" lon="6.94362">
        <ele>1941.1877996397</ele>
        <time>2019-06-23T07:59:58Z</time>
      </trkpt>
      <trkpt lat="44.21102" lon="6.94361">
        <ele>1939.9731065578</ele>
        <time>2019-06-23T08:00:00Z</time>
      </trkpt>
      <trkpt lat="44.21104" lon="6.94361">
        <ele>1938.8004078692</ele>
        <time>2019-06-23T08:00:02Z</time>
      </trkpt>
      <trkpt lat="44.21106" lon="6.94358">
        <ele>1937.3877053718</ele>
        <time>2019-06-23T08:00:04Z</time>
      </trkpt>
      <trkpt lat="44.21106" lon="6.94355">
        <ele>1936.9350390003</ele>
        <time>2019-06-23T08:00:05Z</time>
      </trkpt>
      <trkpt lat="44.21107" lon="6.9435">
        <ele>1936.6877554651</ele>
        <time>2019-06-23T08:00:07Z</time>
      </trkpt>
      <trkpt lat="44.21106" lon="6.94348">
        <ele>1936.5938434207</ele>
        <time>2019-06-23T08:00:09Z</time>
      </trkpt>
      <trkpt lat="44.21106" lon="6.94346">
        <ele>1936.7741342505</ele>
        <time>2019-06-23T08:00:10Z</time>
      </trkpt>
      <trkpt lat="44.21106" lon="6.94342">
        <ele>1936.5076954898</ele>
        <time>2019-06-23T08:00:12Z</time>
      </trkpt>
      <trkpt lat="44.21107" lon="6.94338">
        <ele>1936.9155901843</ele>
        <time>2019-06-23T08:00:14Z</time>
      </trkpt>
      <trkpt lat="44.21107" lon="6.94335">
        <ele>1936.2157641019</ele>
        <time>2019-06-23T08:00:16Z</time>
      </trkpt>
      <trkpt lat="44.21107" lon="6.94333">
        <ele>1936.5170128451</ele>
        <time>2019-06-23T08:00:19Z</time>
      </trkpt>
      <trkpt lat="44.21106" lon="6.94329">
        <ele>1936.5087996895</ele>
        <time>2019-06-23T08:00:22Z</time>
      </trkpt>
      <trkpt lat="44.21105" lon="6.94326">
        <ele>1936.6749047576</ele>
        <time>2019-06-23T08:00:25Z</time>
      </trkpt>
      <trkpt lat="44.21104" lon="6.94322">
        <ele>1936.9660514535</ele>
        <time>2019-06-23T08:00:28Z</time>
      </trkpt>
      <trkpt lat="44.21104" lon="6.94318">
        <ele>1936.9728981422</ele>
        <time>2019-06-23T08:00:31Z</time>
      </trkpt>
      <trkpt lat="44.21105" lon="6.94315">
        <ele>1936.5081759298</ele>
        <time>2019-06-23T08:00:35Z</time>
      </trkpt>
      <trkpt lat="44.21106" lon="6.94313">
        <ele>1935.8218376088</ele>
        <time>2019-06-23T08:00:40Z</time>
      </trkpt>
      <trkpt lat="44.21108" lon="6.94314">
        <ele>1935.2500974342</ele>
        <time>2019-06-23T08:00:43Z</time>
      </trkpt>
      <trkpt lat="44.21109" lon="6.94311">
        <ele>1934.6206484968</ele>
        <time>2019-06-23T08:00:46Z</time>
      </trkpt>
      <trkpt lat="44.21109" lon="6.94309">
        <ele>1934.4707671552</ele>
        <time>2019-06-23T08:00:51Z</time>
      </trkpt>
      <trkpt lat="44.2111" lon="6.94307">
        <ele>1934.1043808075</ele>
        <time>2019-06-23T08:01:01Z</time>
      </trkpt>
      <trkpt lat="44.21111" lon="6.94303">
        <ele>1933.9595038148</ele>
        <time>2019-06-23T08:01:03Z</time>
      </trkpt>
      <trkpt lat="44.21112" lon="6.943">
        <ele>1933.8298165009</ele>
        <time>2019-06-23T08:01:04Z</time>
      </trkpt>
      <trkpt lat="44.21114" lon="6.94296">
        <ele>1932.9141446463</ele>
        <time>2019-06-23T08:01:06Z</time>
      </trkpt>
      <trkpt lat="44.21115" lon="6.94294">
        <ele>1932.0683225762</ele>
        <time>2019-06-23T08:01:07Z</time>
      </trkpt>
      <trkpt lat="44.21116" lon="6.94292">
        <ele>1931.7511598028</ele>
        <time>2019-06-23T08:01:08Z</time>
      </trkpt>
      <trkpt lat="44.21117" lon="6.94289">
        <ele>1930.6872155012</ele>
        <time>2019-06-23T08:01:10Z</time>
      </trkpt>
      <trkpt lat="44.21119" lon="6.94288">
        <ele>1929.3504121687</ele>
        <time>2019-06-23T08:01:14Z</time>
      </trkpt>
      <trkpt lat="44.21121" lon="6.94285">
        <ele>1928.5885498218</ele>
        <time>2019-06-23T08:01:16Z</time>
      </trkpt>
      <trkpt lat="44.21122" lon="6.94283">
        <ele>1927.646401169</ele>
        <time>2019-06-23T08:01:18Z</time>
      </trkpt>
      <trkpt lat="44.21125" lon="6.94279">
        <ele>1926.7253231883</ele>
        <time>2019-06-23T08:01:20Z</time>
      </trkpt>
      <trkpt lat="44.21126" lon="6.94276">
        <ele>1925.4373917054</ele>
        <time>2019-06-23T08:01:22Z</time>
      </trkpt>
      <trkpt lat="44.21129" lon="6.94273">
        <ele>1924.3090485234</ele>
        <time>2019-06-23T08:01:24Z</time>
      </trkpt>
      <trkpt lat="44.2113" lon="6.94269">
        <ele>1923.1322255408</ele>
        <time>2019-06-23T08:01:26Z</time>
      </trkpt>
      <trkpt lat="44.21131" lon="6.94267">
        <ele>1922.75590215</ele>
        <time>2019-06-23T08:01:27Z</time>
      </trkpt>
      <trkpt lat="44.21132" lon="6.94264">
        <ele>1921.7613107763</ele>
        <time>2019-06-23T08:01:29Z</time>
      </trkpt>
      <trkpt lat="44.21133" lon="6.94262">
        <ele>1921.2289539739</ele>
        <time>2019-06-23T08:01:31Z</time>
      </trkpt>
      <trkpt lat="44.21135" lon="6.94259">
        <ele>1920.2516866795</ele>
        <time>2019-06-23T08:01:34Z</time>
      </trkpt>
      <trkpt lat="44.21135" lon="6.94256">
        <ele>1919.8777774106</ele>
        <time>2019-06-23T08:01:36Z</time>
      </trkpt>
      <trkpt lat="44.21136" lon="6.94253">
        <ele>1919.3973306201</ele>
        <time>2019-06-23T08:01:39Z</time>
      </trkpt>
      <trkpt lat="44.21138" lon="6.94249">
        <ele>1918.5586252052</ele>
        <time>2019-06-23T08:01:44Z</time>
      </trkpt>
      <trkpt lat="44.21139" lon="6.94246">
        <ele>1918.0255147646</ele>
        <time>2019-06-23T08:01:46Z</time>
      </trkpt>
      <trkpt lat="44.21139" lon="6.94243">
        <ele>1917.5627017461</ele>
        <time>2019-06-23T08:01:49Z</time>
      </trkpt>
      <trkpt lat="44.21141" lon="6.9424">
        <ele>1917.3254932742</ele>
        <time>2019-06-23T08:01:51Z</time>
      </trkpt>
      <trkpt lat="44.21142" lon="6.94237">
        <ele>1916.7984002842</ele>
        <time>2019-06-23T08:01:54Z</time>
      </trkpt>
      <trkpt lat="44.21143" lon="6.94236">
        <ele>1916.5828833939</ele>
        <time>2019-06-23T08:01:55Z</time>
      </trkpt>
      <trkpt lat="44.21145" lon="6.94234">
        <ele>1916.1297209696</ele>
        <time>2019-06-23T08:01:57Z</time>
      </trkpt>
      <trkpt lat="44.21146" lon="6.94232">
        <ele>1915.576773818</ele>
        <time>2019-06-23T08:01:59Z</time>
      </trkpt>
      <trkpt lat="44.21147" lon="6.94229">
        <ele>1915.3694804304</ele>
        <time>2019-06-23T08:02:01Z</time>
      </trkpt>
      <trkpt lat="44.21148" lon="6.94227">
        <ele>1915.0812466079</ele>
        <time>2019-06-23T08:02:03Z</time>
      </trkpt>
      <trkpt lat="44.2115" lon="6.94225">
        <ele>1914.6404602169</ele>
        <time>2019-06-23T08:02:05Z</time>
      </trkpt>
      <trkpt lat="44.21151" lon="6.94221">
        <ele>1914.2918616792</ele>
        <time>2019-06-23T08:02:07Z</time>
      </trkpt>
      <trkpt lat="44.21153" lon="6.94219">
        <ele>1913.9651139751</ele>
        <time>2019-06-23T08:02:09Z</time>
      </trkpt>
      <trkpt lat="44.21155" lon="6.94217">
        <ele>1913.8249942161</ele>
        <time>2019-06-23T08:02:10Z</time>
      </trkpt>
      <trkpt lat="44.21157" lon="6.94214">
        <ele>1913.3354550661</ele>
        <time>2019-06-23T08:02:12Z</time>
      </trkpt>
      <trkpt lat="44.21159" lon="6.94212">
        <ele>1913.0372796453</ele>
        <time>2019-06-23T08:02:14Z</time>
      </trkpt>
      <trkpt lat="44.21159" lon="6.94209">
        <ele>1912.6619712309</ele>
        <time>2019-06-23T08:02:16Z</time>
      </trkpt>
      <trkpt lat="44.21161" lon="6.94206">
        <ele>1912.5613407054</ele>
        <time>2019-06-23T08:02:18Z</time>
      </trkpt>
      <trkpt lat="44.21161" lon="6.94202">
        <ele>1912.4358483161</ele>
        <time>2019-06-23T08:02:20Z</time>
      </trkpt>
      <trkpt lat="44.21163" lon="6.942">
        <ele>1912.2132518395</ele>
        <time>2019-06-23T08:02:22Z</time>
      </trkpt>
      <trkpt lat="44.21165" lon="6.94198">
        <ele>1911.3591899372</ele>
        <time>2019-06-23T08:02:24Z</time>
      </trkpt>
      <trkpt lat="44.21167" lon="6.94197">
        <ele>1910.1369786639</ele>
        <time>2019-06-23T08:02:26Z</time>
      </trkpt>
      <trkpt lat="44.21168" lon="6.94196">
        <ele>1908.9334650473</ele>
        <time>2019-06-23T08:02:28Z</time>
      </trkpt>
      <trkpt lat="44.2117" lon="6.94194">
        <ele>1908.0619365029</ele>
        <time>2019-06-23T08:02:30Z</time>
      </trkpt>
      <trkpt lat="44.21172" lon="6.94192">
        <ele>1907.0249778092</ele>
        <time>2019-06-23T08:02:32Z</time>
      </trkpt>
      <trkpt lat="44.21174" lon="6.94189">
        <ele>1906.254420234</ele>
        <time>2019-06-23T08:02:34Z</time>
      </trkpt>
      <trkpt lat="44.21177" lon="6.94187">
        <ele>1904.815908679</ele>
        <time>2019-06-23T08:02:37Z</time>
      </trkpt>
      <trkpt lat="44.21178" lon="6.94185">
        <ele>1904.1396757341</ele>
        <time>2019-06-23T08:02:39Z</time>
      </trkpt>
      <trkpt lat="44.2118" lon="6.94183">
        <ele>1903.7342744887</ele>
        <time>2019-06-23T08:02:41Z</time>
      </trkpt>
      <trkpt lat="44.21181" lon="6.94181">
        <ele>1903.3846235524</ele>
        <time>2019-06-23T08:02:43Z</time>
      </trkpt>
      <trkpt lat="44.21183" lon="6.94179">
        <ele>1902.8689224532</ele>
        <time>2019-06-23T08:02:45Z</time>
      </trkpt>
      <trkpt lat="44.21185" lon="6.94177">
        <ele>1902.3541426394</ele>
        <time>2019-06-23T08:02:47Z</time>
      </trkpt>
      <trkpt lat="44.21187" lon="6.94177">
        <ele>1901.6313409097</ele>
        <time>2019-06-23T08:02:51Z</time>
      </trkpt>
      <trkpt lat="44.2119" lon="6.94179">
        <ele>1900.5486907411</ele>
        <time>2019-06-23T08:02:56Z</time>
      </trkpt>
      <trkpt lat="44.21191" lon="6.94177">
        <ele>1899.275360881</ele>
        <time>2019-06-23T08:03:04Z</time>
      </trkpt>
      <trkpt lat="44.21193" lon="6.94174">
        <ele>1899.8356323707</ele>
        <time>2019-06-23T08:03:11Z</time>
      </trkpt>
      <trkpt lat="44.21194" lon="6.94171">
        <ele>1899.9445885472</ele>
        <time>2019-06-23T08:03:13Z</time>
      </trkpt>
      <trkpt lat="44.21196" lon="6.94168">
        <ele>1900.319773568</ele>
        <time>2019-06-23T08:03:15Z</time>
      </trkpt>
      <trkpt lat="44.21196" lon="6.94164">
        <ele>1900.8814551057</ele>
        <time>2019-06-23T08:03:17Z</time>
      </trkpt>
      <trkpt lat="44.21198" lon="6.94161">
        <ele>1900.9923978488</ele>
        <time>2019-06-23T08:03:19Z</time>
      </trkpt>
      <trkpt lat="44.212" lon="6.94159">
        <ele>1900.7792079598</ele>
        <time>2019-06-23T08:03:21Z</time>
      </trkpt>
      <trkpt lat="44.21201" lon="6.94157">
        <ele>1900.2381307484</ele>
        <time>2019-06-23T08:03:23Z</time>
      </trkpt>
      <trkpt lat="44.21202" lon="6.94154">
        <ele>1900.4552919978</ele>
        <time>2019-06-23T08:03:25Z</time>
      </trkpt>
      <trkpt lat="44.21204" lon="6.94151">
        <ele>1900.1845918505</ele>
        <time>2019-06-23T08:03:28Z</time>
      </trkpt>
      <trkpt lat="44.21206" lon="6.94149">
        <ele>1900.1413788896</ele>
        <time>2019-06-23T08:03:31Z</time>
      </trkpt>
      <trkpt lat="44.21208" lon="6.94147">
        <ele>1899.3798963456</ele>
        <time>2019-06-23T08:03:34Z</time>
      </trkpt>
      <trkpt lat="44.21208" lon="6.94144">
        <ele>1899.7357521727</ele>
        <time>2019-06-23T08:03:37Z</time>
      </trkpt>
      <trkpt lat="44.21209" lon="6.9414">
        <ele>1900.4665848089</ele>
        <time>2019-06-23T08:03:42Z</time>
      </trkpt>
      <trkpt lat="44.2121" lon="6.94138">
        <ele>1900.8152803958</ele>
        <time>2019-06-23T08:03:44Z</time>
      </trkpt>
      <trkpt lat="44.21211" lon="6.94135">
        <ele>1900.7397361407</ele>
        <time>2019-06-23T08:03:47Z</time>
      </trkpt>
      <trkpt lat="44.21213" lon="6.94132">
        <ele>1900.0807642347</ele>
        <time>2019-06-23T08:03:51Z</time>
      </trkpt>
      <trkpt lat="44.21214" lon="6.9413">
        <ele>1899.9979395241</ele>
        <time>2019-06-23T08:03:53Z</time>
      </trkpt>
      <trkpt lat="44.21216" lon="6.94129">
        <ele>1899.5509894508</ele>
        <time>2019-06-23T08:03:55Z</time>
      </trkpt>
      <trkpt lat="44.21218" lon="6.94127">
        <ele>1898.9247926551</ele>
        <time>2019-06-23T08:03:57Z</time>
      </trkpt>
      <trkpt lat="44.21219" lon="6.94124">
        <ele>1899.2568842272</ele>
        <time>2019-06-23T08:04:00Z</time>
      </trkpt>
      <trkpt lat="44.2122" lon="6.94122">
        <ele>1899.301623057</ele>
        <time>2019-06-23T08:04:03Z</time>
      </trkpt>
      <trkpt lat="44.21221" lon="6.94119">
        <ele>1899.3060293681</ele>
        <time>2019-06-23T08:04:06Z</time>
      </trkpt>
      <trkpt lat="44.21223" lon="6.94116">
        <ele>1899.4738347535</ele>
        <time>2019-06-23T08:04:08Z</time>
      </trkpt>
      <trkpt lat="44.21225" lon="6.94114">
        <ele>1899.2358011892</ele>
        <time>2019-06-23T08:04:11Z</time>
      </trkpt>
      <trkpt lat="44.21226" lon="6.94112">
        <ele>1899.0506202647</ele>
        <time>2019-06-23T08:04:13Z</time>
      </trkpt>
      <trkpt lat="44.21228" lon="6.94111">
        <ele>1898.3304164047</ele>
        <time>2019-06-23T08:04:15Z</time>
      </trkpt>
      <trkpt lat="44.21229" lon="6.94108">
        <ele>1897.6251870223</ele>
        <time>2019-06-23T08:04:17Z</time>
      </trkpt>
      <trkpt lat="44.21231" lon="6.94105">
        <ele>1896.8451366816</ele>
        <time>2019-06-23T08:04:19Z</time>
      </trkpt>
      <trkpt lat="44.21232" lon="6.94102">
        <ele>1896.2643392602</ele>
        <time>2019-06-23T08:04:20Z</time>
      </trkpt>
      <trkpt lat="44.21233" lon="6.941">
        <ele>1895.5298312954</ele>
        <time>2019-06-23T08:04:21Z</time>
      </trkpt>
      <trkpt lat="44.21235" lon="6.94098">
        <ele>1894.565833515</ele>
        <time>2019-06-23T08:04:23Z</time>
      </trkpt>
      <trkpt lat="44.21237" lon="6.94097">
        <ele>1893.5392312805</ele>
        <time>2019-06-23T08:04:27Z</time>
      </trkpt>
      <trkpt lat="44.21238" lon="6.94093">
        <ele>1892.5802756594</ele>
        <time>2019-06-23T08:04:29Z</time>
      </trkpt>
      <trkpt lat="44.2124" lon="6.94092">
        <ele>1891.5335217965</ele>
        <time>2019-06-23T08:04:31Z</time>
      </trkpt>
      <trkpt lat="44.21242" lon="6.9409">
        <ele>1890.3176059934</ele>
        <time>2019-06-23T08:04:34Z</time>
      </trkpt>
      <trkpt lat="44.21244" lon="6.94088">
        <ele>1889.4251187327</ele>
        <time>2019-06-23T08:04:36Z</time>
      </trkpt>
      <trkpt lat="44.21245" lon="6.94086">
        <ele>1888.4330713015</ele>
        <time>2019-06-23T08:04:38Z</time>
      </trkpt>
      <trkpt lat="44.21247" lon="6.94084">
        <ele>1887.3188041269</ele>
        <time>2019-06-23T08:04:41Z</time>
      </trkpt>
      <trkpt lat="44.21248" lon="6.94081">
        <ele>1886.8249891124</ele>
        <time>2019-06-23T08:04:43Z</time>
      </trkpt>
      <trkpt lat="44.21249" lon="6.94079">
        <ele>1886.7815109232</ele>
        <time>2019-06-23T08:04:45Z</time>
      </trkpt>
      <trkpt lat="44.2125" lon="6.94076">
        <ele>1887.1851423034</ele>
        <time>2019-06-23T08:04:47Z</time>
      </trkpt>
      <trkpt lat="44.21253" lon="6.94075">
        <ele>1886.9081922891</ele>
        <time>2019-06-23T08:04:49Z</time>
      </trkpt>
      <trkpt lat="44.21255" lon="6.94072">
        <ele>1886.3913505234</ele>
        <time>2019-06-23T08:04:51Z</time>
      </trkpt>
      <trkpt lat="44.21256" lon="6.94069">
        <ele>1886.5273454358</ele>
        <time>2019-06-23T08:04:53Z</time>
      </trkpt>
      <trkpt lat="44.21256" lon="6.94066">
        <ele>1887.1108709122</ele>
        <time>2019-06-23T08:04:55Z</time>
      </trkpt>
      <trkpt lat="44.21255" lon="6.94063">
        <ele>1887.9585286794</ele>
        <time>2019-06-23T08:04:58Z</time>
      </trkpt>
      <trkpt lat="44.21256" lon="6.94061">
        <ele>1888.4556270806</ele>
        <time>2019-06-23T08:05:00Z</time>
      </trkpt>
      <trkpt lat="44.21258" lon="6.94058">
        <ele>1888.1681200373</ele>
        <time>2019-06-23T08:05:02Z</time>
      </trkpt>
      <trkpt lat="44.2126" lon="6.94056">
        <ele>1887.5289526278</ele>
        <time>2019-06-23T08:05:05Z</time>
      </trkpt>
      <trkpt lat="44.21262" lon="6.94054">
        <ele>1886.9512466879</ele>
        <time>2019-06-23T08:05:08Z</time>
      </trkpt>
      <trkpt lat="44.21263" lon="6.94051">
        <ele>1886.2213062138</ele>
        <time>2019-06-23T08:05:10Z</time>
      </trkpt>
      <trkpt lat="44.21264" lon="6.9405">
        <ele>1885.771971897</ele>
        <time>2019-06-23T08:05:12Z</time>
      </trkpt>
      <trkpt lat="44.21266" lon="6.94049">
        <ele>1884.4195220108</ele>
        <time>2019-06-23T08:05:14Z</time>
      </trkpt>
      <trkpt lat="44.21267" lon="6.94046">
        <ele>1883.6016994163</ele>
        <time>2019-06-23T08:05:16Z</time>
      </trkpt>
      <trkpt lat="44.21268" lon="6.94044">
        <ele>1882.7352252919</ele>
        <time>2019-06-23T08:05:18Z</time>
      </trkpt>
      <trkpt lat="44.21269" lon="6.9404">
        <ele>1882.3020268592</ele>
        <time>2019-06-23T08:05:20Z</time>
      </trkpt>
      <trkpt lat="44.21271" lon="6.94037">
        <ele>1881.4885078632</ele>
        <time>2019-06-23T08:05:22Z</time>
      </trkpt>
      <trkpt lat="44.21272" lon="6.94034">
        <ele>1880.5546646654</ele>
        <time>2019-06-23T08:05:24Z</time>
      </trkpt>
      <trkpt lat="44.21272" lon="6.94031">
        <ele>1880.1933858033</ele>
        <time>2019-06-23T08:05:27Z</time>
      </trkpt>
      <trkpt lat="44.21274" lon="6.94028">
        <ele>1879.7425827198</ele>
        <time>2019-06-23T08:05:31Z</time>
      </trkpt>
      <trkpt lat="44.21275" lon="6.94025">
        <ele>1878.9894422516</ele>
        <time>2019-06-23T08:05:34Z</time>
      </trkpt>
      <trkpt lat="44.21277" lon="6.94022">
        <ele>1878.0808983745</ele>
        <time>2019-06-23T08:05:36Z</time>
      </trkpt>
      <trkpt lat="44.21278" lon="6.9402">
        <ele>1877.1316249475</ele>
        <time>2019-06-23T08:05:38Z</time>
      </trkpt>
      <trkpt lat="44.21279" lon="6.94016">
        <ele>1876.7284509227</ele>
        <time>2019-06-23T08:05:41Z</time>
      </trkpt>
      <trkpt lat="44.21281" lon="6.94014">
        <ele>1876.3045511667</ele>
        <time>2019-06-23T08:05:44Z</time>
      </trkpt>
      <trkpt lat="44.21279" lon="6.9401">
        <ele>1876.3629195033</ele>
        <time>2019-06-23T08:05:47Z</time>
      </trkpt>
      <trkpt lat="44.2128" lon="6.94008">
        <ele>1876.5423022124</ele>
        <time>2019-06-23T08:05:50Z</time>
      </trkpt>
      <trkpt lat="44.21283" lon="6.94006">
        <ele>1876.0811620816</ele>
        <time>2019-06-23T08:05:52Z</time>
      </trkpt>
      <trkpt lat="44.21285" lon="6.94005">
        <ele>1875.51611611</ele>
        <time>2019-06-23T08:05:54Z</time>
      </trkpt>
      <trkpt lat="44.21287" lon="6.94003">
        <ele>1874.5902837655</ele>
        <time>2019-06-23T08:05:56Z</time>
      </trkpt>
      <trkpt lat="44.21289" lon="6.94">
        <ele>1874.2270679225</ele>
        <time>2019-06-23T08:05:58Z</time>
      </trkpt>
      <trkpt lat="44.2129" lon="6.93998">
        <ele>1873.9208429312</ele>
        <time>2019-06-23T08:05:59Z</time>
      </trkpt>
      <trkpt lat="44.21292" lon="6.93995">
        <ele>1873.3552770786</ele>
        <time>2019-06-23T08:06:01Z</time>
      </trkpt>
      <trkpt lat="44.21294" lon="6.93992">
        <ele>1872.7514158537</ele>
        <time>2019-06-23T08:06:03Z</time>
      </trkpt>
      <trkpt lat="44.21295" lon="6.93989">
        <ele>1872.4083386672</ele>
        <time>2019-06-23T08:06:05Z</time>
      </trkpt>
      <trkpt lat="44.21296" lon="6.93987">
        <ele>1872.082195493</ele>
        <time>2019-06-23T08:06:07Z</time>
      </trkpt>
      <trkpt lat="44.21298" lon="6.93985">
        <ele>1871.4752573034</ele>
        <time>2019-06-23T08:06:09Z</time>
      </trkpt>
      <trkpt lat="44.21298" lon="6.93981">
        <ele>1871.1658773747</ele>
        <time>2019-06-23T08:06:11Z</time>
      </trkpt>
      <trkpt lat="44.21299" lon="6.93977">
        <ele>1870.8763798285</ele>
        <time>2019-06-23T08:06:14Z</time>
      </trkpt>
      <trkpt lat="44.21298" lon="6.93974">
        <ele>1870.9651728087</ele>
        <time>2019-06-23T08:06:18Z</time>
      </trkpt>
      <trkpt lat="44.21298" lon="6.9397">
        <ele>1871.0171083168</ele>
        <time>2019-06-23T08:06:20Z</time>
      </trkpt>
      <trkpt lat="44.21298" lon="6.93967">
        <ele>1870.0539509141</ele>
        <time>2019-06-23T08:06:22Z</time>
      </trkpt>
      <trkpt lat="44.21298" lon="6.93963">
        <ele>1869.1054167522</ele>
        <time>2019-06-23T08:06:24Z</time>
      </trkpt>
      <trkpt lat="44.21298" lon="6.9396">
        <ele>1868.0380196852</ele>
        <time>2019-06-23T08:06:27Z</time>
      </trkpt>
      <trkpt lat="44.213" lon="6.93962">
        <ele>1867.4655414852</ele>
        <time>2019-06-23T08:06:32Z</time>
      </trkpt>
      <trkpt lat="44.21303" lon="6.93964">
        <ele>1867.5905765179</ele>
        <time>2019-06-23T08:06:33Z</time>
      </trkpt>
      <trkpt lat="44.21304" lon="6.93965">
        <ele>1867.4501503337</ele>
        <time>2019-06-23T08:06:34Z</time>
      </trkpt>
      <trkpt lat="44.21306" lon="6.93967">
        <ele>1867.3826042973</ele>
        <time>2019-06-23T08:06:35Z</time>
      </trkpt>
      <trkpt lat="44.21308" lon="6.93971">
        <ele>1867.7178268212</ele>
        <time>2019-06-23T08:06:37Z</time>
      </trkpt>
      <trkpt lat="44.2131" lon="6.93974">
        <ele>1867.8085643003</ele>
        <time>2019-06-23T08:06:39Z</time>
      </trkpt>
      <trkpt lat="44.21312" lon="6.93975">
        <ele>1867.284468013</ele>
        <time>2019-06-23T08:06:41Z</time>
      </trkpt>
      <trkpt lat="44.21315" lon="6.93976">
        <ele>1866.6213547357</ele>
        <time>2019-06-23T08:06:43Z</time>
      </trkpt>
      <trkpt lat="44.21317" lon="6.93977">
        <ele>1866.1899957336</ele>
        <time>2019-06-23T08:06:44Z</time>
      </trkpt>
      <trkpt lat="44.2132" lon="6.93979">
        <ele>1865.2745274445</ele>
        <time>2019-06-23T08:06:46Z</time>
      </trkpt>
      <trkpt lat="44.21322" lon="6.9398">
        <ele>1864.6480949296</ele>
        <time>2019-06-23T08:06:48Z</time>
      </trkpt>
      <trkpt lat="44.21324" lon="6.9398">
        <ele>1863.9668086318</ele>
        <time>2019-06-23T08:06:50Z</time>
      </trkpt>
      <trkpt lat="44.21326" lon="6.93982">
        <ele>1863.4500653489</ele>
        <time>2019-06-23T08:06:52Z</time>
      </trkpt>
      <trkpt lat="44.21328" lon="6.93983">
        <ele>1862.6602069852</ele>
        <time>2019-06-23T08:06:55Z</time>
      </trkpt>
      <trkpt lat="44.2133" lon="6.93985">
        <ele>1862.0432401249</ele>
        <time>2019-06-23T08:06:58Z</time>
      </trkpt>
      <trkpt lat="44.21332" lon="6.93987">
        <ele>1861.5651863533</ele>
        <time>2019-06-23T08:07:00Z</time>
      </trkpt>
      <trkpt lat="44.21334" lon="6.93988">
        <ele>1861.0087414177</ele>
        <time>2019-06-23T08:07:03Z</time>
      </trkpt>
      <trkpt lat="44.21336" lon="6.93992">
        <ele>1860.3069902707</ele>
        <time>2019-06-23T08:07:06Z</time>
      </trkpt>
      <trkpt lat="44.21337" lon="6.93995">
        <ele>1860.0480252707</ele>
        <time>2019-06-23T08:07:08Z</time>
      </trkpt>
      <trkpt lat="44.21338" lon="6.94">
        <ele>1859.8726646247</ele>
        <time>2019-06-23T08:07:10Z</time>
      </trkpt>
      <trkpt lat="44.21338" lon="6.94002">
        <ele>1859.6140946119</ele>
        <time>2019-06-23T08:07:12Z</time>
      </trkpt>
      <trkpt lat="44.21338" lon="6.94006">
        <ele>1859.5544898688</ele>
        <time>2019-06-23T08:07:14Z</time>
      </trkpt>
      <trkpt lat="44.21339" lon="6.94009">
        <ele>1859.3717185284</ele>
        <time>2019-06-23T08:07:16Z</time>
      </trkpt>
      <trkpt lat="44.2134" lon="6.94012">
        <ele>1858.9599140084</ele>
        <time>2019-06-23T08:07:18Z</time>
      </trkpt>
      <trkpt lat="44.21341" lon="6.94015">
        <ele>1858.7474402503</ele>
        <time>2019-06-23T08:07:20Z</time>
      </trkpt>
      <trkpt lat="44.21343" lon="6.94017">
        <ele>1858.5005620948</ele>
        <time>2019-06-23T08:07:22Z</time>
      </trkpt>
      <trkpt lat="44.21345" lon="6.94019">
        <ele>1857.7688276724</ele>
        <time>2019-06-23T08:07:25Z</time>
      </trkpt>
      <trkpt lat="44.21348" lon="6.94018">
        <ele>1857.0741438889</ele>
        <time>2019-06-23T08:07:27Z</time>
      </trkpt>
      <trkpt lat="44.21351" lon="6.94018">
        <ele>1856.1988706351</ele>
        <time>2019-06-23T08:07:29Z</time>
      </trkpt>
      <trkpt lat="44.21353" lon="6.94018">
        <ele>1855.4059467599</ele>
        <time>2019-06-23T08:07:31Z</time>
      </trkpt>
      <trkpt lat="44.21356" lon="6.94018">
        <ele>1854.5946832524</ele>
        <time>2019-06-23T08:07:34Z</time>
      </trkpt>
      <trkpt lat="44.21358" lon="6.94018">
        <ele>1854.302465304</ele>
        <time>2019-06-23T08:07:35Z</time>
      </trkpt>
      <trkpt lat="44.21361" lon="6.94017">
        <ele>1853.3522158609</ele>
        <time>2019-06-23T08:07:37Z</time>
      </trkpt>
      <trkpt lat="44.21364" lon="6.94016">
        <ele>1852.1915109739</ele>
        <time>2019-06-23T08:07:39Z</time>
      </trkpt>
      <trkpt lat="44.21365" lon="6.94013">
        <ele>1851.1616690618</ele>
        <time>2019-06-23T08:07:41Z</time>
      </trkpt>
      <trkpt lat="44.21366" lon="6.9401">
        <ele>1850.864374793</ele>
        <time>2019-06-23T08:07:43Z</time>
      </trkpt>
      <trkpt lat="44.21367" lon="6.94007">
        <ele>1850.7198430125</ele>
        <time>2019-06-23T08:07:45Z</time>
      </trkpt>
      <trkpt lat="44.21369" lon="6.94004">
        <ele>1850.1641164113</ele>
        <time>2019-06-23T08:07:48Z</time>
      </trkpt>
      <trkpt lat="44.21371" lon="6.94002">
        <ele>1849.8415916493</ele>
        <time>2019-06-23T08:07:50Z</time>
      </trkpt>
      <trkpt lat="44.21372" lon="6.93999">
        <ele>1849.6699564217</ele>
        <time>2019-06-23T08:07:53Z</time>
      </trkpt>
      <trkpt lat="44.21373" lon="6.93999">
        <ele>1849.3755099127</ele>
        <time>2019-06-23T08:07:55Z</time>
      </trkpt>
      <trkpt lat="44.21375" lon="6.93997">
        <ele>1849.0551045101</ele>
        <time>2019-06-23T08:07:57Z</time>
      </trkpt>
      <trkpt lat="44.21376" lon="6.93994">
        <ele>1848.5075612919</ele>
        <time>2019-06-23T08:08:00Z</time>
      </trkpt>
      <trkpt lat="44.21377" lon="6.93991">
        <ele>1848.169363236</ele>
        <time>2019-06-23T08:08:03Z</time>
      </trkpt>
      <trkpt lat="44.21377" lon="6.93988">
        <ele>1848.0903196547</ele>
        <time>2019-06-23T08:08:05Z</time>
      </trkpt>
      <trkpt lat="44.21379" lon="6.93988">
        <ele>1847.8311197951</ele>
        <time>2019-06-23T08:08:07Z</time>
      </trkpt>
      <trkpt lat="44.21381" lon="6.93985">
        <ele>1847.2216650035</ele>
        <time>2019-06-23T08:08:09Z</time>
      </trkpt>
      <trkpt lat="44.21382" lon="6.93983">
        <ele>1846.8435843716</ele>
        <time>2019-06-23T08:08:11Z</time>
      </trkpt>
      <trkpt lat="44.21382" lon="6.93978">
        <ele>1846.7195691903</ele>
        <time>2019-06-23T08:08:13Z</time>
      </trkpt>
      <trkpt lat="44.21382" lon="6.93975">
        <ele>1846.6766349363</ele>
        <time>2019-06-23T08:08:16Z</time>
      </trkpt>
      <trkpt lat="44.21383" lon="6.93972">
        <ele>1846.330505088</ele>
        <time>2019-06-23T08:08:19Z</time>
      </trkpt>
      <trkpt lat="44.21383" lon="6.93969">
        <ele>1846.2542945579</ele>
        <time>2019-06-23T08:08:20Z</time>
      </trkpt>
      <trkpt lat="44.21385" lon="6.93967">
        <ele>1845.813491317</ele>
        <time>2019-06-23T08:08:23Z</time>
      </trkpt>
      <trkpt lat="44.21387" lon="6.93965">
        <ele>1845.3225409648</ele>
        <time>2019-06-23T08:08:25Z</time>
      </trkpt>
      <trkpt lat="44.21388" lon="6.93962">
        <ele>1844.9661129066</ele>
        <time>2019-06-23T08:08:27Z</time>
      </trkpt>
      <trkpt lat="44.21388" lon="6.93958">
        <ele>1844.7721615093</ele>
        <time>2019-06-23T08:08:30Z</time>
      </trkpt>
      <trkpt lat="44.21389" lon="6.93955">
        <ele>1844.7133837702</ele>
        <time>2019-06-23T08:08:32Z</time>
      </trkpt>
      <trkpt lat="44.21389" lon="6.93952">
        <ele>1844.6593035612</ele>
        <time>2019-06-23T08:08:34Z</time>
      </trkpt>
      <trkpt lat="44.21389" lon="6.93949">
        <ele>1844.5182036771</ele>
        <time>2019-06-23T08:08:36Z</time>
      </trkpt>
      <trkpt lat="44.2139" lon="6.93946">
        <ele>1844.402360939</ele>
        <time>2019-06-23T08:08:39Z</time>
      </trkpt>
      <trkpt lat="44.2139" lon="6.93943">
        <ele>1844.4852570536</ele>
        <time>2019-06-23T08:08:41Z</time>
      </trkpt>
      <trkpt lat="44.21389" lon="6.93941">
        <ele>1843.7955513468</ele>
        <time>2019-06-23T08:08:43Z</time>
      </trkpt>
      <trkpt lat="44.21388" lon="6.93938">
        <ele>1843.1278486257</ele>
        <time>2019-06-23T08:08:45Z</time>
      </trkpt>
      <trkpt lat="44.21388" lon="6.93934">
        <ele>1842.3132260418</ele>
        <time>2019-06-23T08:08:47Z</time>
      </trkpt>
      <trkpt lat="44.21388" lon="6.93932">
        <ele>1841.5362126285</ele>
        <time>2019-06-23T08:08:49Z</time>
      </trkpt>
      <trkpt lat="44.21387" lon="6.93929">
        <ele>1840.4836439626</ele>
        <time>2019-06-23T08:08:52Z</time>
      </trkpt>
      <trkpt lat="44.21387" lon="6.93925">
        <ele>1840.0259404893</ele>
        <time>2019-06-23T08:08:54Z</time>
      </trkpt>
      <trkpt lat="44.21387" lon="6.93923">
        <ele>1839.0018981225</ele>
        <time>2019-06-23T08:08:56Z</time>
      </trkpt>
      <trkpt lat="44.21387" lon="6.93919">
        <ele>1838.1165497115</ele>
        <time>2019-06-23T08:08:59Z</time>
      </trkpt>
      <trkpt lat="44.21386" lon="6.93917">
        <ele>1837.5839260409</ele>
        <time>2019-06-23T08:09:01Z</time>
      </trkpt>
      <trkpt lat="44.21385" lon="6.93913">
        <ele>1837.1105382808</ele>
        <time>2019-06-23T08:09:03Z</time>
      </trkpt>
      <trkpt lat="44.21385" lon="6.9391">
        <ele>1836.3626122645</ele>
        <time>2019-06-23T08:09:05Z</time>
      </trkpt>
      <trkpt lat="44.21386" lon="6.93908">
        <ele>1835.1321937586</ele>
        <time>2019-06-23T08:09:09Z</time>
      </trkpt>
      <trkpt lat="44.21388" lon="6.93907">
        <ele>1834.0129998314</ele>
        <time>2019-06-23T08:09:12Z</time>
      </trkpt>
      <trkpt lat="44.21391" lon="6.93907">
        <ele>1833.408074241</ele>
        <time>2019-06-23T08:09:15Z</time>
      </trkpt>
      <trkpt lat="44.21393" lon="6.93907">
        <ele>1833.1325431905</ele>
        <time>2019-06-23T08:09:17Z</time>
      </trkpt>
      <trkpt lat="44.21394" lon="6.93911">
        <ele>1833.3232020618</ele>
        <time>2019-06-23T08:09:27Z</time>
      </trkpt>
      <trkpt lat="44.21395" lon="6.93913">
        <ele>1833.8127369492</ele>
        <time>2019-06-23T08:09:29Z</time>
      </trkpt>
      <trkpt lat="44.21397" lon="6.93916">
        <ele>1833.9826501011</ele>
        <time>2019-06-23T08:09:32Z</time>
      </trkpt>
      <trkpt lat="44.21399" lon="6.93917">
        <ele>1833.7669925624</ele>
        <time>2019-06-23T08:09:34Z</time>
      </trkpt>
      <trkpt lat="44.21402" lon="6.93918">
        <ele>1833.4404817982</ele>
        <time>2019-06-23T08:09:37Z</time>
      </trkpt>
      <trkpt lat="44.21403" lon="6.9392">
        <ele>1833.44525252</ele>
        <time>2019-06-23T08:09:39Z</time>
      </trkpt>
      <trkpt lat="44.21404" lon="6.93923">
        <ele>1833.5849913893</ele>
        <time>2019-06-23T08:09:41Z</time>
      </trkpt>
      <trkpt lat="44.21406" lon="6.93924">
        <ele>1833.7571586837</ele>
        <time>2019-06-23T08:09:44Z</time>
      </trkpt>
      <trkpt lat="44.21408" lon="6.93926">
        <ele>1833.5872804417</ele>
        <time>2019-06-23T08:09:49Z</time>
      </trkpt>
      <trkpt lat="44.21411" lon="6.93927">
        <ele>1833.4474377062</ele>
        <time>2019-06-23T08:09:52Z</time>
      </trkpt>
      <trkpt lat="44.21413" lon="6.93928">
        <ele>1832.8436222042</ele>
        <time>2019-06-23T08:09:55Z</time>
      </trkpt>
      <trkpt lat="44.21415" lon="6.93928">
        <ele>1832.3175611956</ele>
        <time>2019-06-23T08:09:59Z</time>
      </trkpt>
      <trkpt lat="44.21417" lon="6.93929">
        <ele>1832.0699919615</ele>
        <time>2019-06-23T08:10:02Z</time>
      </trkpt>
      <trkpt lat="44.21419" lon="6.93931">
        <ele>1832.0711220778</ele>
        <time>2019-06-23T08:10:05Z</time>
      </trkpt>
      <trkpt lat="44.21421" lon="6.93932">
        <ele>1832.3593372431</ele>
        <time>2019-06-23T08:10:07Z</time>
      </trkpt>
      <trkpt lat="44.21423" lon="6.93932">
        <ele>1832.0117035632</ele>
        <time>2019-06-23T08:10:14Z</time>
      </trkpt>
      <trkpt lat="44.21425" lon="6.93933">
        <ele>1831.8820703812</ele>
        <time>2019-06-23T08:10:17Z</time>
      </trkpt>
      <trkpt lat="44.21427" lon="6.93935">
        <ele>1831.8646220191</ele>
        <time>2019-06-23T08:10:19Z</time>
      </trkpt>
      <trkpt lat="44.21428" lon="6.93936">
        <ele>1831.8241735361</ele>
        <time>2019-06-23T08:10:20Z</time>
      </trkpt>
      <trkpt lat="44.2143" lon="6.93938">
        <ele>1831.7778333339</ele>
        <time>2019-06-23T08:10:22Z</time>
      </trkpt>
      <trkpt lat="44.2143" lon="6.9394">
        <ele>1831.7600137106</ele>
        <time>2019-06-23T08:10:23Z</time>
      </trkpt>
      <trkpt lat="44.21432" lon="6.9394">
        <ele>1831.7000641748</ele>
        <time>2019-06-23T08:10:26Z</time>
      </trkpt>
      <trkpt lat="44.21435" lon="6.93943">
        <ele>1831.280680375</ele>
        <time>2019-06-23T08:10:28Z</time>
      </trkpt>
      <trkpt lat="44.21436" lon="6.93945">
        <ele>1831.0793478652</ele>
        <time>2019-06-23T08:10:30Z</time>
      </trkpt>
      <trkpt lat="44.21437" lon="6.93948">
        <ele>1830.7534430792</ele>
        <time>2019-06-23T08:10:33Z</time>
      </trkpt>
      <trkpt lat="44.21438" lon="6.93951">
        <ele>1830.5657756274</ele>
        <time>2019-06-23T08:10:37Z</time>
      </trkpt>
      <trkpt lat="44.2144" lon="6.93952">
        <ele>1829.9479140041</ele>
        <time>2019-06-23T08:10:40Z</time>
      </trkpt>
      <trkpt lat="44.21442" lon="6.93953">
        <ele>1829.4576547229</ele>
        <time>2019-06-23T08:10:42Z</time>
      </trkpt>
      <trkpt lat="44.21444" lon="6.93955">
        <ele>1828.9265179993</ele>
        <time>2019-06-23T08:10:44Z</time>
      </trkpt>
      <trkpt lat="44.21447" lon="6.93956">
        <ele>1828.2323418859</ele>
        <time>2019-06-23T08:10:46Z</time>
      </trkpt>
      <trkpt lat="44.21449" lon="6.93957">
        <ele>1827.5121627237</ele>
        <time>2019-06-23T08:10:49Z</time>
      </trkpt>
      <trkpt lat="44.21451" lon="6.93958">
        <ele>1826.9261939432</ele>
        <time>2019-06-23T08:10:53Z</time>
      </trkpt>
      <trkpt lat="44.21453" lon="6.93958">
        <ele>1826.1555578697</ele>
        <time>2019-06-23T08:10:56Z</time>
      </trkpt>
      <trkpt lat="44.21455" lon="6.93959">
        <ele>1825.4761332873</ele>
        <time>2019-06-23T08:11:03Z</time>
      </trkpt>
      <trkpt lat="44.21458" lon="6.9396">
        <ele>1824.9200630092</ele>
        <time>2019-06-23T08:11:06Z</time>
      </trkpt>
      <trkpt lat="44.2146" lon="6.93962">
        <ele>1824.412980461</ele>
        <time>2019-06-23T08:11:08Z</time>
      </trkpt>
      <trkpt lat="44.21462" lon="6.93964">
        <ele>1823.6564008465</ele>
        <time>2019-06-23T08:11:10Z</time>
      </trkpt>
      <trkpt lat="44.21464" lon="6.93965">
        <ele>1823.3161077665</ele>
        <time>2019-06-23T08:11:11Z</time>
      </trkpt>
      <trkpt lat="44.21466" lon="6.93966">
        <ele>1822.5978637602</ele>
        <time>2019-06-23T08:11:13Z</time>
      </trkpt>
      <trkpt lat="44.21469" lon="6.93968">
        <ele>1821.7424708709</ele>
        <time>2019-06-23T08:11:15Z</time>
      </trkpt>
      <trkpt lat="44.2147" lon="6.93969">
        <ele>1821.1901046861</ele>
        <time>2019-06-23T08:11:17Z</time>
      </trkpt>
      <trkpt lat="44.21472" lon="6.93971">
        <ele>1820.6272605011</ele>
        <time>2019-06-23T08:11:20Z</time>
      </trkpt>
      <trkpt lat="44.21474" lon="6.93972">
        <ele>1820.1162607673</ele>
        <time>2019-06-23T08:11:23Z</time>
      </trkpt>
      <trkpt lat="44.21476" lon="6.93974">
        <ele>1819.7779262781</ele>
        <time>2019-06-23T08:11:24Z</time>
      </trkpt>
      <trkpt lat="44.21478" lon="6.93976">
        <ele>1818.2404384882</ele>
        <time>2019-06-23T08:11:26Z</time>
      </trkpt>
      <trkpt lat="44.2148" lon="6.93977">
        <ele>1817.4485938838</ele>
        <time>2019-06-23T08:11:28Z</time>
      </trkpt>
      <trkpt lat="44.21481" lon="6.93979">
        <ele>1816.170370262</ele>
        <time>2019-06-23T08:11:30Z</time>
      </trkpt>
      <trkpt lat="44.21482" lon="6.9398">
        <ele>1815.7659788292</ele>
        <time>2019-06-23T08:11:31Z</time>
      </trkpt>
      <trkpt lat="44.21484" lon="6.93982">
        <ele>1814.6136706038</ele>
        <time>2019-06-23T08:11:34Z</time>
      </trkpt>
      <trkpt lat="44.21487" lon="6.93983">
        <ele>1813.55307811</ele>
        <time>2019-06-23T08:11:37Z</time>
      </trkpt>
      <trkpt lat="44.21489" lon="6.93986">
        <ele>1812.2625686687</ele>
        <time>2019-06-23T08:11:39Z</time>
      </trkpt>
      <trkpt lat="44.2149" lon="6.93988">
        <ele>1811.0281816407</ele>
        <time>2019-06-23T08:11:41Z</time>
      </trkpt>
      <trkpt lat="44.21492" lon="6.93989">
        <ele>1810.0571817645</ele>
        <time>2019-06-23T08:11:43Z</time>
      </trkpt>
      <trkpt lat="44.21494" lon="6.93992">
        <ele>1809.1851988165</ele>
        <time>2019-06-23T08:11:45Z</time>
      </trkpt>
      <trkpt lat="44.21495" lon="6.93994">
        <ele>1807.8227765945</ele>
        <time>2019-06-23T08:11:47Z</time>
      </trkpt>
      <trkpt lat="44.21497" lon="6.93997">
        <ele>1806.5969538859</ele>
        <time>2019-06-23T08:11:49Z</time>
      </trkpt>
      <trkpt lat="44.21499" lon="6.93999">
        <ele>1805.4092678838</ele>
        <time>2019-06-23T08:11:54Z</time>
      </trkpt>
      <trkpt lat="44.21499" lon="6.94002">
        <ele>1804.3206117444</ele>
        <time>2019-06-23T08:11:57Z</time>
      </trkpt>
      <trkpt lat="44.215" lon="6.94004">
        <ele>1803.5858407152</ele>
        <time>2019-06-23T08:12:00Z</time>
      </trkpt>
      <trkpt lat="44.21502" lon="6.94006">
        <ele>1802.3112807489</ele>
        <time>2019-06-23T08:12:03Z</time>
      </trkpt>
      <trkpt lat="44.21504" lon="6.94005">
        <ele>1801.6378022094</ele>
        <time>2019-06-23T08:12:06Z</time>
      </trkpt>
      <trkpt lat="44.21505" lon="6.94003">
        <ele>1801.6520877847</ele>
        <time>2019-06-23T08:12:08Z</time>
      </trkpt>
      <trkpt lat="44.21507" lon="6.94003">
        <ele>1801.3674945789</ele>
        <time>2019-06-23T08:12:11Z</time>
      </trkpt>
      <trkpt lat="44.21509" lon="6.94004">
        <ele>1800.89421047</ele>
        <time>2019-06-23T08:12:15Z</time>
      </trkpt>
      <trkpt lat="44.21511" lon="6.94006">
        <ele>1799.5078692705</ele>
        <time>2019-06-23T08:12:25Z</time>
      </trkpt>
      <trkpt lat="44.21514" lon="6.94006">
        <ele>1798.742911258</ele>
        <time>2019-06-23T08:12:27Z</time>
      </trkpt>
      <trkpt lat="44.21516" lon="6.94006">
        <ele>1797.9556059162</ele>
        <time>2019-06-23T08:12:29Z</time>
      </trkpt>
      <trkpt lat="44.21518" lon="6.94004">
        <ele>1797.7764254242</ele>
        <time>2019-06-23T08:12:34Z</time>
      </trkpt>
      <trkpt lat="44.21519" lon="6.94001">
        <ele>1798.1240875682</ele>
        <time>2019-06-23T08:12:41Z</time>
      </trkpt>
      <trkpt lat="44.2152" lon="6.93999">
        <ele>1798.5352196812</ele>
        <time>2019-06-23T08:12:43Z</time>
      </trkpt>
      <trkpt lat="44.21521" lon="6.93996">
        <ele>1798.5029113246</ele>
        <time>2019-06-23T08:12:45Z</time>
      </trkpt>
      <trkpt lat="44.21522" lon="6.93993">
        <ele>1798.4146866297</ele>
        <time>2019-06-23T08:12:47Z</time>
      </trkpt>
      <trkpt lat="44.21522" lon="6.93989">
        <ele>1798.3959666504</ele>
        <time>2019-06-23T08:12:50Z</time>
      </trkpt>
      <trkpt lat="44.21521" lon="6.93986">
        <ele>1798.7699346248</ele>
        <time>2019-06-23T08:12:53Z</time>
      </trkpt>
      <trkpt lat="44.21522" lon="6.93982">
        <ele>1798.9304395446</ele>
        <time>2019-06-23T08:12:57Z</time>
      </trkpt>
      <trkpt lat="44.21522" lon="6.93978">
        <ele>1798.8892316873</ele>
        <time>2019-06-23T08:12:59Z</time>
      </trkpt>
      <trkpt lat="44.21522" lon="6.93975">
        <ele>1799.0522082806</ele>
        <time>2019-06-23T08:13:01Z</time>
      </trkpt>
      <trkpt lat="44.21522" lon="6.93972">
        <ele>1799.29830582</ele>
        <time>2019-06-23T08:13:03Z</time>
      </trkpt>
      <trkpt lat="44.21523" lon="6.93968">
        <ele>1799.2051857407</ele>
        <time>2019-06-23T08:13:05Z</time>
      </trkpt>
      <trkpt lat="44.21523" lon="6.93965">
        <ele>1799.0032267079</ele>
        <time>2019-06-23T08:13:07Z</time>
      </trkpt>
      <trkpt lat="44.21523" lon="6.93962">
        <ele>1798.5933946175</ele>
        <time>2019-06-23T08:13:09Z</time>
      </trkpt>
      <trkpt lat="44.21521" lon="6.9396">
        <ele>1799.6538931612</ele>
        <time>2019-06-23T08:13:12Z</time>
      </trkpt>
      <trkpt lat="44.21522" lon="6.93957">
        <ele>1799.6965126102</ele>
        <time>2019-06-23T08:13:14Z</time>
      </trkpt>
      <trkpt lat="44.21522" lon="6.93954">
        <ele>1799.3468062624</ele>
        <time>2019-06-23T08:13:18Z</time>
      </trkpt>
      <trkpt lat="44.21523" lon="6.9395">
        <ele>1799.2048520171</ele>
        <time>2019-06-23T08:13:21Z</time>
      </trkpt>
      <trkpt lat="44.21521" lon="6.93947">
        <ele>1799.6130414859</ele>
        <time>2019-06-23T08:13:23Z</time>
      </trkpt>
      <trkpt lat="44.2152" lon="6.93944">
        <ele>1799.9689739789</ele>
        <time>2019-06-23T08:13:24Z</time>
      </trkpt>
      <trkpt lat="44.21521" lon="6.93942">
        <ele>1800.0991812406</ele>
        <time>2019-06-23T08:13:26Z</time>
      </trkpt>
      <trkpt lat="44.2152" lon="6.93938">
        <ele>1800.1419896609</ele>
        <time>2019-06-23T08:13:28Z</time>
      </trkpt>
      <trkpt lat="44.21519" lon="6.93935">
        <ele>1800.212323751</ele>
        <time>2019-06-23T08:13:30Z</time>
      </trkpt>
      <trkpt lat="44.21518" lon="6.93932">
        <ele>1800.4008054122</ele>
        <time>2019-06-23T08:13:32Z</time>
      </trkpt>
      <trkpt lat="44.21517" lon="6.93928">
        <ele>1800.5204476423</ele>
        <time>2019-06-23T08:13:35Z</time>
      </trkpt>
      <trkpt lat="44.21519" lon="6.93926">
        <ele>1800.0701879206</ele>
        <time>2019-06-23T08:13:37Z</time>
      </trkpt>
      <trkpt lat="44.21519" lon="6.93924">
        <ele>1799.4585478722</ele>
        <time>2019-06-23T08:13:39Z</time>
      </trkpt>
      <trkpt lat="44.21519" lon="6.9392">
        <ele>1799.000629042</ele>
        <time>2019-06-23T08:13:42Z</time>
      </trkpt>
      <trkpt lat="44.21519" lon="6.93916">
        <ele>1798.7033307991</ele>
        <time>2019-06-23T08:13:44Z</time>
      </trkpt>
      <trkpt lat="44.21519" lon="6.93912">
        <ele>1797.9461297348</ele>
        <time>2019-06-23T08:13:48Z</time>
      </trkpt>
      <trkpt lat="44.21519" lon="6.93909">
        <ele>1797.3136171048</ele>
        <time>2019-06-23T08:13:50Z</time>
      </trkpt>
      <trkpt lat="44.21519" lon="6.93906">
        <ele>1796.714337877</ele>
        <time>2019-06-23T08:13:52Z</time>
      </trkpt>
      <trkpt lat="44.21519" lon="6.93903">
        <ele>1795.9752172491</ele>
        <time>2019-06-23T08:13:56Z</time>
      </trkpt>
      <trkpt lat="44.21518" lon="6.939">
        <ele>1795.7650481771</ele>
        <time>2019-06-23T08:13:59Z</time>
      </trkpt>
      <trkpt lat="44.21517" lon="6.93898">
        <ele>1795.8225167385</ele>
        <time>2019-06-23T08:14:01Z</time>
      </trkpt>
      <trkpt lat="44.21516" lon="6.93895">
        <ele>1795.6779620296</ele>
        <time>2019-06-23T08:14:03Z</time>
      </trkpt>
      <trkpt lat="44.21514" lon="6.93894">
        <ele>1796.3930228301</ele>
        <time>2019-06-23T08:14:05Z</time>
      </trkpt>
      <trkpt lat="44.21512" lon="6.93893">
        <ele>1797.3682557135</ele>
        <time>2019-06-23T08:14:07Z</time>
      </trkpt>
      <trkpt lat="44.2151" lon="6.93891">
        <ele>1798.1140480814</ele>
        <time>2019-06-23T08:14:09Z</time>
      </trkpt>
      <trkpt lat="44.21509" lon="6.93887">
        <ele>1798.3120968254</ele>
        <time>2019-06-23T08:14:11Z</time>
      </trkpt>
      <trkpt lat="44.21508" lon="6.93885">
        <ele>1798.2915882992</ele>
        <time>2019-06-23T08:14:13Z</time>
      </trkpt>
      <trkpt lat="44.21508" lon="6.93882">
        <ele>1797.8176966905</ele>
        <time>2019-06-23T08:14:15Z</time>
      </trkpt>
      <trkpt lat="44.21506" lon="6.9388">
        <ele>1797.8513110459</ele>
        <time>2019-06-23T08:14:17Z</time>
      </trkpt>
      <trkpt lat="44.21505" lon="6.93877">
        <ele>1797.9141044648</ele>
        <time>2019-06-23T08:14:19Z</time>
      </trkpt>
      <trkpt lat="44.21505" lon="6.93874">
        <ele>1797.1798365517</ele>
        <time>2019-06-23T08:14:22Z</time>
      </trkpt>
      <trkpt lat="44.21505" lon="6.93871">
        <ele>1796.8598982648</ele>
        <time>2019-06-23T08:14:24Z</time>
      </trkpt>
      <trkpt lat="44.21503" lon="6.93868">
        <ele>1796.4767696827</ele>
        <time>2019-06-23T08:14:26Z</time>
      </trkpt>
      <trkpt lat="44.21502" lon="6.93865">
        <ele>1796.3094838071</ele>
        <time>2019-06-23T08:14:28Z</time>
      </trkpt>
      <trkpt lat="44.21501" lon="6.93861">
        <ele>1796.4123458604</ele>
        <time>2019-06-23T08:14:30Z</time>
      </trkpt>
      <trkpt lat="44.21499" lon="6.93858">
        <ele>1795.655207977</ele>
        <time>2019-06-23T08:14:32Z</time>
      </trkpt>
      <trkpt lat="44.21498" lon="6.93855">
        <ele>1795.1847496353</ele>
        <time>2019-06-23T08:14:34Z</time>
      </trkpt>
      <trkpt lat="44.21497" lon="6.93852">
        <ele>1794.6390929146</ele>
        <time>2019-06-23T08:14:37Z</time>
      </trkpt>
      <trkpt lat="44.21494" lon="6.93851">
        <ele>1794.6806765304</ele>
        <time>2019-06-23T08:14:40Z</time>
      </trkpt>
      <trkpt lat="44.21492" lon="6.9385">
        <ele>1795.217532397</ele>
        <time>2019-06-23T08:14:42Z</time>
      </trkpt>
      <trkpt lat="44.21489" lon="6.93849">
        <ele>1795.1507963517</ele>
        <time>2019-06-23T08:14:45Z</time>
      </trkpt>
      <trkpt lat="44.21488" lon="6.93847">
        <ele>1795.4103195327</ele>
        <time>2019-06-23T08:14:47Z</time>
      </trkpt>
      <trkpt lat="44.21487" lon="6.93844">
        <ele>1795.0583875763</ele>
        <time>2019-06-23T08:14:50Z</time>
      </trkpt>
      <trkpt lat="44.21486" lon="6.93842">
        <ele>1794.6844543455</ele>
        <time>2019-06-23T08:14:53Z</time>
      </trkpt>
      <trkpt lat="44.21484" lon="6.93841">
        <ele>1794.4363213959</ele>
        <time>2019-06-23T08:14:55Z</time>
      </trkpt>
      <trkpt lat="44.21483" lon="6.93839">
        <ele>1794.8011679472</ele>
        <time>2019-06-23T08:14:57Z</time>
      </trkpt>
      <trkpt lat="44.21481" lon="6.93837">
        <ele>1794.6510188053</ele>
        <time>2019-06-23T08:14:59Z</time>
      </trkpt>
      <trkpt lat="44.21478" lon="6.93835">
        <ele>1794.7312555952</ele>
        <time>2019-06-23T08:15:01Z</time>
      </trkpt>
      <trkpt lat="44.21476" lon="6.93834">
        <ele>1794.9183751017</ele>
        <time>2019-06-23T08:15:03Z</time>
      </trkpt>
      <trkpt lat="44.21473" lon="6.93832">
        <ele>1794.8347281514</ele>
        <time>2019-06-23T08:15:06Z</time>
      </trkpt>
      <trkpt lat="44.21472" lon="6.93829">
        <ele>1794.2787143287</ele>
        <time>2019-06-23T08:15:09Z</time>
      </trkpt>
      <trkpt lat="44.2147" lon="6.93828">
        <ele>1793.7718245534</ele>
        <time>2019-06-23T08:15:13Z</time>
      </trkpt>
      <trkpt lat="44.21468" lon="6.93826">
        <ele>1793.8619913909</ele>
        <time>2019-06-23T08:15:16Z</time>
      </trkpt>
      <trkpt lat="44.21466" lon="6.93825">
        <ele>1793.1816762843</ele>
        <time>2019-06-23T08:15:19Z</time>
      </trkpt>
      <trkpt lat="44.21464" lon="6.93822">
        <ele>1793.266520666</ele>
        <time>2019-06-23T08:15:21Z</time>
      </trkpt>
      <trkpt lat="44.21462" lon="6.93818">
        <ele>1791.0201596372</ele>
        <time>2019-06-23T08:15:23Z</time>
      </trkpt>
      <trkpt lat="44.2146" lon="6.93816">
        <ele>1790.1968586246</ele>
        <time>2019-06-23T08:15:25Z</time>
      </trkpt>
      <trkpt lat="44.21459" lon="6.93814">
        <ele>1788.3720748722</ele>
        <time>2019-06-23T08:15:28Z</time>
      </trkpt>
      <trkpt lat="44.21456" lon="6.93811">
        <ele>1788.0686163023</ele>
        <time>2019-06-23T08:15:30Z</time>
      </trkpt>
      <trkpt lat="44.21454" lon="6.93809">
        <ele>1787.7694562283</ele>
        <time>2019-06-23T08:15:32Z</time>
      </trkpt>
      <trkpt lat="44.21452" lon="6.93808">
        <ele>1787.2514804967</ele>
        <time>2019-06-23T08:15:34Z</time>
      </trkpt>
      <trkpt lat="44.2145" lon="6.93806">
        <ele>1787.4436994404</ele>
        <time>2019-06-23T08:15:37Z</time>
      </trkpt>
      <trkpt lat="44.21447" lon="6.93805">
        <ele>1786.58551663</ele>
        <time>2019-06-23T08:15:39Z</time>
      </trkpt>
      <trkpt lat="44.21446" lon="6.93802">
        <ele>1786.903599423</ele>
        <time>2019-06-23T08:15:40Z</time>
      </trkpt>
      <trkpt lat="44.21444" lon="6.93801">
        <ele>1786.6600631396</ele>
        <time>2019-06-23T08:15:42Z</time>
      </trkpt>
      <trkpt lat="44.21441" lon="6.938">
        <ele>1787.0057631744</ele>
        <time>2019-06-23T08:15:45Z</time>
      </trkpt>
      <trkpt lat="44.21439" lon="6.93798">
        <ele>1787.3409121634</ele>
        <time>2019-06-23T08:15:46Z</time>
      </trkpt>
      <trkpt lat="44.21437" lon="6.93797">
        <ele>1787.2287809375</ele>
        <time>2019-06-23T08:15:49Z</time>
      </trkpt>
      <trkpt lat="44.21434" lon="6.93795">
        <ele>1787.819527113</ele>
        <time>2019-06-23T08:15:51Z</time>
      </trkpt>
      <trkpt lat="44.21432" lon="6.93793">
        <ele>1788.0840087935</ele>
        <time>2019-06-23T08:15:53Z</time>
      </trkpt>
      <trkpt lat="44.2143" lon="6.93789">
        <ele>1788.0410164032</ele>
        <time>2019-06-23T08:15:55Z</time>
      </trkpt>
      <trkpt lat="44.21428" lon="6.93789">
        <ele>1787.3215203172</ele>
        <time>2019-06-23T08:15:57Z</time>
      </trkpt>
      <trkpt lat="44.21426" lon="6.93787">
        <ele>1787.8577640771</ele>
        <time>2019-06-23T08:15:59Z</time>
      </trkpt>
      <trkpt lat="44.21424" lon="6.93784">
        <ele>1787.8916029763</ele>
        <time>2019-06-23T08:16:00Z</time>
      </trkpt>
      <trkpt lat="44.21422" lon="6.93782">
        <ele>1787.4712200306</ele>
        <time>2019-06-23T08:16:02Z</time>
      </trkpt>
      <trkpt lat="44.21421" lon="6.9378">
        <ele>1787.4516392727</ele>
        <time>2019-06-23T08:16:05Z</time>
      </trkpt>
      <trkpt lat="44.2142" lon="6.93778">
        <ele>1787.1228296529</ele>
        <time>2019-06-23T08:16:08Z</time>
      </trkpt>
      <trkpt lat="44.21419" lon="6.93775">
        <ele>1786.5317158911</ele>
        <time>2019-06-23T08:16:10Z</time>
      </trkpt>
      <trkpt lat="44.21417" lon="6.93774">
        <ele>1786.553660584</ele>
        <time>2019-06-23T08:16:13Z</time>
      </trkpt>
      <trkpt lat="44.21415" lon="6.93772">
        <ele>1786.8074499817</ele>
        <time>2019-06-23T08:16:15Z</time>
      </trkpt>
      <trkpt lat="44.21412" lon="6.9377">
        <ele>1786.9852967136</ele>
        <time>2019-06-23T08:16:17Z</time>
      </trkpt>
      <trkpt lat="44.21409" lon="6.9377">
        <ele>1787.5209667824</ele>
        <time>2019-06-23T08:16:19Z</time>
      </trkpt>
      <trkpt lat="44.21407" lon="6.9377">
        <ele>1788.1369216277</ele>
        <time>2019-06-23T08:16:21Z</time>
      </trkpt>
      <trkpt lat="44.21405" lon="6.93769">
        <ele>1788.5981559264</ele>
        <time>2019-06-23T08:16:24Z</time>
      </trkpt>
      <trkpt lat="44.21403" lon="6.93767">
        <ele>1788.7440533824</ele>
        <time>2019-06-23T08:16:26Z</time>
      </trkpt>
      <trkpt lat="44.21401" lon="6.93766">
        <ele>1788.9808504917</ele>
        <time>2019-06-23T08:16:28Z</time>
      </trkpt>
      <trkpt lat="44.21398" lon="6.93765">
        <ele>1789.2333991269</ele>
        <time>2019-06-23T08:16:30Z</time>
      </trkpt>
      <trkpt lat="44.21398" lon="6.93761">
        <ele>1788.9076339989</ele>
        <time>2019-06-23T08:16:34Z</time>
      </trkpt>
      <trkpt lat="44.21398" lon="6.93757">
        <ele>1787.7399748566</ele>
        <time>2019-06-23T08:16:37Z</time>
      </trkpt>
      <trkpt lat="44.214" lon="6.93755">
        <ele>1786.8859286574</ele>
        <time>2019-06-23T08:16:40Z</time>
      </trkpt>
      <trkpt lat="44.214" lon="6.93752">
        <ele>1785.9589916566</ele>
        <time>2019-06-23T08:16:42Z</time>
      </trkpt>
      <trkpt lat="44.214" lon="6.93749">
        <ele>1785.4381026874</ele>
        <time>2019-06-23T08:16:43Z</time>
      </trkpt>
      <trkpt lat="44.214" lon="6.93746">
        <ele>1784.2047074887</ele>
        <time>2019-06-23T08:16:45Z</time>
      </trkpt>
      <trkpt lat="44.21401" lon="6.93742">
        <ele>1783.4048861847</ele>
        <time>2019-06-23T08:16:46Z</time>
      </trkpt>
      <trkpt lat="44.21401" lon="6.93739">
        <ele>1782.3377824722</ele>
        <time>2019-06-23T08:16:47Z</time>
      </trkpt>
      <trkpt lat="44.21402" lon="6.93737">
        <ele>1780.623884009</ele>
        <time>2019-06-23T08:16:50Z</time>
      </trkpt>
      <trkpt lat="44.21403" lon="6.93733">
        <ele>1779.5420778254</ele>
        <time>2019-06-23T08:16:53Z</time>
      </trkpt>
      <trkpt lat="44.21404" lon="6.93731">
        <ele>1778.5252296619</ele>
        <time>2019-06-23T08:16:55Z</time>
      </trkpt>
      <trkpt lat="44.21405" lon="6.9373">
        <ele>1777.522701461</ele>
        <time>2019-06-23T08:16:58Z</time>
      </trkpt>
      <trkpt lat="44.21407" lon="6.93727">
        <ele>1776.4936971389</ele>
        <time>2019-06-23T08:17:03Z</time>
      </trkpt>
      <trkpt lat="44.21408" lon="6.93725">
        <ele>1776.0117758723</ele>
        <time>2019-06-23T08:17:04Z</time>
      </trkpt>
      <trkpt lat="44.21408" lon="6.9372">
        <ele>1774.3521788397</ele>
        <time>2019-06-23T08:17:06Z</time>
      </trkpt>
      <trkpt lat="44.21408" lon="6.93716">
        <ele>1774.4073042182</ele>
        <time>2019-06-23T08:17:07Z</time>
      </trkpt>
      <trkpt lat="44.21407" lon="6.93712">
        <ele>1774.9332740157</ele>
        <time>2019-06-23T08:17:09Z</time>
      </trkpt>
      <trkpt lat="44.21405" lon="6.93707">
        <ele>1776.1916892312</ele>
        <time>2019-06-23T08:17:11Z</time>
      </trkpt>
      <trkpt lat="44.21406" lon="6.93704">
        <ele>1776.8988729928</ele>
        <time>2019-06-23T08:17:13Z</time>
      </trkpt>
      <trkpt lat="44.21407" lon="6.93701">
        <ele>1776.0960988864</ele>
        <time>2019-06-23T08:17:15Z</time>
      </trkpt>
      <trkpt lat="44.21408" lon="6.93698">
        <ele>1775.5061589795</ele>
        <time>2019-06-23T08:17:17Z</time>
      </trkpt>
      <trkpt lat="44.21409" lon="6.93697">
        <ele>1776.0095115267</ele>
        <time>2019-06-23T08:17:21Z</time>
      </trkpt>
      <trkpt lat="44.21412" lon="6.93697">
        <ele>1775.3015177685</ele>
        <time>2019-06-23T08:17:23Z</time>
      </trkpt>
      <trkpt lat="44.21414" lon="6.93697">
        <ele>1773.603631448</ele>
        <time>2019-06-23T08:17:27Z</time>
      </trkpt>
      <trkpt lat="44.21416" lon="6.937">
        <ele>1772.7322946333</ele>
        <time>2019-06-23T08:17:30Z</time>
      </trkpt>
      <trkpt lat="44.21418" lon="6.937">
        <ele>1771.9015568788</ele>
        <time>2019-06-23T08:17:32Z</time>
      </trkpt>
      <trkpt lat="44.21419" lon="6.93697">
        <ele>1771.158688506</ele>
        <time>2019-06-23T08:17:35Z</time>
      </trkpt>
      <trkpt lat="44.21421" lon="6.93694">
        <ele>1770.8192131515</ele>
        <time>2019-06-23T08:17:37Z</time>
      </trkpt>
      <trkpt lat="44.21423" lon="6.93696">
        <ele>1770.2908299172</ele>
        <time>2019-06-23T08:17:40Z</time>
      </trkpt>
      <trkpt lat="44.21425" lon="6.93695">
        <ele>1769.6677257278</ele>
        <time>2019-06-23T08:17:42Z</time>
      </trkpt>
      <trkpt lat="44.21427" lon="6.93694">
        <ele>1768.9605779378</ele>
        <time>2019-06-23T08:17:44Z</time>
      </trkpt>
      <trkpt lat="44.21429" lon="6.93692">
        <ele>1768.362079458</ele>
        <time>2019-06-23T08:17:46Z</time>
      </trkpt>
      <trkpt lat="44.2143" lon="6.93692">
        <ele>1768.0433284597</ele>
        <time>2019-06-23T08:17:47Z</time>
      </trkpt>
      <trkpt lat="44.21433" lon="6.93692">
        <ele>1767.4789335745</ele>
        <time>2019-06-23T08:17:49Z</time>
      </trkpt>
      <trkpt lat="44.21435" lon="6.93692">
        <ele>1767.11423018</ele>
        <time>2019-06-23T08:17:50Z</time>
      </trkpt>
      <trkpt lat="44.21438" lon="6.93691">
        <ele>1766.4242930436</ele>
        <time>2019-06-23T08:17:51Z</time>
      </trkpt>
      <trkpt lat="44.2144" lon="6.9369">
        <ele>1765.1425405836</ele>
        <time>2019-06-23T08:17:53Z</time>
      </trkpt>
      <trkpt lat="44.21442" lon="6.93689">
        <ele>1764.7027723754</ele>
        <time>2019-06-23T08:17:55Z</time>
      </trkpt>
      <trkpt lat="44.21445" lon="6.93685">
        <ele>1763.9767926621</ele>
        <time>2019-06-23T08:17:57Z</time>
      </trkpt>
      <trkpt lat="44.21447" lon="6.93684">
        <ele>1762.9584501013</ele>
        <time>2019-06-23T08:17:59Z</time>
      </trkpt>
      <trkpt lat="44.21449" lon="6.93684">
        <ele>1761.866904371</ele>
        <time>2019-06-23T08:18:01Z</time>
      </trkpt>
      <trkpt lat="44.21452" lon="6.93683">
        <ele>1760.7404151832</ele>
        <time>2019-06-23T08:18:03Z</time>
      </trkpt>
      <trkpt lat="44.21455" lon="6.93681">
        <ele>1759.513568016</ele>
        <time>2019-06-23T08:18:05Z</time>
      </trkpt>
      <trkpt lat="44.21457" lon="6.93679">
        <ele>1758.8136103353</ele>
        <time>2019-06-23T08:18:07Z</time>
      </trkpt>
      <trkpt lat="44.21459" lon="6.93679">
        <ele>1758.2584479167</ele>
        <time>2019-06-23T08:18:09Z</time>
      </trkpt>
      <trkpt lat="44.21462" lon="6.93679">
        <ele>1757.0519478062</ele>
        <time>2019-06-23T08:18:11Z</time>
      </trkpt>
      <trkpt lat="44.21465" lon="6.93678">
        <ele>1755.7706762621</ele>
        <time>2019-06-23T08:18:13Z</time>
      </trkpt>
      <trkpt lat="44.21467" lon="6.93676">
        <ele>1755.1704308159</ele>
        <time>2019-06-23T08:18:14Z</time>
      </trkpt>
      <trkpt lat="44.21471" lon="6.93675">
        <ele>1754.2614338461</ele>
        <time>2019-06-23T08:18:16Z</time>
      </trkpt>
      <trkpt lat="44.21472" lon="6.93675">
        <ele>1753.7185055977</ele>
        <time>2019-06-23T08:18:17Z</time>
      </trkpt>
      <trkpt lat="44.21475" lon="6.93672">
        <ele>1753.0057122014</ele>
        <time>2019-06-23T08:18:19Z</time>
      </trkpt>
      <trkpt lat="44.21477" lon="6.93672">
        <ele>1753.1817151716</ele>
        <time>2019-06-23T08:18:20Z</time>
      </trkpt>
      <trkpt lat="44.21479" lon="6.93671">
        <ele>1752.7426138084</ele>
        <time>2019-06-23T08:18:21Z</time>
      </trkpt>
      <trkpt lat="44.21481" lon="6.93668">
        <ele>1752.3192504026</ele>
        <time>2019-06-23T08:18:23Z</time>
      </trkpt>
      <trkpt lat="44.21484" lon="6.93667">
        <ele>1752.1501449424</ele>
        <time>2019-06-23T08:18:25Z</time>
      </trkpt>
      <trkpt lat="44.21487" lon="6.93665">
        <ele>1752.5427641905</ele>
        <time>2019-06-23T08:18:27Z</time>
      </trkpt>
      <trkpt lat="44.2149" lon="6.93665">
        <ele>1751.9231503439</ele>
        <time>2019-06-23T08:18:29Z</time>
      </trkpt>
      <trkpt lat="44.21492" lon="6.93664">
        <ele>1751.3422333999</ele>
        <time>2019-06-23T08:18:30Z</time>
      </trkpt>
      <trkpt lat="44.21494" lon="6.93663">
        <ele>1750.9254187177</ele>
        <time>2019-06-23T08:18:32Z</time>
      </trkpt>
      <trkpt lat="44.21496" lon="6.93661">
        <ele>1751.3095074068</ele>
        <time>2019-06-23T08:18:34Z</time>
      </trkpt>
      <trkpt lat="44.21498" lon="6.93659">
        <ele>1752.3761374722</ele>
        <time>2019-06-23T08:18:37Z</time>
      </trkpt>
      <trkpt lat="44.215" lon="6.93658">
        <ele>1752.6770907662</ele>
        <time>2019-06-23T08:18:39Z</time>
      </trkpt>
      <trkpt lat="44.21503" lon="6.93659">
        <ele>1751.8390497333</ele>
        <time>2019-06-23T08:18:42Z</time>
      </trkpt>
      <trkpt lat="44.21501" lon="6.93656">
        <ele>1754.7433501218</ele>
        <time>2019-06-23T08:18:49Z</time>
      </trkpt>
      <trkpt lat="44.215" lon="6.93654">
        <ele>1756.2000240495</ele>
        <time>2019-06-23T08:18:51Z</time>
      </trkpt>
      <trkpt lat="44.21502" lon="6.93653">
        <ele>1760.0159650649</ele>
        <time>2019-06-23T08:19:00Z</time>
      </trkpt>
      <trkpt lat="44.21503" lon="6.93656">
        <ele>1760.8293978735</ele>
        <time>2019-06-23T08:19:03Z</time>
      </trkpt>
      <trkpt lat="44.21501" lon="6.93658">
        <ele>1752.2116881199</ele>
        <time>2019-06-23T08:19:13Z</time>
      </trkpt>
      <trkpt lat="44.21499" lon="6.9366">
        <ele>1751.8189191731</ele>
        <time>2019-06-23T08:19:15Z</time>
      </trkpt>
      <trkpt lat="44.21497" lon="6.93659">
        <ele>1751.9148462199</ele>
        <time>2019-06-23T08:19:17Z</time>
      </trkpt>
      <trkpt lat="44.21495" lon="6.93659">
        <ele>1752.891151811</ele>
        <time>2019-06-23T08:19:22Z</time>
      </trkpt>
      <trkpt lat="44.21494" lon="6.93657">
        <ele>1753.8122809367</ele>
        <time>2019-06-23T08:19:34Z</time>
      </trkpt>
      <trkpt lat="44.21495" lon="6.93656">
        <ele>1754.1371545513</ele>
        <time>2019-06-23T08:19:43Z</time>
      </trkpt>
      <trkpt lat="44.21497" lon="6.93654">
        <ele>1755.1164721772</ele>
        <time>2019-06-23T08:19:45Z</time>
      </trkpt>
      <trkpt lat="44.21497" lon="6.93647">
        <ele>1754.9404018172</ele>
        <time>2019-06-23T08:19:51Z</time>
      </trkpt>
      <trkpt lat="44.21499" lon="6.93644">
        <ele>1759.546673861</ele>
        <time>2019-06-23T08:19:55Z</time>
      </trkpt>
      <trkpt lat="44.215" lon="6.93641">
        <ele>1761.8516748095</ele>
        <time>2019-06-23T08:19:58Z</time>
      </trkpt>
      <trkpt lat="44.21502" lon="6.93639">
        <ele>1762.7382331593</ele>
        <time>2019-06-23T08:20:03Z</time>
      </trkpt>
      <trkpt lat="44.21504" lon="6.93637">
        <ele>1762.9789136274</ele>
        <time>2019-06-23T08:20:05Z</time>
      </trkpt>
      <trkpt lat="44.21506" lon="6.93634">
        <ele>1762.9958883031</ele>
        <time>2019-06-23T08:20:07Z</time>
      </trkpt>
      <trkpt lat="44.21508" lon="6.93632">
        <ele>1763.4092950989</ele>
        <time>2019-06-23T08:20:11Z</time>
      </trkpt>
      <trkpt lat="44.21511" lon="6.93631">
        <ele>1763.1794547892</ele>
        <time>2019-06-23T08:20:14Z</time>
      </trkpt>
      <trkpt lat="44.21513" lon="6.9363">
        <ele>1763.0029834733</ele>
        <time>2019-06-23T08:20:15Z</time>
      </trkpt>
      <trkpt lat="44.21515" lon="6.93627">
        <ele>1762.6010808262</ele>
        <time>2019-06-23T08:20:18Z</time>
      </trkpt>
      <trkpt lat="44.21517" lon="6.93625">
        <ele>1762.7787664693</ele>
        <time>2019-06-23T08:20:20Z</time>
      </trkpt>
      <trkpt lat="44.2152" lon="6.93624">
        <ele>1762.097281607</ele>
        <time>2019-06-23T08:20:22Z</time>
      </trkpt>
      <trkpt lat="44.21525" lon="6.93623">
        <ele>1762.3147746197</ele>
        <time>2019-06-23T08:20:24Z</time>
      </trkpt>
      <trkpt lat="44.21527" lon="6.93622">
        <ele>1761.070329136</ele>
        <time>2019-06-23T08:20:28Z</time>
      </trkpt>
      <trkpt lat="44.21529" lon="6.93621">
        <ele>1760.3344305215</ele>
        <time>2019-06-23T08:20:32Z</time>
      </trkpt>
      <trkpt lat="44.21531" lon="6.93621">
        <ele>1759.4224186209</ele>
        <time>2019-06-23T08:20:35Z</time>
      </trkpt>
      <trkpt lat="44.21533" lon="6.93617">
        <ele>1758.7436497691</ele>
        <time>2019-06-23T08:20:37Z</time>
      </trkpt>
      <trkpt lat="44.21535" lon="6.93615">
        <ele>1758.4523821001</ele>
        <time>2019-06-23T08:20:39Z</time>
      </trkpt>
      <trkpt lat="44.21537" lon="6.93614">
        <ele>1757.9210380269</ele>
        <time>2019-06-23T08:20:41Z</time>
      </trkpt>
      <trkpt lat="44.21539" lon="6.93611">
        <ele>1757.046387428</ele>
        <time>2019-06-23T08:20:43Z</time>
      </trkpt>
      <trkpt lat="44.21541" lon="6.93607">
        <ele>1756.9486846232</ele>
        <time>2019-06-23T08:20:45Z</time>
      </trkpt>
      <trkpt lat="44.21543" lon="6.93604">
        <ele>1756.4356128686</ele>
        <time>2019-06-23T08:20:47Z</time>
      </trkpt>
      <trkpt lat="44.21545" lon="6.93602">
        <ele>1755.5533236051</ele>
        <time>2019-06-23T08:20:51Z</time>
      </trkpt>
      <trkpt lat="44.21547" lon="6.93599">
        <ele>1755.0698575006</ele>
        <time>2019-06-23T08:20:53Z</time>
      </trkpt>
      <trkpt lat="44.21549" lon="6.93596">
        <ele>1754.9592646436</ele>
        <time>2019-06-23T08:20:56Z</time>
      </trkpt>
      <trkpt lat="44.2155" lon="6.93594">
        <ele>1754.4355316465</ele>
        <time>2019-06-23T08:21:00Z</time>
      </trkpt>
      <trkpt lat="44.21552" lon="6.9359">
        <ele>1754.7888333896</ele>
        <time>2019-06-23T08:21:02Z</time>
      </trkpt>
      <trkpt lat="44.21553" lon="6.93588">
        <ele>1755.0614984871</ele>
        <time>2019-06-23T08:21:04Z</time>
      </trkpt>
      <trkpt lat="44.21555" lon="6.93585">
        <ele>1755.2703165873</ele>
        <time>2019-06-23T08:21:07Z</time>
      </trkpt>
      <trkpt lat="44.21556" lon="6.9358">
        <ele>1755.7439610241</ele>
        <time>2019-06-23T08:21:09Z</time>
      </trkpt>
      <trkpt lat="44.21558" lon="6.93576">
        <ele>1756.6719115798</ele>
        <time>2019-06-23T08:21:11Z</time>
      </trkpt>
      <trkpt lat="44.21559" lon="6.93573">
        <ele>1757.490742308</ele>
        <time>2019-06-23T08:21:14Z</time>
      </trkpt>
      <trkpt lat="44.21561" lon="6.93572">
        <ele>1757.5166317564</ele>
        <time>2019-06-23T08:21:15Z</time>
      </trkpt>
      <trkpt lat="44.21563" lon="6.93569">
        <ele>1757.5035713926</ele>
        <time>2019-06-23T08:21:17Z</time>
      </trkpt>
      <trkpt lat="44.21564" lon="6.93567">
        <ele>1757.8213851249</ele>
        <time>2019-06-23T08:21:19Z</time>
      </trkpt>
      <trkpt lat="44.21566" lon="6.93564">
        <ele>1757.990259063</ele>
        <time>2019-06-23T08:21:21Z</time>
      </trkpt>
      <trkpt lat="44.21568" lon="6.93561">
        <ele>1758.5960969723</ele>
        <time>2019-06-23T08:21:23Z</time>
      </trkpt>
      <trkpt lat="44.2157" lon="6.93559">
        <ele>1758.5790226916</ele>
        <time>2019-06-23T08:21:24Z</time>
      </trkpt>
      <trkpt lat="44.21572" lon="6.93557">
        <ele>1758.4415073137</ele>
        <time>2019-06-23T08:21:26Z</time>
      </trkpt>
      <trkpt lat="44.21573" lon="6.93554">
        <ele>1758.4680484197</ele>
        <time>2019-06-23T08:21:28Z</time>
      </trkpt>
      <trkpt lat="44.21575" lon="6.93551">
        <ele>1757.3865230593</ele>
        <time>2019-06-23T08:21:30Z</time>
      </trkpt>
      <trkpt lat="44.21577" lon="6.93549">
        <ele>1756.0978550225</ele>
        <time>2019-06-23T08:21:32Z</time>
      </trkpt>
      <trkpt lat="44.21577" lon="6.93546">
        <ele>1755.1170398753</ele>
        <time>2019-06-23T08:21:34Z</time>
      </trkpt>
      <trkpt lat="44.21578" lon="6.93543">
        <ele>1753.8682815285</ele>
        <time>2019-06-23T08:21:36Z</time>
      </trkpt>
      <trkpt lat="44.2158" lon="6.93541">
        <ele>1752.8399980466</ele>
        <time>2019-06-23T08:21:38Z</time>
      </trkpt>
      <trkpt lat="44.2158" lon="6.93539">
        <ele>1752.338532428</ele>
        <time>2019-06-23T08:21:39Z</time>
      </trkpt>
      <trkpt lat="44.21581" lon="6.93536">
        <ele>1750.8814498232</ele>
        <time>2019-06-23T08:21:41Z</time>
      </trkpt>
      <trkpt lat="44.21581" lon="6.93532">
        <ele>1749.9234060967</ele>
        <time>2019-06-23T08:21:43Z</time>
      </trkpt>
      <trkpt lat="44.2158" lon="6.9353">
        <ele>1749.6202270267</ele>
        <time>2019-06-23T08:21:45Z</time>
      </trkpt>
      <trkpt lat="44.2158" lon="6.93528">
        <ele>1748.6438724821</ele>
        <time>2019-06-23T08:21:47Z</time>
      </trkpt>
      <trkpt lat="44.2158" lon="6.93524">
        <ele>1747.8523218272</ele>
        <time>2019-06-23T08:21:49Z</time>
      </trkpt>
      <trkpt lat="44.21579" lon="6.93521">
        <ele>1747.2045950815</ele>
        <time>2019-06-23T08:21:52Z</time>
      </trkpt>
      <trkpt lat="44.21579" lon="6.93518">
        <ele>1746.6597577564</ele>
        <time>2019-06-23T08:21:53Z</time>
      </trkpt>
      <trkpt lat="44.21579" lon="6.93516">
        <ele>1745.511465055</ele>
        <time>2019-06-23T08:21:55Z</time>
      </trkpt>
      <trkpt lat="44.21581" lon="6.93513">
        <ele>1744.5475553702</ele>
        <time>2019-06-23T08:21:57Z</time>
      </trkpt>
      <trkpt lat="44.21582" lon="6.9351">
        <ele>1742.8946156325</ele>
        <time>2019-06-23T08:22:00Z</time>
      </trkpt>
      <trkpt lat="44.21582" lon="6.93508">
        <ele>1742.593187413</ele>
        <time>2019-06-23T08:22:02Z</time>
      </trkpt>
      <trkpt lat="44.21581" lon="6.93504">
        <ele>1741.7267492772</ele>
        <time>2019-06-23T08:22:05Z</time>
      </trkpt>
      <trkpt lat="44.21581" lon="6.93501">
        <ele>1740.9260448823</ele>
        <time>2019-06-23T08:22:07Z</time>
      </trkpt>
      <trkpt lat="44.21581" lon="6.93498">
        <ele>1739.7204848446</ele>
        <time>2019-06-23T08:22:10Z</time>
      </trkpt>
      <trkpt lat="44.21581" lon="6.93495">
        <ele>1738.9446589958</ele>
        <time>2019-06-23T08:22:12Z</time>
      </trkpt>
      <trkpt lat="44.21581" lon="6.93493">
        <ele>1737.8364594462</ele>
        <time>2019-06-23T08:22:16Z</time>
      </trkpt>
      <trkpt lat="44.21581" lon="6.93489">
        <ele>1737.0876990291</ele>
        <time>2019-06-23T08:22:20Z</time>
      </trkpt>
      <trkpt lat="44.2158" lon="6.93487">
        <ele>1736.2141567527</ele>
        <time>2019-06-23T08:22:23Z</time>
      </trkpt>
      <trkpt lat="44.21578" lon="6.93485">
        <ele>1735.7686346508</ele>
        <time>2019-06-23T08:22:26Z</time>
      </trkpt>
      <trkpt lat="44.21577" lon="6.93483">
        <ele>1735.4058799918</ele>
        <time>2019-06-23T08:22:33Z</time>
      </trkpt>
      <trkpt lat="44.21577" lon="6.93479">
        <ele>1734.536403084</ele>
        <time>2019-06-23T08:22:35Z</time>
      </trkpt>
      <trkpt lat="44.21575" lon="6.93477">
        <ele>1733.3712287477</ele>
        <time>2019-06-23T08:22:38Z</time>
      </trkpt>
      <trkpt lat="44.21572" lon="6.93477">
        <ele>1733.1054229654</ele>
        <time>2019-06-23T08:22:43Z</time>
      </trkpt>
      <trkpt lat="44.21569" lon="6.93478">
        <ele>1733.3164975967</ele>
        <time>2019-06-23T08:22:46Z</time>
      </trkpt>
      <trkpt lat="44.21567" lon="6.93477">
        <ele>1733.5266727827</ele>
        <time>2019-06-23T08:22:49Z</time>
      </trkpt>
      <trkpt lat="44.21565" lon="6.93477">
        <ele>1733.3562694246</ele>
        <time>2019-06-23T08:22:53Z</time>
      </trkpt>
      <trkpt lat="44.21563" lon="6.93476">
        <ele>1733.1822049338</ele>
        <time>2019-06-23T08:22:58Z</time>
      </trkpt>
      <trkpt lat="44.21561" lon="6.93475">
        <ele>1732.9855176518</ele>
        <time>2019-06-23T08:23:00Z</time>
      </trkpt>
      <trkpt lat="44.21557" lon="6.93477">
        <ele>1732.9435385719</ele>
        <time>2019-06-23T08:23:02Z</time>
      </trkpt>
      <trkpt lat="44.21554" lon="6.93478">
        <ele>1733.8964793768</ele>
        <time>2019-06-23T08:23:04Z</time>
      </trkpt>
      <trkpt lat="44.21552" lon="6.93479">
        <ele>1734.6556122626</ele>
        <time>2019-06-23T08:23:07Z</time>
      </trkpt>
      <trkpt lat="44.2155" lon="6.93479">
        <ele>1734.997994645</ele>
        <time>2019-06-23T08:23:09Z</time>
      </trkpt>
      <trkpt lat="44.21548" lon="6.93479">
        <ele>1731.742960252</ele>
        <time>2019-06-23T08:23:11Z</time>
      </trkpt>
      <trkpt lat="44.21546" lon="6.93479">
        <ele>1734.8656461468</ele>
        <time>2019-06-23T08:23:14Z</time>
      </trkpt>
      <trkpt lat="44.21545" lon="6.93482">
        <ele>1736.5664817026</ele>
        <time>2019-06-23T08:23:16Z</time>
      </trkpt>
      <trkpt lat="44.21541" lon="6.93483">
        <ele>1737.1674683296</ele>
        <time>2019-06-23T08:23:18Z</time>
      </trkpt>
      <trkpt lat="44.21539" lon="6.93482">
        <ele>1737.1850138404</ele>
        <time>2019-06-23T08:23:20Z</time>
      </trkpt>
      <trkpt lat="44.21537" lon="6.93482">
        <ele>1737.0051563365</ele>
        <time>2019-06-23T08:23:22Z</time>
      </trkpt>
      <trkpt lat="44.21535" lon="6.93482">
        <ele>1737.1194612771</ele>
        <time>2019-06-23T08:23:24Z</time>
      </trkpt>
      <trkpt lat="44.21532" lon="6.93482">
        <ele>1737.1531405413</ele>
        <time>2019-06-23T08:23:27Z</time>
      </trkpt>
      <trkpt lat="44.2153" lon="6.9348">
        <ele>1736.5072668028</ele>
        <time>2019-06-23T08:23:29Z</time>
      </trkpt>
      <trkpt lat="44.21527" lon="6.93479">
        <ele>1735.7641826434</ele>
        <time>2019-06-23T08:23:30Z</time>
      </trkpt>
      <trkpt lat="44.21525" lon="6.93477">
        <ele>1734.9876281337</ele>
        <time>2019-06-23T08:23:31Z</time>
      </trkpt>
      <trkpt lat="44.21522" lon="6.93476">
        <ele>1733.4618885341</ele>
        <time>2019-06-23T08:23:33Z</time>
      </trkpt>
      <trkpt lat="44.21519" lon="6.93474">
        <ele>1733.1126138042</ele>
        <time>2019-06-23T08:23:35Z</time>
      </trkpt>
      <trkpt lat="44.21517" lon="6.93473">
        <ele>1731.6026427854</ele>
        <time>2019-06-23T08:23:37Z</time>
      </trkpt>
      <trkpt lat="44.21516" lon="6.9347">
        <ele>1731.0115221603</ele>
        <time>2019-06-23T08:23:40Z</time>
      </trkpt>
      <trkpt lat="44.21514" lon="6.9347">
        <ele>1730.9084070073</ele>
        <time>2019-06-23T08:23:41Z</time>
      </trkpt>
      <trkpt lat="44.21513" lon="6.93467">
        <ele>1730.7063856295</ele>
        <time>2019-06-23T08:23:43Z</time>
      </trkpt>
      <trkpt lat="44.2151" lon="6.93467">
        <ele>1730.5605896483</ele>
        <time>2019-06-23T08:23:46Z</time>
      </trkpt>
      <trkpt lat="44.21508" lon="6.93467">
        <ele>1730.7829208837</ele>
        <time>2019-06-23T08:23:48Z</time>
      </trkpt>
      <trkpt lat="44.21506" lon="6.93467">
        <ele>1730.8224853562</ele>
        <time>2019-06-23T08:23:49Z</time>
      </trkpt>
      <trkpt lat="44.21502" lon="6.93466">
        <ele>1730.9655398407</ele>
        <time>2019-06-23T08:23:51Z</time>
      </trkpt>
      <trkpt lat="44.215" lon="6.93465">
        <ele>1731.1345338622</ele>
        <time>2019-06-23T08:23:53Z</time>
      </trkpt>
      <trkpt lat="44.21499" lon="6.93462">
        <ele>1731.5046151126</ele>
        <time>2019-06-23T08:23:59Z</time>
      </trkpt>
      <trkpt lat="44.215" lon="6.93457">
        <ele>1731.4791055231</ele>
        <time>2019-06-23T08:24:01Z</time>
      </trkpt>
      <trkpt lat="44.21501" lon="6.93454">
        <ele>1731.1627188354</ele>
        <time>2019-06-23T08:24:03Z</time>
      </trkpt>
      <trkpt lat="44.21504" lon="6.93453">
        <ele>1730.8573869998</ele>
        <time>2019-06-23T08:24:05Z</time>
      </trkpt>
      <trkpt lat="44.21506" lon="6.9345">
        <ele>1730.222312197</ele>
        <time>2019-06-23T08:24:07Z</time>
      </trkpt>
      <trkpt lat="44.21508" lon="6.93449">
        <ele>1729.653395531</ele>
        <time>2019-06-23T08:24:09Z</time>
      </trkpt>
      <trkpt lat="44.2151" lon="6.93447">
        <ele>1729.0284400069</ele>
        <time>2019-06-23T08:24:11Z</time>
      </trkpt>
      <trkpt lat="44.21511" lon="6.93445">
        <ele>1728.6398351201</ele>
        <time>2019-06-23T08:24:12Z</time>
      </trkpt>
      <trkpt lat="44.21513" lon="6.93443">
        <ele>1728.09065969</ele>
        <time>2019-06-23T08:24:13Z</time>
      </trkpt>
      <trkpt lat="44.21515" lon="6.93442">
        <ele>1727.4955443931</ele>
        <time>2019-06-23T08:24:14Z</time>
      </trkpt>
      <trkpt lat="44.21516" lon="6.9344">
        <ele>1726.9554908712</ele>
        <time>2019-06-23T08:24:15Z</time>
      </trkpt>
      <trkpt lat="44.21517" lon="6.93437">
        <ele>1726.5917809292</ele>
        <time>2019-06-23T08:24:16Z</time>
      </trkpt>
      <trkpt lat="44.2152" lon="6.93434">
        <ele>1726.0879630211</ele>
        <time>2019-06-23T08:24:18Z</time>
      </trkpt>
      <trkpt lat="44.21521" lon="6.93432">
        <ele>1725.5749256051</ele>
        <time>2019-06-23T08:24:19Z</time>
      </trkpt>
      <trkpt lat="44.21523" lon="6.93431">
        <ele>1725.1110852424</ele>
        <time>2019-06-23T08:24:20Z</time>
      </trkpt>
      <trkpt lat="44.21524" lon="6.93429">
        <ele>1724.6304116553</ele>
        <time>2019-06-23T08:24:21Z</time>
      </trkpt>
      <trkpt lat="44.21525" lon="6.93427">
        <ele>1724.2279253513</ele>
        <time>2019-06-23T08:24:22Z</time>
      </trkpt>
      <trkpt lat="44.21527" lon="6.93423">
        <ele>1723.6429707055</ele>
        <time>2019-06-23T08:24:24Z</time>
      </trkpt>
      <trkpt lat="44.21528" lon="6.93418">
        <ele>1723.2036445966</ele>
        <time>2019-06-23T08:24:26Z</time>
      </trkpt>
      <trkpt lat="44.21529" lon="6.93415">
        <ele>1723.0803292119</ele>
        <time>2019-06-23T08:24:27Z</time>
      </trkpt>
      <trkpt lat="44.2153" lon="6.9341">
        <ele>1723.6944464043</ele>
        <time>2019-06-23T08:24:29Z</time>
      </trkpt>
      <trkpt lat="44.21531" lon="6.93407">
        <ele>1724.9259311026</ele>
        <time>2019-06-23T08:24:32Z</time>
      </trkpt>
      <trkpt lat="44.21532" lon="6.93404">
        <ele>1725.5421809877</ele>
        <time>2019-06-23T08:24:34Z</time>
      </trkpt>
      <trkpt lat="44.21533" lon="6.93402">
        <ele>1725.8809875295</ele>
        <time>2019-06-23T08:24:36Z</time>
      </trkpt>
      <trkpt lat="44.21535" lon="6.934">
        <ele>1725.828630966</ele>
        <time>2019-06-23T08:24:38Z</time>
      </trkpt>
      <trkpt lat="44.21537" lon="6.93398">
        <ele>1725.9449235635</ele>
        <time>2019-06-23T08:24:41Z</time>
      </trkpt>
      <trkpt lat="44.21539" lon="6.93394">
        <ele>1726.2669436662</ele>
        <time>2019-06-23T08:24:43Z</time>
      </trkpt>
      <trkpt lat="44.2154" lon="6.93392">
        <ele>1726.4543715212</ele>
        <time>2019-06-23T08:24:44Z</time>
      </trkpt>
      <trkpt lat="44.21541" lon="6.93389">
        <ele>1727.0585933215</ele>
        <time>2019-06-23T08:24:46Z</time>
      </trkpt>
      <trkpt lat="44.21543" lon="6.93386">
        <ele>1727.2332976489</ele>
        <time>2019-06-23T08:24:48Z</time>
      </trkpt>
      <trkpt lat="44.21543" lon="6.93384">
        <ele>1727.3704182273</ele>
        <time>2019-06-23T08:24:50Z</time>
      </trkpt>
      <trkpt lat="44.21545" lon="6.93381">
        <ele>1727.2848546187</ele>
        <time>2019-06-23T08:24:52Z</time>
      </trkpt>
      <trkpt lat="44.21546" lon="6.93378">
        <ele>1727.0441234943</ele>
        <time>2019-06-23T08:24:54Z</time>
      </trkpt>
      <trkpt lat="44.21547" lon="6.93375">
        <ele>1726.9437472188</ele>
        <time>2019-06-23T08:24:55Z</time>
      </trkpt>
      <trkpt lat="44.21548" lon="6.93372">
        <ele>1726.7881696957</ele>
        <time>2019-06-23T08:24:57Z</time>
      </trkpt>
      <trkpt lat="44.21549" lon="6.93369">
        <ele>1726.4278719939</ele>
        <time>2019-06-23T08:25:00Z</time>
      </trkpt>
      <trkpt lat="44.21551" lon="6.93367">
        <ele>1725.9928035663</ele>
        <time>2019-06-23T08:25:03Z</time>
      </trkpt>
      <trkpt lat="44.21552" lon="6.93364">
        <ele>1725.4679913139</ele>
        <time>2019-06-23T08:25:05Z</time>
      </trkpt>
      <trkpt lat="44.21554" lon="6.9336">
        <ele>1725.1300548992</ele>
        <time>2019-06-23T08:25:06Z</time>
      </trkpt>
      <trkpt lat="44.21555" lon="6.93358">
        <ele>1724.5383579678</ele>
        <time>2019-06-23T08:25:08Z</time>
      </trkpt>
      <trkpt lat="44.21557" lon="6.93355">
        <ele>1724.5443683979</ele>
        <time>2019-06-23T08:25:11Z</time>
      </trkpt>
      <trkpt lat="44.21558" lon="6.93353">
        <ele>1724.6771213186</ele>
        <time>2019-06-23T08:25:12Z</time>
      </trkpt>
      <trkpt lat="44.21559" lon="6.93351">
        <ele>1724.9801042668</ele>
        <time>2019-06-23T08:25:14Z</time>
      </trkpt>
      <trkpt lat="44.2156" lon="6.93348">
        <ele>1725.4843303853</ele>
        <time>2019-06-23T08:25:16Z</time>
      </trkpt>
      <trkpt lat="44.21561" lon="6.93346">
        <ele>1725.8086023828</ele>
        <time>2019-06-23T08:25:18Z</time>
      </trkpt>
      <trkpt lat="44.21562" lon="6.93344">
        <ele>1726.1901263528</ele>
        <time>2019-06-23T08:25:20Z</time>
      </trkpt>
      <trkpt lat="44.21564" lon="6.93343">
        <ele>1726.1973034089</ele>
        <time>2019-06-23T08:25:22Z</time>
      </trkpt>
      <trkpt lat="44.21567" lon="6.93342">
        <ele>1725.6770407068</ele>
        <time>2019-06-23T08:25:24Z</time>
      </trkpt>
      <trkpt lat="44.21569" lon="6.9334">
        <ele>1725.3570028747</ele>
        <time>2019-06-23T08:25:26Z</time>
      </trkpt>
      <trkpt lat="44.21571" lon="6.93337">
        <ele>1725.6199023499</ele>
        <time>2019-06-23T08:25:28Z</time>
      </trkpt>
      <trkpt lat="44.21572" lon="6.93335">
        <ele>1725.717194245</ele>
        <time>2019-06-23T08:25:29Z</time>
      </trkpt>
      <trkpt lat="44.21574" lon="6.93334">
        <ele>1725.5133856131</ele>
        <time>2019-06-23T08:25:32Z</time>
      </trkpt>
      <trkpt lat="44.21576" lon="6.93333">
        <ele>1725.6103150543</ele>
        <time>2019-06-23T08:25:34Z</time>
      </trkpt>
      <trkpt lat="44.21578" lon="6.93331">
        <ele>1725.4635292217</ele>
        <time>2019-06-23T08:25:36Z</time>
      </trkpt>
      <trkpt lat="44.2158" lon="6.93329">
        <ele>1725.5241341173</ele>
        <time>2019-06-23T08:25:38Z</time>
      </trkpt>
      <trkpt lat="44.21582" lon="6.93328">
        <ele>1725.5024049612</ele>
        <time>2019-06-23T08:25:40Z</time>
      </trkpt>
      <trkpt lat="44.21584" lon="6.93326">
        <ele>1725.3044008044</ele>
        <time>2019-06-23T08:25:42Z</time>
      </trkpt>
      <trkpt lat="44.21587" lon="6.93326">
        <ele>1724.4385328234</ele>
        <time>2019-06-23T08:25:44Z</time>
      </trkpt>
      <trkpt lat="44.2159" lon="6.93326">
        <ele>1722.6028477764</ele>
        <time>2019-06-23T08:25:46Z</time>
      </trkpt>
      <trkpt lat="44.21593" lon="6.93325">
        <ele>1721.4966247149</ele>
        <time>2019-06-23T08:25:48Z</time>
      </trkpt>
      <trkpt lat="44.21595" lon="6.93324">
        <ele>1720.9461506612</ele>
        <time>2019-06-23T08:25:49Z</time>
      </trkpt>
      <trkpt lat="44.21596" lon="6.93323">
        <ele>1720.4306662441</ele>
        <time>2019-06-23T08:25:50Z</time>
      </trkpt>
      <trkpt lat="44.21598" lon="6.93321">
        <ele>1720.157853154</ele>
        <time>2019-06-23T08:25:51Z</time>
      </trkpt>
      <trkpt lat="44.216" lon="6.93321">
        <ele>1719.5930292609</ele>
        <time>2019-06-23T08:25:53Z</time>
      </trkpt>
      <trkpt lat="44.21603" lon="6.93319">
        <ele>1719.0851044657</ele>
        <time>2019-06-23T08:25:56Z</time>
      </trkpt>
      <trkpt lat="44.21606" lon="6.93317">
        <ele>1718.8322981119</ele>
        <time>2019-06-23T08:25:58Z</time>
      </trkpt>
      <trkpt lat="44.21607" lon="6.93315">
        <ele>1718.9026203902</ele>
        <time>2019-06-23T08:26:00Z</time>
      </trkpt>
      <trkpt lat="44.2161" lon="6.93313">
        <ele>1719.0943868454</ele>
        <time>2019-06-23T08:26:02Z</time>
      </trkpt>
      <trkpt lat="44.21613" lon="6.93313">
        <ele>1718.918216131</ele>
        <time>2019-06-23T08:26:04Z</time>
      </trkpt>
      <trkpt lat="44.21615" lon="6.93312">
        <ele>1717.782083086</ele>
        <time>2019-06-23T08:26:06Z</time>
      </trkpt>
      <trkpt lat="44.21617" lon="6.93311">
        <ele>1716.9645120387</ele>
        <time>2019-06-23T08:26:08Z</time>
      </trkpt>
      <trkpt lat="44.21619" lon="6.93309">
        <ele>1716.8094432998</ele>
        <time>2019-06-23T08:26:09Z</time>
      </trkpt>
      <trkpt lat="44.21621" lon="6.93306">
        <ele>1717.2102946741</ele>
        <time>2019-06-23T08:26:11Z</time>
      </trkpt>
      <trkpt lat="44.21623" lon="6.93304">
        <ele>1716.6853368434</ele>
        <time>2019-06-23T08:26:14Z</time>
      </trkpt>
      <trkpt lat="44.21627" lon="6.93302">
        <ele>1716.1874459435</ele>
        <time>2019-06-23T08:26:16Z</time>
      </trkpt>
      <trkpt lat="44.21629" lon="6.93299">
        <ele>1716.0122868951</ele>
        <time>2019-06-23T08:26:19Z</time>
      </trkpt>
      <trkpt lat="44.21631" lon="6.93298">
        <ele>1716.0838252776</ele>
        <time>2019-06-23T08:26:20Z</time>
      </trkpt>
      <trkpt lat="44.21633" lon="6.93297">
        <ele>1715.3005250661</ele>
        <time>2019-06-23T08:26:22Z</time>
      </trkpt>
      <trkpt lat="44.21636" lon="6.93296">
        <ele>1714.3793107164</ele>
        <time>2019-06-23T08:26:24Z</time>
      </trkpt>
      <trkpt lat="44.21639" lon="6.93294">
        <ele>1713.5411180421</ele>
        <time>2019-06-23T08:26:27Z</time>
      </trkpt>
      <trkpt lat="44.21641" lon="6.93292">
        <ele>1713.789636568</ele>
        <time>2019-06-23T08:26:29Z</time>
      </trkpt>
      <trkpt lat="44.21643" lon="6.93291">
        <ele>1714.9643817615</ele>
        <time>2019-06-23T08:26:32Z</time>
      </trkpt>
      <trkpt lat="44.21645" lon="6.93289">
        <ele>1715.153214043</ele>
        <time>2019-06-23T08:26:36Z</time>
      </trkpt>
      <trkpt lat="44.21648" lon="6.93286">
        <ele>1715.7911518151</ele>
        <time>2019-06-23T08:26:38Z</time>
      </trkpt>
      <trkpt lat="44.2165" lon="6.93286">
        <ele>1716.1851980978</ele>
        <time>2019-06-23T08:26:39Z</time>
      </trkpt>
      <trkpt lat="44.21652" lon="6.93286">
        <ele>1715.9346039799</ele>
        <time>2019-06-23T08:26:41Z</time>
      </trkpt>
      <trkpt lat="44.21653" lon="6.93285">
        <ele>1715.7193588866</ele>
        <time>2019-06-23T08:26:55Z</time>
      </trkpt>
      <trkpt lat="44.21656" lon="6.93284">
        <ele>1715.6771772766</ele>
        <time>2019-06-23T08:27:03Z</time>
      </trkpt>
      <trkpt lat="44.21658" lon="6.93285">
        <ele>1715.4294769135</ele>
        <time>2019-06-23T08:27:04Z</time>
      </trkpt>
      <trkpt lat="44.21661" lon="6.93285">
        <ele>1714.5691256255</ele>
        <time>2019-06-23T08:27:06Z</time>
      </trkpt>
      <trkpt lat="44.21663" lon="6.93286">
        <ele>1713.6762485308</ele>
        <time>2019-06-23T08:27:09Z</time>
      </trkpt>
      <trkpt lat="44.21666" lon="6.93285">
        <ele>1713.3909536932</ele>
        <time>2019-06-23T08:27:11Z</time>
      </trkpt>
      <trkpt lat="44.21669" lon="6.93284">
        <ele>1712.9987782351</ele>
        <time>2019-06-23T08:27:13Z</time>
      </trkpt>
      <trkpt lat="44.21672" lon="6.93283">
        <ele>1713.2776665391</ele>
        <time>2019-06-23T08:27:15Z</time>
      </trkpt>
      <trkpt lat="44.21675" lon="6.9328">
        <ele>1713.7052308127</ele>
        <time>2019-06-23T08:27:17Z</time>
      </trkpt>
      <trkpt lat="44.21677" lon="6.93279">
        <ele>1714.2198921303</ele>
        <time>2019-06-23T08:27:18Z</time>
      </trkpt>
      <trkpt lat="44.21679" lon="6.93278">
        <ele>1714.7243295823</ele>
        <time>2019-06-23T08:27:20Z</time>
      </trkpt>
      <trkpt lat="44.21681" lon="6.93277">
        <ele>1715.4069447576</ele>
        <time>2019-06-23T08:27:22Z</time>
      </trkpt>
      <trkpt lat="44.21683" lon="6.93276">
        <ele>1715.7323634387</ele>
        <time>2019-06-23T08:27:24Z</time>
      </trkpt>
      <trkpt lat="44.21686" lon="6.93275">
        <ele>1716.0212401841</ele>
        <time>2019-06-23T08:27:26Z</time>
      </trkpt>
      <trkpt lat="44.21688" lon="6.93273">
        <ele>1716.2466899867</ele>
        <time>2019-06-23T08:27:28Z</time>
      </trkpt>
      <trkpt lat="44.2169" lon="6.93274">
        <ele>1716.6943521995</ele>
        <time>2019-06-23T08:27:30Z</time>
      </trkpt>
      <trkpt lat="44.21692" lon="6.93274">
        <ele>1716.1289401637</ele>
        <time>2019-06-23T08:27:33Z</time>
      </trkpt>
      <trkpt lat="44.21694" lon="6.93271">
        <ele>1716.5970553166</ele>
        <time>2019-06-23T08:27:35Z</time>
      </trkpt>
      <trkpt lat="44.21696" lon="6.93271">
        <ele>1716.9783587825</ele>
        <time>2019-06-23T08:27:37Z</time>
      </trkpt>
      <trkpt lat="44.217" lon="6.93271">
        <ele>1716.9259437899</ele>
        <time>2019-06-23T08:27:39Z</time>
      </trkpt>
      <trkpt lat="44.21702" lon="6.93271">
        <ele>1716.8961138187</ele>
        <time>2019-06-23T08:27:40Z</time>
      </trkpt>
      <trkpt lat="44.21705" lon="6.9327">
        <ele>1717.1599101586</ele>
        <time>2019-06-23T08:27:42Z</time>
      </trkpt>
      <trkpt lat="44.21707" lon="6.9327">
        <ele>1717.2987785907</ele>
        <time>2019-06-23T08:27:44Z</time>
      </trkpt>
      <trkpt lat="44.21708" lon="6.93268">
        <ele>1717.5294739157</ele>
        <time>2019-06-23T08:27:46Z</time>
      </trkpt>
      <trkpt lat="44.21712" lon="6.93269">
        <ele>1717.805766008</ele>
        <time>2019-06-23T08:27:49Z</time>
      </trkpt>
      <trkpt lat="44.21714" lon="6.9327">
        <ele>1717.5828177156</ele>
        <time>2019-06-23T08:27:51Z</time>
      </trkpt>
      <trkpt lat="44.21716" lon="6.93271">
        <ele>1717.1146910159</ele>
        <time>2019-06-23T08:27:53Z</time>
      </trkpt>
      <trkpt lat="44.21719" lon="6.93271">
        <ele>1717.1557787919</ele>
        <time>2019-06-23T08:27:55Z</time>
      </trkpt>
      <trkpt lat="44.21722" lon="6.9327">
        <ele>1717.3982843962</ele>
        <time>2019-06-23T08:27:57Z</time>
      </trkpt>
      <trkpt lat="44.21724" lon="6.9327">
        <ele>1717.3741664835</ele>
        <time>2019-06-23T08:27:59Z</time>
      </trkpt>
      <trkpt lat="44.21727" lon="6.9327">
        <ele>1716.4319340649</ele>
        <time>2019-06-23T08:28:02Z</time>
      </trkpt>
      <trkpt lat="44.21728" lon="6.9327">
        <ele>1715.7726609392</ele>
        <time>2019-06-23T08:28:04Z</time>
      </trkpt>
      <trkpt lat="44.21731" lon="6.9327">
        <ele>1715.0513934724</ele>
        <time>2019-06-23T08:28:07Z</time>
      </trkpt>
      <trkpt lat="44.21733" lon="6.93269">
        <ele>1714.6381951328</ele>
        <time>2019-06-23T08:28:09Z</time>
      </trkpt>
      <trkpt lat="44.21735" lon="6.93269">
        <ele>1714.4838062381</ele>
        <time>2019-06-23T08:28:10Z</time>
      </trkpt>
      <trkpt lat="44.21737" lon="6.93269">
        <ele>1714.1130694971</ele>
        <time>2019-06-23T08:28:11Z</time>
      </trkpt>
      <trkpt lat="44.21739" lon="6.9327">
        <ele>1712.956084711</ele>
        <time>2019-06-23T08:28:14Z</time>
      </trkpt>
      <trkpt lat="44.21741" lon="6.9327">
        <ele>1712.015181121</ele>
        <time>2019-06-23T08:28:18Z</time>
      </trkpt>
      <trkpt lat="44.21743" lon="6.9327">
        <ele>1711.656070314</ele>
        <time>2019-06-23T08:28:20Z</time>
      </trkpt>
      <trkpt lat="44.21746" lon="6.9327">
        <ele>1710.8468627509</ele>
        <time>2019-06-23T08:28:22Z</time>
      </trkpt>
      <trkpt lat="44.21749" lon="6.93268">
        <ele>1710.2638011928</ele>
        <time>2019-06-23T08:28:24Z</time>
      </trkpt>
      <trkpt lat="44.21751" lon="6.93267">
        <ele>1709.9561568832</ele>
        <time>2019-06-23T08:28:25Z</time>
      </trkpt>
      <trkpt lat="44.21753" lon="6.93267">
        <ele>1709.9449481163</ele>
        <time>2019-06-23T08:28:26Z</time>
      </trkpt>
      <trkpt lat="44.21755" lon="6.93267">
        <ele>1710.0924722591</ele>
        <time>2019-06-23T08:28:27Z</time>
      </trkpt>
      <trkpt lat="44.21756" lon="6.93266">
        <ele>1710.165671939</ele>
        <time>2019-06-23T08:28:28Z</time>
      </trkpt>
      <trkpt lat="44.21758" lon="6.93264">
        <ele>1710.5911714136</ele>
        <time>2019-06-23T08:28:30Z</time>
      </trkpt>
      <trkpt lat="44.21761" lon="6.93261">
        <ele>1711.0935135666</ele>
        <time>2019-06-23T08:28:32Z</time>
      </trkpt>
      <trkpt lat="44.21763" lon="6.9326">
        <ele>1711.8596698006</ele>
        <time>2019-06-23T08:28:34Z</time>
      </trkpt>
      <trkpt lat="44.21765" lon="6.9326">
        <ele>1712.2398754993</ele>
        <time>2019-06-23T08:28:44Z</time>
      </trkpt>
      <trkpt lat="44.21766" lon="6.93258">
        <ele>1712.5834199334</ele>
        <time>2019-06-23T08:28:58Z</time>
      </trkpt>
      <trkpt lat="44.21768" lon="6.93256">
        <ele>1713.1182601396</ele>
        <time>2019-06-23T08:29:01Z</time>
      </trkpt>
      <trkpt lat="44.21769" lon="6.93253">
        <ele>1713.6505167816</ele>
        <time>2019-06-23T08:29:04Z</time>
      </trkpt>
      <trkpt lat="44.2177" lon="6.93251">
        <ele>1714.1865349987</ele>
        <time>2019-06-23T08:29:06Z</time>
      </trkpt>
      <trkpt lat="44.2177" lon="6.93249">
        <ele>1714.9794171536</ele>
        <time>2019-06-23T08:29:08Z</time>
      </trkpt>
      <trkpt lat="44.21771" lon="6.93246">
        <ele>1715.2034800083</ele>
        <time>2019-06-23T08:29:10Z</time>
      </trkpt>
      <trkpt lat="44.21771" lon="6.93243">
        <ele>1715.428745509</ele>
        <time>2019-06-23T08:29:14Z</time>
      </trkpt>
      <trkpt lat="44.21771" lon="6.9324">
        <ele>1715.718259869</ele>
        <time>2019-06-23T08:29:18Z</time>
      </trkpt>
      <trkpt lat="44.2177" lon="6.93238">
        <ele>1715.967176962</ele>
        <time>2019-06-23T08:29:21Z</time>
      </trkpt>
      <trkpt lat="44.21772" lon="6.93233">
        <ele>1715.9698161406</ele>
        <time>2019-06-23T08:29:40Z</time>
      </trkpt>
      <trkpt lat="44.21772" lon="6.9323">
        <ele>1716.2453870143</ele>
        <time>2019-06-23T08:29:43Z</time>
      </trkpt>
      <trkpt lat="44.21772" lon="6.93227">
        <ele>1716.3514338964</ele>
        <time>2019-06-23T08:29:45Z</time>
      </trkpt>
      <trkpt lat="44.21772" lon="6.93224">
        <ele>1716.6151828166</ele>
        <time>2019-06-23T08:29:48Z</time>
      </trkpt>
      <trkpt lat="44.21773" lon="6.93222">
        <ele>1716.4436422823</ele>
        <time>2019-06-23T08:29:52Z</time>
      </trkpt>
      <trkpt lat="44.21776" lon="6.93222">
        <ele>1715.7419212653</ele>
        <time>2019-06-23T08:29:55Z</time>
      </trkpt>
      <trkpt lat="44.21778" lon="6.9322">
        <ele>1718.9343601893</ele>
        <time>2019-06-23T08:29:58Z</time>
      </trkpt>
      <trkpt lat="44.2178" lon="6.93218">
        <ele>1719.8222836033</ele>
        <time>2019-06-23T08:30:00Z</time>
      </trkpt>
      <trkpt lat="44.21782" lon="6.93215">
        <ele>1720.1395676933</ele>
        <time>2019-06-23T08:30:02Z</time>
      </trkpt>
      <trkpt lat="44.21784" lon="6.93212">
        <ele>1710.9275482908</ele>
        <time>2019-06-23T08:30:04Z</time>
      </trkpt>
      <trkpt lat="44.21786" lon="6.93209">
        <ele>1708.5292926224</ele>
        <time>2019-06-23T08:30:07Z</time>
      </trkpt>
      <trkpt lat="44.21786" lon="6.93206">
        <ele>1707.3583183626</ele>
        <time>2019-06-23T08:30:09Z</time>
      </trkpt>
      <trkpt lat="44.21788" lon="6.93205">
        <ele>1706.3236825946</ele>
        <time>2019-06-23T08:30:11Z</time>
      </trkpt>
      <trkpt lat="44.21789" lon="6.93203">
        <ele>1705.4783972721</ele>
        <time>2019-06-23T08:30:13Z</time>
      </trkpt>
      <trkpt lat="44.21789" lon="6.932">
        <ele>1704.8152251806</ele>
        <time>2019-06-23T08:30:15Z</time>
      </trkpt>
      <trkpt lat="44.2179" lon="6.93198">
        <ele>1704.3134286648</ele>
        <time>2019-06-23T08:30:17Z</time>
      </trkpt>
      <trkpt lat="44.21791" lon="6.93195">
        <ele>1703.5238992059</ele>
        <time>2019-06-23T08:30:20Z</time>
      </trkpt>
      <trkpt lat="44.21792" lon="6.93192">
        <ele>1702.8181411706</ele>
        <time>2019-06-23T08:30:23Z</time>
      </trkpt>
      <trkpt lat="44.21793" lon="6.93188">
        <ele>1702.6240413208</ele>
        <time>2019-06-23T08:30:25Z</time>
      </trkpt>
      <trkpt lat="44.21794" lon="6.93185">
        <ele>1702.4752460742</ele>
        <time>2019-06-23T08:30:27Z</time>
      </trkpt>
      <trkpt lat="44.21795" lon="6.93183">
        <ele>1702.179225651</ele>
        <time>2019-06-23T08:30:29Z</time>
      </trkpt>
      <trkpt lat="44.21796" lon="6.9318">
        <ele>1701.8029500171</ele>
        <time>2019-06-23T08:30:31Z</time>
      </trkpt>
      <trkpt lat="44.21797" lon="6.93178">
        <ele>1701.5481496631</ele>
        <time>2019-06-23T08:30:33Z</time>
      </trkpt>
      <trkpt lat="44.21798" lon="6.93176">
        <ele>1701.135591894</ele>
        <time>2019-06-23T08:30:35Z</time>
      </trkpt>
      <trkpt lat="44.218" lon="6.93174">
        <ele>1700.6897478584</ele>
        <time>2019-06-23T08:30:38Z</time>
      </trkpt>
      <trkpt lat="44.21801" lon="6.9317">
        <ele>1700.3466160302</ele>
        <time>2019-06-23T08:30:40Z</time>
      </trkpt>
      <trkpt lat="44.21802" lon="6.93168">
        <ele>1699.9873485303</ele>
        <time>2019-06-23T08:30:42Z</time>
      </trkpt>
      <trkpt lat="44.21803" lon="6.93165">
        <ele>1699.7729611776</ele>
        <time>2019-06-23T08:30:44Z</time>
      </trkpt>
      <trkpt lat="44.21804" lon="6.93163">
        <ele>1699.497301679</ele>
        <time>2019-06-23T08:30:46Z</time>
      </trkpt>
      <trkpt lat="44.21805" lon="6.9316">
        <ele>1699.2448038731</ele>
        <time>2019-06-23T08:30:48Z</time>
      </trkpt>
      <trkpt lat="44.21806" lon="6.93158">
        <ele>1698.9051634165</ele>
        <time>2019-06-23T08:30:50Z</time>
      </trkpt>
      <trkpt lat="44.21806" lon="6.93155">
        <ele>1698.3894192854</ele>
        <time>2019-06-23T08:30:53Z</time>
      </trkpt>
      <trkpt lat="44.21807" lon="6.93152">
        <ele>1698.3925400159</ele>
        <time>2019-06-23T08:30:56Z</time>
      </trkpt>
      <trkpt lat="44.21808" lon="6.93149">
        <ele>1697.5913771061</ele>
        <time>2019-06-23T08:30:58Z</time>
      </trkpt>
      <trkpt lat="44.21808" lon="6.93146">
        <ele>1697.4269970688</ele>
        <time>2019-06-23T08:31:00Z</time>
      </trkpt>
      <trkpt lat="44.21809" lon="6.93143">
        <ele>1697.1668173398</ele>
        <time>2019-06-23T08:31:03Z</time>
      </trkpt>
      <trkpt lat="44.2181" lon="6.9314">
        <ele>1696.5997604071</ele>
        <time>2019-06-23T08:31:06Z</time>
      </trkpt>
      <trkpt lat="44.2181" lon="6.93137">
        <ele>1696.3134273373</ele>
        <time>2019-06-23T08:31:08Z</time>
      </trkpt>
      <trkpt lat="44.21809" lon="6.93133">
        <ele>1695.343149937</ele>
        <time>2019-06-23T08:31:11Z</time>
      </trkpt>
      <trkpt lat="44.21809" lon="6.9313">
        <ele>1694.8100741854</ele>
        <time>2019-06-23T08:31:15Z</time>
      </trkpt>
      <trkpt lat="44.21809" lon="6.93127">
        <ele>1693.9341199726</ele>
        <time>2019-06-23T08:31:18Z</time>
      </trkpt>
      <trkpt lat="44.21811" lon="6.93124">
        <ele>1692.764153302</ele>
        <time>2019-06-23T08:31:22Z</time>
      </trkpt>
      <trkpt lat="44.21811" lon="6.93121">
        <ele>1691.6000810319</ele>
        <time>2019-06-23T08:31:24Z</time>
      </trkpt>
      <trkpt lat="44.21813" lon="6.93118">
        <ele>1690.5007882753</ele>
        <time>2019-06-23T08:31:27Z</time>
      </trkpt>
      <trkpt lat="44.21814" lon="6.93114">
        <ele>1689.2869851251</ele>
        <time>2019-06-23T08:31:30Z</time>
      </trkpt>
      <trkpt lat="44.21814" lon="6.93111">
        <ele>1688.4137932369</ele>
        <time>2019-06-23T08:31:32Z</time>
      </trkpt>
      <trkpt lat="44.21815" lon="6.93108">
        <ele>1687.9715737692</ele>
        <time>2019-06-23T08:31:34Z</time>
      </trkpt>
      <trkpt lat="44.21815" lon="6.93105">
        <ele>1687.2779527871</ele>
        <time>2019-06-23T08:31:38Z</time>
      </trkpt>
      <trkpt lat="44.21814" lon="6.93103">
        <ele>1687.271163851</ele>
        <time>2019-06-23T08:31:40Z</time>
      </trkpt>
      <trkpt lat="44.21813" lon="6.931">
        <ele>1687.4842087546</ele>
        <time>2019-06-23T08:31:42Z</time>
      </trkpt>
      <trkpt lat="44.21814" lon="6.93096">
        <ele>1687.2422913187</ele>
        <time>2019-06-23T08:31:46Z</time>
      </trkpt>
      <trkpt lat="44.21815" lon="6.93093">
        <ele>1686.5333154179</ele>
        <time>2019-06-23T08:31:50Z</time>
      </trkpt>
      <trkpt lat="44.21816" lon="6.9309">
        <ele>1685.5584499281</ele>
        <time>2019-06-23T08:31:54Z</time>
      </trkpt>
      <trkpt lat="44.21816" lon="6.93087">
        <ele>1685.0792361564</ele>
        <time>2019-06-23T08:31:56Z</time>
      </trkpt>
      <trkpt lat="44.21816" lon="6.93084">
        <ele>1684.8837213624</ele>
        <time>2019-06-23T08:31:58Z</time>
      </trkpt>
      <trkpt lat="44.21816" lon="6.93081">
        <ele>1684.8732575273</ele>
        <time>2019-06-23T08:32:02Z</time>
      </trkpt>
      <trkpt lat="44.21816" lon="6.93079">
        <ele>1684.5324777116</ele>
        <time>2019-06-23T08:32:05Z</time>
      </trkpt>
      <trkpt lat="44.21816" lon="6.93075">
        <ele>1684.5831343683</ele>
        <time>2019-06-23T08:32:08Z</time>
      </trkpt>
      <trkpt lat="44.21815" lon="6.93073">
        <ele>1684.9076434012</ele>
        <time>2019-06-23T08:32:10Z</time>
      </trkpt>
      <trkpt lat="44.21815" lon="6.9307">
        <ele>1685.3558370344</ele>
        <time>2019-06-23T08:32:15Z</time>
      </trkpt>
      <trkpt lat="44.21815" lon="6.93067">
        <ele>1685.3071099298</ele>
        <time>2019-06-23T08:32:17Z</time>
      </trkpt>
      <trkpt lat="44.21817" lon="6.93066">
        <ele>1684.1053884927</ele>
        <time>2019-06-23T08:32:20Z</time>
      </trkpt>
      <trkpt lat="44.2182" lon="6.93062">
        <ele>1683.1199875525</ele>
        <time>2019-06-23T08:32:23Z</time>
      </trkpt>
      <trkpt lat="44.21821" lon="6.93059">
        <ele>1681.9906767279</ele>
        <time>2019-06-23T08:32:25Z</time>
      </trkpt>
      <trkpt lat="44.2182" lon="6.93056">
        <ele>1682.1232904433</ele>
        <time>2019-06-23T08:32:28Z</time>
      </trkpt>
      <trkpt lat="44.2182" lon="6.93053">
        <ele>1681.9764219016</ele>
        <time>2019-06-23T08:32:32Z</time>
      </trkpt>
      <trkpt lat="44.2182" lon="6.93048">
        <ele>1681.4706124922</ele>
        <time>2019-06-23T08:32:35Z</time>
      </trkpt>
      <trkpt lat="44.2182" lon="6.93045">
        <ele>1680.7846273133</ele>
        <time>2019-06-23T08:32:37Z</time>
      </trkpt>
      <trkpt lat="44.2182" lon="6.93042">
        <ele>1680.3841273248</ele>
        <time>2019-06-23T08:32:39Z</time>
      </trkpt>
      <trkpt lat="44.21819" lon="6.93039">
        <ele>1680.2639638776</ele>
        <time>2019-06-23T08:32:41Z</time>
      </trkpt>
      <trkpt lat="44.21819" lon="6.93034">
        <ele>1679.8173688791</ele>
        <time>2019-06-23T08:32:45Z</time>
      </trkpt>
      <trkpt lat="44.21819" lon="6.93031">
        <ele>1679.6590249723</ele>
        <time>2019-06-23T08:32:48Z</time>
      </trkpt>
      <trkpt lat="44.21818" lon="6.93028">
        <ele>1679.2063914087</ele>
        <time>2019-06-23T08:32:51Z</time>
      </trkpt>
      <trkpt lat="44.21817" lon="6.93025">
        <ele>1678.9542727001</ele>
        <time>2019-06-23T08:32:53Z</time>
      </trkpt>
      <trkpt lat="44.21818" lon="6.93022">
        <ele>1678.5019079699</ele>
        <time>2019-06-23T08:32:56Z</time>
      </trkpt>
      <trkpt lat="44.21818" lon="6.9302">
        <ele>1678.1225830903</ele>
        <time>2019-06-23T08:32:58Z</time>
      </trkpt>
      <trkpt lat="44.21817" lon="6.93017">
        <ele>1677.8449336404</ele>
        <time>2019-06-23T08:33:00Z</time>
      </trkpt>
      <trkpt lat="44.21817" lon="6.93013">
        <ele>1677.6499842943</ele>
        <time>2019-06-23T08:33:02Z</time>
      </trkpt>
      <trkpt lat="44.21816" lon="6.9301">
        <ele>1677.6353126329</ele>
        <time>2019-06-23T08:33:04Z</time>
      </trkpt>
      <trkpt lat="44.21816" lon="6.93008">
        <ele>1677.3303407188</ele>
        <time>2019-06-23T08:33:07Z</time>
      </trkpt>
      <trkpt lat="44.21817" lon="6.93004">
        <ele>1676.7496565965</ele>
        <time>2019-06-23T08:33:10Z</time>
      </trkpt>
      <trkpt lat="44.21819" lon="6.93004">
        <ele>1675.7031340958</ele>
        <time>2019-06-23T08:33:18Z</time>
      </trkpt>
      <trkpt lat="44.2182" lon="6.93003">
        <ele>1676.0861551873</ele>
        <time>2019-06-23T08:33:44Z</time>
      </trkpt>
      <trkpt lat="44.21819" lon="6.92999">
        <ele>1678.1725060707</ele>
        <time>2019-06-23T08:33:50Z</time>
      </trkpt>
      <trkpt lat="44.21819" lon="6.93002">
        <ele>1674.904292463</ele>
        <time>2019-06-23T08:33:53Z</time>
      </trkpt>
      <trkpt lat="44.21819" lon="6.93007">
        <ele>1675.4548891986</ele>
        <time>2019-06-23T08:33:57Z</time>
      </trkpt>
      <trkpt lat="44.21818" lon="6.93004">
        <ele>1675.6763823413</ele>
        <time>2019-06-23T08:34:00Z</time>
      </trkpt>
      <trkpt lat="44.21816" lon="6.93005">
        <ele>1676.6566001866</ele>
        <time>2019-06-23T08:34:29Z</time>
      </trkpt>
      <trkpt lat="44.21814" lon="6.93006">
        <ele>1677.6981060249</ele>
        <time>2019-06-23T08:34:32Z</time>
      </trkpt>
      <trkpt lat="44.21812" lon="6.93007">
        <ele>1678.9072393276</ele>
        <time>2019-06-23T08:34:35Z</time>
      </trkpt>
      <trkpt lat="44.21814" lon="6.93005">
        <ele>1678.5626705053</ele>
        <time>2019-06-23T08:34:56Z</time>
      </trkpt>
      <trkpt lat="44.21816" lon="6.93007">
        <ele>1677.6420805659</ele>
        <time>2019-06-23T08:35:20Z</time>
      </trkpt>
      <trkpt lat="44.21817" lon="6.93003">
        <ele>1676.7071771601</ele>
        <time>2019-06-23T08:35:27Z</time>
      </trkpt>
      <trkpt lat="44.21816" lon="6.93006">
        <ele>1677.2445716383</ele>
        <time>2019-06-23T08:35:36Z</time>
      </trkpt>
      <trkpt lat="44.21817" lon="6.93003">
        <ele>1676.6407407832</ele>
        <time>2019-06-23T08:35:42Z</time>
      </trkpt>
      <trkpt lat="44.21815" lon="6.92997">
        <ele>1676.332986311</ele>
        <time>2019-06-23T08:35:44Z</time>
      </trkpt>
      <trkpt lat="44.21815" lon="6.92994">
        <ele>1677.0941328981</ele>
        <time>2019-06-23T08:35:48Z</time>
      </trkpt>
      <trkpt lat="44.21814" lon="6.92992">
        <ele>1677.5458954763</ele>
        <time>2019-06-23T08:35:50Z</time>
      </trkpt>
      <trkpt lat="44.21814" lon="6.92989">
        <ele>1677.6638579263</ele>
        <time>2019-06-23T08:35:52Z</time>
      </trkpt>
      <trkpt lat="44.21816" lon="6.92987">
        <ele>1676.9746165786</ele>
        <time>2019-06-23T08:35:55Z</time>
      </trkpt>
      <trkpt lat="44.21817" lon="6.92985">
        <ele>1676.0139485504</ele>
        <time>2019-06-23T08:35:59Z</time>
      </trkpt>
      <trkpt lat="44.21818" lon="6.92981">
        <ele>1675.7538391057</ele>
        <time>2019-06-23T08:36:02Z</time>
      </trkpt>
      <trkpt lat="44.21818" lon="6.92978">
        <ele>1675.216021257</ele>
        <time>2019-06-23T08:36:05Z</time>
      </trkpt>
      <trkpt lat="44.21819" lon="6.92974">
        <ele>1675.0866114302</ele>
        <time>2019-06-23T08:36:07Z</time>
      </trkpt>
      <trkpt lat="44.2182" lon="6.92972">
        <ele>1674.4568634288</ele>
        <time>2019-06-23T08:36:10Z</time>
      </trkpt>
      <trkpt lat="44.21821" lon="6.92967">
        <ele>1673.2600135043</ele>
        <time>2019-06-23T08:36:12Z</time>
      </trkpt>
      <trkpt lat="44.21819" lon="6.92965">
        <ele>1672.2048039207</ele>
        <time>2019-06-23T08:36:15Z</time>
      </trkpt>
      <trkpt lat="44.21818" lon="6.92963">
        <ele>1672.7714968155</ele>
        <time>2019-06-23T08:36:17Z</time>
      </trkpt>
      <trkpt lat="44.21816" lon="6.92961">
        <ele>1673.1825592522</ele>
        <time>2019-06-23T08:36:19Z</time>
      </trkpt>
      <trkpt lat="44.21815" lon="6.92958">
        <ele>1673.0049673111</ele>
        <time>2019-06-23T08:36:22Z</time>
      </trkpt>
      <trkpt lat="44.21815" lon="6.92955">
        <ele>1672.4805210424</ele>
        <time>2019-06-23T08:36:25Z</time>
      </trkpt>
      <trkpt lat="44.21816" lon="6.92951">
        <ele>1670.9200280903</ele>
        <time>2019-06-23T08:36:28Z</time>
      </trkpt>
      <trkpt lat="44.21818" lon="6.92949">
        <ele>1669.1813797067</ele>
        <time>2019-06-23T08:36:31Z</time>
      </trkpt>
      <trkpt lat="44.21819" lon="6.92947">
        <ele>1667.6242431006</ele>
        <time>2019-06-23T08:36:36Z</time>
      </trkpt>
      <trkpt lat="44.2182" lon="6.92943">
        <ele>1664.8274636054</ele>
        <time>2019-06-23T08:36:39Z</time>
      </trkpt>
      <trkpt lat="44.21821" lon="6.9294">
        <ele>1663.0030160609</ele>
        <time>2019-06-23T08:36:41Z</time>
      </trkpt>
      <trkpt lat="44.21822" lon="6.92938">
        <ele>1661.2821211271</ele>
        <time>2019-06-23T08:36:44Z</time>
      </trkpt>
      <trkpt lat="44.21823" lon="6.92935">
        <ele>1659.9738516622</ele>
        <time>2019-06-23T08:36:47Z</time>
      </trkpt>
      <trkpt lat="44.21824" lon="6.92932">
        <ele>1658.6496153454</ele>
        <time>2019-06-23T08:36:50Z</time>
      </trkpt>
      <trkpt lat="44.21824" lon="6.92928">
        <ele>1659.3867454024</ele>
        <time>2019-06-23T08:36:53Z</time>
      </trkpt>
      <trkpt lat="44.21823" lon="6.92924">
        <ele>1659.1409488453</ele>
        <time>2019-06-23T08:36:57Z</time>
      </trkpt>
      <trkpt lat="44.21822" lon="6.92921">
        <ele>1658.2938013799</ele>
        <time>2019-06-23T08:36:59Z</time>
      </trkpt>
      <trkpt lat="44.21822" lon="6.92917">
        <ele>1657.4583356935</ele>
        <time>2019-06-23T08:37:03Z</time>
      </trkpt>
      <trkpt lat="44.21823" lon="6.92915">
        <ele>1656.5263215788</ele>
        <time>2019-06-23T08:37:06Z</time>
      </trkpt>
      <trkpt lat="44.21823" lon="6.92912">
        <ele>1656.0242249315</ele>
        <time>2019-06-23T08:37:08Z</time>
      </trkpt>
      <trkpt lat="44.21823" lon="6.92908">
        <ele>1655.4850377052</ele>
        <time>2019-06-23T08:37:10Z</time>
      </trkpt>
      <trkpt lat="44.21823" lon="6.92905">
        <ele>1655.1272154131</ele>
        <time>2019-06-23T08:37:12Z</time>
      </trkpt>
      <trkpt lat="44.21824" lon="6.92903">
        <ele>1654.5114599409</ele>
        <time>2019-06-23T08:37:15Z</time>
      </trkpt>
      <trkpt lat="44.21824" lon="6.92899">
        <ele>1653.9753080046</ele>
        <time>2019-06-23T08:37:17Z</time>
      </trkpt>
      <trkpt lat="44.21825" lon="6.92895">
        <ele>1653.4756782728</ele>
        <time>2019-06-23T08:37:20Z</time>
      </trkpt>
      <trkpt lat="44.21826" lon="6.92891">
        <ele>1652.6675055474</ele>
        <time>2019-06-23T08:37:23Z</time>
      </trkpt>
      <trkpt lat="44.21826" lon="6.92888">
        <ele>1652.4262026116</ele>
        <time>2019-06-23T08:37:24Z</time>
      </trkpt>
      <trkpt lat="44.21828" lon="6.92885">
        <ele>1651.5304869254</ele>
        <time>2019-06-23T08:37:26Z</time>
      </trkpt>
      <trkpt lat="44.21828" lon="6.92882">
        <ele>1650.4325759111</ele>
        <time>2019-06-23T08:37:28Z</time>
      </trkpt>
      <trkpt lat="44.21828" lon="6.92879">
        <ele>1649.2594849846</ele>
        <time>2019-06-23T08:37:30Z</time>
      </trkpt>
      <trkpt lat="44.21828" lon="6.92876">
        <ele>1648.1443071763</ele>
        <time>2019-06-23T08:37:33Z</time>
      </trkpt>
      <trkpt lat="44.21828" lon="6.92873">
        <ele>1647.4910834984</ele>
        <time>2019-06-23T08:37:35Z</time>
      </trkpt>
      <trkpt lat="44.21828" lon="6.9287">
        <ele>1646.6821428144</ele>
        <time>2019-06-23T08:37:37Z</time>
      </trkpt>
      <trkpt lat="44.21828" lon="6.92867">
        <ele>1645.8748200091</ele>
        <time>2019-06-23T08:37:39Z</time>
      </trkpt>
      <trkpt lat="44.21828" lon="6.92864">
        <ele>1644.982984574</ele>
        <time>2019-06-23T08:37:41Z</time>
      </trkpt>
      <trkpt lat="44.21827" lon="6.9286">
        <ele>1644.123487341</ele>
        <time>2019-06-23T08:37:44Z</time>
      </trkpt>
      <trkpt lat="44.21828" lon="6.92856">
        <ele>1643.8057983957</ele>
        <time>2019-06-23T08:37:46Z</time>
      </trkpt>
      <trkpt lat="44.21828" lon="6.92853">
        <ele>1643.6217096411</ele>
        <time>2019-06-23T08:37:48Z</time>
      </trkpt>
      <trkpt lat="44.21828" lon="6.9285">
        <ele>1643.526671732</ele>
        <time>2019-06-23T08:37:50Z</time>
      </trkpt>
      <trkpt lat="44.21829" lon="6.92846">
        <ele>1643.4618907865</ele>
        <time>2019-06-23T08:37:52Z</time>
      </trkpt>
      <trkpt lat="44.21829" lon="6.92842">
        <ele>1643.4100906333</ele>
        <time>2019-06-23T08:37:54Z</time>
      </trkpt>
      <trkpt lat="44.21829" lon="6.92839">
        <ele>1643.4134508056</ele>
        <time>2019-06-23T08:37:56Z</time>
      </trkpt>
      <trkpt lat="44.2183" lon="6.92836">
        <ele>1643.1520436617</ele>
        <time>2019-06-23T08:37:59Z</time>
      </trkpt>
      <trkpt lat="44.21831" lon="6.92833">
        <ele>1642.8652522252</ele>
        <time>2019-06-23T08:38:02Z</time>
      </trkpt>
      <trkpt lat="44.21832" lon="6.92831">
        <ele>1642.3696094768</ele>
        <time>2019-06-23T08:38:05Z</time>
      </trkpt>
      <trkpt lat="44.21831" lon="6.92826">
        <ele>1641.2564339024</ele>
        <time>2019-06-23T08:38:08Z</time>
      </trkpt>
      <trkpt lat="44.21831" lon="6.92822">
        <ele>1640.1412576165</ele>
        <time>2019-06-23T08:38:11Z</time>
      </trkpt>
      <trkpt lat="44.2183" lon="6.92819">
        <ele>1639.2492439208</ele>
        <time>2019-06-23T08:38:13Z</time>
      </trkpt>
      <trkpt lat="44.21831" lon="6.92817">
        <ele>1638.3488821334</ele>
        <time>2019-06-23T08:38:15Z</time>
      </trkpt>
      <trkpt lat="44.21831" lon="6.92814">
        <ele>1637.5525652831</ele>
        <time>2019-06-23T08:38:17Z</time>
      </trkpt>
      <trkpt lat="44.21832" lon="6.92811">
        <ele>1636.2931837527</ele>
        <time>2019-06-23T08:38:20Z</time>
      </trkpt>
      <trkpt lat="44.21833" lon="6.92808">
        <ele>1635.4418703599</ele>
        <time>2019-06-23T08:38:22Z</time>
      </trkpt>
      <trkpt lat="44.21834" lon="6.92806">
        <ele>1634.4221206537</ele>
        <time>2019-06-23T08:38:24Z</time>
      </trkpt>
      <trkpt lat="44.21834" lon="6.92803">
        <ele>1633.9848516234</ele>
        <time>2019-06-23T08:38:26Z</time>
      </trkpt>
      <trkpt lat="44.21835" lon="6.928">
        <ele>1633.9158517568</ele>
        <time>2019-06-23T08:38:29Z</time>
      </trkpt>
      <trkpt lat="44.21836" lon="6.92804">
        <ele>1633.8797803895</ele>
        <time>2019-06-23T08:38:31Z</time>
      </trkpt>
      <trkpt lat="44.21836" lon="6.92806">
        <ele>1633.9257748224</ele>
        <time>2019-06-23T08:38:32Z</time>
      </trkpt>
      <trkpt lat="44.21836" lon="6.92811">
        <ele>1634.7027226378</ele>
        <time>2019-06-23T08:38:34Z</time>
      </trkpt>
      <trkpt lat="44.21837" lon="6.92813">
        <ele>1635.2377687543</ele>
        <time>2019-06-23T08:38:35Z</time>
      </trkpt>
      <trkpt lat="44.21838" lon="6.92816">
        <ele>1635.7956556901</ele>
        <time>2019-06-23T08:38:36Z</time>
      </trkpt>
      <trkpt lat="44.21839" lon="6.92819">
        <ele>1636.935781798</ele>
        <time>2019-06-23T08:38:38Z</time>
      </trkpt>
      <trkpt lat="44.2184" lon="6.92823">
        <ele>1637.4260441431</ele>
        <time>2019-06-23T08:38:40Z</time>
      </trkpt>
      <trkpt lat="44.21842" lon="6.92827">
        <ele>1637.9279243056</ele>
        <time>2019-06-23T08:38:42Z</time>
      </trkpt>
      <trkpt lat="44.21844" lon="6.9283">
        <ele>1638.2007252494</ele>
        <time>2019-06-23T08:38:45Z</time>
      </trkpt>
      <trkpt lat="44.21846" lon="6.92832">
        <ele>1638.2986374252</ele>
        <time>2019-06-23T08:38:47Z</time>
      </trkpt>
      <trkpt lat="44.21847" lon="6.92835">
        <ele>1638.2696568302</ele>
        <time>2019-06-23T08:38:49Z</time>
      </trkpt>
      <trkpt lat="44.21848" lon="6.92839">
        <ele>1638.1017266434</ele>
        <time>2019-06-23T08:38:51Z</time>
      </trkpt>
      <trkpt lat="44.2185" lon="6.92843">
        <ele>1637.6755905544</ele>
        <time>2019-06-23T08:38:53Z</time>
      </trkpt>
      <trkpt lat="44.21852" lon="6.92845">
        <ele>1637.0964366154</ele>
        <time>2019-06-23T08:38:55Z</time>
      </trkpt>
      <trkpt lat="44.21853" lon="6.92847">
        <ele>1636.7928628083</ele>
        <time>2019-06-23T08:38:56Z</time>
      </trkpt>
      <trkpt lat="44.21854" lon="6.9285">
        <ele>1636.2463971797</ele>
        <time>2019-06-23T08:38:58Z</time>
      </trkpt>
      <trkpt lat="44.21856" lon="6.92852">
        <ele>1635.7825829141</ele>
        <time>2019-06-23T08:39:00Z</time>
      </trkpt>
      <trkpt lat="44.21858" lon="6.92854">
        <ele>1635.3969510709</ele>
        <time>2019-06-23T08:39:01Z</time>
      </trkpt>
      <trkpt lat="44.21859" lon="6.92856">
        <ele>1634.9727677694</ele>
        <time>2019-06-23T08:39:02Z</time>
      </trkpt>
      <trkpt lat="44.21861" lon="6.92859">
        <ele>1634.2638187879</ele>
        <time>2019-06-23T08:39:04Z</time>
      </trkpt>
      <trkpt lat="44.21863" lon="6.92861">
        <ele>1633.9348451661</ele>
        <time>2019-06-23T08:39:05Z</time>
      </trkpt>
      <trkpt lat="44.21863" lon="6.92864">
        <ele>1633.4974703236</ele>
        <time>2019-06-23T08:39:07Z</time>
      </trkpt>
      <trkpt lat="44.21865" lon="6.92866">
        <ele>1633.1021041435</ele>
        <time>2019-06-23T08:39:09Z</time>
      </trkpt>
      <trkpt lat="44.21868" lon="6.92869">
        <ele>1632.5214891048</ele>
        <time>2019-06-23T08:39:11Z</time>
      </trkpt>
      <trkpt lat="44.21869" lon="6.92871">
        <ele>1631.7742596146</ele>
        <time>2019-06-23T08:39:13Z</time>
      </trkpt>
      <trkpt lat="44.21869" lon="6.92875">
        <ele>1631.7341469388</ele>
        <time>2019-06-23T08:39:15Z</time>
      </trkpt>
      <trkpt lat="44.21871" lon="6.92877">
        <ele>1631.4617792593</ele>
        <time>2019-06-23T08:39:17Z</time>
      </trkpt>
      <trkpt lat="44.21872" lon="6.92879">
        <ele>1631.1194791665</ele>
        <time>2019-06-23T08:39:19Z</time>
      </trkpt>
      <trkpt lat="44.21873" lon="6.92882">
        <ele>1630.8053188609</ele>
        <time>2019-06-23T08:39:21Z</time>
      </trkpt>
      <trkpt lat="44.21874" lon="6.92885">
        <ele>1630.5214875606</ele>
        <time>2019-06-23T08:39:23Z</time>
      </trkpt>
      <trkpt lat="44.21875" lon="6.92887">
        <ele>1630.2991008129</ele>
        <time>2019-06-23T08:39:24Z</time>
      </trkpt>
      <trkpt lat="44.21876" lon="6.9289">
        <ele>1629.6274666398</ele>
        <time>2019-06-23T08:39:26Z</time>
      </trkpt>
      <trkpt lat="44.21877" lon="6.92894">
        <ele>1630.4644563528</ele>
        <time>2019-06-23T08:39:28Z</time>
      </trkpt>
      <trkpt lat="44.21877" lon="6.92898">
        <ele>1631.1785220507</ele>
        <time>2019-06-23T08:39:30Z</time>
      </trkpt>
      <trkpt lat="44.21879" lon="6.92901">
        <ele>1632.0602165698</ele>
        <time>2019-06-23T08:39:33Z</time>
      </trkpt>
      <trkpt lat="44.21881" lon="6.92904">
        <ele>1632.3949776998</ele>
        <time>2019-06-23T08:39:35Z</time>
      </trkpt>
      <trkpt lat="44.21882" lon="6.92907">
        <ele>1633.0672498716</ele>
        <time>2019-06-23T08:39:37Z</time>
      </trkpt>
      <trkpt lat="44.21883" lon="6.9291">
        <ele>1633.3965202007</ele>
        <time>2019-06-23T08:39:39Z</time>
      </trkpt>
      <trkpt lat="44.21883" lon="6.92913">
        <ele>1634.2232931286</ele>
        <time>2019-06-23T08:39:41Z</time>
      </trkpt>
      <trkpt lat="44.21885" lon="6.92915">
        <ele>1634.7225185431</ele>
        <time>2019-06-23T08:39:44Z</time>
      </trkpt>
      <trkpt lat="44.21887" lon="6.92915">
        <ele>1634.3320462761</ele>
        <time>2019-06-23T08:39:46Z</time>
      </trkpt>
      <trkpt lat="44.21888" lon="6.92918">
        <ele>1634.2423273445</ele>
        <time>2019-06-23T08:39:48Z</time>
      </trkpt>
      <trkpt lat="44.2189" lon="6.9292">
        <ele>1633.9230463661</ele>
        <time>2019-06-23T08:39:50Z</time>
      </trkpt>
      <trkpt lat="44.21892" lon="6.92921">
        <ele>1633.3769751383</ele>
        <time>2019-06-23T08:39:52Z</time>
      </trkpt>
      <trkpt lat="44.21894" lon="6.92924">
        <ele>1632.7254853733</ele>
        <time>2019-06-23T08:39:54Z</time>
      </trkpt>
      <trkpt lat="44.21897" lon="6.92926">
        <ele>1632.173993669</ele>
        <time>2019-06-23T08:39:56Z</time>
      </trkpt>
      <trkpt lat="44.219" lon="6.92927">
        <ele>1631.4937204512</ele>
        <time>2019-06-23T08:39:58Z</time>
      </trkpt>
      <trkpt lat="44.21901" lon="6.92928">
        <ele>1630.9538802544</ele>
        <time>2019-06-23T08:39:59Z</time>
      </trkpt>
      <trkpt lat="44.21905" lon="6.92926">
        <ele>1630.0039021296</ele>
        <time>2019-06-23T08:40:01Z</time>
      </trkpt>
      <trkpt lat="44.21906" lon="6.92926">
        <ele>1629.491153305</ele>
        <time>2019-06-23T08:40:02Z</time>
      </trkpt>
      <trkpt lat="44.21909" lon="6.92925">
        <ele>1628.9571391647</ele>
        <time>2019-06-23T08:40:03Z</time>
      </trkpt>
      <trkpt lat="44.21911" lon="6.92927">
        <ele>1628.2618065984</ele>
        <time>2019-06-23T08:40:04Z</time>
      </trkpt>
      <trkpt lat="44.21914" lon="6.92926">
        <ele>1627.3027003872</ele>
        <time>2019-06-23T08:40:06Z</time>
      </trkpt>
      <trkpt lat="44.21917" lon="6.92924">
        <ele>1626.3650282704</ele>
        <time>2019-06-23T08:40:08Z</time>
      </trkpt>
      <trkpt lat="44.21919" lon="6.92923">
        <ele>1625.884953307</ele>
        <time>2019-06-23T08:40:10Z</time>
      </trkpt>
      <trkpt lat="44.21921" lon="6.92923">
        <ele>1625.8805889891</ele>
        <time>2019-06-23T08:40:11Z</time>
      </trkpt>
      <trkpt lat="44.21923" lon="6.92922">
        <ele>1625.8801525574</ele>
        <time>2019-06-23T08:40:12Z</time>
      </trkpt>
      <trkpt lat="44.21926" lon="6.9292">
        <ele>1625.8801045499</ele>
        <time>2019-06-23T08:40:14Z</time>
      </trkpt>
      <trkpt lat="44.21928" lon="6.9292">
        <ele>1625.8801040698</ele>
        <time>2019-06-23T08:40:16Z</time>
      </trkpt>
      <trkpt lat="44.21931" lon="6.9292">
        <ele>1625.880104065</ele>
        <time>2019-06-23T08:40:18Z</time>
      </trkpt>
      <trkpt lat="44.21934" lon="6.92919">
        <ele>1625.8801040649</ele>
        <time>2019-06-23T08:40:20Z</time>
      </trkpt>
      <trkpt lat="44.21937" lon="6.92919">
        <ele>1625.8801040649</ele>
        <time>2019-06-23T08:40:22Z</time>
      </trkpt>
      <trkpt lat="44.2194" lon="6.92919">
        <ele>1625.8801040649</ele>
        <time>2019-06-23T08:40:24Z</time>
      </trkpt>
      <trkpt lat="44.21942" lon="6.92919">
        <ele>1625.8801040649</ele>
        <time>2019-06-23T08:40:26Z</time>
      </trkpt>
      <trkpt lat="44.21944" lon="6.92919">
        <ele>1625.8801040649</ele>
        <time>2019-06-23T08:40:28Z</time>
      </trkpt>
      <trkpt lat="44.21947" lon="6.92917">
        <ele>1625.5456802368</ele>
        <time>2019-06-23T08:40:30Z</time>
      </trkpt>
      <trkpt lat="44.21949" lon="6.92916">
        <ele>1624.8229841919</ele>
        <time>2019-06-23T08:40:32Z</time>
      </trkpt>
      <trkpt lat="44.21952" lon="6.92916">
        <ele>1623.9636531462</ele>
        <time>2019-06-23T08:40:35Z</time>
      </trkpt>
      <trkpt lat="44.21955" lon="6.92916">
        <ele>1623.247566753</ele>
        <time>2019-06-23T08:40:37Z</time>
      </trkpt>
      <trkpt lat="44.21957" lon="6.92917">
        <ele>1622.5519146782</ele>
        <time>2019-06-23T08:40:39Z</time>
      </trkpt>
      <trkpt lat="44.21959" lon="6.92916">
        <ele>1621.9145626496</ele>
        <time>2019-06-23T08:40:41Z</time>
      </trkpt>
      <trkpt lat="44.21962" lon="6.92915">
        <ele>1621.1844098324</ele>
        <time>2019-06-23T08:40:43Z</time>
      </trkpt>
      <trkpt lat="44.21964" lon="6.92914">
        <ele>1620.4934400914</ele>
        <time>2019-06-23T08:40:45Z</time>
      </trkpt>
      <trkpt lat="44.21967" lon="6.92913">
        <ele>1619.7328023666</ele>
        <time>2019-06-23T08:40:47Z</time>
      </trkpt>
      <trkpt lat="44.2197" lon="6.92913">
        <ele>1619.0310797784</ele>
        <time>2019-06-23T08:40:49Z</time>
      </trkpt>
      <trkpt lat="44.21972" lon="6.92911">
        <ele>1618.1643604041</ele>
        <time>2019-06-23T08:40:51Z</time>
      </trkpt>
      <trkpt lat="44.21974" lon="6.92908">
        <ele>1617.4907669834</ele>
        <time>2019-06-23T08:40:54Z</time>
      </trkpt>
      <trkpt lat="44.21976" lon="6.92907">
        <ele>1617.0061154793</ele>
        <time>2019-06-23T08:40:56Z</time>
      </trkpt>
      <trkpt lat="44.21978" lon="6.92904">
        <ele>1616.3612274603</ele>
        <time>2019-06-23T08:40:58Z</time>
      </trkpt>
      <trkpt lat="44.2198" lon="6.92903">
        <ele>1615.8435627598</ele>
        <time>2019-06-23T08:41:00Z</time>
      </trkpt>
      <trkpt lat="44.21982" lon="6.92901">
        <ele>1615.3362340132</ele>
        <time>2019-06-23T08:41:02Z</time>
      </trkpt>
      <trkpt lat="44.21984" lon="6.92898">
        <ele>1614.7738243</ele>
        <time>2019-06-23T08:41:04Z</time>
      </trkpt>
      <trkpt lat="44.21986" lon="6.92896">
        <ele>1613.9687027412</ele>
        <time>2019-06-23T08:41:07Z</time>
      </trkpt>
      <trkpt lat="44.21986" lon="6.92891">
        <ele>1613.6212183232</ele>
        <time>2019-06-23T08:41:09Z</time>
      </trkpt>
      <trkpt lat="44.21986" lon="6.92887">
        <ele>1613.8963457739</ele>
        <time>2019-06-23T08:41:11Z</time>
      </trkpt>
      <trkpt lat="44.21985" lon="6.92884">
        <ele>1613.878652064</ele>
        <time>2019-06-23T08:41:12Z</time>
      </trkpt>
      <trkpt lat="44.21985" lon="6.92881">
        <ele>1614.0365568301</ele>
        <time>2019-06-23T08:41:14Z</time>
      </trkpt>
      <trkpt lat="44.21985" lon="6.92876">
        <ele>1613.9774364149</ele>
        <time>2019-06-23T08:41:16Z</time>
      </trkpt>
      <trkpt lat="44.21985" lon="6.92873">
        <ele>1614.0779523884</ele>
        <time>2019-06-23T08:41:18Z</time>
      </trkpt>
      <trkpt lat="44.21984" lon="6.92871">
        <ele>1614.2500036908</ele>
        <time>2019-06-23T08:41:20Z</time>
      </trkpt>
      <trkpt lat="44.21983" lon="6.92868">
        <ele>1614.4953240573</ele>
        <time>2019-06-23T08:41:22Z</time>
      </trkpt>
      <trkpt lat="44.21982" lon="6.92864">
        <ele>1614.5684632961</ele>
        <time>2019-06-23T08:41:24Z</time>
      </trkpt>
      <trkpt lat="44.21981" lon="6.9286">
        <ele>1615.0765465746</ele>
        <time>2019-06-23T08:41:27Z</time>
      </trkpt>
      <trkpt lat="44.2198" lon="6.92858">
        <ele>1615.3405609217</ele>
        <time>2019-06-23T08:41:29Z</time>
      </trkpt>
      <trkpt lat="44.21979" lon="6.92855">
        <ele>1615.6966092683</ele>
        <time>2019-06-23T08:41:31Z</time>
      </trkpt>
      <trkpt lat="44.21977" lon="6.92852">
        <ele>1615.9893848396</ele>
        <time>2019-06-23T08:41:33Z</time>
      </trkpt>
      <trkpt lat="44.21976" lon="6.92849">
        <ele>1616.5175469703</ele>
        <time>2019-06-23T08:41:35Z</time>
      </trkpt>
      <trkpt lat="44.21975" lon="6.92845">
        <ele>1616.8972690957</ele>
        <time>2019-06-23T08:41:38Z</time>
      </trkpt>
      <trkpt lat="44.21973" lon="6.92842">
        <ele>1617.1966599926</ele>
        <time>2019-06-23T08:41:40Z</time>
      </trkpt>
      <trkpt lat="44.21972" lon="6.92839">
        <ele>1617.7134734816</ele>
        <time>2019-06-23T08:41:42Z</time>
      </trkpt>
      <trkpt lat="44.21971" lon="6.92836">
        <ele>1618.0827614896</ele>
        <time>2019-06-23T08:41:44Z</time>
      </trkpt>
      <trkpt lat="44.21969" lon="6.92833">
        <ele>1618.4401921626</ele>
        <time>2019-06-23T08:41:46Z</time>
      </trkpt>
      <trkpt lat="44.21969" lon="6.9283">
        <ele>1618.6541107076</ele>
        <time>2019-06-23T08:41:48Z</time>
      </trkpt>
      <trkpt lat="44.21968" lon="6.92828">
        <ele>1618.9445886429</ele>
        <time>2019-06-23T08:41:51Z</time>
      </trkpt>
      <trkpt lat="44.21966" lon="6.92824">
        <ele>1619.2825079439</ele>
        <time>2019-06-23T08:41:53Z</time>
      </trkpt>
      <trkpt lat="44.21964" lon="6.92823">
        <ele>1620.0891906065</ele>
        <time>2019-06-23T08:42:03Z</time>
      </trkpt>
      <trkpt lat="44.21963" lon="6.92818">
        <ele>1620.2708655986</ele>
        <time>2019-06-23T08:42:07Z</time>
      </trkpt>
      <trkpt lat="44.21964" lon="6.92816">
        <ele>1620.3038542096</ele>
        <time>2019-06-23T08:42:09Z</time>
      </trkpt>
      <trkpt lat="44.21965" lon="6.92814">
        <ele>1620.0654401992</ele>
        <time>2019-06-23T08:42:11Z</time>
      </trkpt>
      <trkpt lat="44.21965" lon="6.92811">
        <ele>1619.9182123091</ele>
        <time>2019-06-23T08:42:13Z</time>
      </trkpt>
      <trkpt lat="44.21965" lon="6.92807">
        <ele>1619.860182413</ele>
        <time>2019-06-23T08:42:15Z</time>
      </trkpt>
      <trkpt lat="44.21967" lon="6.92805">
        <ele>1619.54879032</ele>
        <time>2019-06-23T08:42:18Z</time>
      </trkpt>
      <trkpt lat="44.21968" lon="6.92802">
        <ele>1619.6716027073</ele>
        <time>2019-06-23T08:42:21Z</time>
      </trkpt>
      <trkpt lat="44.2197" lon="6.92801">
        <ele>1619.9677443932</ele>
        <time>2019-06-23T08:42:23Z</time>
      </trkpt>
      <trkpt lat="44.21971" lon="6.92798">
        <ele>1619.8998000483</ele>
        <time>2019-06-23T08:42:25Z</time>
      </trkpt>
      <trkpt lat="44.21972" lon="6.92796">
        <ele>1620.4784626459</ele>
        <time>2019-06-23T08:42:27Z</time>
      </trkpt>
      <trkpt lat="44.21973" lon="6.92792">
        <ele>1621.0094506879</ele>
        <time>2019-06-23T08:42:29Z</time>
      </trkpt>
      <trkpt lat="44.21973" lon="6.9279">
        <ele>1621.6924851777</ele>
        <time>2019-06-23T08:42:31Z</time>
      </trkpt>
      <trkpt lat="44.21975" lon="6.92788">
        <ele>1621.656875337</ele>
        <time>2019-06-23T08:42:33Z</time>
      </trkpt>
      <trkpt lat="44.21976" lon="6.92784">
        <ele>1622.2781242444</ele>
        <time>2019-06-23T08:42:36Z</time>
      </trkpt>
      <trkpt lat="44.21977" lon="6.9278">
        <ele>1622.2347898331</ele>
        <time>2019-06-23T08:42:38Z</time>
      </trkpt>
      <trkpt lat="44.21977" lon="6.92776">
        <ele>1622.7835850047</ele>
        <time>2019-06-23T08:42:40Z</time>
      </trkpt>
      <trkpt lat="44.21978" lon="6.92773">
        <ele>1622.8116059154</ele>
        <time>2019-06-23T08:42:42Z</time>
      </trkpt>
      <trkpt lat="44.21979" lon="6.9277">
        <ele>1622.6556495522</ele>
        <time>2019-06-23T08:42:44Z</time>
      </trkpt>
      <trkpt lat="44.2198" lon="6.92767">
        <ele>1622.3217807335</ele>
        <time>2019-06-23T08:42:47Z</time>
      </trkpt>
      <trkpt lat="44.21981" lon="6.92765">
        <ele>1621.9942303043</ele>
        <time>2019-06-23T08:42:49Z</time>
      </trkpt>
      <trkpt lat="44.21982" lon="6.92762">
        <ele>1622.1017299465</ele>
        <time>2019-06-23T08:42:51Z</time>
      </trkpt>
      <trkpt lat="44.21981" lon="6.92759">
        <ele>1622.31849781</ele>
        <time>2019-06-23T08:42:54Z</time>
      </trkpt>
      <trkpt lat="44.21981" lon="6.92755">
        <ele>1622.528572475</ele>
        <time>2019-06-23T08:42:56Z</time>
      </trkpt>
      <trkpt lat="44.21981" lon="6.92752">
        <ele>1622.8921659855</ele>
        <time>2019-06-23T08:42:59Z</time>
      </trkpt>
      <trkpt lat="44.21982" lon="6.92749">
        <ele>1623.0530607069</ele>
        <time>2019-06-23T08:43:02Z</time>
      </trkpt>
      <trkpt lat="44.21982" lon="6.92746">
        <ele>1623.0598231333</ele>
        <time>2019-06-23T08:43:04Z</time>
      </trkpt>
      <trkpt lat="44.21982" lon="6.92744">
        <ele>1622.9094659529</ele>
        <time>2019-06-23T08:43:06Z</time>
      </trkpt>
      <trkpt lat="44.21982" lon="6.92741">
        <ele>1622.801194462</ele>
        <time>2019-06-23T08:43:09Z</time>
      </trkpt>
      <trkpt lat="44.21982" lon="6.92738">
        <ele>1622.946864877</ele>
        <time>2019-06-23T08:43:12Z</time>
      </trkpt>
      <trkpt lat="44.2198" lon="6.92736">
        <ele>1623.0463246516</ele>
        <time>2019-06-23T08:43:14Z</time>
      </trkpt>
      <trkpt lat="44.2198" lon="6.92733">
        <ele>1623.5031714361</ele>
        <time>2019-06-23T08:43:15Z</time>
      </trkpt>
      <trkpt lat="44.21979" lon="6.92731">
        <ele>1623.7872356176</ele>
        <time>2019-06-23T08:43:17Z</time>
      </trkpt>
      <trkpt lat="44.21978" lon="6.92728">
        <ele>1624.1370464742</ele>
        <time>2019-06-23T08:43:19Z</time>
      </trkpt>
      <trkpt lat="44.21978" lon="6.92725">
        <ele>1624.0970894009</ele>
        <time>2019-06-23T08:43:22Z</time>
      </trkpt>
      <trkpt lat="44.21978" lon="6.92721">
        <ele>1624.2046297661</ele>
        <time>2019-06-23T08:43:25Z</time>
      </trkpt>
      <trkpt lat="44.21977" lon="6.92717">
        <ele>1624.4943759333</ele>
        <time>2019-06-23T08:43:27Z</time>
      </trkpt>
      <trkpt lat="44.21977" lon="6.92714">
        <ele>1624.8288407778</ele>
        <time>2019-06-23T08:43:29Z</time>
      </trkpt>
      <trkpt lat="44.21976" lon="6.9271">
        <ele>1625.0750601821</ele>
        <time>2019-06-23T08:43:31Z</time>
      </trkpt>
      <trkpt lat="44.21977" lon="6.92708">
        <ele>1625.2364505988</ele>
        <time>2019-06-23T08:43:33Z</time>
      </trkpt>
      <trkpt lat="44.21976" lon="6.92706">
        <ele>1625.2763958018</ele>
        <time>2019-06-23T08:43:35Z</time>
      </trkpt>
      <trkpt lat="44.21976" lon="6.92705">
        <ele>1625.414008141</ele>
        <time>2019-06-23T08:43:36Z</time>
      </trkpt>
      <trkpt lat="44.21977" lon="6.92702">
        <ele>1625.5078735256</ele>
        <time>2019-06-23T08:43:38Z</time>
      </trkpt>
      <trkpt lat="44.21977" lon="6.92699">
        <ele>1625.5797948455</ele>
        <time>2019-06-23T08:43:40Z</time>
      </trkpt>
      <trkpt lat="44.21979" lon="6.92698">
        <ele>1625.6835328575</ele>
        <time>2019-06-23T08:43:42Z</time>
      </trkpt>
      <trkpt lat="44.2198" lon="6.92695">
        <ele>1625.7461815658</ele>
        <time>2019-06-23T08:43:44Z</time>
      </trkpt>
      <trkpt lat="44.21982" lon="6.92693">
        <ele>1625.9832759144</ele>
        <time>2019-06-23T08:43:48Z</time>
      </trkpt>
      <trkpt lat="44.21983" lon="6.92691">
        <ele>1626.0656553569</ele>
        <time>2019-06-23T08:43:51Z</time>
      </trkpt>
      <trkpt lat="44.21985" lon="6.9269">
        <ele>1626.3330164229</ele>
        <time>2019-06-23T08:43:54Z</time>
      </trkpt>
      <trkpt lat="44.21989" lon="6.92689">
        <ele>1626.7179461768</ele>
        <time>2019-06-23T08:43:56Z</time>
      </trkpt>
      <trkpt lat="44.21991" lon="6.92687">
        <ele>1626.9898948396</ele>
        <time>2019-06-23T08:43:58Z</time>
      </trkpt>
      <trkpt lat="44.21993" lon="6.92687">
        <ele>1627.376212959</ele>
        <time>2019-06-23T08:44:00Z</time>
      </trkpt>
      <trkpt lat="44.21995" lon="6.92685">
        <ele>1627.8310099781</ele>
        <time>2019-06-23T08:44:02Z</time>
      </trkpt>
      <trkpt lat="44.21997" lon="6.92684">
        <ele>1628.4013758194</ele>
        <time>2019-06-23T08:44:04Z</time>
      </trkpt>
      <trkpt lat="44.22" lon="6.92683">
        <ele>1628.8867974954</ele>
        <time>2019-06-23T08:44:06Z</time>
      </trkpt>
      <trkpt lat="44.22002" lon="6.92682">
        <ele>1629.1748640543</ele>
        <time>2019-06-23T08:44:09Z</time>
      </trkpt>
      <trkpt lat="44.22003" lon="6.9268">
        <ele>1629.0925426238</ele>
        <time>2019-06-23T08:44:12Z</time>
      </trkpt>
      <trkpt lat="44.22005" lon="6.92678">
        <ele>1629.2461835287</ele>
        <time>2019-06-23T08:44:14Z</time>
      </trkpt>
      <trkpt lat="44.22007" lon="6.92677">
        <ele>1628.7689467443</ele>
        <time>2019-06-23T08:44:16Z</time>
      </trkpt>
      <trkpt lat="44.22009" lon="6.92675">
        <ele>1628.8990425406</ele>
        <time>2019-06-23T08:44:18Z</time>
      </trkpt>
      <trkpt lat="44.22011" lon="6.92673">
        <ele>1628.9520757622</ele>
        <time>2019-06-23T08:44:21Z</time>
      </trkpt>
      <trkpt lat="44.22013" lon="6.92672">
        <ele>1628.6227246206</ele>
        <time>2019-06-23T08:44:24Z</time>
      </trkpt>
      <trkpt lat="44.22015" lon="6.92672">
        <ele>1628.2087814912</ele>
        <time>2019-06-23T08:44:26Z</time>
      </trkpt>
      <trkpt lat="44.22018" lon="6.92671">
        <ele>1627.8330734564</ele>
        <time>2019-06-23T08:44:28Z</time>
      </trkpt>
      <trkpt lat="44.22021" lon="6.9267">
        <ele>1627.1408581241</ele>
        <time>2019-06-23T08:44:30Z</time>
      </trkpt>
      <trkpt lat="44.22024" lon="6.92669">
        <ele>1626.5753031583</ele>
        <time>2019-06-23T08:44:32Z</time>
      </trkpt>
      <trkpt lat="44.22026" lon="6.92668">
        <ele>1626.2690396985</ele>
        <time>2019-06-23T08:44:34Z</time>
      </trkpt>
      <trkpt lat="44.22027" lon="6.92666">
        <ele>1626.226305433</ele>
        <time>2019-06-23T08:44:36Z</time>
      </trkpt>
      <trkpt lat="44.2203" lon="6.92664">
        <ele>1626.490308022</ele>
        <time>2019-06-23T08:44:38Z</time>
      </trkpt>
      <trkpt lat="44.22032" lon="6.92662">
        <ele>1627.7446533701</ele>
        <time>2019-06-23T08:44:40Z</time>
      </trkpt>
      <trkpt lat="44.22034" lon="6.92661">
        <ele>1628.7398909154</ele>
        <time>2019-06-23T08:44:42Z</time>
      </trkpt>
      <trkpt lat="44.22036" lon="6.92661">
        <ele>1629.1700703416</ele>
        <time>2019-06-23T08:44:44Z</time>
      </trkpt>
      <trkpt lat="44.22038" lon="6.9266">
        <ele>1629.7471113937</ele>
        <time>2019-06-23T08:44:46Z</time>
      </trkpt>
      <trkpt lat="44.22041" lon="6.9266">
        <ele>1630.4893277617</ele>
        <time>2019-06-23T08:44:49Z</time>
      </trkpt>
      <trkpt lat="44.22043" lon="6.92659">
        <ele>1631.0066259894</ele>
        <time>2019-06-23T08:44:51Z</time>
      </trkpt>
      <trkpt lat="44.22045" lon="6.92658">
        <ele>1631.6217159639</ele>
        <time>2019-06-23T08:44:53Z</time>
      </trkpt>
      <trkpt lat="44.22048" lon="6.92656">
        <ele>1632.2059015316</ele>
        <time>2019-06-23T08:44:55Z</time>
      </trkpt>
      <trkpt lat="44.22049" lon="6.92655">
        <ele>1632.7062929478</ele>
        <time>2019-06-23T08:44:57Z</time>
      </trkpt>
      <trkpt lat="44.22052" lon="6.92653">
        <ele>1633.2012980827</ele>
        <time>2019-06-23T08:44:59Z</time>
      </trkpt>
      <trkpt lat="44.22054" lon="6.92652">
        <ele>1633.6061175188</ele>
        <time>2019-06-23T08:45:01Z</time>
      </trkpt>
      <trkpt lat="44.22056" lon="6.92652">
        <ele>1633.8688058499</ele>
        <time>2019-06-23T08:45:03Z</time>
      </trkpt>
      <trkpt lat="44.22057" lon="6.9265">
        <ele>1633.9826512384</ele>
        <time>2019-06-23T08:45:06Z</time>
      </trkpt>
      <trkpt lat="44.2206" lon="6.92649">
        <ele>1633.9827640582</ele>
        <time>2019-06-23T08:45:08Z</time>
      </trkpt>
      <trkpt lat="44.22061" lon="6.92647">
        <ele>1633.9827651966</ele>
        <time>2019-06-23T08:45:11Z</time>
      </trkpt>
      <trkpt lat="44.22063" lon="6.92649">
        <ele>1633.9827651977</ele>
        <time>2019-06-23T08:45:13Z</time>
      </trkpt>
      <trkpt lat="44.22064" lon="6.92653">
        <ele>1633.9827651978</ele>
        <time>2019-06-23T08:45:18Z</time>
      </trkpt>
      <trkpt lat="44.22067" lon="6.92656">
        <ele>1633.9827651978</ele>
        <time>2019-06-23T08:45:21Z</time>
      </trkpt>
      <trkpt lat="44.22069" lon="6.92658">
        <ele>1633.9827651978</ele>
        <time>2019-06-23T08:45:24Z</time>
      </trkpt>
      <trkpt lat="44.22071" lon="6.9266">
        <ele>1633.9827651978</ele>
        <time>2019-06-23T08:45:26Z</time>
      </trkpt>
      <trkpt lat="44.22073" lon="6.92662">
        <ele>1633.9827651978</ele>
        <time>2019-06-23T08:45:28Z</time>
      </trkpt>
      <trkpt lat="44.22074" lon="6.92664">
        <ele>1633.9827651978</ele>
        <time>2019-06-23T08:45:30Z</time>
      </trkpt>
      <trkpt lat="44.22075" lon="6.92667">
        <ele>1633.9827651978</ele>
        <time>2019-06-23T08:45:32Z</time>
      </trkpt>
      <trkpt lat="44.22077" lon="6.9267">
        <ele>1633.935161438</ele>
        <time>2019-06-23T08:45:34Z</time>
      </trkpt>
      <trkpt lat="44.22079" lon="6.92671">
        <ele>1633.787518009</ele>
        <time>2019-06-23T08:45:37Z</time>
      </trkpt>
      <trkpt lat="44.22081" lon="6.92672">
        <ele>1633.7882883118</ele>
        <time>2019-06-23T08:45:39Z</time>
      </trkpt>
      <trkpt lat="44.22083" lon="6.92675">
        <ele>1633.8479508478</ele>
        <time>2019-06-23T08:45:42Z</time>
      </trkpt>
      <trkpt lat="44.22084" lon="6.92678">
        <ele>1633.9478977671</ele>
        <time>2019-06-23T08:45:44Z</time>
      </trkpt>
      <trkpt lat="44.22087" lon="6.9268">
        <ele>1633.9827303303</ele>
        <time>2019-06-23T08:45:47Z</time>
      </trkpt>
      <trkpt lat="44.22089" lon="6.92682">
        <ele>1633.9827651629</ele>
        <time>2019-06-23T08:45:50Z</time>
      </trkpt>
      <trkpt lat="44.22091" lon="6.92683">
        <ele>1633.9827651974</ele>
        <time>2019-06-23T08:45:52Z</time>
      </trkpt>
      <trkpt lat="44.22093" lon="6.92685">
        <ele>1633.9827651978</ele>
        <time>2019-06-23T08:45:54Z</time>
      </trkpt>
      <trkpt lat="44.22095" lon="6.92688">
        <ele>1633.9827651978</ele>
        <time>2019-06-23T08:45:56Z</time>
      </trkpt>
      <trkpt lat="44.22098" lon="6.9269">
        <ele>1633.9827651978</ele>
        <time>2019-06-23T08:45:58Z</time>
      </trkpt>
      <trkpt lat="44.22099" lon="6.92692">
        <ele>1633.9827651978</ele>
        <time>2019-06-23T08:46:00Z</time>
      </trkpt>
      <trkpt lat="44.22101" lon="6.92693">
        <ele>1633.9827651978</ele>
        <time>2019-06-23T08:46:02Z</time>
      </trkpt>
      <trkpt lat="44.22103" lon="6.92695">
        <ele>1633.9827651978</ele>
        <time>2019-06-23T08:46:05Z</time>
      </trkpt>
      <trkpt lat="44.22105" lon="6.92695">
        <ele>1633.9827651978</ele>
        <time>2019-06-23T08:46:07Z</time>
      </trkpt>
      <trkpt lat="44.22106" lon="6.92697">
        <ele>1633.9827651978</ele>
        <time>2019-06-23T08:46:08Z</time>
      </trkpt>
      <trkpt lat="44.22108" lon="6.92701">
        <ele>1633.9827651978</ele>
        <time>2019-06-23T08:46:10Z</time>
      </trkpt>
      <trkpt lat="44.2211" lon="6.92704">
        <ele>1633.9827651978</ele>
        <time>2019-06-23T08:46:12Z</time>
      </trkpt>
      <trkpt lat="44.22111" lon="6.92706">
        <ele>1633.9827651978</ele>
        <time>2019-06-23T08:46:14Z</time>
      </trkpt>
      <trkpt lat="44.22114" lon="6.92708">
        <ele>1634.1905935669</ele>
        <time>2019-06-23T08:46:16Z</time>
      </trkpt>
      <trkpt lat="44.22115" lon="6.92709">
        <ele>1634.4863144287</ele>
        <time>2019-06-23T08:46:18Z</time>
      </trkpt>
      <trkpt lat="44.22117" lon="6.92713">
        <ele>1634.5801615299</ele>
        <time>2019-06-23T08:46:20Z</time>
      </trkpt>
      <trkpt lat="44.2212" lon="6.92712">
        <ele>1634.7273500009</ele>
        <time>2019-06-23T08:46:22Z</time>
      </trkpt>
      <trkpt lat="44.22122" lon="6.92713">
        <ele>1634.9675108505</ele>
        <time>2019-06-23T08:46:24Z</time>
      </trkpt>
      <trkpt lat="44.22124" lon="6.92717">
        <ele>1635.0278433672</ele>
        <time>2019-06-23T08:46:26Z</time>
      </trkpt>
      <trkpt lat="44.22127" lon="6.92719">
        <ele>1634.6626459111</ele>
        <time>2019-06-23T08:46:28Z</time>
      </trkpt>
      <trkpt lat="44.22129" lon="6.92722">
        <ele>1634.3510801182</ele>
        <time>2019-06-23T08:46:30Z</time>
      </trkpt>
      <trkpt lat="44.22132" lon="6.92723">
        <ele>1633.9843848554</ele>
        <time>2019-06-23T08:46:33Z</time>
      </trkpt>
      <trkpt lat="44.22134" lon="6.92726">
        <ele>1633.9827813943</ele>
        <time>2019-06-23T08:46:35Z</time>
      </trkpt>
      <trkpt lat="44.22136" lon="6.92728">
        <ele>1633.9827653597</ele>
        <time>2019-06-23T08:46:37Z</time>
      </trkpt>
      <trkpt lat="44.22137" lon="6.9273">
        <ele>1633.9827651994</ele>
        <time>2019-06-23T08:46:39Z</time>
      </trkpt>
      <trkpt lat="44.22139" lon="6.92732">
        <ele>1633.9827651978</ele>
        <time>2019-06-23T08:46:42Z</time>
      </trkpt>
      <trkpt lat="44.2214" lon="6.92735">
        <ele>1634.0925186157</ele>
        <time>2019-06-23T08:46:44Z</time>
      </trkpt>
      <trkpt lat="44.22143" lon="6.92737">
        <ele>1634.3160014038</ele>
        <time>2019-06-23T08:46:46Z</time>
      </trkpt>
      <trkpt lat="44.22145" lon="6.9274">
        <ele>1634.608604884</ele>
        <time>2019-06-23T08:46:48Z</time>
      </trkpt>
      <trkpt lat="44.22145" lon="6.92743">
        <ele>1634.478310704</ele>
        <time>2019-06-23T08:46:50Z</time>
      </trkpt>
      <trkpt lat="44.22147" lon="6.92746">
        <ele>1634.3604867661</ele>
        <time>2019-06-23T08:46:52Z</time>
      </trkpt>
      <trkpt lat="44.22149" lon="6.9275">
        <ele>1634.1572369935</ele>
        <time>2019-06-23T08:46:54Z</time>
      </trkpt>
      <trkpt lat="44.22149" lon="6.92752">
        <ele>1633.8460602087</ele>
        <time>2019-06-23T08:46:56Z</time>
      </trkpt>
      <trkpt lat="44.22151" lon="6.92754">
        <ele>1633.4612614291</ele>
        <time>2019-06-23T08:46:58Z</time>
      </trkpt>
      <trkpt lat="44.22153" lon="6.92756">
        <ele>1633.305014568</ele>
        <time>2019-06-23T08:47:01Z</time>
      </trkpt>
      <trkpt lat="44.22155" lon="6.92759">
        <ele>1633.0631007286</ele>
        <time>2019-06-23T08:47:03Z</time>
      </trkpt>
      <trkpt lat="44.22157" lon="6.92761">
        <ele>1632.9483463851</ele>
        <time>2019-06-23T08:47:05Z</time>
      </trkpt>
      <trkpt lat="44.22159" lon="6.92764">
        <ele>1632.9746536756</ele>
        <time>2019-06-23T08:47:07Z</time>
      </trkpt>
      <trkpt lat="44.22161" lon="6.92766">
        <ele>1632.9086938538</ele>
        <time>2019-06-23T08:47:10Z</time>
      </trkpt>
      <trkpt lat="44.22164" lon="6.92767">
        <ele>1633.2332378632</ele>
        <time>2019-06-23T08:47:12Z</time>
      </trkpt>
      <trkpt lat="44.22166" lon="6.92769">
        <ele>1633.5814979518</ele>
        <time>2019-06-23T08:47:14Z</time>
      </trkpt>
      <trkpt lat="44.22168" lon="6.92769">
        <ele>1633.9600977401</ele>
        <time>2019-06-23T08:47:16Z</time>
      </trkpt>
      <trkpt lat="44.22171" lon="6.9277">
        <ele>1634.2055609841</ele>
        <time>2019-06-23T08:47:18Z</time>
      </trkpt>
      <trkpt lat="44.22173" lon="6.92772">
        <ele>1634.3018953623</ele>
        <time>2019-06-23T08:47:19Z</time>
      </trkpt>
      <trkpt lat="44.22175" lon="6.92774">
        <ele>1634.3028681205</ele>
        <time>2019-06-23T08:47:21Z</time>
      </trkpt>
      <trkpt lat="44.22177" lon="6.92776">
        <ele>1634.2882251971</ele>
        <time>2019-06-23T08:47:22Z</time>
      </trkpt>
      <trkpt lat="44.22179" lon="6.92777">
        <ele>1634.1926080727</ele>
        <time>2019-06-23T08:47:23Z</time>
      </trkpt>
      <trkpt lat="44.22182" lon="6.92779">
        <ele>1634.0392789097</ele>
        <time>2019-06-23T08:47:25Z</time>
      </trkpt>
      <trkpt lat="44.22185" lon="6.92782">
        <ele>1633.7027614872</ele>
        <time>2019-06-23T08:47:27Z</time>
      </trkpt>
      <trkpt lat="44.22186" lon="6.92783">
        <ele>1633.5915568189</ele>
        <time>2019-06-23T08:47:28Z</time>
      </trkpt>
      <trkpt lat="44.22188" lon="6.92786">
        <ele>1633.463363612</ele>
        <time>2019-06-23T08:47:30Z</time>
      </trkpt>
      <trkpt lat="44.22189" lon="6.92788">
        <ele>1633.3505155178</ele>
        <time>2019-06-23T08:47:32Z</time>
      </trkpt>
      <trkpt lat="44.22191" lon="6.9279">
        <ele>1633.383543531</ele>
        <time>2019-06-23T08:47:34Z</time>
      </trkpt>
      <trkpt lat="44.22192" lon="6.92793">
        <ele>1633.5154350905</ele>
        <time>2019-06-23T08:47:36Z</time>
      </trkpt>
      <trkpt lat="44.22194" lon="6.92795">
        <ele>1633.6355561128</ele>
        <time>2019-06-23T08:47:37Z</time>
      </trkpt>
      <trkpt lat="44.22196" lon="6.92796">
        <ele>1634.2855040444</ele>
        <time>2019-06-23T08:47:39Z</time>
      </trkpt>
      <trkpt lat="44.22198" lon="6.92798">
        <ele>1634.9203006429</ele>
        <time>2019-06-23T08:47:41Z</time>
      </trkpt>
      <trkpt lat="44.22201" lon="6.92799">
        <ele>1635.7683551518</ele>
        <time>2019-06-23T08:47:43Z</time>
      </trkpt>
      <trkpt lat="44.22203" lon="6.92801">
        <ele>1636.404561527</ele>
        <time>2019-06-23T08:47:45Z</time>
      </trkpt>
      <trkpt lat="44.22205" lon="6.92802">
        <ele>1636.9389045478</ele>
        <time>2019-06-23T08:47:47Z</time>
      </trkpt>
      <trkpt lat="44.22208" lon="6.92805">
        <ele>1637.5438707807</ele>
        <time>2019-06-23T08:47:49Z</time>
      </trkpt>
      <trkpt lat="44.22209" lon="6.92807">
        <ele>1637.8566980217</ele>
        <time>2019-06-23T08:47:50Z</time>
      </trkpt>
      <trkpt lat="44.22213" lon="6.92806">
        <ele>1638.4514996432</ele>
        <time>2019-06-23T08:47:52Z</time>
      </trkpt>
      <trkpt lat="44.22216" lon="6.92808">
        <ele>1639.2962867707</ele>
        <time>2019-06-23T08:47:54Z</time>
      </trkpt>
      <trkpt lat="44.22217" lon="6.92808">
        <ele>1639.5310240933</ele>
        <time>2019-06-23T08:47:55Z</time>
      </trkpt>
      <trkpt lat="44.2222" lon="6.92808">
        <ele>1640.391861068</ele>
        <time>2019-06-23T08:47:57Z</time>
      </trkpt>
      <trkpt lat="44.22221" lon="6.92809">
        <ele>1640.8425482951</ele>
        <time>2019-06-23T08:47:59Z</time>
      </trkpt>
      <trkpt lat="44.22223" lon="6.92813">
        <ele>1640.6234174721</ele>
        <time>2019-06-23T08:48:01Z</time>
      </trkpt>
      <trkpt lat="44.22225" lon="6.92817">
        <ele>1640.0396319256</ele>
        <time>2019-06-23T08:48:03Z</time>
      </trkpt>
      <trkpt lat="44.22226" lon="6.92819">
        <ele>1639.3950802885</ele>
        <time>2019-06-23T08:48:04Z</time>
      </trkpt>
      <trkpt lat="44.22228" lon="6.92821">
        <ele>1639.3105201443</ele>
        <time>2019-06-23T08:48:05Z</time>
      </trkpt>
      <trkpt lat="44.2223" lon="6.92824">
        <ele>1639.1852138898</ele>
        <time>2019-06-23T08:48:07Z</time>
      </trkpt>
      <trkpt lat="44.22232" lon="6.92826">
        <ele>1638.8360677608</ele>
        <time>2019-06-23T08:48:09Z</time>
      </trkpt>
      <trkpt lat="44.22233" lon="6.92828">
        <ele>1638.6638372859</ele>
        <time>2019-06-23T08:48:11Z</time>
      </trkpt>
      <trkpt lat="44.22235" lon="6.9283">
        <ele>1638.5576899323</ele>
        <time>2019-06-23T08:48:13Z</time>
      </trkpt>
      <trkpt lat="44.22238" lon="6.92832">
        <ele>1638.7127551678</ele>
        <time>2019-06-23T08:48:15Z</time>
      </trkpt>
      <trkpt lat="44.2224" lon="6.92834">
        <ele>1638.740519199</ele>
        <time>2019-06-23T08:48:17Z</time>
      </trkpt>
      <trkpt lat="44.22241" lon="6.92836">
        <ele>1638.7918283335</ele>
        <time>2019-06-23T08:48:19Z</time>
      </trkpt>
      <trkpt lat="44.22243" lon="6.9284">
        <ele>1638.4190259951</ele>
        <time>2019-06-23T08:48:21Z</time>
      </trkpt>
      <trkpt lat="44.22244" lon="6.92843">
        <ele>1637.9099378643</ele>
        <time>2019-06-23T08:48:23Z</time>
      </trkpt>
      <trkpt lat="44.22245" lon="6.92846">
        <ele>1637.0921553326</ele>
        <time>2019-06-23T08:48:25Z</time>
      </trkpt>
      <trkpt lat="44.22247" lon="6.92849">
        <ele>1636.6726164233</ele>
        <time>2019-06-23T08:48:27Z</time>
      </trkpt>
      <trkpt lat="44.2225" lon="6.92851">
        <ele>1636.7455670303</ele>
        <time>2019-06-23T08:48:29Z</time>
      </trkpt>
      <trkpt lat="44.22252" lon="6.92853">
        <ele>1636.8390795133</ele>
        <time>2019-06-23T08:48:32Z</time>
      </trkpt>
      <trkpt lat="44.22254" lon="6.92855">
        <ele>1636.6387878939</ele>
        <time>2019-06-23T08:48:35Z</time>
      </trkpt>
      <trkpt lat="44.22256" lon="6.92856">
        <ele>1636.7341655126</ele>
        <time>2019-06-23T08:48:37Z</time>
      </trkpt>
      <trkpt lat="44.22259" lon="6.92857">
        <ele>1637.1479745134</ele>
        <time>2019-06-23T08:48:39Z</time>
      </trkpt>
      <trkpt lat="44.22261" lon="6.92858">
        <ele>1637.2707582973</ele>
        <time>2019-06-23T08:48:40Z</time>
      </trkpt>
      <trkpt lat="44.22263" lon="6.92859">
        <ele>1637.865331408</ele>
        <time>2019-06-23T08:48:42Z</time>
      </trkpt>
      <trkpt lat="44.22265" lon="6.92859">
        <ele>1638.2903396392</ele>
        <time>2019-06-23T08:48:44Z</time>
      </trkpt>
      <trkpt lat="44.22267" lon="6.9286">
        <ele>1638.8939158933</ele>
        <time>2019-06-23T08:48:46Z</time>
      </trkpt>
      <trkpt lat="44.22269" lon="6.92861">
        <ele>1639.2455705524</ele>
        <time>2019-06-23T08:48:48Z</time>
      </trkpt>
      <trkpt lat="44.2227" lon="6.92863">
        <ele>1639.3670033587</ele>
        <time>2019-06-23T08:48:50Z</time>
      </trkpt>
      <trkpt lat="44.22273" lon="6.92862">
        <ele>1639.9074347142</ele>
        <time>2019-06-23T08:48:53Z</time>
      </trkpt>
      <trkpt lat="44.22276" lon="6.92863">
        <ele>1640.9230128695</ele>
        <time>2019-06-23T08:48:55Z</time>
      </trkpt>
      <trkpt lat="44.22278" lon="6.92865">
        <ele>1641.2686142077</ele>
        <time>2019-06-23T08:48:57Z</time>
      </trkpt>
      <trkpt lat="44.2228" lon="6.92866">
        <ele>1640.3507647919</ele>
        <time>2019-06-23T08:49:00Z</time>
      </trkpt>
      <trkpt lat="44.22282" lon="6.92866">
        <ele>1639.7952171664</ele>
        <time>2019-06-23T08:49:02Z</time>
      </trkpt>
      <trkpt lat="44.22284" lon="6.92867">
        <ele>1639.1415232624</ele>
        <time>2019-06-23T08:49:04Z</time>
      </trkpt>
      <trkpt lat="44.22287" lon="6.92867">
        <ele>1638.2196713819</ele>
        <time>2019-06-23T08:49:06Z</time>
      </trkpt>
      <trkpt lat="44.2229" lon="6.92866">
        <ele>1637.4232604803</ele>
        <time>2019-06-23T08:49:08Z</time>
      </trkpt>
      <trkpt lat="44.22292" lon="6.92867">
        <ele>1636.7241464689</ele>
        <time>2019-06-23T08:49:10Z</time>
      </trkpt>
      <trkpt lat="44.22295" lon="6.92866">
        <ele>1636.0139973698</ele>
        <time>2019-06-23T08:49:12Z</time>
      </trkpt>
      <trkpt lat="44.22297" lon="6.92865">
        <ele>1635.6820191699</ele>
        <time>2019-06-23T08:49:14Z</time>
      </trkpt>
      <trkpt lat="44.223" lon="6.92864">
        <ele>1634.8889688463</ele>
        <time>2019-06-23T08:49:17Z</time>
      </trkpt>
      <trkpt lat="44.22302" lon="6.92864">
        <ele>1634.5902525272</ele>
        <time>2019-06-23T08:49:19Z</time>
      </trkpt>
      <trkpt lat="44.22304" lon="6.92863">
        <ele>1633.9790073074</ele>
        <time>2019-06-23T08:49:21Z</time>
      </trkpt>
      <trkpt lat="44.22307" lon="6.92861">
        <ele>1633.529519611</ele>
        <time>2019-06-23T08:49:23Z</time>
      </trkpt>
      <trkpt lat="44.22309" lon="6.92859">
        <ele>1633.4831668239</ele>
        <time>2019-06-23T08:49:25Z</time>
      </trkpt>
      <trkpt lat="44.22311" lon="6.92857">
        <ele>1633.5035114015</ele>
        <time>2019-06-23T08:49:27Z</time>
      </trkpt>
      <trkpt lat="44.22312" lon="6.92855">
        <ele>1633.6467568395</ele>
        <time>2019-06-23T08:49:29Z</time>
      </trkpt>
      <trkpt lat="44.22315" lon="6.92854">
        <ele>1633.6348409052</ele>
        <time>2019-06-23T08:49:31Z</time>
      </trkpt>
      <trkpt lat="44.22317" lon="6.92852">
        <ele>1633.4363416189</ele>
        <time>2019-06-23T08:49:33Z</time>
      </trkpt>
      <trkpt lat="44.22319" lon="6.9285">
        <ele>1633.622827085</ele>
        <time>2019-06-23T08:49:35Z</time>
      </trkpt>
      <trkpt lat="44.22321" lon="6.92847">
        <ele>1633.6090144494</ele>
        <time>2019-06-23T08:49:37Z</time>
      </trkpt>
      <trkpt lat="44.22323" lon="6.92846">
        <ele>1633.6460540575</ele>
        <time>2019-06-23T08:49:39Z</time>
      </trkpt>
      <trkpt lat="44.22324" lon="6.92844">
        <ele>1633.5124707229</ele>
        <time>2019-06-23T08:49:42Z</time>
      </trkpt>
      <trkpt lat="44.22325" lon="6.92842">
        <ele>1633.5540888643</ele>
        <time>2019-06-23T08:49:44Z</time>
      </trkpt>
      <trkpt lat="44.22327" lon="6.92839">
        <ele>1633.9271393231</ele>
        <time>2019-06-23T08:49:46Z</time>
      </trkpt>
      <trkpt lat="44.22329" lon="6.92836">
        <ele>1634.132513649</ele>
        <time>2019-06-23T08:49:49Z</time>
      </trkpt>
      <trkpt lat="44.2233" lon="6.92835">
        <ele>1634.3566633827</ele>
        <time>2019-06-23T08:49:50Z</time>
      </trkpt>
      <trkpt lat="44.22333" lon="6.92832">
        <ele>1634.5310525194</ele>
        <time>2019-06-23T08:49:52Z</time>
      </trkpt>
      <trkpt lat="44.22335" lon="6.92831">
        <ele>1634.0557041257</ele>
        <time>2019-06-23T08:49:54Z</time>
      </trkpt>
      <trkpt lat="44.22338" lon="6.92829">
        <ele>1633.215110798</ele>
        <time>2019-06-23T08:49:56Z</time>
      </trkpt>
      <trkpt lat="44.22341" lon="6.92828">
        <ele>1632.1452827456</ele>
        <time>2019-06-23T08:49:58Z</time>
      </trkpt>
      <trkpt lat="44.22344" lon="6.92825">
        <ele>1631.3029743576</ele>
        <time>2019-06-23T08:50:00Z</time>
      </trkpt>
      <trkpt lat="44.22345" lon="6.92824">
        <ele>1631.6838518108</ele>
        <time>2019-06-23T08:50:02Z</time>
      </trkpt>
      <trkpt lat="44.22348" lon="6.92821">
        <ele>1631.2582387453</ele>
        <time>2019-06-23T08:50:05Z</time>
      </trkpt>
      <trkpt lat="44.22351" lon="6.92819">
        <ele>1630.8122215934</ele>
        <time>2019-06-23T08:50:07Z</time>
      </trkpt>
      <trkpt lat="44.22353" lon="6.92818">
        <ele>1630.5542409141</ele>
        <time>2019-06-23T08:50:09Z</time>
      </trkpt>
      <trkpt lat="44.22355" lon="6.92815">
        <ele>1630.6691219518</ele>
        <time>2019-06-23T08:50:12Z</time>
      </trkpt>
      <trkpt lat="44.22357" lon="6.92814">
        <ele>1630.5968760797</ele>
        <time>2019-06-23T08:50:14Z</time>
      </trkpt>
      <trkpt lat="44.22359" lon="6.92812">
        <ele>1630.3518945878</ele>
        <time>2019-06-23T08:50:16Z</time>
      </trkpt>
      <trkpt lat="44.22361" lon="6.9281">
        <ele>1631.2727357885</ele>
        <time>2019-06-23T08:50:18Z</time>
      </trkpt>
      <trkpt lat="44.22363" lon="6.92808">
        <ele>1631.4076607533</ele>
        <time>2019-06-23T08:50:20Z</time>
      </trkpt>
      <trkpt lat="44.22365" lon="6.92806">
        <ele>1631.4800476006</ele>
        <time>2019-06-23T08:50:22Z</time>
      </trkpt>
      <trkpt lat="44.22367" lon="6.92803">
        <ele>1631.4479772796</ele>
        <time>2019-06-23T08:50:24Z</time>
      </trkpt>
      <trkpt lat="44.22369" lon="6.92801">
        <ele>1631.155294985</ele>
        <time>2019-06-23T08:50:27Z</time>
      </trkpt>
      <trkpt lat="44.22372" lon="6.928">
        <ele>1630.4834480152</ele>
        <time>2019-06-23T08:50:29Z</time>
      </trkpt>
      <trkpt lat="44.22375" lon="6.92798">
        <ele>1629.7988511275</ele>
        <time>2019-06-23T08:50:31Z</time>
      </trkpt>
      <trkpt lat="44.22378" lon="6.92796">
        <ele>1629.225264436</ele>
        <time>2019-06-23T08:50:33Z</time>
      </trkpt>
      <trkpt lat="44.22381" lon="6.92794">
        <ele>1628.6659824265</ele>
        <time>2019-06-23T08:50:35Z</time>
      </trkpt>
      <trkpt lat="44.22383" lon="6.92793">
        <ele>1628.1344191474</ele>
        <time>2019-06-23T08:50:37Z</time>
      </trkpt>
      <trkpt lat="44.22386" lon="6.92791">
        <ele>1627.7280476064</ele>
        <time>2019-06-23T08:50:39Z</time>
      </trkpt>
      <trkpt lat="44.22389" lon="6.9279">
        <ele>1627.1777436566</ele>
        <time>2019-06-23T08:50:41Z</time>
      </trkpt>
      <trkpt lat="44.22391" lon="6.92789">
        <ele>1626.6905230878</ele>
        <time>2019-06-23T08:50:43Z</time>
      </trkpt>
      <trkpt lat="44.22393" lon="6.92788">
        <ele>1626.4957406938</ele>
        <time>2019-06-23T08:50:44Z</time>
      </trkpt>
      <trkpt lat="44.22395" lon="6.92787">
        <ele>1625.6865509586</ele>
        <time>2019-06-23T08:50:46Z</time>
      </trkpt>
      <trkpt lat="44.22397" lon="6.92788">
        <ele>1624.9683687292</ele>
        <time>2019-06-23T08:50:48Z</time>
      </trkpt>
      <trkpt lat="44.224" lon="6.92789">
        <ele>1623.2144046803</ele>
        <time>2019-06-23T08:50:50Z</time>
      </trkpt>
      <trkpt lat="44.22403" lon="6.92789">
        <ele>1621.7020432625</ele>
        <time>2019-06-23T08:50:52Z</time>
      </trkpt>
      <trkpt lat="44.22405" lon="6.92788">
        <ele>1620.6301227733</ele>
        <time>2019-06-23T08:50:54Z</time>
      </trkpt>
      <trkpt lat="44.22408" lon="6.92789">
        <ele>1619.7146770817</ele>
        <time>2019-06-23T08:50:57Z</time>
      </trkpt>
      <trkpt lat="44.2241" lon="6.92788">
        <ele>1618.3476477932</ele>
        <time>2019-06-23T08:50:59Z</time>
      </trkpt>
      <trkpt lat="44.22412" lon="6.92788">
        <ele>1617.6474418557</ele>
        <time>2019-06-23T08:51:01Z</time>
      </trkpt>
      <trkpt lat="44.22415" lon="6.92788">
        <ele>1616.3515896987</ele>
        <time>2019-06-23T08:51:03Z</time>
      </trkpt>
      <trkpt lat="44.22417" lon="6.92789">
        <ele>1615.1092940189</ele>
        <time>2019-06-23T08:51:05Z</time>
      </trkpt>
      <trkpt lat="44.2242" lon="6.92788">
        <ele>1614.0771530446</ele>
        <time>2019-06-23T08:51:07Z</time>
      </trkpt>
      <trkpt lat="44.22423" lon="6.92787">
        <ele>1613.2817705997</ele>
        <time>2019-06-23T08:51:09Z</time>
      </trkpt>
      <trkpt lat="44.22426" lon="6.92786">
        <ele>1612.0385140408</ele>
        <time>2019-06-23T08:51:11Z</time>
      </trkpt>
      <trkpt lat="44.22428" lon="6.92787">
        <ele>1611.0689745417</ele>
        <time>2019-06-23T08:51:13Z</time>
      </trkpt>
      <trkpt lat="44.22431" lon="6.92786">
        <ele>1610.0485334139</ele>
        <time>2019-06-23T08:51:16Z</time>
      </trkpt>
      <trkpt lat="44.22433" lon="6.92783">
        <ele>1610.0767956827</ele>
        <time>2019-06-23T08:51:18Z</time>
      </trkpt>
      <trkpt lat="44.22434" lon="6.92781">
        <ele>1610.8882428561</ele>
        <time>2019-06-23T08:51:20Z</time>
      </trkpt>
      <trkpt lat="44.22437" lon="6.92778">
        <ele>1611.4497599088</ele>
        <time>2019-06-23T08:51:23Z</time>
      </trkpt>
      <trkpt lat="44.22438" lon="6.92776">
        <ele>1611.8977141806</ele>
        <time>2019-06-23T08:51:24Z</time>
      </trkpt>
      <trkpt lat="44.2244" lon="6.92775">
        <ele>1612.0155658106</ele>
        <time>2019-06-23T08:51:26Z</time>
      </trkpt>
      <trkpt lat="44.22441" lon="6.92772">
        <ele>1612.428861597</ele>
        <time>2019-06-23T08:51:29Z</time>
      </trkpt>
      <trkpt lat="44.22443" lon="6.92773">
        <ele>1612.2317099224</ele>
        <time>2019-06-23T08:51:34Z</time>
      </trkpt>
      <trkpt lat="44.22445" lon="6.92772">
        <ele>1611.4716108462</ele>
        <time>2019-06-23T08:51:36Z</time>
      </trkpt>
      <trkpt lat="44.22446" lon="6.9277">
        <ele>1611.1237151923</ele>
        <time>2019-06-23T08:51:37Z</time>
      </trkpt>
      <trkpt lat="44.2245" lon="6.92767">
        <ele>1610.571517227</ele>
        <time>2019-06-23T08:51:39Z</time>
      </trkpt>
      <trkpt lat="44.22453" lon="6.92764">
        <ele>1610.1495584798</ele>
        <time>2019-06-23T08:51:41Z</time>
      </trkpt>
      <trkpt lat="44.22456" lon="6.92762">
        <ele>1609.9906953376</ele>
        <time>2019-06-23T08:51:43Z</time>
      </trkpt>
      <trkpt lat="44.22459" lon="6.92761">
        <ele>1609.2517373214</ele>
        <time>2019-06-23T08:51:45Z</time>
      </trkpt>
      <trkpt lat="44.22462" lon="6.9276">
        <ele>1608.1246761104</ele>
        <time>2019-06-23T08:51:47Z</time>
      </trkpt>
      <trkpt lat="44.22464" lon="6.9276">
        <ele>1607.8257892968</ele>
        <time>2019-06-23T08:51:48Z</time>
      </trkpt>
      <trkpt lat="44.22466" lon="6.92759">
        <ele>1607.2196677053</ele>
        <time>2019-06-23T08:51:49Z</time>
      </trkpt>
      <trkpt lat="44.22469" lon="6.92757">
        <ele>1606.8993749455</ele>
        <time>2019-06-23T08:51:51Z</time>
      </trkpt>
      <trkpt lat="44.22471" lon="6.92755">
        <ele>1607.1417713831</ele>
        <time>2019-06-23T08:51:53Z</time>
      </trkpt>
      <trkpt lat="44.22474" lon="6.92754">
        <ele>1606.5978122909</ele>
        <time>2019-06-23T08:51:55Z</time>
      </trkpt>
      <trkpt lat="44.22476" lon="6.92754">
        <ele>1605.9970894968</ele>
        <time>2019-06-23T08:51:57Z</time>
      </trkpt>
      <trkpt lat="44.22479" lon="6.92752">
        <ele>1605.4091954156</ele>
        <time>2019-06-23T08:52:00Z</time>
      </trkpt>
      <trkpt lat="44.2248" lon="6.9275">
        <ele>1605.1160639238</ele>
        <time>2019-06-23T08:52:02Z</time>
      </trkpt>
      <trkpt lat="44.22483" lon="6.92748">
        <ele>1604.7044263914</ele>
        <time>2019-06-23T08:52:06Z</time>
      </trkpt>
      <trkpt lat="44.22485" lon="6.92747">
        <ele>1604.1276514874</ele>
        <time>2019-06-23T08:52:08Z</time>
      </trkpt>
      <trkpt lat="44.22486" lon="6.92745">
        <ele>1603.8836891583</ele>
        <time>2019-06-23T08:52:10Z</time>
      </trkpt>
      <trkpt lat="44.22489" lon="6.92742">
        <ele>1603.9215557702</ele>
        <time>2019-06-23T08:52:13Z</time>
      </trkpt>
      <trkpt lat="44.22491" lon="6.9274">
        <ele>1603.6039048125</ele>
        <time>2019-06-23T08:52:15Z</time>
      </trkpt>
      <trkpt lat="44.22493" lon="6.92738">
        <ele>1603.633087167</ele>
        <time>2019-06-23T08:52:16Z</time>
      </trkpt>
      <trkpt lat="44.22495" lon="6.92736">
        <ele>1603.8097054292</ele>
        <time>2019-06-23T08:52:18Z</time>
      </trkpt>
      <trkpt lat="44.22496" lon="6.92733">
        <ele>1604.5389423149</ele>
        <time>2019-06-23T08:52:20Z</time>
      </trkpt>
      <trkpt lat="44.22498" lon="6.92731">
        <ele>1605.0840923498</ele>
        <time>2019-06-23T08:52:22Z</time>
      </trkpt>
      <trkpt lat="44.22499" lon="6.92728">
        <ele>1606.033237931</ele>
        <time>2019-06-23T08:52:24Z</time>
      </trkpt>
      <trkpt lat="44.22501" lon="6.92726">
        <ele>1606.5795309114</ele>
        <time>2019-06-23T08:52:26Z</time>
      </trkpt>
      <trkpt lat="44.22502" lon="6.92724">
        <ele>1607.0922952847</ele>
        <time>2019-06-23T08:52:27Z</time>
      </trkpt>
      <trkpt lat="44.22504" lon="6.92721">
        <ele>1607.882970606</ele>
        <time>2019-06-23T08:52:29Z</time>
      </trkpt>
      <trkpt lat="44.22506" lon="6.9272">
        <ele>1607.4421460901</ele>
        <time>2019-06-23T08:52:30Z</time>
      </trkpt>
      <trkpt lat="44.22507" lon="6.92715">
        <ele>1606.4876019266</ele>
        <time>2019-06-23T08:52:32Z</time>
      </trkpt>
      <trkpt lat="44.22508" lon="6.92714">
        <ele>1606.2164720123</ele>
        <time>2019-06-23T08:52:34Z</time>
      </trkpt>
      <trkpt lat="44.2251" lon="6.92712">
        <ele>1605.5927203519</ele>
        <time>2019-06-23T08:52:35Z</time>
      </trkpt>
      <trkpt lat="44.2251" lon="6.92709">
        <ele>1605.2240133216</ele>
        <time>2019-06-23T08:53:00Z</time>
      </trkpt>
      <trkpt lat="44.22511" lon="6.92707">
        <ele>1605.1024196527</ele>
        <time>2019-06-23T08:53:12Z</time>
      </trkpt>
      <trkpt lat="44.22512" lon="6.92705">
        <ele>1605.2875871128</ele>
        <time>2019-06-23T08:53:18Z</time>
      </trkpt>
      <trkpt lat="44.22512" lon="6.92705">
        <ele>1605.0459866471</ele>
        <time>2019-06-23T08:53:19Z</time>
      </trkpt>
      <trkpt lat="44.22514" lon="6.92706">
        <ele>1604.2489470467</ele>
        <time>2019-06-23T08:53:28Z</time>
      </trkpt>
      <trkpt lat="44.22512" lon="6.92708">
        <ele>1604.559228643</ele>
        <time>2019-06-23T08:53:40Z</time>
      </trkpt>
      <trkpt lat="44.22512" lon="6.9271">
        <ele>1604.4851862852</ele>
        <time>2019-06-23T08:53:51Z</time>
      </trkpt>
      <trkpt lat="44.22512" lon="6.92708">
        <ele>1604.4202975574</ele>
        <time>2019-06-23T08:54:00Z</time>
      </trkpt>
      <trkpt lat="44.22514" lon="6.92709">
        <ele>1603.843986925</ele>
        <time>2019-06-23T08:54:13Z</time>
      </trkpt>
      <trkpt lat="44.22514" lon="6.92709">
        <ele>1603.6514923509</ele>
        <time>2019-06-23T08:54:14Z</time>
      </trkpt>
      <trkpt lat="44.22514" lon="6.92709">
        <ele>1603.4589440496</ele>
        <time>2019-06-23T08:54:20Z</time>
      </trkpt>
      <trkpt lat="44.22515" lon="6.92706">
        <ele>1603.8069247541</ele>
        <time>2019-06-23T08:54:24Z</time>
      </trkpt>
      <trkpt lat="44.22517" lon="6.92705">
        <ele>1603.268664264</ele>
        <time>2019-06-23T08:54:26Z</time>
      </trkpt>
      <trkpt lat="44.22519" lon="6.92705">
        <ele>1602.6190983095</ele>
        <time>2019-06-23T08:54:28Z</time>
      </trkpt>
      <trkpt lat="44.22522" lon="6.92704">
        <ele>1601.6980787242</ele>
        <time>2019-06-23T08:54:30Z</time>
      </trkpt>
      <trkpt lat="44.22524" lon="6.92702">
        <ele>1600.9974110088</ele>
        <time>2019-06-23T08:54:32Z</time>
      </trkpt>
      <trkpt lat="44.22527" lon="6.92702">
        <ele>1600.1188995945</ele>
        <time>2019-06-23T08:54:35Z</time>
      </trkpt>
      <trkpt lat="44.2253" lon="6.92702">
        <ele>1599.3779449011</ele>
        <time>2019-06-23T08:54:37Z</time>
      </trkpt>
      <trkpt lat="44.22532" lon="6.927">
        <ele>1599.6673010025</ele>
        <time>2019-06-23T08:54:40Z</time>
      </trkpt>
      <trkpt lat="44.22534" lon="6.92701">
        <ele>1599.7287487394</ele>
        <time>2019-06-23T08:54:42Z</time>
      </trkpt>
      <trkpt lat="44.22536" lon="6.927">
        <ele>1599.7713650168</ele>
        <time>2019-06-23T08:54:43Z</time>
      </trkpt>
      <trkpt lat="44.22539" lon="6.927">
        <ele>1600.0033709225</ele>
        <time>2019-06-23T08:54:45Z</time>
      </trkpt>
      <trkpt lat="44.22543" lon="6.927">
        <ele>1599.9203381984</ele>
        <time>2019-06-23T08:54:47Z</time>
      </trkpt>
      <trkpt lat="44.22546" lon="6.927">
        <ele>1599.8082603125</ele>
        <time>2019-06-23T08:54:49Z</time>
      </trkpt>
      <trkpt lat="44.22549" lon="6.92699">
        <ele>1600.0948934399</ele>
        <time>2019-06-23T08:54:51Z</time>
      </trkpt>
      <trkpt lat="44.22551" lon="6.927">
        <ele>1600.2284262642</ele>
        <time>2019-06-23T08:54:52Z</time>
      </trkpt>
      <trkpt lat="44.22553" lon="6.92701">
        <ele>1600.0395212458</ele>
        <time>2019-06-23T08:54:53Z</time>
      </trkpt>
      <trkpt lat="44.22556" lon="6.927">
        <ele>1599.7254616645</ele>
        <time>2019-06-23T08:54:55Z</time>
      </trkpt>
      <trkpt lat="44.22559" lon="6.92699">
        <ele>1600.0003740472</ele>
        <time>2019-06-23T08:54:57Z</time>
      </trkpt>
      <trkpt lat="44.22562" lon="6.92699">
        <ele>1600.5135809347</ele>
        <time>2019-06-23T08:54:59Z</time>
      </trkpt>
      <trkpt lat="44.22564" lon="6.92698">
        <ele>1600.7287056793</ele>
        <time>2019-06-23T08:55:01Z</time>
      </trkpt>
      <trkpt lat="44.22567" lon="6.92699">
        <ele>1600.8474902642</ele>
        <time>2019-06-23T08:55:04Z</time>
      </trkpt>
      <trkpt lat="44.22569" lon="6.92699">
        <ele>1600.7395154758</ele>
        <time>2019-06-23T08:55:06Z</time>
      </trkpt>
      <trkpt lat="44.22573" lon="6.92701">
        <ele>1600.9240827005</ele>
        <time>2019-06-23T08:55:08Z</time>
      </trkpt>
      <trkpt lat="44.22575" lon="6.92702">
        <ele>1600.897374906</ele>
        <time>2019-06-23T08:55:10Z</time>
      </trkpt>
      <trkpt lat="44.22578" lon="6.92703">
        <ele>1600.9441073398</ele>
        <time>2019-06-23T08:55:12Z</time>
      </trkpt>
      <trkpt lat="44.22581" lon="6.92704">
        <ele>1601.1410541563</ele>
        <time>2019-06-23T08:55:14Z</time>
      </trkpt>
      <trkpt lat="44.22583" lon="6.92705">
        <ele>1601.4056847573</ele>
        <time>2019-06-23T08:55:16Z</time>
      </trkpt>
      <trkpt lat="44.22586" lon="6.92707">
        <ele>1601.5671164637</ele>
        <time>2019-06-23T08:55:18Z</time>
      </trkpt>
      <trkpt lat="44.22589" lon="6.92707">
        <ele>1601.5719497749</ele>
        <time>2019-06-23T08:55:20Z</time>
      </trkpt>
      <trkpt lat="44.22592" lon="6.92707">
        <ele>1601.571998108</ele>
        <time>2019-06-23T08:55:22Z</time>
      </trkpt>
      <trkpt lat="44.22595" lon="6.92708">
        <ele>1601.5719985913</ele>
        <time>2019-06-23T08:55:24Z</time>
      </trkpt>
      <trkpt lat="44.22597" lon="6.92709">
        <ele>1601.5719985961</ele>
        <time>2019-06-23T08:55:26Z</time>
      </trkpt>
      <trkpt lat="44.22601" lon="6.9271">
        <ele>1601.5719985962</ele>
        <time>2019-06-23T08:55:28Z</time>
      </trkpt>
      <trkpt lat="44.22604" lon="6.9271">
        <ele>1601.5719985962</ele>
        <time>2019-06-23T08:55:30Z</time>
      </trkpt>
      <trkpt lat="44.22606" lon="6.92711">
        <ele>1601.5719985962</ele>
        <time>2019-06-23T08:55:32Z</time>
      </trkpt>
      <trkpt lat="44.22609" lon="6.9271">
        <ele>1601.5719985962</ele>
        <time>2019-06-23T08:55:34Z</time>
      </trkpt>
      <trkpt lat="44.22611" lon="6.92711">
        <ele>1601.5719985962</ele>
        <time>2019-06-23T08:55:36Z</time>
      </trkpt>
      <trkpt lat="44.22613" lon="6.92712">
        <ele>1601.4696060181</ele>
        <time>2019-06-23T08:55:38Z</time>
      </trkpt>
      <trkpt lat="44.22615" lon="6.92713">
        <ele>1601.3129277954</ele>
        <time>2019-06-23T08:55:40Z</time>
      </trkpt>
      <trkpt lat="44.22618" lon="6.92712">
        <ele>1601.0288475854</ele>
        <time>2019-06-23T08:55:42Z</time>
      </trkpt>
      <trkpt lat="44.2262" lon="6.92713">
        <ele>1600.7591269005</ele>
        <time>2019-06-23T08:55:44Z</time>
      </trkpt>
      <trkpt lat="44.22622" lon="6.92713">
        <ele>1600.6633310555</ele>
        <time>2019-06-23T08:55:45Z</time>
      </trkpt>
      <trkpt lat="44.22625" lon="6.92714">
        <ele>1600.496447077</ele>
        <time>2019-06-23T08:55:47Z</time>
      </trkpt>
      <trkpt lat="44.22628" lon="6.92715">
        <ele>1600.1848670144</ele>
        <time>2019-06-23T08:55:50Z</time>
      </trkpt>
      <trkpt lat="44.2263" lon="6.92716">
        <ele>1600.234230796</ele>
        <time>2019-06-23T08:55:52Z</time>
      </trkpt>
      <trkpt lat="44.22632" lon="6.92716">
        <ele>1600.2183657912</ele>
        <time>2019-06-23T08:55:54Z</time>
      </trkpt>
      <trkpt lat="44.22635" lon="6.92716">
        <ele>1600.1786343873</ele>
        <time>2019-06-23T08:55:56Z</time>
      </trkpt>
      <trkpt lat="44.22638" lon="6.92716">
        <ele>1600.0106626104</ele>
        <time>2019-06-23T08:55:58Z</time>
      </trkpt>
      <trkpt lat="44.2264" lon="6.92717">
        <ele>1599.7991961713</ele>
        <time>2019-06-23T08:56:01Z</time>
      </trkpt>
      <trkpt lat="44.22643" lon="6.92716">
        <ele>1599.9472124665</ele>
        <time>2019-06-23T08:56:03Z</time>
      </trkpt>
      <trkpt lat="44.22645" lon="6.92716">
        <ele>1600.0545788599</ele>
        <time>2019-06-23T08:56:05Z</time>
      </trkpt>
      <trkpt lat="44.22648" lon="6.92716">
        <ele>1600.2871893891</ele>
        <time>2019-06-23T08:56:07Z</time>
      </trkpt>
      <trkpt lat="44.2265" lon="6.92717">
        <ele>1600.5445081701</ele>
        <time>2019-06-23T08:56:09Z</time>
      </trkpt>
      <trkpt lat="44.22652" lon="6.92717">
        <ele>1600.6205249615</ele>
        <time>2019-06-23T08:56:11Z</time>
      </trkpt>
      <trkpt lat="44.22655" lon="6.92716">
        <ele>1600.7816415747</ele>
        <time>2019-06-23T08:56:13Z</time>
      </trkpt>
      <trkpt lat="44.22658" lon="6.92716">
        <ele>1600.8518733463</ele>
        <time>2019-06-23T08:56:15Z</time>
      </trkpt>
      <trkpt lat="44.22659" lon="6.92715">
        <ele>1601.0105151171</ele>
        <time>2019-06-23T08:56:17Z</time>
      </trkpt>
      <trkpt lat="44.22662" lon="6.92714">
        <ele>1601.0706586637</ele>
        <time>2019-06-23T08:56:19Z</time>
      </trkpt>
      <trkpt lat="44.22663" lon="6.92715">
        <ele>1601.1521746615</ele>
        <time>2019-06-23T08:56:20Z</time>
      </trkpt>
      <trkpt lat="44.22666" lon="6.92716">
        <ele>1601.4203629519</ele>
        <time>2019-06-23T08:56:23Z</time>
      </trkpt>
      <trkpt lat="44.22669" lon="6.92717">
        <ele>1601.5662085581</ele>
        <time>2019-06-23T08:56:25Z</time>
      </trkpt>
      <trkpt lat="44.22671" lon="6.92718">
        <ele>1601.5719406958</ele>
        <time>2019-06-23T08:56:27Z</time>
      </trkpt>
      <trkpt lat="44.22674" lon="6.92718">
        <ele>1601.5719980172</ele>
        <time>2019-06-23T08:56:29Z</time>
      </trkpt>
      <trkpt lat="44.22676" lon="6.92719">
        <ele>1601.5719985383</ele>
        <time>2019-06-23T08:56:30Z</time>
      </trkpt>
      <trkpt lat="44.22678" lon="6.92719">
        <ele>1601.5719985904</ele>
        <time>2019-06-23T08:56:31Z</time>
      </trkpt>
      <trkpt lat="44.22679" lon="6.9272">
        <ele>1601.5719985961</ele>
        <time>2019-06-23T08:56:33Z</time>
      </trkpt>
      <trkpt lat="44.22682" lon="6.92722">
        <ele>1601.5719985962</ele>
        <time>2019-06-23T08:56:35Z</time>
      </trkpt>
      <trkpt lat="44.22683" lon="6.92724">
        <ele>1601.7307510376</ele>
        <time>2019-06-23T08:56:37Z</time>
      </trkpt>
      <trkpt lat="44.22684" lon="6.92728">
        <ele>1602.1499398804</ele>
        <time>2019-06-23T08:56:39Z</time>
      </trkpt>
      <trkpt lat="44.22685" lon="6.92731">
        <ele>1602.8964559875</ele>
        <time>2019-06-23T08:56:41Z</time>
      </trkpt>
      <trkpt lat="44.22686" lon="6.92734">
        <ele>1603.5408425353</ele>
        <time>2019-06-23T08:56:43Z</time>
      </trkpt>
      <trkpt lat="44.22688" lon="6.92737">
        <ele>1604.3500573969</ele>
        <time>2019-06-23T08:56:45Z</time>
      </trkpt>
      <trkpt lat="44.22688" lon="6.9274">
        <ele>1605.0664600924</ele>
        <time>2019-06-23T08:56:47Z</time>
      </trkpt>
      <trkpt lat="44.22688" lon="6.92743">
        <ele>1605.6535264631</ele>
        <time>2019-06-23T08:56:49Z</time>
      </trkpt>
      <trkpt lat="44.22688" lon="6.92746">
        <ele>1606.5109474198</ele>
        <time>2019-06-23T08:56:51Z</time>
      </trkpt>
      <trkpt lat="44.22689" lon="6.9275">
        <ele>1607.4522279282</ele>
        <time>2019-06-23T08:56:53Z</time>
      </trkpt>
      <trkpt lat="44.22689" lon="6.92753">
        <ele>1608.0899378524</ele>
        <time>2019-06-23T08:56:55Z</time>
      </trkpt>
      <trkpt lat="44.22689" lon="6.92755">
        <ele>1608.1200449632</ele>
        <time>2019-06-23T08:56:56Z</time>
      </trkpt>
      <trkpt lat="44.22691" lon="6.92755">
        <ele>1608.2457780749</ele>
        <time>2019-06-23T08:57:05Z</time>
      </trkpt>
      <trkpt lat="44.22693" lon="6.92757">
        <ele>1608.5912320128</ele>
        <time>2019-06-23T08:57:06Z</time>
      </trkpt>
      <trkpt lat="44.22694" lon="6.92761">
        <ele>1609.3552304811</ele>
        <time>2019-06-23T08:57:08Z</time>
      </trkpt>
      <trkpt lat="44.22695" lon="6.92765">
        <ele>1609.6538323799</ele>
        <time>2019-06-23T08:57:10Z</time>
      </trkpt>
      <trkpt lat="44.22695" lon="6.92767">
        <ele>1609.6725769941</ele>
        <time>2019-06-23T08:57:11Z</time>
      </trkpt>
      <trkpt lat="44.22696" lon="6.9277">
        <ele>1609.6746389017</ele>
        <time>2019-06-23T08:57:13Z</time>
      </trkpt>
      <trkpt lat="44.22697" lon="6.92773">
        <ele>1609.6746595207</ele>
        <time>2019-06-23T08:57:15Z</time>
      </trkpt>
      <trkpt lat="44.22697" lon="6.92776">
        <ele>1609.6746597269</ele>
        <time>2019-06-23T08:57:17Z</time>
      </trkpt>
      <trkpt lat="44.22698" lon="6.9278">
        <ele>1609.674659729</ele>
        <time>2019-06-23T08:57:19Z</time>
      </trkpt>
      <trkpt lat="44.227" lon="6.92784">
        <ele>1609.674659729</ele>
        <time>2019-06-23T08:57:22Z</time>
      </trkpt>
      <trkpt lat="44.22699" lon="6.92787">
        <ele>1609.674659729</ele>
        <time>2019-06-23T08:57:24Z</time>
      </trkpt>
      <trkpt lat="44.22701" lon="6.92789">
        <ele>1609.674659729</ele>
        <time>2019-06-23T08:57:26Z</time>
      </trkpt>
      <trkpt lat="44.22702" lon="6.92792">
        <ele>1609.674659729</ele>
        <time>2019-06-23T08:57:28Z</time>
      </trkpt>
      <trkpt lat="44.22703" lon="6.92795">
        <ele>1609.674659729</ele>
        <time>2019-06-23T08:57:31Z</time>
      </trkpt>
      <trkpt lat="44.22704" lon="6.92798">
        <ele>1609.674659729</ele>
        <time>2019-06-23T08:57:33Z</time>
      </trkpt>
      <trkpt lat="44.22705" lon="6.92802">
        <ele>1609.674659729</ele>
        <time>2019-06-23T08:57:35Z</time>
      </trkpt>
      <trkpt lat="44.22705" lon="6.92804">
        <ele>1609.674659729</ele>
        <time>2019-06-23T08:57:37Z</time>
      </trkpt>
      <trkpt lat="44.22706" lon="6.92807">
        <ele>1609.674659729</ele>
        <time>2019-06-23T08:57:40Z</time>
      </trkpt>
      <trkpt lat="44.22706" lon="6.9281">
        <ele>1609.674659729</ele>
        <time>2019-06-23T08:57:41Z</time>
      </trkpt>
      <trkpt lat="44.22706" lon="6.92813">
        <ele>1609.674659729</ele>
        <time>2019-06-23T08:57:43Z</time>
      </trkpt>
      <trkpt lat="44.22707" lon="6.92817">
        <ele>1609.674659729</ele>
        <time>2019-06-23T08:57:45Z</time>
      </trkpt>
      <trkpt lat="44.22708" lon="6.92821">
        <ele>1609.674659729</ele>
        <time>2019-06-23T08:57:47Z</time>
      </trkpt>
      <trkpt lat="44.22709" lon="6.92824">
        <ele>1609.674659729</ele>
        <time>2019-06-23T08:57:49Z</time>
      </trkpt>
      <trkpt lat="44.22709" lon="6.92827">
        <ele>1609.674659729</ele>
        <time>2019-06-23T08:57:50Z</time>
      </trkpt>
      <trkpt lat="44.22707" lon="6.92831">
        <ele>1609.674659729</ele>
        <time>2019-06-23T08:57:52Z</time>
      </trkpt>
      <trkpt lat="44.22706" lon="6.92836">
        <ele>1609.674659729</ele>
        <time>2019-06-23T08:57:54Z</time>
      </trkpt>
      <trkpt lat="44.22706" lon="6.92838">
        <ele>1609.674659729</ele>
        <time>2019-06-23T08:57:55Z</time>
      </trkpt>
      <trkpt lat="44.22704" lon="6.92841">
        <ele>1609.674659729</ele>
        <time>2019-06-23T08:57:58Z</time>
      </trkpt>
      <trkpt lat="44.22704" lon="6.92844">
        <ele>1609.674659729</ele>
        <time>2019-06-23T08:58:00Z</time>
      </trkpt>
      <trkpt lat="44.22702" lon="6.92846">
        <ele>1609.674659729</ele>
        <time>2019-06-23T08:58:02Z</time>
      </trkpt>
      <trkpt lat="44.22701" lon="6.92848">
        <ele>1609.674659729</ele>
        <time>2019-06-23T08:58:04Z</time>
      </trkpt>
      <trkpt lat="44.22699" lon="6.92849">
        <ele>1609.674659729</ele>
        <time>2019-06-23T08:58:07Z</time>
      </trkpt>
      <trkpt lat="44.22697" lon="6.92852">
        <ele>1609.674659729</ele>
        <time>2019-06-23T08:58:09Z</time>
      </trkpt>
      <trkpt lat="44.22695" lon="6.92855">
        <ele>1609.674659729</ele>
        <time>2019-06-23T08:58:11Z</time>
      </trkpt>
      <trkpt lat="44.22694" lon="6.9286">
        <ele>1609.674659729</ele>
        <time>2019-06-23T08:58:13Z</time>
      </trkpt>
      <trkpt lat="44.22692" lon="6.92862">
        <ele>1609.674659729</ele>
        <time>2019-06-23T08:58:15Z</time>
      </trkpt>
      <trkpt lat="44.22691" lon="6.92867">
        <ele>1609.674659729</ele>
        <time>2019-06-23T08:58:17Z</time>
      </trkpt>
      <trkpt lat="44.22689" lon="6.92869">
        <ele>1609.674659729</ele>
        <time>2019-06-23T08:58:18Z</time>
      </trkpt>
      <trkpt lat="44.22688" lon="6.92871">
        <ele>1609.674659729</ele>
        <time>2019-06-23T08:58:20Z</time>
      </trkpt>
      <trkpt lat="44.22686" lon="6.92873">
        <ele>1609.674659729</ele>
        <time>2019-06-23T08:58:22Z</time>
      </trkpt>
      <trkpt lat="44.22684" lon="6.92875">
        <ele>1609.674659729</ele>
        <time>2019-06-23T08:58:23Z</time>
      </trkpt>
      <trkpt lat="44.22683" lon="6.92876">
        <ele>1609.674659729</ele>
        <time>2019-06-23T08:58:24Z</time>
      </trkpt>
      <trkpt lat="44.22681" lon="6.92876">
        <ele>1609.674659729</ele>
        <time>2019-06-23T08:58:25Z</time>
      </trkpt>
      <trkpt lat="44.22678" lon="6.92877">
        <ele>1609.674659729</ele>
        <time>2019-06-23T08:58:27Z</time>
      </trkpt>
      <trkpt lat="44.22676" lon="6.92881">
        <ele>1609.674659729</ele>
        <time>2019-06-23T08:58:29Z</time>
      </trkpt>
      <trkpt lat="44.22675" lon="6.92883">
        <ele>1609.674659729</ele>
        <time>2019-06-23T08:58:31Z</time>
      </trkpt>
      <trkpt lat="44.22674" lon="6.92886">
        <ele>1609.674659729</ele>
        <time>2019-06-23T08:58:33Z</time>
      </trkpt>
      <trkpt lat="44.22673" lon="6.92888">
        <ele>1609.674659729</ele>
        <time>2019-06-23T08:58:35Z</time>
      </trkpt>
      <trkpt lat="44.22673" lon="6.92891">
        <ele>1609.674659729</ele>
        <time>2019-06-23T08:58:37Z</time>
      </trkpt>
      <trkpt lat="44.22671" lon="6.92893">
        <ele>1609.674659729</ele>
        <time>2019-06-23T08:58:39Z</time>
      </trkpt>
      <trkpt lat="44.22669" lon="6.92895">
        <ele>1609.674659729</ele>
        <time>2019-06-23T08:58:41Z</time>
      </trkpt>
      <trkpt lat="44.22667" lon="6.92899">
        <ele>1609.674659729</ele>
        <time>2019-06-23T08:58:44Z</time>
      </trkpt>
      <trkpt lat="44.22664" lon="6.92901">
        <ele>1609.674659729</ele>
        <time>2019-06-23T08:58:46Z</time>
      </trkpt>
      <trkpt lat="44.22662" lon="6.92901">
        <ele>1609.674659729</ele>
        <time>2019-06-23T08:58:47Z</time>
      </trkpt>
      <trkpt lat="44.22659" lon="6.92902">
        <ele>1609.674659729</ele>
        <time>2019-06-23T08:58:49Z</time>
      </trkpt>
      <trkpt lat="44.22656" lon="6.92904">
        <ele>1609.674659729</ele>
        <time>2019-06-23T08:58:51Z</time>
      </trkpt>
      <trkpt lat="44.22654" lon="6.92905">
        <ele>1609.674659729</ele>
        <time>2019-06-23T08:58:53Z</time>
      </trkpt>
      <trkpt lat="44.22653" lon="6.92907">
        <ele>1609.674659729</ele>
        <time>2019-06-23T08:58:55Z</time>
      </trkpt>
      <trkpt lat="44.22651" lon="6.92908">
        <ele>1609.674659729</ele>
        <time>2019-06-23T08:59:01Z</time>
      </trkpt>
      <trkpt lat="44.2265" lon="6.9291">
        <ele>1609.674659729</ele>
        <time>2019-06-23T08:59:17Z</time>
      </trkpt>
      <trkpt lat="44.22651" lon="6.92912">
        <ele>1609.674659729</ele>
        <time>2019-06-23T08:59:21Z</time>
      </trkpt>
      <trkpt lat="44.22649" lon="6.92914">
        <ele>1609.674659729</ele>
        <time>2019-06-23T08:59:28Z</time>
      </trkpt>
      <trkpt lat="44.22648" lon="6.92917">
        <ele>1609.674659729</ele>
        <time>2019-06-23T08:59:30Z</time>
      </trkpt>
      <trkpt lat="44.22645" lon="6.92918">
        <ele>1609.674659729</ele>
        <time>2019-06-23T08:59:31Z</time>
      </trkpt>
      <trkpt lat="44.22643" lon="6.92918">
        <ele>1609.674659729</ele>
        <time>2019-06-23T08:59:32Z</time>
      </trkpt>
      <trkpt lat="44.2264" lon="6.92917">
        <ele>1609.674659729</ele>
        <time>2019-06-23T08:59:33Z</time>
      </trkpt>
      <trkpt lat="44.22636" lon="6.92916">
        <ele>1609.674659729</ele>
        <time>2019-06-23T08:59:35Z</time>
      </trkpt>
      <trkpt lat="44.22634" lon="6.92916">
        <ele>1609.6559170532</ele>
        <time>2019-06-23T08:59:37Z</time>
      </trkpt>
      <trkpt lat="44.22632" lon="6.92916">
        <ele>1609.6531199341</ele>
        <time>2019-06-23T08:59:38Z</time>
      </trkpt>
      <trkpt lat="44.2263" lon="6.92916">
        <ele>1609.6132894409</ele>
        <time>2019-06-23T08:59:39Z</time>
      </trkpt>
      <trkpt lat="44.22628" lon="6.92917">
        <ele>1609.6739523626</ele>
        <time>2019-06-23T08:59:42Z</time>
      </trkpt>
      <trkpt lat="44.22626" lon="6.92919">
        <ele>1609.6746597219</ele>
        <time>2019-06-23T08:59:47Z</time>
      </trkpt>
      <trkpt lat="44.22625" lon="6.92922">
        <ele>1609.674659729</ele>
        <time>2019-06-23T08:59:50Z</time>
      </trkpt>
      <trkpt lat="44.22625" lon="6.92926">
        <ele>1609.674659729</ele>
        <time>2019-06-23T08:59:52Z</time>
      </trkpt>
      <trkpt lat="44.22625" lon="6.92928">
        <ele>1609.674659729</ele>
        <time>2019-06-23T08:59:54Z</time>
      </trkpt>
      <trkpt lat="44.22626" lon="6.92931">
        <ele>1609.674659729</ele>
        <time>2019-06-23T08:59:57Z</time>
      </trkpt>
      <trkpt lat="44.22626" lon="6.92933">
        <ele>1609.674659729</ele>
        <time>2019-06-23T09:00:00Z</time>
      </trkpt>
      <trkpt lat="44.22627" lon="6.92936">
        <ele>1609.674659729</ele>
        <time>2019-06-23T09:00:07Z</time>
      </trkpt>
      <trkpt lat="44.22625" lon="6.92937">
        <ele>1609.674659729</ele>
        <time>2019-06-23T09:00:16Z</time>
      </trkpt>
      <trkpt lat="44.22625" lon="6.92939">
        <ele>1609.674659729</ele>
        <time>2019-06-23T09:00:23Z</time>
      </trkpt>
      <trkpt lat="44.22623" lon="6.92937">
        <ele>1609.674659729</ele>
        <time>2019-06-23T09:00:40Z</time>
      </trkpt>
      <trkpt lat="44.22621" lon="6.92936">
        <ele>1609.674659729</ele>
        <time>2019-06-23T09:00:51Z</time>
      </trkpt>
      <trkpt lat="44.2262" lon="6.92933">
        <ele>1609.674659729</ele>
        <time>2019-06-23T09:00:53Z</time>
      </trkpt>
      <trkpt lat="44.22619" lon="6.92937">
        <ele>1609.674659729</ele>
        <time>2019-06-23T09:01:33Z</time>
      </trkpt>
      <trkpt lat="44.22621" lon="6.92938">
        <ele>1609.674659729</ele>
        <time>2019-06-23T09:01:35Z</time>
      </trkpt>
      <trkpt lat="44.22619" lon="6.9294">
        <ele>1609.674659729</ele>
        <time>2019-06-23T09:01:41Z</time>
      </trkpt>
      <trkpt lat="44.22619" lon="6.92943">
        <ele>1609.674659729</ele>
        <time>2019-06-23T09:01:45Z</time>
      </trkpt>
      <trkpt lat="44.22619" lon="6.9294">
        <ele>1609.674659729</ele>
        <time>2019-06-23T09:01:52Z</time>
      </trkpt>
      <trkpt lat="44.2262" lon="6.92936">
        <ele>1609.674659729</ele>
        <time>2019-06-23T09:01:59Z</time>
      </trkpt>
      <trkpt lat="44.22621" lon="6.92934">
        <ele>1609.674659729</ele>
        <time>2019-06-23T09:02:03Z</time>
      </trkpt>
      <trkpt lat="44.2262" lon="6.92932">
        <ele>1609.674659729</ele>
        <time>2019-06-23T09:02:38Z</time>
      </trkpt>
      <trkpt lat="44.22622" lon="6.92931">
        <ele>1609.674659729</ele>
        <time>2019-06-23T09:02:56Z</time>
      </trkpt>
      <trkpt lat="44.22624" lon="6.92933">
        <ele>1609.674659729</ele>
        <time>2019-06-23T09:03:03Z</time>
      </trkpt>
      <trkpt lat="44.22625" lon="6.92936">
        <ele>1609.674659729</ele>
        <time>2019-06-23T09:03:05Z</time>
      </trkpt>
      <trkpt lat="44.22628" lon="6.92935">
        <ele>1609.674659729</ele>
        <time>2019-06-23T09:03:07Z</time>
      </trkpt>
      <trkpt lat="44.22629" lon="6.92936">
        <ele>1609.674659729</ele>
        <time>2019-06-23T09:03:09Z</time>
      </trkpt>
      <trkpt lat="44.22632" lon="6.92936">
        <ele>1609.674659729</ele>
        <time>2019-06-23T09:03:13Z</time>
      </trkpt>
      <trkpt lat="44.22633" lon="6.92934">
        <ele>1609.674659729</ele>
        <time>2019-06-23T09:03:24Z</time>
      </trkpt>
      <trkpt lat="44.22633" lon="6.92931">
        <ele>1609.674659729</ele>
        <time>2019-06-23T09:03:30Z</time>
      </trkpt>
      <trkpt lat="44.22631" lon="6.92931">
        <ele>1609.674659729</ele>
        <time>2019-06-23T09:03:47Z</time>
      </trkpt>
      <trkpt lat="44.22629" lon="6.92933">
        <ele>1609.674659729</ele>
        <time>2019-06-23T09:04:04Z</time>
      </trkpt>
      <trkpt lat="44.22629" lon="6.92936">
        <ele>1609.674659729</ele>
        <time>2019-06-23T09:04:18Z</time>
      </trkpt>
      <trkpt lat="44.22629" lon="6.92938">
        <ele>1609.674659729</ele>
        <time>2019-06-23T09:04:26Z</time>
      </trkpt>
      <trkpt lat="44.22631" lon="6.92936">
        <ele>1609.674659729</ele>
        <time>2019-06-23T09:05:01Z</time>
      </trkpt>
      <trkpt lat="44.22629" lon="6.92934">
        <ele>1609.674659729</ele>
        <time>2019-06-23T09:05:24Z</time>
      </trkpt>
      <trkpt lat="44.22627" lon="6.92934">
        <ele>1609.674659729</ele>
        <time>2019-06-23T09:05:41Z</time>
      </trkpt>
      <trkpt lat="44.22625" lon="6.92936">
        <ele>1609.674659729</ele>
        <time>2019-06-23T09:07:13Z</time>
      </trkpt>
      <trkpt lat="44.22623" lon="6.92937">
        <ele>1609.674659729</ele>
        <time>2019-06-23T09:07:15Z</time>
      </trkpt>
      <trkpt lat="44.22621" lon="6.92936">
        <ele>1609.674659729</ele>
        <time>2019-06-23T09:08:56Z</time>
      </trkpt>
      <trkpt lat="44.2262" lon="6.92938">
        <ele>1609.674659729</ele>
        <time>2019-06-23T09:09:05Z</time>
      </trkpt>
      <trkpt lat="44.22622" lon="6.92938">
        <ele>1609.674659729</ele>
        <time>2019-06-23T09:10:17Z</time>
      </trkpt>
      <trkpt lat="44.22622" lon="6.92942">
        <ele>1609.674659729</ele>
        <time>2019-06-23T09:10:26Z</time>
      </trkpt>
      <trkpt lat="44.2262" lon="6.92944">
        <ele>1609.674659729</ele>
        <time>2019-06-23T09:10:50Z</time>
      </trkpt>
      <trkpt lat="44.2262" lon="6.92945">
        <ele>1609.674659729</ele>
        <time>2019-06-23T09:11:20Z</time>
      </trkpt>
      <trkpt lat="44.22619" lon="6.92942">
        <ele>1609.674659729</ele>
        <time>2019-06-23T09:12:06Z</time>
      </trkpt>
      <trkpt lat="44.22618" lon="6.9294">
        <ele>1609.674659729</ele>
        <time>2019-06-23T09:12:19Z</time>
      </trkpt>
      <trkpt lat="44.22617" lon="6.92938">
        <ele>1609.674659729</ele>
        <time>2019-06-23T09:12:52Z</time>
      </trkpt>
      <trkpt lat="44.22616" lon="6.92937">
        <ele>1609.674659729</ele>
        <time>2019-06-23T09:12:54Z</time>
      </trkpt>
      <trkpt lat="44.22615" lon="6.92934">
        <ele>1609.674659729</ele>
        <time>2019-06-23T09:12:59Z</time>
      </trkpt>
      <trkpt lat="44.22617" lon="6.92936">
        <ele>1609.674659729</ele>
        <time>2019-06-23T09:13:13Z</time>
      </trkpt>
      <trkpt lat="44.22619" lon="6.92936">
        <ele>1609.674659729</ele>
        <time>2019-06-23T09:13:31Z</time>
      </trkpt>
      <trkpt lat="44.22619" lon="6.92939">
        <ele>1609.674659729</ele>
        <time>2019-06-23T09:13:41Z</time>
      </trkpt>
      <trkpt lat="44.22617" lon="6.92939">
        <ele>1609.674659729</ele>
        <time>2019-06-23T09:13:48Z</time>
      </trkpt>
      <trkpt lat="44.22617" lon="6.92937">
        <ele>1609.674659729</ele>
        <time>2019-06-23T09:13:56Z</time>
      </trkpt>
      <trkpt lat="44.22618" lon="6.92934">
        <ele>1609.674659729</ele>
        <time>2019-06-23T09:14:11Z</time>
      </trkpt>
      <trkpt lat="44.2262" lon="6.92934">
        <ele>1609.674659729</ele>
        <time>2019-06-23T09:14:20Z</time>
      </trkpt>
      <trkpt lat="44.22621" lon="6.92934">
        <ele>1609.674659729</ele>
        <time>2019-06-23T09:14:27Z</time>
      </trkpt>
      <trkpt lat="44.22621" lon="6.92937">
        <ele>1609.674659729</ele>
        <time>2019-06-23T09:14:30Z</time>
      </trkpt>
      <trkpt lat="44.22622" lon="6.92939">
        <ele>1609.674659729</ele>
        <time>2019-06-23T09:14:42Z</time>
      </trkpt>
      <trkpt lat="44.22624" lon="6.92939">
        <ele>1609.674659729</ele>
        <time>2019-06-23T09:14:45Z</time>
      </trkpt>
      <trkpt lat="44.22624" lon="6.92942">
        <ele>1609.674659729</ele>
        <time>2019-06-23T09:14:48Z</time>
      </trkpt>
      <trkpt lat="44.22623" lon="6.92939">
        <ele>1609.674659729</ele>
        <time>2019-06-23T09:15:04Z</time>
      </trkpt>
      <trkpt lat="44.22621" lon="6.92938">
        <ele>1609.674659729</ele>
        <time>2019-06-23T09:15:09Z</time>
      </trkpt>
      <trkpt lat="44.2262" lon="6.92936">
        <ele>1609.674659729</ele>
        <time>2019-06-23T09:15:36Z</time>
      </trkpt>
      <trkpt lat="44.2262" lon="6.92933">
        <ele>1609.674659729</ele>
        <time>2019-06-23T09:15:44Z</time>
      </trkpt>
      <trkpt lat="44.2262" lon="6.9293">
        <ele>1609.674659729</ele>
        <time>2019-06-23T09:15:50Z</time>
      </trkpt>
      <trkpt lat="44.22619" lon="6.92928">
        <ele>1609.674659729</ele>
        <time>2019-06-23T09:15:54Z</time>
      </trkpt>
      <trkpt lat="44.2262" lon="6.92926">
        <ele>1609.674659729</ele>
        <time>2019-06-23T09:16:25Z</time>
      </trkpt>
      <trkpt lat="44.22622" lon="6.92924">
        <ele>1609.674659729</ele>
        <time>2019-06-23T09:16:27Z</time>
      </trkpt>
      <trkpt lat="44.22623" lon="6.92921">
        <ele>1609.674659729</ele>
        <time>2019-06-23T09:16:36Z</time>
      </trkpt>
      <trkpt lat="44.22624" lon="6.92918">
        <ele>1609.674659729</ele>
        <time>2019-06-23T09:16:38Z</time>
      </trkpt>
      <trkpt lat="44.22626" lon="6.92916">
        <ele>1609.674659729</ele>
        <time>2019-06-23T09:16:41Z</time>
      </trkpt>
      <trkpt lat="44.22627" lon="6.92914">
        <ele>1609.384952683</ele>
        <time>2019-06-23T09:17:04Z</time>
      </trkpt>
      <trkpt lat="44.22629" lon="6.92914">
        <ele>1609.4004852563</ele>
        <time>2019-06-23T09:17:07Z</time>
      </trkpt>
      <trkpt lat="44.22626" lon="6.92917">
        <ele>1609.5044146704</ele>
        <time>2019-06-23T09:17:12Z</time>
      </trkpt>
      <trkpt lat="44.22624" lon="6.92918">
        <ele>1609.6725727569</ele>
        <time>2019-06-23T09:17:14Z</time>
      </trkpt>
      <trkpt lat="44.22624" lon="6.9292">
        <ele>1609.6746597288</ele>
        <time>2019-06-23T09:17:21Z</time>
      </trkpt>
      <trkpt lat="44.22621" lon="6.92922">
        <ele>1609.674659729</ele>
        <time>2019-06-23T09:17:24Z</time>
      </trkpt>
      <trkpt lat="44.22621" lon="6.92925">
        <ele>1609.674659729</ele>
        <time>2019-06-23T09:17:32Z</time>
      </trkpt>
      <trkpt lat="44.22622" lon="6.92928">
        <ele>1609.674659729</ele>
        <time>2019-06-23T09:18:00Z</time>
      </trkpt>
      <trkpt lat="44.22623" lon="6.9293">
        <ele>1609.674659729</ele>
        <time>2019-06-23T09:18:03Z</time>
      </trkpt>
      <trkpt lat="44.22623" lon="6.92932">
        <ele>1609.674659729</ele>
        <time>2019-06-23T09:18:26Z</time>
      </trkpt>
      <trkpt lat="44.22623" lon="6.92935">
        <ele>1609.674659729</ele>
        <time>2019-06-23T09:18:54Z</time>
      </trkpt>
      <trkpt lat="44.22621" lon="6.92938">
        <ele>1609.674659729</ele>
        <time>2019-06-23T09:19:17Z</time>
      </trkpt>
      <trkpt lat="44.22621" lon="6.92938">
        <ele>1609.674659729</ele>
        <time>2019-06-23T09:19:25Z</time>
      </trkpt>
      <trkpt lat="44.22619" lon="6.9294">
        <ele>1609.674659729</ele>
        <time>2019-06-23T09:19:55Z</time>
      </trkpt>
      <trkpt lat="44.22617" lon="6.92942">
        <ele>1609.674659729</ele>
        <time>2019-06-23T09:20:43Z</time>
      </trkpt>
      <trkpt lat="44.22616" lon="6.92941">
        <ele>1609.674659729</ele>
        <time>2019-06-23T09:20:55Z</time>
      </trkpt>
      <trkpt lat="44.22614" lon="6.92943">
        <ele>1609.674659729</ele>
        <time>2019-06-23T09:21:31Z</time>
      </trkpt>
      <trkpt lat="44.22615" lon="6.92941">
        <ele>1609.674659729</ele>
        <time>2019-06-23T09:21:50Z</time>
      </trkpt>
      <trkpt lat="44.22616" lon="6.92943">
        <ele>1609.674659729</ele>
        <time>2019-06-23T09:21:58Z</time>
      </trkpt>
      <trkpt lat="44.22618" lon="6.92946">
        <ele>1609.4004057144</ele>
        <time>2019-06-23T09:22:02Z</time>
      </trkpt>
      <trkpt lat="44.22618" lon="6.92944">
        <ele>1609.674659729</ele>
        <time>2019-06-23T09:22:33Z</time>
      </trkpt>
      <trkpt lat="44.22619" lon="6.92941">
        <ele>1609.674659729</ele>
        <time>2019-06-23T09:23:04Z</time>
      </trkpt>
      <trkpt lat="44.22618" lon="6.92942">
        <ele>1609.674659729</ele>
        <time>2019-06-23T09:23:09Z</time>
      </trkpt>
      <trkpt lat="44.22617" lon="6.92939">
        <ele>1609.674659729</ele>
        <time>2019-06-23T09:23:11Z</time>
      </trkpt>
      <trkpt lat="44.22615" lon="6.9294">
        <ele>1609.674659729</ele>
        <time>2019-06-23T09:23:14Z</time>
      </trkpt>
      <trkpt lat="44.22615" lon="6.92943">
        <ele>1609.674659729</ele>
        <time>2019-06-23T09:23:17Z</time>
      </trkpt>
      <trkpt lat="44.22613" lon="6.92944">
        <ele>1609.674659729</ele>
        <time>2019-06-23T09:23:45Z</time>
      </trkpt>
      <trkpt lat="44.22611" lon="6.92942">
        <ele>1609.674659729</ele>
        <time>2019-06-23T09:23:50Z</time>
      </trkpt>
      <trkpt lat="44.22614" lon="6.92943">
        <ele>1609.674659729</ele>
        <time>2019-06-23T09:24:10Z</time>
      </trkpt>
      <trkpt lat="44.22614" lon="6.9294">
        <ele>1609.674659729</ele>
        <time>2019-06-23T09:24:16Z</time>
      </trkpt>
      <trkpt lat="44.22616" lon="6.92939">
        <ele>1609.674659729</ele>
        <time>2019-06-23T09:24:23Z</time>
      </trkpt>
      <trkpt lat="44.22617" lon="6.92942">
        <ele>1609.674659729</ele>
        <time>2019-06-23T09:24:27Z</time>
      </trkpt>
      <trkpt lat="44.22616" lon="6.92943">
        <ele>1609.674659729</ele>
        <time>2019-06-23T09:24:29Z</time>
      </trkpt>
      <trkpt lat="44.22617" lon="6.92941">
        <ele>1609.674659729</ele>
        <time>2019-06-23T09:24:32Z</time>
      </trkpt>
      <trkpt lat="44.22619" lon="6.92939">
        <ele>1609.674659729</ele>
        <time>2019-06-23T09:24:52Z</time>
      </trkpt>
      <trkpt lat="44.22618" lon="6.92941">
        <ele>1609.674659729</ele>
        <time>2019-06-23T09:26:23Z</time>
      </trkpt>
      <trkpt lat="44.22619" lon="6.92938">
        <ele>1609.674659729</ele>
        <time>2019-06-23T09:27:12Z</time>
      </trkpt>
      <trkpt lat="44.2262" lon="6.92936">
        <ele>1609.674659729</ele>
        <time>2019-06-23T09:27:21Z</time>
      </trkpt>
      <trkpt lat="44.22619" lon="6.92938">
        <ele>1609.674659729</ele>
        <time>2019-06-23T09:27:37Z</time>
      </trkpt>
      <trkpt lat="44.22618" lon="6.9294">
        <ele>1609.674659729</ele>
        <time>2019-06-23T09:27:51Z</time>
      </trkpt>
      <trkpt lat="44.22619" lon="6.92943">
        <ele>1609.674659729</ele>
        <time>2019-06-23T09:27:55Z</time>
      </trkpt>
      <trkpt lat="44.22621" lon="6.92943">
        <ele>1609.674659729</ele>
        <time>2019-06-23T09:27:59Z</time>
      </trkpt>
      <trkpt lat="44.22623" lon="6.92942">
        <ele>1609.674659729</ele>
        <time>2019-06-23T09:28:01Z</time>
      </trkpt>
      <trkpt lat="44.22625" lon="6.92944">
        <ele>1609.674659729</ele>
        <time>2019-06-23T09:28:07Z</time>
      </trkpt>
      <trkpt lat="44.22625" lon="6.92947">
        <ele>1609.674659729</ele>
        <time>2019-06-23T09:28:10Z</time>
      </trkpt>
      <trkpt lat="44.22628" lon="6.92948">
        <ele>1609.674659729</ele>
        <time>2019-06-23T09:28:12Z</time>
      </trkpt>
      <trkpt lat="44.22631" lon="6.92949">
        <ele>1609.674659729</ele>
        <time>2019-06-23T09:28:15Z</time>
      </trkpt>
      <trkpt lat="44.22633" lon="6.92951">
        <ele>1609.674659729</ele>
        <time>2019-06-23T09:28:17Z</time>
      </trkpt>
      <trkpt lat="44.22634" lon="6.92953">
        <ele>1609.674659729</ele>
        <time>2019-06-23T09:28:19Z</time>
      </trkpt>
      <trkpt lat="44.22636" lon="6.92955">
        <ele>1609.674659729</ele>
        <time>2019-06-23T09:28:22Z</time>
      </trkpt>
      <trkpt lat="44.22637" lon="6.92957">
        <ele>1609.674659729</ele>
        <time>2019-06-23T09:28:24Z</time>
      </trkpt>
      <trkpt lat="44.22639" lon="6.92959">
        <ele>1609.674659729</ele>
        <time>2019-06-23T09:28:26Z</time>
      </trkpt>
      <trkpt lat="44.2264" lon="6.9296">
        <ele>1609.674659729</ele>
        <time>2019-06-23T09:28:29Z</time>
      </trkpt>
      <trkpt lat="44.22642" lon="6.92963">
        <ele>1609.674659729</ele>
        <time>2019-06-23T09:28:31Z</time>
      </trkpt>
      <trkpt lat="44.22643" lon="6.92966">
        <ele>1609.674659729</ele>
        <time>2019-06-23T09:28:33Z</time>
      </trkpt>
      <trkpt lat="44.22644" lon="6.92969">
        <ele>1609.674659729</ele>
        <time>2019-06-23T09:28:35Z</time>
      </trkpt>
      <trkpt lat="44.22645" lon="6.92972">
        <ele>1609.674659729</ele>
        <time>2019-06-23T09:28:37Z</time>
      </trkpt>
      <trkpt lat="44.22645" lon="6.92975">
        <ele>1609.674659729</ele>
        <time>2019-06-23T09:28:40Z</time>
      </trkpt>
      <trkpt lat="44.22645" lon="6.92978">
        <ele>1609.674659729</ele>
        <time>2019-06-23T09:28:42Z</time>
      </trkpt>
      <trkpt lat="44.22646" lon="6.92982">
        <ele>1609.674659729</ele>
        <time>2019-06-23T09:28:45Z</time>
      </trkpt>
      <trkpt lat="44.22647" lon="6.92984">
        <ele>1609.674659729</ele>
        <time>2019-06-23T09:28:47Z</time>
      </trkpt>
      <trkpt lat="44.22649" lon="6.92987">
        <ele>1609.674659729</ele>
        <time>2019-06-23T09:28:50Z</time>
      </trkpt>
      <trkpt lat="44.2265" lon="6.92989">
        <ele>1609.674659729</ele>
        <time>2019-06-23T09:28:53Z</time>
      </trkpt>
      <trkpt lat="44.22651" lon="6.92992">
        <ele>1609.674659729</ele>
        <time>2019-06-23T09:28:55Z</time>
      </trkpt>
      <trkpt lat="44.22652" lon="6.92994">
        <ele>1609.674659729</ele>
        <time>2019-06-23T09:28:57Z</time>
      </trkpt>
      <trkpt lat="44.22653" lon="6.92997">
        <ele>1609.674659729</ele>
        <time>2019-06-23T09:28:59Z</time>
      </trkpt>
      <trkpt lat="44.22654" lon="6.93">
        <ele>1609.674659729</ele>
        <time>2019-06-23T09:29:02Z</time>
      </trkpt>
      <trkpt lat="44.22654" lon="6.93001">
        <ele>1609.674659729</ele>
        <time>2019-06-23T09:29:03Z</time>
      </trkpt>
      <trkpt lat="44.22655" lon="6.93004">
        <ele>1609.674659729</ele>
        <time>2019-06-23T09:29:05Z</time>
      </trkpt>
      <trkpt lat="44.22656" lon="6.93006">
        <ele>1609.674659729</ele>
        <time>2019-06-23T09:29:07Z</time>
      </trkpt>
      <trkpt lat="44.22657" lon="6.9301">
        <ele>1609.674659729</ele>
        <time>2019-06-23T09:29:09Z</time>
      </trkpt>
      <trkpt lat="44.22659" lon="6.9301">
        <ele>1609.674659729</ele>
        <time>2019-06-23T09:29:11Z</time>
      </trkpt>
      <trkpt lat="44.22661" lon="6.9301">
        <ele>1609.674659729</ele>
        <time>2019-06-23T09:29:13Z</time>
      </trkpt>
      <trkpt lat="44.22663" lon="6.93009">
        <ele>1609.674659729</ele>
        <time>2019-06-23T09:29:17Z</time>
      </trkpt>
      <trkpt lat="44.22666" lon="6.9301">
        <ele>1609.674659729</ele>
        <time>2019-06-23T09:29:20Z</time>
      </trkpt>
      <trkpt lat="44.22669" lon="6.93008">
        <ele>1609.7052017212</ele>
        <time>2019-06-23T09:29:23Z</time>
      </trkpt>
      <trkpt lat="44.22671" lon="6.93008">
        <ele>1610.5321567017</ele>
        <time>2019-06-23T09:29:26Z</time>
      </trkpt>
      <trkpt lat="44.22673" lon="6.9301">
        <ele>1611.2868430972</ele>
        <time>2019-06-23T09:29:28Z</time>
      </trkpt>
      <trkpt lat="44.22675" lon="6.93012">
        <ele>1611.901516426</ele>
        <time>2019-06-23T09:29:30Z</time>
      </trkpt>
      <trkpt lat="44.22676" lon="6.93015">
        <ele>1612.3093013428</ele>
        <time>2019-06-23T09:29:32Z</time>
      </trkpt>
      <trkpt lat="44.22677" lon="6.93017">
        <ele>1612.7426150493</ele>
        <time>2019-06-23T09:29:35Z</time>
      </trkpt>
      <trkpt lat="44.22679" lon="6.93019">
        <ele>1613.0353502685</ele>
        <time>2019-06-23T09:29:37Z</time>
      </trkpt>
      <trkpt lat="44.2268" lon="6.93021">
        <ele>1613.5283887047</ele>
        <time>2019-06-23T09:29:39Z</time>
      </trkpt>
      <trkpt lat="44.22682" lon="6.93024">
        <ele>1613.6752404758</ele>
        <time>2019-06-23T09:29:41Z</time>
      </trkpt>
      <trkpt lat="44.22683" lon="6.93025">
        <ele>1614.2934814544</ele>
        <time>2019-06-23T09:29:43Z</time>
      </trkpt>
      <trkpt lat="44.22685" lon="6.93027">
        <ele>1614.6594990693</ele>
        <time>2019-06-23T09:29:45Z</time>
      </trkpt>
      <trkpt lat="44.22687" lon="6.93029">
        <ele>1615.2467420091</ele>
        <time>2019-06-23T09:29:47Z</time>
      </trkpt>
      <trkpt lat="44.22689" lon="6.93032">
        <ele>1615.4320651221</ele>
        <time>2019-06-23T09:29:49Z</time>
      </trkpt>
      <trkpt lat="44.22691" lon="6.93035">
        <ele>1615.362056781</ele>
        <time>2019-06-23T09:29:51Z</time>
      </trkpt>
      <trkpt lat="44.22693" lon="6.93037">
        <ele>1615.0961687093</ele>
        <time>2019-06-23T09:29:53Z</time>
      </trkpt>
      <trkpt lat="44.22694" lon="6.9304">
        <ele>1614.5256045551</ele>
        <time>2019-06-23T09:29:55Z</time>
      </trkpt>
      <trkpt lat="44.22695" lon="6.93044">
        <ele>1613.577943291</ele>
        <time>2019-06-23T09:29:58Z</time>
      </trkpt>
      <trkpt lat="44.22698" lon="6.93046">
        <ele>1613.2018956896</ele>
        <time>2019-06-23T09:30:00Z</time>
      </trkpt>
      <trkpt lat="44.227" lon="6.93048">
        <ele>1612.898259963</ele>
        <time>2019-06-23T09:30:03Z</time>
      </trkpt>
      <trkpt lat="44.22701" lon="6.9305">
        <ele>1612.8019091591</ele>
        <time>2019-06-23T09:30:05Z</time>
      </trkpt>
      <trkpt lat="44.22703" lon="6.93054">
        <ele>1612.6677524325</ele>
        <time>2019-06-23T09:30:08Z</time>
      </trkpt>
      <trkpt lat="44.22705" lon="6.93056">
        <ele>1612.5770129934</ele>
        <time>2019-06-23T09:30:12Z</time>
      </trkpt>
      <trkpt lat="44.22706" lon="6.93057">
        <ele>1612.9376737402</ele>
        <time>2019-06-23T09:30:14Z</time>
      </trkpt>
      <trkpt lat="44.22708" lon="6.9306">
        <ele>1613.2093028086</ele>
        <time>2019-06-23T09:30:16Z</time>
      </trkpt>
      <trkpt lat="44.22708" lon="6.93063">
        <ele>1613.5674446162</ele>
        <time>2019-06-23T09:30:19Z</time>
      </trkpt>
      <trkpt lat="44.22708" lon="6.93067">
        <ele>1613.5392481926</ele>
        <time>2019-06-23T09:30:22Z</time>
      </trkpt>
      <trkpt lat="44.22709" lon="6.9307">
        <ele>1613.7913976547</ele>
        <time>2019-06-23T09:30:24Z</time>
      </trkpt>
      <trkpt lat="44.2271" lon="6.93073">
        <ele>1613.9325168234</ele>
        <time>2019-06-23T09:30:27Z</time>
      </trkpt>
      <trkpt lat="44.22711" lon="6.93076">
        <ele>1614.3910090519</ele>
        <time>2019-06-23T09:30:29Z</time>
      </trkpt>
      <trkpt lat="44.22711" lon="6.93079">
        <ele>1614.5125672404</ele>
        <time>2019-06-23T09:30:32Z</time>
      </trkpt>
      <trkpt lat="44.22712" lon="6.93082">
        <ele>1614.6092741557</ele>
        <time>2019-06-23T09:30:34Z</time>
      </trkpt>
      <trkpt lat="44.22712" lon="6.93086">
        <ele>1614.787099135</ele>
        <time>2019-06-23T09:30:36Z</time>
      </trkpt>
      <trkpt lat="44.22713" lon="6.9309">
        <ele>1614.6496146895</ele>
        <time>2019-06-23T09:30:38Z</time>
      </trkpt>
      <trkpt lat="44.22714" lon="6.93094">
        <ele>1615.1567859876</ele>
        <time>2019-06-23T09:30:40Z</time>
      </trkpt>
      <trkpt lat="44.22714" lon="6.93097">
        <ele>1615.2408713724</ele>
        <time>2019-06-23T09:30:42Z</time>
      </trkpt>
      <trkpt lat="44.22714" lon="6.931">
        <ele>1615.3000496286</ele>
        <time>2019-06-23T09:30:44Z</time>
      </trkpt>
      <trkpt lat="44.22716" lon="6.93103">
        <ele>1615.6889202198</ele>
        <time>2019-06-23T09:30:46Z</time>
      </trkpt>
      <trkpt lat="44.22717" lon="6.93106">
        <ele>1615.941890957</ele>
        <time>2019-06-23T09:30:48Z</time>
      </trkpt>
      <trkpt lat="44.22718" lon="6.9311">
        <ele>1616.307255137</ele>
        <time>2019-06-23T09:30:50Z</time>
      </trkpt>
      <trkpt lat="44.22718" lon="6.93111">
        <ele>1616.4522503245</ele>
        <time>2019-06-23T09:30:51Z</time>
      </trkpt>
      <trkpt lat="44.22718" lon="6.93114">
        <ele>1616.5146543606</ele>
        <time>2019-06-23T09:30:54Z</time>
      </trkpt>
      <trkpt lat="44.22718" lon="6.93118">
        <ele>1616.4071465894</ele>
        <time>2019-06-23T09:30:56Z</time>
      </trkpt>
      <trkpt lat="44.22718" lon="6.93121">
        <ele>1616.5945639433</ele>
        <time>2019-06-23T09:30:58Z</time>
      </trkpt>
      <trkpt lat="44.22718" lon="6.93124">
        <ele>1616.6054563028</ele>
        <time>2019-06-23T09:30:59Z</time>
      </trkpt>
      <trkpt lat="44.22717" lon="6.93126">
        <ele>1616.3885098371</ele>
        <time>2019-06-23T09:31:02Z</time>
      </trkpt>
      <trkpt lat="44.22717" lon="6.9313">
        <ele>1616.2618104371</ele>
        <time>2019-06-23T09:31:04Z</time>
      </trkpt>
      <trkpt lat="44.22716" lon="6.93132">
        <ele>1616.0458925642</ele>
        <time>2019-06-23T09:31:06Z</time>
      </trkpt>
      <trkpt lat="44.22717" lon="6.93136">
        <ele>1616.2112357195</ele>
        <time>2019-06-23T09:31:10Z</time>
      </trkpt>
      <trkpt lat="44.22718" lon="6.93138">
        <ele>1616.2330292421</ele>
        <time>2019-06-23T09:31:11Z</time>
      </trkpt>
      <trkpt lat="44.22717" lon="6.93142">
        <ele>1616.4204912269</ele>
        <time>2019-06-23T09:31:13Z</time>
      </trkpt>
      <trkpt lat="44.22717" lon="6.93145">
        <ele>1616.1191431905</ele>
        <time>2019-06-23T09:31:15Z</time>
      </trkpt>
      <trkpt lat="44.22717" lon="6.93148">
        <ele>1616.2991839093</ele>
        <time>2019-06-23T09:31:17Z</time>
      </trkpt>
      <trkpt lat="44.22716" lon="6.93151">
        <ele>1616.0288859278</ele>
        <time>2019-06-23T09:31:19Z</time>
      </trkpt>
      <trkpt lat="44.22717" lon="6.93154">
        <ele>1616.0168775281</ele>
        <time>2019-06-23T09:31:21Z</time>
      </trkpt>
      <trkpt lat="44.22718" lon="6.93157">
        <ele>1616.5433541238</ele>
        <time>2019-06-23T09:31:23Z</time>
      </trkpt>
      <trkpt lat="44.2272" lon="6.93161">
        <ele>1616.5102546319</ele>
        <time>2019-06-23T09:31:25Z</time>
      </trkpt>
      <trkpt lat="44.22722" lon="6.93161">
        <ele>1617.2616741253</ele>
        <time>2019-06-23T09:31:27Z</time>
      </trkpt>
      <trkpt lat="44.22724" lon="6.93163">
        <ele>1617.7709009667</ele>
        <time>2019-06-23T09:31:29Z</time>
      </trkpt>
      <trkpt lat="44.22726" lon="6.93164">
        <ele>1617.7772566629</ele>
        <time>2019-06-23T09:31:31Z</time>
      </trkpt>
      <trkpt lat="44.22728" lon="6.93165">
        <ele>1617.7773144419</ele>
        <time>2019-06-23T09:31:32Z</time>
      </trkpt>
      <trkpt lat="44.2273" lon="6.93167">
        <ele>1617.7773202198</ele>
        <time>2019-06-23T09:31:33Z</time>
      </trkpt>
      <trkpt lat="44.22732" lon="6.93169">
        <ele>1617.7773208612</ele>
        <time>2019-06-23T09:31:36Z</time>
      </trkpt>
      <trkpt lat="44.22734" lon="6.93169">
        <ele>1617.7773208618</ele>
        <time>2019-06-23T09:31:37Z</time>
      </trkpt>
      <trkpt lat="44.22736" lon="6.9317">
        <ele>1617.7773208618</ele>
        <time>2019-06-23T09:31:39Z</time>
      </trkpt>
      <trkpt lat="44.22739" lon="6.93168">
        <ele>1617.7773208618</ele>
        <time>2019-06-23T09:31:41Z</time>
      </trkpt>
      <trkpt lat="44.2274" lon="6.93166">
        <ele>1617.7773208618</ele>
        <time>2019-06-23T09:31:43Z</time>
      </trkpt>
      <trkpt lat="44.22743" lon="6.93168">
        <ele>1617.7773208618</ele>
        <time>2019-06-23T09:31:46Z</time>
      </trkpt>
      <trkpt lat="44.22744" lon="6.93165">
        <ele>1617.7773208618</ele>
        <time>2019-06-23T09:31:49Z</time>
      </trkpt>
      <trkpt lat="44.22742" lon="6.93161">
        <ele>1617.7773208618</ele>
        <time>2019-06-23T09:31:52Z</time>
      </trkpt>
      <trkpt lat="44.22741" lon="6.93157">
        <ele>1617.7773208618</ele>
        <time>2019-06-23T09:31:54Z</time>
      </trkpt>
      <trkpt lat="44.22741" lon="6.93154">
        <ele>1617.7773208618</ele>
        <time>2019-06-23T09:31:56Z</time>
      </trkpt>
      <trkpt lat="44.22741" lon="6.93151">
        <ele>1617.7773208618</ele>
        <time>2019-06-23T09:31:58Z</time>
      </trkpt>
      <trkpt lat="44.2274" lon="6.93148">
        <ele>1617.7773208618</ele>
        <time>2019-06-23T09:32:00Z</time>
      </trkpt>
      <trkpt lat="44.22739" lon="6.93146">
        <ele>1617.7773208618</ele>
        <time>2019-06-23T09:32:02Z</time>
      </trkpt>
      <trkpt lat="44.22739" lon="6.93142">
        <ele>1617.7773208618</ele>
        <time>2019-06-23T09:32:04Z</time>
      </trkpt>
      <trkpt lat="44.22739" lon="6.9314">
        <ele>1617.7773208618</ele>
        <time>2019-06-23T09:32:06Z</time>
      </trkpt>
      <trkpt lat="44.2274" lon="6.93137">
        <ele>1617.7773208618</ele>
        <time>2019-06-23T09:32:07Z</time>
      </trkpt>
      <trkpt lat="44.22741" lon="6.93134">
        <ele>1617.7773208618</ele>
        <time>2019-06-23T09:32:09Z</time>
      </trkpt>
      <trkpt lat="44.22742" lon="6.9313">
        <ele>1617.7773208618</ele>
        <time>2019-06-23T09:32:11Z</time>
      </trkpt>
      <trkpt lat="44.22742" lon="6.93127">
        <ele>1617.7773208618</ele>
        <time>2019-06-23T09:32:13Z</time>
      </trkpt>
      <trkpt lat="44.22743" lon="6.93124">
        <ele>1617.7773208618</ele>
        <time>2019-06-23T09:32:15Z</time>
      </trkpt>
      <trkpt lat="44.22743" lon="6.9312">
        <ele>1617.7773208618</ele>
        <time>2019-06-23T09:32:17Z</time>
      </trkpt>
      <trkpt lat="44.22744" lon="6.93116">
        <ele>1617.7773208618</ele>
        <time>2019-06-23T09:32:20Z</time>
      </trkpt>
      <trkpt lat="44.22745" lon="6.93114">
        <ele>1617.7773208618</ele>
        <time>2019-06-23T09:32:22Z</time>
      </trkpt>
      <trkpt lat="44.22745" lon="6.93111">
        <ele>1617.7773208618</ele>
        <time>2019-06-23T09:32:24Z</time>
      </trkpt>
      <trkpt lat="44.22745" lon="6.93108">
        <ele>1617.7773208618</ele>
        <time>2019-06-23T09:32:27Z</time>
      </trkpt>
      <trkpt lat="44.22747" lon="6.93105">
        <ele>1617.7773208618</ele>
        <time>2019-06-23T09:32:29Z</time>
      </trkpt>
      <trkpt lat="44.22745" lon="6.93103">
        <ele>1617.7773208618</ele>
        <time>2019-06-23T09:32:32Z</time>
      </trkpt>
      <trkpt lat="44.22745" lon="6.931">
        <ele>1617.7773208618</ele>
        <time>2019-06-23T09:32:34Z</time>
      </trkpt>
      <trkpt lat="44.22746" lon="6.93096">
        <ele>1617.7773208618</ele>
        <time>2019-06-23T09:32:36Z</time>
      </trkpt>
      <trkpt lat="44.22747" lon="6.93091">
        <ele>1617.7773208618</ele>
        <time>2019-06-23T09:32:38Z</time>
      </trkpt>
      <trkpt lat="44.22747" lon="6.93089">
        <ele>1617.7773208618</ele>
        <time>2019-06-23T09:32:39Z</time>
      </trkpt>
      <trkpt lat="44.22747" lon="6.93086">
        <ele>1617.7773208618</ele>
        <time>2019-06-23T09:32:41Z</time>
      </trkpt>
      <trkpt lat="44.22748" lon="6.93082">
        <ele>1617.7773208618</ele>
        <time>2019-06-23T09:32:43Z</time>
      </trkpt>
      <trkpt lat="44.22749" lon="6.93079">
        <ele>1617.7773208618</ele>
        <time>2019-06-23T09:32:45Z</time>
      </trkpt>
      <trkpt lat="44.2275" lon="6.93077">
        <ele>1617.7773208618</ele>
        <time>2019-06-23T09:32:47Z</time>
      </trkpt>
      <trkpt lat="44.22752" lon="6.93074">
        <ele>1618.003298645</ele>
        <time>2019-06-23T09:32:49Z</time>
      </trkpt>
      <trkpt lat="44.22755" lon="6.93072">
        <ele>1618.6400230359</ele>
        <time>2019-06-23T09:32:52Z</time>
      </trkpt>
      <trkpt lat="44.22757" lon="6.93072">
        <ele>1619.4090789871</ele>
        <time>2019-06-23T09:32:54Z</time>
      </trkpt>
      <trkpt lat="44.2276" lon="6.93071">
        <ele>1620.2442817536</ele>
        <time>2019-06-23T09:32:56Z</time>
      </trkpt>
      <trkpt lat="44.22763" lon="6.93072">
        <ele>1620.9587302055</ele>
        <time>2019-06-23T09:32:59Z</time>
      </trkpt>
      <trkpt lat="44.22765" lon="6.93073">
        <ele>1621.7475873542</ele>
        <time>2019-06-23T09:33:02Z</time>
      </trkpt>
      <trkpt lat="44.22767" lon="6.93074">
        <ele>1622.3295369545</ele>
        <time>2019-06-23T09:33:04Z</time>
      </trkpt>
      <trkpt lat="44.22768" lon="6.93075">
        <ele>1622.9102710013</ele>
        <time>2019-06-23T09:33:06Z</time>
      </trkpt>
      <trkpt lat="44.22771" lon="6.93074">
        <ele>1623.4508598359</ele>
        <time>2019-06-23T09:33:08Z</time>
      </trkpt>
      <trkpt lat="44.22772" lon="6.93074">
        <ele>1624.0223692398</ele>
        <time>2019-06-23T09:33:10Z</time>
      </trkpt>
      <trkpt lat="44.22774" lon="6.93072">
        <ele>1624.5894857011</ele>
        <time>2019-06-23T09:33:12Z</time>
      </trkpt>
      <trkpt lat="44.22777" lon="6.93071">
        <ele>1625.1951861626</ele>
        <time>2019-06-23T09:33:14Z</time>
      </trkpt>
      <trkpt lat="44.22779" lon="6.93071">
        <ele>1625.7862651398</ele>
        <time>2019-06-23T09:33:16Z</time>
      </trkpt>
      <trkpt lat="44.22781" lon="6.9307">
        <ele>1625.8791656757</ele>
        <time>2019-06-23T09:33:18Z</time>
      </trkpt>
      <trkpt lat="44.22782" lon="6.93069">
        <ele>1625.880094681</ele>
        <time>2019-06-23T09:33:20Z</time>
      </trkpt>
      <trkpt lat="44.22785" lon="6.93068">
        <ele>1625.8801039711</ele>
        <time>2019-06-23T09:33:22Z</time>
      </trkpt>
      <trkpt lat="44.22788" lon="6.93066">
        <ele>1625.880104064</ele>
        <time>2019-06-23T09:33:24Z</time>
      </trkpt>
      <trkpt lat="44.22789" lon="6.93062">
        <ele>1625.8801040649</ele>
        <time>2019-06-23T09:33:26Z</time>
      </trkpt>
      <trkpt lat="44.22789" lon="6.93059">
        <ele>1625.8801040649</ele>
        <time>2019-06-23T09:33:27Z</time>
      </trkpt>
      <trkpt lat="44.22791" lon="6.93056">
        <ele>1625.8801040649</ele>
        <time>2019-06-23T09:33:29Z</time>
      </trkpt>
      <trkpt lat="44.22793" lon="6.93054">
        <ele>1625.8801040649</ele>
        <time>2019-06-23T09:33:31Z</time>
      </trkpt>
      <trkpt lat="44.22793" lon="6.9305">
        <ele>1625.8801040649</ele>
        <time>2019-06-23T09:33:34Z</time>
      </trkpt>
      <trkpt lat="44.22793" lon="6.93046">
        <ele>1625.8801040649</ele>
        <time>2019-06-23T09:33:36Z</time>
      </trkpt>
      <trkpt lat="44.22794" lon="6.93044">
        <ele>1625.8801040649</ele>
        <time>2019-06-23T09:33:38Z</time>
      </trkpt>
      <trkpt lat="44.22794" lon="6.93041">
        <ele>1625.8801040649</ele>
        <time>2019-06-23T09:33:40Z</time>
      </trkpt>
      <trkpt lat="44.22795" lon="6.93038">
        <ele>1625.8801040649</ele>
        <time>2019-06-23T09:33:42Z</time>
      </trkpt>
      <trkpt lat="44.22795" lon="6.93034">
        <ele>1625.8801040649</ele>
        <time>2019-06-23T09:33:45Z</time>
      </trkpt>
      <trkpt lat="44.22794" lon="6.93029">
        <ele>1625.8801040649</ele>
        <time>2019-06-23T09:33:48Z</time>
      </trkpt>
      <trkpt lat="44.22795" lon="6.93026">
        <ele>1626.0610488892</ele>
        <time>2019-06-23T09:33:50Z</time>
      </trkpt>
      <trkpt lat="44.22797" lon="6.93023">
        <ele>1626.8172125854</ele>
        <time>2019-06-23T09:33:52Z</time>
      </trkpt>
      <trkpt lat="44.22798" lon="6.93023">
        <ele>1627.3183020544</ele>
        <time>2019-06-23T09:33:54Z</time>
      </trkpt>
      <trkpt lat="44.228" lon="6.93021">
        <ele>1627.3698180761</ele>
        <time>2019-06-23T09:33:56Z</time>
      </trkpt>
      <trkpt lat="44.22802" lon="6.93018">
        <ele>1628.2964037929</ele>
        <time>2019-06-23T09:33:58Z</time>
      </trkpt>
      <trkpt lat="44.22803" lon="6.93017">
        <ele>1628.7506524948</ele>
        <time>2019-06-23T09:33:59Z</time>
      </trkpt>
      <trkpt lat="44.22803" lon="6.93015">
        <ele>1629.5157248575</ele>
        <time>2019-06-23T09:34:02Z</time>
      </trkpt>
      <trkpt lat="44.22806" lon="6.93016">
        <ele>1629.777896424</ele>
        <time>2019-06-23T09:34:05Z</time>
      </trkpt>
      <trkpt lat="44.22808" lon="6.93017">
        <ele>1629.3475854065</ele>
        <time>2019-06-23T09:34:07Z</time>
      </trkpt>
      <trkpt lat="44.2281" lon="6.93018">
        <ele>1629.2000821796</ele>
        <time>2019-06-23T09:34:08Z</time>
      </trkpt>
      <trkpt lat="44.22812" lon="6.93021">
        <ele>1628.4395440805</ele>
        <time>2019-06-23T09:34:10Z</time>
      </trkpt>
      <trkpt lat="44.22814" lon="6.93022">
        <ele>1628.0002082227</ele>
        <time>2019-06-23T09:34:11Z</time>
      </trkpt>
      <trkpt lat="44.22816" lon="6.93024">
        <ele>1627.2952943643</ele>
        <time>2019-06-23T09:34:13Z</time>
      </trkpt>
      <trkpt lat="44.22819" lon="6.93027">
        <ele>1626.7478826769</ele>
        <time>2019-06-23T09:34:15Z</time>
      </trkpt>
      <trkpt lat="44.22821" lon="6.9303">
        <ele>1626.0381959136</ele>
        <time>2019-06-23T09:34:17Z</time>
      </trkpt>
      <trkpt lat="44.22823" lon="6.93033">
        <ele>1626.5252750713</ele>
        <time>2019-06-23T09:34:19Z</time>
      </trkpt>
      <trkpt lat="44.22824" lon="6.93036">
        <ele>1626.830338939</ele>
        <time>2019-06-23T09:34:20Z</time>
      </trkpt>
      <trkpt lat="44.22825" lon="6.93038">
        <ele>1627.545476775</ele>
        <time>2019-06-23T09:34:22Z</time>
      </trkpt>
      <trkpt lat="44.22826" lon="6.93042">
        <ele>1628.3509057413</ele>
        <time>2019-06-23T09:34:24Z</time>
      </trkpt>
      <trkpt lat="44.22828" lon="6.93045">
        <ele>1629.2940833219</ele>
        <time>2019-06-23T09:34:26Z</time>
      </trkpt>
      <trkpt lat="44.22829" lon="6.93048">
        <ele>1630.3240790626</ele>
        <time>2019-06-23T09:34:28Z</time>
      </trkpt>
      <trkpt lat="44.2283" lon="6.93052">
        <ele>1631.4269638114</ele>
        <time>2019-06-23T09:34:31Z</time>
      </trkpt>
      <trkpt lat="44.22831" lon="6.93056">
        <ele>1632.7324513245</ele>
        <time>2019-06-23T09:34:33Z</time>
      </trkpt>
      <trkpt lat="44.2283" lon="6.9306">
        <ele>1633.2536788071</ele>
        <time>2019-06-23T09:34:35Z</time>
      </trkpt>
      <trkpt lat="44.2283" lon="6.93063">
        <ele>1633.0161591483</ele>
        <time>2019-06-23T09:34:37Z</time>
      </trkpt>
      <trkpt lat="44.22829" lon="6.93066">
        <ele>1632.8792453775</ele>
        <time>2019-06-23T09:34:39Z</time>
      </trkpt>
      <trkpt lat="44.22829" lon="6.9307">
        <ele>1632.8272951851</ele>
        <time>2019-06-23T09:34:41Z</time>
      </trkpt>
      <trkpt lat="44.22829" lon="6.93073">
        <ele>1632.8368281734</ele>
        <time>2019-06-23T09:34:43Z</time>
      </trkpt>
      <trkpt lat="44.22828" lon="6.93076">
        <ele>1632.4786082744</ele>
        <time>2019-06-23T09:34:46Z</time>
      </trkpt>
      <trkpt lat="44.22826" lon="6.93081">
        <ele>1632.2483413043</ele>
        <time>2019-06-23T09:34:48Z</time>
      </trkpt>
      <trkpt lat="44.22826" lon="6.93083">
        <ele>1631.8347874139</ele>
        <time>2019-06-23T09:34:50Z</time>
      </trkpt>
      <trkpt lat="44.22827" lon="6.93085">
        <ele>1631.7491123995</ele>
        <time>2019-06-23T09:34:54Z</time>
      </trkpt>
      <trkpt lat="44.22827" lon="6.93089">
        <ele>1632.0219350174</ele>
        <time>2019-06-23T09:34:56Z</time>
      </trkpt>
      <trkpt lat="44.22825" lon="6.9309">
        <ele>1632.004370168</ele>
        <time>2019-06-23T09:34:57Z</time>
      </trkpt>
      <trkpt lat="44.22824" lon="6.93093">
        <ele>1631.6489637807</ele>
        <time>2019-06-23T09:34:58Z</time>
      </trkpt>
      <trkpt lat="44.22824" lon="6.93096">
        <ele>1631.3967727514</ele>
        <time>2019-06-23T09:34:59Z</time>
      </trkpt>
      <trkpt lat="44.22822" lon="6.93099">
        <ele>1630.9885861815</ele>
        <time>2019-06-23T09:35:01Z</time>
      </trkpt>
      <trkpt lat="44.22823" lon="6.93104">
        <ele>1630.784620506</ele>
        <time>2019-06-23T09:35:04Z</time>
      </trkpt>
      <trkpt lat="44.22823" lon="6.93107">
        <ele>1631.0587866805</ele>
        <time>2019-06-23T09:35:06Z</time>
      </trkpt>
      <trkpt lat="44.22823" lon="6.93111">
        <ele>1630.9125858481</ele>
        <time>2019-06-23T09:35:09Z</time>
      </trkpt>
      <trkpt lat="44.22824" lon="6.93115">
        <ele>1631.2419635731</ele>
        <time>2019-06-23T09:35:12Z</time>
      </trkpt>
      <trkpt lat="44.22825" lon="6.93117">
        <ele>1631.4949470253</ele>
        <time>2019-06-23T09:35:14Z</time>
      </trkpt>
      <trkpt lat="44.22827" lon="6.93121">
        <ele>1631.7562048871</ele>
        <time>2019-06-23T09:35:16Z</time>
      </trkpt>
      <trkpt lat="44.22828" lon="6.93124">
        <ele>1632.0850015478</ele>
        <time>2019-06-23T09:35:18Z</time>
      </trkpt>
      <trkpt lat="44.22829" lon="6.93127">
        <ele>1632.4971912866</ele>
        <time>2019-06-23T09:35:21Z</time>
      </trkpt>
      <trkpt lat="44.2283" lon="6.9313">
        <ele>1632.901246861</ele>
        <time>2019-06-23T09:35:23Z</time>
      </trkpt>
      <trkpt lat="44.22831" lon="6.93131">
        <ele>1633.1745403464</ele>
        <time>2019-06-23T09:35:25Z</time>
      </trkpt>
      <trkpt lat="44.22834" lon="6.93132">
        <ele>1633.8508900784</ele>
        <time>2019-06-23T09:35:28Z</time>
      </trkpt>
      <trkpt lat="44.22836" lon="6.93132">
        <ele>1633.9814464466</ele>
        <time>2019-06-23T09:35:30Z</time>
      </trkpt>
      <trkpt lat="44.22838" lon="6.93134">
        <ele>1633.9826333226</ele>
        <time>2019-06-23T09:35:31Z</time>
      </trkpt>
      <trkpt lat="44.22841" lon="6.93134">
        <ele>1633.982763879</ele>
        <time>2019-06-23T09:35:33Z</time>
      </trkpt>
      <trkpt lat="44.22844" lon="6.93133">
        <ele>1633.9827651846</ele>
        <time>2019-06-23T09:35:35Z</time>
      </trkpt>
      <trkpt lat="44.22846" lon="6.93133">
        <ele>1633.9827651976</ele>
        <time>2019-06-23T09:35:37Z</time>
      </trkpt>
      <trkpt lat="44.22848" lon="6.93131">
        <ele>1633.9827651978</ele>
        <time>2019-06-23T09:35:39Z</time>
      </trkpt>
      <trkpt lat="44.22849" lon="6.93129">
        <ele>1633.9827651978</ele>
        <time>2019-06-23T09:35:41Z</time>
      </trkpt>
      <trkpt lat="44.2285" lon="6.93127">
        <ele>1633.9827651978</ele>
        <time>2019-06-23T09:35:43Z</time>
      </trkpt>
      <trkpt lat="44.22852" lon="6.93124">
        <ele>1633.9827651978</ele>
        <time>2019-06-23T09:35:46Z</time>
      </trkpt>
      <trkpt lat="44.22854" lon="6.93122">
        <ele>1633.9827651978</ele>
        <time>2019-06-23T09:35:48Z</time>
      </trkpt>
      <trkpt lat="44.22856" lon="6.93119">
        <ele>1633.9827651978</ele>
        <time>2019-06-23T09:35:50Z</time>
      </trkpt>
      <trkpt lat="44.22858" lon="6.93116">
        <ele>1633.9827651978</ele>
        <time>2019-06-23T09:35:52Z</time>
      </trkpt>
      <trkpt lat="44.22859" lon="6.93111">
        <ele>1633.9827651978</ele>
        <time>2019-06-23T09:35:54Z</time>
      </trkpt>
      <trkpt lat="44.22862" lon="6.9311">
        <ele>1633.9827651978</ele>
        <time>2019-06-23T09:35:56Z</time>
      </trkpt>
      <trkpt lat="44.22864" lon="6.93107">
        <ele>1634.3409414673</ele>
        <time>2019-06-23T09:35:58Z</time>
      </trkpt>
      <trkpt lat="44.22865" lon="6.93105">
        <ele>1634.8855449585</ele>
        <time>2019-06-23T09:36:00Z</time>
      </trkpt>
      <trkpt lat="44.22865" lon="6.93102">
        <ele>1635.1072568625</ele>
        <time>2019-06-23T09:36:02Z</time>
      </trkpt>
      <trkpt lat="44.22867" lon="6.93099">
        <ele>1635.5172095773</ele>
        <time>2019-06-23T09:36:04Z</time>
      </trkpt>
      <trkpt lat="44.22868" lon="6.93097">
        <ele>1635.7079118876</ele>
        <time>2019-06-23T09:36:06Z</time>
      </trkpt>
      <trkpt lat="44.2287" lon="6.93095">
        <ele>1636.2632222311</ele>
        <time>2019-06-23T09:36:08Z</time>
      </trkpt>
      <trkpt lat="44.22872" lon="6.93093">
        <ele>1636.8100387622</ele>
        <time>2019-06-23T09:36:10Z</time>
      </trkpt>
      <trkpt lat="44.22874" lon="6.9309">
        <ele>1637.358802826</ele>
        <time>2019-06-23T09:36:12Z</time>
      </trkpt>
      <trkpt lat="44.22876" lon="6.93089">
        <ele>1637.7816116364</ele>
        <time>2019-06-23T09:36:13Z</time>
      </trkpt>
      <trkpt lat="44.22879" lon="6.93088">
        <ele>1638.7549602051</ele>
        <time>2019-06-23T09:36:15Z</time>
      </trkpt>
      <trkpt lat="44.22881" lon="6.93085">
        <ele>1639.3792908588</ele>
        <time>2019-06-23T09:36:17Z</time>
      </trkpt>
      <trkpt lat="44.22882" lon="6.93084">
        <ele>1639.8229658059</ele>
        <time>2019-06-23T09:36:19Z</time>
      </trkpt>
      <trkpt lat="44.22884" lon="6.93082">
        <ele>1640.3163600749</ele>
        <time>2019-06-23T09:36:21Z</time>
      </trkpt>
      <trkpt lat="44.22885" lon="6.93079">
        <ele>1640.7974911266</ele>
        <time>2019-06-23T09:36:24Z</time>
      </trkpt>
      <trkpt lat="44.22885" lon="6.93075">
        <ele>1640.8876275449</ele>
        <time>2019-06-23T09:36:26Z</time>
      </trkpt>
      <trkpt lat="44.22887" lon="6.93071">
        <ele>1641.1903863687</ele>
        <time>2019-06-23T09:36:29Z</time>
      </trkpt>
      <trkpt lat="44.22887" lon="6.93067">
        <ele>1641.446278177</ele>
        <time>2019-06-23T09:36:31Z</time>
      </trkpt>
      <trkpt lat="44.22888" lon="6.93064">
        <ele>1641.6828239115</ele>
        <time>2019-06-23T09:36:33Z</time>
      </trkpt>
      <trkpt lat="44.2289" lon="6.93062">
        <ele>1642.1229835583</ele>
        <time>2019-06-23T09:36:35Z</time>
      </trkpt>
      <trkpt lat="44.22891" lon="6.93058">
        <ele>1642.6882892052</ele>
        <time>2019-06-23T09:36:38Z</time>
      </trkpt>
      <trkpt lat="44.22891" lon="6.93054">
        <ele>1642.6364866976</ele>
        <time>2019-06-23T09:36:40Z</time>
      </trkpt>
      <trkpt lat="44.22892" lon="6.93051">
        <ele>1642.9238104694</ele>
        <time>2019-06-23T09:36:42Z</time>
      </trkpt>
      <trkpt lat="44.22893" lon="6.93049">
        <ele>1643.1119241856</ele>
        <time>2019-06-23T09:36:44Z</time>
      </trkpt>
      <trkpt lat="44.22894" lon="6.93046">
        <ele>1643.5023368169</ele>
        <time>2019-06-23T09:36:46Z</time>
      </trkpt>
      <trkpt lat="44.22895" lon="6.93042">
        <ele>1643.6488984139</ele>
        <time>2019-06-23T09:36:48Z</time>
      </trkpt>
      <trkpt lat="44.22897" lon="6.9304">
        <ele>1644.1795424967</ele>
        <time>2019-06-23T09:36:50Z</time>
      </trkpt>
      <trkpt lat="44.22899" lon="6.93037">
        <ele>1644.7717045288</ele>
        <time>2019-06-23T09:36:53Z</time>
      </trkpt>
      <trkpt lat="44.22901" lon="6.93034">
        <ele>1645.1737942395</ele>
        <time>2019-06-23T09:36:55Z</time>
      </trkpt>
      <trkpt lat="44.22901" lon="6.9303">
        <ele>1645.5213136718</ele>
        <time>2019-06-23T09:36:57Z</time>
      </trkpt>
      <trkpt lat="44.22903" lon="6.93028">
        <ele>1646.0303027821</ele>
        <time>2019-06-23T09:36:59Z</time>
      </trkpt>
      <trkpt lat="44.22905" lon="6.93024">
        <ele>1645.984591892</ele>
        <time>2019-06-23T09:37:01Z</time>
      </trkpt>
      <trkpt lat="44.22906" lon="6.9302">
        <ele>1645.7716262381</ele>
        <time>2019-06-23T09:37:03Z</time>
      </trkpt>
      <trkpt lat="44.22906" lon="6.93017">
        <ele>1645.4103645015</ele>
        <time>2019-06-23T09:37:05Z</time>
      </trkpt>
      <trkpt lat="44.22906" lon="6.93015">
        <ele>1644.9266549553</ele>
        <time>2019-06-23T09:37:08Z</time>
      </trkpt>
      <trkpt lat="44.22907" lon="6.93012">
        <ele>1644.5552658489</ele>
        <time>2019-06-23T09:37:12Z</time>
      </trkpt>
      <trkpt lat="44.22908" lon="6.93009">
        <ele>1644.1664577336</ele>
        <time>2019-06-23T09:37:14Z</time>
      </trkpt>
      <trkpt lat="44.2291" lon="6.93008">
        <ele>1643.769610668</ele>
        <time>2019-06-23T09:37:16Z</time>
      </trkpt>
      <trkpt lat="44.22912" lon="6.93006">
        <ele>1643.786659019</ele>
        <time>2019-06-23T09:37:20Z</time>
      </trkpt>
      <trkpt lat="44.22914" lon="6.93005">
        <ele>1643.5380034405</ele>
        <time>2019-06-23T09:37:25Z</time>
      </trkpt>
      <trkpt lat="44.22916" lon="6.93006">
        <ele>1643.8242766128</ele>
        <time>2019-06-23T09:37:28Z</time>
      </trkpt>
      <trkpt lat="44.22918" lon="6.93005">
        <ele>1643.5936046283</ele>
        <time>2019-06-23T09:37:30Z</time>
      </trkpt>
      <trkpt lat="44.2292" lon="6.93006">
        <ele>1644.1592471272</ele>
        <time>2019-06-23T09:37:32Z</time>
      </trkpt>
      <trkpt lat="44.22923" lon="6.93009">
        <ele>1645.2880625293</ele>
        <time>2019-06-23T09:37:35Z</time>
      </trkpt>
      <trkpt lat="44.22924" lon="6.9301">
        <ele>1646.257134089</ele>
        <time>2019-06-23T09:37:37Z</time>
      </trkpt>
      <trkpt lat="44.22927" lon="6.93012">
        <ele>1646.8074510253</ele>
        <time>2019-06-23T09:37:39Z</time>
      </trkpt>
      <trkpt lat="44.2293" lon="6.93014">
        <ele>1647.5571570756</ele>
        <time>2019-06-23T09:37:41Z</time>
      </trkpt>
      <trkpt lat="44.22933" lon="6.93017">
        <ele>1648.4383425127</ele>
        <time>2019-06-23T09:37:46Z</time>
      </trkpt>
      <trkpt lat="44.22934" lon="6.93022">
        <ele>1649.0779667229</ele>
        <time>2019-06-23T09:37:48Z</time>
      </trkpt>
      <trkpt lat="44.22936" lon="6.93023">
        <ele>1649.6843483165</ele>
        <time>2019-06-23T09:37:50Z</time>
      </trkpt>
      <trkpt lat="44.22938" lon="6.93026">
        <ele>1649.9277827379</ele>
        <time>2019-06-23T09:37:52Z</time>
      </trkpt>
      <trkpt lat="44.2294" lon="6.93027">
        <ele>1650.0923533126</ele>
        <time>2019-06-23T09:37:54Z</time>
      </trkpt>
      <trkpt lat="44.22943" lon="6.93028">
        <ele>1650.179769282</ele>
        <time>2019-06-23T09:37:56Z</time>
      </trkpt>
      <trkpt lat="44.22946" lon="6.9303">
        <ele>1650.1889820648</ele>
        <time>2019-06-23T09:37:58Z</time>
      </trkpt>
      <trkpt lat="44.22949" lon="6.93031">
        <ele>1650.2704609113</ele>
        <time>2019-06-23T09:38:00Z</time>
      </trkpt>
      <trkpt lat="44.22951" lon="6.93034">
        <ele>1650.4431677897</ele>
        <time>2019-06-23T09:38:02Z</time>
      </trkpt>
      <trkpt lat="44.22952" lon="6.93036">
        <ele>1650.7577744971</ele>
        <time>2019-06-23T09:38:04Z</time>
      </trkpt>
      <trkpt lat="44.22954" lon="6.93038">
        <ele>1650.8543579246</ele>
        <time>2019-06-23T09:38:05Z</time>
      </trkpt>
      <trkpt lat="44.22956" lon="6.93039">
        <ele>1651.4022684785</ele>
        <time>2019-06-23T09:38:07Z</time>
      </trkpt>
      <trkpt lat="44.22959" lon="6.93041">
        <ele>1651.9558922206</ele>
        <time>2019-06-23T09:38:10Z</time>
      </trkpt>
      <trkpt lat="44.22962" lon="6.93043">
        <ele>1652.4362318195</ele>
        <time>2019-06-23T09:38:12Z</time>
      </trkpt>
      <trkpt lat="44.22965" lon="6.93045">
        <ele>1653.3050220319</ele>
        <time>2019-06-23T09:38:14Z</time>
      </trkpt>
      <trkpt lat="44.22967" lon="6.93047">
        <ele>1654.154043186</ele>
        <time>2019-06-23T09:38:16Z</time>
      </trkpt>
      <trkpt lat="44.22969" lon="6.93048">
        <ele>1654.8958817862</ele>
        <time>2019-06-23T09:38:18Z</time>
      </trkpt>
      <trkpt lat="44.22971" lon="6.93047">
        <ele>1655.502955934</ele>
        <time>2019-06-23T09:38:20Z</time>
      </trkpt>
      <trkpt lat="44.22974" lon="6.93048">
        <ele>1656.022421741</ele>
        <time>2019-06-23T09:38:23Z</time>
      </trkpt>
      <trkpt lat="44.22976" lon="6.93048">
        <ele>1656.2795838823</ele>
        <time>2019-06-23T09:38:25Z</time>
      </trkpt>
      <trkpt lat="44.22979" lon="6.93047">
        <ele>1656.4207150741</ele>
        <time>2019-06-23T09:38:27Z</time>
      </trkpt>
      <trkpt lat="44.22981" lon="6.93046">
        <ele>1656.4013823468</ele>
        <time>2019-06-23T09:38:30Z</time>
      </trkpt>
      <trkpt lat="44.22983" lon="6.93045">
        <ele>1656.4055634298</ele>
        <time>2019-06-23T09:38:32Z</time>
      </trkpt>
      <trkpt lat="44.22984" lon="6.93044">
        <ele>1656.3639450844</ele>
        <time>2019-06-23T09:38:34Z</time>
      </trkpt>
      <trkpt lat="44.22986" lon="6.93042">
        <ele>1656.2936119087</ele>
        <time>2019-06-23T09:38:36Z</time>
      </trkpt>
      <trkpt lat="44.22988" lon="6.93039">
        <ele>1656.2514791336</ele>
        <time>2019-06-23T09:38:38Z</time>
      </trkpt>
      <trkpt lat="44.2299" lon="6.93037">
        <ele>1656.278117132</ele>
        <time>2019-06-23T09:38:40Z</time>
      </trkpt>
      <trkpt lat="44.22991" lon="6.93036">
        <ele>1656.295418067</ele>
        <time>2019-06-23T09:38:41Z</time>
      </trkpt>
      <trkpt lat="44.22993" lon="6.93034">
        <ele>1656.5280670194</ele>
        <time>2019-06-23T09:38:43Z</time>
      </trkpt>
      <trkpt lat="44.22995" lon="6.93031">
        <ele>1656.8986442414</ele>
        <time>2019-06-23T09:38:45Z</time>
      </trkpt>
      <trkpt lat="44.22997" lon="6.93028">
        <ele>1657.2823890761</ele>
        <time>2019-06-23T09:38:47Z</time>
      </trkpt>
      <trkpt lat="44.22999" lon="6.93026">
        <ele>1657.8326639427</ele>
        <time>2019-06-23T09:38:50Z</time>
      </trkpt>
      <trkpt lat="44.23001" lon="6.93024">
        <ele>1658.2723249762</ele>
        <time>2019-06-23T09:38:52Z</time>
      </trkpt>
      <trkpt lat="44.23002" lon="6.93022">
        <ele>1658.6072562545</ele>
        <time>2019-06-23T09:38:54Z</time>
      </trkpt>
      <trkpt lat="44.23003" lon="6.93019">
        <ele>1658.9455127939</ele>
        <time>2019-06-23T09:38:56Z</time>
      </trkpt>
      <trkpt lat="44.23005" lon="6.93017">
        <ele>1659.4569690897</ele>
        <time>2019-06-23T09:38:58Z</time>
      </trkpt>
      <trkpt lat="44.23007" lon="6.93016">
        <ele>1660.0121815403</ele>
        <time>2019-06-23T09:39:01Z</time>
      </trkpt>
      <trkpt lat="44.23009" lon="6.93013">
        <ele>1660.6940099461</ele>
        <time>2019-06-23T09:39:04Z</time>
      </trkpt>
      <trkpt lat="44.23011" lon="6.93011">
        <ele>1661.1748959558</ele>
        <time>2019-06-23T09:39:06Z</time>
      </trkpt>
      <trkpt lat="44.23012" lon="6.93008">
        <ele>1661.7017861147</ele>
        <time>2019-06-23T09:39:08Z</time>
      </trkpt>
      <trkpt lat="44.23012" lon="6.93004">
        <ele>1661.800460778</ele>
        <time>2019-06-23T09:39:10Z</time>
      </trkpt>
      <trkpt lat="44.23013" lon="6.93002">
        <ele>1661.8814781152</ele>
        <time>2019-06-23T09:39:11Z</time>
      </trkpt>
      <trkpt lat="44.23014" lon="6.92999">
        <ele>1662.2025225906</ele>
        <time>2019-06-23T09:39:13Z</time>
      </trkpt>
      <trkpt lat="44.23014" lon="6.92996">
        <ele>1662.3719342072</ele>
        <time>2019-06-23T09:39:15Z</time>
      </trkpt>
      <trkpt lat="44.23015" lon="6.92992">
        <ele>1662.6016935089</ele>
        <time>2019-06-23T09:39:17Z</time>
      </trkpt>
      <trkpt lat="44.23017" lon="6.92989">
        <ele>1662.8396368539</ele>
        <time>2019-06-23T09:39:19Z</time>
      </trkpt>
      <trkpt lat="44.23018" lon="6.92987">
        <ele>1663.0808425001</ele>
        <time>2019-06-23T09:39:20Z</time>
      </trkpt>
      <trkpt lat="44.23018" lon="6.92985">
        <ele>1663.4721871329</ele>
        <time>2019-06-23T09:39:22Z</time>
      </trkpt>
      <trkpt lat="44.23019" lon="6.92982">
        <ele>1663.7373572808</ele>
        <time>2019-06-23T09:39:25Z</time>
      </trkpt>
      <trkpt lat="44.23021" lon="6.92979">
        <ele>1664.1727915873</ele>
        <time>2019-06-23T09:39:27Z</time>
      </trkpt>
      <trkpt lat="44.23021" lon="6.92976">
        <ele>1664.3031810866</ele>
        <time>2019-06-23T09:39:29Z</time>
      </trkpt>
      <trkpt lat="44.23022" lon="6.92974">
        <ele>1664.4353980676</ele>
        <time>2019-06-23T09:39:31Z</time>
      </trkpt>
      <trkpt lat="44.23024" lon="6.92972">
        <ele>1664.9317312237</ele>
        <time>2019-06-23T09:39:33Z</time>
      </trkpt>
      <trkpt lat="44.23025" lon="6.92969">
        <ele>1665.394989233</ele>
        <time>2019-06-23T09:39:35Z</time>
      </trkpt>
      <trkpt lat="44.23026" lon="6.92966">
        <ele>1665.6656019823</ele>
        <time>2019-06-23T09:39:38Z</time>
      </trkpt>
      <trkpt lat="44.23027" lon="6.92963">
        <ele>1666.102561002</ele>
        <time>2019-06-23T09:39:43Z</time>
      </trkpt>
      <trkpt lat="44.23027" lon="6.9296">
        <ele>1666.3153217984</ele>
        <time>2019-06-23T09:39:45Z</time>
      </trkpt>
      <trkpt lat="44.23025" lon="6.92958">
        <ele>1665.967101847</ele>
        <time>2019-06-23T09:39:49Z</time>
      </trkpt>
      <trkpt lat="44.23024" lon="6.92955">
        <ele>1665.427976219</ele>
        <time>2019-06-23T09:39:52Z</time>
      </trkpt>
      <trkpt lat="44.23025" lon="6.92951">
        <ele>1665.5370707603</ele>
        <time>2019-06-23T09:39:55Z</time>
      </trkpt>
      <trkpt lat="44.23026" lon="6.92946">
        <ele>1665.9676461635</ele>
        <time>2019-06-23T09:39:58Z</time>
      </trkpt>
      <trkpt lat="44.23025" lon="6.92943">
        <ele>1665.8025261168</ele>
        <time>2019-06-23T09:40:00Z</time>
      </trkpt>
      <trkpt lat="44.23025" lon="6.92939">
        <ele>1665.5630978167</ele>
        <time>2019-06-23T09:40:02Z</time>
      </trkpt>
      <trkpt lat="44.23025" lon="6.92936">
        <ele>1665.5395768247</ele>
        <time>2019-06-23T09:40:04Z</time>
      </trkpt>
      <trkpt lat="44.23025" lon="6.92933">
        <ele>1665.5101069957</ele>
        <time>2019-06-23T09:40:06Z</time>
      </trkpt>
      <trkpt lat="44.23026" lon="6.9293">
        <ele>1665.5641726489</ele>
        <time>2019-06-23T09:40:08Z</time>
      </trkpt>
      <trkpt lat="44.23026" lon="6.92926">
        <ele>1665.8957423582</ele>
        <time>2019-06-23T09:40:10Z</time>
      </trkpt>
      <trkpt lat="44.23028" lon="6.92924">
        <ele>1666.0734879869</ele>
        <time>2019-06-23T09:40:12Z</time>
      </trkpt>
      <trkpt lat="44.23028" lon="6.92921">
        <ele>1666.4004937147</ele>
        <time>2019-06-23T09:40:14Z</time>
      </trkpt>
      <trkpt lat="44.23028" lon="6.92918">
        <ele>1666.5301614771</ele>
        <time>2019-06-23T09:40:16Z</time>
      </trkpt>
      <trkpt lat="44.23028" lon="6.92914">
        <ele>1666.521625391</ele>
        <time>2019-06-23T09:40:18Z</time>
      </trkpt>
      <trkpt lat="44.23029" lon="6.92911">
        <ele>1666.6140998446</ele>
        <time>2019-06-23T09:40:20Z</time>
      </trkpt>
      <trkpt lat="44.23031" lon="6.92907">
        <ele>1666.9226637493</ele>
        <time>2019-06-23T09:40:22Z</time>
      </trkpt>
      <trkpt lat="44.23031" lon="6.92904">
        <ele>1667.3073924548</ele>
        <time>2019-06-23T09:40:24Z</time>
      </trkpt>
      <trkpt lat="44.23033" lon="6.929">
        <ele>1667.4630048785</ele>
        <time>2019-06-23T09:40:26Z</time>
      </trkpt>
      <trkpt lat="44.23033" lon="6.92897">
        <ele>1667.9841703778</ele>
        <time>2019-06-23T09:40:28Z</time>
      </trkpt>
      <trkpt lat="44.23034" lon="6.92894">
        <ele>1668.1447506851</ele>
        <time>2019-06-23T09:40:30Z</time>
      </trkpt>
      <trkpt lat="44.23035" lon="6.92891">
        <ele>1668.3752126893</ele>
        <time>2019-06-23T09:40:32Z</time>
      </trkpt>
      <trkpt lat="44.23035" lon="6.92889">
        <ele>1668.4973342039</ele>
        <time>2019-06-23T09:40:34Z</time>
      </trkpt>
      <trkpt lat="44.23034" lon="6.92885">
        <ele>1668.360072753</ele>
        <time>2019-06-23T09:40:36Z</time>
      </trkpt>
      <trkpt lat="44.23036" lon="6.92882">
        <ele>1668.4639052167</ele>
        <time>2019-06-23T09:40:38Z</time>
      </trkpt>
      <trkpt lat="44.23038" lon="6.92882">
        <ele>1668.6178787114</ele>
        <time>2019-06-23T09:40:39Z</time>
      </trkpt>
      <trkpt lat="44.2304" lon="6.92878">
        <ele>1669.5129200438</ele>
        <time>2019-06-23T09:40:41Z</time>
      </trkpt>
      <trkpt lat="44.23041" lon="6.92876">
        <ele>1670.0734774815</ele>
        <time>2019-06-23T09:40:44Z</time>
      </trkpt>
      <trkpt lat="44.23043" lon="6.92873">
        <ele>1670.4148856995</ele>
        <time>2019-06-23T09:40:46Z</time>
      </trkpt>
      <trkpt lat="44.23045" lon="6.92871">
        <ele>1671.0697450942</ele>
        <time>2019-06-23T09:40:48Z</time>
      </trkpt>
      <trkpt lat="44.23046" lon="6.92869">
        <ele>1671.4500265983</ele>
        <time>2019-06-23T09:40:50Z</time>
      </trkpt>
      <trkpt lat="44.23047" lon="6.92866">
        <ele>1671.9045764836</ele>
        <time>2019-06-23T09:40:52Z</time>
      </trkpt>
      <trkpt lat="44.23048" lon="6.92862">
        <ele>1672.1288265723</ele>
        <time>2019-06-23T09:40:54Z</time>
      </trkpt>
      <trkpt lat="44.23048" lon="6.9286">
        <ele>1672.1118869443</ele>
        <time>2019-06-23T09:40:56Z</time>
      </trkpt>
      <trkpt lat="44.2305" lon="6.92857">
        <ele>1672.4220703312</ele>
        <time>2019-06-23T09:40:58Z</time>
      </trkpt>
      <trkpt lat="44.23051" lon="6.92853">
        <ele>1673.1088953096</ele>
        <time>2019-06-23T09:41:00Z</time>
      </trkpt>
      <trkpt lat="44.23052" lon="6.9285">
        <ele>1673.2749005223</ele>
        <time>2019-06-23T09:41:02Z</time>
      </trkpt>
      <trkpt lat="44.23052" lon="6.92847">
        <ele>1673.4642683926</ele>
        <time>2019-06-23T09:41:05Z</time>
      </trkpt>
      <trkpt lat="44.23053" lon="6.92844">
        <ele>1673.5622530813</ele>
        <time>2019-06-23T09:41:07Z</time>
      </trkpt>
      <trkpt lat="44.23054" lon="6.92841">
        <ele>1673.8002299985</ele>
        <time>2019-06-23T09:41:09Z</time>
      </trkpt>
      <trkpt lat="44.23056" lon="6.92838">
        <ele>1674.4802424526</ele>
        <time>2019-06-23T09:41:12Z</time>
      </trkpt>
      <trkpt lat="44.23059" lon="6.9284">
        <ele>1675.1451606246</ele>
        <time>2019-06-23T09:41:14Z</time>
      </trkpt>
      <trkpt lat="44.2306" lon="6.92839">
        <ele>1675.8560883708</ele>
        <time>2019-06-23T09:41:16Z</time>
      </trkpt>
      <trkpt lat="44.23062" lon="6.92841">
        <ele>1676.3980458696</ele>
        <time>2019-06-23T09:41:19Z</time>
      </trkpt>
      <trkpt lat="44.23063" lon="6.92843">
        <ele>1677.1435036978</ele>
        <time>2019-06-23T09:41:21Z</time>
      </trkpt>
      <trkpt lat="44.23064" lon="6.92846">
        <ele>1677.5979590085</ele>
        <time>2019-06-23T09:41:23Z</time>
      </trkpt>
      <trkpt lat="44.23062" lon="6.92849">
        <ele>1677.5531056966</ele>
        <time>2019-06-23T09:41:27Z</time>
      </trkpt>
      <trkpt lat="44.23063" lon="6.92853">
        <ele>1677.740285009</ele>
        <time>2019-06-23T09:41:29Z</time>
      </trkpt>
      <trkpt lat="44.23062" lon="6.92856">
        <ele>1678.0978611478</ele>
        <time>2019-06-23T09:41:31Z</time>
      </trkpt>
      <trkpt lat="44.23061" lon="6.92859">
        <ele>1677.8051246533</ele>
        <time>2019-06-23T09:41:33Z</time>
      </trkpt>
      <trkpt lat="44.2306" lon="6.92861">
        <ele>1677.327708763</ele>
        <time>2019-06-23T09:41:35Z</time>
      </trkpt>
      <trkpt lat="44.2306" lon="6.92864">
        <ele>1676.8005237154</ele>
        <time>2019-06-23T09:41:37Z</time>
      </trkpt>
      <trkpt lat="44.23059" lon="6.92867">
        <ele>1676.5216813083</ele>
        <time>2019-06-23T09:41:39Z</time>
      </trkpt>
      <trkpt lat="44.23058" lon="6.9287">
        <ele>1676.2541214967</ele>
        <time>2019-06-23T09:41:42Z</time>
      </trkpt>
      <trkpt lat="44.23059" lon="6.92874">
        <ele>1676.3481484385</ele>
        <time>2019-06-23T09:41:44Z</time>
      </trkpt>
      <trkpt lat="44.23058" lon="6.92878">
        <ele>1676.2167254266</ele>
        <time>2019-06-23T09:41:46Z</time>
      </trkpt>
      <trkpt lat="44.23059" lon="6.92883">
        <ele>1676.0471885403</ele>
        <time>2019-06-23T09:41:48Z</time>
      </trkpt>
      <trkpt lat="44.23059" lon="6.92886">
        <ele>1676.4859496162</ele>
        <time>2019-06-23T09:41:51Z</time>
      </trkpt>
      <trkpt lat="44.23059" lon="6.92888">
        <ele>1676.5332911591</ele>
        <time>2019-06-23T09:41:52Z</time>
      </trkpt>
      <trkpt lat="44.2306" lon="6.92892">
        <ele>1677.035278514</ele>
        <time>2019-06-23T09:41:54Z</time>
      </trkpt>
      <trkpt lat="44.23061" lon="6.92895">
        <ele>1677.2379204579</ele>
        <time>2019-06-23T09:41:56Z</time>
      </trkpt>
      <trkpt lat="44.2306" lon="6.92898">
        <ele>1676.9741346108</ele>
        <time>2019-06-23T09:41:59Z</time>
      </trkpt>
      <trkpt lat="44.23061" lon="6.92901">
        <ele>1677.4249445169</ele>
        <time>2019-06-23T09:42:01Z</time>
      </trkpt>
      <trkpt lat="44.23062" lon="6.92904">
        <ele>1677.8839240515</ele>
        <time>2019-06-23T09:42:03Z</time>
      </trkpt>
      <trkpt lat="44.23062" lon="6.92908">
        <ele>1678.3880292277</ele>
        <time>2019-06-23T09:42:05Z</time>
      </trkpt>
      <trkpt lat="44.23063" lon="6.92912">
        <ele>1678.5313771642</ele>
        <time>2019-06-23T09:42:07Z</time>
      </trkpt>
      <trkpt lat="44.23063" lon="6.92915">
        <ele>1678.6454314932</ele>
        <time>2019-06-23T09:42:09Z</time>
      </trkpt>
      <trkpt lat="44.23063" lon="6.92918">
        <ele>1678.9350791906</ele>
        <time>2019-06-23T09:42:10Z</time>
      </trkpt>
      <trkpt lat="44.23064" lon="6.9292">
        <ele>1679.1329768142</ele>
        <time>2019-06-23T09:42:12Z</time>
      </trkpt>
      <trkpt lat="44.23065" lon="6.92924">
        <ele>1679.3463585246</ele>
        <time>2019-06-23T09:42:15Z</time>
      </trkpt>
      <trkpt lat="44.23065" lon="6.92927">
        <ele>1679.0949388497</ele>
        <time>2019-06-23T09:42:18Z</time>
      </trkpt>
      <trkpt lat="44.23065" lon="6.9293">
        <ele>1678.8938496614</ele>
        <time>2019-06-23T09:42:21Z</time>
      </trkpt>
      <trkpt lat="44.23067" lon="6.92932">
        <ele>1678.6238425951</ele>
        <time>2019-06-23T09:42:23Z</time>
      </trkpt>
      <trkpt lat="44.23068" lon="6.92934">
        <ele>1679.4159707283</ele>
        <time>2019-06-23T09:42:26Z</time>
      </trkpt>
      <trkpt lat="44.23069" lon="6.92937">
        <ele>1679.2502980127</ele>
        <time>2019-06-23T09:42:29Z</time>
      </trkpt>
      <trkpt lat="44.2307" lon="6.92941">
        <ele>1679.1751963853</ele>
        <time>2019-06-23T09:42:31Z</time>
      </trkpt>
      <trkpt lat="44.2307" lon="6.92944">
        <ele>1679.0588252518</ele>
        <time>2019-06-23T09:42:33Z</time>
      </trkpt>
      <trkpt lat="44.23071" lon="6.92947">
        <ele>1678.7453312182</ele>
        <time>2019-06-23T09:42:35Z</time>
      </trkpt>
      <trkpt lat="44.23071" lon="6.9295">
        <ele>1678.8660774639</ele>
        <time>2019-06-23T09:42:36Z</time>
      </trkpt>
      <trkpt lat="44.23072" lon="6.92953">
        <ele>1679.067566338</ele>
        <time>2019-06-23T09:42:38Z</time>
      </trkpt>
      <trkpt lat="44.23074" lon="6.92955">
        <ele>1679.6420011219</ele>
        <time>2019-06-23T09:42:41Z</time>
      </trkpt>
      <trkpt lat="44.23076" lon="6.92957">
        <ele>1680.1134199171</ele>
        <time>2019-06-23T09:42:44Z</time>
      </trkpt>
      <trkpt lat="44.23077" lon="6.9296">
        <ele>1680.7349982586</ele>
        <time>2019-06-23T09:42:46Z</time>
      </trkpt>
      <trkpt lat="44.23078" lon="6.92964">
        <ele>1680.9357819131</ele>
        <time>2019-06-23T09:42:48Z</time>
      </trkpt>
      <trkpt lat="44.23079" lon="6.92967">
        <ele>1681.0190116735</ele>
        <time>2019-06-23T09:42:50Z</time>
      </trkpt>
      <trkpt lat="44.23077" lon="6.9297">
        <ele>1681.014852139</ele>
        <time>2019-06-23T09:43:08Z</time>
      </trkpt>
      <trkpt lat="44.23078" lon="6.92973">
        <ele>1680.9304100777</ele>
        <time>2019-06-23T09:43:11Z</time>
      </trkpt>
      <trkpt lat="44.23078" lon="6.92977">
        <ele>1680.8942882821</ele>
        <time>2019-06-23T09:43:14Z</time>
      </trkpt>
      <trkpt lat="44.23079" lon="6.92979">
        <ele>1681.0620147059</ele>
        <time>2019-06-23T09:43:16Z</time>
      </trkpt>
      <trkpt lat="44.2308" lon="6.92981">
        <ele>1681.3425359643</ele>
        <time>2019-06-23T09:43:18Z</time>
      </trkpt>
      <trkpt lat="44.2308" lon="6.92985">
        <ele>1681.6737554835</ele>
        <time>2019-06-23T09:43:20Z</time>
      </trkpt>
      <trkpt lat="44.23079" lon="6.92987">
        <ele>1681.540903128</ele>
        <time>2019-06-23T09:43:22Z</time>
      </trkpt>
      <trkpt lat="44.23079" lon="6.92989">
        <ele>1681.3794847525</ele>
        <time>2019-06-23T09:43:23Z</time>
      </trkpt>
      <trkpt lat="44.23078" lon="6.92992">
        <ele>1681.2502284871</ele>
        <time>2019-06-23T09:43:25Z</time>
      </trkpt>
      <trkpt lat="44.23078" lon="6.92996">
        <ele>1681.0946329459</ele>
        <time>2019-06-23T09:43:27Z</time>
      </trkpt>
      <trkpt lat="44.23078" lon="6.92999">
        <ele>1681.0493843635</ele>
        <time>2019-06-23T09:43:29Z</time>
      </trkpt>
      <trkpt lat="44.23077" lon="6.93003">
        <ele>1681.1076318289</ele>
        <time>2019-06-23T09:43:31Z</time>
      </trkpt>
      <trkpt lat="44.23077" lon="6.93006">
        <ele>1682.020486032</ele>
        <time>2019-06-23T09:43:33Z</time>
      </trkpt>
      <trkpt lat="44.23076" lon="6.93009">
        <ele>1682.9196939198</ele>
        <time>2019-06-23T09:43:35Z</time>
      </trkpt>
      <trkpt lat="44.23077" lon="6.93013">
        <ele>1683.5527782984</ele>
        <time>2019-06-23T09:43:38Z</time>
      </trkpt>
      <trkpt lat="44.23075" lon="6.93016">
        <ele>1684.6495426083</ele>
        <time>2019-06-23T09:43:41Z</time>
      </trkpt>
      <trkpt lat="44.23074" lon="6.93018">
        <ele>1685.1481464527</ele>
        <time>2019-06-23T09:43:44Z</time>
      </trkpt>
      <trkpt lat="44.23072" lon="6.93022">
        <ele>1685.2536939126</ele>
        <time>2019-06-23T09:43:46Z</time>
      </trkpt>
      <trkpt lat="44.23071" lon="6.93025">
        <ele>1686.194618772</ele>
        <time>2019-06-23T09:43:48Z</time>
      </trkpt>
      <trkpt lat="44.2307" lon="6.93028">
        <ele>1686.5302340753</ele>
        <time>2019-06-23T09:43:50Z</time>
      </trkpt>
      <trkpt lat="44.23067" lon="6.9303">
        <ele>1686.3221376178</ele>
        <time>2019-06-23T09:43:53Z</time>
      </trkpt>
      <trkpt lat="44.23066" lon="6.93032">
        <ele>1686.0579011702</ele>
        <time>2019-06-23T09:43:54Z</time>
      </trkpt>
      <trkpt lat="44.23065" lon="6.93034">
        <ele>1685.5562089708</ele>
        <time>2019-06-23T09:43:55Z</time>
      </trkpt>
      <trkpt lat="44.23064" lon="6.93037">
        <ele>1685.2517760027</ele>
        <time>2019-06-23T09:43:57Z</time>
      </trkpt>
      <trkpt lat="44.23063" lon="6.93041">
        <ele>1684.8865673663</ele>
        <time>2019-06-23T09:43:59Z</time>
      </trkpt>
      <trkpt lat="44.23062" lon="6.93043">
        <ele>1684.6174526335</ele>
        <time>2019-06-23T09:44:01Z</time>
      </trkpt>
      <trkpt lat="44.23063" lon="6.93047">
        <ele>1684.6365693475</ele>
        <time>2019-06-23T09:44:03Z</time>
      </trkpt>
      <trkpt lat="44.23063" lon="6.9305">
        <ele>1684.6103274092</ele>
        <time>2019-06-23T09:44:05Z</time>
      </trkpt>
      <trkpt lat="44.23063" lon="6.93054">
        <ele>1684.9788046252</ele>
        <time>2019-06-23T09:44:08Z</time>
      </trkpt>
      <trkpt lat="44.23063" lon="6.93057">
        <ele>1684.8269394592</ele>
        <time>2019-06-23T09:44:10Z</time>
      </trkpt>
      <trkpt lat="44.23063" lon="6.93059">
        <ele>1684.7783993232</ele>
        <time>2019-06-23T09:44:12Z</time>
      </trkpt>
      <trkpt lat="44.23063" lon="6.93062">
        <ele>1684.7813837861</ele>
        <time>2019-06-23T09:44:13Z</time>
      </trkpt>
      <trkpt lat="44.23064" lon="6.93067">
        <ele>1684.8179999188</ele>
        <time>2019-06-23T09:44:15Z</time>
      </trkpt>
      <trkpt lat="44.23063" lon="6.93071">
        <ele>1684.9978497227</ele>
        <time>2019-06-23T09:44:17Z</time>
      </trkpt>
      <trkpt lat="44.23063" lon="6.93076">
        <ele>1684.8079807403</ele>
        <time>2019-06-23T09:44:19Z</time>
      </trkpt>
      <trkpt lat="44.23064" lon="6.93079">
        <ele>1684.8396342965</ele>
        <time>2019-06-23T09:44:21Z</time>
      </trkpt>
      <trkpt lat="44.23064" lon="6.93082">
        <ele>1685.0150341389</ele>
        <time>2019-06-23T09:44:22Z</time>
      </trkpt>
      <trkpt lat="44.23064" lon="6.93083">
        <ele>1684.9967586934</ele>
        <time>2019-06-23T09:44:23Z</time>
      </trkpt>
      <trkpt lat="44.23064" lon="6.93087">
        <ele>1684.7567845272</ele>
        <time>2019-06-23T09:44:25Z</time>
      </trkpt>
      <trkpt lat="44.23064" lon="6.9309">
        <ele>1684.0161949788</ele>
        <time>2019-06-23T09:44:28Z</time>
      </trkpt>
      <trkpt lat="44.23065" lon="6.93093">
        <ele>1683.6499610678</ele>
        <time>2019-06-23T09:44:30Z</time>
      </trkpt>
      <trkpt lat="44.23067" lon="6.93095">
        <ele>1683.4185173546</ele>
        <time>2019-06-23T09:44:33Z</time>
      </trkpt>
      <trkpt lat="44.23068" lon="6.93098">
        <ele>1683.9143169029</ele>
        <time>2019-06-23T09:44:37Z</time>
      </trkpt>
      <trkpt lat="44.23068" lon="6.931">
        <ele>1683.5655513637</ele>
        <time>2019-06-23T09:44:40Z</time>
      </trkpt>
      <trkpt lat="44.23067" lon="6.93098">
        <ele>1683.3017349824</ele>
        <time>2019-06-23T09:44:53Z</time>
      </trkpt>
      <trkpt lat="44.23067" lon="6.93098">
        <ele>1683.2722101365</ele>
        <time>2019-06-23T09:44:59Z</time>
      </trkpt>
      <trkpt lat="44.23066" lon="6.931">
        <ele>1683.3159926127</ele>
        <time>2019-06-23T09:45:08Z</time>
      </trkpt>
      <trkpt lat="44.23067" lon="6.93103">
        <ele>1683.0380102904</ele>
        <time>2019-06-23T09:45:11Z</time>
      </trkpt>
      <trkpt lat="44.23068" lon="6.93106">
        <ele>1682.9252718589</ele>
        <time>2019-06-23T09:45:14Z</time>
      </trkpt>
      <trkpt lat="44.23069" lon="6.93108">
        <ele>1682.7518772601</ele>
        <time>2019-06-23T09:45:17Z</time>
      </trkpt>
      <trkpt lat="44.23068" lon="6.9311">
        <ele>1680.3525110966</ele>
        <time>2019-06-23T09:45:26Z</time>
      </trkpt>
      <trkpt lat="44.23068" lon="6.93113">
        <ele>1681.7792224971</ele>
        <time>2019-06-23T09:45:30Z</time>
      </trkpt>
      <trkpt lat="44.23068" lon="6.93117">
        <ele>1681.2198402195</ele>
        <time>2019-06-23T09:45:33Z</time>
      </trkpt>
      <trkpt lat="44.23066" lon="6.93118">
        <ele>1680.3632151634</ele>
        <time>2019-06-23T09:45:36Z</time>
      </trkpt>
      <trkpt lat="44.23066" lon="6.93121">
        <ele>1679.7529014845</ele>
        <time>2019-06-23T09:45:38Z</time>
      </trkpt>
      <trkpt lat="44.23067" lon="6.93119">
        <ele>1679.5409799983</ele>
        <time>2019-06-23T09:45:39Z</time>
      </trkpt>
      <trkpt lat="44.23067" lon="6.93123">
        <ele>1679.8317480819</ele>
        <time>2019-06-23T09:45:49Z</time>
      </trkpt>
      <trkpt lat="44.23066" lon="6.93127">
        <ele>1679.1053339072</ele>
        <time>2019-06-23T09:45:52Z</time>
      </trkpt>
      <trkpt lat="44.23066" lon="6.9313">
        <ele>1678.4700515406</ele>
        <time>2019-06-23T09:45:57Z</time>
      </trkpt>
      <trkpt lat="44.23066" lon="6.93133">
        <ele>1678.1909180905</ele>
        <time>2019-06-23T09:45:59Z</time>
      </trkpt>
      <trkpt lat="44.23064" lon="6.93136">
        <ele>1677.600749714</ele>
        <time>2019-06-23T09:46:06Z</time>
      </trkpt>
      <trkpt lat="44.23063" lon="6.93139">
        <ele>1676.8506661413</ele>
        <time>2019-06-23T09:46:09Z</time>
      </trkpt>
      <trkpt lat="44.23062" lon="6.93144">
        <ele>1676.5126905451</ele>
        <time>2019-06-23T09:46:11Z</time>
      </trkpt>
      <trkpt lat="44.23063" lon="6.93148">
        <ele>1676.0344707012</ele>
        <time>2019-06-23T09:46:13Z</time>
      </trkpt>
      <trkpt lat="44.2306" lon="6.93152">
        <ele>1675.7565464129</ele>
        <time>2019-06-23T09:46:15Z</time>
      </trkpt>
      <trkpt lat="44.2306" lon="6.93155">
        <ele>1675.2188318673</ele>
        <time>2019-06-23T09:46:17Z</time>
      </trkpt>
      <trkpt lat="44.23059" lon="6.93156">
        <ele>1675.0938230366</ele>
        <time>2019-06-23T09:46:18Z</time>
      </trkpt>
      <trkpt lat="44.23059" lon="6.93159">
        <ele>1674.7537975632</ele>
        <time>2019-06-23T09:46:23Z</time>
      </trkpt>
      <trkpt lat="44.23058" lon="6.93163">
        <ele>1674.7147855383</ele>
        <time>2019-06-23T09:46:27Z</time>
      </trkpt>
      <trkpt lat="44.23057" lon="6.93166">
        <ele>1674.6074809037</ele>
        <time>2019-06-23T09:46:28Z</time>
      </trkpt>
      <trkpt lat="44.23057" lon="6.93169">
        <ele>1674.2313425502</ele>
        <time>2019-06-23T09:46:31Z</time>
      </trkpt>
      <trkpt lat="44.23059" lon="6.93173">
        <ele>1673.1512568307</ele>
        <time>2019-06-23T09:46:33Z</time>
      </trkpt>
      <trkpt lat="44.23057" lon="6.93176">
        <ele>1672.2960687664</ele>
        <time>2019-06-23T09:46:35Z</time>
      </trkpt>
      <trkpt lat="44.23059" lon="6.93179">
        <ele>1671.3933693675</ele>
        <time>2019-06-23T09:46:39Z</time>
      </trkpt>
      <trkpt lat="44.2306" lon="6.93183">
        <ele>1670.3104759758</ele>
        <time>2019-06-23T09:46:41Z</time>
      </trkpt>
      <trkpt lat="44.23059" lon="6.93187">
        <ele>1669.0761985555</ele>
        <time>2019-06-23T09:46:43Z</time>
      </trkpt>
      <trkpt lat="44.23059" lon="6.93191">
        <ele>1667.8310908888</ele>
        <time>2019-06-23T09:46:45Z</time>
      </trkpt>
      <trkpt lat="44.2306" lon="6.93194">
        <ele>1666.8142852598</ele>
        <time>2019-06-23T09:46:49Z</time>
      </trkpt>
      <trkpt lat="44.23062" lon="6.93194">
        <ele>1666.445944252</ele>
        <time>2019-06-23T09:46:52Z</time>
      </trkpt>
      <trkpt lat="44.23064" lon="6.93194">
        <ele>1666.685383284</ele>
        <time>2019-06-23T09:46:55Z</time>
      </trkpt>
      <trkpt lat="44.23067" lon="6.93196">
        <ele>1666.1657730792</ele>
        <time>2019-06-23T09:47:01Z</time>
      </trkpt>
      <trkpt lat="44.23069" lon="6.93197">
        <ele>1665.9694253609</ele>
        <time>2019-06-23T09:47:02Z</time>
      </trkpt>
      <trkpt lat="44.23071" lon="6.93199">
        <ele>1664.7505362817</ele>
        <time>2019-06-23T09:47:05Z</time>
      </trkpt>
      <trkpt lat="44.23074" lon="6.93199">
        <ele>1664.2580538429</ele>
        <time>2019-06-23T09:47:08Z</time>
      </trkpt>
      <trkpt lat="44.23076" lon="6.93199">
        <ele>1664.0699590022</ele>
        <time>2019-06-23T09:47:10Z</time>
      </trkpt>
      <trkpt lat="44.23078" lon="6.932">
        <ele>1663.9444928487</ele>
        <time>2019-06-23T09:47:12Z</time>
      </trkpt>
      <trkpt lat="44.2308" lon="6.93201">
        <ele>1663.323651608</ele>
        <time>2019-06-23T09:47:15Z</time>
      </trkpt>
      <trkpt lat="44.23081" lon="6.93203">
        <ele>1662.0932838185</ele>
        <time>2019-06-23T09:47:18Z</time>
      </trkpt>
      <trkpt lat="44.23084" lon="6.93202">
        <ele>1661.6193348228</ele>
        <time>2019-06-23T09:47:21Z</time>
      </trkpt>
      <trkpt lat="44.23085" lon="6.93205">
        <ele>1661.4911722752</ele>
        <time>2019-06-23T09:47:24Z</time>
      </trkpt>
      <trkpt lat="44.23088" lon="6.93208">
        <ele>1659.8873785853</ele>
        <time>2019-06-23T09:47:27Z</time>
      </trkpt>
      <trkpt lat="44.23091" lon="6.93209">
        <ele>1659.3623158072</ele>
        <time>2019-06-23T09:47:30Z</time>
      </trkpt>
      <trkpt lat="44.23093" lon="6.93209">
        <ele>1659.1012500439</ele>
        <time>2019-06-23T09:47:31Z</time>
      </trkpt>
      <trkpt lat="44.23095" lon="6.93211">
        <ele>1658.9319049228</ele>
        <time>2019-06-23T09:47:34Z</time>
      </trkpt>
      <trkpt lat="44.23098" lon="6.93212">
        <ele>1658.8895994401</ele>
        <time>2019-06-23T09:47:39Z</time>
      </trkpt>
      <trkpt lat="44.23099" lon="6.93215">
        <ele>1658.703824507</ele>
        <time>2019-06-23T09:47:41Z</time>
      </trkpt>
      <trkpt lat="44.23101" lon="6.93215">
        <ele>1658.3654275014</ele>
        <time>2019-06-23T09:47:45Z</time>
      </trkpt>
      <trkpt lat="44.23103" lon="6.93217">
        <ele>1658.235838647</ele>
        <time>2019-06-23T09:47:47Z</time>
      </trkpt>
      <trkpt lat="44.23104" lon="6.93219">
        <ele>1657.4832392185</ele>
        <time>2019-06-23T09:47:50Z</time>
      </trkpt>
      <trkpt lat="44.23105" lon="6.93221">
        <ele>1656.8882745829</ele>
        <time>2019-06-23T09:47:53Z</time>
      </trkpt>
      <trkpt lat="44.23107" lon="6.93223">
        <ele>1657.0213583456</ele>
        <time>2019-06-23T09:48:00Z</time>
      </trkpt>
      <trkpt lat="44.23109" lon="6.93226">
        <ele>1656.2081425843</ele>
        <time>2019-06-23T09:48:02Z</time>
      </trkpt>
      <trkpt lat="44.2311" lon="6.93228">
        <ele>1655.0109821064</ele>
        <time>2019-06-23T09:48:04Z</time>
      </trkpt>
      <trkpt lat="44.23112" lon="6.9323">
        <ele>1654.3503886754</ele>
        <time>2019-06-23T09:48:06Z</time>
      </trkpt>
      <trkpt lat="44.23114" lon="6.93229">
        <ele>1654.25278101</ele>
        <time>2019-06-23T09:48:12Z</time>
      </trkpt>
      <trkpt lat="44.23117" lon="6.93231">
        <ele>1653.9144717035</ele>
        <time>2019-06-23T09:48:14Z</time>
      </trkpt>
      <trkpt lat="44.23118" lon="6.9323">
        <ele>1653.4727620202</ele>
        <time>2019-06-23T09:48:15Z</time>
      </trkpt>
      <trkpt lat="44.2312" lon="6.93232">
        <ele>1653.6610501757</ele>
        <time>2019-06-23T09:48:17Z</time>
      </trkpt>
      <trkpt lat="44.23122" lon="6.93233">
        <ele>1652.6347116218</ele>
        <time>2019-06-23T09:48:19Z</time>
      </trkpt>
      <trkpt lat="44.23124" lon="6.93234">
        <ele>1652.1869101165</ele>
        <time>2019-06-23T09:48:23Z</time>
      </trkpt>
      <trkpt lat="44.23126" lon="6.93235">
        <ele>1651.3156294008</ele>
        <time>2019-06-23T09:48:25Z</time>
      </trkpt>
      <trkpt lat="44.23127" lon="6.93236">
        <ele>1649.4876247885</ele>
        <time>2019-06-23T09:48:27Z</time>
      </trkpt>
      <trkpt lat="44.2313" lon="6.93237">
        <ele>1649.8926457801</ele>
        <time>2019-06-23T09:48:31Z</time>
      </trkpt>
      <trkpt lat="44.23131" lon="6.93238">
        <ele>1649.6223420012</ele>
        <time>2019-06-23T09:48:35Z</time>
      </trkpt>
      <trkpt lat="44.23131" lon="6.9324">
        <ele>1648.7496807057</ele>
        <time>2019-06-23T09:48:39Z</time>
      </trkpt>
      <trkpt lat="44.23131" lon="6.93243">
        <ele>1644.6838124583</ele>
        <time>2019-06-23T09:48:43Z</time>
      </trkpt>
      <trkpt lat="44.2313" lon="6.93244">
        <ele>1640.5206722068</ele>
        <time>2019-06-23T09:48:50Z</time>
      </trkpt>
      <trkpt lat="44.2313" lon="6.93247">
        <ele>1644.3683109457</ele>
        <time>2019-06-23T09:48:57Z</time>
      </trkpt>
      <trkpt lat="44.23129" lon="6.9325">
        <ele>1643.6729433077</ele>
        <time>2019-06-23T09:48:58Z</time>
      </trkpt>
      <trkpt lat="44.23128" lon="6.93252">
        <ele>1641.9473018114</ele>
        <time>2019-06-23T09:49:01Z</time>
      </trkpt>
      <trkpt lat="44.23126" lon="6.93252">
        <ele>1641.5061202807</ele>
        <time>2019-06-23T09:49:03Z</time>
      </trkpt>
      <trkpt lat="44.23124" lon="6.93254">
        <ele>1640.9828132017</ele>
        <time>2019-06-23T09:49:05Z</time>
      </trkpt>
      <trkpt lat="44.23122" lon="6.93256">
        <ele>1640.6140651725</ele>
        <time>2019-06-23T09:49:08Z</time>
      </trkpt>
      <trkpt lat="44.2312" lon="6.93259">
        <ele>1639.8727659416</ele>
        <time>2019-06-23T09:49:10Z</time>
      </trkpt>
      <trkpt lat="44.2312" lon="6.93261">
        <ele>1639.0821936754</ele>
        <time>2019-06-23T09:49:14Z</time>
      </trkpt>
      <trkpt lat="44.23119" lon="6.93262">
        <ele>1638.8184648815</ele>
        <time>2019-06-23T09:49:15Z</time>
      </trkpt>
      <trkpt lat="44.23121" lon="6.93263">
        <ele>1638.5349651553</ele>
        <time>2019-06-23T09:49:18Z</time>
      </trkpt>
      <trkpt lat="44.23124" lon="6.93264">
        <ele>1638.2698518215</ele>
        <time>2019-06-23T09:49:21Z</time>
      </trkpt>
      <trkpt lat="44.23125" lon="6.93267">
        <ele>1637.4556711809</ele>
        <time>2019-06-23T09:49:24Z</time>
      </trkpt>
      <trkpt lat="44.23127" lon="6.93268">
        <ele>1637.1477539729</ele>
        <time>2019-06-23T09:49:27Z</time>
      </trkpt>
      <trkpt lat="44.23129" lon="6.9327">
        <ele>1636.7998216502</ele>
        <time>2019-06-23T09:49:31Z</time>
      </trkpt>
      <trkpt lat="44.23129" lon="6.93272">
        <ele>1636.1436706331</ele>
        <time>2019-06-23T09:49:34Z</time>
      </trkpt>
      <trkpt lat="44.23131" lon="6.93274">
        <ele>1635.1827501405</ele>
        <time>2019-06-23T09:49:39Z</time>
      </trkpt>
      <trkpt lat="44.23131" lon="6.93277">
        <ele>1634.6040346407</ele>
        <time>2019-06-23T09:49:42Z</time>
      </trkpt>
      <trkpt lat="44.23129" lon="6.93278">
        <ele>1632.7675997658</ele>
        <time>2019-06-23T09:49:46Z</time>
      </trkpt>
      <trkpt lat="44.23129" lon="6.93279">
        <ele>1633.8154356663</ele>
        <time>2019-06-23T09:49:47Z</time>
      </trkpt>
      <trkpt lat="44.23129" lon="6.93282">
        <ele>1629.5468394326</ele>
        <time>2019-06-23T09:49:51Z</time>
      </trkpt>
      <trkpt lat="44.23127" lon="6.93285">
        <ele>1627.684943571</ele>
        <time>2019-06-23T09:49:53Z</time>
      </trkpt>
      <trkpt lat="44.23126" lon="6.93287">
        <ele>1626.6135067015</ele>
        <time>2019-06-23T09:49:58Z</time>
      </trkpt>
      <trkpt lat="44.23127" lon="6.93287">
        <ele>1625.5823842178</ele>
        <time>2019-06-23T09:49:59Z</time>
      </trkpt>
      <trkpt lat="44.23127" lon="6.9329">
        <ele>1627.1182782451</ele>
        <time>2019-06-23T09:50:03Z</time>
      </trkpt>
      <trkpt lat="44.23128" lon="6.93292">
        <ele>1625.9142360399</ele>
        <time>2019-06-23T09:50:04Z</time>
      </trkpt>
      <trkpt lat="44.23128" lon="6.93295">
        <ele>1623.4101837406</ele>
        <time>2019-06-23T09:50:10Z</time>
      </trkpt>
      <trkpt lat="44.2313" lon="6.93299">
        <ele>1620.7960568838</ele>
        <time>2019-06-23T09:50:14Z</time>
      </trkpt>
      <trkpt lat="44.23132" lon="6.933">
        <ele>1619.3241474125</ele>
        <time>2019-06-23T09:50:16Z</time>
      </trkpt>
      <trkpt lat="44.23134" lon="6.93301">
        <ele>1620.2020408779</ele>
        <time>2019-06-23T09:50:18Z</time>
      </trkpt>
      <trkpt lat="44.23136" lon="6.93303">
        <ele>1618.9175219843</ele>
        <time>2019-06-23T09:50:20Z</time>
      </trkpt>
      <trkpt lat="44.23138" lon="6.93304">
        <ele>1617.8638577768</ele>
        <time>2019-06-23T09:50:25Z</time>
      </trkpt>
      <trkpt lat="44.2314" lon="6.93306">
        <ele>1617.8619754978</ele>
        <time>2019-06-23T09:50:27Z</time>
      </trkpt>
      <trkpt lat="44.23141" lon="6.9331">
        <ele>1616.4106458729</ele>
        <time>2019-06-23T09:50:30Z</time>
      </trkpt>
      <trkpt lat="44.23141" lon="6.9331">
        <ele>1615.5696206481</ele>
        <time>2019-06-23T09:50:31Z</time>
      </trkpt>
      <trkpt lat="44.23144" lon="6.93312">
        <ele>1614.3149790063</ele>
        <time>2019-06-23T09:50:34Z</time>
      </trkpt>
      <trkpt lat="44.23145" lon="6.93313">
        <ele>1613.0412494445</ele>
        <time>2019-06-23T09:50:38Z</time>
      </trkpt>
      <trkpt lat="44.23147" lon="6.93314">
        <ele>1613.2529446771</ele>
        <time>2019-06-23T09:50:39Z</time>
      </trkpt>
      <trkpt lat="44.2315" lon="6.93315">
        <ele>1612.274256055</ele>
        <time>2019-06-23T09:50:41Z</time>
      </trkpt>
      <trkpt lat="44.23152" lon="6.93315">
        <ele>1612.3658070595</ele>
        <time>2019-06-23T09:50:43Z</time>
      </trkpt>
      <trkpt lat="44.23152" lon="6.93317">
        <ele>1612.2363737702</ele>
        <time>2019-06-23T09:50:48Z</time>
      </trkpt>
      <trkpt lat="44.2315" lon="6.93319">
        <ele>1610.3253710556</ele>
        <time>2019-06-23T09:50:52Z</time>
      </trkpt>
      <trkpt lat="44.23148" lon="6.93321">
        <ele>1609.9840230555</ele>
        <time>2019-06-23T09:50:56Z</time>
      </trkpt>
      <trkpt lat="44.23145" lon="6.93321">
        <ele>1608.8306227809</ele>
        <time>2019-06-23T09:50:59Z</time>
      </trkpt>
      <trkpt lat="44.23143" lon="6.93322">
        <ele>1608.4856738971</ele>
        <time>2019-06-23T09:51:03Z</time>
      </trkpt>
      <trkpt lat="44.23141" lon="6.93321">
        <ele>1608.6128064918</ele>
        <time>2019-06-23T09:51:05Z</time>
      </trkpt>
      <trkpt lat="44.2314" lon="6.9332">
        <ele>1609.1759406107</ele>
        <time>2019-06-23T09:51:07Z</time>
      </trkpt>
      <trkpt lat="44.23138" lon="6.93322">
        <ele>1610.6280708678</ele>
        <time>2019-06-23T09:51:11Z</time>
      </trkpt>
      <trkpt lat="44.23136" lon="6.93324">
        <ele>1607.9207343677</ele>
        <time>2019-06-23T09:51:13Z</time>
      </trkpt>
      <trkpt lat="44.23134" lon="6.93326">
        <ele>1606.3957850262</ele>
        <time>2019-06-23T09:51:15Z</time>
      </trkpt>
      <trkpt lat="44.23135" lon="6.93328">
        <ele>1603.6887663522</ele>
        <time>2019-06-23T09:51:21Z</time>
      </trkpt>
      <trkpt lat="44.23137" lon="6.9333">
        <ele>1600.8118024905</ele>
        <time>2019-06-23T09:51:28Z</time>
      </trkpt>
      <trkpt lat="44.23138" lon="6.93331">
        <ele>1603.332082028</ele>
        <time>2019-06-23T09:51:31Z</time>
      </trkpt>
      <trkpt lat="44.23142" lon="6.93332">
        <ele>1602.5942171757</ele>
        <time>2019-06-23T09:51:34Z</time>
      </trkpt>
      <trkpt lat="44.23144" lon="6.93333">
        <ele>1602.1535570697</ele>
        <time>2019-06-23T09:51:37Z</time>
      </trkpt>
      <trkpt lat="44.23146" lon="6.93332">
        <ele>1602.0973750765</ele>
        <time>2019-06-23T09:51:40Z</time>
      </trkpt>
      <trkpt lat="44.23148" lon="6.93332">
        <ele>1602.6429175274</ele>
        <time>2019-06-23T09:51:43Z</time>
      </trkpt>
      <trkpt lat="44.23149" lon="6.93334">
        <ele>1601.6833175411</ele>
        <time>2019-06-23T09:51:47Z</time>
      </trkpt>
      <trkpt lat="44.23152" lon="6.93334">
        <ele>1601.3553802115</ele>
        <time>2019-06-23T09:51:51Z</time>
      </trkpt>
      <trkpt lat="44.23154" lon="6.93334">
        <ele>1601.3404110061</ele>
        <time>2019-06-23T09:51:54Z</time>
      </trkpt>
      <trkpt lat="44.23154" lon="6.93337">
        <ele>1601.0007635906</ele>
        <time>2019-06-23T09:51:57Z</time>
      </trkpt>
      <trkpt lat="44.23157" lon="6.93337">
        <ele>1600.5081270664</ele>
        <time>2019-06-23T09:51:59Z</time>
      </trkpt>
      <trkpt lat="44.23159" lon="6.93338">
        <ele>1600.2389904961</ele>
        <time>2019-06-23T09:52:01Z</time>
      </trkpt>
      <trkpt lat="44.2316" lon="6.9334">
        <ele>1600.1047378252</ele>
        <time>2019-06-23T09:52:02Z</time>
      </trkpt>
      <trkpt lat="44.23162" lon="6.93342">
        <ele>1599.1482481323</ele>
        <time>2019-06-23T09:52:05Z</time>
      </trkpt>
      <trkpt lat="44.23163" lon="6.93343">
        <ele>1598.7074546951</ele>
        <time>2019-06-23T09:52:07Z</time>
      </trkpt>
      <trkpt lat="44.23165" lon="6.93345">
        <ele>1598.3617711373</ele>
        <time>2019-06-23T09:52:10Z</time>
      </trkpt>
      <trkpt lat="44.23166" lon="6.93346">
        <ele>1598.0716883138</ele>
        <time>2019-06-23T09:52:12Z</time>
      </trkpt>
      <trkpt lat="44.23169" lon="6.93346">
        <ele>1597.7658285012</ele>
        <time>2019-06-23T09:52:14Z</time>
      </trkpt>
      <trkpt lat="44.23171" lon="6.93349">
        <ele>1597.3615491999</ele>
        <time>2019-06-23T09:52:16Z</time>
      </trkpt>
      <trkpt lat="44.23171" lon="6.93352">
        <ele>1595.6972415143</ele>
        <time>2019-06-23T09:52:18Z</time>
      </trkpt>
      <trkpt lat="44.23169" lon="6.93353">
        <ele>1595.2849020035</ele>
        <time>2019-06-23T09:52:27Z</time>
      </trkpt>
      <trkpt lat="44.2317" lon="6.93352">
        <ele>1595.2457391126</ele>
        <time>2019-06-23T09:52:31Z</time>
      </trkpt>
      <trkpt lat="44.23173" lon="6.93351">
        <ele>1595.5688129057</ele>
        <time>2019-06-23T09:52:33Z</time>
      </trkpt>
      <trkpt lat="44.23174" lon="6.9335">
        <ele>1595.2613295169</ele>
        <time>2019-06-23T09:52:36Z</time>
      </trkpt>
      <trkpt lat="44.23176" lon="6.9335">
        <ele>1595.2497654418</ele>
        <time>2019-06-23T09:52:39Z</time>
      </trkpt>
      <trkpt lat="44.23176" lon="6.93353">
        <ele>1594.3108568214</ele>
        <time>2019-06-23T09:52:50Z</time>
      </trkpt>
      <trkpt lat="44.23174" lon="6.93354">
        <ele>1594.2058056355</ele>
        <time>2019-06-23T09:52:52Z</time>
      </trkpt>
      <trkpt lat="44.23172" lon="6.93356">
        <ele>1594.0323778188</ele>
        <time>2019-06-23T09:52:57Z</time>
      </trkpt>
      <trkpt lat="44.2317" lon="6.93359">
        <ele>1586.2721122024</ele>
        <time>2019-06-23T09:53:03Z</time>
      </trkpt>
      <trkpt lat="44.23172" lon="6.93362">
        <ele>1592.1175216843</ele>
        <time>2019-06-23T09:53:08Z</time>
      </trkpt>
      <trkpt lat="44.23174" lon="6.93365">
        <ele>1585.0399281203</ele>
        <time>2019-06-23T09:53:11Z</time>
      </trkpt>
      <trkpt lat="44.23172" lon="6.93366">
        <ele>1572.3506327074</ele>
        <time>2019-06-23T09:53:20Z</time>
      </trkpt>
      <trkpt lat="44.23173" lon="6.93372">
        <ele>1587.0956505815</ele>
        <time>2019-06-23T09:53:21Z</time>
      </trkpt>
      <trkpt lat="44.2317" lon="6.93374">
        <ele>1585.4772457589</ele>
        <time>2019-06-23T09:53:24Z</time>
      </trkpt>
      <trkpt lat="44.23168" lon="6.93373">
        <ele>1586.1763647885</ele>
        <time>2019-06-23T09:53:26Z</time>
      </trkpt>
      <trkpt lat="44.23166" lon="6.93374">
        <ele>1586.1800130978</ele>
        <time>2019-06-23T09:53:30Z</time>
      </trkpt>
      <trkpt lat="44.23165" lon="6.93375">
        <ele>1585.8933597272</ele>
        <time>2019-06-23T09:53:34Z</time>
      </trkpt>
      <trkpt lat="44.23163" lon="6.93374">
        <ele>1585.697237354</ele>
        <time>2019-06-23T09:53:36Z</time>
      </trkpt>
      <trkpt lat="44.23161" lon="6.93377">
        <ele>1585.0935352119</ele>
        <time>2019-06-23T09:53:39Z</time>
      </trkpt>
      <trkpt lat="44.23159" lon="6.93378">
        <ele>1584.1377608373</ele>
        <time>2019-06-23T09:53:41Z</time>
      </trkpt>
      <trkpt lat="44.23159" lon="6.93379">
        <ele>1580.9841147411</ele>
        <time>2019-06-23T09:53:43Z</time>
      </trkpt>
      <trkpt lat="44.23161" lon="6.93379">
        <ele>1569.6124805583</ele>
        <time>2019-06-23T09:53:51Z</time>
      </trkpt>
      <trkpt lat="44.23164" lon="6.9338">
        <ele>1583.1324349198</ele>
        <time>2019-06-23T09:53:55Z</time>
      </trkpt>
      <trkpt lat="44.23163" lon="6.93383">
        <ele>1582.1016758801</ele>
        <time>2019-06-23T09:53:59Z</time>
      </trkpt>
      <trkpt lat="44.23164" lon="6.93385">
        <ele>1567.1949448978</ele>
        <time>2019-06-23T09:54:07Z</time>
      </trkpt>
      <trkpt lat="44.23164" lon="6.93389">
        <ele>1561.3933317621</ele>
        <time>2019-06-23T09:54:10Z</time>
      </trkpt>
      <trkpt lat="44.23165" lon="6.93391">
        <ele>1555.3364688018</ele>
        <time>2019-06-23T09:54:15Z</time>
      </trkpt>
      <trkpt lat="44.23167" lon="6.93391">
        <ele>1552.5465213069</ele>
        <time>2019-06-23T09:54:20Z</time>
      </trkpt>
      <trkpt lat="44.2317" lon="6.93391">
        <ele>1572.8321755042</ele>
        <time>2019-06-23T09:54:22Z</time>
      </trkpt>
      <trkpt lat="44.23173" lon="6.93392">
        <ele>1574.5371013351</ele>
        <time>2019-06-23T09:54:26Z</time>
      </trkpt>
      <trkpt lat="44.23175" lon="6.93392">
        <ele>1573.7246147115</ele>
        <time>2019-06-23T09:54:28Z</time>
      </trkpt>
      <trkpt lat="44.23178" lon="6.93391">
        <ele>1573.1090686928</ele>
        <time>2019-06-23T09:54:31Z</time>
      </trkpt>
      <trkpt lat="44.2318" lon="6.93391">
        <ele>1572.8802623636</ele>
        <time>2019-06-23T09:54:33Z</time>
      </trkpt>
      <trkpt lat="44.23182" lon="6.93392">
        <ele>1571.9312824057</ele>
        <time>2019-06-23T09:54:35Z</time>
      </trkpt>
      <trkpt lat="44.23184" lon="6.93393">
        <ele>1567.6925383684</ele>
        <time>2019-06-23T09:54:38Z</time>
      </trkpt>
      <trkpt lat="44.23182" lon="6.93392">
        <ele>1571.2908364849</ele>
        <time>2019-06-23T09:54:43Z</time>
      </trkpt>
      <trkpt lat="44.2318" lon="6.93394">
        <ele>1572.1936413679</ele>
        <time>2019-06-23T09:54:46Z</time>
      </trkpt>
      <trkpt lat="44.23182" lon="6.93397">
        <ele>1566.9202132901</ele>
        <time>2019-06-23T09:54:52Z</time>
      </trkpt>
      <trkpt lat="44.23183" lon="6.93397">
        <ele>1569.3201135226</ele>
        <time>2019-06-23T09:54:53Z</time>
      </trkpt>
      <trkpt lat="44.23185" lon="6.93397">
        <ele>1569.0222061838</ele>
        <time>2019-06-23T09:54:56Z</time>
      </trkpt>
      <trkpt lat="44.23187" lon="6.93396">
        <ele>1568.7335929688</ele>
        <time>2019-06-23T09:54:59Z</time>
      </trkpt>
      <trkpt lat="44.23186" lon="6.93398">
        <ele>1568.2272949562</ele>
        <time>2019-06-23T09:55:02Z</time>
      </trkpt>
      <trkpt lat="44.23189" lon="6.934">
        <ele>1567.1902454979</ele>
        <time>2019-06-23T09:55:06Z</time>
      </trkpt>
      <trkpt lat="44.23191" lon="6.934">
        <ele>1566.3435315024</ele>
        <time>2019-06-23T09:55:10Z</time>
      </trkpt>
      <trkpt lat="44.23192" lon="6.93398">
        <ele>1566.9408349484</ele>
        <time>2019-06-23T09:55:13Z</time>
      </trkpt>
      <trkpt lat="44.23195" lon="6.93396">
        <ele>1567.0984823699</ele>
        <time>2019-06-23T09:55:15Z</time>
      </trkpt>
      <trkpt lat="44.23196" lon="6.93397">
        <ele>1567.0979901679</ele>
        <time>2019-06-23T09:55:18Z</time>
      </trkpt>
      <trkpt lat="44.23197" lon="6.934">
        <ele>1566.2983485998</ele>
        <time>2019-06-23T09:55:20Z</time>
      </trkpt>
      <trkpt lat="44.23197" lon="6.93403">
        <ele>1565.2112703564</ele>
        <time>2019-06-23T09:55:23Z</time>
      </trkpt>
      <trkpt lat="44.23197" lon="6.93406">
        <ele>1559.9289185475</ele>
        <time>2019-06-23T09:55:26Z</time>
      </trkpt>
      <trkpt lat="44.23196" lon="6.93411">
        <ele>1553.4713458838</ele>
        <time>2019-06-23T09:55:28Z</time>
      </trkpt>
      <trkpt lat="44.23198" lon="6.93412">
        <ele>1560.2952700925</ele>
        <time>2019-06-23T09:55:33Z</time>
      </trkpt>
      <trkpt lat="44.232" lon="6.93412">
        <ele>1561.0498663091</ele>
        <time>2019-06-23T09:55:37Z</time>
      </trkpt>
      <trkpt lat="44.23201" lon="6.93413">
        <ele>1560.2303613625</ele>
        <time>2019-06-23T09:55:46Z</time>
      </trkpt>
      <trkpt lat="44.23203" lon="6.93412">
        <ele>1560.29522435</ele>
        <time>2019-06-23T09:55:55Z</time>
      </trkpt>
      <trkpt lat="44.23205" lon="6.93411">
        <ele>1560.1752032673</ele>
        <time>2019-06-23T09:55:58Z</time>
      </trkpt>
      <trkpt lat="44.23209" lon="6.93411">
        <ele>1559.8300460238</ele>
        <time>2019-06-23T09:56:00Z</time>
      </trkpt>
      <trkpt lat="44.23211" lon="6.93412">
        <ele>1558.8683461212</ele>
        <time>2019-06-23T09:56:03Z</time>
      </trkpt>
      <trkpt lat="44.23214" lon="6.9341">
        <ele>1558.5685771703</ele>
        <time>2019-06-23T09:56:06Z</time>
      </trkpt>
      <trkpt lat="44.23212" lon="6.93411">
        <ele>1558.872202004</ele>
        <time>2019-06-23T09:56:14Z</time>
      </trkpt>
      <trkpt lat="44.2321" lon="6.93412">
        <ele>1559.0932891105</ele>
        <time>2019-06-23T09:56:21Z</time>
      </trkpt>
      <trkpt lat="44.23211" lon="6.9341">
        <ele>1541.5964570154</ele>
        <time>2019-06-23T09:56:35Z</time>
      </trkpt>
      <trkpt lat="44.23212" lon="6.93413">
        <ele>1534.3182130005</ele>
        <time>2019-06-23T09:56:39Z</time>
      </trkpt>
      <trkpt lat="44.23211" lon="6.93415">
        <ele>1557.3518010611</ele>
        <time>2019-06-23T09:56:51Z</time>
      </trkpt>
      <trkpt lat="44.23211" lon="6.93418">
        <ele>1556.6037138572</ele>
        <time>2019-06-23T09:56:53Z</time>
      </trkpt>
      <trkpt lat="44.23213" lon="6.9342">
        <ele>1547.6578550364</ele>
        <time>2019-06-23T09:56:58Z</time>
      </trkpt>
      <trkpt lat="44.23213" lon="6.93423">
        <ele>1535.2369655711</ele>
        <time>2019-06-23T09:57:01Z</time>
      </trkpt>
      <trkpt lat="44.23214" lon="6.93425">
        <ele>1524.0845457539</ele>
        <time>2019-06-23T09:57:08Z</time>
      </trkpt>
      <trkpt lat="44.23215" lon="6.93427">
        <ele>1522.4674821286</ele>
        <time>2019-06-23T09:57:11Z</time>
      </trkpt>
      <trkpt lat="44.23217" lon="6.93426">
        <ele>1548.6213631965</ele>
        <time>2019-06-23T09:57:14Z</time>
      </trkpt>
      <trkpt lat="44.23219" lon="6.93425">
        <ele>1549.193819201</ele>
        <time>2019-06-23T09:57:17Z</time>
      </trkpt>
      <trkpt lat="44.2322" lon="6.93428">
        <ele>1542.308284247</ele>
        <time>2019-06-23T09:57:24Z</time>
      </trkpt>
      <trkpt lat="44.23221" lon="6.93431">
        <ele>1537.7942413828</ele>
        <time>2019-06-23T09:57:25Z</time>
      </trkpt>
      <trkpt lat="44.23223" lon="6.9343">
        <ele>1544.7852868768</ele>
        <time>2019-06-23T09:57:31Z</time>
      </trkpt>
      <trkpt lat="44.23225" lon="6.93431">
        <ele>1544.7973187349</ele>
        <time>2019-06-23T09:57:33Z</time>
      </trkpt>
      <trkpt lat="44.23228" lon="6.93433">
        <ele>1543.7005970124</ele>
        <time>2019-06-23T09:57:35Z</time>
      </trkpt>
      <trkpt lat="44.23228" lon="6.93436">
        <ele>1532.3901892825</ele>
        <time>2019-06-23T09:57:40Z</time>
      </trkpt>
      <trkpt lat="44.23226" lon="6.93437">
        <ele>1541.0667325198</ele>
        <time>2019-06-23T09:57:44Z</time>
      </trkpt>
      <trkpt lat="44.23226" lon="6.93439">
        <ele>1540.0419399742</ele>
        <time>2019-06-23T09:57:49Z</time>
      </trkpt>
      <trkpt lat="44.23224" lon="6.93441">
        <ele>1539.1182681611</ele>
        <time>2019-06-23T09:57:53Z</time>
      </trkpt>
      <trkpt lat="44.23224" lon="6.93444">
        <ele>1538.1457864872</ele>
        <time>2019-06-23T09:57:55Z</time>
      </trkpt>
      <trkpt lat="44.23226" lon="6.93446">
        <ele>1536.3728389856</ele>
        <time>2019-06-23T09:57:58Z</time>
      </trkpt>
      <trkpt lat="44.23228" lon="6.93446">
        <ele>1535.7519655743</ele>
        <time>2019-06-23T09:58:01Z</time>
      </trkpt>
      <trkpt lat="44.2323" lon="6.93447">
        <ele>1535.9415106683</ele>
        <time>2019-06-23T09:58:03Z</time>
      </trkpt>
      <trkpt lat="44.23231" lon="6.93449">
        <ele>1535.4011810064</ele>
        <time>2019-06-23T09:58:07Z</time>
      </trkpt>
      <trkpt lat="44.2323" lon="6.93453">
        <ele>1534.3032262113</ele>
        <time>2019-06-23T09:58:09Z</time>
      </trkpt>
      <trkpt lat="44.2323" lon="6.93456">
        <ele>1529.1016962301</ele>
        <time>2019-06-23T09:58:11Z</time>
      </trkpt>
      <trkpt lat="44.2323" lon="6.93459">
        <ele>1531.9705218909</ele>
        <time>2019-06-23T09:58:13Z</time>
      </trkpt>
      <trkpt lat="44.23232" lon="6.93461">
        <ele>1530.8935314048</ele>
        <time>2019-06-23T09:58:16Z</time>
      </trkpt>
      <trkpt lat="44.23233" lon="6.93463">
        <ele>1529.7284866294</ele>
        <time>2019-06-23T09:58:18Z</time>
      </trkpt>
      <trkpt lat="44.23235" lon="6.93467">
        <ele>1528.7214968261</ele>
        <time>2019-06-23T09:58:20Z</time>
      </trkpt>
      <trkpt lat="44.23234" lon="6.9347">
        <ele>1527.4807350403</ele>
        <time>2019-06-23T09:58:21Z</time>
      </trkpt>
      <trkpt lat="44.23236" lon="6.93473">
        <ele>1525.074135277</ele>
        <time>2019-06-23T09:58:23Z</time>
      </trkpt>
      <trkpt lat="44.23237" lon="6.93476">
        <ele>1524.3155838463</ele>
        <time>2019-06-23T09:58:24Z</time>
      </trkpt>
      <trkpt lat="44.23239" lon="6.93479">
        <ele>1522.1325240483</ele>
        <time>2019-06-23T09:58:26Z</time>
      </trkpt>
      <trkpt lat="44.23241" lon="6.93481">
        <ele>1520.4361463312</ele>
        <time>2019-06-23T09:58:28Z</time>
      </trkpt>
      <trkpt lat="44.23244" lon="6.93482">
        <ele>1519.4030460794</ele>
        <time>2019-06-23T09:58:30Z</time>
      </trkpt>
      <trkpt lat="44.23246" lon="6.93482">
        <ele>1518.9186000866</ele>
        <time>2019-06-23T09:58:32Z</time>
      </trkpt>
      <trkpt lat="44.23248" lon="6.93483">
        <ele>1518.0447542553</ele>
        <time>2019-06-23T09:58:35Z</time>
      </trkpt>
      <trkpt lat="44.23246" lon="6.93485">
        <ele>1517.7251879105</ele>
        <time>2019-06-23T09:58:42Z</time>
      </trkpt>
      <trkpt lat="44.23245" lon="6.93488">
        <ele>1515.7538013044</ele>
        <time>2019-06-23T09:58:49Z</time>
      </trkpt>
      <trkpt lat="44.23247" lon="6.93488">
        <ele>1516.0823289027</ele>
        <time>2019-06-23T09:58:52Z</time>
      </trkpt>
      <trkpt lat="44.2325" lon="6.93488">
        <ele>1516.1351194774</ele>
        <time>2019-06-23T09:58:54Z</time>
      </trkpt>
      <trkpt lat="44.23252" lon="6.93488">
        <ele>1515.8312821488</ele>
        <time>2019-06-23T09:58:56Z</time>
      </trkpt>
      <trkpt lat="44.23252" lon="6.93491">
        <ele>1515.0115642462</ele>
        <time>2019-06-23T09:59:00Z</time>
      </trkpt>
      <trkpt lat="44.23252" lon="6.93494">
        <ele>1514.5651983253</ele>
        <time>2019-06-23T09:59:01Z</time>
      </trkpt>
      <trkpt lat="44.23252" lon="6.93498">
        <ele>1513.6950203158</ele>
        <time>2019-06-23T09:59:03Z</time>
      </trkpt>
      <trkpt lat="44.23253" lon="6.935">
        <ele>1512.16695178</ele>
        <time>2019-06-23T09:59:05Z</time>
      </trkpt>
      <trkpt lat="44.23255" lon="6.93502">
        <ele>1511.0067799151</ele>
        <time>2019-06-23T09:59:07Z</time>
      </trkpt>
      <trkpt lat="44.23256" lon="6.93504">
        <ele>1510.0794537789</ele>
        <time>2019-06-23T09:59:08Z</time>
      </trkpt>
      <trkpt lat="44.23258" lon="6.93506">
        <ele>1507.7257999547</ele>
        <time>2019-06-23T09:59:10Z</time>
      </trkpt>
      <trkpt lat="44.23261" lon="6.93508">
        <ele>1506.4974147836</ele>
        <time>2019-06-23T09:59:12Z</time>
      </trkpt>
      <trkpt lat="44.23263" lon="6.9351">
        <ele>1505.1009524651</ele>
        <time>2019-06-23T09:59:14Z</time>
      </trkpt>
      <trkpt lat="44.23265" lon="6.93512">
        <ele>1503.8040593751</ele>
        <time>2019-06-23T09:59:16Z</time>
      </trkpt>
      <trkpt lat="44.23267" lon="6.93513">
        <ele>1502.6508743798</ele>
        <time>2019-06-23T09:59:18Z</time>
      </trkpt>
      <trkpt lat="44.23268" lon="6.93515">
        <ele>1501.7605351568</ele>
        <time>2019-06-23T09:59:20Z</time>
      </trkpt>
      <trkpt lat="44.2327" lon="6.93517">
        <ele>1500.6850350848</ele>
        <time>2019-06-23T09:59:22Z</time>
      </trkpt>
      <trkpt lat="44.2327" lon="6.9352">
        <ele>1499.3975350222</ele>
        <time>2019-06-23T09:59:37Z</time>
      </trkpt>
      <trkpt lat="44.23272" lon="6.93522">
        <ele>1498.3336693192</ele>
        <time>2019-06-23T09:59:47Z</time>
      </trkpt>
      <trkpt lat="44.23274" lon="6.93523">
        <ele>1498.1456295186</ele>
        <time>2019-06-23T09:59:52Z</time>
      </trkpt>
      <trkpt lat="44.23275" lon="6.93523">
        <ele>1497.8200933039</ele>
        <time>2019-06-23T09:59:54Z</time>
      </trkpt>
      <trkpt lat="44.23273" lon="6.93526">
        <ele>1497.8030214459</ele>
        <time>2019-06-23T09:59:55Z</time>
      </trkpt>
      <trkpt lat="44.23272" lon="6.93528">
        <ele>1496.4752585317</ele>
        <time>2019-06-23T09:59:57Z</time>
      </trkpt>
      <trkpt lat="44.23271" lon="6.93529">
        <ele>1496.1992264452</ele>
        <time>2019-06-23T09:59:58Z</time>
      </trkpt>
      <trkpt lat="44.2327" lon="6.93533">
        <ele>1495.300797699</ele>
        <time>2019-06-23T10:00:01Z</time>
      </trkpt>
      <trkpt lat="44.23269" lon="6.93535">
        <ele>1494.4747077298</ele>
        <time>2019-06-23T10:00:03Z</time>
      </trkpt>
      <trkpt lat="44.23268" lon="6.93537">
        <ele>1493.7173792106</ele>
        <time>2019-06-23T10:00:06Z</time>
      </trkpt>
      <trkpt lat="44.23266" lon="6.9354">
        <ele>1493.1137295019</ele>
        <time>2019-06-23T10:00:08Z</time>
      </trkpt>
      <trkpt lat="44.23268" lon="6.9354">
        <ele>1492.739812666</ele>
        <time>2019-06-23T10:00:11Z</time>
      </trkpt>
      <trkpt lat="44.2327" lon="6.93543">
        <ele>1492.4433788853</ele>
        <time>2019-06-23T10:00:13Z</time>
      </trkpt>
      <trkpt lat="44.23271" lon="6.93545">
        <ele>1491.6768427702</ele>
        <time>2019-06-23T10:00:15Z</time>
      </trkpt>
      <trkpt lat="44.23273" lon="6.93546">
        <ele>1490.959781541</ele>
        <time>2019-06-23T10:00:18Z</time>
      </trkpt>
      <trkpt lat="44.23275" lon="6.93547">
        <ele>1490.4938368008</ele>
        <time>2019-06-23T10:00:22Z</time>
      </trkpt>
      <trkpt lat="44.23276" lon="6.93549">
        <ele>1490.2994089598</ele>
        <time>2019-06-23T10:00:25Z</time>
      </trkpt>
      <trkpt lat="44.23276" lon="6.93554">
        <ele>1489.4891408639</ele>
        <time>2019-06-23T10:00:27Z</time>
      </trkpt>
      <trkpt lat="44.23277" lon="6.93556">
        <ele>1488.1174226455</ele>
        <time>2019-06-23T10:00:32Z</time>
      </trkpt>
      <trkpt lat="44.23275" lon="6.93557">
        <ele>1487.7630543571</ele>
        <time>2019-06-23T10:00:40Z</time>
      </trkpt>
      <trkpt lat="44.23276" lon="6.9356">
        <ele>1486.8591136361</ele>
        <time>2019-06-23T10:00:49Z</time>
      </trkpt>
      <trkpt lat="44.23277" lon="6.93563">
        <ele>1486.3259955206</ele>
        <time>2019-06-23T10:00:53Z</time>
      </trkpt>
      <trkpt lat="44.23278" lon="6.93566">
        <ele>1485.4326469589</ele>
        <time>2019-06-23T10:00:58Z</time>
      </trkpt>
      <trkpt lat="44.2328" lon="6.93567">
        <ele>1484.2114025921</ele>
        <time>2019-06-23T10:01:03Z</time>
      </trkpt>
      <trkpt lat="44.23282" lon="6.93569">
        <ele>1483.2627807007</ele>
        <time>2019-06-23T10:01:07Z</time>
      </trkpt>
      <trkpt lat="44.23284" lon="6.93572">
        <ele>1482.2820376207</ele>
        <time>2019-06-23T10:01:11Z</time>
      </trkpt>
      <trkpt lat="44.23286" lon="6.93572">
        <ele>1481.1239463985</ele>
        <time>2019-06-23T10:01:13Z</time>
      </trkpt>
      <trkpt lat="44.23288" lon="6.93573">
        <ele>1480.3046443671</ele>
        <time>2019-06-23T10:01:17Z</time>
      </trkpt>
      <trkpt lat="44.23289" lon="6.93576">
        <ele>1479.4352922771</ele>
        <time>2019-06-23T10:01:20Z</time>
      </trkpt>
      <trkpt lat="44.23288" lon="6.93579">
        <ele>1478.4604459779</ele>
        <time>2019-06-23T10:01:25Z</time>
      </trkpt>
      <trkpt lat="44.23289" lon="6.93582">
        <ele>1477.7893047009</ele>
        <time>2019-06-23T10:01:27Z</time>
      </trkpt>
      <trkpt lat="44.23289" lon="6.93584">
        <ele>1476.7197997231</ele>
        <time>2019-06-23T10:01:32Z</time>
      </trkpt>
      <trkpt lat="44.23289" lon="6.93587">
        <ele>1474.8042754744</ele>
        <time>2019-06-23T10:01:35Z</time>
      </trkpt>
      <trkpt lat="44.2329" lon="6.93588">
        <ele>1474.1385064828</ele>
        <time>2019-06-23T10:01:40Z</time>
      </trkpt>
      <trkpt lat="44.23291" lon="6.9359">
        <ele>1472.6574989618</ele>
        <time>2019-06-23T10:01:45Z</time>
      </trkpt>
      <trkpt lat="44.2329" lon="6.93594">
        <ele>1472.146125348</ele>
        <time>2019-06-23T10:01:48Z</time>
      </trkpt>
      <trkpt lat="44.23289" lon="6.93596">
        <ele>1471.1973555599</ele>
        <time>2019-06-23T10:01:51Z</time>
      </trkpt>
      <trkpt lat="44.23289" lon="6.93599">
        <ele>1470.3663588553</ele>
        <time>2019-06-23T10:01:53Z</time>
      </trkpt>
      <trkpt lat="44.23287" lon="6.93599">
        <ele>1469.4419919311</ele>
        <time>2019-06-23T10:01:56Z</time>
      </trkpt>
      <trkpt lat="44.23285" lon="6.93599">
        <ele>1468.0327546337</ele>
        <time>2019-06-23T10:02:01Z</time>
      </trkpt>
      <trkpt lat="44.23285" lon="6.93602">
        <ele>1469.255282162</ele>
        <time>2019-06-23T10:02:07Z</time>
      </trkpt>
      <trkpt lat="44.23285" lon="6.93605">
        <ele>1462.1943415082</ele>
        <time>2019-06-23T10:02:12Z</time>
      </trkpt>
      <trkpt lat="44.23286" lon="6.93607">
        <ele>1462.2235341882</ele>
        <time>2019-06-23T10:02:18Z</time>
      </trkpt>
      <trkpt lat="44.23289" lon="6.93608">
        <ele>1465.4012207561</ele>
        <time>2019-06-23T10:02:26Z</time>
      </trkpt>
      <trkpt lat="44.23291" lon="6.93609">
        <ele>1464.9391152807</ele>
        <time>2019-06-23T10:02:28Z</time>
      </trkpt>
      <trkpt lat="44.23293" lon="6.93608">
        <ele>1465.027239248</ele>
        <time>2019-06-23T10:02:31Z</time>
      </trkpt>
      <trkpt lat="44.23295" lon="6.93608">
        <ele>1464.9664118426</ele>
        <time>2019-06-23T10:02:33Z</time>
      </trkpt>
      <trkpt lat="44.23297" lon="6.93609">
        <ele>1464.7399466349</ele>
        <time>2019-06-23T10:02:35Z</time>
      </trkpt>
      <trkpt lat="44.23299" lon="6.9361">
        <ele>1464.4132009681</ele>
        <time>2019-06-23T10:02:38Z</time>
      </trkpt>
      <trkpt lat="44.23301" lon="6.93607">
        <ele>1464.531197466</ele>
        <time>2019-06-23T10:02:43Z</time>
      </trkpt>
      <trkpt lat="44.23302" lon="6.93605">
        <ele>1465.6038913178</ele>
        <time>2019-06-23T10:02:47Z</time>
      </trkpt>
      <trkpt lat="44.23304" lon="6.93603">
        <ele>1465.9814813418</ele>
        <time>2019-06-23T10:02:49Z</time>
      </trkpt>
      <trkpt lat="44.23305" lon="6.936">
        <ele>1466.6813619783</ele>
        <time>2019-06-23T10:02:51Z</time>
      </trkpt>
      <trkpt lat="44.23306" lon="6.93596">
        <ele>1467.416254566</ele>
        <time>2019-06-23T10:02:54Z</time>
      </trkpt>
      <trkpt lat="44.23308" lon="6.93595">
        <ele>1467.5107414489</ele>
        <time>2019-06-23T10:02:56Z</time>
      </trkpt>
      <trkpt lat="44.23309" lon="6.93592">
        <ele>1467.1641292336</ele>
        <time>2019-06-23T10:02:59Z</time>
      </trkpt>
      <trkpt lat="44.2331" lon="6.93589">
        <ele>1467.6024524212</ele>
        <time>2019-06-23T10:03:02Z</time>
      </trkpt>
      <trkpt lat="44.2331" lon="6.93586">
        <ele>1464.4740789814</ele>
        <time>2019-06-23T10:03:09Z</time>
      </trkpt>
      <trkpt lat="44.2331" lon="6.93583">
        <ele>1453.5892912457</ele>
        <time>2019-06-23T10:03:17Z</time>
      </trkpt>
      <trkpt lat="44.23312" lon="6.9358">
        <ele>1467.5648484929</ele>
        <time>2019-06-23T10:03:21Z</time>
      </trkpt>
      <trkpt lat="44.23312" lon="6.93578">
        <ele>1469.3938448198</ele>
        <time>2019-06-23T10:03:23Z</time>
      </trkpt>
      <trkpt lat="44.23314" lon="6.93575">
        <ele>1469.8387772295</ele>
        <time>2019-06-23T10:03:26Z</time>
      </trkpt>
      <trkpt lat="44.23314" lon="6.93571">
        <ele>1469.8260445564</ele>
        <time>2019-06-23T10:03:28Z</time>
      </trkpt>
      <trkpt lat="44.23316" lon="6.93567">
        <ele>1470.5498503351</ele>
        <time>2019-06-23T10:03:30Z</time>
      </trkpt>
      <trkpt lat="44.23318" lon="6.93566">
        <ele>1470.4924558245</ele>
        <time>2019-06-23T10:03:32Z</time>
      </trkpt>
      <trkpt lat="44.23321" lon="6.93565">
        <ele>1468.9075610521</ele>
        <time>2019-06-23T10:03:36Z</time>
      </trkpt>
      <trkpt lat="44.23322" lon="6.93563">
        <ele>1468.4445949434</ele>
        <time>2019-06-23T10:03:38Z</time>
      </trkpt>
      <trkpt lat="44.23324" lon="6.9356">
        <ele>1468.2303282238</ele>
        <time>2019-06-23T10:03:41Z</time>
      </trkpt>
      <trkpt lat="44.23327" lon="6.93556">
        <ele>1468.0593326249</ele>
        <time>2019-06-23T10:03:43Z</time>
      </trkpt>
      <trkpt lat="44.23328" lon="6.93554">
        <ele>1467.3433685185</ele>
        <time>2019-06-23T10:03:45Z</time>
      </trkpt>
      <trkpt lat="44.2333" lon="6.9355">
        <ele>1467.4731314849</ele>
        <time>2019-06-23T10:03:47Z</time>
      </trkpt>
      <trkpt lat="44.23332" lon="6.93548">
        <ele>1467.4525992805</ele>
        <time>2019-06-23T10:03:49Z</time>
      </trkpt>
      <trkpt lat="44.23332" lon="6.93545">
        <ele>1467.2441097877</ele>
        <time>2019-06-23T10:03:52Z</time>
      </trkpt>
      <trkpt lat="44.23333" lon="6.93542">
        <ele>1468.3555678581</ele>
        <time>2019-06-23T10:03:56Z</time>
      </trkpt>
      <trkpt lat="44.23334" lon="6.93539">
        <ele>1467.7678026733</ele>
        <time>2019-06-23T10:03:59Z</time>
      </trkpt>
      <trkpt lat="44.23334" lon="6.93536">
        <ele>1468.3779581018</ele>
        <time>2019-06-23T10:04:01Z</time>
      </trkpt>
      <trkpt lat="44.23336" lon="6.93533">
        <ele>1468.3094515018</ele>
        <time>2019-06-23T10:04:03Z</time>
      </trkpt>
      <trkpt lat="44.23338" lon="6.9353">
        <ele>1468.040381426</ele>
        <time>2019-06-23T10:04:05Z</time>
      </trkpt>
      <trkpt lat="44.23339" lon="6.93527">
        <ele>1467.4701040553</ele>
        <time>2019-06-23T10:04:07Z</time>
      </trkpt>
      <trkpt lat="44.23341" lon="6.93524">
        <ele>1466.2125835913</ele>
        <time>2019-06-23T10:04:10Z</time>
      </trkpt>
      <trkpt lat="44.23342" lon="6.93521">
        <ele>1465.5723180204</ele>
        <time>2019-06-23T10:04:12Z</time>
      </trkpt>
      <trkpt lat="44.23343" lon="6.93517">
        <ele>1465.2951906881</ele>
        <time>2019-06-23T10:04:15Z</time>
      </trkpt>
      <trkpt lat="44.23345" lon="6.93514">
        <ele>1463.9146148729</ele>
        <time>2019-06-23T10:04:19Z</time>
      </trkpt>
      <trkpt lat="44.23346" lon="6.93511">
        <ele>1463.6112292023</ele>
        <time>2019-06-23T10:04:21Z</time>
      </trkpt>
      <trkpt lat="44.23347" lon="6.9351">
        <ele>1462.9946748378</ele>
        <time>2019-06-23T10:04:23Z</time>
      </trkpt>
      <trkpt lat="44.23348" lon="6.93507">
        <ele>1462.2304526535</ele>
        <time>2019-06-23T10:04:25Z</time>
      </trkpt>
      <trkpt lat="44.2335" lon="6.93502">
        <ele>1462.1405338204</ele>
        <time>2019-06-23T10:04:27Z</time>
      </trkpt>
      <trkpt lat="44.23351" lon="6.935">
        <ele>1461.8136812629</ele>
        <time>2019-06-23T10:04:29Z</time>
      </trkpt>
      <trkpt lat="44.23352" lon="6.93497">
        <ele>1461.84116198</ele>
        <time>2019-06-23T10:04:30Z</time>
      </trkpt>
      <trkpt lat="44.23354" lon="6.93495">
        <ele>1461.1771060015</ele>
        <time>2019-06-23T10:04:32Z</time>
      </trkpt>
      <trkpt lat="44.23356" lon="6.93492">
        <ele>1460.015373889</ele>
        <time>2019-06-23T10:04:34Z</time>
      </trkpt>
      <trkpt lat="44.23358" lon="6.9349">
        <ele>1458.6070317144</ele>
        <time>2019-06-23T10:04:36Z</time>
      </trkpt>
      <trkpt lat="44.2336" lon="6.93488">
        <ele>1457.0072036637</ele>
        <time>2019-06-23T10:04:38Z</time>
      </trkpt>
      <trkpt lat="44.23361" lon="6.93486">
        <ele>1456.2615813598</ele>
        <time>2019-06-23T10:04:40Z</time>
      </trkpt>
      <trkpt lat="44.23363" lon="6.93485">
        <ele>1454.7022591041</ele>
        <time>2019-06-23T10:04:45Z</time>
      </trkpt>
      <trkpt lat="44.23365" lon="6.93485">
        <ele>1453.0974747853</ele>
        <time>2019-06-23T10:04:47Z</time>
      </trkpt>
      <trkpt lat="44.23367" lon="6.93481">
        <ele>1450.9951561901</ele>
        <time>2019-06-23T10:04:49Z</time>
      </trkpt>
      <trkpt lat="44.23369" lon="6.93479">
        <ele>1449.4357366952</ele>
        <time>2019-06-23T10:04:52Z</time>
      </trkpt>
      <trkpt lat="44.23371" lon="6.93476">
        <ele>1448.0527538971</ele>
        <time>2019-06-23T10:04:54Z</time>
      </trkpt>
      <trkpt lat="44.23371" lon="6.93473">
        <ele>1447.3623749969</ele>
        <time>2019-06-23T10:04:56Z</time>
      </trkpt>
      <trkpt lat="44.23371" lon="6.9347">
        <ele>1446.9510728574</ele>
        <time>2019-06-23T10:04:57Z</time>
      </trkpt>
      <trkpt lat="44.23373" lon="6.93463">
        <ele>1448.0000459306</ele>
        <time>2019-06-23T10:04:59Z</time>
      </trkpt>
      <trkpt lat="44.23372" lon="6.9346">
        <ele>1448.5134018723</ele>
        <time>2019-06-23T10:05:01Z</time>
      </trkpt>
      <trkpt lat="44.23373" lon="6.93458">
        <ele>1449.7079263008</ele>
        <time>2019-06-23T10:05:03Z</time>
      </trkpt>
      <trkpt lat="44.23376" lon="6.93453">
        <ele>1448.8308578732</ele>
        <time>2019-06-23T10:05:05Z</time>
      </trkpt>
      <trkpt lat="44.23377" lon="6.93449">
        <ele>1448.2450175873</ele>
        <time>2019-06-23T10:05:08Z</time>
      </trkpt>
      <trkpt lat="44.23378" lon="6.93447">
        <ele>1448.213815456</ele>
        <time>2019-06-23T10:05:10Z</time>
      </trkpt>
      <trkpt lat="44.23379" lon="6.93445">
        <ele>1448.1540566728</ele>
        <time>2019-06-23T10:05:13Z</time>
      </trkpt>
      <trkpt lat="44.23381" lon="6.93443">
        <ele>1447.5697771848</ele>
        <time>2019-06-23T10:05:15Z</time>
      </trkpt>
      <trkpt lat="44.23382" lon="6.93441">
        <ele>1446.2692967139</ele>
        <time>2019-06-23T10:05:19Z</time>
      </trkpt>
      <trkpt lat="44.23384" lon="6.93439">
        <ele>1445.8326379109</ele>
        <time>2019-06-23T10:05:22Z</time>
      </trkpt>
      <trkpt lat="44.23386" lon="6.93436">
        <ele>1444.8838505948</ele>
        <time>2019-06-23T10:05:24Z</time>
      </trkpt>
      <trkpt lat="44.23388" lon="6.93434">
        <ele>1443.5982021718</ele>
        <time>2019-06-23T10:05:27Z</time>
      </trkpt>
      <trkpt lat="44.2339" lon="6.93431">
        <ele>1443.132741589</ele>
        <time>2019-06-23T10:05:29Z</time>
      </trkpt>
      <trkpt lat="44.23392" lon="6.93431">
        <ele>1442.7021800007</ele>
        <time>2019-06-23T10:05:31Z</time>
      </trkpt>
      <trkpt lat="44.23394" lon="6.93432">
        <ele>1441.5382784376</ele>
        <time>2019-06-23T10:05:33Z</time>
      </trkpt>
      <trkpt lat="44.23395" lon="6.9343">
        <ele>1440.2840307794</ele>
        <time>2019-06-23T10:05:35Z</time>
      </trkpt>
      <trkpt lat="44.23397" lon="6.93431">
        <ele>1439.0676345143</ele>
        <time>2019-06-23T10:05:37Z</time>
      </trkpt>
      <trkpt lat="44.234" lon="6.93433">
        <ele>1437.3509178161</ele>
        <time>2019-06-23T10:05:40Z</time>
      </trkpt>
      <trkpt lat="44.23402" lon="6.93434">
        <ele>1436.3729251862</ele>
        <time>2019-06-23T10:05:41Z</time>
      </trkpt>
      <trkpt lat="44.23404" lon="6.93437">
        <ele>1432.5260667298</ele>
        <time>2019-06-23T10:05:43Z</time>
      </trkpt>
      <trkpt lat="44.23406" lon="6.93439">
        <ele>1430.1642794175</ele>
        <time>2019-06-23T10:05:45Z</time>
      </trkpt>
      <trkpt lat="44.23408" lon="6.93442">
        <ele>1428.7503220483</ele>
        <time>2019-06-23T10:05:47Z</time>
      </trkpt>
      <trkpt lat="44.2341" lon="6.93443">
        <ele>1427.8542516344</ele>
        <time>2019-06-23T10:05:49Z</time>
      </trkpt>
      <trkpt lat="44.23412" lon="6.93444">
        <ele>1426.7997458948</ele>
        <time>2019-06-23T10:05:52Z</time>
      </trkpt>
      <trkpt lat="44.23415" lon="6.93444">
        <ele>1425.3961022411</ele>
        <time>2019-06-23T10:05:54Z</time>
      </trkpt>
      <trkpt lat="44.23417" lon="6.93443">
        <ele>1423.8494180994</ele>
        <time>2019-06-23T10:05:56Z</time>
      </trkpt>
      <trkpt lat="44.23419" lon="6.93441">
        <ele>1423.0956150764</ele>
        <time>2019-06-23T10:05:58Z</time>
      </trkpt>
      <trkpt lat="44.23422" lon="6.9344">
        <ele>1423.0148143458</ele>
        <time>2019-06-23T10:05:59Z</time>
      </trkpt>
      <trkpt lat="44.23424" lon="6.93438">
        <ele>1421.6874240681</ele>
        <time>2019-06-23T10:06:01Z</time>
      </trkpt>
      <trkpt lat="44.23426" lon="6.93435">
        <ele>1421.5766794622</ele>
        <time>2019-06-23T10:06:03Z</time>
      </trkpt>
      <trkpt lat="44.23428" lon="6.93432">
        <ele>1422.1388081002</ele>
        <time>2019-06-23T10:06:05Z</time>
      </trkpt>
      <trkpt lat="44.23429" lon="6.93431">
        <ele>1421.9056448786</ele>
        <time>2019-06-23T10:06:06Z</time>
      </trkpt>
      <trkpt lat="44.23431" lon="6.93428">
        <ele>1421.6214032635</ele>
        <time>2019-06-23T10:06:07Z</time>
      </trkpt>
      <trkpt lat="44.23432" lon="6.93426">
        <ele>1422.0135357426</ele>
        <time>2019-06-23T10:06:08Z</time>
      </trkpt>
      <trkpt lat="44.23434" lon="6.93423">
        <ele>1422.4633731962</ele>
        <time>2019-06-23T10:06:10Z</time>
      </trkpt>
      <trkpt lat="44.23434" lon="6.93417">
        <ele>1424.3494230844</ele>
        <time>2019-06-23T10:06:12Z</time>
      </trkpt>
      <trkpt lat="44.23435" lon="6.93414">
        <ele>1425.7839451466</ele>
        <time>2019-06-23T10:06:13Z</time>
      </trkpt>
      <trkpt lat="44.23435" lon="6.93411">
        <ele>1427.0742352492</ele>
        <time>2019-06-23T10:06:15Z</time>
      </trkpt>
      <trkpt lat="44.23437" lon="6.93409">
        <ele>1428.0070673494</ele>
        <time>2019-06-23T10:06:17Z</time>
      </trkpt>
      <trkpt lat="44.23439" lon="6.93409">
        <ele>1427.4996096903</ele>
        <time>2019-06-23T10:06:20Z</time>
      </trkpt>
      <trkpt lat="44.23442" lon="6.93409">
        <ele>1426.5915040881</ele>
        <time>2019-06-23T10:06:23Z</time>
      </trkpt>
      <trkpt lat="44.23444" lon="6.9341">
        <ele>1426.0385088243</ele>
        <time>2019-06-23T10:06:26Z</time>
      </trkpt>
      <trkpt lat="44.23447" lon="6.93413">
        <ele>1425.063701052</ele>
        <time>2019-06-23T10:06:28Z</time>
      </trkpt>
      <trkpt lat="44.23449" lon="6.93414">
        <ele>1424.3561563434</ele>
        <time>2019-06-23T10:06:30Z</time>
      </trkpt>
      <trkpt lat="44.23451" lon="6.93414">
        <ele>1424.0033631229</ele>
        <time>2019-06-23T10:06:32Z</time>
      </trkpt>
      <trkpt lat="44.23453" lon="6.93416">
        <ele>1423.876063218</ele>
        <time>2019-06-23T10:06:34Z</time>
      </trkpt>
      <trkpt lat="44.23455" lon="6.93419">
        <ele>1422.6739076506</ele>
        <time>2019-06-23T10:06:36Z</time>
      </trkpt>
      <trkpt lat="44.23456" lon="6.93421">
        <ele>1422.3045649899</ele>
        <time>2019-06-23T10:06:37Z</time>
      </trkpt>
      <trkpt lat="44.23458" lon="6.93421">
        <ele>1421.4118089214</ele>
        <time>2019-06-23T10:06:40Z</time>
      </trkpt>
      <trkpt lat="44.2346" lon="6.93421">
        <ele>1421.4967633201</ele>
        <time>2019-06-23T10:06:41Z</time>
      </trkpt>
      <trkpt lat="44.23463" lon="6.93422">
        <ele>1421.2456004915</ele>
        <time>2019-06-23T10:06:43Z</time>
      </trkpt>
      <trkpt lat="44.23467" lon="6.93421">
        <ele>1421.6040117148</ele>
        <time>2019-06-23T10:06:45Z</time>
      </trkpt>
      <trkpt lat="44.23469" lon="6.93421">
        <ele>1421.9187423885</ele>
        <time>2019-06-23T10:06:46Z</time>
      </trkpt>
      <trkpt lat="44.23473" lon="6.93424">
        <ele>1422.5080073622</ele>
        <time>2019-06-23T10:06:48Z</time>
      </trkpt>
      <trkpt lat="44.23476" lon="6.93426">
        <ele>1422.9052015851</ele>
        <time>2019-06-23T10:06:49Z</time>
      </trkpt>
      <trkpt lat="44.23477" lon="6.93429">
        <ele>1422.2636440904</ele>
        <time>2019-06-23T10:06:50Z</time>
      </trkpt>
      <trkpt lat="44.23479" lon="6.93431">
        <ele>1422.0991506468</ele>
        <time>2019-06-23T10:06:52Z</time>
      </trkpt>
      <trkpt lat="44.2348" lon="6.93435">
        <ele>1421.5977156733</ele>
        <time>2019-06-23T10:06:54Z</time>
      </trkpt>
      <trkpt lat="44.23481" lon="6.93438">
        <ele>1421.028707183</ele>
        <time>2019-06-23T10:06:56Z</time>
      </trkpt>
      <trkpt lat="44.23481" lon="6.9344">
        <ele>1419.7135566489</ele>
        <time>2019-06-23T10:06:58Z</time>
      </trkpt>
      <trkpt lat="44.23481" lon="6.93444">
        <ele>1418.9673863447</ele>
        <time>2019-06-23T10:07:00Z</time>
      </trkpt>
      <trkpt lat="44.2348" lon="6.93446">
        <ele>1420.0850817339</ele>
        <time>2019-06-23T10:07:03Z</time>
      </trkpt>
      <trkpt lat="44.2348" lon="6.93449">
        <ele>1420.2358184442</ele>
        <time>2019-06-23T10:07:05Z</time>
      </trkpt>
      <trkpt lat="44.2348" lon="6.93452">
        <ele>1420.2477982054</ele>
        <time>2019-06-23T10:07:06Z</time>
      </trkpt>
      <trkpt lat="44.2348" lon="6.93455">
        <ele>1420.1648823536</ele>
        <time>2019-06-23T10:07:08Z</time>
      </trkpt>
      <trkpt lat="44.2348" lon="6.9346">
        <ele>1419.9280200195</ele>
        <time>2019-06-23T10:07:10Z</time>
      </trkpt>
      <trkpt lat="44.2348" lon="6.93463">
        <ele>1409.1221335175</ele>
        <time>2019-06-23T10:07:12Z</time>
      </trkpt>
      <trkpt lat="44.23479" lon="6.93465">
        <ele>1408.3121439243</ele>
        <time>2019-06-23T10:07:13Z</time>
      </trkpt>
      <trkpt lat="44.23479" lon="6.9347">
        <ele>1405.6312494147</ele>
        <time>2019-06-23T10:07:15Z</time>
      </trkpt>
      <trkpt lat="44.23479" lon="6.93473">
        <ele>1403.3995243821</ele>
        <time>2019-06-23T10:07:19Z</time>
      </trkpt>
      <trkpt lat="44.23478" lon="6.93477">
        <ele>1402.0298698013</ele>
        <time>2019-06-23T10:07:21Z</time>
      </trkpt>
      <trkpt lat="44.23479" lon="6.93481">
        <ele>1400.6509242321</ele>
        <time>2019-06-23T10:07:23Z</time>
      </trkpt>
      <trkpt lat="44.23479" lon="6.93484">
        <ele>1400.427620652</ele>
        <time>2019-06-23T10:07:24Z</time>
      </trkpt>
      <trkpt lat="44.23479" lon="6.93488">
        <ele>1399.6773361924</ele>
        <time>2019-06-23T10:07:25Z</time>
      </trkpt>
      <trkpt lat="44.2348" lon="6.93491">
        <ele>1398.1222459016</ele>
        <time>2019-06-23T10:07:28Z</time>
      </trkpt>
      <trkpt lat="44.2348" lon="6.93494">
        <ele>1397.8435020458</ele>
        <time>2019-06-23T10:07:30Z</time>
      </trkpt>
      <trkpt lat="44.23483" lon="6.93495">
        <ele>1398.1325883865</ele>
        <time>2019-06-23T10:07:32Z</time>
      </trkpt>
      <trkpt lat="44.23485" lon="6.93497">
        <ele>1398.8947004414</ele>
        <time>2019-06-23T10:07:34Z</time>
      </trkpt>
      <trkpt lat="44.23487" lon="6.93498">
        <ele>1399.5303769818</ele>
        <time>2019-06-23T10:07:36Z</time>
      </trkpt>
      <trkpt lat="44.23489" lon="6.93499">
        <ele>1400.4279007394</ele>
        <time>2019-06-23T10:07:38Z</time>
      </trkpt>
      <trkpt lat="44.23491" lon="6.93501">
        <ele>1401.2091379399</ele>
        <time>2019-06-23T10:07:40Z</time>
      </trkpt>
      <trkpt lat="44.23494" lon="6.93501">
        <ele>1402.0477254584</ele>
        <time>2019-06-23T10:07:42Z</time>
      </trkpt>
      <trkpt lat="44.23497" lon="6.93502">
        <ele>1403.1402421929</ele>
        <time>2019-06-23T10:07:44Z</time>
      </trkpt>
      <trkpt lat="44.23499" lon="6.93502">
        <ele>1404.5896951923</ele>
        <time>2019-06-23T10:07:46Z</time>
      </trkpt>
      <trkpt lat="44.23499" lon="6.93505">
        <ele>1404.2443347742</ele>
        <time>2019-06-23T10:07:49Z</time>
      </trkpt>
      <trkpt lat="44.235" lon="6.93507">
        <ele>1403.3310578708</ele>
        <time>2019-06-23T10:07:53Z</time>
      </trkpt>
      <trkpt lat="44.23501" lon="6.9351">
        <ele>1411.4831100062</ele>
        <time>2019-06-23T10:07:58Z</time>
      </trkpt>
      <trkpt lat="44.23501" lon="6.93514">
        <ele>1416.26510043</ele>
        <time>2019-06-23T10:08:03Z</time>
      </trkpt>
      <trkpt lat="44.23502" lon="6.93517">
        <ele>1416.6520481249</ele>
        <time>2019-06-23T10:08:07Z</time>
      </trkpt>
      <trkpt lat="44.23503" lon="6.93521">
        <ele>1415.9215041011</ele>
        <time>2019-06-23T10:08:13Z</time>
      </trkpt>
      <trkpt lat="44.235" lon="6.93523">
        <ele>1415.4396542015</ele>
        <time>2019-06-23T10:08:15Z</time>
      </trkpt>
      <trkpt lat="44.23498" lon="6.93526">
        <ele>1414.7716843818</ele>
        <time>2019-06-23T10:08:17Z</time>
      </trkpt>
      <trkpt lat="44.23497" lon="6.93529">
        <ele>1414.0377782879</ele>
        <time>2019-06-23T10:08:19Z</time>
      </trkpt>
      <trkpt lat="44.23497" lon="6.93532">
        <ele>1391.1430306858</ele>
        <time>2019-06-23T10:08:21Z</time>
      </trkpt>
      <trkpt lat="44.23497" lon="6.93536">
        <ele>1395.3196770665</ele>
        <time>2019-06-23T10:08:22Z</time>
      </trkpt>
      <trkpt lat="44.23497" lon="6.93539">
        <ele>1387.5598888043</ele>
        <time>2019-06-23T10:08:24Z</time>
      </trkpt>
      <trkpt lat="44.23498" lon="6.93542">
        <ele>1386.1484975779</ele>
        <time>2019-06-23T10:08:25Z</time>
      </trkpt>
      <trkpt lat="44.235" lon="6.93544">
        <ele>1385.7936743733</ele>
        <time>2019-06-23T10:08:26Z</time>
      </trkpt>
      <trkpt lat="44.23501" lon="6.93548">
        <ele>1385.8771739864</ele>
        <time>2019-06-23T10:08:27Z</time>
      </trkpt>
      <trkpt lat="44.23503" lon="6.93551">
        <ele>1385.7290457114</ele>
        <time>2019-06-23T10:08:29Z</time>
      </trkpt>
      <trkpt lat="44.23506" lon="6.93555">
        <ele>1386.1835190185</ele>
        <time>2019-06-23T10:08:31Z</time>
      </trkpt>
      <trkpt lat="44.23507" lon="6.93558">
        <ele>1386.2600022281</ele>
        <time>2019-06-23T10:08:33Z</time>
      </trkpt>
      <trkpt lat="44.23509" lon="6.9356">
        <ele>1386.5413908395</ele>
        <time>2019-06-23T10:08:35Z</time>
      </trkpt>
      <trkpt lat="44.23511" lon="6.93562">
        <ele>1386.9487103409</ele>
        <time>2019-06-23T10:08:37Z</time>
      </trkpt>
      <trkpt lat="44.23513" lon="6.93565">
        <ele>1387.4132205476</ele>
        <time>2019-06-23T10:08:39Z</time>
      </trkpt>
      <trkpt lat="44.23515" lon="6.93566">
        <ele>1387.8670655262</ele>
        <time>2019-06-23T10:08:42Z</time>
      </trkpt>
      <trkpt lat="44.23516" lon="6.93568">
        <ele>1388.3009431993</ele>
        <time>2019-06-23T10:08:45Z</time>
      </trkpt>
      <trkpt lat="44.23516" lon="6.93571">
        <ele>1388.0508871633</ele>
        <time>2019-06-23T10:08:47Z</time>
      </trkpt>
      <trkpt lat="44.23516" lon="6.93574">
        <ele>1393.1467555602</ele>
        <time>2019-06-23T10:08:50Z</time>
      </trkpt>
      <trkpt lat="44.23517" lon="6.93576">
        <ele>1388.6609864135</ele>
        <time>2019-06-23T10:08:55Z</time>
      </trkpt>
      <trkpt lat="44.23517" lon="6.9358">
        <ele>1386.2720921006</ele>
        <time>2019-06-23T10:08:58Z</time>
      </trkpt>
      <trkpt lat="44.23517" lon="6.93583">
        <ele>1398.8974420246</ele>
        <time>2019-06-23T10:09:01Z</time>
      </trkpt>
      <trkpt lat="44.23519" lon="6.93585">
        <ele>1384.911106302</ele>
        <time>2019-06-23T10:09:03Z</time>
      </trkpt>
      <trkpt lat="44.2352" lon="6.93586">
        <ele>1384.5920669193</ele>
        <time>2019-06-23T10:09:05Z</time>
      </trkpt>
      <trkpt lat="44.23522" lon="6.93587">
        <ele>1384.8069155848</ele>
        <time>2019-06-23T10:09:06Z</time>
      </trkpt>
      <trkpt lat="44.23524" lon="6.93589">
        <ele>1385.211493713</ele>
        <time>2019-06-23T10:09:07Z</time>
      </trkpt>
      <trkpt lat="44.23526" lon="6.9359">
        <ele>1385.98870877</ele>
        <time>2019-06-23T10:09:10Z</time>
      </trkpt>
      <trkpt lat="44.2353" lon="6.93591">
        <ele>1387.1471886471</ele>
        <time>2019-06-23T10:09:12Z</time>
      </trkpt>
      <trkpt lat="44.23532" lon="6.93592">
        <ele>1386.2741872643</ele>
        <time>2019-06-23T10:09:14Z</time>
      </trkpt>
      <trkpt lat="44.23534" lon="6.93593">
        <ele>1386.1564509028</ele>
        <time>2019-06-23T10:09:16Z</time>
      </trkpt>
      <trkpt lat="44.23536" lon="6.93593">
        <ele>1385.7381116739</ele>
        <time>2019-06-23T10:09:18Z</time>
      </trkpt>
      <trkpt lat="44.23538" lon="6.93594">
        <ele>1385.9957874125</ele>
        <time>2019-06-23T10:09:20Z</time>
      </trkpt>
      <trkpt lat="44.23541" lon="6.93594">
        <ele>1386.2214571128</ele>
        <time>2019-06-23T10:09:24Z</time>
      </trkpt>
      <trkpt lat="44.23543" lon="6.93594">
        <ele>1386.33503221</ele>
        <time>2019-06-23T10:09:27Z</time>
      </trkpt>
      <trkpt lat="44.23546" lon="6.93593">
        <ele>1386.6397065761</ele>
        <time>2019-06-23T10:09:30Z</time>
      </trkpt>
      <trkpt lat="44.23548" lon="6.93594">
        <ele>1386.890521135</ele>
        <time>2019-06-23T10:09:32Z</time>
      </trkpt>
      <trkpt lat="44.2355" lon="6.93594">
        <ele>1386.9227912435</ele>
        <time>2019-06-23T10:09:34Z</time>
      </trkpt>
      <trkpt lat="44.23553" lon="6.93594">
        <ele>1387.4313297355</ele>
        <time>2019-06-23T10:09:37Z</time>
      </trkpt>
      <trkpt lat="44.23555" lon="6.93594">
        <ele>1387.500473214</ele>
        <time>2019-06-23T10:09:38Z</time>
      </trkpt>
      <trkpt lat="44.23557" lon="6.93594">
        <ele>1387.5375999642</ele>
        <time>2019-06-23T10:09:39Z</time>
      </trkpt>
      <trkpt lat="44.23558" lon="6.93593">
        <ele>1388.021305315</ele>
        <time>2019-06-23T10:09:40Z</time>
      </trkpt>
      <trkpt lat="44.23562" lon="6.93593">
        <ele>1388.9159118294</ele>
        <time>2019-06-23T10:09:42Z</time>
      </trkpt>
      <trkpt lat="44.23564" lon="6.93594">
        <ele>1390.151591293</ele>
        <time>2019-06-23T10:09:44Z</time>
      </trkpt>
      <trkpt lat="44.23566" lon="6.93595">
        <ele>1390.6618155193</ele>
        <time>2019-06-23T10:09:46Z</time>
      </trkpt>
      <trkpt lat="44.23571" lon="6.93597">
        <ele>1390.7693103396</ele>
        <time>2019-06-23T10:09:48Z</time>
      </trkpt>
      <trkpt lat="44.23573" lon="6.93598">
        <ele>1391.170819126</ele>
        <time>2019-06-23T10:09:49Z</time>
      </trkpt>
      <trkpt lat="44.23576" lon="6.93598">
        <ele>1391.7714924656</ele>
        <time>2019-06-23T10:09:50Z</time>
      </trkpt>
      <trkpt lat="44.23578" lon="6.93599">
        <ele>1392.4228439792</ele>
        <time>2019-06-23T10:09:51Z</time>
      </trkpt>
      <trkpt lat="44.2358" lon="6.93599">
        <ele>1392.9064250188</ele>
        <time>2019-06-23T10:09:53Z</time>
      </trkpt>
      <trkpt lat="44.23582" lon="6.93602">
        <ele>1393.35733871</ele>
        <time>2019-06-23T10:09:55Z</time>
      </trkpt>
      <trkpt lat="44.23582" lon="6.93604">
        <ele>1392.9145499275</ele>
        <time>2019-06-23T10:09:58Z</time>
      </trkpt>
      <trkpt lat="44.23583" lon="6.93607">
        <ele>1392.2574358283</ele>
        <time>2019-06-23T10:10:00Z</time>
      </trkpt>
      <trkpt lat="44.23583" lon="6.9361">
        <ele>1391.6462144289</ele>
        <time>2019-06-23T10:10:03Z</time>
      </trkpt>
      <trkpt lat="44.23583" lon="6.93612">
        <ele>1390.649856233</ele>
        <time>2019-06-23T10:10:05Z</time>
      </trkpt>
      <trkpt lat="44.23582" lon="6.93617">
        <ele>1390.0207251706</ele>
        <time>2019-06-23T10:10:07Z</time>
      </trkpt>
      <trkpt lat="44.23583" lon="6.93621">
        <ele>1388.3677700416</ele>
        <time>2019-06-23T10:10:09Z</time>
      </trkpt>
      <trkpt lat="44.23583" lon="6.93625">
        <ele>1387.3979787716</ele>
        <time>2019-06-23T10:10:11Z</time>
      </trkpt>
      <trkpt lat="44.23583" lon="6.93628">
        <ele>1386.2315303706</ele>
        <time>2019-06-23T10:10:13Z</time>
      </trkpt>
      <trkpt lat="44.23585" lon="6.93628">
        <ele>1386.0378093731</ele>
        <time>2019-06-23T10:10:16Z</time>
      </trkpt>
      <trkpt lat="44.23587" lon="6.9363">
        <ele>1385.630698452</ele>
        <time>2019-06-23T10:10:18Z</time>
      </trkpt>
      <trkpt lat="44.23588" lon="6.93633">
        <ele>1384.7945839828</ele>
        <time>2019-06-23T10:10:22Z</time>
      </trkpt>
      <trkpt lat="44.2359" lon="6.93635">
        <ele>1384.6184270567</ele>
        <time>2019-06-23T10:10:23Z</time>
      </trkpt>
      <trkpt lat="44.23592" lon="6.93638">
        <ele>1383.6064570214</ele>
        <time>2019-06-23T10:10:25Z</time>
      </trkpt>
      <trkpt lat="44.23592" lon="6.9364">
        <ele>1382.6787482097</ele>
        <time>2019-06-23T10:10:27Z</time>
      </trkpt>
      <trkpt lat="44.23594" lon="6.93644">
        <ele>1381.5636461173</ele>
        <time>2019-06-23T10:10:30Z</time>
      </trkpt>
      <trkpt lat="44.23594" lon="6.93645">
        <ele>1380.7101648131</ele>
        <time>2019-06-23T10:10:31Z</time>
      </trkpt>
      <trkpt lat="44.23594" lon="6.93649">
        <ele>1379.3598853853</ele>
        <time>2019-06-23T10:10:33Z</time>
      </trkpt>
      <trkpt lat="44.23594" lon="6.93652">
        <ele>1378.3154845407</ele>
        <time>2019-06-23T10:10:34Z</time>
      </trkpt>
      <trkpt lat="44.23595" lon="6.93655">
        <ele>1376.0049937584</ele>
        <time>2019-06-23T10:10:36Z</time>
      </trkpt>
      <trkpt lat="44.23596" lon="6.93657">
        <ele>1375.1000602373</ele>
        <time>2019-06-23T10:10:38Z</time>
      </trkpt>
      <trkpt lat="44.23597" lon="6.9366">
        <ele>1374.5830567134</ele>
        <time>2019-06-23T10:10:39Z</time>
      </trkpt>
      <trkpt lat="44.23599" lon="6.93663">
        <ele>1373.1108346055</ele>
        <time>2019-06-23T10:10:42Z</time>
      </trkpt>
      <trkpt lat="44.23601" lon="6.93664">
        <ele>1372.671145869</ele>
        <time>2019-06-23T10:10:43Z</time>
      </trkpt>
      <trkpt lat="44.23602" lon="6.93666">
        <ele>1372.7080120416</ele>
        <time>2019-06-23T10:10:45Z</time>
      </trkpt>
      <trkpt lat="44.23603" lon="6.93668">
        <ele>1372.0070904201</ele>
        <time>2019-06-23T10:10:47Z</time>
      </trkpt>
      <trkpt lat="44.23605" lon="6.93667">
        <ele>1372.1839374051</ele>
        <time>2019-06-23T10:10:49Z</time>
      </trkpt>
      <trkpt lat="44.23607" lon="6.93665">
        <ele>1372.819496188</ele>
        <time>2019-06-23T10:10:50Z</time>
      </trkpt>
      <trkpt lat="44.23608" lon="6.93663">
        <ele>1373.8152420077</ele>
        <time>2019-06-23T10:10:51Z</time>
      </trkpt>
      <trkpt lat="44.23609" lon="6.9366">
        <ele>1375.5747996827</ele>
        <time>2019-06-23T10:10:53Z</time>
      </trkpt>
      <trkpt lat="44.23612" lon="6.93659">
        <ele>1376.7909363763</ele>
        <time>2019-06-23T10:10:57Z</time>
      </trkpt>
      <trkpt lat="44.23614" lon="6.9366">
        <ele>1377.5337118998</ele>
        <time>2019-06-23T10:10:59Z</time>
      </trkpt>
      <trkpt lat="44.23615" lon="6.93661">
        <ele>1377.640379157</ele>
        <time>2019-06-23T10:11:01Z</time>
      </trkpt>
      <trkpt lat="44.23618" lon="6.93662">
        <ele>1377.9903276655</ele>
        <time>2019-06-23T10:11:03Z</time>
      </trkpt>
      <trkpt lat="44.2362" lon="6.93665">
        <ele>1377.8819423849</ele>
        <time>2019-06-23T10:11:05Z</time>
      </trkpt>
      <trkpt lat="44.23622" lon="6.93666">
        <ele>1377.8940208071</ele>
        <time>2019-06-23T10:11:06Z</time>
      </trkpt>
      <trkpt lat="44.23625" lon="6.93668">
        <ele>1378.2394961621</ele>
        <time>2019-06-23T10:11:08Z</time>
      </trkpt>
      <trkpt lat="44.23627" lon="6.93667">
        <ele>1378.3872468879</ele>
        <time>2019-06-23T10:11:09Z</time>
      </trkpt>
      <trkpt lat="44.2363" lon="6.93668">
        <ele>1379.6233883838</ele>
        <time>2019-06-23T10:11:11Z</time>
      </trkpt>
      <trkpt lat="44.23632" lon="6.93667">
        <ele>1380.2477761659</ele>
        <time>2019-06-23T10:11:13Z</time>
      </trkpt>
      <trkpt lat="44.23634" lon="6.93667">
        <ele>1381.1900354577</ele>
        <time>2019-06-23T10:11:16Z</time>
      </trkpt>
      <trkpt lat="44.23637" lon="6.93668">
        <ele>1381.4980202734</ele>
        <time>2019-06-23T10:11:18Z</time>
      </trkpt>
      <trkpt lat="44.23639" lon="6.93668">
        <ele>1382.2705385981</ele>
        <time>2019-06-23T10:11:20Z</time>
      </trkpt>
      <trkpt lat="44.23643" lon="6.9367">
        <ele>1382.7579175952</ele>
        <time>2019-06-23T10:11:23Z</time>
      </trkpt>
      <trkpt lat="44.23645" lon="6.93673">
        <ele>1382.5028311749</ele>
        <time>2019-06-23T10:11:25Z</time>
      </trkpt>
      <trkpt lat="44.23647" lon="6.93675">
        <ele>1382.2429585333</ele>
        <time>2019-06-23T10:11:27Z</time>
      </trkpt>
      <trkpt lat="44.23649" lon="6.93676">
        <ele>1382.313287053</ele>
        <time>2019-06-23T10:11:29Z</time>
      </trkpt>
      <trkpt lat="44.23652" lon="6.93679">
        <ele>1381.6874898846</ele>
        <time>2019-06-23T10:11:32Z</time>
      </trkpt>
      <trkpt lat="44.23653" lon="6.93681">
        <ele>1381.0750004329</ele>
        <time>2019-06-23T10:11:34Z</time>
      </trkpt>
      <trkpt lat="44.23653" lon="6.93685">
        <ele>1380.455069386</ele>
        <time>2019-06-23T10:11:36Z</time>
      </trkpt>
      <trkpt lat="44.23654" lon="6.93687">
        <ele>1378.9409222022</ele>
        <time>2019-06-23T10:11:38Z</time>
      </trkpt>
      <trkpt lat="44.23656" lon="6.93688">
        <ele>1377.7461101955</ele>
        <time>2019-06-23T10:11:40Z</time>
      </trkpt>
      <trkpt lat="44.23657" lon="6.93691">
        <ele>1376.6172545854</ele>
        <time>2019-06-23T10:11:45Z</time>
      </trkpt>
      <trkpt lat="44.23658" lon="6.93694">
        <ele>1375.660058578</ele>
        <time>2019-06-23T10:11:47Z</time>
      </trkpt>
      <trkpt lat="44.2366" lon="6.93695">
        <ele>1374.9154437118</ele>
        <time>2019-06-23T10:11:50Z</time>
      </trkpt>
      <trkpt lat="44.23661" lon="6.93697">
        <ele>1374.2813098147</ele>
        <time>2019-06-23T10:11:53Z</time>
      </trkpt>
      <trkpt lat="44.23663" lon="6.937">
        <ele>1373.5935368869</ele>
        <time>2019-06-23T10:11:56Z</time>
      </trkpt>
      <trkpt lat="44.23664" lon="6.93702">
        <ele>1372.7603463033</ele>
        <time>2019-06-23T10:11:58Z</time>
      </trkpt>
      <trkpt lat="44.23664" lon="6.93705">
        <ele>1371.8757394341</ele>
        <time>2019-06-23T10:12:01Z</time>
      </trkpt>
      <trkpt lat="44.23666" lon="6.93705">
        <ele>1371.4917657134</ele>
        <time>2019-06-23T10:12:05Z</time>
      </trkpt>
      <trkpt lat="44.23668" lon="6.93709">
        <ele>1371.1282530801</ele>
        <time>2019-06-23T10:12:08Z</time>
      </trkpt>
      <trkpt lat="44.23668" lon="6.93711">
        <ele>1370.3510999594</ele>
        <time>2019-06-23T10:12:10Z</time>
      </trkpt>
      <trkpt lat="44.2367" lon="6.93713">
        <ele>1370.0760684005</ele>
        <time>2019-06-23T10:12:11Z</time>
      </trkpt>
      <trkpt lat="44.23671" lon="6.93716">
        <ele>1369.2099091673</ele>
        <time>2019-06-23T10:12:13Z</time>
      </trkpt>
      <trkpt lat="44.23673" lon="6.93718">
        <ele>1368.7864458329</ele>
        <time>2019-06-23T10:12:16Z</time>
      </trkpt>
      <trkpt lat="44.23671" lon="6.93719">
        <ele>1367.5930028891</ele>
        <time>2019-06-23T10:12:21Z</time>
      </trkpt>
      <trkpt lat="44.23669" lon="6.9372">
        <ele>1367.4081815878</ele>
        <time>2019-06-23T10:12:24Z</time>
      </trkpt>
      <trkpt lat="44.2367" lon="6.93722">
        <ele>1367.2359823976</ele>
        <time>2019-06-23T10:12:28Z</time>
      </trkpt>
      <trkpt lat="44.2367" lon="6.93725">
        <ele>1366.2355354069</ele>
        <time>2019-06-23T10:12:30Z</time>
      </trkpt>
      <trkpt lat="44.23671" lon="6.93728">
        <ele>1365.1264425285</ele>
        <time>2019-06-23T10:12:33Z</time>
      </trkpt>
      <trkpt lat="44.23672" lon="6.93729">
        <ele>1365.0798950811</ele>
        <time>2019-06-23T10:12:36Z</time>
      </trkpt>
      <trkpt lat="44.23675" lon="6.9373">
        <ele>1364.5560896226</ele>
        <time>2019-06-23T10:12:39Z</time>
      </trkpt>
      <trkpt lat="44.23677" lon="6.93733">
        <ele>1363.8571286833</ele>
        <time>2019-06-23T10:12:42Z</time>
      </trkpt>
      <trkpt lat="44.23678" lon="6.93735">
        <ele>1363.3698408552</ele>
        <time>2019-06-23T10:12:45Z</time>
      </trkpt>
      <trkpt lat="44.2368" lon="6.93735">
        <ele>1362.9718813157</ele>
        <time>2019-06-23T10:12:47Z</time>
      </trkpt>
      <trkpt lat="44.23682" lon="6.93735">
        <ele>1362.8631141226</ele>
        <time>2019-06-23T10:12:49Z</time>
      </trkpt>
      <trkpt lat="44.23684" lon="6.93736">
        <ele>1362.6809827495</ele>
        <time>2019-06-23T10:12:51Z</time>
      </trkpt>
      <trkpt lat="44.23686" lon="6.93736">
        <ele>1362.6889722268</ele>
        <time>2019-06-23T10:12:53Z</time>
      </trkpt>
      <trkpt lat="44.23688" lon="6.93736">
        <ele>1362.6387124937</ele>
        <time>2019-06-23T10:12:56Z</time>
      </trkpt>
      <trkpt lat="44.23689" lon="6.93732">
        <ele>1363.1962623316</ele>
        <time>2019-06-23T10:12:59Z</time>
      </trkpt>
      <trkpt lat="44.23691" lon="6.9373">
        <ele>1364.1009133527</ele>
        <time>2019-06-23T10:13:01Z</time>
      </trkpt>
      <trkpt lat="44.23693" lon="6.93731">
        <ele>1364.4150282223</ele>
        <time>2019-06-23T10:13:03Z</time>
      </trkpt>
      <trkpt lat="44.23696" lon="6.9373">
        <ele>1364.3113822616</ele>
        <time>2019-06-23T10:13:05Z</time>
      </trkpt>
      <trkpt lat="44.23698" lon="6.9373">
        <ele>1364.2128574867</ele>
        <time>2019-06-23T10:13:08Z</time>
      </trkpt>
      <trkpt lat="44.237" lon="6.93729">
        <ele>1364.6415628286</ele>
        <time>2019-06-23T10:13:12Z</time>
      </trkpt>
      <trkpt lat="44.23702" lon="6.93731">
        <ele>1364.1397726282</ele>
        <time>2019-06-23T10:13:15Z</time>
      </trkpt>
      <trkpt lat="44.23703" lon="6.93733">
        <ele>1363.6968426153</ele>
        <time>2019-06-23T10:13:18Z</time>
      </trkpt>
      <trkpt lat="44.23704" lon="6.93735">
        <ele>1362.942593356</ele>
        <time>2019-06-23T10:13:22Z</time>
      </trkpt>
      <trkpt lat="44.23706" lon="6.93737">
        <ele>1362.636794113</ele>
        <time>2019-06-23T10:13:28Z</time>
      </trkpt>
      <trkpt lat="44.23708" lon="6.93739">
        <ele>1362.1741944029</ele>
        <time>2019-06-23T10:13:30Z</time>
      </trkpt>
      <trkpt lat="44.2371" lon="6.93741">
        <ele>1361.5903801734</ele>
        <time>2019-06-23T10:13:32Z</time>
      </trkpt>
      <trkpt lat="44.23711" lon="6.93743">
        <ele>1360.964616494</ele>
        <time>2019-06-23T10:13:34Z</time>
      </trkpt>
      <trkpt lat="44.23712" lon="6.93747">
        <ele>1359.9341031282</ele>
        <time>2019-06-23T10:13:37Z</time>
      </trkpt>
      <trkpt lat="44.23712" lon="6.9375">
        <ele>1358.8893256962</ele>
        <time>2019-06-23T10:13:39Z</time>
      </trkpt>
      <trkpt lat="44.23714" lon="6.93752">
        <ele>1358.3580051191</ele>
        <time>2019-06-23T10:13:41Z</time>
      </trkpt>
      <trkpt lat="44.23716" lon="6.93753">
        <ele>1357.8073745306</ele>
        <time>2019-06-23T10:13:43Z</time>
      </trkpt>
      <trkpt lat="44.23718" lon="6.93756">
        <ele>1357.2568584591</ele>
        <time>2019-06-23T10:13:45Z</time>
      </trkpt>
      <trkpt lat="44.2372" lon="6.93757">
        <ele>1356.6570039331</ele>
        <time>2019-06-23T10:13:47Z</time>
      </trkpt>
      <trkpt lat="44.23719" lon="6.93761">
        <ele>1355.8844233566</ele>
        <time>2019-06-23T10:13:49Z</time>
      </trkpt>
      <trkpt lat="44.2372" lon="6.93765">
        <ele>1354.8197003032</ele>
        <time>2019-06-23T10:13:52Z</time>
      </trkpt>
      <trkpt lat="44.23721" lon="6.93768">
        <ele>1353.6217080899</ele>
        <time>2019-06-23T10:13:55Z</time>
      </trkpt>
      <trkpt lat="44.23723" lon="6.9377">
        <ele>1352.7337789211</ele>
        <time>2019-06-23T10:13:59Z</time>
      </trkpt>
      <trkpt lat="44.23724" lon="6.93773">
        <ele>1351.8241063148</ele>
        <time>2019-06-23T10:14:03Z</time>
      </trkpt>
      <trkpt lat="44.23726" lon="6.93776">
        <ele>1350.8110577593</ele>
        <time>2019-06-23T10:14:05Z</time>
      </trkpt>
      <trkpt lat="44.23726" lon="6.93778">
        <ele>1349.5609992952</ele>
        <time>2019-06-23T10:14:07Z</time>
      </trkpt>
      <trkpt lat="44.23728" lon="6.93782">
        <ele>1348.3190660998</ele>
        <time>2019-06-23T10:14:11Z</time>
      </trkpt>
      <trkpt lat="44.2373" lon="6.93787">
        <ele>1346.7149880701</ele>
        <time>2019-06-23T10:14:13Z</time>
      </trkpt>
      <trkpt lat="44.23731" lon="6.93789">
        <ele>1344.9912873776</ele>
        <time>2019-06-23T10:14:15Z</time>
      </trkpt>
      <trkpt lat="44.23733" lon="6.93793">
        <ele>1343.6727307906</ele>
        <time>2019-06-23T10:14:17Z</time>
      </trkpt>
      <trkpt lat="44.23733" lon="6.93796">
        <ele>1342.9554116594</ele>
        <time>2019-06-23T10:14:18Z</time>
      </trkpt>
      <trkpt lat="44.23733" lon="6.93799">
        <ele>1342.1954961525</ele>
        <time>2019-06-23T10:14:19Z</time>
      </trkpt>
      <trkpt lat="44.23734" lon="6.93802">
        <ele>1341.0592140745</ele>
        <time>2019-06-23T10:14:20Z</time>
      </trkpt>
      <trkpt lat="44.23734" lon="6.93806">
        <ele>1341.5378775335</ele>
        <time>2019-06-23T10:14:22Z</time>
      </trkpt>
      <trkpt lat="44.23736" lon="6.9381">
        <ele>1343.7204126635</ele>
        <time>2019-06-23T10:14:24Z</time>
      </trkpt>
      <trkpt lat="44.23738" lon="6.93811">
        <ele>1336.0528137916</ele>
        <time>2019-06-23T10:14:26Z</time>
      </trkpt>
      <trkpt lat="44.2374" lon="6.93812">
        <ele>1334.902501262</ele>
        <time>2019-06-23T10:14:29Z</time>
      </trkpt>
      <trkpt lat="44.23742" lon="6.93812">
        <ele>1334.5737435643</ele>
        <time>2019-06-23T10:14:31Z</time>
      </trkpt>
      <trkpt lat="44.23744" lon="6.93814">
        <ele>1333.4887747552</ele>
        <time>2019-06-23T10:14:34Z</time>
      </trkpt>
      <trkpt lat="44.23746" lon="6.93814">
        <ele>1332.9605572269</ele>
        <time>2019-06-23T10:14:36Z</time>
      </trkpt>
      <trkpt lat="44.23748" lon="6.93813">
        <ele>1332.4362259794</ele>
        <time>2019-06-23T10:14:38Z</time>
      </trkpt>
      <trkpt lat="44.2375" lon="6.93811">
        <ele>1332.3333114712</ele>
        <time>2019-06-23T10:14:39Z</time>
      </trkpt>
      <trkpt lat="44.23751" lon="6.93809">
        <ele>1332.5672460946</ele>
        <time>2019-06-23T10:14:40Z</time>
      </trkpt>
      <trkpt lat="44.23754" lon="6.93807">
        <ele>1332.6066349091</ele>
        <time>2019-06-23T10:14:42Z</time>
      </trkpt>
      <trkpt lat="44.23756" lon="6.93806">
        <ele>1332.5444807822</ele>
        <time>2019-06-23T10:14:43Z</time>
      </trkpt>
      <trkpt lat="44.23759" lon="6.93805">
        <ele>1332.0744822071</ele>
        <time>2019-06-23T10:14:45Z</time>
      </trkpt>
      <trkpt lat="44.23761" lon="6.93804">
        <ele>1331.6170363581</ele>
        <time>2019-06-23T10:14:48Z</time>
      </trkpt>
      <trkpt lat="44.23763" lon="6.93803">
        <ele>1331.0895888664</ele>
        <time>2019-06-23T10:14:50Z</time>
      </trkpt>
      <trkpt lat="44.23765" lon="6.93801">
        <ele>1331.2927589843</ele>
        <time>2019-06-23T10:14:53Z</time>
      </trkpt>
      <trkpt lat="44.23767" lon="6.93799">
        <ele>1331.4389193348</ele>
        <time>2019-06-23T10:14:55Z</time>
      </trkpt>
      <trkpt lat="44.23769" lon="6.93798">
        <ele>1331.090213702</ele>
        <time>2019-06-23T10:14:57Z</time>
      </trkpt>
      <trkpt lat="44.23771" lon="6.93795">
        <ele>1331.1198150291</ele>
        <time>2019-06-23T10:15:00Z</time>
      </trkpt>
      <trkpt lat="44.23773" lon="6.93794">
        <ele>1331.0147985379</ele>
        <time>2019-06-23T10:15:02Z</time>
      </trkpt>
      <trkpt lat="44.23775" lon="6.93792">
        <ele>1330.943435873</ele>
        <time>2019-06-23T10:15:04Z</time>
      </trkpt>
      <trkpt lat="44.23776" lon="6.9379">
        <ele>1331.0548157522</ele>
        <time>2019-06-23T10:15:06Z</time>
      </trkpt>
      <trkpt lat="44.23777" lon="6.93787">
        <ele>1331.4233563088</ele>
        <time>2019-06-23T10:15:08Z</time>
      </trkpt>
      <trkpt lat="44.23779" lon="6.93786">
        <ele>1331.5750420823</ele>
        <time>2019-06-23T10:15:09Z</time>
      </trkpt>
      <trkpt lat="44.2378" lon="6.93783">
        <ele>1331.8860512478</ele>
        <time>2019-06-23T10:15:11Z</time>
      </trkpt>
      <trkpt lat="44.23782" lon="6.93781">
        <ele>1332.1626714134</ele>
        <time>2019-06-23T10:15:13Z</time>
      </trkpt>
      <trkpt lat="44.23784" lon="6.93778">
        <ele>1332.2906699598</ele>
        <time>2019-06-23T10:15:15Z</time>
      </trkpt>
      <trkpt lat="44.23786" lon="6.93777">
        <ele>1332.0243854817</ele>
        <time>2019-06-23T10:15:19Z</time>
      </trkpt>
      <trkpt lat="44.23788" lon="6.93778">
        <ele>1332.2476327926</ele>
        <time>2019-06-23T10:15:20Z</time>
      </trkpt>
      <trkpt lat="44.2379" lon="6.93779">
        <ele>1331.083585966</ele>
        <time>2019-06-23T10:15:23Z</time>
      </trkpt>
      <trkpt lat="44.23792" lon="6.93782">
        <ele>1329.5354556245</ele>
        <time>2019-06-23T10:15:26Z</time>
      </trkpt>
      <trkpt lat="44.23794" lon="6.93784">
        <ele>1328.1321619341</ele>
        <time>2019-06-23T10:15:30Z</time>
      </trkpt>
      <trkpt lat="44.23796" lon="6.93783">
        <ele>1327.3158467234</ele>
        <time>2019-06-23T10:15:33Z</time>
      </trkpt>
      <trkpt lat="44.23798" lon="6.9378">
        <ele>1327.5089160283</ele>
        <time>2019-06-23T10:15:36Z</time>
      </trkpt>
      <trkpt lat="44.238" lon="6.9378">
        <ele>1327.1869451631</ele>
        <time>2019-06-23T10:15:38Z</time>
      </trkpt>
      <trkpt lat="44.23802" lon="6.93778">
        <ele>1326.9164280912</ele>
        <time>2019-06-23T10:15:40Z</time>
      </trkpt>
      <trkpt lat="44.23803" lon="6.93777">
        <ele>1327.2170899739</ele>
        <time>2019-06-23T10:15:43Z</time>
      </trkpt>
      <trkpt lat="44.23805" lon="6.93775">
        <ele>1327.2825219835</ele>
        <time>2019-06-23T10:15:46Z</time>
      </trkpt>
      <trkpt lat="44.23807" lon="6.93775">
        <ele>1328.8221424742</ele>
        <time>2019-06-23T10:15:49Z</time>
      </trkpt>
      <trkpt lat="44.23809" lon="6.93776">
        <ele>1330.2661808519</ele>
        <time>2019-06-23T10:15:50Z</time>
      </trkpt>
      <trkpt lat="44.23812" lon="6.93776">
        <ele>1332.4550344761</ele>
        <time>2019-06-23T10:15:52Z</time>
      </trkpt>
      <trkpt lat="44.23814" lon="6.93776">
        <ele>1334.5289086554</ele>
        <time>2019-06-23T10:15:55Z</time>
      </trkpt>
      <trkpt lat="44.23815" lon="6.93777">
        <ele>1335.3533291411</ele>
        <time>2019-06-23T10:15:57Z</time>
      </trkpt>
      <trkpt lat="44.23817" lon="6.93778">
        <ele>1336.0273040434</ele>
        <time>2019-06-23T10:16:01Z</time>
      </trkpt>
      <trkpt lat="44.23819" lon="6.93779">
        <ele>1336.0248543626</ele>
        <time>2019-06-23T10:16:03Z</time>
      </trkpt>
      <trkpt lat="44.23822" lon="6.9378">
        <ele>1335.7943866589</ele>
        <time>2019-06-23T10:16:06Z</time>
      </trkpt>
      <trkpt lat="44.23823" lon="6.93781">
        <ele>1335.4198238076</ele>
        <time>2019-06-23T10:16:09Z</time>
      </trkpt>
      <trkpt lat="44.23826" lon="6.93782">
        <ele>1313.5446797044</ele>
        <time>2019-06-23T10:16:13Z</time>
      </trkpt>
      <trkpt lat="44.23828" lon="6.93783">
        <ele>1312.5838018233</ele>
        <time>2019-06-23T10:16:15Z</time>
      </trkpt>
      <trkpt lat="44.23829" lon="6.93782">
        <ele>1311.6541725712</ele>
        <time>2019-06-23T10:16:16Z</time>
      </trkpt>
      <trkpt lat="44.23832" lon="6.93781">
        <ele>1310.3026105553</ele>
        <time>2019-06-23T10:16:19Z</time>
      </trkpt>
      <trkpt lat="44.23832" lon="6.93778">
        <ele>1310.6267834062</ele>
        <time>2019-06-23T10:16:26Z</time>
      </trkpt>
      <trkpt lat="44.23832" lon="6.93781">
        <ele>1310.1825588061</ele>
        <time>2019-06-23T10:16:32Z</time>
      </trkpt>
      <trkpt lat="44.23829" lon="6.93779">
        <ele>1310.5625500871</ele>
        <time>2019-06-23T10:16:42Z</time>
      </trkpt>
      <trkpt lat="44.23828" lon="6.93778">
        <ele>1317.216956709</ele>
        <time>2019-06-23T10:16:44Z</time>
      </trkpt>
      <trkpt lat="44.23829" lon="6.9378">
        <ele>1329.5613879755</ele>
        <time>2019-06-23T10:16:52Z</time>
      </trkpt>
      <trkpt lat="44.23831" lon="6.93782">
        <ele>1331.128667109</ele>
        <time>2019-06-23T10:16:54Z</time>
      </trkpt>
      <trkpt lat="44.23832" lon="6.93784">
        <ele>1332.9464725938</ele>
        <time>2019-06-23T10:16:57Z</time>
      </trkpt>
      <trkpt lat="44.23834" lon="6.93786">
        <ele>1334.5268173723</ele>
        <time>2019-06-23T10:17:02Z</time>
      </trkpt>
      <trkpt lat="44.23832" lon="6.93788">
        <ele>1332.1443309823</ele>
        <time>2019-06-23T10:17:12Z</time>
      </trkpt>
      <trkpt lat="44.23831" lon="6.93789">
        <ele>1328.2690817487</ele>
        <time>2019-06-23T10:17:26Z</time>
      </trkpt>
      <trkpt lat="44.2383" lon="6.93787">
        <ele>1323.3327191556</ele>
        <time>2019-06-23T10:17:38Z</time>
      </trkpt>
      <trkpt lat="44.23828" lon="6.93786">
        <ele>1325.774204159</ele>
        <time>2019-06-23T10:17:52Z</time>
      </trkpt>
      <trkpt lat="44.23827" lon="6.93784">
        <ele>1325.3172260758</ele>
        <time>2019-06-23T10:17:55Z</time>
      </trkpt>
      <trkpt lat="44.23825" lon="6.93782">
        <ele>1324.8053042139</ele>
        <time>2019-06-23T10:17:58Z</time>
      </trkpt>
      <trkpt lat="44.23823" lon="6.9378">
        <ele>1324.4878097903</ele>
        <time>2019-06-23T10:18:00Z</time>
      </trkpt>
      <trkpt lat="44.23821" lon="6.93779">
        <ele>1323.9607592321</ele>
        <time>2019-06-23T10:18:03Z</time>
      </trkpt>
      <trkpt lat="44.23819" lon="6.93777">
        <ele>1323.2314576619</ele>
        <time>2019-06-23T10:18:08Z</time>
      </trkpt>
      <trkpt lat="44.23816" lon="6.93777">
        <ele>1322.9158863588</ele>
        <time>2019-06-23T10:18:11Z</time>
      </trkpt>
      <trkpt lat="44.23813" lon="6.93776">
        <ele>1322.7130715258</ele>
        <time>2019-06-23T10:18:13Z</time>
      </trkpt>
      <trkpt lat="44.23811" lon="6.93776">
        <ele>1322.4708230529</ele>
        <time>2019-06-23T10:18:15Z</time>
      </trkpt>
      <trkpt lat="44.23809" lon="6.93776">
        <ele>1323.4802282098</ele>
        <time>2019-06-23T10:18:16Z</time>
      </trkpt>
      <trkpt lat="44.23807" lon="6.93776">
        <ele>1324.5345622802</ele>
        <time>2019-06-23T10:18:17Z</time>
      </trkpt>
      <trkpt lat="44.23805" lon="6.93776">
        <ele>1326.4921991842</ele>
        <time>2019-06-23T10:18:19Z</time>
      </trkpt>
      <trkpt lat="44.23808" lon="6.93776">
        <ele>1326.5554681802</ele>
        <time>2019-06-23T10:18:21Z</time>
      </trkpt>
      <trkpt lat="44.2381" lon="6.93777">
        <ele>1325.6515589335</ele>
        <time>2019-06-23T10:18:22Z</time>
      </trkpt>
      <trkpt lat="44.23814" lon="6.93778">
        <ele>1324.1347031651</ele>
        <time>2019-06-23T10:18:23Z</time>
      </trkpt>
      <trkpt lat="44.23816" lon="6.93779">
        <ele>1322.3212048059</ele>
        <time>2019-06-23T10:18:25Z</time>
      </trkpt>
      <trkpt lat="44.23817" lon="6.93782">
        <ele>1318.7339831726</ele>
        <time>2019-06-23T10:18:29Z</time>
      </trkpt>
      <trkpt lat="44.23819" lon="6.93782">
        <ele>1317.7640469088</ele>
        <time>2019-06-23T10:18:31Z</time>
      </trkpt>
      <trkpt lat="44.23821" lon="6.93783">
        <ele>1315.9484813431</ele>
        <time>2019-06-23T10:18:36Z</time>
      </trkpt>
      <trkpt lat="44.23823" lon="6.93784">
        <ele>1331.6798955628</ele>
        <time>2019-06-23T10:18:45Z</time>
      </trkpt>
      <trkpt lat="44.23824" lon="6.93786">
        <ele>1315.6203906027</ele>
        <time>2019-06-23T10:18:51Z</time>
      </trkpt>
      <trkpt lat="44.23826" lon="6.93785">
        <ele>1312.0974482619</ele>
        <time>2019-06-23T10:18:57Z</time>
      </trkpt>
      <trkpt lat="44.23828" lon="6.93786">
        <ele>1330.9420292409</ele>
        <time>2019-06-23T10:19:14Z</time>
      </trkpt>
      <trkpt lat="44.23828" lon="6.93786">
        <ele>1332.1295792577</ele>
        <time>2019-06-23T10:19:15Z</time>
      </trkpt>
      <trkpt lat="44.23826" lon="6.93789">
        <ele>1310.7782262781</ele>
        <time>2019-06-23T10:19:19Z</time>
      </trkpt>
      <trkpt lat="44.23828" lon="6.93788">
        <ele>1310.0659248406</ele>
        <time>2019-06-23T10:19:44Z</time>
      </trkpt>
      <trkpt lat="44.23829" lon="6.93791">
        <ele>1309.1724554143</ele>
        <time>2019-06-23T10:20:23Z</time>
      </trkpt>
      <trkpt lat="44.2383" lon="6.93789">
        <ele>1308.1501521974</ele>
        <time>2019-06-23T10:20:55Z</time>
      </trkpt>
      <trkpt lat="44.23831" lon="6.93786">
        <ele>1315.1838898571</ele>
        <time>2019-06-23T10:21:01Z</time>
      </trkpt>
      <trkpt lat="44.23831" lon="6.93784">
        <ele>1309.777533017</ele>
        <time>2019-06-23T10:21:16Z</time>
      </trkpt>
      <trkpt lat="44.23833" lon="6.93784">
        <ele>1308.7712544103</ele>
        <time>2019-06-23T10:21:33Z</time>
      </trkpt>
      <trkpt lat="44.23832" lon="6.93781">
        <ele>1316.4619393854</ele>
        <time>2019-06-23T10:21:39Z</time>
      </trkpt>
      <trkpt lat="44.23831" lon="6.93784">
        <ele>1307.6749802256</ele>
        <time>2019-06-23T10:23:22Z</time>
      </trkpt>
      <trkpt lat="44.23834" lon="6.93785">
        <ele>1309.7775837607</ele>
        <time>2019-06-23T10:23:51Z</time>
      </trkpt>
      <trkpt lat="44.23837" lon="6.93787">
        <ele>1310.0997305614</ele>
        <time>2019-06-23T10:23:53Z</time>
      </trkpt>
      <trkpt lat="44.23835" lon="6.93784">
        <ele>1311.2627018438</ele>
        <time>2019-06-23T10:24:01Z</time>
      </trkpt>
      <trkpt lat="44.23834" lon="6.93781">
        <ele>1313.5637661963</ele>
        <time>2019-06-23T10:24:18Z</time>
      </trkpt>
      <trkpt lat="44.23832" lon="6.9378">
        <ele>1313.7014944089</ele>
        <time>2019-06-23T10:24:45Z</time>
      </trkpt>
      <trkpt lat="44.23833" lon="6.93778">
        <ele>1310.1187680698</ele>
        <time>2019-06-23T10:24:53Z</time>
      </trkpt>
      <trkpt lat="44.23832" lon="6.93781">
        <ele>1309.8898751669</ele>
        <time>2019-06-23T10:25:01Z</time>
      </trkpt>
      <trkpt lat="44.23832" lon="6.93783">
        <ele>1309.0644458027</ele>
        <time>2019-06-23T10:25:08Z</time>
      </trkpt>
      <trkpt lat="44.23834" lon="6.93783">
        <ele>1308.0547021105</ele>
        <time>2019-06-23T10:25:14Z</time>
      </trkpt>
      <trkpt lat="44.23835" lon="6.93781">
        <ele>1308.5668558143</ele>
        <time>2019-06-23T10:25:21Z</time>
      </trkpt>
      <trkpt lat="44.23837" lon="6.93779">
        <ele>1308.2729684875</ele>
        <time>2019-06-23T10:25:25Z</time>
      </trkpt>
      <trkpt lat="44.23839" lon="6.93779">
        <ele>1308.0544918024</ele>
        <time>2019-06-23T10:25:28Z</time>
      </trkpt>
      <trkpt lat="44.23841" lon="6.93781">
        <ele>1307.3433201103</ele>
        <time>2019-06-23T10:25:30Z</time>
      </trkpt>
      <trkpt lat="44.23843" lon="6.93781">
        <ele>1306.408105366</ele>
        <time>2019-06-23T10:25:32Z</time>
      </trkpt>
      <trkpt lat="44.23845" lon="6.9378">
        <ele>1306.0305574297</ele>
        <time>2019-06-23T10:25:37Z</time>
      </trkpt>
      <trkpt lat="44.23847" lon="6.93778">
        <ele>1305.7342050341</ele>
        <time>2019-06-23T10:25:39Z</time>
      </trkpt>
      <trkpt lat="44.2385" lon="6.93776">
        <ele>1305.9656458071</ele>
        <time>2019-06-23T10:25:41Z</time>
      </trkpt>
      <trkpt lat="44.23852" lon="6.93778">
        <ele>1305.2364444184</ele>
        <time>2019-06-23T10:25:45Z</time>
      </trkpt>
      <trkpt lat="44.23854" lon="6.93775">
        <ele>1304.6122816689</ele>
        <time>2019-06-23T10:25:50Z</time>
      </trkpt>
      <trkpt lat="44.23855" lon="6.93773">
        <ele>1305.0388040148</ele>
        <time>2019-06-23T10:25:52Z</time>
      </trkpt>
      <trkpt lat="44.23857" lon="6.93773">
        <ele>1304.4569502723</ele>
        <time>2019-06-23T10:25:57Z</time>
      </trkpt>
      <trkpt lat="44.23858" lon="6.9377">
        <ele>1304.954624401</ele>
        <time>2019-06-23T10:26:04Z</time>
      </trkpt>
      <trkpt lat="44.2386" lon="6.93767">
        <ele>1305.212680323</ele>
        <time>2019-06-23T10:26:06Z</time>
      </trkpt>
      <trkpt lat="44.23861" lon="6.93765">
        <ele>1305.641145892</ele>
        <time>2019-06-23T10:26:08Z</time>
      </trkpt>
      <trkpt lat="44.23862" lon="6.93763">
        <ele>1305.3807941558</ele>
        <time>2019-06-23T10:26:13Z</time>
      </trkpt>
      <trkpt lat="44.23864" lon="6.93761">
        <ele>1305.4014793741</ele>
        <time>2019-06-23T10:26:15Z</time>
      </trkpt>
      <trkpt lat="44.23865" lon="6.93758">
        <ele>1305.5010178963</ele>
        <time>2019-06-23T10:26:18Z</time>
      </trkpt>
      <trkpt lat="44.23866" lon="6.93756">
        <ele>1305.2211325392</ele>
        <time>2019-06-23T10:26:20Z</time>
      </trkpt>
      <trkpt lat="44.23868" lon="6.93753">
        <ele>1305.0697435977</ele>
        <time>2019-06-23T10:26:22Z</time>
      </trkpt>
      <trkpt lat="44.23869" lon="6.9375">
        <ele>1306.7274701448</ele>
        <time>2019-06-23T10:26:25Z</time>
      </trkpt>
      <trkpt lat="44.23871" lon="6.93749">
        <ele>1308.2758540235</ele>
        <time>2019-06-23T10:26:27Z</time>
      </trkpt>
      <trkpt lat="44.23872" lon="6.93746">
        <ele>1305.2973921489</ele>
        <time>2019-06-23T10:26:30Z</time>
      </trkpt>
      <trkpt lat="44.23875" lon="6.93745">
        <ele>1304.7555376615</ele>
        <time>2019-06-23T10:26:37Z</time>
      </trkpt>
      <trkpt lat="44.23876" lon="6.93742">
        <ele>1304.4255405298</ele>
        <time>2019-06-23T10:26:39Z</time>
      </trkpt>
      <trkpt lat="44.23878" lon="6.93741">
        <ele>1303.8565428371</ele>
        <time>2019-06-23T10:26:43Z</time>
      </trkpt>
      <trkpt lat="44.2388" lon="6.93741">
        <ele>1302.7724828475</ele>
        <time>2019-06-23T10:26:46Z</time>
      </trkpt>
      <trkpt lat="44.23882" lon="6.9374">
        <ele>1301.5306977746</ele>
        <time>2019-06-23T10:26:48Z</time>
      </trkpt>
      <trkpt lat="44.23884" lon="6.93738">
        <ele>1300.7323260698</ele>
        <time>2019-06-23T10:26:51Z</time>
      </trkpt>
      <trkpt lat="44.23886" lon="6.93737">
        <ele>1300.4433152881</ele>
        <time>2019-06-23T10:26:55Z</time>
      </trkpt>
      <trkpt lat="44.23888" lon="6.93737">
        <ele>1298.6489922273</ele>
        <time>2019-06-23T10:26:58Z</time>
      </trkpt>
      <trkpt lat="44.2389" lon="6.93736">
        <ele>1297.7374879828</ele>
        <time>2019-06-23T10:27:02Z</time>
      </trkpt>
      <trkpt lat="44.23892" lon="6.93736">
        <ele>1296.4914360157</ele>
        <time>2019-06-23T10:27:09Z</time>
      </trkpt>
      <trkpt lat="44.23893" lon="6.93736">
        <ele>1296.3433068911</ele>
        <time>2019-06-23T10:27:17Z</time>
      </trkpt>
      <trkpt lat="44.23895" lon="6.93734">
        <ele>1296.1659922555</ele>
        <time>2019-06-23T10:27:18Z</time>
      </trkpt>
      <trkpt lat="44.23897" lon="6.93731">
        <ele>1294.1153360516</ele>
        <time>2019-06-23T10:27:26Z</time>
      </trkpt>
      <trkpt lat="44.23898" lon="6.93729">
        <ele>1294.630495669</ele>
        <time>2019-06-23T10:27:29Z</time>
      </trkpt>
      <trkpt lat="44.23901" lon="6.93728">
        <ele>1293.3484916288</ele>
        <time>2019-06-23T10:27:40Z</time>
      </trkpt>
      <trkpt lat="44.23903" lon="6.93728">
        <ele>1292.2313288002</ele>
        <time>2019-06-23T10:27:43Z</time>
      </trkpt>
      <trkpt lat="44.23905" lon="6.9373">
        <ele>1291.6838637369</ele>
        <time>2019-06-23T10:27:46Z</time>
      </trkpt>
      <trkpt lat="44.23906" lon="6.93731">
        <ele>1291.8380125037</ele>
        <time>2019-06-23T10:27:47Z</time>
      </trkpt>
      <trkpt lat="44.23908" lon="6.93732">
        <ele>1291.9381900175</ele>
        <time>2019-06-23T10:27:48Z</time>
      </trkpt>
      <trkpt lat="44.23911" lon="6.93734">
        <ele>1291.7072170341</ele>
        <time>2019-06-23T10:27:51Z</time>
      </trkpt>
      <trkpt lat="44.23914" lon="6.93734">
        <ele>1290.7224513134</ele>
        <time>2019-06-23T10:27:54Z</time>
      </trkpt>
      <trkpt lat="44.23918" lon="6.93733">
        <ele>1289.6149367262</ele>
        <time>2019-06-23T10:27:56Z</time>
      </trkpt>
      <trkpt lat="44.2392" lon="6.93731">
        <ele>1288.947706417</ele>
        <time>2019-06-23T10:27:57Z</time>
      </trkpt>
      <trkpt lat="44.23923" lon="6.9373">
        <ele>1281.7559683041</ele>
        <time>2019-06-23T10:27:58Z</time>
      </trkpt>
      <trkpt lat="44.23925" lon="6.93728">
        <ele>1279.6783322877</ele>
        <time>2019-06-23T10:28:00Z</time>
      </trkpt>
      <trkpt lat="44.23927" lon="6.93727">
        <ele>1278.9812394233</ele>
        <time>2019-06-23T10:28:02Z</time>
      </trkpt>
      <trkpt lat="44.2393" lon="6.93725">
        <ele>1277.7030075084</ele>
        <time>2019-06-23T10:28:04Z</time>
      </trkpt>
      <trkpt lat="44.23931" lon="6.93722">
        <ele>1276.8853039215</ele>
        <time>2019-06-23T10:28:07Z</time>
      </trkpt>
      <trkpt lat="44.23933" lon="6.9372">
        <ele>1277.2694757199</ele>
        <time>2019-06-23T10:28:10Z</time>
      </trkpt>
      <trkpt lat="44.23934" lon="6.93718">
        <ele>1277.5082643106</ele>
        <time>2019-06-23T10:28:13Z</time>
      </trkpt>
      <trkpt lat="44.23936" lon="6.93717">
        <ele>1276.1854771355</ele>
        <time>2019-06-23T10:28:18Z</time>
      </trkpt>
      <trkpt lat="44.23938" lon="6.93715">
        <ele>1276.2877933768</ele>
        <time>2019-06-23T10:28:21Z</time>
      </trkpt>
      <trkpt lat="44.23939" lon="6.93713">
        <ele>1274.4407601229</ele>
        <time>2019-06-23T10:28:25Z</time>
      </trkpt>
      <trkpt lat="44.23942" lon="6.9371">
        <ele>1274.0099891234</ele>
        <time>2019-06-23T10:28:27Z</time>
      </trkpt>
      <trkpt lat="44.23943" lon="6.93709">
        <ele>1273.9723782212</ele>
        <time>2019-06-23T10:28:29Z</time>
      </trkpt>
      <trkpt lat="44.23945" lon="6.93707">
        <ele>1277.354420019</ele>
        <time>2019-06-23T10:28:36Z</time>
      </trkpt>
      <trkpt lat="44.23947" lon="6.93704">
        <ele>1278.4037730057</ele>
        <time>2019-06-23T10:28:38Z</time>
      </trkpt>
      <trkpt lat="44.23949" lon="6.93701">
        <ele>1278.8169419543</ele>
        <time>2019-06-23T10:28:42Z</time>
      </trkpt>
      <trkpt lat="44.23951" lon="6.937">
        <ele>1279.4243350656</ele>
        <time>2019-06-23T10:28:46Z</time>
      </trkpt>
      <trkpt lat="44.23952" lon="6.93697">
        <ele>1279.432511707</ele>
        <time>2019-06-23T10:28:48Z</time>
      </trkpt>
      <trkpt lat="44.23955" lon="6.93695">
        <ele>1279.6802557157</ele>
        <time>2019-06-23T10:28:51Z</time>
      </trkpt>
      <trkpt lat="44.23956" lon="6.93694">
        <ele>1278.5040125639</ele>
        <time>2019-06-23T10:28:53Z</time>
      </trkpt>
      <trkpt lat="44.23959" lon="6.93692">
        <ele>1278.7581390876</ele>
        <time>2019-06-23T10:28:57Z</time>
      </trkpt>
      <trkpt lat="44.23961" lon="6.93691">
        <ele>1278.0583375402</ele>
        <time>2019-06-23T10:28:59Z</time>
      </trkpt>
      <trkpt lat="44.23963" lon="6.93689">
        <ele>1276.968603929</ele>
        <time>2019-06-23T10:29:01Z</time>
      </trkpt>
      <trkpt lat="44.23966" lon="6.93689">
        <ele>1275.7599111827</ele>
        <time>2019-06-23T10:29:03Z</time>
      </trkpt>
      <trkpt lat="44.23968" lon="6.93688">
        <ele>1274.0234723974</ele>
        <time>2019-06-23T10:29:06Z</time>
      </trkpt>
      <trkpt lat="44.2397" lon="6.93687">
        <ele>1273.1776986369</ele>
        <time>2019-06-23T10:29:08Z</time>
      </trkpt>
      <trkpt lat="44.23972" lon="6.93686">
        <ele>1272.4375724359</ele>
        <time>2019-06-23T10:29:11Z</time>
      </trkpt>
      <trkpt lat="44.23974" lon="6.93685">
        <ele>1271.3044470592</ele>
        <time>2019-06-23T10:29:13Z</time>
      </trkpt>
      <trkpt lat="44.23977" lon="6.93685">
        <ele>1270.4241192234</ele>
        <time>2019-06-23T10:29:15Z</time>
      </trkpt>
      <trkpt lat="44.23979" lon="6.93683">
        <ele>1269.1537119411</ele>
        <time>2019-06-23T10:29:17Z</time>
      </trkpt>
      <trkpt lat="44.2398" lon="6.93681">
        <ele>1268.9536360421</ele>
        <time>2019-06-23T10:29:19Z</time>
      </trkpt>
      <trkpt lat="44.23981" lon="6.93679">
        <ele>1268.8556440276</ele>
        <time>2019-06-23T10:29:22Z</time>
      </trkpt>
      <trkpt lat="44.23984" lon="6.93677">
        <ele>1268.3128653715</ele>
        <time>2019-06-23T10:29:25Z</time>
      </trkpt>
      <trkpt lat="44.23986" lon="6.93676">
        <ele>1267.6169715042</ele>
        <time>2019-06-23T10:29:26Z</time>
      </trkpt>
      <trkpt lat="44.23988" lon="6.93675">
        <ele>1266.8145940315</ele>
        <time>2019-06-23T10:29:27Z</time>
      </trkpt>
      <trkpt lat="44.23991" lon="6.93674">
        <ele>1265.2001557517</ele>
        <time>2019-06-23T10:29:29Z</time>
      </trkpt>
      <trkpt lat="44.23993" lon="6.93672">
        <ele>1264.1738404705</ele>
        <time>2019-06-23T10:29:31Z</time>
      </trkpt>
      <trkpt lat="44.23996" lon="6.93671">
        <ele>1263.2485919661</ele>
        <time>2019-06-23T10:29:33Z</time>
      </trkpt>
      <trkpt lat="44.23998" lon="6.93671">
        <ele>1261.7907935978</ele>
        <time>2019-06-23T10:29:36Z</time>
      </trkpt>
      <trkpt lat="44.24" lon="6.93669">
        <ele>1261.0996101302</ele>
        <time>2019-06-23T10:29:38Z</time>
      </trkpt>
      <trkpt lat="44.24002" lon="6.9367">
        <ele>1260.3161077193</ele>
        <time>2019-06-23T10:29:40Z</time>
      </trkpt>
      <trkpt lat="44.24004" lon="6.93671">
        <ele>1257.6966696227</ele>
        <time>2019-06-23T10:29:43Z</time>
      </trkpt>
      <trkpt lat="44.24007" lon="6.93672">
        <ele>1256.5191811353</ele>
        <time>2019-06-23T10:29:45Z</time>
      </trkpt>
      <trkpt lat="44.24009" lon="6.93673">
        <ele>1255.0152424096</ele>
        <time>2019-06-23T10:29:48Z</time>
      </trkpt>
      <trkpt lat="44.24011" lon="6.93672">
        <ele>1253.4246573527</ele>
        <time>2019-06-23T10:29:50Z</time>
      </trkpt>
      <trkpt lat="44.24013" lon="6.93671">
        <ele>1252.854952674</ele>
        <time>2019-06-23T10:29:52Z</time>
      </trkpt>
      <trkpt lat="44.24016" lon="6.93669">
        <ele>1251.8081472288</ele>
        <time>2019-06-23T10:29:54Z</time>
      </trkpt>
      <trkpt lat="44.24019" lon="6.93669">
        <ele>1250.5312988317</ele>
        <time>2019-06-23T10:29:57Z</time>
      </trkpt>
      <trkpt lat="44.24021" lon="6.93671">
        <ele>1248.7765793915</ele>
        <time>2019-06-23T10:29:59Z</time>
      </trkpt>
      <trkpt lat="44.24023" lon="6.93672">
        <ele>1249.191616719</ele>
        <time>2019-06-23T10:30:01Z</time>
      </trkpt>
      <trkpt lat="44.24026" lon="6.93672">
        <ele>1245.5873427266</ele>
        <time>2019-06-23T10:30:03Z</time>
      </trkpt>
      <trkpt lat="44.24028" lon="6.93672">
        <ele>1243.9317064809</ele>
        <time>2019-06-23T10:30:05Z</time>
      </trkpt>
      <trkpt lat="44.2403" lon="6.93673">
        <ele>1242.983477933</ele>
        <time>2019-06-23T10:30:08Z</time>
      </trkpt>
      <trkpt lat="44.2403" lon="6.93674">
        <ele>1242.6907100064</ele>
        <time>2019-06-23T10:30:09Z</time>
      </trkpt>
      <trkpt lat="44.24032" lon="6.93674">
        <ele>1241.8635622618</ele>
        <time>2019-06-23T10:30:13Z</time>
      </trkpt>
      <trkpt lat="44.24034" lon="6.93675">
        <ele>1241.6364294421</ele>
        <time>2019-06-23T10:30:16Z</time>
      </trkpt>
      <trkpt lat="44.24036" lon="6.93674">
        <ele>1240.8759330222</ele>
        <time>2019-06-23T10:30:19Z</time>
      </trkpt>
      <trkpt lat="44.24038" lon="6.93673">
        <ele>1240.3274801371</ele>
        <time>2019-06-23T10:30:23Z</time>
      </trkpt>
      <trkpt lat="44.24039" lon="6.93674">
        <ele>1239.7175912584</ele>
        <time>2019-06-23T10:30:28Z</time>
      </trkpt>
      <trkpt lat="44.24041" lon="6.93676">
        <ele>1238.8257616205</ele>
        <time>2019-06-23T10:30:31Z</time>
      </trkpt>
      <trkpt lat="44.24043" lon="6.93679">
        <ele>1237.8907361776</ele>
        <time>2019-06-23T10:30:33Z</time>
      </trkpt>
      <trkpt lat="44.24045" lon="6.93678">
        <ele>1236.7498008619</ele>
        <time>2019-06-23T10:30:38Z</time>
      </trkpt>
      <trkpt lat="44.24048" lon="6.93676">
        <ele>1236.5998801345</ele>
        <time>2019-06-23T10:30:40Z</time>
      </trkpt>
      <trkpt lat="44.24049" lon="6.93675">
        <ele>1236.4921695625</ele>
        <time>2019-06-23T10:30:41Z</time>
      </trkpt>
      <trkpt lat="44.24051" lon="6.93675">
        <ele>1236.1299673957</ele>
        <time>2019-06-23T10:30:43Z</time>
      </trkpt>
      <trkpt lat="44.24054" lon="6.93675">
        <ele>1235.4948402471</ele>
        <time>2019-06-23T10:30:45Z</time>
      </trkpt>
      <trkpt lat="44.24056" lon="6.93676">
        <ele>1234.7750917588</ele>
        <time>2019-06-23T10:30:47Z</time>
      </trkpt>
      <trkpt lat="44.24057" lon="6.93674">
        <ele>1234.4514880239</ele>
        <time>2019-06-23T10:30:49Z</time>
      </trkpt>
      <trkpt lat="44.24059" lon="6.93672">
        <ele>1234.5735712131</ele>
        <time>2019-06-23T10:30:53Z</time>
      </trkpt>
      <trkpt lat="44.24061" lon="6.93671">
        <ele>1234.4178541661</ele>
        <time>2019-06-23T10:30:55Z</time>
      </trkpt>
      <trkpt lat="44.24063" lon="6.93671">
        <ele>1233.6271160874</ele>
        <time>2019-06-23T10:30:57Z</time>
      </trkpt>
      <trkpt lat="44.24066" lon="6.93672">
        <ele>1233.0361459536</ele>
        <time>2019-06-23T10:31:01Z</time>
      </trkpt>
      <trkpt lat="44.24069" lon="6.93672">
        <ele>1231.9639959467</ele>
        <time>2019-06-23T10:31:04Z</time>
      </trkpt>
      <trkpt lat="44.24071" lon="6.93671">
        <ele>1231.3174981595</ele>
        <time>2019-06-23T10:31:06Z</time>
      </trkpt>
      <trkpt lat="44.24074" lon="6.9367">
        <ele>1230.7798759317</ele>
        <time>2019-06-23T10:31:09Z</time>
      </trkpt>
      <trkpt lat="44.24077" lon="6.93669">
        <ele>1230.5531703871</ele>
        <time>2019-06-23T10:31:11Z</time>
      </trkpt>
      <trkpt lat="44.24079" lon="6.93669">
        <ele>1229.8726403922</ele>
        <time>2019-06-23T10:31:13Z</time>
      </trkpt>
      <trkpt lat="44.24082" lon="6.93668">
        <ele>1229.3531031587</ele>
        <time>2019-06-23T10:31:15Z</time>
      </trkpt>
      <trkpt lat="44.24084" lon="6.93668">
        <ele>1228.8375358103</ele>
        <time>2019-06-23T10:31:16Z</time>
      </trkpt>
      <trkpt lat="44.24086" lon="6.93668">
        <ele>1228.5161078258</ele>
        <time>2019-06-23T10:31:18Z</time>
      </trkpt>
      <trkpt lat="44.24089" lon="6.93667">
        <ele>1228.5781413486</ele>
        <time>2019-06-23T10:31:20Z</time>
      </trkpt>
      <trkpt lat="44.24091" lon="6.93665">
        <ele>1229.1090943339</ele>
        <time>2019-06-23T10:31:25Z</time>
      </trkpt>
      <trkpt lat="44.24091" lon="6.93668">
        <ele>1228.6193024156</ele>
        <time>2019-06-23T10:31:29Z</time>
      </trkpt>
      <trkpt lat="44.24091" lon="6.93672">
        <ele>1228.0303161562</ele>
        <time>2019-06-23T10:31:33Z</time>
      </trkpt>
      <trkpt lat="44.24093" lon="6.93675">
        <ele>1226.7770489548</ele>
        <time>2019-06-23T10:31:36Z</time>
      </trkpt>
      <trkpt lat="44.24094" lon="6.93676">
        <ele>1226.2408557404</ele>
        <time>2019-06-23T10:31:38Z</time>
      </trkpt>
      <trkpt lat="44.24095" lon="6.93679">
        <ele>1225.6650204746</ele>
        <time>2019-06-23T10:31:42Z</time>
      </trkpt>
      <trkpt lat="44.24093" lon="6.93683">
        <ele>1224.8824094892</ele>
        <time>2019-06-23T10:31:45Z</time>
      </trkpt>
      <trkpt lat="44.24091" lon="6.93683">
        <ele>1224.1768263379</ele>
        <time>2019-06-23T10:31:47Z</time>
      </trkpt>
      <trkpt lat="44.24088" lon="6.93683">
        <ele>1224.1147811751</ele>
        <time>2019-06-23T10:31:48Z</time>
      </trkpt>
      <trkpt lat="44.24086" lon="6.93684">
        <ele>1224.010485504</ele>
        <time>2019-06-23T10:31:50Z</time>
      </trkpt>
      <trkpt lat="44.24084" lon="6.93684">
        <ele>1223.719620921</ele>
        <time>2019-06-23T10:31:53Z</time>
      </trkpt>
      <trkpt lat="44.24084" lon="6.93687">
        <ele>1223.163804853</ele>
        <time>2019-06-23T10:32:01Z</time>
      </trkpt>
      <trkpt lat="44.24083" lon="6.93685">
        <ele>1223.1011692717</ele>
        <time>2019-06-23T10:32:17Z</time>
      </trkpt>
      <trkpt lat="44.24085" lon="6.93684">
        <ele>1223.7569496638</ele>
        <time>2019-06-23T10:32:53Z</time>
      </trkpt>
      <trkpt lat="44.24086" lon="6.93686">
        <ele>1223.444568557</ele>
        <time>2019-06-23T10:32:56Z</time>
      </trkpt>
      <trkpt lat="44.24087" lon="6.93688">
        <ele>1222.7784907402</ele>
        <time>2019-06-23T10:33:02Z</time>
      </trkpt>
      <trkpt lat="44.24089" lon="6.93687">
        <ele>1222.5564524336</ele>
        <time>2019-06-23T10:33:04Z</time>
      </trkpt>
      <trkpt lat="44.24091" lon="6.93685">
        <ele>1223.0576475779</ele>
        <time>2019-06-23T10:33:06Z</time>
      </trkpt>
      <trkpt lat="44.24094" lon="6.93683">
        <ele>1223.6742684161</ele>
        <time>2019-06-23T10:33:08Z</time>
      </trkpt>
      <trkpt lat="44.24097" lon="6.93682">
        <ele>1223.9886881463</ele>
        <time>2019-06-23T10:33:11Z</time>
      </trkpt>
      <trkpt lat="44.241" lon="6.93682">
        <ele>1224.4791098276</ele>
        <time>2019-06-23T10:33:13Z</time>
      </trkpt>
      <trkpt lat="44.24103" lon="6.93682">
        <ele>1224.3524747378</ele>
        <time>2019-06-23T10:33:15Z</time>
      </trkpt>
      <trkpt lat="44.24105" lon="6.93682">
        <ele>1224.3985447455</ele>
        <time>2019-06-23T10:33:16Z</time>
      </trkpt>
      <trkpt lat="44.24108" lon="6.93681">
        <ele>1224.4115555616</ele>
        <time>2019-06-23T10:33:18Z</time>
      </trkpt>
      <trkpt lat="44.2411" lon="6.93679">
        <ele>1224.8653551033</ele>
        <time>2019-06-23T10:33:20Z</time>
      </trkpt>
      <trkpt lat="44.24113" lon="6.93679">
        <ele>1225.1093420594</ele>
        <time>2019-06-23T10:33:21Z</time>
      </trkpt>
      <trkpt lat="44.24115" lon="6.93677">
        <ele>1224.8755620441</ele>
        <time>2019-06-23T10:33:22Z</time>
      </trkpt>
      <trkpt lat="44.24116" lon="6.93675">
        <ele>1225.1409070334</ele>
        <time>2019-06-23T10:33:24Z</time>
      </trkpt>
      <trkpt lat="44.24119" lon="6.93674">
        <ele>1224.7832858251</ele>
        <time>2019-06-23T10:33:26Z</time>
      </trkpt>
      <trkpt lat="44.24121" lon="6.93674">
        <ele>1224.4483275144</ele>
        <time>2019-06-23T10:33:27Z</time>
      </trkpt>
      <trkpt lat="44.24124" lon="6.93676">
        <ele>1223.5422548053</ele>
        <time>2019-06-23T10:33:29Z</time>
      </trkpt>
      <trkpt lat="44.24127" lon="6.93675">
        <ele>1222.0526215684</ele>
        <time>2019-06-23T10:33:31Z</time>
      </trkpt>
      <trkpt lat="44.24129" lon="6.93673">
        <ele>1221.5303546306</ele>
        <time>2019-06-23T10:33:33Z</time>
      </trkpt>
      <trkpt lat="44.24132" lon="6.93673">
        <ele>1221.4900011417</ele>
        <time>2019-06-23T10:33:36Z</time>
      </trkpt>
      <trkpt lat="44.24134" lon="6.93673">
        <ele>1220.6697083468</ele>
        <time>2019-06-23T10:33:39Z</time>
      </trkpt>
      <trkpt lat="44.24137" lon="6.93673">
        <ele>1220.0283504496</ele>
        <time>2019-06-23T10:33:41Z</time>
      </trkpt>
      <trkpt lat="44.24139" lon="6.93672">
        <ele>1219.4400569878</ele>
        <time>2019-06-23T10:33:43Z</time>
      </trkpt>
      <trkpt lat="44.24141" lon="6.93673">
        <ele>1218.9239924208</ele>
        <time>2019-06-23T10:33:48Z</time>
      </trkpt>
      <trkpt lat="44.24144" lon="6.93672">
        <ele>1219.0003378704</ele>
        <time>2019-06-23T10:33:50Z</time>
      </trkpt>
      <trkpt lat="44.24146" lon="6.93672">
        <ele>1219.1406167057</ele>
        <time>2019-06-23T10:33:52Z</time>
      </trkpt>
      <trkpt lat="44.24148" lon="6.93672">
        <ele>1219.1643437128</ele>
        <time>2019-06-23T10:33:54Z</time>
      </trkpt>
      <trkpt lat="44.24152" lon="6.93671">
        <ele>1219.1851693618</ele>
        <time>2019-06-23T10:33:56Z</time>
      </trkpt>
      <trkpt lat="44.24154" lon="6.93672">
        <ele>1219.3633451476</ele>
        <time>2019-06-23T10:33:58Z</time>
      </trkpt>
      <trkpt lat="44.24157" lon="6.93672">
        <ele>1219.3096459484</ele>
        <time>2019-06-23T10:34:00Z</time>
      </trkpt>
      <trkpt lat="44.24159" lon="6.93672">
        <ele>1219.1744275599</ele>
        <time>2019-06-23T10:34:02Z</time>
      </trkpt>
      <trkpt lat="44.24162" lon="6.93672">
        <ele>1219.2960563331</ele>
        <time>2019-06-23T10:34:04Z</time>
      </trkpt>
      <trkpt lat="44.24165" lon="6.93672">
        <ele>1219.1638057838</ele>
        <time>2019-06-23T10:34:07Z</time>
      </trkpt>
      <trkpt lat="44.24168" lon="6.93674">
        <ele>1218.9667777521</ele>
        <time>2019-06-23T10:34:09Z</time>
      </trkpt>
      <trkpt lat="44.2417" lon="6.93673">
        <ele>1218.7401260752</ele>
        <time>2019-06-23T10:34:11Z</time>
      </trkpt>
      <trkpt lat="44.24174" lon="6.93673">
        <ele>1218.9026544804</ele>
        <time>2019-06-23T10:34:13Z</time>
      </trkpt>
      <trkpt lat="44.24175" lon="6.93674">
        <ele>1218.7818041785</ele>
        <time>2019-06-23T10:34:15Z</time>
      </trkpt>
      <trkpt lat="44.24177" lon="6.93674">
        <ele>1218.62330142</ele>
        <time>2019-06-23T10:34:16Z</time>
      </trkpt>
      <trkpt lat="44.24179" lon="6.93674">
        <ele>1218.6282153044</ele>
        <time>2019-06-23T10:34:17Z</time>
      </trkpt>
      <trkpt lat="44.24181" lon="6.93674">
        <ele>1218.6420053434</ele>
        <time>2019-06-23T10:34:19Z</time>
      </trkpt>
      <trkpt lat="44.24184" lon="6.93674">
        <ele>1218.6196102848</ele>
        <time>2019-06-23T10:34:21Z</time>
      </trkpt>
      <trkpt lat="44.24187" lon="6.93674">
        <ele>1218.4815738342</ele>
        <time>2019-06-23T10:34:23Z</time>
      </trkpt>
      <trkpt lat="44.24189" lon="6.93673">
        <ele>1218.5374678387</ele>
        <time>2019-06-23T10:34:24Z</time>
      </trkpt>
      <trkpt lat="44.24192" lon="6.93673">
        <ele>1218.981388396</ele>
        <time>2019-06-23T10:34:26Z</time>
      </trkpt>
      <trkpt lat="44.24194" lon="6.93673">
        <ele>1218.893531459</ele>
        <time>2019-06-23T10:34:28Z</time>
      </trkpt>
      <trkpt lat="44.24197" lon="6.93673">
        <ele>1218.8662637295</ele>
        <time>2019-06-23T10:34:30Z</time>
      </trkpt>
      <trkpt lat="44.24199" lon="6.93673">
        <ele>1218.898862146</ele>
        <time>2019-06-23T10:34:32Z</time>
      </trkpt>
      <trkpt lat="44.24202" lon="6.93673">
        <ele>1218.8657237747</ele>
        <time>2019-06-23T10:34:34Z</time>
      </trkpt>
      <trkpt lat="44.24204" lon="6.93672">
        <ele>1219.0245183675</ele>
        <time>2019-06-23T10:34:36Z</time>
      </trkpt>
      <trkpt lat="44.24207" lon="6.93672">
        <ele>1219.1344095361</ele>
        <time>2019-06-23T10:34:38Z</time>
      </trkpt>
      <trkpt lat="44.2421" lon="6.93673">
        <ele>1218.9273395025</ele>
        <time>2019-06-23T10:34:40Z</time>
      </trkpt>
      <trkpt lat="44.24212" lon="6.93674">
        <ele>1218.8201735873</ele>
        <time>2019-06-23T10:34:42Z</time>
      </trkpt>
      <trkpt lat="44.24215" lon="6.93674">
        <ele>1218.6698966059</ele>
        <time>2019-06-23T10:34:44Z</time>
      </trkpt>
      <trkpt lat="44.24217" lon="6.93674">
        <ele>1218.6036052833</ele>
        <time>2019-06-23T10:34:47Z</time>
      </trkpt>
      <trkpt lat="44.2422" lon="6.93674">
        <ele>1218.5819277002</ele>
        <time>2019-06-23T10:34:49Z</time>
      </trkpt>
      <trkpt lat="44.24223" lon="6.93673">
        <ele>1218.7289057486</ele>
        <time>2019-06-23T10:34:51Z</time>
      </trkpt>
      <trkpt lat="44.24225" lon="6.93675">
        <ele>1218.2056135662</ele>
        <time>2019-06-23T10:34:53Z</time>
      </trkpt>
      <trkpt lat="44.24228" lon="6.93677">
        <ele>1217.4734702439</ele>
        <time>2019-06-23T10:34:55Z</time>
      </trkpt>
      <trkpt lat="44.24229" lon="6.93678">
        <ele>1216.8831906828</ele>
        <time>2019-06-23T10:34:56Z</time>
      </trkpt>
      <trkpt lat="44.24231" lon="6.93679">
        <ele>1215.9919342475</ele>
        <time>2019-06-23T10:34:58Z</time>
      </trkpt>
      <trkpt lat="44.24234" lon="6.93678">
        <ele>1215.5810539097</ele>
        <time>2019-06-23T10:35:00Z</time>
      </trkpt>
      <trkpt lat="44.24236" lon="6.93679">
        <ele>1215.3229651627</ele>
        <time>2019-06-23T10:35:01Z</time>
      </trkpt>
      <trkpt lat="44.24238" lon="6.9368">
        <ele>1214.6141713157</ele>
        <time>2019-06-23T10:35:04Z</time>
      </trkpt>
      <trkpt lat="44.2424" lon="6.93681">
        <ele>1214.2345028429</ele>
        <time>2019-06-23T10:35:06Z</time>
      </trkpt>
      <trkpt lat="44.24244" lon="6.93682">
        <ele>1213.8046124082</ele>
        <time>2019-06-23T10:35:08Z</time>
      </trkpt>
      <trkpt lat="44.24247" lon="6.93683">
        <ele>1213.2657297636</ele>
        <time>2019-06-23T10:35:10Z</time>
      </trkpt>
      <trkpt lat="44.24249" lon="6.93683">
        <ele>1212.9344424997</ele>
        <time>2019-06-23T10:35:12Z</time>
      </trkpt>
      <trkpt lat="44.24252" lon="6.93685">
        <ele>1212.6436645069</ele>
        <time>2019-06-23T10:35:15Z</time>
      </trkpt>
      <trkpt lat="44.24256" lon="6.93686">
        <ele>1212.6424454799</ele>
        <time>2019-06-23T10:35:17Z</time>
      </trkpt>
      <trkpt lat="44.24258" lon="6.93687">
        <ele>1212.6424332896</ele>
        <time>2019-06-23T10:35:19Z</time>
      </trkpt>
      <trkpt lat="44.24261" lon="6.93687">
        <ele>1212.6424331677</ele>
        <time>2019-06-23T10:35:21Z</time>
      </trkpt>
      <trkpt lat="44.24263" lon="6.93688">
        <ele>1212.6424331665</ele>
        <time>2019-06-23T10:35:23Z</time>
      </trkpt>
      <trkpt lat="44.24265" lon="6.93688">
        <ele>1212.6424331665</ele>
        <time>2019-06-23T10:35:25Z</time>
      </trkpt>
      <trkpt lat="44.24268" lon="6.93688">
        <ele>1212.6424331665</ele>
        <time>2019-06-23T10:35:27Z</time>
      </trkpt>
      <trkpt lat="44.24271" lon="6.93689">
        <ele>1212.6424331665</ele>
        <time>2019-06-23T10:35:29Z</time>
      </trkpt>
      <trkpt lat="44.24273" lon="6.93689">
        <ele>1212.6424331665</ele>
        <time>2019-06-23T10:35:31Z</time>
      </trkpt>
      <trkpt lat="44.24275" lon="6.93691">
        <ele>1212.6424331665</ele>
        <time>2019-06-23T10:35:33Z</time>
      </trkpt>
      <trkpt lat="44.24277" lon="6.93692">
        <ele>1212.6424331665</ele>
        <time>2019-06-23T10:35:35Z</time>
      </trkpt>
      <trkpt lat="44.24279" lon="6.93694">
        <ele>1212.6424331665</ele>
        <time>2019-06-23T10:35:37Z</time>
      </trkpt>
      <trkpt lat="44.24282" lon="6.93695">
        <ele>1212.6424331665</ele>
        <time>2019-06-23T10:35:39Z</time>
      </trkpt>
      <trkpt lat="44.24284" lon="6.93695">
        <ele>1212.592928772</ele>
        <time>2019-06-23T10:35:41Z</time>
      </trkpt>
      <trkpt lat="44.24287" lon="6.93697">
        <ele>1212.5502242554</ele>
        <time>2019-06-23T10:35:43Z</time>
      </trkpt>
      <trkpt lat="44.24289" lon="6.93698">
        <ele>1212.3166893</ele>
        <time>2019-06-23T10:35:45Z</time>
      </trkpt>
      <trkpt lat="44.24292" lon="6.937">
        <ele>1212.0505282669</ele>
        <time>2019-06-23T10:35:47Z</time>
      </trkpt>
      <trkpt lat="44.24294" lon="6.93701">
        <ele>1211.7877653382</ele>
        <time>2019-06-23T10:35:49Z</time>
      </trkpt>
      <trkpt lat="44.24297" lon="6.937">
        <ele>1211.5650046523</ele>
        <time>2019-06-23T10:35:51Z</time>
      </trkpt>
      <trkpt lat="44.243" lon="6.93698">
        <ele>1211.7255614693</ele>
        <time>2019-06-23T10:35:53Z</time>
      </trkpt>
      <trkpt lat="44.24302" lon="6.93694">
        <ele>1212.2233206019</ele>
        <time>2019-06-23T10:35:55Z</time>
      </trkpt>
      <trkpt lat="44.24304" lon="6.93693">
        <ele>1212.6420140539</ele>
        <time>2019-06-23T10:35:58Z</time>
      </trkpt>
      <trkpt lat="44.24308" lon="6.93691">
        <ele>1212.6424289754</ele>
        <time>2019-06-23T10:36:00Z</time>
      </trkpt>
      <trkpt lat="44.2431" lon="6.93689">
        <ele>1211.8191726265</ele>
        <time>2019-06-23T10:36:02Z</time>
      </trkpt>
      <trkpt lat="44.24312" lon="6.93688">
        <ele>1210.9373731685</ele>
        <time>2019-06-23T10:36:04Z</time>
      </trkpt>
      <trkpt lat="44.24313" lon="6.93687">
        <ele>1210.7613558776</ele>
        <time>2019-06-23T10:36:05Z</time>
      </trkpt>
      <trkpt lat="44.24316" lon="6.93684">
        <ele>1210.0078985167</ele>
        <time>2019-06-23T10:36:07Z</time>
      </trkpt>
      <trkpt lat="44.24317" lon="6.93682">
        <ele>1209.6531618304</ele>
        <time>2019-06-23T10:36:08Z</time>
      </trkpt>
      <trkpt lat="44.24319" lon="6.9368">
        <ele>1209.0087501699</ele>
        <time>2019-06-23T10:36:10Z</time>
      </trkpt>
      <trkpt lat="44.24321" lon="6.93678">
        <ele>1208.4230079576</ele>
        <time>2019-06-23T10:36:12Z</time>
      </trkpt>
      <trkpt lat="44.24323" lon="6.93675">
        <ele>1207.7870736312</ele>
        <time>2019-06-23T10:36:14Z</time>
      </trkpt>
      <trkpt lat="44.24326" lon="6.93673">
        <ele>1207.1008253719</ele>
        <time>2019-06-23T10:36:16Z</time>
      </trkpt>
      <trkpt lat="44.24329" lon="6.93671">
        <ele>1206.3387846667</ele>
        <time>2019-06-23T10:36:18Z</time>
      </trkpt>
      <trkpt lat="44.24332" lon="6.93668">
        <ele>1205.5002353046</ele>
        <time>2019-06-23T10:36:20Z</time>
      </trkpt>
      <trkpt lat="44.24333" lon="6.93666">
        <ele>1204.9079154848</ele>
        <time>2019-06-23T10:36:22Z</time>
      </trkpt>
      <trkpt lat="44.24335" lon="6.93664">
        <ele>1204.9773584975</ele>
        <time>2019-06-23T10:36:24Z</time>
      </trkpt>
      <trkpt lat="44.24336" lon="6.93661">
        <ele>1205.1021435038</ele>
        <time>2019-06-23T10:36:26Z</time>
      </trkpt>
      <trkpt lat="44.24337" lon="6.93659">
        <ele>1205.6406887171</ele>
        <time>2019-06-23T10:36:28Z</time>
      </trkpt>
      <trkpt lat="44.24339" lon="6.93656">
        <ele>1205.9506481439</ele>
        <time>2019-06-23T10:36:30Z</time>
      </trkpt>
      <trkpt lat="44.24341" lon="6.93653">
        <ele>1206.1385707362</ele>
        <time>2019-06-23T10:36:32Z</time>
      </trkpt>
      <trkpt lat="44.24343" lon="6.93653">
        <ele>1205.8909174914</ele>
        <time>2019-06-23T10:36:34Z</time>
      </trkpt>
      <trkpt lat="44.24346" lon="6.93651">
        <ele>1205.5468100996</ele>
        <time>2019-06-23T10:36:36Z</time>
      </trkpt>
      <trkpt lat="44.24349" lon="6.9365">
        <ele>1205.0632994456</ele>
        <time>2019-06-23T10:36:38Z</time>
      </trkpt>
      <trkpt lat="44.24352" lon="6.93649">
        <ele>1204.6800153999</ele>
        <time>2019-06-23T10:36:39Z</time>
      </trkpt>
      <trkpt lat="44.24353" lon="6.93648">
        <ele>1204.3451124556</ele>
        <time>2019-06-23T10:36:41Z</time>
      </trkpt>
      <trkpt lat="44.24355" lon="6.93646">
        <ele>1204.3176317547</ele>
        <time>2019-06-23T10:36:45Z</time>
      </trkpt>
      <trkpt lat="44.24357" lon="6.93646">
        <ele>1203.9921123985</ele>
        <time>2019-06-23T10:36:47Z</time>
      </trkpt>
      <trkpt lat="44.24358" lon="6.93643">
        <ele>1204.1219540483</ele>
        <time>2019-06-23T10:37:08Z</time>
      </trkpt>
      <trkpt lat="44.24361" lon="6.9364">
        <ele>1204.3247395917</ele>
        <time>2019-06-23T10:37:11Z</time>
      </trkpt>
      <trkpt lat="44.24362" lon="6.93637">
        <ele>1204.5109359183</ele>
        <time>2019-06-23T10:37:13Z</time>
      </trkpt>
      <trkpt lat="44.24363" lon="6.93633">
        <ele>1204.2002874362</ele>
        <time>2019-06-23T10:37:17Z</time>
      </trkpt>
      <trkpt lat="44.24364" lon="6.9363">
        <ele>1203.9272182522</ele>
        <time>2019-06-23T10:37:19Z</time>
      </trkpt>
      <trkpt lat="44.24365" lon="6.93626">
        <ele>1203.6715822869</ele>
        <time>2019-06-23T10:37:21Z</time>
      </trkpt>
      <trkpt lat="44.24366" lon="6.93623">
        <ele>1203.2832080561</ele>
        <time>2019-06-23T10:37:23Z</time>
      </trkpt>
      <trkpt lat="44.24368" lon="6.9362">
        <ele>1202.7762054174</ele>
        <time>2019-06-23T10:37:25Z</time>
      </trkpt>
      <trkpt lat="44.24369" lon="6.93617">
        <ele>1202.4379515049</ele>
        <time>2019-06-23T10:37:26Z</time>
      </trkpt>
      <trkpt lat="44.24372" lon="6.93615">
        <ele>1201.8203578323</ele>
        <time>2019-06-23T10:37:28Z</time>
      </trkpt>
      <trkpt lat="44.24374" lon="6.93612">
        <ele>1201.2730612901</ele>
        <time>2019-06-23T10:37:30Z</time>
      </trkpt>
      <trkpt lat="44.24376" lon="6.9361">
        <ele>1200.7667996898</ele>
        <time>2019-06-23T10:37:31Z</time>
      </trkpt>
      <trkpt lat="44.24378" lon="6.93609">
        <ele>1200.320555854</ele>
        <time>2019-06-23T10:37:32Z</time>
      </trkpt>
      <trkpt lat="44.2438" lon="6.93608">
        <ele>1199.8372893446</ele>
        <time>2019-06-23T10:37:34Z</time>
      </trkpt>
      <trkpt lat="44.24382" lon="6.93605">
        <ele>1199.6772308494</ele>
        <time>2019-06-23T10:37:36Z</time>
      </trkpt>
      <trkpt lat="44.24385" lon="6.93603">
        <ele>1199.7419986726</ele>
        <time>2019-06-23T10:37:38Z</time>
      </trkpt>
      <trkpt lat="44.24387" lon="6.936">
        <ele>1199.7532481575</ele>
        <time>2019-06-23T10:37:40Z</time>
      </trkpt>
      <trkpt lat="44.24389" lon="6.93598">
        <ele>1199.8877234453</ele>
        <time>2019-06-23T10:37:42Z</time>
      </trkpt>
      <trkpt lat="44.24391" lon="6.93596">
        <ele>1200.0402730322</ele>
        <time>2019-06-23T10:37:44Z</time>
      </trkpt>
      <trkpt lat="44.24394" lon="6.93592">
        <ele>1200.4053580984</ele>
        <time>2019-06-23T10:37:46Z</time>
      </trkpt>
      <trkpt lat="44.24394" lon="6.93589">
        <ele>1200.7482544683</ele>
        <time>2019-06-23T10:37:47Z</time>
      </trkpt>
      <trkpt lat="44.24396" lon="6.93588">
        <ele>1201.1607606666</ele>
        <time>2019-06-23T10:37:49Z</time>
      </trkpt>
      <trkpt lat="44.24399" lon="6.93586">
        <ele>1200.9795573595</ele>
        <time>2019-06-23T10:37:51Z</time>
      </trkpt>
      <trkpt lat="44.24401" lon="6.93585">
        <ele>1200.7098327287</ele>
        <time>2019-06-23T10:37:53Z</time>
      </trkpt>
      <trkpt lat="44.24403" lon="6.93584">
        <ele>1200.5110185391</ele>
        <time>2019-06-23T10:37:55Z</time>
      </trkpt>
      <trkpt lat="44.24405" lon="6.93581">
        <ele>1200.2927425554</ele>
        <time>2019-06-23T10:37:57Z</time>
      </trkpt>
      <trkpt lat="44.24408" lon="6.93579">
        <ele>1199.9679572565</ele>
        <time>2019-06-23T10:37:59Z</time>
      </trkpt>
      <trkpt lat="44.2441" lon="6.93578">
        <ele>1199.8597899699</ele>
        <time>2019-06-23T10:38:01Z</time>
      </trkpt>
      <trkpt lat="44.24411" lon="6.93576">
        <ele>1199.6562586906</ele>
        <time>2019-06-23T10:38:02Z</time>
      </trkpt>
      <trkpt lat="44.24413" lon="6.93573">
        <ele>1199.8763714706</ele>
        <time>2019-06-23T10:38:04Z</time>
      </trkpt>
      <trkpt lat="44.24415" lon="6.9357">
        <ele>1200.3337032136</ele>
        <time>2019-06-23T10:38:06Z</time>
      </trkpt>
      <trkpt lat="44.24416" lon="6.93568">
        <ele>1201.0230653494</ele>
        <time>2019-06-23T10:38:08Z</time>
      </trkpt>
      <trkpt lat="44.24419" lon="6.93565">
        <ele>1201.0077226426</ele>
        <time>2019-06-23T10:38:10Z</time>
      </trkpt>
      <trkpt lat="44.24421" lon="6.93563">
        <ele>1201.1580379656</ele>
        <time>2019-06-23T10:38:12Z</time>
      </trkpt>
      <trkpt lat="44.24424" lon="6.9356">
        <ele>1201.1394690973</ele>
        <time>2019-06-23T10:38:14Z</time>
      </trkpt>
      <trkpt lat="44.24425" lon="6.93557">
        <ele>1201.4953942485</ele>
        <time>2019-06-23T10:38:16Z</time>
      </trkpt>
      <trkpt lat="44.24427" lon="6.93554">
        <ele>1201.8808272793</ele>
        <time>2019-06-23T10:38:18Z</time>
      </trkpt>
      <trkpt lat="44.24428" lon="6.93551">
        <ele>1201.4008217463</ele>
        <time>2019-06-23T10:38:20Z</time>
      </trkpt>
      <trkpt lat="44.2443" lon="6.93548">
        <ele>1201.0760888296</ele>
        <time>2019-06-23T10:38:22Z</time>
      </trkpt>
      <trkpt lat="44.24432" lon="6.93545">
        <ele>1200.4556625454</ele>
        <time>2019-06-23T10:38:24Z</time>
      </trkpt>
      <trkpt lat="44.24434" lon="6.93543">
        <ele>1199.9216970521</ele>
        <time>2019-06-23T10:38:26Z</time>
      </trkpt>
      <trkpt lat="44.24436" lon="6.93541">
        <ele>1199.3626135007</ele>
        <time>2019-06-23T10:38:28Z</time>
      </trkpt>
      <trkpt lat="44.24438" lon="6.9354">
        <ele>1198.5588109952</ele>
        <time>2019-06-23T10:38:30Z</time>
      </trkpt>
      <trkpt lat="44.24439" lon="6.93538">
        <ele>1198.1489040737</ele>
        <time>2019-06-23T10:38:32Z</time>
      </trkpt>
      <trkpt lat="44.24441" lon="6.93535">
        <ele>1197.9256717037</ele>
        <time>2019-06-23T10:38:34Z</time>
      </trkpt>
      <trkpt lat="44.24442" lon="6.93535">
        <ele>1197.4323834718</ele>
        <time>2019-06-23T10:38:36Z</time>
      </trkpt>
      <trkpt lat="44.24442" lon="6.93538">
        <ele>1197.1103442127</ele>
        <time>2019-06-23T10:38:37Z</time>
      </trkpt>
      <trkpt lat="44.2444" lon="6.93541">
        <ele>1197.3079948453</ele>
        <time>2019-06-23T10:38:39Z</time>
      </trkpt>
      <trkpt lat="44.24439" lon="6.93545">
        <ele>1197.8785904274</ele>
        <time>2019-06-23T10:38:42Z</time>
      </trkpt>
      <trkpt lat="44.24438" lon="6.93548">
        <ele>1198.1394321903</ele>
        <time>2019-06-23T10:38:44Z</time>
      </trkpt>
      <trkpt lat="44.24436" lon="6.9355">
        <ele>1198.5560713696</ele>
        <time>2019-06-23T10:38:46Z</time>
      </trkpt>
      <trkpt lat="44.24434" lon="6.93554">
        <ele>1199.1044345388</ele>
        <time>2019-06-23T10:38:48Z</time>
      </trkpt>
      <trkpt lat="44.24432" lon="6.93558">
        <ele>1199.5281017642</ele>
        <time>2019-06-23T10:38:50Z</time>
      </trkpt>
      <trkpt lat="44.24432" lon="6.9356">
        <ele>1199.2273579677</ele>
        <time>2019-06-23T10:38:52Z</time>
      </trkpt>
      <trkpt lat="44.24429" lon="6.93562">
        <ele>1198.8717663012</ele>
        <time>2019-06-23T10:38:54Z</time>
      </trkpt>
      <trkpt lat="44.24427" lon="6.93565">
        <ele>1198.9604625818</ele>
        <time>2019-06-23T10:38:56Z</time>
      </trkpt>
      <trkpt lat="44.24425" lon="6.93567">
        <ele>1198.817055111</ele>
        <time>2019-06-23T10:38:58Z</time>
      </trkpt>
      <trkpt lat="44.24424" lon="6.93569">
        <ele>1198.4960067785</ele>
        <time>2019-06-23T10:39:00Z</time>
      </trkpt>
      <trkpt lat="44.24423" lon="6.93574">
        <ele>1197.9387118225</ele>
        <time>2019-06-23T10:39:02Z</time>
      </trkpt>
      <trkpt lat="44.24422" lon="6.93578">
        <ele>1197.021954791</ele>
        <time>2019-06-23T10:39:04Z</time>
      </trkpt>
      <trkpt lat="44.2442" lon="6.93581">
        <ele>1196.45441808</ele>
        <time>2019-06-23T10:39:06Z</time>
      </trkpt>
      <trkpt lat="44.24419" lon="6.93584">
        <ele>1195.7344407895</ele>
        <time>2019-06-23T10:39:26Z</time>
      </trkpt>
      <trkpt lat="44.24417" lon="6.93588">
        <ele>1195.270467679</ele>
        <time>2019-06-23T10:39:29Z</time>
      </trkpt>
      <trkpt lat="44.24416" lon="6.93593">
        <ele>1194.5847303905</ele>
        <time>2019-06-23T10:39:32Z</time>
      </trkpt>
      <trkpt lat="44.24414" lon="6.93595">
        <ele>1194.0576833967</ele>
        <time>2019-06-23T10:39:33Z</time>
      </trkpt>
      <trkpt lat="44.24412" lon="6.93597">
        <ele>1193.943894713</ele>
        <time>2019-06-23T10:39:34Z</time>
      </trkpt>
      <trkpt lat="44.2441" lon="6.93598">
        <ele>1193.7124596922</ele>
        <time>2019-06-23T10:39:35Z</time>
      </trkpt>
      <trkpt lat="44.24409" lon="6.93602">
        <ele>1193.9469054044</ele>
        <time>2019-06-23T10:39:37Z</time>
      </trkpt>
      <trkpt lat="44.24407" lon="6.93606">
        <ele>1193.0296392658</ele>
        <time>2019-06-23T10:39:39Z</time>
      </trkpt>
      <trkpt lat="44.24405" lon="6.93608">
        <ele>1192.8749526046</ele>
        <time>2019-06-23T10:39:40Z</time>
      </trkpt>
      <trkpt lat="44.24404" lon="6.9361">
        <ele>1192.5480457144</ele>
        <time>2019-06-23T10:39:42Z</time>
      </trkpt>
      <trkpt lat="44.24402" lon="6.93612">
        <ele>1192.443944126</ele>
        <time>2019-06-23T10:39:44Z</time>
      </trkpt>
      <trkpt lat="44.24401" lon="6.93614">
        <ele>1192.8870583835</ele>
        <time>2019-06-23T10:39:46Z</time>
      </trkpt>
      <trkpt lat="44.244" lon="6.93617">
        <ele>1193.1431204187</ele>
        <time>2019-06-23T10:39:49Z</time>
      </trkpt>
      <trkpt lat="44.24401" lon="6.93621">
        <ele>1193.0374437011</ele>
        <time>2019-06-23T10:39:51Z</time>
      </trkpt>
      <trkpt lat="44.24403" lon="6.93618">
        <ele>1192.6533135286</ele>
        <time>2019-06-23T10:39:54Z</time>
      </trkpt>
      <trkpt lat="44.24404" lon="6.93616">
        <ele>1192.1741728295</ele>
        <time>2019-06-23T10:39:56Z</time>
      </trkpt>
      <trkpt lat="44.24406" lon="6.93615">
        <ele>1191.7806851334</ele>
        <time>2019-06-23T10:39:58Z</time>
      </trkpt>
      <trkpt lat="44.24408" lon="6.93613">
        <ele>1191.3980796523</ele>
        <time>2019-06-23T10:39:59Z</time>
      </trkpt>
      <trkpt lat="44.2441" lon="6.93612">
        <ele>1190.8522507448</ele>
        <time>2019-06-23T10:40:00Z</time>
      </trkpt>
      <trkpt lat="44.24412" lon="6.9361">
        <ele>1190.3032830884</ele>
        <time>2019-06-23T10:40:01Z</time>
      </trkpt>
      <trkpt lat="44.24414" lon="6.93608">
        <ele>1190.1805602204</ele>
        <time>2019-06-23T10:40:03Z</time>
      </trkpt>
      <trkpt lat="44.24417" lon="6.93606">
        <ele>1189.9046857749</ele>
        <time>2019-06-23T10:40:05Z</time>
      </trkpt>
      <trkpt lat="44.24419" lon="6.93604">
        <ele>1189.8135427092</ele>
        <time>2019-06-23T10:40:08Z</time>
      </trkpt>
      <trkpt lat="44.24422" lon="6.93601">
        <ele>1189.7569738518</ele>
        <time>2019-06-23T10:40:10Z</time>
      </trkpt>
      <trkpt lat="44.24423" lon="6.93596">
        <ele>1190.1877314054</ele>
        <time>2019-06-23T10:40:12Z</time>
      </trkpt>
      <trkpt lat="44.24425" lon="6.93594">
        <ele>1190.7953092446</ele>
        <time>2019-06-23T10:40:14Z</time>
      </trkpt>
      <trkpt lat="44.24426" lon="6.93591">
        <ele>1191.2045942515</ele>
        <time>2019-06-23T10:40:16Z</time>
      </trkpt>
      <trkpt lat="44.24427" lon="6.93589">
        <ele>1191.3995770094</ele>
        <time>2019-06-23T10:40:17Z</time>
      </trkpt>
      <trkpt lat="44.24428" lon="6.93586">
        <ele>1192.1300058256</ele>
        <time>2019-06-23T10:40:19Z</time>
      </trkpt>
      <trkpt lat="44.2443" lon="6.93584">
        <ele>1192.6301128482</ele>
        <time>2019-06-23T10:40:21Z</time>
      </trkpt>
      <trkpt lat="44.24432" lon="6.9358">
        <ele>1192.8067423364</ele>
        <time>2019-06-23T10:40:23Z</time>
      </trkpt>
      <trkpt lat="44.24434" lon="6.93579">
        <ele>1192.782899728</ele>
        <time>2019-06-23T10:40:24Z</time>
      </trkpt>
      <trkpt lat="44.24436" lon="6.93579">
        <ele>1192.7766702523</ele>
        <time>2019-06-23T10:40:25Z</time>
      </trkpt>
      <trkpt lat="44.24437" lon="6.93576">
        <ele>1192.1391954592</ele>
        <time>2019-06-23T10:40:27Z</time>
      </trkpt>
      <trkpt lat="44.24439" lon="6.93575">
        <ele>1192.4528744222</ele>
        <time>2019-06-23T10:40:29Z</time>
      </trkpt>
      <trkpt lat="44.24441" lon="6.93572">
        <ele>1192.746808331</ele>
        <time>2019-06-23T10:40:31Z</time>
      </trkpt>
      <trkpt lat="44.24443" lon="6.93569">
        <ele>1192.9897659806</ele>
        <time>2019-06-23T10:40:33Z</time>
      </trkpt>
      <trkpt lat="44.24445" lon="6.93566">
        <ele>1192.6475434575</ele>
        <time>2019-06-23T10:40:35Z</time>
      </trkpt>
      <trkpt lat="44.24446" lon="6.93564">
        <ele>1193.3390833905</ele>
        <time>2019-06-23T10:40:37Z</time>
      </trkpt>
      <trkpt lat="44.24448" lon="6.9356">
        <ele>1193.315401866</ele>
        <time>2019-06-23T10:40:39Z</time>
      </trkpt>
      <trkpt lat="44.2445" lon="6.93558">
        <ele>1192.9203054316</ele>
        <time>2019-06-23T10:40:41Z</time>
      </trkpt>
      <trkpt lat="44.24452" lon="6.93557">
        <ele>1192.1159605505</ele>
        <time>2019-06-23T10:40:44Z</time>
      </trkpt>
      <trkpt lat="44.24454" lon="6.93557">
        <ele>1190.8204805141</ele>
        <time>2019-06-23T10:40:49Z</time>
      </trkpt>
      <trkpt lat="44.24457" lon="6.93556">
        <ele>1189.596950081</ele>
        <time>2019-06-23T10:40:52Z</time>
      </trkpt>
      <trkpt lat="44.24459" lon="6.93555">
        <ele>1189.0166914704</ele>
        <time>2019-06-23T10:40:54Z</time>
      </trkpt>
      <trkpt lat="44.24462" lon="6.93552">
        <ele>1187.5543336699</ele>
        <time>2019-06-23T10:40:57Z</time>
      </trkpt>
      <trkpt lat="44.24464" lon="6.93551">
        <ele>1186.6936627672</ele>
        <time>2019-06-23T10:40:59Z</time>
      </trkpt>
      <trkpt lat="44.24465" lon="6.93549">
        <ele>1185.9868358603</ele>
        <time>2019-06-23T10:41:03Z</time>
      </trkpt>
      <trkpt lat="44.24467" lon="6.93551">
        <ele>1184.9829026287</ele>
        <time>2019-06-23T10:41:07Z</time>
      </trkpt>
      <trkpt lat="44.2447" lon="6.9355">
        <ele>1183.7488556672</ele>
        <time>2019-06-23T10:41:10Z</time>
      </trkpt>
      <trkpt lat="44.24472" lon="6.93553">
        <ele>1182.0055046959</ele>
        <time>2019-06-23T10:41:17Z</time>
      </trkpt>
      <trkpt lat="44.24473" lon="6.93554">
        <ele>1180.537106091</ele>
        <time>2019-06-23T10:41:33Z</time>
      </trkpt>
      <trkpt lat="44.24474" lon="6.93557">
        <ele>1180.4452704664</ele>
        <time>2019-06-23T10:41:36Z</time>
      </trkpt>
      <trkpt lat="44.24475" lon="6.93559">
        <ele>1179.7333973305</ele>
        <time>2019-06-23T10:41:38Z</time>
      </trkpt>
      <trkpt lat="44.24475" lon="6.93563">
        <ele>1179.3355727147</ele>
        <time>2019-06-23T10:41:41Z</time>
      </trkpt>
      <trkpt lat="44.24472" lon="6.93563">
        <ele>1179.8948703882</ele>
        <time>2019-06-23T10:41:45Z</time>
      </trkpt>
      <trkpt lat="44.2447" lon="6.93565">
        <ele>1180.8911993977</ele>
        <time>2019-06-23T10:41:48Z</time>
      </trkpt>
      <trkpt lat="44.24468" lon="6.93566">
        <ele>1181.7338966589</ele>
        <time>2019-06-23T10:41:50Z</time>
      </trkpt>
      <trkpt lat="44.24466" lon="6.93568">
        <ele>1182.5558612292</ele>
        <time>2019-06-23T10:41:52Z</time>
      </trkpt>
      <trkpt lat="44.24465" lon="6.93572">
        <ele>1182.9228978858</ele>
        <time>2019-06-23T10:41:56Z</time>
      </trkpt>
      <trkpt lat="44.24465" lon="6.93575">
        <ele>1182.9464609582</ele>
        <time>2019-06-23T10:41:58Z</time>
      </trkpt>
      <trkpt lat="44.24465" lon="6.93578">
        <ele>1182.8031903193</ele>
        <time>2019-06-23T10:42:01Z</time>
      </trkpt>
      <trkpt lat="44.24464" lon="6.93579">
        <ele>1182.8145585233</ele>
        <time>2019-06-23T10:42:04Z</time>
      </trkpt>
      <trkpt lat="44.24462" lon="6.93581">
        <ele>1183.305517035</ele>
        <time>2019-06-23T10:42:07Z</time>
      </trkpt>
      <trkpt lat="44.24461" lon="6.93583">
        <ele>1183.5363563597</ele>
        <time>2019-06-23T10:42:11Z</time>
      </trkpt>
      <trkpt lat="44.2446" lon="6.93586">
        <ele>1183.1323698611</ele>
        <time>2019-06-23T10:42:15Z</time>
      </trkpt>
      <trkpt lat="44.24462" lon="6.93587">
        <ele>1182.2913916328</ele>
        <time>2019-06-23T10:42:19Z</time>
      </trkpt>
      <trkpt lat="44.24465" lon="6.93586">
        <ele>1181.6690768759</ele>
        <time>2019-06-23T10:42:22Z</time>
      </trkpt>
      <trkpt lat="44.24466" lon="6.93584">
        <ele>1181.8871385212</ele>
        <time>2019-06-23T10:42:25Z</time>
      </trkpt>
      <trkpt lat="44.24469" lon="6.93583">
        <ele>1181.473281877</ele>
        <time>2019-06-23T10:42:30Z</time>
      </trkpt>
      <trkpt lat="44.24471" lon="6.93583">
        <ele>1180.927452858</ele>
        <time>2019-06-23T10:42:33Z</time>
      </trkpt>
      <trkpt lat="44.24474" lon="6.93581">
        <ele>1179.2434088305</ele>
        <time>2019-06-23T10:42:35Z</time>
      </trkpt>
      <trkpt lat="44.24477" lon="6.9358">
        <ele>1178.5605742708</ele>
        <time>2019-06-23T10:42:37Z</time>
      </trkpt>
      <trkpt lat="44.24479" lon="6.9358">
        <ele>1177.2378997695</ele>
        <time>2019-06-23T10:42:40Z</time>
      </trkpt>
      <trkpt lat="44.24481" lon="6.93578">
        <ele>1176.1712636185</ele>
        <time>2019-06-23T10:42:43Z</time>
      </trkpt>
      <trkpt lat="44.24483" lon="6.93577">
        <ele>1175.0875721091</ele>
        <time>2019-06-23T10:42:47Z</time>
      </trkpt>
      <trkpt lat="44.24484" lon="6.93576">
        <ele>1174.6762903225</ele>
        <time>2019-06-23T10:42:48Z</time>
      </trkpt>
      <trkpt lat="44.24487" lon="6.93575">
        <ele>1173.8175256174</ele>
        <time>2019-06-23T10:42:51Z</time>
      </trkpt>
      <trkpt lat="44.24489" lon="6.93574">
        <ele>1173.1001889936</ele>
        <time>2019-06-23T10:42:52Z</time>
      </trkpt>
      <trkpt lat="44.24491" lon="6.93571">
        <ele>1171.8678493478</ele>
        <time>2019-06-23T10:42:54Z</time>
      </trkpt>
      <trkpt lat="44.24493" lon="6.93571">
        <ele>1171.0491529675</ele>
        <time>2019-06-23T10:42:57Z</time>
      </trkpt>
      <trkpt lat="44.24495" lon="6.9357">
        <ele>1170.3594716197</ele>
        <time>2019-06-23T10:43:02Z</time>
      </trkpt>
      <trkpt lat="44.24497" lon="6.93568">
        <ele>1169.9985732776</ele>
        <time>2019-06-23T10:43:04Z</time>
      </trkpt>
      <trkpt lat="44.24498" lon="6.93567">
        <ele>1169.6634957883</ele>
        <time>2019-06-23T10:43:06Z</time>
      </trkpt>
      <trkpt lat="44.245" lon="6.93565">
        <ele>1169.5602116754</ele>
        <time>2019-06-23T10:43:09Z</time>
      </trkpt>
      <trkpt lat="44.24502" lon="6.93564">
        <ele>1169.0406978688</ele>
        <time>2019-06-23T10:43:12Z</time>
      </trkpt>
      <trkpt lat="44.24503" lon="6.93562">
        <ele>1169.1763297222</ele>
        <time>2019-06-23T10:43:15Z</time>
      </trkpt>
      <trkpt lat="44.24504" lon="6.93559">
        <ele>1169.7644019996</ele>
        <time>2019-06-23T10:43:18Z</time>
      </trkpt>
      <trkpt lat="44.24507" lon="6.93558">
        <ele>1169.8149198476</ele>
        <time>2019-06-23T10:43:23Z</time>
      </trkpt>
      <trkpt lat="44.24508" lon="6.93556">
        <ele>1169.4657730235</ele>
        <time>2019-06-23T10:43:25Z</time>
      </trkpt>
      <trkpt lat="44.24508" lon="6.93553">
        <ele>1169.7550650038</ele>
        <time>2019-06-23T10:43:26Z</time>
      </trkpt>
      <trkpt lat="44.24509" lon="6.93551">
        <ele>1169.4953718481</ele>
        <time>2019-06-23T10:43:29Z</time>
      </trkpt>
      <trkpt lat="44.2451" lon="6.93549">
        <ele>1169.4182177573</ele>
        <time>2019-06-23T10:43:30Z</time>
      </trkpt>
      <trkpt lat="44.24511" lon="6.93546">
        <ele>1169.025110446</ele>
        <time>2019-06-23T10:43:32Z</time>
      </trkpt>
      <trkpt lat="44.24513" lon="6.93543">
        <ele>1168.7936691153</ele>
        <time>2019-06-23T10:43:35Z</time>
      </trkpt>
      <trkpt lat="44.24514" lon="6.9354">
        <ele>1168.4169679869</ele>
        <time>2019-06-23T10:43:37Z</time>
      </trkpt>
      <trkpt lat="44.24514" lon="6.93537">
        <ele>1168.002547423</ele>
        <time>2019-06-23T10:43:40Z</time>
      </trkpt>
      <trkpt lat="44.24513" lon="6.93532">
        <ele>1168.2075125806</ele>
        <time>2019-06-23T10:43:42Z</time>
      </trkpt>
      <trkpt lat="44.24514" lon="6.9353">
        <ele>1168.2157379829</ele>
        <time>2019-06-23T10:43:43Z</time>
      </trkpt>
      <trkpt lat="44.24516" lon="6.93527">
        <ele>1167.5748983924</ele>
        <time>2019-06-23T10:43:45Z</time>
      </trkpt>
      <trkpt lat="44.24518" lon="6.93524">
        <ele>1167.0392272885</ele>
        <time>2019-06-23T10:43:50Z</time>
      </trkpt>
      <trkpt lat="44.24518" lon="6.93521">
        <ele>1166.9061975143</ele>
        <time>2019-06-23T10:43:53Z</time>
      </trkpt>
      <trkpt lat="44.24519" lon="6.93518">
        <ele>1166.6629875803</ele>
        <time>2019-06-23T10:43:56Z</time>
      </trkpt>
      <trkpt lat="44.24519" lon="6.93515">
        <ele>1166.5780061423</ele>
        <time>2019-06-23T10:43:58Z</time>
      </trkpt>
      <trkpt lat="44.24519" lon="6.93511">
        <ele>1166.6692173244</ele>
        <time>2019-06-23T10:44:02Z</time>
      </trkpt>
      <trkpt lat="44.24519" lon="6.93509">
        <ele>1166.6239919331</ele>
        <time>2019-06-23T10:44:05Z</time>
      </trkpt>
      <trkpt lat="44.24519" lon="6.93506">
        <ele>1166.5192467887</ele>
        <time>2019-06-23T10:44:09Z</time>
      </trkpt>
      <trkpt lat="44.2452" lon="6.93501">
        <ele>1166.3085870797</ele>
        <time>2019-06-23T10:44:12Z</time>
      </trkpt>
      <trkpt lat="44.24521" lon="6.93497">
        <ele>1166.0370855265</ele>
        <time>2019-06-23T10:44:15Z</time>
      </trkpt>
      <trkpt lat="44.24522" lon="6.93495">
        <ele>1165.8924404811</ele>
        <time>2019-06-23T10:44:17Z</time>
      </trkpt>
      <trkpt lat="44.24523" lon="6.93491">
        <ele>1165.4565989453</ele>
        <time>2019-06-23T10:44:20Z</time>
      </trkpt>
      <trkpt lat="44.24525" lon="6.9349">
        <ele>1165.175370135</ele>
        <time>2019-06-23T10:44:23Z</time>
      </trkpt>
      <trkpt lat="44.24527" lon="6.93492">
        <ele>1164.6388187646</ele>
        <time>2019-06-23T10:44:26Z</time>
      </trkpt>
      <trkpt lat="44.24529" lon="6.93495">
        <ele>1164.0454434681</ele>
        <time>2019-06-23T10:44:29Z</time>
      </trkpt>
      <trkpt lat="44.2453" lon="6.93498">
        <ele>1164.0912996953</ele>
        <time>2019-06-23T10:44:31Z</time>
      </trkpt>
      <trkpt lat="44.24532" lon="6.935">
        <ele>1164.0848126723</ele>
        <time>2019-06-23T10:44:35Z</time>
      </trkpt>
      <trkpt lat="44.24532" lon="6.935">
        <ele>1164.0509777577</ele>
        <time>2019-06-23T10:44:36Z</time>
      </trkpt>
      <trkpt lat="44.24533" lon="6.93503">
        <ele>1163.9452698331</ele>
        <time>2019-06-23T10:44:38Z</time>
      </trkpt>
      <trkpt lat="44.24534" lon="6.93505">
        <ele>1163.8853022824</ele>
        <time>2019-06-23T10:44:39Z</time>
      </trkpt>
      <trkpt lat="44.24535" lon="6.93509">
        <ele>1163.5704404709</ele>
        <time>2019-06-23T10:44:41Z</time>
      </trkpt>
      <trkpt lat="44.24535" lon="6.93513">
        <ele>1163.2400066816</ele>
        <time>2019-06-23T10:44:44Z</time>
      </trkpt>
      <trkpt lat="44.24535" lon="6.93515">
        <ele>1162.9554767727</ele>
        <time>2019-06-23T10:44:46Z</time>
      </trkpt>
      <trkpt lat="44.24536" lon="6.93517">
        <ele>1162.8550119412</ele>
        <time>2019-06-23T10:44:47Z</time>
      </trkpt>
      <trkpt lat="44.24538" lon="6.9352">
        <ele>1162.1991622257</ele>
        <time>2019-06-23T10:44:49Z</time>
      </trkpt>
      <trkpt lat="44.24539" lon="6.93523">
        <ele>1161.7239599298</ele>
        <time>2019-06-23T10:44:51Z</time>
      </trkpt>
      <trkpt lat="44.2454" lon="6.93526">
        <ele>1161.1219251919</ele>
        <time>2019-06-23T10:44:53Z</time>
      </trkpt>
      <trkpt lat="44.24542" lon="6.93529">
        <ele>1160.1987551864</ele>
        <time>2019-06-23T10:44:55Z</time>
      </trkpt>
      <trkpt lat="44.24544" lon="6.9353">
        <ele>1159.5023197313</ele>
        <time>2019-06-23T10:44:59Z</time>
      </trkpt>
      <trkpt lat="44.24546" lon="6.93532">
        <ele>1159.0970879404</ele>
        <time>2019-06-23T10:45:01Z</time>
      </trkpt>
      <trkpt lat="44.24547" lon="6.93534">
        <ele>1158.5956625756</ele>
        <time>2019-06-23T10:45:03Z</time>
      </trkpt>
      <trkpt lat="44.24549" lon="6.93537">
        <ele>1158.1018195014</ele>
        <time>2019-06-23T10:45:06Z</time>
      </trkpt>
      <trkpt lat="44.24551" lon="6.93539">
        <ele>1157.5325055455</ele>
        <time>2019-06-23T10:45:08Z</time>
      </trkpt>
      <trkpt lat="44.24553" lon="6.93539">
        <ele>1156.9612390104</ele>
        <time>2019-06-23T10:45:11Z</time>
      </trkpt>
      <trkpt lat="44.24555" lon="6.93541">
        <ele>1156.5277049652</ele>
        <time>2019-06-23T10:45:13Z</time>
      </trkpt>
      <trkpt lat="44.24557" lon="6.93543">
        <ele>1155.993993404</ele>
        <time>2019-06-23T10:45:15Z</time>
      </trkpt>
      <trkpt lat="44.24559" lon="6.93544">
        <ele>1155.6368411029</ele>
        <time>2019-06-23T10:45:17Z</time>
      </trkpt>
      <trkpt lat="44.24561" lon="6.93545">
        <ele>1155.3112953469</ele>
        <time>2019-06-23T10:45:18Z</time>
      </trkpt>
      <trkpt lat="44.24563" lon="6.93546">
        <ele>1154.8035566028</ele>
        <time>2019-06-23T10:45:20Z</time>
      </trkpt>
      <trkpt lat="44.24565" lon="6.93547">
        <ele>1154.5341802758</ele>
        <time>2019-06-23T10:45:21Z</time>
      </trkpt>
      <trkpt lat="44.24567" lon="6.93547">
        <ele>1153.7597197782</ele>
        <time>2019-06-23T10:45:23Z</time>
      </trkpt>
      <trkpt lat="44.2457" lon="6.93548">
        <ele>1153.1953198998</ele>
        <time>2019-06-23T10:45:25Z</time>
      </trkpt>
      <trkpt lat="44.24572" lon="6.93548">
        <ele>1152.8424859596</ele>
        <time>2019-06-23T10:45:27Z</time>
      </trkpt>
      <trkpt lat="44.24575" lon="6.93547">
        <ele>1152.2288694254</ele>
        <time>2019-06-23T10:45:30Z</time>
      </trkpt>
      <trkpt lat="44.24577" lon="6.93547">
        <ele>1151.8963358592</ele>
        <time>2019-06-23T10:45:32Z</time>
      </trkpt>
      <trkpt lat="44.24579" lon="6.93547">
        <ele>1151.4237504237</ele>
        <time>2019-06-23T10:45:35Z</time>
      </trkpt>
      <trkpt lat="44.24581" lon="6.93547">
        <ele>1150.8552951672</ele>
        <time>2019-06-23T10:45:37Z</time>
      </trkpt>
      <trkpt lat="44.24583" lon="6.93546">
        <ele>1150.8067613588</ele>
        <time>2019-06-23T10:45:38Z</time>
      </trkpt>
      <trkpt lat="44.24585" lon="6.93544">
        <ele>1150.7162346516</ele>
        <time>2019-06-23T10:45:40Z</time>
      </trkpt>
      <trkpt lat="44.24587" lon="6.93542">
        <ele>1151.213460488</ele>
        <time>2019-06-23T10:45:42Z</time>
      </trkpt>
      <trkpt lat="44.24588" lon="6.9354">
        <ele>1151.306312385</ele>
        <time>2019-06-23T10:45:44Z</time>
      </trkpt>
      <trkpt lat="44.24591" lon="6.93536">
        <ele>1151.847976988</ele>
        <time>2019-06-23T10:45:46Z</time>
      </trkpt>
      <trkpt lat="44.24593" lon="6.93533">
        <ele>1152.0101136047</ele>
        <time>2019-06-23T10:45:48Z</time>
      </trkpt>
      <trkpt lat="44.24596" lon="6.93531">
        <ele>1151.929717595</ele>
        <time>2019-06-23T10:45:51Z</time>
      </trkpt>
      <trkpt lat="44.24598" lon="6.93529">
        <ele>1151.5540535694</ele>
        <time>2019-06-23T10:45:53Z</time>
      </trkpt>
      <trkpt lat="44.24601" lon="6.93526">
        <ele>1151.2142251518</ele>
        <time>2019-06-23T10:45:55Z</time>
      </trkpt>
      <trkpt lat="44.24603" lon="6.93524">
        <ele>1151.1705060841</ele>
        <time>2019-06-23T10:46:00Z</time>
      </trkpt>
      <trkpt lat="44.24603" lon="6.93521">
        <ele>1151.3475534665</ele>
        <time>2019-06-23T10:46:04Z</time>
      </trkpt>
      <trkpt lat="44.24606" lon="6.9352">
        <ele>1151.4169330242</ele>
        <time>2019-06-23T10:46:08Z</time>
      </trkpt>
      <trkpt lat="44.24608" lon="6.93518">
        <ele>1151.257663914</ele>
        <time>2019-06-23T10:46:09Z</time>
      </trkpt>
      <trkpt lat="44.24612" lon="6.93517">
        <ele>1151.1227004642</ele>
        <time>2019-06-23T10:46:11Z</time>
      </trkpt>
      <trkpt lat="44.24614" lon="6.93518">
        <ele>1150.6146833492</ele>
        <time>2019-06-23T10:46:13Z</time>
      </trkpt>
      <trkpt lat="44.24616" lon="6.93517">
        <ele>1150.3369664593</ele>
        <time>2019-06-23T10:46:15Z</time>
      </trkpt>
      <trkpt lat="44.24619" lon="6.93517">
        <ele>1150.1809190268</ele>
        <time>2019-06-23T10:46:17Z</time>
      </trkpt>
      <trkpt lat="44.24622" lon="6.93517">
        <ele>1149.9062823806</ele>
        <time>2019-06-23T10:46:19Z</time>
      </trkpt>
      <trkpt lat="44.24625" lon="6.93516">
        <ele>1149.6500484653</ele>
        <time>2019-06-23T10:46:21Z</time>
      </trkpt>
      <trkpt lat="44.24627" lon="6.93516">
        <ele>1149.4939082453</ele>
        <time>2019-06-23T10:46:23Z</time>
      </trkpt>
      <trkpt lat="44.24629" lon="6.93515">
        <ele>1149.3276617845</ele>
        <time>2019-06-23T10:46:25Z</time>
      </trkpt>
      <trkpt lat="44.24632" lon="6.93516">
        <ele>1148.9668562535</ele>
        <time>2019-06-23T10:46:27Z</time>
      </trkpt>
      <trkpt lat="44.24633" lon="6.93516">
        <ele>1148.7917700065</ele>
        <time>2019-06-23T10:46:28Z</time>
      </trkpt>
      <trkpt lat="44.24636" lon="6.93515">
        <ele>1148.4063032439</ele>
        <time>2019-06-23T10:46:30Z</time>
      </trkpt>
      <trkpt lat="44.2464" lon="6.93515">
        <ele>1147.9789366134</ele>
        <time>2019-06-23T10:46:32Z</time>
      </trkpt>
      <trkpt lat="44.24642" lon="6.93514">
        <ele>1147.3505845779</ele>
        <time>2019-06-23T10:46:34Z</time>
      </trkpt>
      <trkpt lat="44.24644" lon="6.93513">
        <ele>1146.7466118486</ele>
        <time>2019-06-23T10:46:36Z</time>
      </trkpt>
      <trkpt lat="44.24646" lon="6.93511">
        <ele>1146.0828975607</ele>
        <time>2019-06-23T10:46:38Z</time>
      </trkpt>
      <trkpt lat="44.24648" lon="6.93509">
        <ele>1145.5557391776</ele>
        <time>2019-06-23T10:46:40Z</time>
      </trkpt>
      <trkpt lat="44.2465" lon="6.93506">
        <ele>1145.0336597325</ele>
        <time>2019-06-23T10:46:42Z</time>
      </trkpt>
      <trkpt lat="44.24653" lon="6.93505">
        <ele>1144.5381842411</ele>
        <time>2019-06-23T10:46:43Z</time>
      </trkpt>
      <trkpt lat="44.24656" lon="6.93504">
        <ele>1143.5044265659</ele>
        <time>2019-06-23T10:46:45Z</time>
      </trkpt>
      <trkpt lat="44.24657" lon="6.93502">
        <ele>1142.7291878661</ele>
        <time>2019-06-23T10:46:47Z</time>
      </trkpt>
      <trkpt lat="44.24659" lon="6.93499">
        <ele>1142.1941906061</ele>
        <time>2019-06-23T10:46:49Z</time>
      </trkpt>
      <trkpt lat="44.24661" lon="6.93498">
        <ele>1141.7353469811</ele>
        <time>2019-06-23T10:46:51Z</time>
      </trkpt>
      <trkpt lat="44.24663" lon="6.93496">
        <ele>1141.3777255245</ele>
        <time>2019-06-23T10:46:52Z</time>
      </trkpt>
      <trkpt lat="44.24665" lon="6.93493">
        <ele>1140.5841867248</ele>
        <time>2019-06-23T10:46:54Z</time>
      </trkpt>
      <trkpt lat="44.24666" lon="6.9349">
        <ele>1140.1815894716</ele>
        <time>2019-06-23T10:46:56Z</time>
      </trkpt>
      <trkpt lat="44.24668" lon="6.93487">
        <ele>1139.7534912335</ele>
        <time>2019-06-23T10:46:58Z</time>
      </trkpt>
      <trkpt lat="44.2467" lon="6.93485">
        <ele>1139.718470505</ele>
        <time>2019-06-23T10:47:00Z</time>
      </trkpt>
      <trkpt lat="44.24671" lon="6.93483">
        <ele>1139.7181202977</ele>
        <time>2019-06-23T10:47:02Z</time>
      </trkpt>
      <trkpt lat="44.24674" lon="6.93483">
        <ele>1139.7181167638</ele>
        <time>2019-06-23T10:47:05Z</time>
      </trkpt>
      <trkpt lat="44.24678" lon="6.9348">
        <ele>1139.7181167603</ele>
        <time>2019-06-23T10:47:07Z</time>
      </trkpt>
      <trkpt lat="44.24679" lon="6.93478">
        <ele>1139.7181167603</ele>
        <time>2019-06-23T10:47:10Z</time>
      </trkpt>
      <trkpt lat="44.2468" lon="6.93476">
        <ele>1139.7181167603</ele>
        <time>2019-06-23T10:47:12Z</time>
      </trkpt>
      <trkpt lat="44.24682" lon="6.93475">
        <ele>1139.7181167603</ele>
        <time>2019-06-23T10:47:13Z</time>
      </trkpt>
      <trkpt lat="44.24683" lon="6.93472">
        <ele>1139.7181167603</ele>
        <time>2019-06-23T10:47:16Z</time>
      </trkpt>
      <trkpt lat="44.24684" lon="6.9347">
        <ele>1139.8447232056</ele>
        <time>2019-06-23T10:47:18Z</time>
      </trkpt>
      <trkpt lat="44.24686" lon="6.93467">
        <ele>1139.9872734497</ele>
        <time>2019-06-23T10:47:20Z</time>
      </trkpt>
      <trkpt lat="44.24687" lon="6.93464">
        <ele>1140.1810797925</ele>
        <time>2019-06-23T10:47:21Z</time>
      </trkpt>
      <trkpt lat="44.24688" lon="6.93461">
        <ele>1140.4265305703</ele>
        <time>2019-06-23T10:47:23Z</time>
      </trkpt>
      <trkpt lat="44.24689" lon="6.93458">
        <ele>1140.4280841991</ele>
        <time>2019-06-23T10:47:25Z</time>
      </trkpt>
      <trkpt lat="44.2469" lon="6.93456">
        <ele>1140.5792502229</ele>
        <time>2019-06-23T10:47:26Z</time>
      </trkpt>
      <trkpt lat="44.24692" lon="6.93454">
        <ele>1140.4484683878</ele>
        <time>2019-06-23T10:47:27Z</time>
      </trkpt>
      <trkpt lat="44.24693" lon="6.93452">
        <ele>1140.2069844425</ele>
        <time>2019-06-23T10:47:28Z</time>
      </trkpt>
      <trkpt lat="44.24696" lon="6.93451">
        <ele>1139.669699773</ele>
        <time>2019-06-23T10:47:30Z</time>
      </trkpt>
      <trkpt lat="44.24698" lon="6.93453">
        <ele>1139.2881041631</ele>
        <time>2019-06-23T10:47:31Z</time>
      </trkpt>
      <trkpt lat="44.247" lon="6.9345">
        <ele>1138.4400617515</ele>
        <time>2019-06-23T10:47:33Z</time>
      </trkpt>
      <trkpt lat="44.24703" lon="6.93449">
        <ele>1137.7652934856</ele>
        <time>2019-06-23T10:47:35Z</time>
      </trkpt>
      <trkpt lat="44.24705" lon="6.93447">
        <ele>1136.9717528042</ele>
        <time>2019-06-23T10:47:38Z</time>
      </trkpt>
      <trkpt lat="44.24706" lon="6.93445">
        <ele>1136.5816870562</ele>
        <time>2019-06-23T10:47:40Z</time>
      </trkpt>
      <trkpt lat="44.24709" lon="6.93444">
        <ele>1135.9983015355</ele>
        <time>2019-06-23T10:47:42Z</time>
      </trkpt>
      <trkpt lat="44.2471" lon="6.93443">
        <ele>1135.3898895553</ele>
        <time>2019-06-23T10:47:44Z</time>
      </trkpt>
      <trkpt lat="44.24712" lon="6.9344">
        <ele>1135.0970842441</ele>
        <time>2019-06-23T10:47:46Z</time>
      </trkpt>
      <trkpt lat="44.24714" lon="6.93438">
        <ele>1134.2301034566</ele>
        <time>2019-06-23T10:47:48Z</time>
      </trkpt>
      <trkpt lat="44.24716" lon="6.93437">
        <ele>1133.672336969</ele>
        <time>2019-06-23T10:47:50Z</time>
      </trkpt>
      <trkpt lat="44.24718" lon="6.93436">
        <ele>1133.4276745233</ele>
        <time>2019-06-23T10:47:51Z</time>
      </trkpt>
      <trkpt lat="44.2472" lon="6.93434">
        <ele>1132.5639769863</ele>
        <time>2019-06-23T10:47:53Z</time>
      </trkpt>
      <trkpt lat="44.24722" lon="6.93431">
        <ele>1132.0227887414</ele>
        <time>2019-06-23T10:47:55Z</time>
      </trkpt>
      <trkpt lat="44.24724" lon="6.93429">
        <ele>1131.4736634801</ele>
        <time>2019-06-23T10:47:57Z</time>
      </trkpt>
      <trkpt lat="44.24725" lon="6.93429">
        <ele>1131.2425727994</ele>
        <time>2019-06-23T10:47:58Z</time>
      </trkpt>
      <trkpt lat="44.24726" lon="6.93426">
        <ele>1130.7457332626</ele>
        <time>2019-06-23T10:47:59Z</time>
      </trkpt>
      <trkpt lat="44.24728" lon="6.93424">
        <ele>1130.3029339409</ele>
        <time>2019-06-23T10:48:01Z</time>
      </trkpt>
      <trkpt lat="44.2473" lon="6.93424">
        <ele>1129.9638055096</ele>
        <time>2019-06-23T10:48:02Z</time>
      </trkpt>
      <trkpt lat="44.24732" lon="6.93422">
        <ele>1129.4444068266</ele>
        <time>2019-06-23T10:48:03Z</time>
      </trkpt>
      <trkpt lat="44.24735" lon="6.9342">
        <ele>1128.4673437722</ele>
        <time>2019-06-23T10:48:05Z</time>
      </trkpt>
      <trkpt lat="44.24736" lon="6.93418">
        <ele>1127.7221263644</ele>
        <time>2019-06-23T10:48:07Z</time>
      </trkpt>
      <trkpt lat="44.24737" lon="6.93415">
        <ele>1127.5091183066</ele>
        <time>2019-06-23T10:48:08Z</time>
      </trkpt>
      <trkpt lat="44.2474" lon="6.93411">
        <ele>1127.3466005062</ele>
        <time>2019-06-23T10:48:10Z</time>
      </trkpt>
      <trkpt lat="44.24741" lon="6.93406">
        <ele>1127.8337900254</ele>
        <time>2019-06-23T10:48:12Z</time>
      </trkpt>
      <trkpt lat="44.24743" lon="6.93403">
        <ele>1128.3613145085</ele>
        <time>2019-06-23T10:48:14Z</time>
      </trkpt>
      <trkpt lat="44.24743" lon="6.934">
        <ele>1128.69922281</ele>
        <time>2019-06-23T10:48:16Z</time>
      </trkpt>
      <trkpt lat="44.24744" lon="6.93398">
        <ele>1129.2777801157</ele>
        <time>2019-06-23T10:48:18Z</time>
      </trkpt>
      <trkpt lat="44.24744" lon="6.93394">
        <ele>1129.8323986965</ele>
        <time>2019-06-23T10:48:20Z</time>
      </trkpt>
      <trkpt lat="44.24744" lon="6.9339">
        <ele>1130.9461663449</ele>
        <time>2019-06-23T10:48:23Z</time>
      </trkpt>
      <trkpt lat="44.24745" lon="6.93386">
        <ele>1131.6360527737</ele>
        <time>2019-06-23T10:48:25Z</time>
      </trkpt>
      <trkpt lat="44.24746" lon="6.93382">
        <ele>1131.8335284707</ele>
        <time>2019-06-23T10:48:28Z</time>
      </trkpt>
      <trkpt lat="44.24748" lon="6.9338">
        <ele>1131.8482943149</ele>
        <time>2019-06-23T10:48:30Z</time>
      </trkpt>
      <trkpt lat="44.2475" lon="6.93378">
        <ele>1131.7480598932</ele>
        <time>2019-06-23T10:48:32Z</time>
      </trkpt>
      <trkpt lat="44.2475" lon="6.93374">
        <ele>1131.6285370412</ele>
        <time>2019-06-23T10:48:34Z</time>
      </trkpt>
      <trkpt lat="44.24752" lon="6.93372">
        <ele>1131.1824834142</ele>
        <time>2019-06-23T10:48:36Z</time>
      </trkpt>
      <trkpt lat="44.24753" lon="6.93368">
        <ele>1130.8274601338</ele>
        <time>2019-06-23T10:48:38Z</time>
      </trkpt>
      <trkpt lat="44.24754" lon="6.93366">
        <ele>1130.7108137929</ele>
        <time>2019-06-23T10:48:39Z</time>
      </trkpt>
      <trkpt lat="44.24756" lon="6.93364">
        <ele>1130.1773406056</ele>
        <time>2019-06-23T10:48:41Z</time>
      </trkpt>
      <trkpt lat="44.24758" lon="6.93361">
        <ele>1129.5639235983</ele>
        <time>2019-06-23T10:48:43Z</time>
      </trkpt>
      <trkpt lat="44.24761" lon="6.9336">
        <ele>1128.9127051997</ele>
        <time>2019-06-23T10:48:45Z</time>
      </trkpt>
      <trkpt lat="44.24763" lon="6.9336">
        <ele>1128.4697289245</ele>
        <time>2019-06-23T10:48:46Z</time>
      </trkpt>
      <trkpt lat="44.24765" lon="6.93356">
        <ele>1127.5651336143</ele>
        <time>2019-06-23T10:48:48Z</time>
      </trkpt>
      <trkpt lat="44.24767" lon="6.93355">
        <ele>1127.1506482081</ele>
        <time>2019-06-23T10:48:50Z</time>
      </trkpt>
      <trkpt lat="44.24769" lon="6.93353">
        <ele>1126.3333722505</ele>
        <time>2019-06-23T10:48:52Z</time>
      </trkpt>
      <trkpt lat="44.24772" lon="6.93352">
        <ele>1125.6316985144</ele>
        <time>2019-06-23T10:48:54Z</time>
      </trkpt>
      <trkpt lat="44.24774" lon="6.93349">
        <ele>1124.9549991598</ele>
        <time>2019-06-23T10:48:56Z</time>
      </trkpt>
      <trkpt lat="44.24775" lon="6.93347">
        <ele>1124.4488596077</ele>
        <time>2019-06-23T10:48:58Z</time>
      </trkpt>
      <trkpt lat="44.24778" lon="6.93349">
        <ele>1124.0289874212</ele>
        <time>2019-06-23T10:49:00Z</time>
      </trkpt>
      <trkpt lat="44.2478" lon="6.93349">
        <ele>1123.5247789337</ele>
        <time>2019-06-23T10:49:02Z</time>
      </trkpt>
      <trkpt lat="44.24782" lon="6.93349">
        <ele>1123.5127934894</ele>
        <time>2019-06-23T10:49:04Z</time>
      </trkpt>
      <trkpt lat="44.24784" lon="6.93349">
        <ele>1123.512673635</ele>
        <time>2019-06-23T10:49:06Z</time>
      </trkpt>
      <trkpt lat="44.24786" lon="6.9335">
        <ele>1123.5126724364</ele>
        <time>2019-06-23T10:49:08Z</time>
      </trkpt>
      <trkpt lat="44.24789" lon="6.93354">
        <ele>1123.5126724244</ele>
        <time>2019-06-23T10:49:10Z</time>
      </trkpt>
      <trkpt lat="44.24791" lon="6.93355">
        <ele>1123.5126724243</ele>
        <time>2019-06-23T10:49:12Z</time>
      </trkpt>
      <trkpt lat="44.24794" lon="6.93355">
        <ele>1123.5126724243</ele>
        <time>2019-06-23T10:49:14Z</time>
      </trkpt>
      <trkpt lat="44.24797" lon="6.93357">
        <ele>1123.5126724243</ele>
        <time>2019-06-23T10:49:16Z</time>
      </trkpt>
      <trkpt lat="44.24799" lon="6.9336">
        <ele>1123.5126724243</ele>
        <time>2019-06-23T10:49:17Z</time>
      </trkpt>
      <trkpt lat="44.24801" lon="6.93363">
        <ele>1123.5126724243</ele>
        <time>2019-06-23T10:49:20Z</time>
      </trkpt>
      <trkpt lat="44.24802" lon="6.93364">
        <ele>1123.5126724243</ele>
        <time>2019-06-23T10:49:22Z</time>
      </trkpt>
      <trkpt lat="44.24805" lon="6.93365">
        <ele>1123.5126724243</ele>
        <time>2019-06-23T10:49:24Z</time>
      </trkpt>
      <trkpt lat="44.24808" lon="6.93367">
        <ele>1123.5126724243</ele>
        <time>2019-06-23T10:49:26Z</time>
      </trkpt>
      <trkpt lat="44.2481" lon="6.93366">
        <ele>1123.5126724243</ele>
        <time>2019-06-23T10:49:28Z</time>
      </trkpt>
      <trkpt lat="44.24812" lon="6.93367">
        <ele>1123.5126724243</ele>
        <time>2019-06-23T10:49:30Z</time>
      </trkpt>
      <trkpt lat="44.24814" lon="6.93367">
        <ele>1123.5126724243</ele>
        <time>2019-06-23T10:49:32Z</time>
      </trkpt>
      <trkpt lat="44.24816" lon="6.93367">
        <ele>1123.5126724243</ele>
        <time>2019-06-23T10:49:34Z</time>
      </trkpt>
      <trkpt lat="44.2482" lon="6.93368">
        <ele>1123.5126724243</ele>
        <time>2019-06-23T10:49:36Z</time>
      </trkpt>
      <trkpt lat="44.24823" lon="6.93366">
        <ele>1123.5126724243</ele>
        <time>2019-06-23T10:49:38Z</time>
      </trkpt>
      <trkpt lat="44.24825" lon="6.93366">
        <ele>1123.5126724243</ele>
        <time>2019-06-23T10:49:40Z</time>
      </trkpt>
      <trkpt lat="44.24828" lon="6.93364">
        <ele>1123.5126724243</ele>
        <time>2019-06-23T10:49:42Z</time>
      </trkpt>
      <trkpt lat="44.2483" lon="6.93364">
        <ele>1123.5126724243</ele>
        <time>2019-06-23T10:49:43Z</time>
      </trkpt>
      <trkpt lat="44.24833" lon="6.93361">
        <ele>1123.5126724243</ele>
        <time>2019-06-23T10:49:45Z</time>
      </trkpt>
      <trkpt lat="44.24835" lon="6.93359">
        <ele>1123.5126724243</ele>
        <time>2019-06-23T10:49:47Z</time>
      </trkpt>
      <trkpt lat="44.24837" lon="6.93356">
        <ele>1123.5126724243</ele>
        <time>2019-06-23T10:49:49Z</time>
      </trkpt>
      <trkpt lat="44.24839" lon="6.93353">
        <ele>1123.5126724243</ele>
        <time>2019-06-23T10:49:51Z</time>
      </trkpt>
      <trkpt lat="44.2484" lon="6.93351">
        <ele>1123.5126724243</ele>
        <time>2019-06-23T10:49:52Z</time>
      </trkpt>
      <trkpt lat="44.24843" lon="6.93348">
        <ele>1123.5126724243</ele>
        <time>2019-06-23T10:49:54Z</time>
      </trkpt>
      <trkpt lat="44.24846" lon="6.93345">
        <ele>1123.5126724243</ele>
        <time>2019-06-23T10:49:56Z</time>
      </trkpt>
      <trkpt lat="44.24848" lon="6.93342">
        <ele>1123.5126724243</ele>
        <time>2019-06-23T10:49:57Z</time>
      </trkpt>
      <trkpt lat="44.2485" lon="6.93338">
        <ele>1123.5126724243</ele>
        <time>2019-06-23T10:49:59Z</time>
      </trkpt>
      <trkpt lat="44.24853" lon="6.93336">
        <ele>1123.5126724243</ele>
        <time>2019-06-23T10:50:01Z</time>
      </trkpt>
      <trkpt lat="44.24854" lon="6.93334">
        <ele>1123.5126724243</ele>
        <time>2019-06-23T10:50:03Z</time>
      </trkpt>
      <trkpt lat="44.24855" lon="6.93333">
        <ele>1123.5126724243</ele>
        <time>2019-06-23T10:50:05Z</time>
      </trkpt>
      <trkpt lat="44.24857" lon="6.93332">
        <ele>1123.5126724243</ele>
        <time>2019-06-23T10:50:06Z</time>
      </trkpt>
      <trkpt lat="44.24859" lon="6.93331">
        <ele>1123.5126724243</ele>
        <time>2019-06-23T10:50:07Z</time>
      </trkpt>
      <trkpt lat="44.24861" lon="6.93329">
        <ele>1123.5126724243</ele>
        <time>2019-06-23T10:50:08Z</time>
      </trkpt>
      <trkpt lat="44.24862" lon="6.93327">
        <ele>1123.5126724243</ele>
        <time>2019-06-23T10:50:10Z</time>
      </trkpt>
      <trkpt lat="44.24864" lon="6.93324">
        <ele>1123.5126724243</ele>
        <time>2019-06-23T10:50:13Z</time>
      </trkpt>
      <trkpt lat="44.24865" lon="6.93321">
        <ele>1123.5126724243</ele>
        <time>2019-06-23T10:50:15Z</time>
      </trkpt>
      <trkpt lat="44.24867" lon="6.93317">
        <ele>1123.5126724243</ele>
        <time>2019-06-23T10:50:17Z</time>
      </trkpt>
      <trkpt lat="44.24868" lon="6.93316">
        <ele>1123.5126724243</ele>
        <time>2019-06-23T10:50:18Z</time>
      </trkpt>
      <trkpt lat="44.2487" lon="6.93314">
        <ele>1123.5126724243</ele>
        <time>2019-06-23T10:50:20Z</time>
      </trkpt>
      <trkpt lat="44.24872" lon="6.93311">
        <ele>1123.5126724243</ele>
        <time>2019-06-23T10:50:22Z</time>
      </trkpt>
      <trkpt lat="44.24874" lon="6.93309">
        <ele>1123.5126724243</ele>
        <time>2019-06-23T10:50:24Z</time>
      </trkpt>
      <trkpt lat="44.24876" lon="6.93306">
        <ele>1123.5126724243</ele>
        <time>2019-06-23T10:50:26Z</time>
      </trkpt>
      <trkpt lat="44.24877" lon="6.93303">
        <ele>1123.5126724243</ele>
        <time>2019-06-23T10:50:28Z</time>
      </trkpt>
      <trkpt lat="44.2488" lon="6.93299">
        <ele>1123.5126724243</ele>
        <time>2019-06-23T10:50:30Z</time>
      </trkpt>
      <trkpt lat="44.24882" lon="6.93299">
        <ele>1123.5126724243</ele>
        <time>2019-06-23T10:50:31Z</time>
      </trkpt>
      <trkpt lat="44.24884" lon="6.93297">
        <ele>1123.5126724243</ele>
        <time>2019-06-23T10:50:33Z</time>
      </trkpt>
      <trkpt lat="44.24886" lon="6.93294">
        <ele>1123.5126724243</ele>
        <time>2019-06-23T10:50:35Z</time>
      </trkpt>
      <trkpt lat="44.24887" lon="6.93292">
        <ele>1123.5126724243</ele>
        <time>2019-06-23T10:50:37Z</time>
      </trkpt>
      <trkpt lat="44.2489" lon="6.93291">
        <ele>1123.5126724243</ele>
        <time>2019-06-23T10:50:39Z</time>
      </trkpt>
      <trkpt lat="44.24891" lon="6.93289">
        <ele>1123.5126724243</ele>
        <time>2019-06-23T10:50:40Z</time>
      </trkpt>
      <trkpt lat="44.24893" lon="6.93287">
        <ele>1123.5126724243</ele>
        <time>2019-06-23T10:50:42Z</time>
      </trkpt>
      <trkpt lat="44.24894" lon="6.93284">
        <ele>1123.5126724243</ele>
        <time>2019-06-23T10:50:43Z</time>
      </trkpt>
      <trkpt lat="44.24896" lon="6.93283">
        <ele>1123.5126724243</ele>
        <time>2019-06-23T10:50:45Z</time>
      </trkpt>
      <trkpt lat="44.24897" lon="6.9328">
        <ele>1123.5126724243</ele>
        <time>2019-06-23T10:50:47Z</time>
      </trkpt>
      <trkpt lat="44.24899" lon="6.93276">
        <ele>1123.5126724243</ele>
        <time>2019-06-23T10:50:49Z</time>
      </trkpt>
      <trkpt lat="44.24901" lon="6.93273">
        <ele>1123.5126724243</ele>
        <time>2019-06-23T10:50:52Z</time>
      </trkpt>
      <trkpt lat="44.24902" lon="6.93271">
        <ele>1123.5126724243</ele>
        <time>2019-06-23T10:50:53Z</time>
      </trkpt>
      <trkpt lat="44.24903" lon="6.93269">
        <ele>1123.5126724243</ele>
        <time>2019-06-23T10:50:55Z</time>
      </trkpt>
      <trkpt lat="44.24906" lon="6.93267">
        <ele>1123.5126724243</ele>
        <time>2019-06-23T10:50:58Z</time>
      </trkpt>
      <trkpt lat="44.24908" lon="6.93264">
        <ele>1123.5126724243</ele>
        <time>2019-06-23T10:51:00Z</time>
      </trkpt>
      <trkpt lat="44.24909" lon="6.93259">
        <ele>1123.5126724243</ele>
        <time>2019-06-23T10:51:02Z</time>
      </trkpt>
      <trkpt lat="44.24911" lon="6.93257">
        <ele>1123.5126724243</ele>
        <time>2019-06-23T10:51:04Z</time>
      </trkpt>
      <trkpt lat="44.24912" lon="6.93254">
        <ele>1123.5126724243</ele>
        <time>2019-06-23T10:51:06Z</time>
      </trkpt>
      <trkpt lat="44.24913" lon="6.93252">
        <ele>1123.5126724243</ele>
        <time>2019-06-23T10:51:08Z</time>
      </trkpt>
      <trkpt lat="44.24915" lon="6.9325">
        <ele>1123.5126724243</ele>
        <time>2019-06-23T10:51:10Z</time>
      </trkpt>
      <trkpt lat="44.24916" lon="6.93247">
        <ele>1123.5126724243</ele>
        <time>2019-06-23T10:51:12Z</time>
      </trkpt>
      <trkpt lat="44.24918" lon="6.93245">
        <ele>1123.5126724243</ele>
        <time>2019-06-23T10:51:14Z</time>
      </trkpt>
      <trkpt lat="44.2492" lon="6.93243">
        <ele>1123.5126724243</ele>
        <time>2019-06-23T10:51:15Z</time>
      </trkpt>
      <trkpt lat="44.24921" lon="6.9324">
        <ele>1123.5126724243</ele>
        <time>2019-06-23T10:51:17Z</time>
      </trkpt>
      <trkpt lat="44.24923" lon="6.9324">
        <ele>1123.5126724243</ele>
        <time>2019-06-23T10:51:18Z</time>
      </trkpt>
      <trkpt lat="44.24925" lon="6.93239">
        <ele>1123.5126724243</ele>
        <time>2019-06-23T10:51:20Z</time>
      </trkpt>
      <trkpt lat="44.24927" lon="6.93236">
        <ele>1123.5126724243</ele>
        <time>2019-06-23T10:51:22Z</time>
      </trkpt>
      <trkpt lat="44.2493" lon="6.93234">
        <ele>1123.5126724243</ele>
        <time>2019-06-23T10:51:24Z</time>
      </trkpt>
      <trkpt lat="44.24931" lon="6.93232">
        <ele>1123.5126724243</ele>
        <time>2019-06-23T10:51:26Z</time>
      </trkpt>
      <trkpt lat="44.24933" lon="6.9323">
        <ele>1123.5126724243</ele>
        <time>2019-06-23T10:51:28Z</time>
      </trkpt>
      <trkpt lat="44.24935" lon="6.93226">
        <ele>1123.5126724243</ele>
        <time>2019-06-23T10:51:30Z</time>
      </trkpt>
      <trkpt lat="44.24937" lon="6.93223">
        <ele>1123.5126724243</ele>
        <time>2019-06-23T10:51:32Z</time>
      </trkpt>
      <trkpt lat="44.24939" lon="6.93221">
        <ele>1123.7017471313</ele>
        <time>2019-06-23T10:51:34Z</time>
      </trkpt>
      <trkpt lat="44.24942" lon="6.93219">
        <ele>1124.0273060913</ele>
        <time>2019-06-23T10:51:36Z</time>
      </trkpt>
      <trkpt lat="44.24943" lon="6.93217">
        <ele>1124.7512867786</ele>
        <time>2019-06-23T10:51:38Z</time>
      </trkpt>
      <trkpt lat="44.24945" lon="6.93214">
        <ele>1125.4090160874</ele>
        <time>2019-06-23T10:51:40Z</time>
      </trkpt>
      <trkpt lat="44.24947" lon="6.93212">
        <ele>1126.1905689664</ele>
        <time>2019-06-23T10:51:42Z</time>
      </trkpt>
      <trkpt lat="44.24949" lon="6.93211">
        <ele>1126.611020731</ele>
        <time>2019-06-23T10:51:45Z</time>
      </trkpt>
      <trkpt lat="44.24951" lon="6.93209">
        <ele>1127.1544225089</ele>
        <time>2019-06-23T10:51:47Z</time>
      </trkpt>
      <trkpt lat="44.24953" lon="6.93208">
        <ele>1127.6660076498</ele>
        <time>2019-06-23T10:51:49Z</time>
      </trkpt>
      <trkpt lat="44.24955" lon="6.93206">
        <ele>1127.9717314113</ele>
        <time>2019-06-23T10:51:51Z</time>
      </trkpt>
      <trkpt lat="44.24957" lon="6.93204">
        <ele>1128.5313340591</ele>
        <time>2019-06-23T10:51:53Z</time>
      </trkpt>
      <trkpt lat="44.24959" lon="6.93202">
        <ele>1129.1894850172</ele>
        <time>2019-06-23T10:51:55Z</time>
      </trkpt>
      <trkpt lat="44.24962" lon="6.932">
        <ele>1129.725091185</ele>
        <time>2019-06-23T10:51:57Z</time>
      </trkpt>
      <trkpt lat="44.24964" lon="6.93198">
        <ele>1130.1987614557</ele>
        <time>2019-06-23T10:51:59Z</time>
      </trkpt>
      <trkpt lat="44.24966" lon="6.93196">
        <ele>1130.888495717</ele>
        <time>2019-06-23T10:52:01Z</time>
      </trkpt>
      <trkpt lat="44.24968" lon="6.93194">
        <ele>1131.3286718682</ele>
        <time>2019-06-23T10:52:03Z</time>
      </trkpt>
      <trkpt lat="44.24971" lon="6.93193">
        <ele>1131.6125877898</ele>
        <time>2019-06-23T10:52:05Z</time>
      </trkpt>
      <trkpt lat="44.24972" lon="6.93192">
        <ele>1131.6154269491</ele>
        <time>2019-06-23T10:52:07Z</time>
      </trkpt>
      <trkpt lat="44.24974" lon="6.93191">
        <ele>1131.6154527596</ele>
        <time>2019-06-23T10:52:08Z</time>
      </trkpt>
      <trkpt lat="44.24976" lon="6.93188">
        <ele>1131.6154555988</ele>
        <time>2019-06-23T10:52:10Z</time>
      </trkpt>
      <trkpt lat="44.24978" lon="6.93187">
        <ele>1131.6154556272</ele>
        <time>2019-06-23T10:52:12Z</time>
      </trkpt>
      <trkpt lat="44.24981" lon="6.93186">
        <ele>1131.6154556274</ele>
        <time>2019-06-23T10:52:14Z</time>
      </trkpt>
      <trkpt lat="44.24983" lon="6.93183">
        <ele>1131.6154556274</ele>
        <time>2019-06-23T10:52:16Z</time>
      </trkpt>
      <trkpt lat="44.24985" lon="6.93181">
        <ele>1131.6154556274</ele>
        <time>2019-06-23T10:52:18Z</time>
      </trkpt>
      <trkpt lat="44.24988" lon="6.9318">
        <ele>1131.6154556274</ele>
        <time>2019-06-23T10:52:20Z</time>
      </trkpt>
      <trkpt lat="44.2499" lon="6.93177">
        <ele>1131.6154556274</ele>
        <time>2019-06-23T10:52:22Z</time>
      </trkpt>
      <trkpt lat="44.24991" lon="6.93175">
        <ele>1131.6154556274</ele>
        <time>2019-06-23T10:52:24Z</time>
      </trkpt>
      <trkpt lat="44.24994" lon="6.93173">
        <ele>1131.6154556274</ele>
        <time>2019-06-23T10:52:26Z</time>
      </trkpt>
      <trkpt lat="44.24997" lon="6.93172">
        <ele>1131.6154556274</ele>
        <time>2019-06-23T10:52:28Z</time>
      </trkpt>
      <trkpt lat="44.25" lon="6.93171">
        <ele>1131.6154556274</ele>
        <time>2019-06-23T10:52:30Z</time>
      </trkpt>
      <trkpt lat="44.25002" lon="6.9317">
        <ele>1131.6154556274</ele>
        <time>2019-06-23T10:52:32Z</time>
      </trkpt>
      <trkpt lat="44.25004" lon="6.93167">
        <ele>1131.6154556274</ele>
        <time>2019-06-23T10:52:34Z</time>
      </trkpt>
      <trkpt lat="44.25007" lon="6.93166">
        <ele>1131.6154556274</ele>
        <time>2019-06-23T10:52:36Z</time>
      </trkpt>
      <trkpt lat="44.25008" lon="6.93163">
        <ele>1131.6154556274</ele>
        <time>2019-06-23T10:52:39Z</time>
      </trkpt>
      <trkpt lat="44.2501" lon="6.93161">
        <ele>1131.6154556274</ele>
        <time>2019-06-23T10:52:41Z</time>
      </trkpt>
      <trkpt lat="44.25012" lon="6.9316">
        <ele>1131.6154556274</ele>
        <time>2019-06-23T10:52:43Z</time>
      </trkpt>
      <trkpt lat="44.25014" lon="6.93157">
        <ele>1131.6154556274</ele>
        <time>2019-06-23T10:52:45Z</time>
      </trkpt>
      <trkpt lat="44.25016" lon="6.93155">
        <ele>1131.6154556274</ele>
        <time>2019-06-23T10:52:47Z</time>
      </trkpt>
      <trkpt lat="44.25019" lon="6.93153">
        <ele>1131.6154556274</ele>
        <time>2019-06-23T10:52:49Z</time>
      </trkpt>
      <trkpt lat="44.2502" lon="6.93151">
        <ele>1131.6154556274</ele>
        <time>2019-06-23T10:52:50Z</time>
      </trkpt>
      <trkpt lat="44.25022" lon="6.93148">
        <ele>1131.6154556274</ele>
        <time>2019-06-23T10:52:52Z</time>
      </trkpt>
      <trkpt lat="44.25024" lon="6.93145">
        <ele>1131.6154556274</ele>
        <time>2019-06-23T10:52:54Z</time>
      </trkpt>
      <trkpt lat="44.25025" lon="6.93142">
        <ele>1131.6154556274</ele>
        <time>2019-06-23T10:52:56Z</time>
      </trkpt>
      <trkpt lat="44.25027" lon="6.93141">
        <ele>1131.6154556274</ele>
        <time>2019-06-23T10:52:58Z</time>
      </trkpt>
      <trkpt lat="44.25027" lon="6.93137">
        <ele>1131.6154556274</ele>
        <time>2019-06-23T10:53:00Z</time>
      </trkpt>
      <trkpt lat="44.25029" lon="6.93136">
        <ele>1132.0359133911</ele>
        <time>2019-06-23T10:53:02Z</time>
      </trkpt>
      <trkpt lat="44.25031" lon="6.93135">
        <ele>1132.6647566406</ele>
        <time>2019-06-23T10:53:04Z</time>
      </trkpt>
      <trkpt lat="44.25032" lon="6.93132">
        <ele>1133.4186417693</ele>
        <time>2019-06-23T10:53:07Z</time>
      </trkpt>
      <trkpt lat="44.25035" lon="6.93131">
        <ele>1133.828347108</ele>
        <time>2019-06-23T10:53:09Z</time>
      </trkpt>
      <trkpt lat="44.25037" lon="6.93129">
        <ele>1134.2349832239</ele>
        <time>2019-06-23T10:53:11Z</time>
      </trkpt>
      <trkpt lat="44.25038" lon="6.93127">
        <ele>1134.7966386964</ele>
        <time>2019-06-23T10:53:13Z</time>
      </trkpt>
      <trkpt lat="44.2504" lon="6.93126">
        <ele>1135.2030145284</ele>
        <time>2019-06-23T10:53:15Z</time>
      </trkpt>
      <trkpt lat="44.25042" lon="6.93125">
        <ele>1135.9590375153</ele>
        <time>2019-06-23T10:53:17Z</time>
      </trkpt>
      <trkpt lat="44.25043" lon="6.93123">
        <ele>1135.9301121494</ele>
        <time>2019-06-23T10:53:19Z</time>
      </trkpt>
      <trkpt lat="44.25045" lon="6.9312">
        <ele>1136.8964795125</ele>
        <time>2019-06-23T10:53:22Z</time>
      </trkpt>
      <trkpt lat="44.25047" lon="6.93117">
        <ele>1137.5507963839</ele>
        <time>2019-06-23T10:53:24Z</time>
      </trkpt>
      <trkpt lat="44.25049" lon="6.93115">
        <ele>1138.2033136737</ele>
        <time>2019-06-23T10:53:26Z</time>
      </trkpt>
      <trkpt lat="44.25052" lon="6.93114">
        <ele>1138.4726178969</ele>
        <time>2019-06-23T10:53:27Z</time>
      </trkpt>
      <trkpt lat="44.25054" lon="6.93113">
        <ele>1138.8553858927</ele>
        <time>2019-06-23T10:53:29Z</time>
      </trkpt>
      <trkpt lat="44.25055" lon="6.93112">
        <ele>1139.3936764633</ele>
        <time>2019-06-23T10:53:31Z</time>
      </trkpt>
      <trkpt lat="44.25057" lon="6.9311">
        <ele>1139.6577983827</ele>
        <time>2019-06-23T10:53:33Z</time>
      </trkpt>
      <trkpt lat="44.25059" lon="6.93109">
        <ele>1139.7175135765</ele>
        <time>2019-06-23T10:53:35Z</time>
      </trkpt>
      <trkpt lat="44.25061" lon="6.93106">
        <ele>1139.7181107284</ele>
        <time>2019-06-23T10:53:37Z</time>
      </trkpt>
      <trkpt lat="44.25063" lon="6.93105">
        <ele>1139.7181166999</ele>
        <time>2019-06-23T10:53:39Z</time>
      </trkpt>
      <trkpt lat="44.25065" lon="6.93105">
        <ele>1139.7181167597</ele>
        <time>2019-06-23T10:53:41Z</time>
      </trkpt>
      <trkpt lat="44.25068" lon="6.93102">
        <ele>1139.7181167602</ele>
        <time>2019-06-23T10:53:43Z</time>
      </trkpt>
      <trkpt lat="44.25071" lon="6.931">
        <ele>1139.7181167603</ele>
        <time>2019-06-23T10:53:45Z</time>
      </trkpt>
      <trkpt lat="44.25073" lon="6.93098">
        <ele>1139.7181167603</ele>
        <time>2019-06-23T10:53:47Z</time>
      </trkpt>
      <trkpt lat="44.25076" lon="6.93095">
        <ele>1139.7181167603</ele>
        <time>2019-06-23T10:53:49Z</time>
      </trkpt>
      <trkpt lat="44.25079" lon="6.93093">
        <ele>1139.7181167603</ele>
        <time>2019-06-23T10:53:51Z</time>
      </trkpt>
      <trkpt lat="44.25081" lon="6.9309">
        <ele>1139.7181167603</ele>
        <time>2019-06-23T10:53:53Z</time>
      </trkpt>
      <trkpt lat="44.25083" lon="6.93088">
        <ele>1139.7181167603</ele>
        <time>2019-06-23T10:53:55Z</time>
      </trkpt>
      <trkpt lat="44.25084" lon="6.93085">
        <ele>1139.7181167603</ele>
        <time>2019-06-23T10:53:57Z</time>
      </trkpt>
      <trkpt lat="44.25085" lon="6.93083">
        <ele>1139.7125796509</ele>
        <time>2019-06-23T10:53:59Z</time>
      </trkpt>
      <trkpt lat="44.25086" lon="6.9308">
        <ele>1139.7181112231</ele>
        <time>2019-06-23T10:54:02Z</time>
      </trkpt>
      <trkpt lat="44.25088" lon="6.93078">
        <ele>1139.7181167049</ele>
        <time>2019-06-23T10:54:04Z</time>
      </trkpt>
      <trkpt lat="44.25089" lon="6.93076">
        <ele>1139.7181167547</ele>
        <time>2019-06-23T10:54:05Z</time>
      </trkpt>
      <trkpt lat="44.25091" lon="6.93073">
        <ele>1139.7181167602</ele>
        <time>2019-06-23T10:54:07Z</time>
      </trkpt>
      <trkpt lat="44.25092" lon="6.9307">
        <ele>1139.7181167602</ele>
        <time>2019-06-23T10:54:08Z</time>
      </trkpt>
      <trkpt lat="44.25092" lon="6.93066">
        <ele>1139.7181167603</ele>
        <time>2019-06-23T10:54:10Z</time>
      </trkpt>
      <trkpt lat="44.25093" lon="6.93063">
        <ele>1139.7181167603</ele>
        <time>2019-06-23T10:54:12Z</time>
      </trkpt>
      <trkpt lat="44.25094" lon="6.9306">
        <ele>1139.7181167603</ele>
        <time>2019-06-23T10:54:14Z</time>
      </trkpt>
      <trkpt lat="44.25096" lon="6.93058">
        <ele>1139.7181167603</ele>
        <time>2019-06-23T10:54:16Z</time>
      </trkpt>
      <trkpt lat="44.25099" lon="6.93056">
        <ele>1139.7181167603</ele>
        <time>2019-06-23T10:54:18Z</time>
      </trkpt>
      <trkpt lat="44.25101" lon="6.93053">
        <ele>1139.7843643188</ele>
        <time>2019-06-23T10:54:20Z</time>
      </trkpt>
      <trkpt lat="44.25102" lon="6.93051">
        <ele>1140.0460839233</ele>
        <time>2019-06-23T10:54:22Z</time>
      </trkpt>
      <trkpt lat="44.25104" lon="6.93048">
        <ele>1140.267838038</ele>
        <time>2019-06-23T10:54:25Z</time>
      </trkpt>
      <trkpt lat="44.25106" lon="6.93046">
        <ele>1140.3116571859</ele>
        <time>2019-06-23T10:54:27Z</time>
      </trkpt>
      <trkpt lat="44.25107" lon="6.93044">
        <ele>1140.2357203892</ele>
        <time>2019-06-23T10:54:31Z</time>
      </trkpt>
      <trkpt lat="44.25109" lon="6.93041">
        <ele>1140.1441240954</ele>
        <time>2019-06-23T10:54:33Z</time>
      </trkpt>
      <trkpt lat="44.2511" lon="6.93038">
        <ele>1140.0269508082</ele>
        <time>2019-06-23T10:54:35Z</time>
      </trkpt>
      <trkpt lat="44.25112" lon="6.93036">
        <ele>1139.847207298</ele>
        <time>2019-06-23T10:54:37Z</time>
      </trkpt>
      <trkpt lat="44.25113" lon="6.93034">
        <ele>1139.7194076656</ele>
        <time>2019-06-23T10:54:39Z</time>
      </trkpt>
      <trkpt lat="44.25115" lon="6.93031">
        <ele>1139.7181296693</ele>
        <time>2019-06-23T10:54:41Z</time>
      </trkpt>
      <trkpt lat="44.25117" lon="6.93029">
        <ele>1139.7181168893</ele>
        <time>2019-06-23T10:54:43Z</time>
      </trkpt>
      <trkpt lat="44.25119" lon="6.93025">
        <ele>1139.89719391</ele>
        <time>2019-06-23T10:54:45Z</time>
      </trkpt>
      <trkpt lat="44.25121" lon="6.93025">
        <ele>1140.2350234987</ele>
        <time>2019-06-23T10:54:46Z</time>
      </trkpt>
      <trkpt lat="44.25123" lon="6.93021">
        <ele>1140.4407809448</ele>
        <time>2019-06-23T10:54:48Z</time>
      </trkpt>
      <trkpt lat="44.25124" lon="6.93018">
        <ele>1140.9970108826</ele>
        <time>2019-06-23T10:54:50Z</time>
      </trkpt>
      <trkpt lat="44.25125" lon="6.93014">
        <ele>1141.4925963753</ele>
        <time>2019-06-23T10:54:52Z</time>
      </trkpt>
      <trkpt lat="44.25127" lon="6.93012">
        <ele>1141.6511799561</ele>
        <time>2019-06-23T10:54:53Z</time>
      </trkpt>
      <trkpt lat="44.25127" lon="6.9301">
        <ele>1141.7929416345</ele>
        <time>2019-06-23T10:54:54Z</time>
      </trkpt>
      <trkpt lat="44.2513" lon="6.93008">
        <ele>1141.698507343</ele>
        <time>2019-06-23T10:54:56Z</time>
      </trkpt>
      <trkpt lat="44.25132" lon="6.93006">
        <ele>1141.545648006</ele>
        <time>2019-06-23T10:54:57Z</time>
      </trkpt>
      <trkpt lat="44.25134" lon="6.93003">
        <ele>1141.3193791333</ele>
        <time>2019-06-23T10:54:59Z</time>
      </trkpt>
      <trkpt lat="44.25136" lon="6.93002">
        <ele>1140.7273264055</ele>
        <time>2019-06-23T10:55:01Z</time>
      </trkpt>
      <trkpt lat="44.25138" lon="6.93">
        <ele>1140.3816866399</ele>
        <time>2019-06-23T10:55:03Z</time>
      </trkpt>
      <trkpt lat="44.2514" lon="6.92999">
        <ele>1139.8705080743</ele>
        <time>2019-06-23T10:55:05Z</time>
      </trkpt>
      <trkpt lat="44.25142" lon="6.92995">
        <ele>1140.4916499507</ele>
        <time>2019-06-23T10:55:07Z</time>
      </trkpt>
      <trkpt lat="44.25145" lon="6.92994">
        <ele>1140.9817541918</ele>
        <time>2019-06-23T10:55:09Z</time>
      </trkpt>
      <trkpt lat="44.25147" lon="6.92991">
        <ele>1141.3217272557</ele>
        <time>2019-06-23T10:55:11Z</time>
      </trkpt>
      <trkpt lat="44.25149" lon="6.92989">
        <ele>1141.881188998</ele>
        <time>2019-06-23T10:55:13Z</time>
      </trkpt>
      <trkpt lat="44.2515" lon="6.92986">
        <ele>1141.8557911838</ele>
        <time>2019-06-23T10:55:15Z</time>
      </trkpt>
      <trkpt lat="44.25151" lon="6.92984">
        <ele>1142.1618799791</ele>
        <time>2019-06-23T10:55:17Z</time>
      </trkpt>
      <trkpt lat="44.25152" lon="6.92981">
        <ele>1142.3963458963</ele>
        <time>2019-06-23T10:55:19Z</time>
      </trkpt>
      <trkpt lat="44.25154" lon="6.92978">
        <ele>1142.7683475379</ele>
        <time>2019-06-23T10:55:21Z</time>
      </trkpt>
      <trkpt lat="44.25156" lon="6.92976">
        <ele>1142.5137899665</ele>
        <time>2019-06-23T10:55:23Z</time>
      </trkpt>
      <trkpt lat="44.25157" lon="6.92973">
        <ele>1142.5314262755</ele>
        <time>2019-06-23T10:55:25Z</time>
      </trkpt>
      <trkpt lat="44.25159" lon="6.92969">
        <ele>1142.5274278339</ele>
        <time>2019-06-23T10:55:27Z</time>
      </trkpt>
      <trkpt lat="44.25161" lon="6.92968">
        <ele>1142.6055226151</ele>
        <time>2019-06-23T10:55:29Z</time>
      </trkpt>
      <trkpt lat="44.25163" lon="6.92966">
        <ele>1142.6156858872</ele>
        <time>2019-06-23T10:55:31Z</time>
      </trkpt>
      <trkpt lat="44.25165" lon="6.92964">
        <ele>1142.2981288285</ele>
        <time>2019-06-23T10:55:33Z</time>
      </trkpt>
      <trkpt lat="44.25167" lon="6.92961">
        <ele>1142.8731527208</ele>
        <time>2019-06-23T10:55:35Z</time>
      </trkpt>
      <trkpt lat="44.25169" lon="6.92959">
        <ele>1143.363498907</ele>
        <time>2019-06-23T10:55:37Z</time>
      </trkpt>
      <trkpt lat="44.25171" lon="6.92959">
        <ele>1143.5505447028</ele>
        <time>2019-06-23T10:55:39Z</time>
      </trkpt>
      <trkpt lat="44.25172" lon="6.92957">
        <ele>1143.7112472498</ele>
        <time>2019-06-23T10:55:40Z</time>
      </trkpt>
      <trkpt lat="44.25174" lon="6.92956">
        <ele>1144.0405377194</ele>
        <time>2019-06-23T10:55:41Z</time>
      </trkpt>
      <trkpt lat="44.25177" lon="6.92955">
        <ele>1144.4688177765</ele>
        <time>2019-06-23T10:55:43Z</time>
      </trkpt>
      <trkpt lat="44.2518" lon="6.92953">
        <ele>1144.8860656649</ele>
        <time>2019-06-23T10:55:45Z</time>
      </trkpt>
      <trkpt lat="44.25181" lon="6.92951">
        <ele>1145.791906047</ele>
        <time>2019-06-23T10:55:48Z</time>
      </trkpt>
      <trkpt lat="44.25183" lon="6.92951">
        <ele>1146.0464010398</ele>
        <time>2019-06-23T10:55:50Z</time>
      </trkpt>
      <trkpt lat="44.25185" lon="6.92948">
        <ele>1146.3348296881</ele>
        <time>2019-06-23T10:55:53Z</time>
      </trkpt>
      <trkpt lat="44.25188" lon="6.92945">
        <ele>1147.0419401395</ele>
        <time>2019-06-23T10:55:55Z</time>
      </trkpt>
      <trkpt lat="44.25189" lon="6.92942">
        <ele>1147.8038049452</ele>
        <time>2019-06-23T10:55:57Z</time>
      </trkpt>
      <trkpt lat="44.25192" lon="6.9294">
        <ele>1147.8206081636</ele>
        <time>2019-06-23T10:55:59Z</time>
      </trkpt>
      <trkpt lat="44.25194" lon="6.92937">
        <ele>1147.8207761958</ele>
        <time>2019-06-23T10:56:01Z</time>
      </trkpt>
      <trkpt lat="44.25196" lon="6.92936">
        <ele>1147.8207777233</ele>
        <time>2019-06-23T10:56:02Z</time>
      </trkpt>
      <trkpt lat="44.25198" lon="6.92935">
        <ele>1147.3366103956</ele>
        <time>2019-06-23T10:56:03Z</time>
      </trkpt>
      <trkpt lat="44.252" lon="6.92934">
        <ele>1146.8462136824</ele>
        <time>2019-06-23T10:56:04Z</time>
      </trkpt>
      <trkpt lat="44.25202" lon="6.92933">
        <ele>1146.3003722532</ele>
        <time>2019-06-23T10:56:05Z</time>
      </trkpt>
      <trkpt lat="44.25204" lon="6.9293">
        <ele>1145.4084449304</ele>
        <time>2019-06-23T10:56:07Z</time>
      </trkpt>
      <trkpt lat="44.25206" lon="6.92929">
        <ele>1145.0224767257</ele>
        <time>2019-06-23T10:56:08Z</time>
      </trkpt>
      <trkpt lat="44.25207" lon="6.92926">
        <ele>1144.4960869365</ele>
        <time>2019-06-23T10:56:09Z</time>
      </trkpt>
      <trkpt lat="44.2521" lon="6.92924">
        <ele>1143.7408378683</ele>
        <time>2019-06-23T10:56:11Z</time>
      </trkpt>
      <trkpt lat="44.25211" lon="6.92921">
        <ele>1143.3661896523</ele>
        <time>2019-06-23T10:56:12Z</time>
      </trkpt>
      <trkpt lat="44.25214" lon="6.92918">
        <ele>1142.5936074989</ele>
        <time>2019-06-23T10:56:14Z</time>
      </trkpt>
      <trkpt lat="44.25215" lon="6.92914">
        <ele>1142.218905359</ele>
        <time>2019-06-23T10:56:16Z</time>
      </trkpt>
      <trkpt lat="44.25216" lon="6.92911">
        <ele>1142.9938912478</ele>
        <time>2019-06-23T10:56:18Z</time>
      </trkpt>
      <trkpt lat="44.25218" lon="6.92908">
        <ele>1143.2546892024</ele>
        <time>2019-06-23T10:56:20Z</time>
      </trkpt>
      <trkpt lat="44.2522" lon="6.92904">
        <ele>1143.9555442523</ele>
        <time>2019-06-23T10:56:22Z</time>
      </trkpt>
      <trkpt lat="44.25221" lon="6.92901">
        <ele>1144.5598355176</ele>
        <time>2019-06-23T10:56:24Z</time>
      </trkpt>
      <trkpt lat="44.25223" lon="6.92899">
        <ele>1144.6678974732</ele>
        <time>2019-06-23T10:56:26Z</time>
      </trkpt>
      <trkpt lat="44.25224" lon="6.92896">
        <ele>1145.1950803877</ele>
        <time>2019-06-23T10:56:28Z</time>
      </trkpt>
      <trkpt lat="44.25226" lon="6.92893">
        <ele>1145.413772627</ele>
        <time>2019-06-23T10:56:30Z</time>
      </trkpt>
      <trkpt lat="44.25227" lon="6.9289">
        <ele>1145.8144645735</ele>
        <time>2019-06-23T10:56:31Z</time>
      </trkpt>
      <trkpt lat="44.25228" lon="6.92888">
        <ele>1146.2392749791</ele>
        <time>2019-06-23T10:56:32Z</time>
      </trkpt>
      <trkpt lat="44.25229" lon="6.92886">
        <ele>1146.5153253556</ele>
        <time>2019-06-23T10:56:33Z</time>
      </trkpt>
      <trkpt lat="44.2523" lon="6.92884">
        <ele>1146.8582380104</ele>
        <time>2019-06-23T10:56:34Z</time>
      </trkpt>
      <trkpt lat="44.25232" lon="6.92883">
        <ele>1146.7597828653</ele>
        <time>2019-06-23T10:56:36Z</time>
      </trkpt>
      <trkpt lat="44.25234" lon="6.92879">
        <ele>1147.0726996811</ele>
        <time>2019-06-23T10:56:38Z</time>
      </trkpt>
      <trkpt lat="44.25235" lon="6.92877">
        <ele>1147.1956648961</ele>
        <time>2019-06-23T10:56:39Z</time>
      </trkpt>
      <trkpt lat="44.25236" lon="6.92874">
        <ele>1147.9292789604</ele>
        <time>2019-06-23T10:56:41Z</time>
      </trkpt>
      <trkpt lat="44.25238" lon="6.92872">
        <ele>1148.1135499155</ele>
        <time>2019-06-23T10:56:43Z</time>
      </trkpt>
      <trkpt lat="44.25239" lon="6.9287">
        <ele>1148.3112129375</ele>
        <time>2019-06-23T10:56:45Z</time>
      </trkpt>
      <trkpt lat="44.25241" lon="6.92868">
        <ele>1148.4782591478</ele>
        <time>2019-06-23T10:56:47Z</time>
      </trkpt>
      <trkpt lat="44.25243" lon="6.92865">
        <ele>1148.6943168169</ele>
        <time>2019-06-23T10:56:49Z</time>
      </trkpt>
      <trkpt lat="44.25243" lon="6.92862">
        <ele>1149.1607486339</ele>
        <time>2019-06-23T10:56:51Z</time>
      </trkpt>
      <trkpt lat="44.25245" lon="6.9286">
        <ele>1149.5591084632</ele>
        <time>2019-06-23T10:56:52Z</time>
      </trkpt>
      <trkpt lat="44.25246" lon="6.92855">
        <ele>1149.938538396</ele>
        <time>2019-06-23T10:56:54Z</time>
      </trkpt>
      <trkpt lat="44.25248" lon="6.92853">
        <ele>1150.5766283497</ele>
        <time>2019-06-23T10:56:56Z</time>
      </trkpt>
      <trkpt lat="44.2525" lon="6.92852">
        <ele>1150.8336371371</ele>
        <time>2019-06-23T10:56:59Z</time>
      </trkpt>
      <trkpt lat="44.25252" lon="6.92851">
        <ele>1150.150304005</ele>
        <time>2019-06-23T10:57:05Z</time>
      </trkpt>
      <trkpt lat="44.25254" lon="6.9285">
        <ele>1149.9477468235</ele>
        <time>2019-06-23T10:57:08Z</time>
      </trkpt>
      <trkpt lat="44.25256" lon="6.9285">
        <ele>1149.7547233636</ele>
        <time>2019-06-23T10:57:10Z</time>
      </trkpt>
      <trkpt lat="44.25257" lon="6.92849">
        <ele>1149.2260005335</ele>
        <time>2019-06-23T10:57:21Z</time>
      </trkpt>
      <trkpt lat="44.25258" lon="6.92852">
        <ele>1149.1659762738</ele>
        <time>2019-06-23T10:57:33Z</time>
      </trkpt>
      <trkpt lat="44.2526" lon="6.9285">
        <ele>1148.1297688434</ele>
        <time>2019-06-23T10:57:36Z</time>
      </trkpt>
      <trkpt lat="44.25261" lon="6.92848">
        <ele>1148.261661992</ele>
        <time>2019-06-23T10:57:38Z</time>
      </trkpt>
      <trkpt lat="44.25262" lon="6.92845">
        <ele>1148.8411978765</ele>
        <time>2019-06-23T10:57:47Z</time>
      </trkpt>
      <trkpt lat="44.25264" lon="6.92842">
        <ele>1149.0511896124</ele>
        <time>2019-06-23T10:57:49Z</time>
      </trkpt>
      <trkpt lat="44.25266" lon="6.92842">
        <ele>1148.6833908482</ele>
        <time>2019-06-23T10:57:51Z</time>
      </trkpt>
      <trkpt lat="44.25267" lon="6.92839">
        <ele>1149.1708896183</ele>
        <time>2019-06-23T10:57:53Z</time>
      </trkpt>
      <trkpt lat="44.25268" lon="6.92835">
        <ele>1150.006924274</ele>
        <time>2019-06-23T10:57:55Z</time>
      </trkpt>
      <trkpt lat="44.25271" lon="6.92834">
        <ele>1149.9680104506</ele>
        <time>2019-06-23T10:57:57Z</time>
      </trkpt>
      <trkpt lat="44.25273" lon="6.92832">
        <ele>1149.7148259022</ele>
        <time>2019-06-23T10:57:59Z</time>
      </trkpt>
      <trkpt lat="44.25275" lon="6.92828">
        <ele>1149.8166641739</ele>
        <time>2019-06-23T10:58:01Z</time>
      </trkpt>
      <trkpt lat="44.25277" lon="6.92826">
        <ele>1150.1662567754</ele>
        <time>2019-06-23T10:58:03Z</time>
      </trkpt>
      <trkpt lat="44.2528" lon="6.92824">
        <ele>1150.0058476721</ele>
        <time>2019-06-23T10:58:05Z</time>
      </trkpt>
      <trkpt lat="44.25282" lon="6.92824">
        <ele>1150.1452640889</ele>
        <time>2019-06-23T10:58:07Z</time>
      </trkpt>
      <trkpt lat="44.25284" lon="6.92825">
        <ele>1150.0214271962</ele>
        <time>2019-06-23T10:58:08Z</time>
      </trkpt>
      <trkpt lat="44.25286" lon="6.92827">
        <ele>1149.660227589</ele>
        <time>2019-06-23T10:58:09Z</time>
      </trkpt>
      <trkpt lat="44.25288" lon="6.92827">
        <ele>1149.1923254662</ele>
        <time>2019-06-23T10:58:11Z</time>
      </trkpt>
      <trkpt lat="44.2529" lon="6.92826">
        <ele>1149.0595317715</ele>
        <time>2019-06-23T10:58:12Z</time>
      </trkpt>
      <trkpt lat="44.25293" lon="6.92826">
        <ele>1148.8644081076</ele>
        <time>2019-06-23T10:58:14Z</time>
      </trkpt>
      <trkpt lat="44.25296" lon="6.92825">
        <ele>1148.7143831405</ele>
        <time>2019-06-23T10:58:16Z</time>
      </trkpt>
      <trkpt lat="44.25298" lon="6.92826">
        <ele>1148.599987383</ele>
        <time>2019-06-23T10:58:18Z</time>
      </trkpt>
      <trkpt lat="44.25299" lon="6.92823">
        <ele>1148.498516277</ele>
        <time>2019-06-23T10:58:20Z</time>
      </trkpt>
      <trkpt lat="44.25302" lon="6.92821">
        <ele>1148.3940652867</ele>
        <time>2019-06-23T10:58:22Z</time>
      </trkpt>
      <trkpt lat="44.25304" lon="6.92819">
        <ele>1148.1413789311</ele>
        <time>2019-06-23T10:58:24Z</time>
      </trkpt>
      <trkpt lat="44.25307" lon="6.92817">
        <ele>1147.8791682296</ele>
        <time>2019-06-23T10:58:26Z</time>
      </trkpt>
      <trkpt lat="44.25309" lon="6.92816">
        <ele>1147.2149933882</ele>
        <time>2019-06-23T10:58:28Z</time>
      </trkpt>
      <trkpt lat="44.25311" lon="6.92814">
        <ele>1146.6113435832</ele>
        <time>2019-06-23T10:58:30Z</time>
      </trkpt>
      <trkpt lat="44.25312" lon="6.9281">
        <ele>1146.0865106984</ele>
        <time>2019-06-23T10:58:32Z</time>
      </trkpt>
      <trkpt lat="44.25314" lon="6.92808">
        <ele>1145.5972377114</ele>
        <time>2019-06-23T10:58:34Z</time>
      </trkpt>
      <trkpt lat="44.25316" lon="6.92805">
        <ele>1145.3485337382</ele>
        <time>2019-06-23T10:58:35Z</time>
      </trkpt>
      <trkpt lat="44.25318" lon="6.92802">
        <ele>1144.9790400707</ele>
        <time>2019-06-23T10:58:37Z</time>
      </trkpt>
      <trkpt lat="44.25319" lon="6.928">
        <ele>1144.6453268234</ele>
        <time>2019-06-23T10:58:39Z</time>
      </trkpt>
      <trkpt lat="44.2532" lon="6.92796">
        <ele>1144.8061254332</ele>
        <time>2019-06-23T10:58:41Z</time>
      </trkpt>
      <trkpt lat="44.25321" lon="6.92794">
        <ele>1144.9371303919</ele>
        <time>2019-06-23T10:58:43Z</time>
      </trkpt>
      <trkpt lat="44.25323" lon="6.92793">
        <ele>1145.0972368282</ele>
        <time>2019-06-23T10:58:45Z</time>
      </trkpt>
      <trkpt lat="44.25324" lon="6.9279">
        <ele>1145.1915515156</ele>
        <time>2019-06-23T10:58:47Z</time>
      </trkpt>
      <trkpt lat="44.25327" lon="6.92787">
        <ele>1145.4656697113</ele>
        <time>2019-06-23T10:58:49Z</time>
      </trkpt>
      <trkpt lat="44.25329" lon="6.92784">
        <ele>1146.1196584519</ele>
        <time>2019-06-23T10:58:51Z</time>
      </trkpt>
      <trkpt lat="44.2533" lon="6.9278">
        <ele>1146.8559761713</ele>
        <time>2019-06-23T10:58:53Z</time>
      </trkpt>
      <trkpt lat="44.25333" lon="6.92777">
        <ele>1147.7090119559</ele>
        <time>2019-06-23T10:58:55Z</time>
      </trkpt>
      <trkpt lat="44.25335" lon="6.92774">
        <ele>1147.8126774712</ele>
        <time>2019-06-23T10:58:56Z</time>
      </trkpt>
      <trkpt lat="44.25336" lon="6.92773">
        <ele>1147.5614595501</ele>
        <time>2019-06-23T10:58:57Z</time>
      </trkpt>
      <trkpt lat="44.25338" lon="6.92771">
        <ele>1147.1450633717</ele>
        <time>2019-06-23T10:58:59Z</time>
      </trkpt>
      <trkpt lat="44.25339" lon="6.92769">
        <ele>1146.7619919393</ele>
        <time>2019-06-23T10:59:01Z</time>
      </trkpt>
      <trkpt lat="44.25341" lon="6.92766">
        <ele>1146.5852034613</ele>
        <time>2019-06-23T10:59:03Z</time>
      </trkpt>
      <trkpt lat="44.25343" lon="6.92765">
        <ele>1146.4506218558</ele>
        <time>2019-06-23T10:59:05Z</time>
      </trkpt>
      <trkpt lat="44.25345" lon="6.92763">
        <ele>1146.2915747893</ele>
        <time>2019-06-23T10:59:06Z</time>
      </trkpt>
      <trkpt lat="44.25347" lon="6.92763">
        <ele>1146.2717150046</ele>
        <time>2019-06-23T10:59:07Z</time>
      </trkpt>
      <trkpt lat="44.2535" lon="6.92763">
        <ele>1145.8771207603</ele>
        <time>2019-06-23T10:59:09Z</time>
      </trkpt>
      <trkpt lat="44.25352" lon="6.92762">
        <ele>1145.6193198946</ele>
        <time>2019-06-23T10:59:10Z</time>
      </trkpt>
      <trkpt lat="44.25354" lon="6.9276">
        <ele>1145.5572557447</ele>
        <time>2019-06-23T10:59:12Z</time>
      </trkpt>
      <trkpt lat="44.25357" lon="6.92759">
        <ele>1145.6599615192</ele>
        <time>2019-06-23T10:59:14Z</time>
      </trkpt>
      <trkpt lat="44.25359" lon="6.92758">
        <ele>1145.4955784207</ele>
        <time>2019-06-23T10:59:16Z</time>
      </trkpt>
      <trkpt lat="44.25361" lon="6.92756">
        <ele>1145.9190835155</ele>
        <time>2019-06-23T10:59:18Z</time>
      </trkpt>
      <trkpt lat="44.25365" lon="6.92755">
        <ele>1145.9890827266</ele>
        <time>2019-06-23T10:59:20Z</time>
      </trkpt>
      <trkpt lat="44.25367" lon="6.92755">
        <ele>1145.4101303491</ele>
        <time>2019-06-23T10:59:21Z</time>
      </trkpt>
      <trkpt lat="44.2537" lon="6.92753">
        <ele>1144.9605837711</ele>
        <time>2019-06-23T10:59:23Z</time>
      </trkpt>
      <trkpt lat="44.25373" lon="6.92753">
        <ele>1144.5301044186</ele>
        <time>2019-06-23T10:59:25Z</time>
      </trkpt>
      <trkpt lat="44.25376" lon="6.92751">
        <ele>1143.7003638341</ele>
        <time>2019-06-23T10:59:27Z</time>
      </trkpt>
      <trkpt lat="44.25378" lon="6.9275">
        <ele>1143.1451120826</ele>
        <time>2019-06-23T10:59:29Z</time>
      </trkpt>
      <trkpt lat="44.25381" lon="6.9275">
        <ele>1142.5725222115</ele>
        <time>2019-06-23T10:59:31Z</time>
      </trkpt>
      <trkpt lat="44.25383" lon="6.92748">
        <ele>1142.1594122796</ele>
        <time>2019-06-23T10:59:33Z</time>
      </trkpt>
      <trkpt lat="44.25385" lon="6.92747">
        <ele>1141.7154435338</ele>
        <time>2019-06-23T10:59:35Z</time>
      </trkpt>
      <trkpt lat="44.25388" lon="6.92748">
        <ele>1141.0567570202</ele>
        <time>2019-06-23T10:59:37Z</time>
      </trkpt>
      <trkpt lat="44.2539" lon="6.92749">
        <ele>1140.6834260987</ele>
        <time>2019-06-23T10:59:38Z</time>
      </trkpt>
      <trkpt lat="44.25393" lon="6.92747">
        <ele>1140.2746143361</ele>
        <time>2019-06-23T10:59:40Z</time>
      </trkpt>
      <trkpt lat="44.25395" lon="6.92747">
        <ele>1140.6292298317</ele>
        <time>2019-06-23T10:59:42Z</time>
      </trkpt>
      <trkpt lat="44.25397" lon="6.92746">
        <ele>1140.5726038675</ele>
        <time>2019-06-23T10:59:44Z</time>
      </trkpt>
      <trkpt lat="44.254" lon="6.92746">
        <ele>1140.4148562114</ele>
        <time>2019-06-23T10:59:46Z</time>
      </trkpt>
      <trkpt lat="44.25403" lon="6.92746">
        <ele>1140.3219603755</ele>
        <time>2019-06-23T10:59:48Z</time>
      </trkpt>
      <trkpt lat="44.25405" lon="6.92746">
        <ele>1140.2525646202</ele>
        <time>2019-06-23T10:59:50Z</time>
      </trkpt>
      <trkpt lat="44.25408" lon="6.92744">
        <ele>1140.2931682701</ele>
        <time>2019-06-23T10:59:52Z</time>
      </trkpt>
      <trkpt lat="44.25411" lon="6.92743">
        <ele>1140.2209546777</ele>
        <time>2019-06-23T10:59:54Z</time>
      </trkpt>
      <trkpt lat="44.25414" lon="6.92742">
        <ele>1140.0639959695</ele>
        <time>2019-06-23T10:59:56Z</time>
      </trkpt>
      <trkpt lat="44.25418" lon="6.9274">
        <ele>1139.8312960113</ele>
        <time>2019-06-23T10:59:58Z</time>
      </trkpt>
      <trkpt lat="44.2542" lon="6.92739">
        <ele>1139.7192485528</ele>
        <time>2019-06-23T11:00:00Z</time>
      </trkpt>
      <trkpt lat="44.25422" lon="6.9274">
        <ele>1139.7182299395</ele>
        <time>2019-06-23T11:00:01Z</time>
      </trkpt>
      <trkpt lat="44.25424" lon="6.9274">
        <ele>1139.7181280782</ele>
        <time>2019-06-23T11:00:02Z</time>
      </trkpt>
      <trkpt lat="44.25426" lon="6.92738">
        <ele>1139.7181168734</ele>
        <time>2019-06-23T11:00:04Z</time>
      </trkpt>
      <trkpt lat="44.25428" lon="6.92737">
        <ele>1139.7181167614</ele>
        <time>2019-06-23T11:00:06Z</time>
      </trkpt>
      <trkpt lat="44.25431" lon="6.92736">
        <ele>1139.7181167603</ele>
        <time>2019-06-23T11:00:09Z</time>
      </trkpt>
      <trkpt lat="44.25432" lon="6.92734">
        <ele>1139.7181167603</ele>
        <time>2019-06-23T11:00:11Z</time>
      </trkpt>
      <trkpt lat="44.25434" lon="6.9273">
        <ele>1139.7181167603</ele>
        <time>2019-06-23T11:00:13Z</time>
      </trkpt>
      <trkpt lat="44.25436" lon="6.92729">
        <ele>1139.7181167603</ele>
        <time>2019-06-23T11:00:15Z</time>
      </trkpt>
      <trkpt lat="44.25437" lon="6.92726">
        <ele>1139.7181167603</ele>
        <time>2019-06-23T11:00:17Z</time>
      </trkpt>
      <trkpt lat="44.25438" lon="6.92723">
        <ele>1139.7181167603</ele>
        <time>2019-06-23T11:00:20Z</time>
      </trkpt>
      <trkpt lat="44.2544" lon="6.92718">
        <ele>1140.1819595337</ele>
        <time>2019-06-23T11:00:22Z</time>
      </trkpt>
      <trkpt lat="44.25442" lon="6.92715">
        <ele>1141.4561450806</ele>
        <time>2019-06-23T11:00:24Z</time>
      </trkpt>
      <trkpt lat="44.25443" lon="6.92713">
        <ele>1141.7959601196</ele>
        <time>2019-06-23T11:00:25Z</time>
      </trkpt>
      <trkpt lat="44.25445" lon="6.92712">
        <ele>1142.3108132056</ele>
        <time>2019-06-23T11:00:26Z</time>
      </trkpt>
      <trkpt lat="44.25447" lon="6.92711">
        <ele>1142.6217955845</ele>
        <time>2019-06-23T11:00:27Z</time>
      </trkpt>
      <trkpt lat="44.2545" lon="6.9271">
        <ele>1143.2079567712</ele>
        <time>2019-06-23T11:00:29Z</time>
      </trkpt>
      <trkpt lat="44.25452" lon="6.9271">
        <ele>1143.2650915764</ele>
        <time>2019-06-23T11:00:31Z</time>
      </trkpt>
      <trkpt lat="44.25454" lon="6.92709">
        <ele>1143.5172278658</ele>
        <time>2019-06-23T11:00:33Z</time>
      </trkpt>
      <trkpt lat="44.25457" lon="6.92707">
        <ele>1143.9669037697</ele>
        <time>2019-06-23T11:00:35Z</time>
      </trkpt>
      <trkpt lat="44.25459" lon="6.92707">
        <ele>1144.0453385171</ele>
        <time>2019-06-23T11:00:37Z</time>
      </trkpt>
      <trkpt lat="44.25461" lon="6.92706">
        <ele>1144.3117722786</ele>
        <time>2019-06-23T11:00:39Z</time>
      </trkpt>
      <trkpt lat="44.25463" lon="6.92703">
        <ele>1144.97503354</ele>
        <time>2019-06-23T11:00:41Z</time>
      </trkpt>
      <trkpt lat="44.25465" lon="6.92701">
        <ele>1145.6647850491</ele>
        <time>2019-06-23T11:00:43Z</time>
      </trkpt>
      <trkpt lat="44.25467" lon="6.92699">
        <ele>1146.4938444295</ele>
        <time>2019-06-23T11:00:45Z</time>
      </trkpt>
      <trkpt lat="44.25469" lon="6.92698">
        <ele>1146.7173022596</ele>
        <time>2019-06-23T11:00:47Z</time>
      </trkpt>
      <trkpt lat="44.2547" lon="6.92697">
        <ele>1146.9016168532</ele>
        <time>2019-06-23T11:00:48Z</time>
      </trkpt>
      <trkpt lat="44.25472" lon="6.92695">
        <ele>1147.1762029819</ele>
        <time>2019-06-23T11:00:50Z</time>
      </trkpt>
      <trkpt lat="44.25474" lon="6.92693">
        <ele>1147.7912938139</ele>
        <time>2019-06-23T11:00:52Z</time>
      </trkpt>
      <trkpt lat="44.25477" lon="6.9269">
        <ele>1147.8204830523</ele>
        <time>2019-06-23T11:00:54Z</time>
      </trkpt>
      <trkpt lat="44.25479" lon="6.92688">
        <ele>1147.820748409</ele>
        <time>2019-06-23T11:00:55Z</time>
      </trkpt>
      <trkpt lat="44.25481" lon="6.92685">
        <ele>1147.8207778636</ele>
        <time>2019-06-23T11:00:58Z</time>
      </trkpt>
      <trkpt lat="44.25482" lon="6.92683">
        <ele>1147.8207778901</ele>
        <time>2019-06-23T11:00:59Z</time>
      </trkpt>
      <trkpt lat="44.25483" lon="6.9268">
        <ele>1147.820777893</ele>
        <time>2019-06-23T11:01:01Z</time>
      </trkpt>
      <trkpt lat="44.25484" lon="6.92679">
        <ele>1147.8207778931</ele>
        <time>2019-06-23T11:01:03Z</time>
      </trkpt>
      <trkpt lat="44.25486" lon="6.92678">
        <ele>1147.8207778931</ele>
        <time>2019-06-23T11:01:05Z</time>
      </trkpt>
      <trkpt lat="44.25489" lon="6.92677">
        <ele>1147.8207778931</ele>
        <time>2019-06-23T11:01:08Z</time>
      </trkpt>
      <trkpt lat="44.25492" lon="6.92675">
        <ele>1147.8207778931</ele>
        <time>2019-06-23T11:01:10Z</time>
      </trkpt>
      <trkpt lat="44.25494" lon="6.92673">
        <ele>1147.8207778931</ele>
        <time>2019-06-23T11:01:12Z</time>
      </trkpt>
      <trkpt lat="44.25496" lon="6.92671">
        <ele>1147.8207778931</ele>
        <time>2019-06-23T11:01:14Z</time>
      </trkpt>
      <trkpt lat="44.25497" lon="6.92669">
        <ele>1147.8207778931</ele>
        <time>2019-06-23T11:01:16Z</time>
      </trkpt>
      <trkpt lat="44.25499" lon="6.92667">
        <ele>1147.8207778931</ele>
        <time>2019-06-23T11:01:17Z</time>
      </trkpt>
      <trkpt lat="44.25501" lon="6.92665">
        <ele>1147.8207778931</ele>
        <time>2019-06-23T11:01:19Z</time>
      </trkpt>
      <trkpt lat="44.25503" lon="6.92664">
        <ele>1147.8207778931</ele>
        <time>2019-06-23T11:01:21Z</time>
      </trkpt>
      <trkpt lat="44.25505" lon="6.92662">
        <ele>1147.8207778931</ele>
        <time>2019-06-23T11:01:23Z</time>
      </trkpt>
      <trkpt lat="44.25507" lon="6.9266">
        <ele>1147.8207778931</ele>
        <time>2019-06-23T11:01:25Z</time>
      </trkpt>
      <trkpt lat="44.25509" lon="6.92661">
        <ele>1147.8207778931</ele>
        <time>2019-06-23T11:01:27Z</time>
      </trkpt>
      <trkpt lat="44.25512" lon="6.92657">
        <ele>1147.8207778931</ele>
        <time>2019-06-23T11:01:29Z</time>
      </trkpt>
      <trkpt lat="44.25514" lon="6.92655">
        <ele>1147.8207778931</ele>
        <time>2019-06-23T11:01:31Z</time>
      </trkpt>
      <trkpt lat="44.25516" lon="6.92655">
        <ele>1147.8207778931</ele>
        <time>2019-06-23T11:01:33Z</time>
      </trkpt>
      <trkpt lat="44.25518" lon="6.92654">
        <ele>1147.8207778931</ele>
        <time>2019-06-23T11:01:34Z</time>
      </trkpt>
      <trkpt lat="44.2552" lon="6.92651">
        <ele>1147.8207778931</ele>
        <time>2019-06-23T11:01:35Z</time>
      </trkpt>
      <trkpt lat="44.25522" lon="6.92648">
        <ele>1147.8207778931</ele>
        <time>2019-06-23T11:01:37Z</time>
      </trkpt>
      <trkpt lat="44.25525" lon="6.92645">
        <ele>1147.8207778931</ele>
        <time>2019-06-23T11:01:39Z</time>
      </trkpt>
      <trkpt lat="44.25526" lon="6.92642">
        <ele>1147.8207778931</ele>
        <time>2019-06-23T11:01:41Z</time>
      </trkpt>
      <trkpt lat="44.25526" lon="6.9264">
        <ele>1147.8207778931</ele>
        <time>2019-06-23T11:01:43Z</time>
      </trkpt>
      <trkpt lat="44.25527" lon="6.92637">
        <ele>1148.0505020142</ele>
        <time>2019-06-23T11:01:45Z</time>
      </trkpt>
      <trkpt lat="44.25528" lon="6.92635">
        <ele>1148.7697340698</ele>
        <time>2019-06-23T11:01:47Z</time>
      </trkpt>
      <trkpt lat="44.25528" lon="6.9263">
        <ele>1149.6612699401</ele>
        <time>2019-06-23T11:01:50Z</time>
      </trkpt>
      <trkpt lat="44.2553" lon="6.9263">
        <ele>1150.4980751981</ele>
        <time>2019-06-23T11:01:55Z</time>
      </trkpt>
      <trkpt lat="44.2553" lon="6.92627">
        <ele>1150.9216708669</ele>
        <time>2019-06-23T11:01:59Z</time>
      </trkpt>
      <trkpt lat="44.25532" lon="6.92626">
        <ele>1151.4215848407</ele>
        <time>2019-06-23T11:02:02Z</time>
      </trkpt>
      <trkpt lat="44.25535" lon="6.92625">
        <ele>1151.7275528583</ele>
        <time>2019-06-23T11:02:08Z</time>
      </trkpt>
      <trkpt lat="44.25536" lon="6.92624">
        <ele>1151.9086232011</ele>
        <time>2019-06-23T11:02:13Z</time>
      </trkpt>
      <trkpt lat="44.25538" lon="6.92622">
        <ele>1152.6949485825</ele>
        <time>2019-06-23T11:02:15Z</time>
      </trkpt>
      <trkpt lat="44.25539" lon="6.9262">
        <ele>1152.9769097367</ele>
        <time>2019-06-23T11:02:17Z</time>
      </trkpt>
      <trkpt lat="44.25541" lon="6.92617">
        <ele>1153.7246463404</ele>
        <time>2019-06-23T11:02:19Z</time>
      </trkpt>
      <trkpt lat="44.25542" lon="6.92613">
        <ele>1154.5611959721</ele>
        <time>2019-06-23T11:02:21Z</time>
      </trkpt>
      <trkpt lat="44.25543" lon="6.9261">
        <ele>1155.7965255797</ele>
        <time>2019-06-23T11:02:23Z</time>
      </trkpt>
      <trkpt lat="44.25544" lon="6.92608">
        <ele>1155.9234340607</ele>
        <time>2019-06-23T11:02:26Z</time>
      </trkpt>
      <trkpt lat="44.25546" lon="6.92606">
        <ele>1155.9235598258</ele>
        <time>2019-06-23T11:02:28Z</time>
      </trkpt>
      <trkpt lat="44.25548" lon="6.92605">
        <ele>1155.9235610835</ele>
        <time>2019-06-23T11:02:30Z</time>
      </trkpt>
      <trkpt lat="44.25549" lon="6.92602">
        <ele>1155.9235610962</ele>
        <time>2019-06-23T11:02:33Z</time>
      </trkpt>
      <trkpt lat="44.2555" lon="6.92599">
        <ele>1155.9235610962</ele>
        <time>2019-06-23T11:02:35Z</time>
      </trkpt>
      <trkpt lat="44.2555" lon="6.92597">
        <ele>1155.9235610962</ele>
        <time>2019-06-23T11:02:37Z</time>
      </trkpt>
      <trkpt lat="44.25553" lon="6.92594">
        <ele>1155.9235610962</ele>
        <time>2019-06-23T11:02:40Z</time>
      </trkpt>
      <trkpt lat="44.25555" lon="6.92592">
        <ele>1155.9235610962</ele>
        <time>2019-06-23T11:02:42Z</time>
      </trkpt>
      <trkpt lat="44.25556" lon="6.92589">
        <ele>1155.9235610962</ele>
        <time>2019-06-23T11:02:44Z</time>
      </trkpt>
      <trkpt lat="44.25557" lon="6.92586">
        <ele>1155.9235610962</ele>
        <time>2019-06-23T11:02:46Z</time>
      </trkpt>
      <trkpt lat="44.25558" lon="6.92584">
        <ele>1155.9235610962</ele>
        <time>2019-06-23T11:02:49Z</time>
      </trkpt>
      <trkpt lat="44.2556" lon="6.92583">
        <ele>1155.9235610962</ele>
        <time>2019-06-23T11:02:51Z</time>
      </trkpt>
      <trkpt lat="44.25562" lon="6.92581">
        <ele>1155.9235610962</ele>
        <time>2019-06-23T11:02:53Z</time>
      </trkpt>
      <trkpt lat="44.25565" lon="6.92582">
        <ele>1155.9235610962</ele>
        <time>2019-06-23T11:02:56Z</time>
      </trkpt>
      <trkpt lat="44.25567" lon="6.92583">
        <ele>1155.9235610962</ele>
        <time>2019-06-23T11:02:59Z</time>
      </trkpt>
      <trkpt lat="44.2557" lon="6.92582">
        <ele>1155.9235610962</ele>
        <time>2019-06-23T11:03:01Z</time>
      </trkpt>
      <trkpt lat="44.25571" lon="6.92581">
        <ele>1155.9235610962</ele>
        <time>2019-06-23T11:03:03Z</time>
      </trkpt>
      <trkpt lat="44.25574" lon="6.92581">
        <ele>1155.9235610962</ele>
        <time>2019-06-23T11:03:05Z</time>
      </trkpt>
      <trkpt lat="44.25576" lon="6.9258">
        <ele>1155.9235610962</ele>
        <time>2019-06-23T11:03:07Z</time>
      </trkpt>
      <trkpt lat="44.25577" lon="6.92582">
        <ele>1155.9235610962</ele>
        <time>2019-06-23T11:03:10Z</time>
      </trkpt>
      <trkpt lat="44.25579" lon="6.92584">
        <ele>1155.9235610962</ele>
        <time>2019-06-23T11:03:17Z</time>
      </trkpt>
      <trkpt lat="44.2558" lon="6.92586">
        <ele>1155.9235610962</ele>
        <time>2019-06-23T11:03:19Z</time>
      </trkpt>
      <trkpt lat="44.25581" lon="6.92588">
        <ele>1155.9235610962</ele>
        <time>2019-06-23T11:03:23Z</time>
      </trkpt>
      <trkpt lat="44.25583" lon="6.92589">
        <ele>1155.9235610962</ele>
        <time>2019-06-23T11:03:25Z</time>
      </trkpt>
      <trkpt lat="44.25586" lon="6.92592">
        <ele>1155.8639053345</ele>
        <time>2019-06-23T11:03:27Z</time>
      </trkpt>
      <trkpt lat="44.25588" lon="6.92592">
        <ele>1155.5742145386</ele>
        <time>2019-06-23T11:03:29Z</time>
      </trkpt>
      <trkpt lat="44.2559" lon="6.92593">
        <ele>1155.3288160053</ele>
        <time>2019-06-23T11:03:33Z</time>
      </trkpt>
      <trkpt lat="44.25592" lon="6.92594">
        <ele>1155.1365516336</ele>
        <time>2019-06-23T11:03:35Z</time>
      </trkpt>
      <trkpt lat="44.25592" lon="6.92594">
        <ele>1155.0255896832</ele>
        <time>2019-06-23T11:03:37Z</time>
      </trkpt>
      <trkpt lat="44.25594" lon="6.92596">
        <ele>1154.6968630369</ele>
        <time>2019-06-23T11:03:42Z</time>
      </trkpt>
      <trkpt lat="44.25596" lon="6.92598">
        <ele>1154.1618269518</ele>
        <time>2019-06-23T11:03:45Z</time>
      </trkpt>
      <trkpt lat="44.25594" lon="6.92599">
        <ele>1154.1471974169</ele>
        <time>2019-06-23T11:03:47Z</time>
      </trkpt>
      <trkpt lat="44.25592" lon="6.92599">
        <ele>1154.3644617345</ele>
        <time>2019-06-23T11:03:50Z</time>
      </trkpt>
      <trkpt lat="44.25589" lon="6.92596">
        <ele>1154.8544451121</ele>
        <time>2019-06-23T11:03:53Z</time>
      </trkpt>
      <trkpt lat="44.25588" lon="6.92595">
        <ele>1155.2880655886</ele>
        <time>2019-06-23T11:03:56Z</time>
      </trkpt>
      <trkpt lat="44.25589" lon="6.92593">
        <ele>1155.450690952</ele>
        <time>2019-06-23T11:04:02Z</time>
      </trkpt>
      <trkpt lat="44.25591" lon="6.92591">
        <ele>1155.2350323459</ele>
        <time>2019-06-23T11:04:04Z</time>
      </trkpt>
      <trkpt lat="44.25592" lon="6.92589">
        <ele>1155.3839343296</ele>
        <time>2019-06-23T11:04:11Z</time>
      </trkpt>
      <trkpt lat="44.25593" lon="6.92586">
        <ele>1155.5704906657</ele>
        <time>2019-06-23T11:04:16Z</time>
      </trkpt>
      <trkpt lat="44.25593" lon="6.92583">
        <ele>1155.79240583</ele>
        <time>2019-06-23T11:04:23Z</time>
      </trkpt>
      <trkpt lat="44.25594" lon="6.92581">
        <ele>1155.9235608138</ele>
        <time>2019-06-23T11:04:38Z</time>
      </trkpt>
      <trkpt lat="44.25595" lon="6.92578">
        <ele>1155.9235610962</ele>
        <time>2019-06-23T11:04:44Z</time>
      </trkpt>
      <trkpt lat="44.25597" lon="6.92577">
        <ele>1155.9235610962</ele>
        <time>2019-06-23T11:04:48Z</time>
      </trkpt>
      <trkpt lat="44.25599" lon="6.92576">
        <ele>1155.9235610962</ele>
        <time>2019-06-23T11:05:06Z</time>
      </trkpt>
      <trkpt lat="44.25598" lon="6.92578">
        <ele>1155.9235610962</ele>
        <time>2019-06-23T11:05:11Z</time>
      </trkpt>
      <trkpt lat="44.25596" lon="6.92579">
        <ele>1155.9235610962</ele>
        <time>2019-06-23T11:05:20Z</time>
      </trkpt>
      <trkpt lat="44.25598" lon="6.9258">
        <ele>1155.9235610962</ele>
        <time>2019-06-23T11:05:29Z</time>
      </trkpt>
      <trkpt lat="44.25599" lon="6.92578">
        <ele>1155.9235610962</ele>
        <time>2019-06-23T11:05:37Z</time>
      </trkpt>
      <trkpt lat="44.25599" lon="6.92575">
        <ele>1155.9235610962</ele>
        <time>2019-06-23T11:05:39Z</time>
      </trkpt>
      <trkpt lat="44.25598" lon="6.92573">
        <ele>1155.9235610962</ele>
        <time>2019-06-23T11:05:43Z</time>
      </trkpt>
      <trkpt lat="44.25596" lon="6.92574">
        <ele>1155.9235610962</ele>
        <time>2019-06-23T11:05:52Z</time>
      </trkpt>
      <trkpt lat="44.25599" lon="6.92574">
        <ele>1155.9235610962</ele>
        <time>2019-06-23T11:06:12Z</time>
      </trkpt>
      <trkpt lat="44.256" lon="6.92576">
        <ele>1155.9235610962</ele>
        <time>2019-06-23T11:06:17Z</time>
      </trkpt>
      <trkpt lat="44.25597" lon="6.92576">
        <ele>1155.9235610962</ele>
        <time>2019-06-23T11:06:25Z</time>
      </trkpt>
      <trkpt lat="44.25597" lon="6.92573">
        <ele>1155.9235610962</ele>
        <time>2019-06-23T11:06:36Z</time>
      </trkpt>
      <trkpt lat="44.25597" lon="6.92571">
        <ele>1155.9235610962</ele>
        <time>2019-06-23T11:06:50Z</time>
      </trkpt>
      <trkpt lat="44.25599" lon="6.92569">
        <ele>1155.9235610962</ele>
        <time>2019-06-23T11:06:56Z</time>
      </trkpt>
      <trkpt lat="44.25601" lon="6.92568">
        <ele>1155.9235610962</ele>
        <time>2019-06-23T11:06:59Z</time>
      </trkpt>
      <trkpt lat="44.25602" lon="6.92566">
        <ele>1155.9235610962</ele>
        <time>2019-06-23T11:07:03Z</time>
      </trkpt>
      <trkpt lat="44.25603" lon="6.92568">
        <ele>1155.9235610962</ele>
        <time>2019-06-23T11:07:15Z</time>
      </trkpt>
      <trkpt lat="44.25603" lon="6.92572">
        <ele>1155.9235610962</ele>
        <time>2019-06-23T11:07:17Z</time>
      </trkpt>
      <trkpt lat="44.25603" lon="6.92575">
        <ele>1155.9235610962</ele>
        <time>2019-06-23T11:07:19Z</time>
      </trkpt>
      <trkpt lat="44.25601" lon="6.92578">
        <ele>1155.9235610962</ele>
        <time>2019-06-23T11:07:22Z</time>
      </trkpt>
      <trkpt lat="44.25602" lon="6.92581">
        <ele>1155.9235610962</ele>
        <time>2019-06-23T11:07:24Z</time>
      </trkpt>
      <trkpt lat="44.25603" lon="6.92583">
        <ele>1155.9235610962</ele>
        <time>2019-06-23T11:07:26Z</time>
      </trkpt>
      <trkpt lat="44.25606" lon="6.92581">
        <ele>1147.7372853181</ele>
        <time>2019-06-23T11:07:41Z</time>
      </trkpt>
      <trkpt lat="44.25608" lon="6.92581">
        <ele>1155.563016979</ele>
        <time>2019-06-23T11:07:46Z</time>
      </trkpt>
      <trkpt lat="44.25604" lon="6.92578">
        <ele>1155.919955655</ele>
        <time>2019-06-23T11:07:48Z</time>
      </trkpt>
      <trkpt lat="44.25601" lon="6.92578">
        <ele>1155.9232005521</ele>
        <time>2019-06-23T11:07:49Z</time>
      </trkpt>
      <trkpt lat="44.25603" lon="6.92578">
        <ele>1155.9235610601</ele>
        <time>2019-06-23T11:07:53Z</time>
      </trkpt>
      <trkpt lat="44.25606" lon="6.9258">
        <ele>1149.7071354586</ele>
        <time>2019-06-23T11:08:18Z</time>
      </trkpt>
      <trkpt lat="44.25607" lon="6.92582">
        <ele>1149.7533359666</ele>
        <time>2019-06-23T11:08:20Z</time>
      </trkpt>
      <trkpt lat="44.25609" lon="6.92585">
        <ele>1149.8058705124</ele>
        <time>2019-06-23T11:08:22Z</time>
      </trkpt>
      <trkpt lat="44.2561" lon="6.92588">
        <ele>1154.9151736849</ele>
        <time>2019-06-23T11:08:29Z</time>
      </trkpt>
      <trkpt lat="44.2561" lon="6.92591">
        <ele>1154.3567914311</ele>
        <time>2019-06-23T11:08:31Z</time>
      </trkpt>
      <trkpt lat="44.25611" lon="6.92594">
        <ele>1153.2696376371</ele>
        <time>2019-06-23T11:08:34Z</time>
      </trkpt>
      <trkpt lat="44.25609" lon="6.92591">
        <ele>1153.2312647468</ele>
        <time>2019-06-23T11:08:38Z</time>
      </trkpt>
      <trkpt lat="44.25607" lon="6.92588">
        <ele>1154.3938842264</ele>
        <time>2019-06-23T11:08:40Z</time>
      </trkpt>
      <trkpt lat="44.25609" lon="6.92586">
        <ele>1154.7992622865</ele>
        <time>2019-06-23T11:08:48Z</time>
      </trkpt>
      <trkpt lat="44.25611" lon="6.92585">
        <ele>1155.3930163503</ele>
        <time>2019-06-23T11:08:50Z</time>
      </trkpt>
      <trkpt lat="44.25612" lon="6.92583">
        <ele>1155.8225894114</ele>
        <time>2019-06-23T11:09:07Z</time>
      </trkpt>
      <trkpt lat="44.25615" lon="6.92581">
        <ele>1155.9225513793</ele>
        <time>2019-06-23T11:09:09Z</time>
      </trkpt>
      <trkpt lat="44.25619" lon="6.9258">
        <ele>1155.5743512948</ele>
        <time>2019-06-23T11:09:11Z</time>
      </trkpt>
      <trkpt lat="44.2562" lon="6.92578">
        <ele>1155.9200689982</ele>
        <time>2019-06-23T11:09:13Z</time>
      </trkpt>
      <trkpt lat="44.25623" lon="6.92578">
        <ele>1155.9235261752</ele>
        <time>2019-06-23T11:09:15Z</time>
      </trkpt>
      <trkpt lat="44.25626" lon="6.92578">
        <ele>1148.9088074914</ele>
        <time>2019-06-23T11:09:19Z</time>
      </trkpt>
      <trkpt lat="44.25627" lon="6.92578">
        <ele>1155.9165463426</ele>
        <time>2019-06-23T11:09:22Z</time>
      </trkpt>
      <trkpt lat="44.25625" lon="6.9258">
        <ele>1155.923561026</ele>
        <time>2019-06-23T11:09:27Z</time>
      </trkpt>
      <trkpt lat="44.25621" lon="6.9258">
        <ele>1155.9235610962</ele>
        <time>2019-06-23T11:09:31Z</time>
      </trkpt>
      <trkpt lat="44.25619" lon="6.9258">
        <ele>1155.9235610962</ele>
        <time>2019-06-23T11:09:32Z</time>
      </trkpt>
      <trkpt lat="44.25618" lon="6.92579">
        <ele>1155.9235610962</ele>
        <time>2019-06-23T11:09:34Z</time>
      </trkpt>
      <trkpt lat="44.25615" lon="6.92578">
        <ele>1155.9235610962</ele>
        <time>2019-06-23T11:09:37Z</time>
      </trkpt>
      <trkpt lat="44.25612" lon="6.92578">
        <ele>1155.9235610962</ele>
        <time>2019-06-23T11:09:39Z</time>
      </trkpt>
      <trkpt lat="44.2561" lon="6.92579">
        <ele>1155.9235610962</ele>
        <time>2019-06-23T11:09:42Z</time>
      </trkpt>
      <trkpt lat="44.25609" lon="6.92577">
        <ele>1155.9235610962</ele>
        <time>2019-06-23T11:09:44Z</time>
      </trkpt>
      <trkpt lat="44.25611" lon="6.9258">
        <ele>1155.9240322377</ele>
        <time>2019-06-23T11:09:53Z</time>
      </trkpt>
      <trkpt lat="44.25611" lon="6.92582">
        <ele>1155.9235611433</ele>
        <time>2019-06-23T11:09:57Z</time>
      </trkpt>
      <trkpt lat="44.25609" lon="6.92582">
        <ele>1155.9235610962</ele>
        <time>2019-06-23T11:10:02Z</time>
      </trkpt>
      <trkpt lat="44.25606" lon="6.92581">
        <ele>1155.9235610962</ele>
        <time>2019-06-23T11:10:06Z</time>
      </trkpt>
      <trkpt lat="44.25605" lon="6.9258">
        <ele>1155.9224743087</ele>
        <time>2019-06-23T11:10:14Z</time>
      </trkpt>
      <trkpt lat="44.25603" lon="6.92577">
        <ele>1155.9235600094</ele>
        <time>2019-06-23T11:10:17Z</time>
      </trkpt>
      <trkpt lat="44.25601" lon="6.92578">
        <ele>1153.9271613943</ele>
        <time>2019-06-23T11:10:20Z</time>
      </trkpt>
      <trkpt lat="44.256" lon="6.92581">
        <ele>1155.9035970992</ele>
        <time>2019-06-23T11:10:22Z</time>
      </trkpt>
      <trkpt lat="44.25599" lon="6.92583">
        <ele>1155.9235610962</ele>
        <time>2019-06-23T11:10:37Z</time>
      </trkpt>
      <trkpt lat="44.25596" lon="6.92581">
        <ele>1155.9235610962</ele>
        <time>2019-06-23T11:10:39Z</time>
      </trkpt>
      <trkpt lat="44.25595" lon="6.9258">
        <ele>1155.9235610962</ele>
        <time>2019-06-23T11:10:48Z</time>
      </trkpt>
      <trkpt lat="44.25593" lon="6.92578">
        <ele>1155.9235610962</ele>
        <time>2019-06-23T11:10:53Z</time>
      </trkpt>
      <trkpt lat="44.25591" lon="6.92576">
        <ele>1155.9235610962</ele>
        <time>2019-06-23T11:10:55Z</time>
      </trkpt>
      <trkpt lat="44.25589" lon="6.92575">
        <ele>1155.9235610962</ele>
        <time>2019-06-23T11:11:07Z</time>
      </trkpt>
      <trkpt lat="44.25591" lon="6.92575">
        <ele>1155.9235610962</ele>
        <time>2019-06-23T11:11:10Z</time>
      </trkpt>
      <trkpt lat="44.25593" lon="6.92573">
        <ele>1154.4336651878</ele>
        <time>2019-06-23T11:11:12Z</time>
      </trkpt>
      <trkpt lat="44.25595" lon="6.92572">
        <ele>1155.5629014538</ele>
        <time>2019-06-23T11:11:15Z</time>
      </trkpt>
      <trkpt lat="44.25594" lon="6.92575">
        <ele>1155.9199544998</ele>
        <time>2019-06-23T11:11:17Z</time>
      </trkpt>
      <trkpt lat="44.25594" lon="6.92578">
        <ele>1155.9235574896</ele>
        <time>2019-06-23T11:11:20Z</time>
      </trkpt>
      <trkpt lat="44.25595" lon="6.92581">
        <ele>1155.9235610962</ele>
        <time>2019-06-23T11:11:25Z</time>
      </trkpt>
      <trkpt lat="44.25597" lon="6.92583">
        <ele>1155.9235610962</ele>
        <time>2019-06-23T11:11:28Z</time>
      </trkpt>
      <trkpt lat="44.25598" lon="6.92582">
        <ele>1155.9235610962</ele>
        <time>2019-06-23T11:11:30Z</time>
      </trkpt>
      <trkpt lat="44.25599" lon="6.92584">
        <ele>1155.8258596802</ele>
        <time>2019-06-23T11:11:36Z</time>
      </trkpt>
      <trkpt lat="44.25602" lon="6.92584">
        <ele>1155.856099556</ele>
        <time>2019-06-23T11:11:40Z</time>
      </trkpt>
      <trkpt lat="44.25604" lon="6.92586">
        <ele>1155.5614143128</ele>
        <time>2019-06-23T11:11:42Z</time>
      </trkpt>
      <trkpt lat="44.25602" lon="6.92586">
        <ele>1155.9432790839</ele>
        <time>2019-06-23T11:11:48Z</time>
      </trkpt>
      <trkpt lat="44.256" lon="6.92583">
        <ele>1155.8479487684</ele>
        <time>2019-06-23T11:11:53Z</time>
      </trkpt>
      <trkpt lat="44.25599" lon="6.92586">
        <ele>1155.6673983576</ele>
        <time>2019-06-23T11:11:59Z</time>
      </trkpt>
      <trkpt lat="44.25598" lon="6.92588">
        <ele>1155.5573686505</ele>
        <time>2019-06-23T11:12:00Z</time>
      </trkpt>
      <trkpt lat="44.25595" lon="6.92587">
        <ele>1155.2446463198</ele>
        <time>2019-06-23T11:12:03Z</time>
      </trkpt>
      <trkpt lat="44.25593" lon="6.92588">
        <ele>1155.5111157019</ele>
        <time>2019-06-23T11:12:06Z</time>
      </trkpt>
      <trkpt lat="44.2559" lon="6.92585">
        <ele>1155.3868620297</ele>
        <time>2019-06-23T11:12:09Z</time>
      </trkpt>
      <trkpt lat="44.25589" lon="6.92583">
        <ele>1155.9196153395</ele>
        <time>2019-06-23T11:12:12Z</time>
      </trkpt>
      <trkpt lat="44.2559" lon="6.9258">
        <ele>1155.9235610922</ele>
        <time>2019-06-23T11:12:18Z</time>
      </trkpt>
      <trkpt lat="44.25589" lon="6.92583">
        <ele>1156.8568405984</ele>
        <time>2019-06-23T11:12:38Z</time>
      </trkpt>
      <trkpt lat="44.25587" lon="6.92584">
        <ele>1155.8426218812</ele>
        <time>2019-06-23T11:12:45Z</time>
      </trkpt>
      <trkpt lat="44.25588" lon="6.92587">
        <ele>1155.8078896435</ele>
        <time>2019-06-23T11:12:47Z</time>
      </trkpt>
      <trkpt lat="44.25588" lon="6.9259">
        <ele>1155.7007771844</ele>
        <time>2019-06-23T11:12:49Z</time>
      </trkpt>
      <trkpt lat="44.25588" lon="6.92593">
        <ele>1155.536857819</ele>
        <time>2019-06-23T11:12:56Z</time>
      </trkpt>
      <trkpt lat="44.2559" lon="6.92591">
        <ele>1155.3494990999</ele>
        <time>2019-06-23T11:12:59Z</time>
      </trkpt>
      <trkpt lat="44.25588" lon="6.9259">
        <ele>1155.4742851901</ele>
        <time>2019-06-23T11:13:07Z</time>
      </trkpt>
      <trkpt lat="44.25591" lon="6.92591">
        <ele>1155.4478743539</ele>
        <time>2019-06-23T11:13:16Z</time>
      </trkpt>
      <trkpt lat="44.25593" lon="6.9259">
        <ele>1155.2406565842</ele>
        <time>2019-06-23T11:13:24Z</time>
      </trkpt>
      <trkpt lat="44.25595" lon="6.9259">
        <ele>1155.1558182552</ele>
        <time>2019-06-23T11:13:27Z</time>
      </trkpt>
      <trkpt lat="44.25597" lon="6.9259">
        <ele>1154.9257857921</ele>
        <time>2019-06-23T11:13:37Z</time>
      </trkpt>
      <trkpt lat="44.25599" lon="6.92589">
        <ele>1154.850389289</ele>
        <time>2019-06-23T11:13:43Z</time>
      </trkpt>
      <trkpt lat="44.25601" lon="6.92592">
        <ele>1154.4975527693</ele>
        <time>2019-06-23T11:13:48Z</time>
      </trkpt>
      <trkpt lat="44.25602" lon="6.9259">
        <ele>1154.5232076327</ele>
        <time>2019-06-23T11:13:56Z</time>
      </trkpt>
      <trkpt lat="44.25604" lon="6.92591">
        <ele>1154.3508435099</ele>
        <time>2019-06-23T11:14:01Z</time>
      </trkpt>
      <trkpt lat="44.25607" lon="6.92592">
        <ele>1153.888690405</ele>
        <time>2019-06-23T11:14:04Z</time>
      </trkpt>
      <trkpt lat="44.25609" lon="6.92592">
        <ele>1155.7716717784</ele>
        <time>2019-06-23T11:14:06Z</time>
      </trkpt>
      <trkpt lat="44.25612" lon="6.92591">
        <ele>1158.6902151892</ele>
        <time>2019-06-23T11:14:08Z</time>
      </trkpt>
      <trkpt lat="44.25614" lon="6.9259">
        <ele>1160.5494503038</ele>
        <time>2019-06-23T11:14:10Z</time>
      </trkpt>
      <trkpt lat="44.25615" lon="6.92584">
        <ele>1162.8314843027</ele>
        <time>2019-06-23T11:15:33Z</time>
      </trkpt>
      <trkpt lat="44.25607" lon="6.92581">
        <ele>1162.6114483691</ele>
        <time>2019-06-23T11:15:34Z</time>
      </trkpt>
      <trkpt lat="44.25597" lon="6.92579">
        <ele>1156.6651868312</ele>
        <time>2019-06-23T11:15:35Z</time>
      </trkpt>
      <trkpt lat="44.25593" lon="6.92579">
        <ele>1155.9977236697</ele>
        <time>2019-06-23T11:15:36Z</time>
      </trkpt>
      <trkpt lat="44.25594" lon="6.92582">
        <ele>1155.9235618378</ele>
        <time>2019-06-23T11:15:41Z</time>
      </trkpt>
      <trkpt lat="44.25593" lon="6.92585">
        <ele>1155.9235610963</ele>
        <time>2019-06-23T11:15:45Z</time>
      </trkpt>
      <trkpt lat="44.25593" lon="6.92588">
        <ele>1155.6277651978</ele>
        <time>2019-06-23T11:15:47Z</time>
      </trkpt>
      <trkpt lat="44.25592" lon="6.92591">
        <ele>1155.3286324878</ele>
        <time>2019-06-23T11:15:50Z</time>
      </trkpt>
      <trkpt lat="44.25591" lon="6.92594">
        <ele>1155.1437770672</ele>
        <time>2019-06-23T11:15:54Z</time>
      </trkpt>
      <trkpt lat="44.25589" lon="6.92594">
        <ele>1155.2772251209</ele>
        <time>2019-06-23T11:15:59Z</time>
      </trkpt>
      <trkpt lat="44.25587" lon="6.92592">
        <ele>1155.4942779122</ele>
        <time>2019-06-23T11:16:01Z</time>
      </trkpt>
      <trkpt lat="44.25589" lon="6.92595">
        <ele>1155.3935883541</ele>
        <time>2019-06-23T11:16:10Z</time>
      </trkpt>
      <trkpt lat="44.25588" lon="6.92597">
        <ele>1155.2820980387</ele>
        <time>2019-06-23T11:16:12Z</time>
      </trkpt>
      <trkpt lat="44.25589" lon="6.926">
        <ele>1155.1533329891</ele>
        <time>2019-06-23T11:16:14Z</time>
      </trkpt>
      <trkpt lat="44.25588" lon="6.92603">
        <ele>1154.9230573014</ele>
        <time>2019-06-23T11:16:16Z</time>
      </trkpt>
      <trkpt lat="44.25588" lon="6.92606">
        <ele>1154.865756986</ele>
        <time>2019-06-23T11:16:18Z</time>
      </trkpt>
      <trkpt lat="44.25589" lon="6.92609">
        <ele>1154.6242757797</ele>
        <time>2019-06-23T11:16:20Z</time>
      </trkpt>
      <trkpt lat="44.25588" lon="6.92606">
        <ele>1154.8079690309</ele>
        <time>2019-06-23T11:16:30Z</time>
      </trkpt>
      <trkpt lat="44.25588" lon="6.92609">
        <ele>1154.6476025745</ele>
        <time>2019-06-23T11:16:45Z</time>
      </trkpt>
      <trkpt lat="44.25586" lon="6.92609">
        <ele>1154.9594127482</ele>
        <time>2019-06-23T11:16:53Z</time>
      </trkpt>
      <trkpt lat="44.25585" lon="6.92606">
        <ele>1155.3984885527</ele>
        <time>2019-06-23T11:17:01Z</time>
      </trkpt>
      <trkpt lat="44.25583" lon="6.92606">
        <ele>1155.9171148155</ele>
        <time>2019-06-23T11:17:08Z</time>
      </trkpt>
      <trkpt lat="44.25583" lon="6.92603">
        <ele>1155.9235610962</ele>
        <time>2019-06-23T11:17:34Z</time>
      </trkpt>
      <trkpt lat="44.25581" lon="6.92602">
        <ele>1155.9235610962</ele>
        <time>2019-06-23T11:18:37Z</time>
      </trkpt>
      <trkpt lat="44.25583" lon="6.926">
        <ele>1155.9235610962</ele>
        <time>2019-06-23T11:19:01Z</time>
      </trkpt>
      <trkpt lat="44.25581" lon="6.92601">
        <ele>1155.9235610962</ele>
        <time>2019-06-23T11:19:19Z</time>
      </trkpt>
      <trkpt lat="44.25578" lon="6.92602">
        <ele>1155.9235610962</ele>
        <time>2019-06-23T11:19:39Z</time>
      </trkpt>
      <trkpt lat="44.2558" lon="6.92603">
        <ele>1155.9235610962</ele>
        <time>2019-06-23T11:20:04Z</time>
      </trkpt>
      <trkpt lat="44.25582" lon="6.92602">
        <ele>1155.9235610962</ele>
        <time>2019-06-23T11:23:24Z</time>
      </trkpt>
      <trkpt lat="44.25582" lon="6.92604">
        <ele>1155.9235610962</ele>
        <time>2019-06-23T11:24:45Z</time>
      </trkpt>
      <trkpt lat="44.25584" lon="6.92601">
        <ele>1155.9235610461</ele>
        <time>2019-06-23T11:25:22Z</time>
      </trkpt>
      <trkpt lat="44.25585" lon="6.92601">
        <ele>1155.6521379272</ele>
        <time>2019-06-23T11:25:26Z</time>
      </trkpt>
      <trkpt lat="44.25588" lon="6.92602">
        <ele>1155.2956314087</ele>
        <time>2019-06-23T11:28:58Z</time>
      </trkpt>
      <trkpt lat="44.25585" lon="6.92601">
        <ele>1155.4133941166</ele>
        <time>2019-06-23T11:30:09Z</time>
      </trkpt>
      <trkpt lat="44.25583" lon="6.926">
        <ele>1155.9128270875</ele>
        <time>2019-06-23T11:30:20Z</time>
      </trkpt>
      <trkpt lat="44.25585" lon="6.92599">
        <ele>1155.8492123434</ele>
        <time>2019-06-23T11:33:34Z</time>
      </trkpt>
      <trkpt lat="44.25586" lon="6.926">
        <ele>1155.4974136353</ele>
        <time>2019-06-23T11:34:24Z</time>
      </trkpt>
      <trkpt lat="44.25589" lon="6.92601">
        <ele>1155.1501235962</ele>
        <time>2019-06-23T11:39:20Z</time>
      </trkpt>
      <trkpt lat="44.25591" lon="6.92602">
        <ele>1154.6054905518</ele>
        <time>2019-06-23T11:39:24Z</time>
      </trkpt>
      <trkpt lat="44.25589" lon="6.92602">
        <ele>1154.7199019743</ele>
        <time>2019-06-23T11:39:30Z</time>
      </trkpt>
      <trkpt lat="44.25589" lon="6.92602">
        <ele>1154.7301418889</ele>
        <time>2019-06-23T11:40:03Z</time>
      </trkpt>
      <trkpt lat="44.25588" lon="6.92603">
        <ele>1154.9318756806</ele>
        <time>2019-06-23T11:40:08Z</time>
      </trkpt>
      <trkpt lat="44.25589" lon="6.92601">
        <ele>1154.911320922</ele>
        <time>2019-06-23T11:40:15Z</time>
      </trkpt>
      <trkpt lat="44.25591" lon="6.926">
        <ele>1154.8211281115</ele>
        <time>2019-06-23T11:40:37Z</time>
      </trkpt>
      <trkpt lat="44.25593" lon="6.92601">
        <ele>1154.3826850204</ele>
        <time>2019-06-23T11:40:41Z</time>
      </trkpt>
      <trkpt lat="44.25595" lon="6.92602">
        <ele>1154.0023507338</ele>
        <time>2019-06-23T11:40:46Z</time>
      </trkpt>
      <trkpt lat="44.25596" lon="6.92603">
        <ele>1153.4600452679</ele>
        <time>2019-06-23T11:40:58Z</time>
      </trkpt>
      <trkpt lat="44.25596" lon="6.92606">
        <ele>1152.8932229598</ele>
        <time>2019-06-23T11:41:02Z</time>
      </trkpt>
      <trkpt lat="44.25598" lon="6.92605">
        <ele>1152.7056645687</ele>
        <time>2019-06-23T11:41:06Z</time>
      </trkpt>
      <trkpt lat="44.25599" lon="6.92603">
        <ele>1151.3050304875</ele>
        <time>2019-06-23T11:41:10Z</time>
      </trkpt>
      <trkpt lat="44.25601" lon="6.92602">
        <ele>1152.6904193273</ele>
        <time>2019-06-23T11:41:19Z</time>
      </trkpt>
      <trkpt lat="44.25603" lon="6.92603">
        <ele>1151.8939975236</ele>
        <time>2019-06-23T11:41:27Z</time>
      </trkpt>
      <trkpt lat="44.25602" lon="6.92601">
        <ele>1152.3230029538</ele>
        <time>2019-06-23T11:41:42Z</time>
      </trkpt>
      <trkpt lat="44.25601" lon="6.92599">
        <ele>1152.6024346652</ele>
        <time>2019-06-23T11:41:44Z</time>
      </trkpt>
      <trkpt lat="44.256" lon="6.92597">
        <ele>1153.5616845256</ele>
        <time>2019-06-23T11:41:53Z</time>
      </trkpt>
      <trkpt lat="44.25598" lon="6.92595">
        <ele>1154.0273846503</ele>
        <time>2019-06-23T11:41:58Z</time>
      </trkpt>
      <trkpt lat="44.25596" lon="6.92595">
        <ele>1148.2547235542</ele>
        <time>2019-06-23T11:42:09Z</time>
      </trkpt>
      <trkpt lat="44.25595" lon="6.92594">
        <ele>1154.5396205235</ele>
        <time>2019-06-23T11:42:11Z</time>
      </trkpt>
      <trkpt lat="44.25593" lon="6.92593">
        <ele>1154.8356750706</ele>
        <time>2019-06-23T11:42:17Z</time>
      </trkpt>
      <trkpt lat="44.25591" lon="6.92591">
        <ele>1155.1830065354</ele>
        <time>2019-06-23T11:42:20Z</time>
      </trkpt>
      <trkpt lat="44.25592" lon="6.92594">
        <ele>1147.6521581138</ele>
        <time>2019-06-23T11:42:28Z</time>
      </trkpt>
      <trkpt lat="44.25595" lon="6.92596">
        <ele>1154.5934149099</ele>
        <time>2019-06-23T11:42:32Z</time>
      </trkpt>
      <trkpt lat="44.25597" lon="6.92595">
        <ele>1154.1654786094</ele>
        <time>2019-06-23T11:42:37Z</time>
      </trkpt>
      <trkpt lat="44.25599" lon="6.92593">
        <ele>1154.3580870713</ele>
        <time>2019-06-23T11:42:40Z</time>
      </trkpt>
      <trkpt lat="44.256" lon="6.92591">
        <ele>1151.3087510367</ele>
        <time>2019-06-23T11:42:43Z</time>
      </trkpt>
      <trkpt lat="44.25602" lon="6.9259">
        <ele>1154.6415366046</ele>
        <time>2019-06-23T11:42:46Z</time>
      </trkpt>
      <trkpt lat="44.25605" lon="6.92589">
        <ele>1154.7556288031</ele>
        <time>2019-06-23T11:42:49Z</time>
      </trkpt>
      <trkpt lat="44.25603" lon="6.92586">
        <ele>1154.8128333494</ele>
        <time>2019-06-23T11:42:52Z</time>
      </trkpt>
      <trkpt lat="44.25602" lon="6.92584">
        <ele>1155.31656547</ele>
        <time>2019-06-23T11:42:53Z</time>
      </trkpt>
      <trkpt lat="44.25599" lon="6.92585">
        <ele>1155.7214674906</ele>
        <time>2019-06-23T11:42:54Z</time>
      </trkpt>
      <trkpt lat="44.25595" lon="6.92586">
        <ele>1155.7187775059</ele>
        <time>2019-06-23T11:43:07Z</time>
      </trkpt>
      <trkpt lat="44.25593" lon="6.92589">
        <ele>1155.5479121861</ele>
        <time>2019-06-23T11:43:09Z</time>
      </trkpt>
      <trkpt lat="44.25591" lon="6.92593">
        <ele>1155.2972203786</ele>
        <time>2019-06-23T11:43:11Z</time>
      </trkpt>
      <trkpt lat="44.25591" lon="6.92597">
        <ele>1155.0378091636</ele>
        <time>2019-06-23T11:43:13Z</time>
      </trkpt>
      <trkpt lat="44.25588" lon="6.92598">
        <ele>1155.0849139194</ele>
        <time>2019-06-23T11:43:28Z</time>
      </trkpt>
      <trkpt lat="44.25586" lon="6.92599">
        <ele>1155.3847786191</ele>
        <time>2019-06-23T11:43:33Z</time>
      </trkpt>
      <trkpt lat="44.25589" lon="6.92597">
        <ele>1155.3110694499</ele>
        <time>2019-06-23T11:43:42Z</time>
      </trkpt>
      <trkpt lat="44.25586" lon="6.92597">
        <ele>1155.3802674224</ele>
        <time>2019-06-23T11:43:47Z</time>
      </trkpt>
      <trkpt lat="44.25588" lon="6.92598">
        <ele>1155.284435063</ele>
        <time>2019-06-23T11:43:54Z</time>
      </trkpt>
      <trkpt lat="44.2559" lon="6.92599">
        <ele>1155.0631965</ele>
        <time>2019-06-23T11:43:58Z</time>
      </trkpt>
      <trkpt lat="44.25592" lon="6.92599">
        <ele>1154.6489204821</ele>
        <time>2019-06-23T11:44:02Z</time>
      </trkpt>
      <trkpt lat="44.25594" lon="6.92599">
        <ele>1154.3694490261</ele>
        <time>2019-06-23T11:44:07Z</time>
      </trkpt>
      <trkpt lat="44.25596" lon="6.92598">
        <ele>1154.0501607927</ele>
        <time>2019-06-23T11:44:10Z</time>
      </trkpt>
      <trkpt lat="44.25597" lon="6.92598">
        <ele>1153.749066608</ele>
        <time>2019-06-23T11:44:17Z</time>
      </trkpt>
      <trkpt lat="44.25596" lon="6.92599">
        <ele>1153.7658541486</ele>
        <time>2019-06-23T11:44:22Z</time>
      </trkpt>
      <trkpt lat="44.25598" lon="6.92599">
        <ele>1149.6733120922</ele>
        <time>2019-06-23T11:44:26Z</time>
      </trkpt>
      <trkpt lat="44.25599" lon="6.92596">
        <ele>1153.6557754583</ele>
        <time>2019-06-23T11:44:33Z</time>
      </trkpt>
      <trkpt lat="44.25601" lon="6.92595">
        <ele>1153.7748779053</ele>
        <time>2019-06-23T11:44:36Z</time>
      </trkpt>
      <trkpt lat="44.25602" lon="6.92597">
        <ele>1152.8407252774</ele>
        <time>2019-06-23T11:44:40Z</time>
      </trkpt>
      <trkpt lat="44.25605" lon="6.92599">
        <ele>1152.9348396716</ele>
        <time>2019-06-23T11:44:42Z</time>
      </trkpt>
      <trkpt lat="44.25602" lon="6.926">
        <ele>1152.4131655162</ele>
        <time>2019-06-23T11:44:43Z</time>
      </trkpt>
      <trkpt lat="44.256" lon="6.926">
        <ele>1152.8627368578</ele>
        <time>2019-06-23T11:44:46Z</time>
      </trkpt>
      <trkpt lat="44.25596" lon="6.92595">
        <ele>1153.4816441929</ele>
        <time>2019-06-23T11:44:49Z</time>
      </trkpt>
      <trkpt lat="44.25593" lon="6.92594">
        <ele>1154.6217244039</ele>
        <time>2019-06-23T11:44:52Z</time>
      </trkpt>
      <trkpt lat="44.25591" lon="6.92593">
        <ele>1154.9563142136</ele>
        <time>2019-06-23T11:44:54Z</time>
      </trkpt>
      <trkpt lat="44.25589" lon="6.92594">
        <ele>1155.254453433</ele>
        <time>2019-06-23T11:44:59Z</time>
      </trkpt>
      <trkpt lat="44.25587" lon="6.92595">
        <ele>1155.3470029504</ele>
        <time>2019-06-23T11:45:02Z</time>
      </trkpt>
      <trkpt lat="44.25586" lon="6.92596">
        <ele>1155.6148696899</ele>
        <time>2019-06-23T11:45:17Z</time>
      </trkpt>
      <trkpt lat="44.25583" lon="6.92597">
        <ele>1155.8212278687</ele>
        <time>2019-06-23T11:45:20Z</time>
      </trkpt>
      <trkpt lat="44.25582" lon="6.92599">
        <ele>1155.9235508629</ele>
        <time>2019-06-23T11:45:24Z</time>
      </trkpt>
      <trkpt lat="44.2558" lon="6.926">
        <ele>1151.838884234</ele>
        <time>2019-06-23T11:45:31Z</time>
      </trkpt>
      <trkpt lat="44.25583" lon="6.926">
        <ele>1138.9449591564</ele>
        <time>2019-06-23T11:45:38Z</time>
      </trkpt>
      <trkpt lat="44.25586" lon="6.92599">
        <ele>1135.8070365506</ele>
        <time>2019-06-23T11:45:39Z</time>
      </trkpt>
      <trkpt lat="44.25589" lon="6.92598">
        <ele>1153.728543036</ele>
        <time>2019-06-23T11:45:40Z</time>
      </trkpt>
      <trkpt lat="44.25594" lon="6.92598">
        <ele>1154.8525089972</ele>
        <time>2019-06-23T11:45:41Z</time>
      </trkpt>
      <trkpt lat="44.25592" lon="6.92596">
        <ele>1154.5765437646</ele>
        <time>2019-06-23T11:45:46Z</time>
      </trkpt>
      <trkpt lat="44.2559" lon="6.92595">
        <ele>1155.0265609231</ele>
        <time>2019-06-23T11:45:51Z</time>
      </trkpt>
      <trkpt lat="44.25593" lon="6.92596">
        <ele>1154.993519629</ele>
        <time>2019-06-23T11:45:59Z</time>
      </trkpt>
      <trkpt lat="44.25596" lon="6.92599">
        <ele>1154.1123953186</ele>
        <time>2019-06-23T11:46:01Z</time>
      </trkpt>
      <trkpt lat="44.25597" lon="6.926">
        <ele>1153.5456022386</ele>
        <time>2019-06-23T11:46:09Z</time>
      </trkpt>
      <trkpt lat="44.25599" lon="6.92602">
        <ele>1153.0343459128</ele>
        <time>2019-06-23T11:46:14Z</time>
      </trkpt>
      <trkpt lat="44.25602" lon="6.92603">
        <ele>1152.6035213842</ele>
        <time>2019-06-23T11:46:19Z</time>
      </trkpt>
      <trkpt lat="44.25602" lon="6.926">
        <ele>1152.1718427695</ele>
        <time>2019-06-23T11:46:20Z</time>
      </trkpt>
      <trkpt lat="44.25603" lon="6.92597">
        <ele>1152.9239684355</ele>
        <time>2019-06-23T11:46:23Z</time>
      </trkpt>
      <trkpt lat="44.25605" lon="6.92597">
        <ele>1153.0219392052</ele>
        <time>2019-06-23T11:46:28Z</time>
      </trkpt>
      <trkpt lat="44.25607" lon="6.92596">
        <ele>1152.8620909929</ele>
        <time>2019-06-23T11:46:31Z</time>
      </trkpt>
      <trkpt lat="44.25609" lon="6.92596">
        <ele>1152.7530428307</ele>
        <time>2019-06-23T11:46:33Z</time>
      </trkpt>
      <trkpt lat="44.25611" lon="6.92595">
        <ele>1152.6479447807</ele>
        <time>2019-06-23T11:46:35Z</time>
      </trkpt>
      <trkpt lat="44.25612" lon="6.92594">
        <ele>1152.6306340346</ele>
        <time>2019-06-23T11:46:37Z</time>
      </trkpt>
      <trkpt lat="44.25615" lon="6.92595">
        <ele>1152.7150014455</ele>
        <time>2019-06-23T11:46:40Z</time>
      </trkpt>
      <trkpt lat="44.25617" lon="6.92594">
        <ele>1152.6161473363</ele>
        <time>2019-06-23T11:46:43Z</time>
      </trkpt>
      <trkpt lat="44.25619" lon="6.92592">
        <ele>1153.2700965239</ele>
        <time>2019-06-23T11:46:52Z</time>
      </trkpt>
      <trkpt lat="44.2562" lon="6.92593">
        <ele>1153.3073086094</ele>
        <time>2019-06-23T11:46:57Z</time>
      </trkpt>
      <trkpt lat="44.25623" lon="6.92593">
        <ele>1152.7656415173</ele>
        <time>2019-06-23T11:47:01Z</time>
      </trkpt>
      <trkpt lat="44.25626" lon="6.92594">
        <ele>1153.0172113926</ele>
        <time>2019-06-23T11:47:03Z</time>
      </trkpt>
      <trkpt lat="44.25625" lon="6.92595">
        <ele>1148.5135147669</ele>
        <time>2019-06-23T11:47:04Z</time>
      </trkpt>
      <trkpt lat="44.25623" lon="6.92597">
        <ele>1152.2417267568</ele>
        <time>2019-06-23T11:47:10Z</time>
      </trkpt>
      <trkpt lat="44.2562" lon="6.92594">
        <ele>1152.0723820568</ele>
        <time>2019-06-23T11:47:11Z</time>
      </trkpt>
      <trkpt lat="44.25622" lon="6.92592">
        <ele>1153.3426878924</ele>
        <time>2019-06-23T11:47:15Z</time>
      </trkpt>
      <trkpt lat="44.2562" lon="6.9259">
        <ele>1154.0084011778</ele>
        <time>2019-06-23T11:47:19Z</time>
      </trkpt>
      <trkpt lat="44.25618" lon="6.92588">
        <ele>1154.26549104</ele>
        <time>2019-06-23T11:47:21Z</time>
      </trkpt>
      <trkpt lat="44.25617" lon="6.92586">
        <ele>1154.5062875638</ele>
        <time>2019-06-23T11:47:30Z</time>
      </trkpt>
      <trkpt lat="44.25619" lon="6.92587">
        <ele>1154.6702787927</ele>
        <time>2019-06-23T11:47:34Z</time>
      </trkpt>
      <trkpt lat="44.25621" lon="6.92587">
        <ele>1154.7564892104</ele>
        <time>2019-06-23T11:47:37Z</time>
      </trkpt>
      <trkpt lat="44.25623" lon="6.92587">
        <ele>1154.8293854945</ele>
        <time>2019-06-23T11:47:39Z</time>
      </trkpt>
      <trkpt lat="44.25625" lon="6.92586">
        <ele>1155.0819469011</ele>
        <time>2019-06-23T11:47:42Z</time>
      </trkpt>
      <trkpt lat="44.25627" lon="6.92584">
        <ele>1155.4727819781</ele>
        <time>2019-06-23T11:47:47Z</time>
      </trkpt>
      <trkpt lat="44.25628" lon="6.92581">
        <ele>1155.9167646139</ele>
        <time>2019-06-23T11:47:50Z</time>
      </trkpt>
      <trkpt lat="44.25629" lon="6.92579">
        <ele>1155.9235542997</ele>
        <time>2019-06-23T11:47:53Z</time>
      </trkpt>
      <trkpt lat="44.25627" lon="6.92577">
        <ele>1155.917778596</ele>
        <time>2019-06-23T11:48:08Z</time>
      </trkpt>
      <trkpt lat="44.25624" lon="6.92576">
        <ele>1155.9235610384</ele>
        <time>2019-06-23T11:48:13Z</time>
      </trkpt>
      <trkpt lat="44.25624" lon="6.92573">
        <ele>1155.9235610904</ele>
        <time>2019-06-23T11:48:14Z</time>
      </trkpt>
      <trkpt lat="44.25623" lon="6.9257">
        <ele>1155.9235610956</ele>
        <time>2019-06-23T11:48:15Z</time>
      </trkpt>
      <trkpt lat="44.25623" lon="6.92567">
        <ele>1155.9235101476</ele>
        <time>2019-06-23T11:48:23Z</time>
      </trkpt>
      <trkpt lat="44.25623" lon="6.92565">
        <ele>1155.9235610452</ele>
        <time>2019-06-23T11:48:26Z</time>
      </trkpt>
      <trkpt lat="44.25624" lon="6.92562">
        <ele>1155.9235610957</ele>
        <time>2019-06-23T11:48:28Z</time>
      </trkpt>
      <trkpt lat="44.25623" lon="6.9256">
        <ele>1155.9235610962</ele>
        <time>2019-06-23T11:48:32Z</time>
      </trkpt>
      <trkpt lat="44.25623" lon="6.92557">
        <ele>1155.9235610962</ele>
        <time>2019-06-23T11:48:36Z</time>
      </trkpt>
      <trkpt lat="44.25624" lon="6.92554">
        <ele>1155.9235610962</ele>
        <time>2019-06-23T11:48:38Z</time>
      </trkpt>
      <trkpt lat="44.25625" lon="6.92551">
        <ele>1155.9235610962</ele>
        <time>2019-06-23T11:48:40Z</time>
      </trkpt>
      <trkpt lat="44.25627" lon="6.92547">
        <ele>1155.9235610962</ele>
        <time>2019-06-23T11:48:42Z</time>
      </trkpt>
      <trkpt lat="44.25629" lon="6.92544">
        <ele>1155.9235610962</ele>
        <time>2019-06-23T11:48:44Z</time>
      </trkpt>
      <trkpt lat="44.2563" lon="6.92542">
        <ele>1150.6841507903</ele>
        <time>2019-06-23T11:48:49Z</time>
      </trkpt>
      <trkpt lat="44.25628" lon="6.92547">
        <ele>1155.8672142214</ele>
        <time>2019-06-23T11:48:53Z</time>
      </trkpt>
      <trkpt lat="44.25625" lon="6.92551">
        <ele>1155.9235605327</ele>
        <time>2019-06-23T11:48:58Z</time>
      </trkpt>
      <trkpt lat="44.25628" lon="6.92547">
        <ele>1146.6298039375</ele>
        <time>2019-06-23T11:49:00Z</time>
      </trkpt>
      <trkpt lat="44.25631" lon="6.92546">
        <ele>1155.9226317205</ele>
        <time>2019-06-23T11:49:04Z</time>
      </trkpt>
      <trkpt lat="44.25633" lon="6.92542">
        <ele>1155.9235601668</ele>
        <time>2019-06-23T11:49:07Z</time>
      </trkpt>
      <trkpt lat="44.25634" lon="6.92538">
        <ele>1155.3777478904</ele>
        <time>2019-06-23T11:49:09Z</time>
      </trkpt>
      <trkpt lat="44.25636" lon="6.92534">
        <ele>1155.9181029641</ele>
        <time>2019-06-23T11:49:11Z</time>
      </trkpt>
      <trkpt lat="44.25638" lon="6.92531">
        <ele>1155.9235065149</ele>
        <time>2019-06-23T11:49:13Z</time>
      </trkpt>
      <trkpt lat="44.2564" lon="6.92527">
        <ele>1155.9235605504</ele>
        <time>2019-06-23T11:49:15Z</time>
      </trkpt>
      <trkpt lat="44.25642" lon="6.92524">
        <ele>1155.9235610907</ele>
        <time>2019-06-23T11:49:17Z</time>
      </trkpt>
      <trkpt lat="44.25644" lon="6.92522">
        <ele>1155.9235610961</ele>
        <time>2019-06-23T11:49:19Z</time>
      </trkpt>
      <trkpt lat="44.25644" lon="6.92518">
        <ele>1155.9235610962</ele>
        <time>2019-06-23T11:49:22Z</time>
      </trkpt>
      <trkpt lat="44.25646" lon="6.92514">
        <ele>1150.5319765605</ele>
        <time>2019-06-23T11:49:24Z</time>
      </trkpt>
      <trkpt lat="44.25648" lon="6.9251">
        <ele>1149.9277221696</ele>
        <time>2019-06-23T11:49:26Z</time>
      </trkpt>
      <trkpt lat="44.25649" lon="6.92507">
        <ele>1145.5327043893</ele>
        <time>2019-06-23T11:49:27Z</time>
      </trkpt>
      <trkpt lat="44.2565" lon="6.92502">
        <ele>1154.8844754255</ele>
        <time>2019-06-23T11:49:28Z</time>
      </trkpt>
      <trkpt lat="44.25651" lon="6.925">
        <ele>1155.8196525291</ele>
        <time>2019-06-23T11:49:29Z</time>
      </trkpt>
      <trkpt lat="44.25653" lon="6.92496">
        <ele>1145.9799888503</ele>
        <time>2019-06-23T11:49:31Z</time>
      </trkpt>
      <trkpt lat="44.25656" lon="6.92491">
        <ele>1139.7254220118</ele>
        <time>2019-06-23T11:49:33Z</time>
      </trkpt>
      <trkpt lat="44.25658" lon="6.92488">
        <ele>1137.5036745673</ele>
        <time>2019-06-23T11:49:34Z</time>
      </trkpt>
      <trkpt lat="44.25659" lon="6.92486">
        <ele>1135.7212442066</ele>
        <time>2019-06-23T11:49:35Z</time>
      </trkpt>
      <trkpt lat="44.25661" lon="6.92482">
        <ele>1133.1329892085</ele>
        <time>2019-06-23T11:49:37Z</time>
      </trkpt>
      <trkpt lat="44.25663" lon="6.92479">
        <ele>1128.4020842138</ele>
        <time>2019-06-23T11:49:38Z</time>
      </trkpt>
      <trkpt lat="44.25665" lon="6.92475">
        <ele>1128.2638692331</ele>
        <time>2019-06-23T11:49:39Z</time>
      </trkpt>
      <trkpt lat="44.25666" lon="6.92472">
        <ele>1128.1943567894</ele>
        <time>2019-06-23T11:49:40Z</time>
      </trkpt>
      <trkpt lat="44.25667" lon="6.92469">
        <ele>1128.1621448836</ele>
        <time>2019-06-23T11:49:41Z</time>
      </trkpt>
      <trkpt lat="44.25668" lon="6.92467">
        <ele>1128.0548296685</ele>
        <time>2019-06-23T11:49:42Z</time>
      </trkpt>
      <trkpt lat="44.2567" lon="6.92463">
        <ele>1127.9245941036</ele>
        <time>2019-06-23T11:49:44Z</time>
      </trkpt>
      <trkpt lat="44.25671" lon="6.92459">
        <ele>1127.749791707</ele>
        <time>2019-06-23T11:49:47Z</time>
      </trkpt>
      <trkpt lat="44.25673" lon="6.92455">
        <ele>1127.6287417834</ele>
        <time>2019-06-23T11:49:49Z</time>
      </trkpt>
      <trkpt lat="44.25672" lon="6.92458">
        <ele>1127.4312708364</ele>
        <time>2019-06-23T11:49:51Z</time>
      </trkpt>
      <trkpt lat="44.25674" lon="6.92455">
        <ele>1128.0542304655</ele>
        <time>2019-06-23T11:49:56Z</time>
      </trkpt>
      <trkpt lat="44.25672" lon="6.92459">
        <ele>1128.5559743909</ele>
        <time>2019-06-23T11:50:01Z</time>
      </trkpt>
      <trkpt lat="44.25674" lon="6.92455">
        <ele>1153.1520841349</ele>
        <time>2019-06-23T11:50:02Z</time>
      </trkpt>
      <trkpt lat="44.25677" lon="6.92452">
        <ele>1155.3675244573</ele>
        <time>2019-06-23T11:50:05Z</time>
      </trkpt>
      <trkpt lat="44.25679" lon="6.92455">
        <ele>1150.8120802074</ele>
        <time>2019-06-23T11:50:07Z</time>
      </trkpt>
      <trkpt lat="44.25682" lon="6.92455">
        <ele>1155.4124130073</ele>
        <time>2019-06-23T11:50:08Z</time>
      </trkpt>
      <trkpt lat="44.25686" lon="6.92454">
        <ele>1155.8724462873</ele>
        <time>2019-06-23T11:50:09Z</time>
      </trkpt>
      <trkpt lat="44.25688" lon="6.92453">
        <ele>1155.9230499481</ele>
        <time>2019-06-23T11:50:11Z</time>
      </trkpt>
      <trkpt lat="44.25689" lon="6.9245">
        <ele>1145.6408017455</ele>
        <time>2019-06-23T11:50:15Z</time>
      </trkpt>
      <trkpt lat="44.25691" lon="6.92448">
        <ele>1155.9060203034</ele>
        <time>2019-06-23T11:50:20Z</time>
      </trkpt>
      <trkpt lat="44.25689" lon="6.92453">
        <ele>1140.7028626695</ele>
        <time>2019-06-23T11:50:24Z</time>
      </trkpt>
      <trkpt lat="44.2569" lon="6.9245">
        <ele>1155.7713541119</ele>
        <time>2019-06-23T11:50:26Z</time>
      </trkpt>
      <trkpt lat="44.25688" lon="6.9245">
        <ele>1155.9220390263</ele>
        <time>2019-06-23T11:50:28Z</time>
      </trkpt>
      <trkpt lat="44.25686" lon="6.92457">
        <ele>1155.3349338022</ele>
        <time>2019-06-23T11:50:36Z</time>
      </trkpt>
      <trkpt lat="44.25688" lon="6.92458">
        <ele>1155.9235610903</ele>
        <time>2019-06-23T11:50:44Z</time>
      </trkpt>
      <trkpt lat="44.25692" lon="6.92458">
        <ele>1155.9235610961</ele>
        <time>2019-06-23T11:50:46Z</time>
      </trkpt>
      <trkpt lat="44.25694" lon="6.92458">
        <ele>1155.9235610962</ele>
        <time>2019-06-23T11:50:47Z</time>
      </trkpt>
      <trkpt lat="44.25697" lon="6.92459">
        <ele>1155.9235610962</ele>
        <time>2019-06-23T11:50:48Z</time>
      </trkpt>
      <trkpt lat="44.25695" lon="6.92461">
        <ele>1138.0037604741</ele>
        <time>2019-06-23T11:51:03Z</time>
      </trkpt>
      <trkpt lat="44.25693" lon="6.92463">
        <ele>1134.3988907839</ele>
        <time>2019-06-23T11:51:04Z</time>
      </trkpt>
      <trkpt lat="44.25692" lon="6.92464">
        <ele>1155.0136326918</ele>
        <time>2019-06-23T11:51:07Z</time>
      </trkpt>
      <trkpt lat="44.25694" lon="6.92466">
        <ele>1155.9235610052</ele>
        <time>2019-06-23T11:51:14Z</time>
      </trkpt>
      <trkpt lat="44.25694" lon="6.92468">
        <ele>1155.9235610953</ele>
        <time>2019-06-23T11:51:16Z</time>
      </trkpt>
      <trkpt lat="44.25696" lon="6.92468">
        <ele>1155.9235610962</ele>
        <time>2019-06-23T11:51:27Z</time>
      </trkpt>
      <trkpt lat="44.25694" lon="6.92469">
        <ele>1155.9235610962</ele>
        <time>2019-06-23T11:51:30Z</time>
      </trkpt>
      <trkpt lat="44.25692" lon="6.9247">
        <ele>1155.9235610962</ele>
        <time>2019-06-23T11:51:32Z</time>
      </trkpt>
      <trkpt lat="44.25687" lon="6.9247">
        <ele>1155.9235610962</ele>
        <time>2019-06-23T11:51:39Z</time>
      </trkpt>
      <trkpt lat="44.25686" lon="6.92467">
        <ele>1155.9235610962</ele>
        <time>2019-06-23T11:51:40Z</time>
      </trkpt>
      <trkpt lat="44.25685" lon="6.92464">
        <ele>1155.9235610962</ele>
        <time>2019-06-23T11:51:42Z</time>
      </trkpt>
      <trkpt lat="44.25683" lon="6.92462">
        <ele>1155.9235610962</ele>
        <time>2019-06-23T11:51:44Z</time>
      </trkpt>
      <trkpt lat="44.25681" lon="6.9246">
        <ele>1155.9235610962</ele>
        <time>2019-06-23T11:51:47Z</time>
      </trkpt>
      <trkpt lat="44.25679" lon="6.92461">
        <ele>1155.9235610962</ele>
        <time>2019-06-23T11:51:49Z</time>
      </trkpt>
      <trkpt lat="44.25677" lon="6.92464">
        <ele>1155.9235610962</ele>
        <time>2019-06-23T11:51:53Z</time>
      </trkpt>
      <trkpt lat="44.25676" lon="6.92465">
        <ele>1155.9235610962</ele>
        <time>2019-06-23T11:51:55Z</time>
      </trkpt>
      <trkpt lat="44.25674" lon="6.92467">
        <ele>1155.9235610962</ele>
        <time>2019-06-23T11:51:56Z</time>
      </trkpt>
      <trkpt lat="44.25668" lon="6.92476">
        <ele>1155.9235610962</ele>
        <time>2019-06-23T11:51:57Z</time>
      </trkpt>
      <trkpt lat="44.25666" lon="6.92477">
        <ele>1155.9424575806</ele>
        <time>2019-06-23T11:51:59Z</time>
      </trkpt>
      <trkpt lat="44.25663" lon="6.92478">
        <ele>1156.3371106567</ele>
        <time>2019-06-23T11:52:01Z</time>
      </trkpt>
      <trkpt lat="44.25661" lon="6.92477">
        <ele>1157.0501477637</ele>
        <time>2019-06-23T11:52:03Z</time>
      </trkpt>
      <trkpt lat="44.25657" lon="6.92478">
        <ele>1157.6928728149</ele>
        <time>2019-06-23T11:52:07Z</time>
      </trkpt>
      <trkpt lat="44.25654" lon="6.9248">
        <ele>1158.1762578755</ele>
        <time>2019-06-23T11:52:09Z</time>
      </trkpt>
      <trkpt lat="44.25651" lon="6.92482">
        <ele>1158.5242946413</ele>
        <time>2019-06-23T11:52:10Z</time>
      </trkpt>
      <trkpt lat="44.25648" lon="6.92483">
        <ele>1158.9084635523</ele>
        <time>2019-06-23T11:52:11Z</time>
      </trkpt>
      <trkpt lat="44.25645" lon="6.92485">
        <ele>1159.2198906973</ele>
        <time>2019-06-23T11:52:12Z</time>
      </trkpt>
      <trkpt lat="44.25642" lon="6.92486">
        <ele>1159.3791339977</ele>
        <time>2019-06-23T11:52:13Z</time>
      </trkpt>
      <trkpt lat="44.25638" lon="6.92487">
        <ele>1159.5636984645</ele>
        <time>2019-06-23T11:52:14Z</time>
      </trkpt>
      <trkpt lat="44.25635" lon="6.9249">
        <ele>1159.7421158486</ele>
        <time>2019-06-23T11:52:15Z</time>
      </trkpt>
      <trkpt lat="44.25633" lon="6.92491">
        <ele>1159.6960171574</ele>
        <time>2019-06-23T11:52:16Z</time>
      </trkpt>
      <trkpt lat="44.25629" lon="6.92493">
        <ele>1159.8250010382</ele>
        <time>2019-06-23T11:52:17Z</time>
      </trkpt>
      <trkpt lat="44.25626" lon="6.92495">
        <ele>1160.3414072827</ele>
        <time>2019-06-23T11:52:19Z</time>
      </trkpt>
      <trkpt lat="44.25623" lon="6.92498">
        <ele>1160.4316054805</ele>
        <time>2019-06-23T11:52:20Z</time>
      </trkpt>
      <trkpt lat="44.25622" lon="6.92502">
        <ele>1160.7444533076</ele>
        <time>2019-06-23T11:52:22Z</time>
      </trkpt>
      <trkpt lat="44.2562" lon="6.92505">
        <ele>1160.5660436999</ele>
        <time>2019-06-23T11:52:24Z</time>
      </trkpt>
      <trkpt lat="44.25618" lon="6.92508">
        <ele>1160.3641106781</ele>
        <time>2019-06-23T11:52:26Z</time>
      </trkpt>
      <trkpt lat="44.25617" lon="6.9251">
        <ele>1160.3248476955</ele>
        <time>2019-06-23T11:52:28Z</time>
      </trkpt>
      <trkpt lat="44.25615" lon="6.92513">
        <ele>1159.8784760618</ele>
        <time>2019-06-23T11:52:30Z</time>
      </trkpt>
      <trkpt lat="44.25614" lon="6.92515">
        <ele>1159.5205052654</ele>
        <time>2019-06-23T11:52:32Z</time>
      </trkpt>
      <trkpt lat="44.25613" lon="6.92517">
        <ele>1159.3665685014</ele>
        <time>2019-06-23T11:52:33Z</time>
      </trkpt>
      <trkpt lat="44.25612" lon="6.92521">
        <ele>1158.4454826253</ele>
        <time>2019-06-23T11:52:35Z</time>
      </trkpt>
      <trkpt lat="44.25609" lon="6.92522">
        <ele>1157.7927695693</ele>
        <time>2019-06-23T11:52:37Z</time>
      </trkpt>
      <trkpt lat="44.25609" lon="6.92525">
        <ele>1157.4178708567</ele>
        <time>2019-06-23T11:52:39Z</time>
      </trkpt>
      <trkpt lat="44.25609" lon="6.92528">
        <ele>1156.3567317329</ele>
        <time>2019-06-23T11:52:41Z</time>
      </trkpt>
      <trkpt lat="44.25605" lon="6.92531">
        <ele>1155.9278928026</ele>
        <time>2019-06-23T11:52:43Z</time>
      </trkpt>
      <trkpt lat="44.25603" lon="6.92532">
        <ele>1155.9239942668</ele>
        <time>2019-06-23T11:52:44Z</time>
      </trkpt>
      <trkpt lat="44.25601" lon="6.92535">
        <ele>1155.9235654279</ele>
        <time>2019-06-23T11:52:46Z</time>
      </trkpt>
      <trkpt lat="44.256" lon="6.92538">
        <ele>1155.9235611005</ele>
        <time>2019-06-23T11:52:49Z</time>
      </trkpt>
      <trkpt lat="44.25601" lon="6.92542">
        <ele>1155.9235610962</ele>
        <time>2019-06-23T11:52:51Z</time>
      </trkpt>
      <trkpt lat="44.25599" lon="6.92544">
        <ele>1155.9235610962</ele>
        <time>2019-06-23T11:52:54Z</time>
      </trkpt>
      <trkpt lat="44.25597" lon="6.92544">
        <ele>1155.9235610962</ele>
        <time>2019-06-23T11:52:58Z</time>
      </trkpt>
      <trkpt lat="44.25596" lon="6.92546">
        <ele>1155.9235610962</ele>
        <time>2019-06-23T11:53:01Z</time>
      </trkpt>
      <trkpt lat="44.25595" lon="6.92542">
        <ele>1155.9235610962</ele>
        <time>2019-06-23T11:53:10Z</time>
      </trkpt>
      <trkpt lat="44.25597" lon="6.92541">
        <ele>1155.9235610962</ele>
        <time>2019-06-23T11:53:14Z</time>
      </trkpt>
      <trkpt lat="44.25599" lon="6.92541">
        <ele>1155.9235610962</ele>
        <time>2019-06-23T11:53:16Z</time>
      </trkpt>
      <trkpt lat="44.256" lon="6.9254">
        <ele>1155.9235610962</ele>
        <time>2019-06-23T11:53:17Z</time>
      </trkpt>
      <trkpt lat="44.25604" lon="6.9254">
        <ele>1155.9235610962</ele>
        <time>2019-06-23T11:53:19Z</time>
      </trkpt>
      <trkpt lat="44.25606" lon="6.9254">
        <ele>1155.9235610962</ele>
        <time>2019-06-23T11:53:21Z</time>
      </trkpt>
      <trkpt lat="44.25608" lon="6.9254">
        <ele>1155.9235610962</ele>
        <time>2019-06-23T11:53:23Z</time>
      </trkpt>
      <trkpt lat="44.2561" lon="6.9254">
        <ele>1155.9235610962</ele>
        <time>2019-06-23T11:53:25Z</time>
      </trkpt>
      <trkpt lat="44.25614" lon="6.92541">
        <ele>1155.9235610962</ele>
        <time>2019-06-23T11:53:27Z</time>
      </trkpt>
      <trkpt lat="44.25616" lon="6.9254">
        <ele>1155.9235610962</ele>
        <time>2019-06-23T11:53:29Z</time>
      </trkpt>
      <trkpt lat="44.25619" lon="6.9254">
        <ele>1155.9235610962</ele>
        <time>2019-06-23T11:53:32Z</time>
      </trkpt>
      <trkpt lat="44.25622" lon="6.9254">
        <ele>1155.9235610962</ele>
        <time>2019-06-23T11:53:34Z</time>
      </trkpt>
      <trkpt lat="44.25624" lon="6.9254">
        <ele>1155.9235610962</ele>
        <time>2019-06-23T11:53:38Z</time>
      </trkpt>
      <trkpt lat="44.25626" lon="6.92539">
        <ele>1155.9235610962</ele>
        <time>2019-06-23T11:53:40Z</time>
      </trkpt>
      <trkpt lat="44.25628" lon="6.92536">
        <ele>1155.9235610962</ele>
        <time>2019-06-23T11:53:42Z</time>
      </trkpt>
      <trkpt lat="44.25628" lon="6.92533">
        <ele>1155.9235610962</ele>
        <time>2019-06-23T11:53:45Z</time>
      </trkpt>
      <trkpt lat="44.2563" lon="6.92528">
        <ele>1155.9235610962</ele>
        <time>2019-06-23T11:53:47Z</time>
      </trkpt>
      <trkpt lat="44.25631" lon="6.92526">
        <ele>1156.0046401978</ele>
        <time>2019-06-23T11:53:49Z</time>
      </trkpt>
      <trkpt lat="44.25632" lon="6.92523">
        <ele>1156.1933713403</ele>
        <time>2019-06-23T11:53:53Z</time>
      </trkpt>
      <trkpt lat="44.25634" lon="6.92522">
        <ele>1156.2366962629</ele>
        <time>2019-06-23T11:53:56Z</time>
      </trkpt>
      <trkpt lat="44.25636" lon="6.9252">
        <ele>1156.21119501</ele>
        <time>2019-06-23T11:54:01Z</time>
      </trkpt>
      <trkpt lat="44.25637" lon="6.92519">
        <ele>1156.0695669918</ele>
        <time>2019-06-23T11:54:04Z</time>
      </trkpt>
      <trkpt lat="44.25639" lon="6.92518">
        <ele>1155.9834959874</ele>
        <time>2019-06-23T11:54:10Z</time>
      </trkpt>
      <trkpt lat="44.25642" lon="6.92517">
        <ele>1155.9241604451</ele>
        <time>2019-06-23T11:54:12Z</time>
      </trkpt>
      <trkpt lat="44.25644" lon="6.92515">
        <ele>1155.9236210311</ele>
        <time>2019-06-23T11:54:13Z</time>
      </trkpt>
      <trkpt lat="44.25646" lon="6.92512">
        <ele>1155.9235670897</ele>
        <time>2019-06-23T11:54:14Z</time>
      </trkpt>
      <trkpt lat="44.25648" lon="6.92511">
        <ele>1155.9235616955</ele>
        <time>2019-06-23T11:54:15Z</time>
      </trkpt>
      <trkpt lat="44.2565" lon="6.92509">
        <ele>1155.9235611561</ele>
        <time>2019-06-23T11:54:16Z</time>
      </trkpt>
      <trkpt lat="44.25652" lon="6.92506">
        <ele>1155.9235610968</ele>
        <time>2019-06-23T11:54:18Z</time>
      </trkpt>
      <trkpt lat="44.25653" lon="6.92505">
        <ele>1155.9235610963</ele>
        <time>2019-06-23T11:54:19Z</time>
      </trkpt>
      <trkpt lat="44.25655" lon="6.92503">
        <ele>1155.9235610962</ele>
        <time>2019-06-23T11:54:21Z</time>
      </trkpt>
      <trkpt lat="44.25657" lon="6.925">
        <ele>1155.9235610962</ele>
        <time>2019-06-23T11:54:23Z</time>
      </trkpt>
      <trkpt lat="44.25659" lon="6.92498">
        <ele>1155.952015686</ele>
        <time>2019-06-23T11:54:24Z</time>
      </trkpt>
      <trkpt lat="44.2566" lon="6.92496">
        <ele>1156.1538883667</ele>
        <time>2019-06-23T11:54:26Z</time>
      </trkpt>
      <trkpt lat="44.25662" lon="6.92495">
        <ele>1156.1618651539</ele>
        <time>2019-06-23T11:54:29Z</time>
      </trkpt>
      <trkpt lat="44.25664" lon="6.92494">
        <ele>1156.1427464622</ele>
        <time>2019-06-23T11:54:33Z</time>
      </trkpt>
      <trkpt lat="44.25664" lon="6.92491">
        <ele>1156.155008431</ele>
        <time>2019-06-23T11:54:36Z</time>
      </trkpt>
      <trkpt lat="44.25666" lon="6.92488">
        <ele>1156.1089407551</ele>
        <time>2019-06-23T11:54:38Z</time>
      </trkpt>
      <trkpt lat="44.25668" lon="6.92485">
        <ele>1155.9328855959</ele>
        <time>2019-06-23T11:54:40Z</time>
      </trkpt>
      <trkpt lat="44.2567" lon="6.92483">
        <ele>1155.9236543412</ele>
        <time>2019-06-23T11:54:42Z</time>
      </trkpt>
      <trkpt lat="44.25671" lon="6.92479">
        <ele>1155.9235620286</ele>
        <time>2019-06-23T11:54:44Z</time>
      </trkpt>
      <trkpt lat="44.25672" lon="6.92476">
        <ele>1155.9235611055</ele>
        <time>2019-06-23T11:54:46Z</time>
      </trkpt>
      <trkpt lat="44.25672" lon="6.92472">
        <ele>1155.9235610963</ele>
        <time>2019-06-23T11:54:48Z</time>
      </trkpt>
      <trkpt lat="44.25672" lon="6.92469">
        <ele>1155.9235610962</ele>
        <time>2019-06-23T11:54:50Z</time>
      </trkpt>
      <trkpt lat="44.25673" lon="6.92465">
        <ele>1155.9235610962</ele>
        <time>2019-06-23T11:54:52Z</time>
      </trkpt>
      <trkpt lat="44.25675" lon="6.92463">
        <ele>1155.9235610962</ele>
        <time>2019-06-23T11:54:53Z</time>
      </trkpt>
      <trkpt lat="44.25675" lon="6.9246">
        <ele>1155.9235610962</ele>
        <time>2019-06-23T11:54:56Z</time>
      </trkpt>
      <trkpt lat="44.25677" lon="6.92458">
        <ele>1155.9235610962</ele>
        <time>2019-06-23T11:54:58Z</time>
      </trkpt>
      <trkpt lat="44.25677" lon="6.92455">
        <ele>1155.9235610962</ele>
        <time>2019-06-23T11:55:00Z</time>
      </trkpt>
      <trkpt lat="44.25677" lon="6.92451">
        <ele>1155.9235610962</ele>
        <time>2019-06-23T11:55:02Z</time>
      </trkpt>
      <trkpt lat="44.25677" lon="6.92447">
        <ele>1155.9235610962</ele>
        <time>2019-06-23T11:55:04Z</time>
      </trkpt>
      <trkpt lat="44.25676" lon="6.92444">
        <ele>1155.9235610962</ele>
        <time>2019-06-23T11:55:05Z</time>
      </trkpt>
      <trkpt lat="44.25676" lon="6.9244">
        <ele>1155.9235610962</ele>
        <time>2019-06-23T11:55:07Z</time>
      </trkpt>
      <trkpt lat="44.25676" lon="6.92437">
        <ele>1155.9235610962</ele>
        <time>2019-06-23T11:55:09Z</time>
      </trkpt>
      <trkpt lat="44.25677" lon="6.92434">
        <ele>1155.9235610962</ele>
        <time>2019-06-23T11:55:11Z</time>
      </trkpt>
      <trkpt lat="44.25678" lon="6.9243">
        <ele>1155.9235610962</ele>
        <time>2019-06-23T11:55:13Z</time>
      </trkpt>
      <trkpt lat="44.25679" lon="6.92428">
        <ele>1155.9235610962</ele>
        <time>2019-06-23T11:55:15Z</time>
      </trkpt>
      <trkpt lat="44.25679" lon="6.92425">
        <ele>1155.9235610962</ele>
        <time>2019-06-23T11:55:17Z</time>
      </trkpt>
      <trkpt lat="44.25679" lon="6.92421">
        <ele>1155.9235610962</ele>
        <time>2019-06-23T11:55:19Z</time>
      </trkpt>
      <trkpt lat="44.25679" lon="6.92416">
        <ele>1155.9235610962</ele>
        <time>2019-06-23T11:55:21Z</time>
      </trkpt>
      <trkpt lat="44.2568" lon="6.92412">
        <ele>1156.2282009888</ele>
        <time>2019-06-23T11:55:23Z</time>
      </trkpt>
      <trkpt lat="44.2568" lon="6.92409">
        <ele>1156.8392527588</ele>
        <time>2019-06-23T11:55:25Z</time>
      </trkpt>
      <trkpt lat="44.2568" lon="6.92405">
        <ele>1157.4708039503</ele>
        <time>2019-06-23T11:55:27Z</time>
      </trkpt>
      <trkpt lat="44.2568" lon="6.92401">
        <ele>1157.9435550091</ele>
        <time>2019-06-23T11:55:29Z</time>
      </trkpt>
      <trkpt lat="44.2568" lon="6.92398">
        <ele>1158.4356689943</ele>
        <time>2019-06-23T11:55:31Z</time>
      </trkpt>
      <trkpt lat="44.2568" lon="6.92396">
        <ele>1158.7360145618</ele>
        <time>2019-06-23T11:55:32Z</time>
      </trkpt>
      <trkpt lat="44.2568" lon="6.92393">
        <ele>1159.0859709935</ele>
        <time>2019-06-23T11:55:33Z</time>
      </trkpt>
      <trkpt lat="44.25679" lon="6.9239">
        <ele>1159.8456087791</ele>
        <time>2019-06-23T11:55:35Z</time>
      </trkpt>
      <trkpt lat="44.25679" lon="6.92387">
        <ele>1160.3709138972</ele>
        <time>2019-06-23T11:55:37Z</time>
      </trkpt>
      <trkpt lat="44.25678" lon="6.92384">
        <ele>1160.6280614797</ele>
        <time>2019-06-23T11:55:39Z</time>
      </trkpt>
      <trkpt lat="44.25677" lon="6.9238">
        <ele>1160.8205755824</ele>
        <time>2019-06-23T11:55:41Z</time>
      </trkpt>
      <trkpt lat="44.25676" lon="6.92378">
        <ele>1161.0380964266</ele>
        <time>2019-06-23T11:55:43Z</time>
      </trkpt>
      <trkpt lat="44.25675" lon="6.92375">
        <ele>1161.457389555</ele>
        <time>2019-06-23T11:55:45Z</time>
      </trkpt>
      <trkpt lat="44.25673" lon="6.92372">
        <ele>1162.0398158719</ele>
        <time>2019-06-23T11:55:48Z</time>
      </trkpt>
      <trkpt lat="44.25672" lon="6.92369">
        <ele>1162.440234724</ele>
        <time>2019-06-23T11:55:51Z</time>
      </trkpt>
      <trkpt lat="44.2567" lon="6.92366">
        <ele>1162.7537351567</ele>
        <time>2019-06-23T11:55:53Z</time>
      </trkpt>
      <trkpt lat="44.25669" lon="6.92363">
        <ele>1163.190866612</ele>
        <time>2019-06-23T11:55:56Z</time>
      </trkpt>
      <trkpt lat="44.25668" lon="6.9236">
        <ele>1163.4094568076</ele>
        <time>2019-06-23T11:55:58Z</time>
      </trkpt>
      <trkpt lat="44.25669" lon="6.92356">
        <ele>1163.481493281</ele>
        <time>2019-06-23T11:56:01Z</time>
      </trkpt>
      <trkpt lat="44.25669" lon="6.92353">
        <ele>1163.2900522833</ele>
        <time>2019-06-23T11:56:03Z</time>
      </trkpt>
      <trkpt lat="44.25669" lon="6.92351">
        <ele>1163.2930959571</ele>
        <time>2019-06-23T11:56:04Z</time>
      </trkpt>
      <trkpt lat="44.25669" lon="6.92347">
        <ele>1163.419652685</ele>
        <time>2019-06-23T11:56:06Z</time>
      </trkpt>
      <trkpt lat="44.25669" lon="6.92344">
        <ele>1163.457535684</ele>
        <time>2019-06-23T11:56:08Z</time>
      </trkpt>
      <trkpt lat="44.25669" lon="6.9234">
        <ele>1163.247881791</ele>
        <time>2019-06-23T11:56:12Z</time>
      </trkpt>
      <trkpt lat="44.25669" lon="6.92336">
        <ele>1163.3196283368</ele>
        <time>2019-06-23T11:56:15Z</time>
      </trkpt>
      <trkpt lat="44.2567" lon="6.92334">
        <ele>1163.2679551182</ele>
        <time>2019-06-23T11:56:17Z</time>
      </trkpt>
      <trkpt lat="44.2567" lon="6.9233">
        <ele>1163.0904822543</ele>
        <time>2019-06-23T11:56:21Z</time>
      </trkpt>
      <trkpt lat="44.2567" lon="6.92326">
        <ele>1163.1430342629</ele>
        <time>2019-06-23T11:56:23Z</time>
      </trkpt>
      <trkpt lat="44.2567" lon="6.92323">
        <ele>1163.0562953786</ele>
        <time>2019-06-23T11:56:25Z</time>
      </trkpt>
      <trkpt lat="44.2567" lon="6.9232">
        <ele>1163.0097138785</ele>
        <time>2019-06-23T11:56:27Z</time>
      </trkpt>
      <trkpt lat="44.25671" lon="6.92317">
        <ele>1162.9868579267</ele>
        <time>2019-06-23T11:56:29Z</time>
      </trkpt>
      <trkpt lat="44.25671" lon="6.92314">
        <ele>1162.8002832624</ele>
        <time>2019-06-23T11:56:34Z</time>
      </trkpt>
      <trkpt lat="44.25671" lon="6.92312">
        <ele>1162.9209769995</ele>
        <time>2019-06-23T11:56:36Z</time>
      </trkpt>
      <trkpt lat="44.2567" lon="6.92309">
        <ele>1162.9051990736</ele>
        <time>2019-06-23T11:56:38Z</time>
      </trkpt>
      <trkpt lat="44.2567" lon="6.92306">
        <ele>1163.0989499857</ele>
        <time>2019-06-23T11:56:40Z</time>
      </trkpt>
      <trkpt lat="44.25669" lon="6.92302">
        <ele>1163.1889563337</ele>
        <time>2019-06-23T11:56:43Z</time>
      </trkpt>
      <trkpt lat="44.25669" lon="6.92299">
        <ele>1163.4760696555</ele>
        <time>2019-06-23T11:56:46Z</time>
      </trkpt>
      <trkpt lat="44.25669" lon="6.92296">
        <ele>1163.5517033693</ele>
        <time>2019-06-23T11:56:48Z</time>
      </trkpt>
      <trkpt lat="44.2567" lon="6.92293">
        <ele>1163.5875610248</ele>
        <time>2019-06-23T11:56:50Z</time>
      </trkpt>
      <trkpt lat="44.2567" lon="6.92289">
        <ele>1163.5424032439</ele>
        <time>2019-06-23T11:56:52Z</time>
      </trkpt>
      <trkpt lat="44.25671" lon="6.92286">
        <ele>1163.5747898009</ele>
        <time>2019-06-23T11:56:54Z</time>
      </trkpt>
      <trkpt lat="44.25671" lon="6.92282">
        <ele>1163.7376124457</ele>
        <time>2019-06-23T11:56:56Z</time>
      </trkpt>
      <trkpt lat="44.25671" lon="6.92279">
        <ele>1163.8891491195</ele>
        <time>2019-06-23T11:56:58Z</time>
      </trkpt>
      <trkpt lat="44.25671" lon="6.92275">
        <ele>1164.0256632809</ele>
        <time>2019-06-23T11:57:01Z</time>
      </trkpt>
      <trkpt lat="44.25672" lon="6.92272">
        <ele>1164.0262216701</ele>
        <time>2019-06-23T11:57:04Z</time>
      </trkpt>
      <trkpt lat="44.25674" lon="6.9227">
        <ele>1164.0262222284</ele>
        <time>2019-06-23T11:57:07Z</time>
      </trkpt>
      <trkpt lat="44.25677" lon="6.92269">
        <ele>1164.026222229</ele>
        <time>2019-06-23T11:57:10Z</time>
      </trkpt>
      <trkpt lat="44.25679" lon="6.92269">
        <ele>1164.026222229</ele>
        <time>2019-06-23T11:57:12Z</time>
      </trkpt>
      <trkpt lat="44.25682" lon="6.92266">
        <ele>1164.026222229</ele>
        <time>2019-06-23T11:57:15Z</time>
      </trkpt>
      <trkpt lat="44.25683" lon="6.92265">
        <ele>1164.026222229</ele>
        <time>2019-06-23T11:57:16Z</time>
      </trkpt>
      <trkpt lat="44.25686" lon="6.92264">
        <ele>1164.026222229</ele>
        <time>2019-06-23T11:57:18Z</time>
      </trkpt>
      <trkpt lat="44.25687" lon="6.92262">
        <ele>1164.026222229</ele>
        <time>2019-06-23T11:57:20Z</time>
      </trkpt>
      <trkpt lat="44.25689" lon="6.9226">
        <ele>1164.026222229</ele>
        <time>2019-06-23T11:57:27Z</time>
      </trkpt>
      <trkpt lat="44.25691" lon="6.92258">
        <ele>1164.026222229</ele>
        <time>2019-06-23T11:57:28Z</time>
      </trkpt>
      <trkpt lat="44.25692" lon="6.92256">
        <ele>1164.026222229</ele>
        <time>2019-06-23T11:57:29Z</time>
      </trkpt>
      <trkpt lat="44.25693" lon="6.92253">
        <ele>1164.026222229</ele>
        <time>2019-06-23T11:57:31Z</time>
      </trkpt>
      <trkpt lat="44.25695" lon="6.92251">
        <ele>1164.026222229</ele>
        <time>2019-06-23T11:57:33Z</time>
      </trkpt>
      <trkpt lat="44.25697" lon="6.92248">
        <ele>1164.0256838989</ele>
        <time>2019-06-23T11:57:35Z</time>
      </trkpt>
      <trkpt lat="44.25698" lon="6.92246">
        <ele>1164.026168396</ele>
        <time>2019-06-23T11:57:36Z</time>
      </trkpt>
      <trkpt lat="44.257" lon="6.92245">
        <ele>1164.0262216907</ele>
        <time>2019-06-23T11:57:38Z</time>
      </trkpt>
      <trkpt lat="44.25702" lon="6.92244">
        <ele>1164.0262222236</ele>
        <time>2019-06-23T11:57:40Z</time>
      </trkpt>
      <trkpt lat="44.25703" lon="6.9224">
        <ele>1164.0262222285</ele>
        <time>2019-06-23T11:57:41Z</time>
      </trkpt>
      <trkpt lat="44.25703" lon="6.92237">
        <ele>1164.026222229</ele>
        <time>2019-06-23T11:57:43Z</time>
      </trkpt>
      <trkpt lat="44.25706" lon="6.92234">
        <ele>1164.026222229</ele>
        <time>2019-06-23T11:57:46Z</time>
      </trkpt>
      <trkpt lat="44.25708" lon="6.92233">
        <ele>1164.026222229</ele>
        <time>2019-06-23T11:57:48Z</time>
      </trkpt>
      <trkpt lat="44.2571" lon="6.92232">
        <ele>1164.026222229</ele>
        <time>2019-06-23T11:57:51Z</time>
      </trkpt>
      <trkpt lat="44.25712" lon="6.92229">
        <ele>1164.026222229</ele>
        <time>2019-06-23T11:57:53Z</time>
      </trkpt>
      <trkpt lat="44.25714" lon="6.92228">
        <ele>1164.026222229</ele>
        <time>2019-06-23T11:57:55Z</time>
      </trkpt>
      <trkpt lat="44.25717" lon="6.92229">
        <ele>1164.026222229</ele>
        <time>2019-06-23T11:57:57Z</time>
      </trkpt>
      <trkpt lat="44.2572" lon="6.92227">
        <ele>1164.026222229</ele>
        <time>2019-06-23T11:57:59Z</time>
      </trkpt>
      <trkpt lat="44.25722" lon="6.92226">
        <ele>1164.026222229</ele>
        <time>2019-06-23T11:58:00Z</time>
      </trkpt>
      <trkpt lat="44.25724" lon="6.92227">
        <ele>1163.9857925415</ele>
        <time>2019-06-23T11:58:02Z</time>
      </trkpt>
      <trkpt lat="44.25726" lon="6.92227">
        <ele>1163.909428772</ele>
        <time>2019-06-23T11:58:04Z</time>
      </trkpt>
      <trkpt lat="44.25728" lon="6.92228">
        <ele>1163.7777630347</ele>
        <time>2019-06-23T11:58:06Z</time>
      </trkpt>
      <trkpt lat="44.2573" lon="6.92226">
        <ele>1163.7410594144</ele>
        <time>2019-06-23T11:58:08Z</time>
      </trkpt>
      <trkpt lat="44.25732" lon="6.92224">
        <ele>1163.7584133255</ele>
        <time>2019-06-23T11:58:10Z</time>
      </trkpt>
      <trkpt lat="44.25734" lon="6.92222">
        <ele>1163.9069132806</ele>
        <time>2019-06-23T11:58:12Z</time>
      </trkpt>
      <trkpt lat="44.25736" lon="6.9222">
        <ele>1164.0142913342</ele>
        <time>2019-06-23T11:58:13Z</time>
      </trkpt>
      <trkpt lat="44.25738" lon="6.9222">
        <ele>1164.0262102981</ele>
        <time>2019-06-23T11:58:16Z</time>
      </trkpt>
      <trkpt lat="44.2574" lon="6.92218">
        <ele>1164.0262221097</ele>
        <time>2019-06-23T11:58:18Z</time>
      </trkpt>
      <trkpt lat="44.25742" lon="6.92215">
        <ele>1164.0262222278</ele>
        <time>2019-06-23T11:58:20Z</time>
      </trkpt>
      <trkpt lat="44.25744" lon="6.92214">
        <ele>1164.0262222289</ele>
        <time>2019-06-23T11:58:21Z</time>
      </trkpt>
      <trkpt lat="44.25747" lon="6.92212">
        <ele>1164.026222229</ele>
        <time>2019-06-23T11:58:23Z</time>
      </trkpt>
      <trkpt lat="44.25748" lon="6.9221">
        <ele>1164.026222229</ele>
        <time>2019-06-23T11:58:24Z</time>
      </trkpt>
      <trkpt lat="44.2575" lon="6.92207">
        <ele>1164.026222229</ele>
        <time>2019-06-23T11:58:25Z</time>
      </trkpt>
      <trkpt lat="44.25751" lon="6.92204">
        <ele>1164.0253433228</ele>
        <time>2019-06-23T11:58:27Z</time>
      </trkpt>
      <trkpt lat="44.25751" lon="6.92201">
        <ele>1163.9156406616</ele>
        <time>2019-06-23T11:58:30Z</time>
      </trkpt>
      <trkpt lat="44.25751" lon="6.92198">
        <ele>1163.9529582102</ele>
        <time>2019-06-23T11:58:32Z</time>
      </trkpt>
      <trkpt lat="44.2575" lon="6.92194">
        <ele>1164.0104053603</ele>
        <time>2019-06-23T11:58:34Z</time>
      </trkpt>
      <trkpt lat="44.25748" lon="6.92193">
        <ele>1164.0262064121</ele>
        <time>2019-06-23T11:58:37Z</time>
      </trkpt>
      <trkpt lat="44.25746" lon="6.92191">
        <ele>1164.0262222132</ele>
        <time>2019-06-23T11:58:40Z</time>
      </trkpt>
      <trkpt lat="44.25745" lon="6.92188">
        <ele>1164.0262222288</ele>
        <time>2019-06-23T11:58:42Z</time>
      </trkpt>
      <trkpt lat="44.25744" lon="6.92186">
        <ele>1164.026222229</ele>
        <time>2019-06-23T11:58:44Z</time>
      </trkpt>
      <trkpt lat="44.25743" lon="6.92184">
        <ele>1164.026222229</ele>
        <time>2019-06-23T11:58:47Z</time>
      </trkpt>
      <trkpt lat="44.25742" lon="6.92182">
        <ele>1164.026222229</ele>
        <time>2019-06-23T11:58:49Z</time>
      </trkpt>
      <trkpt lat="44.25743" lon="6.92179">
        <ele>1164.026222229</ele>
        <time>2019-06-23T11:58:52Z</time>
      </trkpt>
      <trkpt lat="44.25744" lon="6.92177">
        <ele>1164.026222229</ele>
        <time>2019-06-23T11:58:56Z</time>
      </trkpt>
      <trkpt lat="44.25745" lon="6.92175">
        <ele>1164.026222229</ele>
        <time>2019-06-23T11:59:00Z</time>
      </trkpt>
      <trkpt lat="44.25747" lon="6.92173">
        <ele>1164.026222229</ele>
        <time>2019-06-23T11:59:02Z</time>
      </trkpt>
      <trkpt lat="44.25748" lon="6.9217">
        <ele>1164.026222229</ele>
        <time>2019-06-23T11:59:07Z</time>
      </trkpt>
      <trkpt lat="44.25749" lon="6.92168">
        <ele>1164.026222229</ele>
        <time>2019-06-23T11:59:10Z</time>
      </trkpt>
      <trkpt lat="44.25749" lon="6.92165">
        <ele>1164.3801954782</ele>
        <time>2019-06-23T11:59:23Z</time>
      </trkpt>
      <trkpt lat="44.2575" lon="6.92161">
        <ele>1164.9499218736</ele>
        <time>2019-06-23T11:59:25Z</time>
      </trkpt>
      <trkpt lat="44.25751" lon="6.92158">
        <ele>1166.1509755829</ele>
        <time>2019-06-23T11:59:27Z</time>
      </trkpt>
      <trkpt lat="44.25753" lon="6.92156">
        <ele>1166.9861704342</ele>
        <time>2019-06-23T11:59:33Z</time>
      </trkpt>
      <trkpt lat="44.25754" lon="6.92154">
        <ele>1167.6773285632</ele>
        <time>2019-06-23T11:59:37Z</time>
      </trkpt>
      <trkpt lat="44.25756" lon="6.92151">
        <ele>1168.2346020491</ele>
        <time>2019-06-23T11:59:41Z</time>
      </trkpt>
      <trkpt lat="44.25757" lon="6.92148">
        <ele>1169.0071523199</ele>
        <time>2019-06-23T11:59:45Z</time>
      </trkpt>
      <trkpt lat="44.25758" lon="6.92145">
        <ele>1170.1105482519</ele>
        <time>2019-06-23T11:59:48Z</time>
      </trkpt>
      <trkpt lat="44.25759" lon="6.92142">
        <ele>1170.8945899033</ele>
        <time>2019-06-23T11:59:50Z</time>
      </trkpt>
      <trkpt lat="44.25759" lon="6.92139">
        <ele>1171.8004637671</ele>
        <time>2019-06-23T11:59:52Z</time>
      </trkpt>
      <trkpt lat="44.25758" lon="6.92136">
        <ele>1172.3765378866</ele>
        <time>2019-06-23T11:59:54Z</time>
      </trkpt>
      <trkpt lat="44.25758" lon="6.92136">
        <ele>1172.7858404515</ele>
        <time>2019-06-23T11:59:58Z</time>
      </trkpt>
      <trkpt lat="44.25757" lon="6.92134">
        <ele>1173.0626444555</ele>
        <time>2019-06-23T12:00:02Z</time>
      </trkpt>
      <trkpt lat="44.25757" lon="6.92131">
        <ele>1173.5733430431</ele>
        <time>2019-06-23T12:00:04Z</time>
      </trkpt>
      <trkpt lat="44.25756" lon="6.92128">
        <ele>1174.3875035402</ele>
        <time>2019-06-23T12:00:08Z</time>
      </trkpt>
      <trkpt lat="44.25756" lon="6.92124">
        <ele>1175.1670720357</ele>
        <time>2019-06-23T12:00:11Z</time>
      </trkpt>
      <trkpt lat="44.25756" lon="6.9212">
        <ele>1175.8240638845</ele>
        <time>2019-06-23T12:00:14Z</time>
      </trkpt>
      <trkpt lat="44.25757" lon="6.92117">
        <ele>1176.7777528917</ele>
        <time>2019-06-23T12:00:16Z</time>
      </trkpt>
      <trkpt lat="44.25758" lon="6.92114">
        <ele>1177.1851821337</ele>
        <time>2019-06-23T12:00:19Z</time>
      </trkpt>
      <trkpt lat="44.2576" lon="6.92112">
        <ele>1177.3327831567</ele>
        <time>2019-06-23T12:00:23Z</time>
      </trkpt>
      <trkpt lat="44.25762" lon="6.92111">
        <ele>1177.0637221966</ele>
        <time>2019-06-23T12:00:27Z</time>
      </trkpt>
      <trkpt lat="44.25763" lon="6.92112">
        <ele>1176.8290410763</ele>
        <time>2019-06-23T12:00:29Z</time>
      </trkpt>
      <trkpt lat="44.25766" lon="6.92112">
        <ele>1175.863676687</ele>
        <time>2019-06-23T12:00:31Z</time>
      </trkpt>
      <trkpt lat="44.25767" lon="6.9211">
        <ele>1175.2374247958</ele>
        <time>2019-06-23T12:00:34Z</time>
      </trkpt>
      <trkpt lat="44.25768" lon="6.92108">
        <ele>1176.3748515887</ele>
        <time>2019-06-23T12:00:36Z</time>
      </trkpt>
      <trkpt lat="44.25769" lon="6.92104">
        <ele>1181.2551348015</ele>
        <time>2019-06-23T12:00:41Z</time>
      </trkpt>
      <trkpt lat="44.25769" lon="6.92102">
        <ele>1178.9906547564</ele>
        <time>2019-06-23T12:00:45Z</time>
      </trkpt>
      <trkpt lat="44.2577" lon="6.92099">
        <ele>1183.7779667605</ele>
        <time>2019-06-23T12:00:49Z</time>
      </trkpt>
      <trkpt lat="44.2577" lon="6.92096">
        <ele>1186.1521989089</ele>
        <time>2019-06-23T12:00:55Z</time>
      </trkpt>
      <trkpt lat="44.25772" lon="6.92094">
        <ele>1182.2695235801</ele>
        <time>2019-06-23T12:01:01Z</time>
      </trkpt>
      <trkpt lat="44.25774" lon="6.92094">
        <ele>1182.5679652683</ele>
        <time>2019-06-23T12:01:03Z</time>
      </trkpt>
      <trkpt lat="44.25775" lon="6.92092">
        <ele>1183.5312937474</ele>
        <time>2019-06-23T12:01:07Z</time>
      </trkpt>
      <trkpt lat="44.25777" lon="6.92092">
        <ele>1183.4619750697</ele>
        <time>2019-06-23T12:01:15Z</time>
      </trkpt>
      <trkpt lat="44.25779" lon="6.92091">
        <ele>1184.1080274007</ele>
        <time>2019-06-23T12:01:24Z</time>
      </trkpt>
      <trkpt lat="44.25778" lon="6.92088">
        <ele>1186.6503156451</ele>
        <time>2019-06-23T12:01:27Z</time>
      </trkpt>
      <trkpt lat="44.25776" lon="6.92085">
        <ele>1186.9096197599</ele>
        <time>2019-06-23T12:01:30Z</time>
      </trkpt>
      <trkpt lat="44.25776" lon="6.92082">
        <ele>1188.0048413443</ele>
        <time>2019-06-23T12:01:33Z</time>
      </trkpt>
      <trkpt lat="44.25777" lon="6.92079">
        <ele>1188.941037717</ele>
        <time>2019-06-23T12:01:35Z</time>
      </trkpt>
      <trkpt lat="44.25777" lon="6.92077">
        <ele>1189.8917741925</ele>
        <time>2019-06-23T12:01:37Z</time>
      </trkpt>
      <trkpt lat="44.25778" lon="6.92073">
        <ele>1190.859063489</ele>
        <time>2019-06-23T12:01:40Z</time>
      </trkpt>
      <trkpt lat="44.25777" lon="6.92071">
        <ele>1191.9613661397</ele>
        <time>2019-06-23T12:01:45Z</time>
      </trkpt>
      <trkpt lat="44.25775" lon="6.92069">
        <ele>1192.3973502771</ele>
        <time>2019-06-23T12:01:49Z</time>
      </trkpt>
      <trkpt lat="44.25773" lon="6.92068">
        <ele>1192.6840152091</ele>
        <time>2019-06-23T12:01:54Z</time>
      </trkpt>
      <trkpt lat="44.25774" lon="6.92065">
        <ele>1193.511939057</ele>
        <time>2019-06-23T12:02:00Z</time>
      </trkpt>
      <trkpt lat="44.25775" lon="6.92062">
        <ele>1194.2264589224</ele>
        <time>2019-06-23T12:02:03Z</time>
      </trkpt>
      <trkpt lat="44.25775" lon="6.92059">
        <ele>1195.1275161785</ele>
        <time>2019-06-23T12:02:07Z</time>
      </trkpt>
      <trkpt lat="44.25776" lon="6.92056">
        <ele>1195.9612099048</ele>
        <time>2019-06-23T12:02:15Z</time>
      </trkpt>
      <trkpt lat="44.25777" lon="6.92053">
        <ele>1196.841978872</ele>
        <time>2019-06-23T12:02:18Z</time>
      </trkpt>
      <trkpt lat="44.25778" lon="6.92051">
        <ele>1197.712253928</ele>
        <time>2019-06-23T12:02:21Z</time>
      </trkpt>
      <trkpt lat="44.25779" lon="6.92047">
        <ele>1198.3761839352</ele>
        <time>2019-06-23T12:02:25Z</time>
      </trkpt>
      <trkpt lat="44.25781" lon="6.92044">
        <ele>1198.7147255845</ele>
        <time>2019-06-23T12:02:29Z</time>
      </trkpt>
      <trkpt lat="44.25782" lon="6.92042">
        <ele>1198.7886357079</ele>
        <time>2019-06-23T12:02:32Z</time>
      </trkpt>
      <trkpt lat="44.25782" lon="6.92039">
        <ele>1199.5487402316</ele>
        <time>2019-06-23T12:02:37Z</time>
      </trkpt>
      <trkpt lat="44.25783" lon="6.92037">
        <ele>1200.2077247298</ele>
        <time>2019-06-23T12:02:44Z</time>
      </trkpt>
      <trkpt lat="44.25785" lon="6.92036">
        <ele>1200.2080481279</ele>
        <time>2019-06-23T12:02:51Z</time>
      </trkpt>
      <trkpt lat="44.25787" lon="6.92036">
        <ele>1199.5309027845</ele>
        <time>2019-06-23T12:02:57Z</time>
      </trkpt>
      <trkpt lat="44.25788" lon="6.92037">
        <ele>1199.3727718275</ele>
        <time>2019-06-23T12:02:58Z</time>
      </trkpt>
      <trkpt lat="44.2579" lon="6.92038">
        <ele>1199.1459999808</ele>
        <time>2019-06-23T12:03:00Z</time>
      </trkpt>
      <trkpt lat="44.25791" lon="6.92036">
        <ele>1198.0194724999</ele>
        <time>2019-06-23T12:03:03Z</time>
      </trkpt>
      <trkpt lat="44.25792" lon="6.92033">
        <ele>1198.6569955086</ele>
        <time>2019-06-23T12:03:06Z</time>
      </trkpt>
      <trkpt lat="44.25792" lon="6.9203">
        <ele>1194.6971295029</ele>
        <time>2019-06-23T12:03:10Z</time>
      </trkpt>
      <trkpt lat="44.25792" lon="6.92028">
        <ele>1192.8469001971</ele>
        <time>2019-06-23T12:03:14Z</time>
      </trkpt>
      <trkpt lat="44.25792" lon="6.92025">
        <ele>1192.7331031991</ele>
        <time>2019-06-23T12:03:16Z</time>
      </trkpt>
      <trkpt lat="44.25792" lon="6.92022">
        <ele>1192.919159817</ele>
        <time>2019-06-23T12:03:19Z</time>
      </trkpt>
      <trkpt lat="44.25792" lon="6.92019">
        <ele>1192.4419301066</ele>
        <time>2019-06-23T12:03:28Z</time>
      </trkpt>
      <trkpt lat="44.25792" lon="6.92017">
        <ele>1190.9864929643</ele>
        <time>2019-06-23T12:03:32Z</time>
      </trkpt>
      <trkpt lat="44.25792" lon="6.92014">
        <ele>1189.44964325</ele>
        <time>2019-06-23T12:03:37Z</time>
      </trkpt>
      <trkpt lat="44.2579" lon="6.92013">
        <ele>1205.019559759</ele>
        <time>2019-06-23T12:03:39Z</time>
      </trkpt>
      <trkpt lat="44.25789" lon="6.9201">
        <ele>1208.1704422511</ele>
        <time>2019-06-23T12:03:42Z</time>
      </trkpt>
      <trkpt lat="44.25789" lon="6.92007">
        <ele>1209.0629822254</ele>
        <time>2019-06-23T12:03:50Z</time>
      </trkpt>
      <trkpt lat="44.25792" lon="6.92006">
        <ele>1209.949608293</ele>
        <time>2019-06-23T12:03:57Z</time>
      </trkpt>
      <trkpt lat="44.25793" lon="6.92005">
        <ele>1210.1549011674</ele>
        <time>2019-06-23T12:03:58Z</time>
      </trkpt>
      <trkpt lat="44.25795" lon="6.92006">
        <ele>1210.1328459325</ele>
        <time>2019-06-23T12:04:00Z</time>
      </trkpt>
      <trkpt lat="44.25797" lon="6.92004">
        <ele>1210.1290631056</ele>
        <time>2019-06-23T12:04:03Z</time>
      </trkpt>
      <trkpt lat="44.25798" lon="6.92001">
        <ele>1211.1658259244</ele>
        <time>2019-06-23T12:04:06Z</time>
      </trkpt>
      <trkpt lat="44.25796" lon="6.92">
        <ele>1212.6403232377</ele>
        <time>2019-06-23T12:04:10Z</time>
      </trkpt>
      <trkpt lat="44.25794" lon="6.91996">
        <ele>1212.6424310566</ele>
        <time>2019-06-23T12:04:13Z</time>
      </trkpt>
      <trkpt lat="44.25793" lon="6.91994">
        <ele>1212.6424331454</ele>
        <time>2019-06-23T12:04:15Z</time>
      </trkpt>
      <trkpt lat="44.25795" lon="6.91994">
        <ele>1212.6424331665</ele>
        <time>2019-06-23T12:04:20Z</time>
      </trkpt>
      <trkpt lat="44.25795" lon="6.91991">
        <ele>1212.6424331665</ele>
        <time>2019-06-23T12:04:25Z</time>
      </trkpt>
      <trkpt lat="44.25793" lon="6.91989">
        <ele>1212.6424331665</ele>
        <time>2019-06-23T12:04:29Z</time>
      </trkpt>
      <trkpt lat="44.25791" lon="6.91988">
        <ele>1212.6424331665</ele>
        <time>2019-06-23T12:04:32Z</time>
      </trkpt>
      <trkpt lat="44.25793" lon="6.91988">
        <ele>1212.6424331665</ele>
        <time>2019-06-23T12:04:38Z</time>
      </trkpt>
      <trkpt lat="44.25793" lon="6.91984">
        <ele>1212.6424331665</ele>
        <time>2019-06-23T12:04:42Z</time>
      </trkpt>
      <trkpt lat="44.25792" lon="6.91981">
        <ele>1212.6424331665</ele>
        <time>2019-06-23T12:04:44Z</time>
      </trkpt>
      <trkpt lat="44.25792" lon="6.91978">
        <ele>1212.6424331665</ele>
        <time>2019-06-23T12:04:48Z</time>
      </trkpt>
      <trkpt lat="44.25792" lon="6.91975">
        <ele>1212.6424331665</ele>
        <time>2019-06-23T12:04:53Z</time>
      </trkpt>
      <trkpt lat="44.25793" lon="6.91973">
        <ele>1212.6424331665</ele>
        <time>2019-06-23T12:04:56Z</time>
      </trkpt>
      <trkpt lat="44.25793" lon="6.91971">
        <ele>1212.941612854</ele>
        <time>2019-06-23T12:04:59Z</time>
      </trkpt>
      <trkpt lat="44.25794" lon="6.91968">
        <ele>1213.4209169067</ele>
        <time>2019-06-23T12:05:01Z</time>
      </trkpt>
      <trkpt lat="44.25793" lon="6.91964">
        <ele>1214.5828229844</ele>
        <time>2019-06-23T12:05:03Z</time>
      </trkpt>
      <trkpt lat="44.25793" lon="6.91961">
        <ele>1215.5516251432</ele>
        <time>2019-06-23T12:05:06Z</time>
      </trkpt>
      <trkpt lat="44.25792" lon="6.91958">
        <ele>1216.2438175667</ele>
        <time>2019-06-23T12:05:08Z</time>
      </trkpt>
      <trkpt lat="44.25792" lon="6.91954">
        <ele>1217.2664145398</ele>
        <time>2019-06-23T12:05:10Z</time>
      </trkpt>
      <trkpt lat="44.25794" lon="6.91952">
        <ele>1218.614022231</ele>
        <time>2019-06-23T12:05:15Z</time>
      </trkpt>
      <trkpt lat="44.25795" lon="6.9195">
        <ele>1218.963445801</ele>
        <time>2019-06-23T12:05:24Z</time>
      </trkpt>
      <trkpt lat="44.25795" lon="6.91946">
        <ele>1219.3777612128</ele>
        <time>2019-06-23T12:05:26Z</time>
      </trkpt>
      <trkpt lat="44.25796" lon="6.91944">
        <ele>1220.9125253889</ele>
        <time>2019-06-23T12:05:32Z</time>
      </trkpt>
      <trkpt lat="44.25798" lon="6.91942">
        <ele>1221.4585307812</ele>
        <time>2019-06-23T12:05:36Z</time>
      </trkpt>
      <trkpt lat="44.258" lon="6.91939">
        <ele>1221.9599117696</ele>
        <time>2019-06-23T12:05:38Z</time>
      </trkpt>
      <trkpt lat="44.25802" lon="6.91938">
        <ele>1222.1809827084</ele>
        <time>2019-06-23T12:05:40Z</time>
      </trkpt>
      <trkpt lat="44.25802" lon="6.91935">
        <ele>1223.2266575071</ele>
        <time>2019-06-23T12:05:43Z</time>
      </trkpt>
      <trkpt lat="44.25804" lon="6.91934">
        <ele>1223.6272780955</ele>
        <time>2019-06-23T12:05:45Z</time>
      </trkpt>
      <trkpt lat="44.25806" lon="6.91934">
        <ele>1223.8817233093</ele>
        <time>2019-06-23T12:05:48Z</time>
      </trkpt>
      <trkpt lat="44.25808" lon="6.91933">
        <ele>1223.8500978148</ele>
        <time>2019-06-23T12:05:56Z</time>
      </trkpt>
      <trkpt lat="44.2581" lon="6.91932">
        <ele>1224.2955934679</ele>
        <time>2019-06-23T12:05:59Z</time>
      </trkpt>
      <trkpt lat="44.25812" lon="6.9193">
        <ele>1224.6503733141</ele>
        <time>2019-06-23T12:06:02Z</time>
      </trkpt>
      <trkpt lat="44.25814" lon="6.91928">
        <ele>1225.3292887629</ele>
        <time>2019-06-23T12:06:05Z</time>
      </trkpt>
      <trkpt lat="44.25816" lon="6.91928">
        <ele>1225.541116908</ele>
        <time>2019-06-23T12:06:07Z</time>
      </trkpt>
      <trkpt lat="44.25819" lon="6.91929">
        <ele>1225.443916567</ele>
        <time>2019-06-23T12:06:10Z</time>
      </trkpt>
      <trkpt lat="44.25821" lon="6.91928">
        <ele>1225.2835244448</ele>
        <time>2019-06-23T12:06:13Z</time>
      </trkpt>
      <trkpt lat="44.25824" lon="6.91927">
        <ele>1225.7800922021</ele>
        <time>2019-06-23T12:06:16Z</time>
      </trkpt>
      <trkpt lat="44.25826" lon="6.91926">
        <ele>1225.7516075753</ele>
        <time>2019-06-23T12:06:21Z</time>
      </trkpt>
      <trkpt lat="44.25828" lon="6.91925">
        <ele>1226.4244217354</ele>
        <time>2019-06-23T12:06:24Z</time>
      </trkpt>
      <trkpt lat="44.25829" lon="6.91923">
        <ele>1226.6783030457</ele>
        <time>2019-06-23T12:06:27Z</time>
      </trkpt>
      <trkpt lat="44.25831" lon="6.91921">
        <ele>1227.3681742366</ele>
        <time>2019-06-23T12:06:30Z</time>
      </trkpt>
      <trkpt lat="44.25832" lon="6.91918">
        <ele>1228.1086504847</ele>
        <time>2019-06-23T12:06:33Z</time>
      </trkpt>
      <trkpt lat="44.25834" lon="6.91915">
        <ele>1228.7852240018</ele>
        <time>2019-06-23T12:06:35Z</time>
      </trkpt>
      <trkpt lat="44.25834" lon="6.91913">
        <ele>1229.7577948294</ele>
        <time>2019-06-23T12:06:38Z</time>
      </trkpt>
      <trkpt lat="44.25834" lon="6.91909">
        <ele>1230.4364203615</ele>
        <time>2019-06-23T12:06:44Z</time>
      </trkpt>
      <trkpt lat="44.25837" lon="6.91909">
        <ele>1230.3225464421</ele>
        <time>2019-06-23T12:06:49Z</time>
      </trkpt>
      <trkpt lat="44.25838" lon="6.91908">
        <ele>1230.1627926029</ele>
        <time>2019-06-23T12:07:04Z</time>
      </trkpt>
      <trkpt lat="44.25836" lon="6.91909">
        <ele>1230.0713553754</ele>
        <time>2019-06-23T12:07:14Z</time>
      </trkpt>
      <trkpt lat="44.25835" lon="6.91908">
        <ele>1230.2325793222</ele>
        <time>2019-06-23T12:07:16Z</time>
      </trkpt>
      <trkpt lat="44.25833" lon="6.91908">
        <ele>1231.2720738498</ele>
        <time>2019-06-23T12:07:19Z</time>
      </trkpt>
      <trkpt lat="44.25832" lon="6.91906">
        <ele>1231.5858593982</ele>
        <time>2019-06-23T12:07:24Z</time>
      </trkpt>
      <trkpt lat="44.25831" lon="6.91903">
        <ele>1232.3430296689</ele>
        <time>2019-06-23T12:07:27Z</time>
      </trkpt>
      <trkpt lat="44.25829" lon="6.91902">
        <ele>1233.1906327864</ele>
        <time>2019-06-23T12:07:30Z</time>
      </trkpt>
      <trkpt lat="44.25831" lon="6.91901">
        <ele>1233.4429009489</ele>
        <time>2019-06-23T12:07:39Z</time>
      </trkpt>
      <trkpt lat="44.25831" lon="6.91897">
        <ele>1234.2108935111</ele>
        <time>2019-06-23T12:07:43Z</time>
      </trkpt>
      <trkpt lat="44.25832" lon="6.91895">
        <ele>1235.275241495</ele>
        <time>2019-06-23T12:07:46Z</time>
      </trkpt>
      <trkpt lat="44.25833" lon="6.91891">
        <ele>1235.6955605662</ele>
        <time>2019-06-23T12:07:48Z</time>
      </trkpt>
      <trkpt lat="44.25834" lon="6.91889">
        <ele>1236.5384490596</ele>
        <time>2019-06-23T12:07:50Z</time>
      </trkpt>
      <trkpt lat="44.25836" lon="6.91886">
        <ele>1236.7914334304</ele>
        <time>2019-06-23T12:07:53Z</time>
      </trkpt>
      <trkpt lat="44.25838" lon="6.91884">
        <ele>1236.9340787984</ele>
        <time>2019-06-23T12:07:54Z</time>
      </trkpt>
      <trkpt lat="44.25839" lon="6.91882">
        <ele>1237.0096813551</ele>
        <time>2019-06-23T12:07:57Z</time>
      </trkpt>
      <trkpt lat="44.25841" lon="6.91881">
        <ele>1237.1702608947</ele>
        <time>2019-06-23T12:08:01Z</time>
      </trkpt>
      <trkpt lat="44.25843" lon="6.91881">
        <ele>1236.5608799395</ele>
        <time>2019-06-23T12:08:04Z</time>
      </trkpt>
      <trkpt lat="44.25845" lon="6.91881">
        <ele>1236.2376723217</ele>
        <time>2019-06-23T12:08:06Z</time>
      </trkpt>
      <trkpt lat="44.25847" lon="6.91881">
        <ele>1236.0111541127</ele>
        <time>2019-06-23T12:08:08Z</time>
      </trkpt>
      <trkpt lat="44.25849" lon="6.9188">
        <ele>1235.0524411767</ele>
        <time>2019-06-23T12:08:10Z</time>
      </trkpt>
      <trkpt lat="44.25852" lon="6.9188">
        <ele>1234.8387830025</ele>
        <time>2019-06-23T12:08:12Z</time>
      </trkpt>
      <trkpt lat="44.25854" lon="6.91878">
        <ele>1234.100976074</ele>
        <time>2019-06-23T12:08:15Z</time>
      </trkpt>
      <trkpt lat="44.25856" lon="6.91877">
        <ele>1233.7866390239</ele>
        <time>2019-06-23T12:08:18Z</time>
      </trkpt>
      <trkpt lat="44.25858" lon="6.91877">
        <ele>1233.4949335747</ele>
        <time>2019-06-23T12:08:20Z</time>
      </trkpt>
      <trkpt lat="44.2586" lon="6.91876">
        <ele>1233.0673949382</ele>
        <time>2019-06-23T12:08:22Z</time>
      </trkpt>
      <trkpt lat="44.25862" lon="6.91874">
        <ele>1233.0793647201</ele>
        <time>2019-06-23T12:08:25Z</time>
      </trkpt>
      <trkpt lat="44.25865" lon="6.91872">
        <ele>1233.5674897379</ele>
        <time>2019-06-23T12:08:27Z</time>
      </trkpt>
      <trkpt lat="44.25869" lon="6.91869">
        <ele>1233.9490372478</ele>
        <time>2019-06-23T12:08:29Z</time>
      </trkpt>
      <trkpt lat="44.2587" lon="6.91867">
        <ele>1234.9956530159</ele>
        <time>2019-06-23T12:08:31Z</time>
      </trkpt>
      <trkpt lat="44.25871" lon="6.91865">
        <ele>1235.441166781</ele>
        <time>2019-06-23T12:08:33Z</time>
      </trkpt>
      <trkpt lat="44.25873" lon="6.91864">
        <ele>1235.8421429537</ele>
        <time>2019-06-23T12:08:34Z</time>
      </trkpt>
      <trkpt lat="44.25875" lon="6.91861">
        <ele>1236.4506751126</ele>
        <time>2019-06-23T12:08:37Z</time>
      </trkpt>
      <trkpt lat="44.25876" lon="6.91859">
        <ele>1237.0999308692</ele>
        <time>2019-06-23T12:08:39Z</time>
      </trkpt>
      <trkpt lat="44.25879" lon="6.9186">
        <ele>1237.243038417</ele>
        <time>2019-06-23T12:08:41Z</time>
      </trkpt>
      <trkpt lat="44.25881" lon="6.91859">
        <ele>1237.4982864573</ele>
        <time>2019-06-23T12:08:44Z</time>
      </trkpt>
      <trkpt lat="44.25883" lon="6.91857">
        <ele>1237.8464689943</ele>
        <time>2019-06-23T12:08:46Z</time>
      </trkpt>
      <trkpt lat="44.25885" lon="6.91855">
        <ele>1238.4557918842</ele>
        <time>2019-06-23T12:08:48Z</time>
      </trkpt>
      <trkpt lat="44.25887" lon="6.91853">
        <ele>1239.0992020076</ele>
        <time>2019-06-23T12:08:50Z</time>
      </trkpt>
      <trkpt lat="44.25888" lon="6.91852">
        <ele>1239.3414356694</ele>
        <time>2019-06-23T12:08:52Z</time>
      </trkpt>
      <trkpt lat="44.25891" lon="6.91853">
        <ele>1239.0658597081</ele>
        <time>2019-06-23T12:08:55Z</time>
      </trkpt>
      <trkpt lat="44.25894" lon="6.91852">
        <ele>1238.3826659671</ele>
        <time>2019-06-23T12:08:57Z</time>
      </trkpt>
      <trkpt lat="44.25896" lon="6.91852">
        <ele>1238.1000881801</ele>
        <time>2019-06-23T12:08:59Z</time>
      </trkpt>
      <trkpt lat="44.25898" lon="6.9185">
        <ele>1237.535544508</ele>
        <time>2019-06-23T12:09:02Z</time>
      </trkpt>
      <trkpt lat="44.25901" lon="6.91847">
        <ele>1237.5458586265</ele>
        <time>2019-06-23T12:09:05Z</time>
      </trkpt>
      <trkpt lat="44.25902" lon="6.91845">
        <ele>1237.9373586287</ele>
        <time>2019-06-23T12:09:09Z</time>
      </trkpt>
      <trkpt lat="44.25902" lon="6.91843">
        <ele>1238.1594534427</ele>
        <time>2019-06-23T12:09:13Z</time>
      </trkpt>
      <trkpt lat="44.25903" lon="6.9184">
        <ele>1238.8882326079</ele>
        <time>2019-06-23T12:09:18Z</time>
      </trkpt>
      <trkpt lat="44.25904" lon="6.91838">
        <ele>1239.3290882677</ele>
        <time>2019-06-23T12:09:21Z</time>
      </trkpt>
      <trkpt lat="44.25904" lon="6.91834">
        <ele>1239.9239849453</ele>
        <time>2019-06-23T12:09:27Z</time>
      </trkpt>
      <trkpt lat="44.25904" lon="6.91832">
        <ele>1240.5628581509</ele>
        <time>2019-06-23T12:09:30Z</time>
      </trkpt>
      <trkpt lat="44.25904" lon="6.91829">
        <ele>1240.6729505153</ele>
        <time>2019-06-23T12:09:33Z</time>
      </trkpt>
      <trkpt lat="44.25904" lon="6.91826">
        <ele>1240.66622854</ele>
        <time>2019-06-23T12:09:37Z</time>
      </trkpt>
      <trkpt lat="44.25903" lon="6.91823">
        <ele>1240.9260778115</ele>
        <time>2019-06-23T12:09:40Z</time>
      </trkpt>
      <trkpt lat="44.25901" lon="6.91822">
        <ele>1241.2681311178</ele>
        <time>2019-06-23T12:09:43Z</time>
      </trkpt>
      <trkpt lat="44.259" lon="6.91819">
        <ele>1241.7867586936</ele>
        <time>2019-06-23T12:09:46Z</time>
      </trkpt>
      <trkpt lat="44.25898" lon="6.91818">
        <ele>1242.1718645646</ele>
        <time>2019-06-23T12:09:51Z</time>
      </trkpt>
      <trkpt lat="44.25897" lon="6.91815">
        <ele>1242.6159590579</ele>
        <time>2019-06-23T12:09:54Z</time>
      </trkpt>
      <trkpt lat="44.25895" lon="6.91813">
        <ele>1242.9069499196</ele>
        <time>2019-06-23T12:09:56Z</time>
      </trkpt>
      <trkpt lat="44.25894" lon="6.91811">
        <ele>1243.4022340958</ele>
        <time>2019-06-23T12:09:58Z</time>
      </trkpt>
      <trkpt lat="44.25893" lon="6.91809">
        <ele>1243.8025571032</ele>
        <time>2019-06-23T12:10:01Z</time>
      </trkpt>
      <trkpt lat="44.25892" lon="6.91806">
        <ele>1243.9486752775</ele>
        <time>2019-06-23T12:10:05Z</time>
      </trkpt>
      <trkpt lat="44.25891" lon="6.91804">
        <ele>1244.233154279</ele>
        <time>2019-06-23T12:10:07Z</time>
      </trkpt>
      <trkpt lat="44.25889" lon="6.91802">
        <ele>1244.7960763779</ele>
        <time>2019-06-23T12:10:10Z</time>
      </trkpt>
      <trkpt lat="44.25889" lon="6.918">
        <ele>1244.9859300478</ele>
        <time>2019-06-23T12:10:12Z</time>
      </trkpt>
      <trkpt lat="44.25889" lon="6.91797">
        <ele>1245.1144632775</ele>
        <time>2019-06-23T12:10:17Z</time>
      </trkpt>
      <trkpt lat="44.2589" lon="6.91794">
        <ele>1244.8992061386</ele>
        <time>2019-06-23T12:10:21Z</time>
      </trkpt>
      <trkpt lat="44.25891" lon="6.91792">
        <ele>1244.6930644512</ele>
        <time>2019-06-23T12:10:24Z</time>
      </trkpt>
      <trkpt lat="44.25893" lon="6.9179">
        <ele>1244.5973946551</ele>
        <time>2019-06-23T12:10:30Z</time>
      </trkpt>
      <trkpt lat="44.25893" lon="6.91787">
        <ele>1244.6231293096</ele>
        <time>2019-06-23T12:10:34Z</time>
      </trkpt>
      <trkpt lat="44.25892" lon="6.91784">
        <ele>1244.7293067783</ele>
        <time>2019-06-23T12:10:36Z</time>
      </trkpt>
      <trkpt lat="44.25892" lon="6.9178">
        <ele>1244.8950975569</ele>
        <time>2019-06-23T12:10:38Z</time>
      </trkpt>
      <trkpt lat="44.25892" lon="6.91777">
        <ele>1245.0267305086</ele>
        <time>2019-06-23T12:10:41Z</time>
      </trkpt>
      <trkpt lat="44.25891" lon="6.91774">
        <ele>1245.7663542649</ele>
        <time>2019-06-23T12:10:43Z</time>
      </trkpt>
      <trkpt lat="44.25889" lon="6.91771">
        <ele>1246.4151982564</ele>
        <time>2019-06-23T12:10:45Z</time>
      </trkpt>
      <trkpt lat="44.25887" lon="6.91769">
        <ele>1247.4697933858</ele>
        <time>2019-06-23T12:10:47Z</time>
      </trkpt>
      <trkpt lat="44.25885" lon="6.91768">
        <ele>1248.2215099914</ele>
        <time>2019-06-23T12:10:49Z</time>
      </trkpt>
      <trkpt lat="44.25883" lon="6.91768">
        <ele>1248.5449697552</ele>
        <time>2019-06-23T12:10:50Z</time>
      </trkpt>
      <trkpt lat="44.25881" lon="6.91766">
        <ele>1249.6410918066</ele>
        <time>2019-06-23T12:10:53Z</time>
      </trkpt>
      <trkpt lat="44.25879" lon="6.91766">
        <ele>1250.0270338823</ele>
        <time>2019-06-23T12:11:01Z</time>
      </trkpt>
      <trkpt lat="44.25878" lon="6.91763">
        <ele>1250.4982249744</ele>
        <time>2019-06-23T12:11:03Z</time>
      </trkpt>
      <trkpt lat="44.25876" lon="6.91762">
        <ele>1251.291647091</ele>
        <time>2019-06-23T12:11:10Z</time>
      </trkpt>
      <trkpt lat="44.25875" lon="6.9176">
        <ele>1251.6885769209</ele>
        <time>2019-06-23T12:11:14Z</time>
      </trkpt>
      <trkpt lat="44.25874" lon="6.91756">
        <ele>1252.0719359753</ele>
        <time>2019-06-23T12:11:17Z</time>
      </trkpt>
      <trkpt lat="44.25875" lon="6.91754">
        <ele>1252.5122270201</ele>
        <time>2019-06-23T12:11:21Z</time>
      </trkpt>
      <trkpt lat="44.25874" lon="6.91754">
        <ele>1252.5593056459</ele>
        <time>2019-06-23T12:11:24Z</time>
      </trkpt>
      <trkpt lat="44.25872" lon="6.91751">
        <ele>1252.8491362429</ele>
        <time>2019-06-23T12:11:28Z</time>
      </trkpt>
      <trkpt lat="44.2587" lon="6.91748">
        <ele>1253.1518199233</ele>
        <time>2019-06-23T12:11:31Z</time>
      </trkpt>
      <trkpt lat="44.25869" lon="6.91746">
        <ele>1253.1558204911</ele>
        <time>2019-06-23T12:11:33Z</time>
      </trkpt>
      <trkpt lat="44.25869" lon="6.91743">
        <ele>1253.1558608968</ele>
        <time>2019-06-23T12:11:37Z</time>
      </trkpt>
      <trkpt lat="44.25868" lon="6.9174">
        <ele>1253.1558609009</ele>
        <time>2019-06-23T12:11:40Z</time>
      </trkpt>
      <trkpt lat="44.25867" lon="6.91738">
        <ele>1253.1558609009</ele>
        <time>2019-06-23T12:11:44Z</time>
      </trkpt>
      <trkpt lat="44.25866" lon="6.91735">
        <ele>1253.1558609009</ele>
        <time>2019-06-23T12:11:46Z</time>
      </trkpt>
      <trkpt lat="44.25867" lon="6.91732">
        <ele>1253.1558609009</ele>
        <time>2019-06-23T12:11:49Z</time>
      </trkpt>
      <trkpt lat="44.25867" lon="6.9173">
        <ele>1253.1558609009</ele>
        <time>2019-06-23T12:11:51Z</time>
      </trkpt>
      <trkpt lat="44.25867" lon="6.91726">
        <ele>1253.1558609009</ele>
        <time>2019-06-23T12:11:53Z</time>
      </trkpt>
      <trkpt lat="44.25866" lon="6.91723">
        <ele>1253.1558609009</ele>
        <time>2019-06-23T12:11:56Z</time>
      </trkpt>
      <trkpt lat="44.25865" lon="6.9172">
        <ele>1253.1558609009</ele>
        <time>2019-06-23T12:11:59Z</time>
      </trkpt>
      <trkpt lat="44.25865" lon="6.91716">
        <ele>1253.1558609009</ele>
        <time>2019-06-23T12:12:07Z</time>
      </trkpt>
      <trkpt lat="44.25866" lon="6.91714">
        <ele>1253.1558609009</ele>
        <time>2019-06-23T12:12:10Z</time>
      </trkpt>
      <trkpt lat="44.25867" lon="6.9171">
        <ele>1253.1558609009</ele>
        <time>2019-06-23T12:12:14Z</time>
      </trkpt>
      <trkpt lat="44.25868" lon="6.91707">
        <ele>1253.1558609009</ele>
        <time>2019-06-23T12:12:16Z</time>
      </trkpt>
      <trkpt lat="44.25868" lon="6.91704">
        <ele>1253.1558609009</ele>
        <time>2019-06-23T12:12:18Z</time>
      </trkpt>
      <trkpt lat="44.25868" lon="6.91701">
        <ele>1253.1558609009</ele>
        <time>2019-06-23T12:12:20Z</time>
      </trkpt>
      <trkpt lat="44.25868" lon="6.91698">
        <ele>1253.1558609009</ele>
        <time>2019-06-23T12:12:22Z</time>
      </trkpt>
      <trkpt lat="44.25869" lon="6.91695">
        <ele>1253.1558609009</ele>
        <time>2019-06-23T12:12:24Z</time>
      </trkpt>
      <trkpt lat="44.25869" lon="6.91692">
        <ele>1253.2361709595</ele>
        <time>2019-06-23T12:12:26Z</time>
      </trkpt>
      <trkpt lat="44.2587" lon="6.9169">
        <ele>1253.4679616089</ele>
        <time>2019-06-23T12:12:28Z</time>
      </trkpt>
      <trkpt lat="44.25871" lon="6.91687">
        <ele>1253.7814433873</ele>
        <time>2019-06-23T12:12:31Z</time>
      </trkpt>
      <trkpt lat="44.25872" lon="6.91685">
        <ele>1254.1553686789</ele>
        <time>2019-06-23T12:12:33Z</time>
      </trkpt>
      <trkpt lat="44.25874" lon="6.91682">
        <ele>1254.6452593624</ele>
        <time>2019-06-23T12:12:37Z</time>
      </trkpt>
      <trkpt lat="44.25876" lon="6.91681">
        <ele>1254.9818181179</ele>
        <time>2019-06-23T12:12:39Z</time>
      </trkpt>
      <trkpt lat="44.25878" lon="6.9168">
        <ele>1255.4647339995</ele>
        <time>2019-06-23T12:12:43Z</time>
      </trkpt>
      <trkpt lat="44.2588" lon="6.91679">
        <ele>1255.8122666978</ele>
        <time>2019-06-23T12:12:46Z</time>
      </trkpt>
      <trkpt lat="44.25881" lon="6.91678">
        <ele>1256.3529584061</ele>
        <time>2019-06-23T12:12:48Z</time>
      </trkpt>
      <trkpt lat="44.25883" lon="6.91676">
        <ele>1257.0354746982</ele>
        <time>2019-06-23T12:12:50Z</time>
      </trkpt>
      <trkpt lat="44.25885" lon="6.91673">
        <ele>1257.857518367</ele>
        <time>2019-06-23T12:12:52Z</time>
      </trkpt>
      <trkpt lat="44.25886" lon="6.91672">
        <ele>1258.8400173681</ele>
        <time>2019-06-23T12:12:54Z</time>
      </trkpt>
      <trkpt lat="44.25888" lon="6.9167">
        <ele>1259.862555525</ele>
        <time>2019-06-23T12:12:58Z</time>
      </trkpt>
      <trkpt lat="44.25889" lon="6.91668">
        <ele>1260.5778529082</ele>
        <time>2019-06-23T12:13:02Z</time>
      </trkpt>
      <trkpt lat="44.25891" lon="6.91667">
        <ele>1261.2619893326</ele>
        <time>2019-06-23T12:13:10Z</time>
      </trkpt>
      <trkpt lat="44.2589" lon="6.91664">
        <ele>1261.3041311945</ele>
        <time>2019-06-23T12:13:17Z</time>
      </trkpt>
      <trkpt lat="44.25888" lon="6.91662">
        <ele>1261.2878831546</ele>
        <time>2019-06-23T12:13:19Z</time>
      </trkpt>
      <trkpt lat="44.25888" lon="6.9166">
        <ele>1261.0348578311</ele>
        <time>2019-06-23T12:13:23Z</time>
      </trkpt>
      <trkpt lat="44.25888" lon="6.91657">
        <ele>1261.0229772918</ele>
        <time>2019-06-23T12:13:27Z</time>
      </trkpt>
      <trkpt lat="44.25888" lon="6.91654">
        <ele>1261.0828457573</ele>
        <time>2019-06-23T12:13:35Z</time>
      </trkpt>
      <trkpt lat="44.25888" lon="6.91652">
        <ele>1261.1774358015</ele>
        <time>2019-06-23T12:13:39Z</time>
      </trkpt>
      <trkpt lat="44.25888" lon="6.91648">
        <ele>1261.057765106</ele>
        <time>2019-06-23T12:13:45Z</time>
      </trkpt>
      <trkpt lat="44.25888" lon="6.91645">
        <ele>1261.1581043872</ele>
        <time>2019-06-23T12:13:49Z</time>
      </trkpt>
      <trkpt lat="44.25889" lon="6.91642">
        <ele>1261.2371601912</ele>
        <time>2019-06-23T12:13:51Z</time>
      </trkpt>
      <trkpt lat="44.25889" lon="6.91638">
        <ele>1261.2574185227</ele>
        <time>2019-06-23T12:13:53Z</time>
      </trkpt>
      <trkpt lat="44.25888" lon="6.91635">
        <ele>1261.9628005494</ele>
        <time>2019-06-23T12:13:55Z</time>
      </trkpt>
      <trkpt lat="44.25889" lon="6.91633">
        <ele>1262.9908375217</ele>
        <time>2019-06-23T12:14:01Z</time>
      </trkpt>
      <trkpt lat="44.2589" lon="6.9163">
        <ele>1263.9722504166</ele>
        <time>2019-06-23T12:14:05Z</time>
      </trkpt>
      <trkpt lat="44.25892" lon="6.91628">
        <ele>1264.6069143509</ele>
        <time>2019-06-23T12:14:08Z</time>
      </trkpt>
      <trkpt lat="44.25894" lon="6.91627">
        <ele>1265.5933200879</ele>
        <time>2019-06-23T12:14:13Z</time>
      </trkpt>
      <trkpt lat="44.25895" lon="6.91624">
        <ele>1266.6990465279</ele>
        <time>2019-06-23T12:14:15Z</time>
      </trkpt>
      <trkpt lat="44.25897" lon="6.91623">
        <ele>1267.5986120931</ele>
        <time>2019-06-23T12:14:17Z</time>
      </trkpt>
      <trkpt lat="44.25899" lon="6.91622">
        <ele>1268.5725341799</ele>
        <time>2019-06-23T12:14:21Z</time>
      </trkpt>
      <trkpt lat="44.259" lon="6.9162">
        <ele>1269.373599411</ele>
        <time>2019-06-23T12:14:23Z</time>
      </trkpt>
      <trkpt lat="44.25901" lon="6.91617">
        <ele>1270.7042884783</ele>
        <time>2019-06-23T12:14:26Z</time>
      </trkpt>
      <trkpt lat="44.25902" lon="6.91614">
        <ele>1271.8265783958</ele>
        <time>2019-06-23T12:14:29Z</time>
      </trkpt>
      <trkpt lat="44.25902" lon="6.91612">
        <ele>1272.6306936057</ele>
        <time>2019-06-23T12:14:32Z</time>
      </trkpt>
      <trkpt lat="44.25904" lon="6.9161">
        <ele>1273.5157014872</ele>
        <time>2019-06-23T12:14:36Z</time>
      </trkpt>
      <trkpt lat="44.25905" lon="6.91607">
        <ele>1273.7626526661</ele>
        <time>2019-06-23T12:14:38Z</time>
      </trkpt>
      <trkpt lat="44.25906" lon="6.91605">
        <ele>1274.1832728127</ele>
        <time>2019-06-23T12:14:40Z</time>
      </trkpt>
      <trkpt lat="44.25908" lon="6.91603">
        <ele>1274.7047876167</ele>
        <time>2019-06-23T12:14:44Z</time>
      </trkpt>
      <trkpt lat="44.25909" lon="6.916">
        <ele>1275.0159807105</ele>
        <time>2019-06-23T12:14:48Z</time>
      </trkpt>
      <trkpt lat="44.25908" lon="6.91597">
        <ele>1275.1134794402</ele>
        <time>2019-06-23T12:14:54Z</time>
      </trkpt>
      <trkpt lat="44.25906" lon="6.91596">
        <ele>1274.5607130958</ele>
        <time>2019-06-23T12:14:58Z</time>
      </trkpt>
      <trkpt lat="44.25905" lon="6.91596">
        <ele>1274.0003395051</ele>
        <time>2019-06-23T12:15:04Z</time>
      </trkpt>
      <trkpt lat="44.25903" lon="6.91597">
        <ele>1273.4700174574</ele>
        <time>2019-06-23T12:15:25Z</time>
      </trkpt>
      <trkpt lat="44.25903" lon="6.91594">
        <ele>1273.3823470064</ele>
        <time>2019-06-23T12:15:32Z</time>
      </trkpt>
      <trkpt lat="44.25904" lon="6.91591">
        <ele>1273.5888791045</ele>
        <time>2019-06-23T12:15:37Z</time>
      </trkpt>
      <trkpt lat="44.25906" lon="6.91589">
        <ele>1274.0767383771</ele>
        <time>2019-06-23T12:15:40Z</time>
      </trkpt>
      <trkpt lat="44.25908" lon="6.91589">
        <ele>1274.7770026036</ele>
        <time>2019-06-23T12:15:43Z</time>
      </trkpt>
      <trkpt lat="44.2591" lon="6.91587">
        <ele>1275.3848271354</ele>
        <time>2019-06-23T12:15:46Z</time>
      </trkpt>
      <trkpt lat="44.25911" lon="6.91585">
        <ele>1275.6749879113</ele>
        <time>2019-06-23T12:15:50Z</time>
      </trkpt>
      <trkpt lat="44.25912" lon="6.91583">
        <ele>1276.118305565</ele>
        <time>2019-06-23T12:15:53Z</time>
      </trkpt>
      <trkpt lat="44.25915" lon="6.9158">
        <ele>1277.1111950604</ele>
        <time>2019-06-23T12:15:57Z</time>
      </trkpt>
      <trkpt lat="44.25915" lon="6.91577">
        <ele>1278.3512287106</ele>
        <time>2019-06-23T12:16:00Z</time>
      </trkpt>
      <trkpt lat="44.25915" lon="6.91574">
        <ele>1279.3043512995</ele>
        <time>2019-06-23T12:16:04Z</time>
      </trkpt>
      <trkpt lat="44.25914" lon="6.91571">
        <ele>1279.7857962565</ele>
        <time>2019-06-23T12:16:07Z</time>
      </trkpt>
      <trkpt lat="44.25913" lon="6.9157">
        <ele>1279.272166358</ele>
        <time>2019-06-23T12:16:09Z</time>
      </trkpt>
      <trkpt lat="44.25911" lon="6.91567">
        <ele>1278.7281840329</ele>
        <time>2019-06-23T12:16:15Z</time>
      </trkpt>
      <trkpt lat="44.25912" lon="6.91565">
        <ele>1279.3796947891</ele>
        <time>2019-06-23T12:16:22Z</time>
      </trkpt>
      <trkpt lat="44.25913" lon="6.91563">
        <ele>1273.2619628532</ele>
        <time>2019-06-23T12:16:26Z</time>
      </trkpt>
      <trkpt lat="44.25913" lon="6.9156">
        <ele>1281.5523466566</ele>
        <time>2019-06-23T12:16:29Z</time>
      </trkpt>
      <trkpt lat="44.25915" lon="6.91556">
        <ele>1282.8347702394</ele>
        <time>2019-06-23T12:16:33Z</time>
      </trkpt>
      <trkpt lat="44.25917" lon="6.91554">
        <ele>1284.621032486</ele>
        <time>2019-06-23T12:16:36Z</time>
      </trkpt>
      <trkpt lat="44.25918" lon="6.91552">
        <ele>1285.8426952339</ele>
        <time>2019-06-23T12:16:38Z</time>
      </trkpt>
      <trkpt lat="44.25918" lon="6.9155">
        <ele>1286.0293527794</ele>
        <time>2019-06-23T12:16:40Z</time>
      </trkpt>
      <trkpt lat="44.25916" lon="6.91549">
        <ele>1285.7191502764</ele>
        <time>2019-06-23T12:16:44Z</time>
      </trkpt>
      <trkpt lat="44.25916" lon="6.91545">
        <ele>1284.2244311954</ele>
        <time>2019-06-23T12:16:49Z</time>
      </trkpt>
      <trkpt lat="44.25918" lon="6.91544">
        <ele>1285.7377497837</ele>
        <time>2019-06-23T12:16:52Z</time>
      </trkpt>
      <trkpt lat="44.25919" lon="6.91541">
        <ele>1285.9949083659</ele>
        <time>2019-06-23T12:16:55Z</time>
      </trkpt>
      <trkpt lat="44.25921" lon="6.91538">
        <ele>1286.5675345431</ele>
        <time>2019-06-23T12:16:58Z</time>
      </trkpt>
      <trkpt lat="44.25923" lon="6.91537">
        <ele>1287.2543055335</ele>
        <time>2019-06-23T12:17:01Z</time>
      </trkpt>
      <trkpt lat="44.25924" lon="6.91534">
        <ele>1287.6322809992</ele>
        <time>2019-06-23T12:17:05Z</time>
      </trkpt>
      <trkpt lat="44.25926" lon="6.91533">
        <ele>1288.0955303303</ele>
        <time>2019-06-23T12:17:13Z</time>
      </trkpt>
      <trkpt lat="44.25928" lon="6.91531">
        <ele>1288.6094274488</ele>
        <time>2019-06-23T12:17:37Z</time>
      </trkpt>
      <trkpt lat="44.25929" lon="6.91527">
        <ele>1288.9529014113</ele>
        <time>2019-06-23T12:17:41Z</time>
      </trkpt>
      <trkpt lat="44.2593" lon="6.91525">
        <ele>1289.1009983342</ele>
        <time>2019-06-23T12:17:46Z</time>
      </trkpt>
      <trkpt lat="44.25933" lon="6.91523">
        <ele>1289.4024125038</ele>
        <time>2019-06-23T12:17:54Z</time>
      </trkpt>
      <trkpt lat="44.25935" lon="6.91522">
        <ele>1289.8445874032</ele>
        <time>2019-06-23T12:17:56Z</time>
      </trkpt>
      <trkpt lat="44.25936" lon="6.9152">
        <ele>1290.4160684784</ele>
        <time>2019-06-23T12:17:58Z</time>
      </trkpt>
      <trkpt lat="44.25938" lon="6.91518">
        <ele>1290.7795750372</ele>
        <time>2019-06-23T12:18:00Z</time>
      </trkpt>
      <trkpt lat="44.25939" lon="6.91516">
        <ele>1291.2159615676</ele>
        <time>2019-06-23T12:18:02Z</time>
      </trkpt>
      <trkpt lat="44.2594" lon="6.91514">
        <ele>1291.5722724544</ele>
        <time>2019-06-23T12:18:04Z</time>
      </trkpt>
      <trkpt lat="44.25942" lon="6.91512">
        <ele>1292.1245792254</ele>
        <time>2019-06-23T12:18:10Z</time>
      </trkpt>
      <trkpt lat="44.25943" lon="6.9151">
        <ele>1292.5493969611</ele>
        <time>2019-06-23T12:18:12Z</time>
      </trkpt>
      <trkpt lat="44.25945" lon="6.91507">
        <ele>1293.300636517</ele>
        <time>2019-06-23T12:18:15Z</time>
      </trkpt>
      <trkpt lat="44.25946" lon="6.91505">
        <ele>1293.8876358055</ele>
        <time>2019-06-23T12:18:17Z</time>
      </trkpt>
      <trkpt lat="44.25947" lon="6.91503">
        <ele>1294.1237243042</ele>
        <time>2019-06-23T12:18:19Z</time>
      </trkpt>
      <trkpt lat="44.25949" lon="6.91501">
        <ele>1294.8007756637</ele>
        <time>2019-06-23T12:18:22Z</time>
      </trkpt>
      <trkpt lat="44.25951" lon="6.91501">
        <ele>1295.188893845</ele>
        <time>2019-06-23T12:18:28Z</time>
      </trkpt>
      <trkpt lat="44.25953" lon="6.91498">
        <ele>1295.8188206249</ele>
        <time>2019-06-23T12:18:30Z</time>
      </trkpt>
      <trkpt lat="44.25955" lon="6.91495">
        <ele>1296.4497585645</ele>
        <time>2019-06-23T12:18:32Z</time>
      </trkpt>
      <trkpt lat="44.25957" lon="6.91494">
        <ele>1296.9813352779</ele>
        <time>2019-06-23T12:18:34Z</time>
      </trkpt>
      <trkpt lat="44.25957" lon="6.9149">
        <ele>1297.4112198765</ele>
        <time>2019-06-23T12:18:38Z</time>
      </trkpt>
      <trkpt lat="44.25958" lon="6.91488">
        <ele>1297.5405564454</ele>
        <time>2019-06-23T12:18:41Z</time>
      </trkpt>
      <trkpt lat="44.2596" lon="6.91489">
        <ele>1298.0208796805</ele>
        <time>2019-06-23T12:18:45Z</time>
      </trkpt>
      <trkpt lat="44.25962" lon="6.91488">
        <ele>1298.4848125896</ele>
        <time>2019-06-23T12:18:48Z</time>
      </trkpt>
      <trkpt lat="44.25964" lon="6.91487">
        <ele>1299.0978231173</ele>
        <time>2019-06-23T12:18:52Z</time>
      </trkpt>
      <trkpt lat="44.25965" lon="6.91486">
        <ele>1299.3675434186</ele>
        <time>2019-06-23T12:18:57Z</time>
      </trkpt>
      <trkpt lat="44.25967" lon="6.91486">
        <ele>1300.254194311</ele>
        <time>2019-06-23T12:19:04Z</time>
      </trkpt>
      <trkpt lat="44.25969" lon="6.91484">
        <ele>1300.7387469062</ele>
        <time>2019-06-23T12:19:09Z</time>
      </trkpt>
      <trkpt lat="44.25971" lon="6.91482">
        <ele>1301.2745454715</ele>
        <time>2019-06-23T12:19:12Z</time>
      </trkpt>
      <trkpt lat="44.25973" lon="6.9148">
        <ele>1301.7677835604</ele>
        <time>2019-06-23T12:19:16Z</time>
      </trkpt>
      <trkpt lat="44.25973" lon="6.91478">
        <ele>1301.9164839319</ele>
        <time>2019-06-23T12:19:19Z</time>
      </trkpt>
      <trkpt lat="44.25974" lon="6.91475">
        <ele>1302.1637832671</ele>
        <time>2019-06-23T12:19:22Z</time>
      </trkpt>
      <trkpt lat="44.25976" lon="6.91473">
        <ele>1302.5466798706</ele>
        <time>2019-06-23T12:19:24Z</time>
      </trkpt>
      <trkpt lat="44.25978" lon="6.91473">
        <ele>1303.0926182117</ele>
        <time>2019-06-23T12:19:26Z</time>
      </trkpt>
      <trkpt lat="44.2598" lon="6.91472">
        <ele>1303.6237953685</ele>
        <time>2019-06-23T12:19:28Z</time>
      </trkpt>
      <trkpt lat="44.25981" lon="6.91474">
        <ele>1303.8665581562</ele>
        <time>2019-06-23T12:19:29Z</time>
      </trkpt>
      <trkpt lat="44.25982" lon="6.91472">
        <ele>1304.3698450324</ele>
        <time>2019-06-23T12:19:35Z</time>
      </trkpt>
      <trkpt lat="44.25984" lon="6.91471">
        <ele>1304.8621681758</ele>
        <time>2019-06-23T12:19:39Z</time>
      </trkpt>
      <trkpt lat="44.25986" lon="6.9147">
        <ele>1305.3801761709</ele>
        <time>2019-06-23T12:19:41Z</time>
      </trkpt>
      <trkpt lat="44.25988" lon="6.9147">
        <ele>1306.1975697216</ele>
        <time>2019-06-23T12:19:45Z</time>
      </trkpt>
      <trkpt lat="44.25991" lon="6.91471">
        <ele>1306.8502620528</ele>
        <time>2019-06-23T12:19:50Z</time>
      </trkpt>
      <trkpt lat="44.25993" lon="6.91469">
        <ele>1307.596360844</ele>
        <time>2019-06-23T12:19:53Z</time>
      </trkpt>
      <trkpt lat="44.25995" lon="6.91467">
        <ele>1308.1542099921</ele>
        <time>2019-06-23T12:19:55Z</time>
      </trkpt>
      <trkpt lat="44.25997" lon="6.91466">
        <ele>1308.7984438168</ele>
        <time>2019-06-23T12:19:59Z</time>
      </trkpt>
      <trkpt lat="44.25999" lon="6.91464">
        <ele>1309.2906375601</ele>
        <time>2019-06-23T12:20:01Z</time>
      </trkpt>
      <trkpt lat="44.26001" lon="6.91464">
        <ele>1309.873121754</ele>
        <time>2019-06-23T12:20:05Z</time>
      </trkpt>
      <trkpt lat="44.26003" lon="6.91464">
        <ele>1309.874716859</ele>
        <time>2019-06-23T12:20:07Z</time>
      </trkpt>
      <trkpt lat="44.26005" lon="6.91462">
        <ele>1309.8747329551</ele>
        <time>2019-06-23T12:20:10Z</time>
      </trkpt>
      <trkpt lat="44.26007" lon="6.91462">
        <ele>1309.874732971</ele>
        <time>2019-06-23T12:20:12Z</time>
      </trkpt>
      <trkpt lat="44.26009" lon="6.91462">
        <ele>1309.8747329712</ele>
        <time>2019-06-23T12:20:15Z</time>
      </trkpt>
      <trkpt lat="44.26009" lon="6.91458">
        <ele>1309.8747329712</ele>
        <time>2019-06-23T12:20:35Z</time>
      </trkpt>
      <trkpt lat="44.2601" lon="6.91455">
        <ele>1309.8747329712</ele>
        <time>2019-06-23T12:20:37Z</time>
      </trkpt>
      <trkpt lat="44.26011" lon="6.91452">
        <ele>1309.8747329712</ele>
        <time>2019-06-23T12:20:40Z</time>
      </trkpt>
      <trkpt lat="44.26012" lon="6.9145">
        <ele>1309.8747329712</ele>
        <time>2019-06-23T12:20:42Z</time>
      </trkpt>
      <trkpt lat="44.26014" lon="6.91448">
        <ele>1309.8747329712</ele>
        <time>2019-06-23T12:20:44Z</time>
      </trkpt>
      <trkpt lat="44.26016" lon="6.91446">
        <ele>1309.8747329712</ele>
        <time>2019-06-23T12:20:47Z</time>
      </trkpt>
      <trkpt lat="44.26018" lon="6.91445">
        <ele>1309.8747329712</ele>
        <time>2019-06-23T12:20:50Z</time>
      </trkpt>
      <trkpt lat="44.2602" lon="6.91444">
        <ele>1309.8747329712</ele>
        <time>2019-06-23T12:20:53Z</time>
      </trkpt>
      <trkpt lat="44.26022" lon="6.91442">
        <ele>1309.8747329712</ele>
        <time>2019-06-23T12:20:56Z</time>
      </trkpt>
      <trkpt lat="44.26023" lon="6.9144">
        <ele>1309.8747329712</ele>
        <time>2019-06-23T12:20:59Z</time>
      </trkpt>
      <trkpt lat="44.26025" lon="6.91438">
        <ele>1309.8747329712</ele>
        <time>2019-06-23T12:21:02Z</time>
      </trkpt>
      <trkpt lat="44.26026" lon="6.91437">
        <ele>1309.8747329712</ele>
        <time>2019-06-23T12:21:07Z</time>
      </trkpt>
      <trkpt lat="44.26029" lon="6.91436">
        <ele>1309.8747329712</ele>
        <time>2019-06-23T12:21:11Z</time>
      </trkpt>
      <trkpt lat="44.26031" lon="6.91435">
        <ele>1310.0453286743</ele>
        <time>2019-06-23T12:21:13Z</time>
      </trkpt>
      <trkpt lat="44.26033" lon="6.91434">
        <ele>1310.2842074829</ele>
        <time>2019-06-23T12:21:15Z</time>
      </trkpt>
      <trkpt lat="44.26034" lon="6.91433">
        <ele>1310.5257352191</ele>
        <time>2019-06-23T12:21:18Z</time>
      </trkpt>
      <trkpt lat="44.26035" lon="6.9143">
        <ele>1310.8051892213</ele>
        <time>2019-06-23T12:21:22Z</time>
      </trkpt>
      <trkpt lat="44.26037" lon="6.91428">
        <ele>1311.1737335786</ele>
        <time>2019-06-23T12:21:24Z</time>
      </trkpt>
      <trkpt lat="44.26039" lon="6.91427">
        <ele>1311.6696614538</ele>
        <time>2019-06-23T12:21:26Z</time>
      </trkpt>
      <trkpt lat="44.26042" lon="6.91425">
        <ele>1312.3785454778</ele>
        <time>2019-06-23T12:21:29Z</time>
      </trkpt>
      <trkpt lat="44.26043" lon="6.91423">
        <ele>1313.175745336</ele>
        <time>2019-06-23T12:21:34Z</time>
      </trkpt>
      <trkpt lat="44.26046" lon="6.91423">
        <ele>1313.6850018053</ele>
        <time>2019-06-23T12:21:38Z</time>
      </trkpt>
      <trkpt lat="44.26046" lon="6.9142">
        <ele>1314.2148180814</ele>
        <time>2019-06-23T12:21:40Z</time>
      </trkpt>
      <trkpt lat="44.26048" lon="6.91419">
        <ele>1315.0414520422</ele>
        <time>2019-06-23T12:21:45Z</time>
      </trkpt>
      <trkpt lat="44.2605" lon="6.91418">
        <ele>1315.7036302811</ele>
        <time>2019-06-23T12:21:48Z</time>
      </trkpt>
      <trkpt lat="44.26051" lon="6.91416">
        <ele>1316.3817652995</ele>
        <time>2019-06-23T12:21:53Z</time>
      </trkpt>
      <trkpt lat="44.26053" lon="6.91414">
        <ele>1317.0775879079</ele>
        <time>2019-06-23T12:21:59Z</time>
      </trkpt>
      <trkpt lat="44.26054" lon="6.91412">
        <ele>1317.4097192842</ele>
        <time>2019-06-23T12:22:01Z</time>
      </trkpt>
      <trkpt lat="44.26055" lon="6.9141">
        <ele>1317.759747141</ele>
        <time>2019-06-23T12:22:03Z</time>
      </trkpt>
      <trkpt lat="44.26057" lon="6.91407">
        <ele>1318.0277103102</ele>
        <time>2019-06-23T12:22:05Z</time>
      </trkpt>
      <trkpt lat="44.26058" lon="6.91405">
        <ele>1318.129003014</ele>
        <time>2019-06-23T12:22:08Z</time>
      </trkpt>
      <trkpt lat="44.2606" lon="6.91406">
        <ele>1318.4215787107</ele>
        <time>2019-06-23T12:22:12Z</time>
      </trkpt>
      <trkpt lat="44.26063" lon="6.91404">
        <ele>1318.7307368482</ele>
        <time>2019-06-23T12:22:15Z</time>
      </trkpt>
      <trkpt lat="44.26064" lon="6.91404">
        <ele>1318.920538437</ele>
        <time>2019-06-23T12:22:16Z</time>
      </trkpt>
      <trkpt lat="44.26066" lon="6.91402">
        <ele>1319.2079809251</ele>
        <time>2019-06-23T12:22:19Z</time>
      </trkpt>
      <trkpt lat="44.26068" lon="6.914">
        <ele>1319.8680292318</ele>
        <time>2019-06-23T12:22:22Z</time>
      </trkpt>
      <trkpt lat="44.2607" lon="6.91397">
        <ele>1320.5197709452</ele>
        <time>2019-06-23T12:22:25Z</time>
      </trkpt>
      <trkpt lat="44.26071" lon="6.91395">
        <ele>1321.4208368715</ele>
        <time>2019-06-23T12:22:28Z</time>
      </trkpt>
      <trkpt lat="44.26073" lon="6.91394">
        <ele>1322.1272289433</ele>
        <time>2019-06-23T12:22:34Z</time>
      </trkpt>
      <trkpt lat="44.26073" lon="6.91394">
        <ele>1322.1325453187</ele>
        <time>2019-06-23T12:22:40Z</time>
      </trkpt>
      <trkpt lat="44.26075" lon="6.91392">
        <ele>1322.7152014957</ele>
        <time>2019-06-23T12:22:49Z</time>
      </trkpt>
      <trkpt lat="44.26077" lon="6.9139">
        <ele>1323.6321385268</ele>
        <time>2019-06-23T12:22:54Z</time>
      </trkpt>
      <trkpt lat="44.26079" lon="6.91388">
        <ele>1324.5347247517</ele>
        <time>2019-06-23T12:22:57Z</time>
      </trkpt>
      <trkpt lat="44.2608" lon="6.91387">
        <ele>1324.8644444613</ele>
        <time>2019-06-23T12:22:59Z</time>
      </trkpt>
      <trkpt lat="44.26083" lon="6.91385">
        <ele>1325.5861960048</ele>
        <time>2019-06-23T12:23:03Z</time>
      </trkpt>
      <trkpt lat="44.26084" lon="6.91384">
        <ele>1326.0693817812</ele>
        <time>2019-06-23T12:23:05Z</time>
      </trkpt>
      <trkpt lat="44.26086" lon="6.91382">
        <ele>1326.1835715491</ele>
        <time>2019-06-23T12:23:07Z</time>
      </trkpt>
      <trkpt lat="44.26089" lon="6.91381">
        <ele>1326.3884878609</ele>
        <time>2019-06-23T12:23:09Z</time>
      </trkpt>
      <trkpt lat="44.2609" lon="6.91378">
        <ele>1326.7268003149</ele>
        <time>2019-06-23T12:23:12Z</time>
      </trkpt>
      <trkpt lat="44.2609" lon="6.91375">
        <ele>1326.9632512983</ele>
        <time>2019-06-23T12:23:15Z</time>
      </trkpt>
      <trkpt lat="44.26091" lon="6.91373">
        <ele>1327.1657503191</ele>
        <time>2019-06-23T12:23:19Z</time>
      </trkpt>
      <trkpt lat="44.26093" lon="6.91372">
        <ele>1327.5950606472</ele>
        <time>2019-06-23T12:23:29Z</time>
      </trkpt>
      <trkpt lat="44.26094" lon="6.9137">
        <ele>1328.0874098746</ele>
        <time>2019-06-23T12:23:33Z</time>
      </trkpt>
      <trkpt lat="44.26095" lon="6.91367">
        <ele>1328.6803263614</ele>
        <time>2019-06-23T12:23:38Z</time>
      </trkpt>
      <trkpt lat="44.26096" lon="6.91363">
        <ele>1329.2204153252</ele>
        <time>2019-06-23T12:23:43Z</time>
      </trkpt>
      <trkpt lat="44.26099" lon="6.91362">
        <ele>1330.1120128576</ele>
        <time>2019-06-23T12:23:46Z</time>
      </trkpt>
      <trkpt lat="44.26101" lon="6.9136">
        <ele>1331.0203600195</ele>
        <time>2019-06-23T12:23:50Z</time>
      </trkpt>
      <trkpt lat="44.26103" lon="6.91358">
        <ele>1331.5757656577</ele>
        <time>2019-06-23T12:23:52Z</time>
      </trkpt>
      <trkpt lat="44.26105" lon="6.91356">
        <ele>1332.0434596067</ele>
        <time>2019-06-23T12:23:54Z</time>
      </trkpt>
      <trkpt lat="44.26107" lon="6.91353">
        <ele>1332.6415155894</ele>
        <time>2019-06-23T12:23:57Z</time>
      </trkpt>
      <trkpt lat="44.26108" lon="6.91351">
        <ele>1333.1122098368</ele>
        <time>2019-06-23T12:24:00Z</time>
      </trkpt>
      <trkpt lat="44.26109" lon="6.91348">
        <ele>1333.4076096082</ele>
        <time>2019-06-23T12:24:03Z</time>
      </trkpt>
      <trkpt lat="44.2611" lon="6.91346">
        <ele>1333.7767585319</ele>
        <time>2019-06-23T12:24:08Z</time>
      </trkpt>
      <trkpt lat="44.26111" lon="6.91344">
        <ele>1334.169699279</ele>
        <time>2019-06-23T12:24:13Z</time>
      </trkpt>
      <trkpt lat="44.26113" lon="6.91342">
        <ele>1334.1828383085</ele>
        <time>2019-06-23T12:24:18Z</time>
      </trkpt>
      <trkpt lat="44.26115" lon="6.91342">
        <ele>1334.1828384398</ele>
        <time>2019-06-23T12:24:21Z</time>
      </trkpt>
      <trkpt lat="44.26117" lon="6.91341">
        <ele>1334.1828384399</ele>
        <time>2019-06-23T12:24:23Z</time>
      </trkpt>
      <trkpt lat="44.26118" lon="6.9134">
        <ele>1334.1828384399</ele>
        <time>2019-06-23T12:24:26Z</time>
      </trkpt>
      <trkpt lat="44.2612" lon="6.91338">
        <ele>1334.1828384399</ele>
        <time>2019-06-23T12:24:29Z</time>
      </trkpt>
      <trkpt lat="44.26122" lon="6.91336">
        <ele>1334.1828384399</ele>
        <time>2019-06-23T12:24:31Z</time>
      </trkpt>
      <trkpt lat="44.26124" lon="6.91334">
        <ele>1334.1828384399</ele>
        <time>2019-06-23T12:24:33Z</time>
      </trkpt>
      <trkpt lat="44.26125" lon="6.91333">
        <ele>1334.2715310669</ele>
        <time>2019-06-23T12:24:36Z</time>
      </trkpt>
      <trkpt lat="44.26125" lon="6.9133">
        <ele>1334.5477347498</ele>
        <time>2019-06-23T12:24:39Z</time>
      </trkpt>
      <trkpt lat="44.26127" lon="6.91329">
        <ele>1334.7957043128</ele>
        <time>2019-06-23T12:24:42Z</time>
      </trkpt>
      <trkpt lat="44.26129" lon="6.91328">
        <ele>1335.2236654171</ele>
        <time>2019-06-23T12:24:45Z</time>
      </trkpt>
      <trkpt lat="44.2613" lon="6.91326">
        <ele>1335.6210536485</ele>
        <time>2019-06-23T12:25:00Z</time>
      </trkpt>
      <trkpt lat="44.26128" lon="6.91324">
        <ele>1335.7696960887</ele>
        <time>2019-06-23T12:25:03Z</time>
      </trkpt>
      <trkpt lat="44.26126" lon="6.91325">
        <ele>1335.571802521</ele>
        <time>2019-06-23T12:25:12Z</time>
      </trkpt>
      <trkpt lat="44.26124" lon="6.91324">
        <ele>1335.4700441765</ele>
        <time>2019-06-23T12:25:15Z</time>
      </trkpt>
      <trkpt lat="44.26124" lon="6.91321">
        <ele>1335.7921323339</ele>
        <time>2019-06-23T12:25:19Z</time>
      </trkpt>
      <trkpt lat="44.26126" lon="6.9132">
        <ele>1336.1446568074</ele>
        <time>2019-06-23T12:25:26Z</time>
      </trkpt>
      <trkpt lat="44.26128" lon="6.9132">
        <ele>1336.441560146</ele>
        <time>2019-06-23T12:25:29Z</time>
      </trkpt>
      <trkpt lat="44.26129" lon="6.91318">
        <ele>1336.8162606179</ele>
        <time>2019-06-23T12:25:31Z</time>
      </trkpt>
      <trkpt lat="44.26131" lon="6.91317">
        <ele>1337.4244364013</ele>
        <time>2019-06-23T12:25:35Z</time>
      </trkpt>
      <trkpt lat="44.26134" lon="6.91316">
        <ele>1338.0980280359</ele>
        <time>2019-06-23T12:25:38Z</time>
      </trkpt>
      <trkpt lat="44.26135" lon="6.91314">
        <ele>1338.9099270474</ele>
        <time>2019-06-23T12:25:43Z</time>
      </trkpt>
      <trkpt lat="44.26135" lon="6.91311">
        <ele>1339.4532049328</ele>
        <time>2019-06-23T12:25:46Z</time>
      </trkpt>
      <trkpt lat="44.26134" lon="6.91308">
        <ele>1340.0526819974</ele>
        <time>2019-06-23T12:25:48Z</time>
      </trkpt>
      <trkpt lat="44.26133" lon="6.91305">
        <ele>1340.2877727366</ele>
        <time>2019-06-23T12:25:51Z</time>
      </trkpt>
      <trkpt lat="44.26132" lon="6.91303">
        <ele>1340.3302806052</ele>
        <time>2019-06-23T12:25:53Z</time>
      </trkpt>
      <trkpt lat="44.26131" lon="6.91299">
        <ele>1340.0786024124</ele>
        <time>2019-06-23T12:25:55Z</time>
      </trkpt>
      <trkpt lat="44.2613" lon="6.91295">
        <ele>1339.7656998883</ele>
        <time>2019-06-23T12:25:57Z</time>
      </trkpt>
      <trkpt lat="44.26131" lon="6.91293">
        <ele>1339.7837085583</ele>
        <time>2019-06-23T12:25:59Z</time>
      </trkpt>
      <trkpt lat="44.26131" lon="6.91289">
        <ele>1340.0917405796</ele>
        <time>2019-06-23T12:26:02Z</time>
      </trkpt>
      <trkpt lat="44.26132" lon="6.91286">
        <ele>1340.1301316194</ele>
        <time>2019-06-23T12:26:05Z</time>
      </trkpt>
      <trkpt lat="44.26133" lon="6.91283">
        <ele>1340.3380704251</ele>
        <time>2019-06-23T12:26:09Z</time>
      </trkpt>
      <trkpt lat="44.26134" lon="6.9128">
        <ele>1340.6221227002</ele>
        <time>2019-06-23T12:26:12Z</time>
      </trkpt>
      <trkpt lat="44.26133" lon="6.91277">
        <ele>1340.6492613118</ele>
        <time>2019-06-23T12:26:14Z</time>
      </trkpt>
      <trkpt lat="44.26134" lon="6.91274">
        <ele>1340.4780910476</ele>
        <time>2019-06-23T12:26:16Z</time>
      </trkpt>
      <trkpt lat="44.26135" lon="6.91271">
        <ele>1340.8080016594</ele>
        <time>2019-06-23T12:26:18Z</time>
      </trkpt>
      <trkpt lat="44.26137" lon="6.9127">
        <ele>1341.3708340866</ele>
        <time>2019-06-23T12:26:21Z</time>
      </trkpt>
      <trkpt lat="44.26139" lon="6.91267">
        <ele>1342.0399161503</ele>
        <time>2019-06-23T12:26:23Z</time>
      </trkpt>
      <trkpt lat="44.2614" lon="6.91265">
        <ele>1342.5284014045</ele>
        <time>2019-06-23T12:26:25Z</time>
      </trkpt>
      <trkpt lat="44.26142" lon="6.91261">
        <ele>1342.9094361594</ele>
        <time>2019-06-23T12:26:27Z</time>
      </trkpt>
      <trkpt lat="44.26143" lon="6.91258">
        <ele>1343.3326276105</ele>
        <time>2019-06-23T12:26:29Z</time>
      </trkpt>
      <trkpt lat="44.26145" lon="6.91255">
        <ele>1343.8015445321</ele>
        <time>2019-06-23T12:26:33Z</time>
      </trkpt>
      <trkpt lat="44.26146" lon="6.91253">
        <ele>1344.1116019214</ele>
        <time>2019-06-23T12:26:36Z</time>
      </trkpt>
      <trkpt lat="44.26148" lon="6.91251">
        <ele>1344.5613411626</ele>
        <time>2019-06-23T12:26:38Z</time>
      </trkpt>
      <trkpt lat="44.2615" lon="6.9125">
        <ele>1345.2231443108</ele>
        <time>2019-06-23T12:26:41Z</time>
      </trkpt>
      <trkpt lat="44.26151" lon="6.91249">
        <ele>1345.5947712763</ele>
        <time>2019-06-23T12:26:47Z</time>
      </trkpt>
      <trkpt lat="44.26153" lon="6.91247">
        <ele>1345.7459228581</ele>
        <time>2019-06-23T12:26:50Z</time>
      </trkpt>
      <trkpt lat="44.26155" lon="6.91246">
        <ele>1346.1997983983</ele>
        <time>2019-06-23T12:26:54Z</time>
      </trkpt>
      <trkpt lat="44.26156" lon="6.91243">
        <ele>1346.4802388228</ele>
        <time>2019-06-23T12:26:57Z</time>
      </trkpt>
      <trkpt lat="44.26158" lon="6.91242">
        <ele>1346.9288548345</ele>
        <time>2019-06-23T12:27:00Z</time>
      </trkpt>
      <trkpt lat="44.2616" lon="6.9124">
        <ele>1347.3324720136</ele>
        <time>2019-06-23T12:27:14Z</time>
      </trkpt>
      <trkpt lat="44.26162" lon="6.91238">
        <ele>1348.0859296804</ele>
        <time>2019-06-23T12:27:24Z</time>
      </trkpt>
      <trkpt lat="44.26163" lon="6.91235">
        <ele>1348.5361112822</ele>
        <time>2019-06-23T12:27:27Z</time>
      </trkpt>
      <trkpt lat="44.26163" lon="6.91232">
        <ele>1348.585834059</ele>
        <time>2019-06-23T12:27:29Z</time>
      </trkpt>
      <trkpt lat="44.26164" lon="6.9123">
        <ele>1348.8310407594</ele>
        <time>2019-06-23T12:27:31Z</time>
      </trkpt>
      <trkpt lat="44.26164" lon="6.91227">
        <ele>1348.718074777</ele>
        <time>2019-06-23T12:27:34Z</time>
      </trkpt>
      <trkpt lat="44.26165" lon="6.91224">
        <ele>1348.8806151197</ele>
        <time>2019-06-23T12:27:36Z</time>
      </trkpt>
      <trkpt lat="44.26167" lon="6.91221">
        <ele>1349.7990581893</ele>
        <time>2019-06-23T12:27:39Z</time>
      </trkpt>
      <trkpt lat="44.26168" lon="6.9122">
        <ele>1350.0604064419</ele>
        <time>2019-06-23T12:27:42Z</time>
      </trkpt>
      <trkpt lat="44.26171" lon="6.91218">
        <ele>1350.3595828345</ele>
        <time>2019-06-23T12:27:47Z</time>
      </trkpt>
      <trkpt lat="44.26172" lon="6.91216">
        <ele>1350.5124161852</ele>
        <time>2019-06-23T12:27:51Z</time>
      </trkpt>
      <trkpt lat="44.26173" lon="6.91214">
        <ele>1350.5990785401</ele>
        <time>2019-06-23T12:27:54Z</time>
      </trkpt>
      <trkpt lat="44.26174" lon="6.91212">
        <ele>1350.2831782981</ele>
        <time>2019-06-23T12:27:59Z</time>
      </trkpt>
      <trkpt lat="44.26176" lon="6.91211">
        <ele>1350.7307146754</ele>
        <time>2019-06-23T12:28:10Z</time>
      </trkpt>
      <trkpt lat="44.26178" lon="6.91211">
        <ele>1351.2902788722</ele>
        <time>2019-06-23T12:28:12Z</time>
      </trkpt>
      <trkpt lat="44.2618" lon="6.91212">
        <ele>1352.244115481</ele>
        <time>2019-06-23T12:28:14Z</time>
      </trkpt>
      <trkpt lat="44.26182" lon="6.91213">
        <ele>1353.4445586525</ele>
        <time>2019-06-23T12:28:17Z</time>
      </trkpt>
      <trkpt lat="44.26185" lon="6.91213">
        <ele>1354.3827511611</ele>
        <time>2019-06-23T12:28:20Z</time>
      </trkpt>
      <trkpt lat="44.26186" lon="6.91215">
        <ele>1355.0874526593</ele>
        <time>2019-06-23T12:28:23Z</time>
      </trkpt>
      <trkpt lat="44.26188" lon="6.91213">
        <ele>1355.5805885815</ele>
        <time>2019-06-23T12:28:27Z</time>
      </trkpt>
      <trkpt lat="44.26189" lon="6.91211">
        <ele>1355.8201598408</ele>
        <time>2019-06-23T12:28:28Z</time>
      </trkpt>
      <trkpt lat="44.2619" lon="6.91206">
        <ele>1356.306561943</ele>
        <time>2019-06-23T12:28:31Z</time>
      </trkpt>
      <trkpt lat="44.26192" lon="6.91203">
        <ele>1356.7326889562</ele>
        <time>2019-06-23T12:28:33Z</time>
      </trkpt>
      <trkpt lat="44.26193" lon="6.91201">
        <ele>1357.4034248357</ele>
        <time>2019-06-23T12:28:35Z</time>
      </trkpt>
      <trkpt lat="44.26193" lon="6.91198">
        <ele>1357.9188651047</ele>
        <time>2019-06-23T12:28:37Z</time>
      </trkpt>
      <trkpt lat="44.26194" lon="6.91196">
        <ele>1358.1764078406</ele>
        <time>2019-06-23T12:28:40Z</time>
      </trkpt>
      <trkpt lat="44.26194" lon="6.91193">
        <ele>1358.1388951211</ele>
        <time>2019-06-23T12:28:44Z</time>
      </trkpt>
      <trkpt lat="44.26194" lon="6.9119">
        <ele>1358.3463874025</ele>
        <time>2019-06-23T12:28:48Z</time>
      </trkpt>
      <trkpt lat="44.26193" lon="6.91187">
        <ele>1357.9543501334</ele>
        <time>2019-06-23T12:28:51Z</time>
      </trkpt>
      <trkpt lat="44.26193" lon="6.91184">
        <ele>1357.8062383713</ele>
        <time>2019-06-23T12:28:53Z</time>
      </trkpt>
      <trkpt lat="44.26194" lon="6.91181">
        <ele>1358.1059913846</ele>
        <time>2019-06-23T12:28:55Z</time>
      </trkpt>
      <trkpt lat="44.26194" lon="6.91178">
        <ele>1358.242725487</ele>
        <time>2019-06-23T12:28:57Z</time>
      </trkpt>
      <trkpt lat="44.26193" lon="6.91174">
        <ele>1357.8905088436</ele>
        <time>2019-06-23T12:28:59Z</time>
      </trkpt>
      <trkpt lat="44.26194" lon="6.91171">
        <ele>1358.085597517</ele>
        <time>2019-06-23T12:29:01Z</time>
      </trkpt>
      <trkpt lat="44.26195" lon="6.91168">
        <ele>1358.6190731082</ele>
        <time>2019-06-23T12:29:04Z</time>
      </trkpt>
      <trkpt lat="44.26196" lon="6.91165">
        <ele>1358.8312193413</ele>
        <time>2019-06-23T12:29:06Z</time>
      </trkpt>
      <trkpt lat="44.26196" lon="6.91162">
        <ele>1358.9818897069</ele>
        <time>2019-06-23T12:29:13Z</time>
      </trkpt>
      <trkpt lat="44.26196" lon="6.91159">
        <ele>1358.8782173252</ele>
        <time>2019-06-23T12:29:16Z</time>
      </trkpt>
      <trkpt lat="44.26195" lon="6.91156">
        <ele>1358.6789886528</ele>
        <time>2019-06-23T12:29:19Z</time>
      </trkpt>
      <trkpt lat="44.26195" lon="6.91153">
        <ele>1358.5854616653</ele>
        <time>2019-06-23T12:29:22Z</time>
      </trkpt>
      <trkpt lat="44.26195" lon="6.91151">
        <ele>1358.6555696764</ele>
        <time>2019-06-23T12:29:25Z</time>
      </trkpt>
      <trkpt lat="44.26194" lon="6.91148">
        <ele>1358.2125996233</ele>
        <time>2019-06-23T12:29:28Z</time>
      </trkpt>
      <trkpt lat="44.26193" lon="6.91144">
        <ele>1357.8755737959</ele>
        <time>2019-06-23T12:29:30Z</time>
      </trkpt>
      <trkpt lat="44.26194" lon="6.91142">
        <ele>1358.0684996812</ele>
        <time>2019-06-23T12:29:33Z</time>
      </trkpt>
      <trkpt lat="44.26195" lon="6.91139">
        <ele>1358.5035834801</ele>
        <time>2019-06-23T12:29:35Z</time>
      </trkpt>
      <trkpt lat="44.26195" lon="6.91136">
        <ele>1358.7283370414</ele>
        <time>2019-06-23T12:29:38Z</time>
      </trkpt>
      <trkpt lat="44.26196" lon="6.91133">
        <ele>1358.7858994415</ele>
        <time>2019-06-23T12:29:41Z</time>
      </trkpt>
      <trkpt lat="44.26198" lon="6.91131">
        <ele>1359.2064447336</ele>
        <time>2019-06-23T12:29:43Z</time>
      </trkpt>
      <trkpt lat="44.26198" lon="6.91129">
        <ele>1359.4290583896</ele>
        <time>2019-06-23T12:29:45Z</time>
      </trkpt>
      <trkpt lat="44.262" lon="6.91128">
        <ele>1360.0802333411</ele>
        <time>2019-06-23T12:29:50Z</time>
      </trkpt>
      <trkpt lat="44.26202" lon="6.91126">
        <ele>1360.3572423887</ele>
        <time>2019-06-23T12:30:05Z</time>
      </trkpt>
      <trkpt lat="44.26202" lon="6.91122">
        <ele>1360.7465005148</ele>
        <time>2019-06-23T12:30:08Z</time>
      </trkpt>
      <trkpt lat="44.26203" lon="6.9112">
        <ele>1360.915517297</ele>
        <time>2019-06-23T12:30:10Z</time>
      </trkpt>
      <trkpt lat="44.26203" lon="6.91117">
        <ele>1360.9315972418</ele>
        <time>2019-06-23T12:30:13Z</time>
      </trkpt>
      <trkpt lat="44.26205" lon="6.91114">
        <ele>1361.2121821694</ele>
        <time>2019-06-23T12:30:16Z</time>
      </trkpt>
      <trkpt lat="44.26207" lon="6.91111">
        <ele>1361.7213505718</ele>
        <time>2019-06-23T12:30:19Z</time>
      </trkpt>
      <trkpt lat="44.26209" lon="6.91109">
        <ele>1362.4313595476</ele>
        <time>2019-06-23T12:30:21Z</time>
      </trkpt>
      <trkpt lat="44.26211" lon="6.91108">
        <ele>1363.0811775372</ele>
        <time>2019-06-23T12:30:24Z</time>
      </trkpt>
      <trkpt lat="44.26213" lon="6.91107">
        <ele>1363.432342727</ele>
        <time>2019-06-23T12:30:28Z</time>
      </trkpt>
      <trkpt lat="44.26215" lon="6.91106">
        <ele>1364.241007622</ele>
        <time>2019-06-23T12:30:31Z</time>
      </trkpt>
      <trkpt lat="44.26217" lon="6.91105">
        <ele>1364.8224618798</ele>
        <time>2019-06-23T12:30:33Z</time>
      </trkpt>
      <trkpt lat="44.2622" lon="6.91103">
        <ele>1365.6435907343</ele>
        <time>2019-06-23T12:30:36Z</time>
      </trkpt>
      <trkpt lat="44.26222" lon="6.91101">
        <ele>1366.1014974766</ele>
        <time>2019-06-23T12:30:38Z</time>
      </trkpt>
      <trkpt lat="44.26223" lon="6.91099">
        <ele>1366.5727867491</ele>
        <time>2019-06-23T12:30:40Z</time>
      </trkpt>
      <trkpt lat="44.26225" lon="6.91096">
        <ele>1367.1029257759</ele>
        <time>2019-06-23T12:30:43Z</time>
      </trkpt>
      <trkpt lat="44.26226" lon="6.91095">
        <ele>1367.4626960516</ele>
        <time>2019-06-23T12:30:45Z</time>
      </trkpt>
      <trkpt lat="44.26229" lon="6.91093">
        <ele>1368.140480114</ele>
        <time>2019-06-23T12:30:48Z</time>
      </trkpt>
      <trkpt lat="44.2623" lon="6.91091">
        <ele>1368.6747009033</ele>
        <time>2019-06-23T12:30:52Z</time>
      </trkpt>
      <trkpt lat="44.26231" lon="6.91088">
        <ele>1368.9240230514</ele>
        <time>2019-06-23T12:30:55Z</time>
      </trkpt>
      <trkpt lat="44.26232" lon="6.91086">
        <ele>1369.2529994847</ele>
        <time>2019-06-23T12:30:59Z</time>
      </trkpt>
      <trkpt lat="44.26234" lon="6.91085">
        <ele>1369.6733349926</ele>
        <time>2019-06-23T12:31:02Z</time>
      </trkpt>
      <trkpt lat="44.26236" lon="6.91085">
        <ele>1370.3408902158</ele>
        <time>2019-06-23T12:31:05Z</time>
      </trkpt>
      <trkpt lat="44.26238" lon="6.91084">
        <ele>1371.1243108683</ele>
        <time>2019-06-23T12:31:12Z</time>
      </trkpt>
      <trkpt lat="44.2624" lon="6.91081">
        <ele>1371.6160211216</ele>
        <time>2019-06-23T12:31:19Z</time>
      </trkpt>
      <trkpt lat="44.26241" lon="6.91079">
        <ele>1371.8937321939</ele>
        <time>2019-06-23T12:31:22Z</time>
      </trkpt>
      <trkpt lat="44.26243" lon="6.91077">
        <ele>1372.3989140798</ele>
        <time>2019-06-23T12:31:25Z</time>
      </trkpt>
      <trkpt lat="44.26241" lon="6.91078">
        <ele>1372.0827922751</ele>
        <time>2019-06-23T12:31:33Z</time>
      </trkpt>
      <trkpt lat="44.26238" lon="6.91078">
        <ele>1371.4986057425</ele>
        <time>2019-06-23T12:31:37Z</time>
      </trkpt>
      <trkpt lat="44.26236" lon="6.91077">
        <ele>1370.788930942</ele>
        <time>2019-06-23T12:31:41Z</time>
      </trkpt>
      <trkpt lat="44.26235" lon="6.91076">
        <ele>1370.2633857402</ele>
        <time>2019-06-23T12:31:47Z</time>
      </trkpt>
      <trkpt lat="44.26235" lon="6.91079">
        <ele>1370.2141178379</ele>
        <time>2019-06-23T12:31:52Z</time>
      </trkpt>
      <trkpt lat="44.26236" lon="6.91077">
        <ele>1370.6200109101</ele>
        <time>2019-06-23T12:32:13Z</time>
      </trkpt>
      <trkpt lat="44.26236" lon="6.91075">
        <ele>1370.6604645773</ele>
        <time>2019-06-23T12:32:16Z</time>
      </trkpt>
      <trkpt lat="44.26238" lon="6.91073">
        <ele>1370.9217544206</ele>
        <time>2019-06-23T12:32:19Z</time>
      </trkpt>
      <trkpt lat="44.26237" lon="6.9107">
        <ele>1370.9689101357</ele>
        <time>2019-06-23T12:32:27Z</time>
      </trkpt>
      <trkpt lat="44.26235" lon="6.91069">
        <ele>1370.4149284119</ele>
        <time>2019-06-23T12:32:31Z</time>
      </trkpt>
      <trkpt lat="44.26235" lon="6.91069">
        <ele>1370.2985523199</ele>
        <time>2019-06-23T12:32:32Z</time>
      </trkpt>
      <trkpt lat="44.26234" lon="6.91067">
        <ele>1370.1140207414</ele>
        <time>2019-06-23T12:32:55Z</time>
      </trkpt>
      <trkpt lat="44.26235" lon="6.91069">
        <ele>1370.1394837615</ele>
        <time>2019-06-23T12:33:23Z</time>
      </trkpt>
      <trkpt lat="44.26237" lon="6.91069">
        <ele>1370.7499130962</ele>
        <time>2019-06-23T12:33:27Z</time>
      </trkpt>
      <trkpt lat="44.26235" lon="6.91067">
        <ele>1370.5499925494</ele>
        <time>2019-06-23T12:33:52Z</time>
      </trkpt>
      <trkpt lat="44.26233" lon="6.91067">
        <ele>1369.9803625201</ele>
        <time>2019-06-23T12:33:54Z</time>
      </trkpt>
      <trkpt lat="44.26231" lon="6.91067">
        <ele>1369.3194416104</ele>
        <time>2019-06-23T12:33:56Z</time>
      </trkpt>
      <trkpt lat="44.26228" lon="6.91067">
        <ele>1368.6669483097</ele>
        <time>2019-06-23T12:33:59Z</time>
      </trkpt>
      <trkpt lat="44.26227" lon="6.91065">
        <ele>1368.0762818651</ele>
        <time>2019-06-23T12:34:05Z</time>
      </trkpt>
      <trkpt lat="44.26229" lon="6.91066">
        <ele>1368.4984818711</ele>
        <time>2019-06-23T12:34:42Z</time>
      </trkpt>
      <trkpt lat="44.26231" lon="6.91064">
        <ele>1368.9990786557</ele>
        <time>2019-06-23T12:34:47Z</time>
      </trkpt>
      <trkpt lat="44.26233" lon="6.91062">
        <ele>1369.4854983296</ele>
        <time>2019-06-23T12:34:52Z</time>
      </trkpt>
      <trkpt lat="44.26233" lon="6.9106">
        <ele>1369.8069975451</ele>
        <time>2019-06-23T12:34:55Z</time>
      </trkpt>
      <trkpt lat="44.26235" lon="6.91061">
        <ele>1370.1184063255</ele>
        <time>2019-06-23T12:35:09Z</time>
      </trkpt>
      <trkpt lat="44.26234" lon="6.91059">
        <ele>1369.9743911914</ele>
        <time>2019-06-23T12:35:25Z</time>
      </trkpt>
      <trkpt lat="44.26234" lon="6.91062">
        <ele>1369.9960542795</ele>
        <time>2019-06-23T12:35:44Z</time>
      </trkpt>
      <trkpt lat="44.26236" lon="6.91062">
        <ele>1370.4609044497</ele>
        <time>2019-06-23T12:35:52Z</time>
      </trkpt>
      <trkpt lat="44.26235" lon="6.91065">
        <ele>1370.2533883646</ele>
        <time>2019-06-23T12:36:01Z</time>
      </trkpt>
      <trkpt lat="44.26235" lon="6.91068">
        <ele>1370.2410630129</ele>
        <time>2019-06-23T12:36:07Z</time>
      </trkpt>
      <trkpt lat="44.26236" lon="6.9107">
        <ele>1370.719550781</ele>
        <time>2019-06-23T12:36:11Z</time>
      </trkpt>
      <trkpt lat="44.26235" lon="6.91069">
        <ele>1370.2503871826</ele>
        <time>2019-06-23T12:36:23Z</time>
      </trkpt>
      <trkpt lat="44.26237" lon="6.91068">
        <ele>1370.5968972902</ele>
        <time>2019-06-23T12:36:30Z</time>
      </trkpt>
      <trkpt lat="44.26239" lon="6.91068">
        <ele>1371.2575424583</ele>
        <time>2019-06-23T12:36:45Z</time>
      </trkpt>
      <trkpt lat="44.2624" lon="6.91069">
        <ele>1371.7862922468</ele>
        <time>2019-06-23T12:37:25Z</time>
      </trkpt>
      <trkpt lat="44.26239" lon="6.91069">
        <ele>1371.645750567</ele>
        <time>2019-06-23T12:37:43Z</time>
      </trkpt>
      <trkpt lat="44.26237" lon="6.91068">
        <ele>1371.2194024773</ele>
        <time>2019-06-23T12:37:50Z</time>
      </trkpt>
      <trkpt lat="44.26235" lon="6.91067">
        <ele>1370.6534872834</ele>
        <time>2019-06-23T12:37:52Z</time>
      </trkpt>
      <trkpt lat="44.26234" lon="6.91064">
        <ele>1370.1432023993</ele>
        <time>2019-06-23T12:37:55Z</time>
      </trkpt>
      <trkpt lat="44.26234" lon="6.91061">
        <ele>1370.0936985842</ele>
        <time>2019-06-23T12:37:58Z</time>
      </trkpt>
      <trkpt lat="44.26233" lon="6.91059">
        <ele>1369.8192226888</ele>
        <time>2019-06-23T12:38:01Z</time>
      </trkpt>
      <trkpt lat="44.26233" lon="6.91062">
        <ele>1369.7881309694</ele>
        <time>2019-06-23T12:38:07Z</time>
      </trkpt>
      <trkpt lat="44.26231" lon="6.91062">
        <ele>1369.3732735805</ele>
        <time>2019-06-23T12:38:15Z</time>
      </trkpt>
      <trkpt lat="44.26229" lon="6.91062">
        <ele>1368.6526739874</ele>
        <time>2019-06-23T12:38:19Z</time>
      </trkpt>
      <trkpt lat="44.26229" lon="6.91064">
        <ele>1368.594965389</ele>
        <time>2019-06-23T12:38:26Z</time>
      </trkpt>
      <trkpt lat="44.26231" lon="6.91062">
        <ele>1368.7988741811</ele>
        <time>2019-06-23T12:38:31Z</time>
      </trkpt>
      <trkpt lat="44.26231" lon="6.9106">
        <ele>1369.2250882881</ele>
        <time>2019-06-23T12:38:35Z</time>
      </trkpt>
      <trkpt lat="44.26233" lon="6.91058">
        <ele>1369.4557197645</ele>
        <time>2019-06-23T12:38:39Z</time>
      </trkpt>
      <trkpt lat="44.26235" lon="6.91056">
        <ele>1370.1782590106</ele>
        <time>2019-06-23T12:38:44Z</time>
      </trkpt>
      <trkpt lat="44.26236" lon="6.91054">
        <ele>1370.4955783673</ele>
        <time>2019-06-23T12:38:47Z</time>
      </trkpt>
      <trkpt lat="44.26237" lon="6.91052">
        <ele>1370.8281431232</ele>
        <time>2019-06-23T12:38:50Z</time>
      </trkpt>
      <trkpt lat="44.2624" lon="6.91051">
        <ele>1371.5213379338</ele>
        <time>2019-06-23T12:38:55Z</time>
      </trkpt>
      <trkpt lat="44.26242" lon="6.91051">
        <ele>1372.0237255234</ele>
        <time>2019-06-23T12:38:58Z</time>
      </trkpt>
      <trkpt lat="44.26244" lon="6.9105">
        <ele>1372.5965744592</ele>
        <time>2019-06-23T12:39:00Z</time>
      </trkpt>
      <trkpt lat="44.26247" lon="6.91048">
        <ele>1373.2875422064</ele>
        <time>2019-06-23T12:39:02Z</time>
      </trkpt>
      <trkpt lat="44.26249" lon="6.91047">
        <ele>1374.0553100382</ele>
        <time>2019-06-23T12:39:04Z</time>
      </trkpt>
      <trkpt lat="44.26251" lon="6.91046">
        <ele>1374.5725226286</ele>
        <time>2019-06-23T12:39:06Z</time>
      </trkpt>
      <trkpt lat="44.26252" lon="6.91046">
        <ele>1375.5671454381</ele>
        <time>2019-06-23T12:39:08Z</time>
      </trkpt>
      <trkpt lat="44.26254" lon="6.91043">
        <ele>1376.782489473</ele>
        <time>2019-06-23T12:39:13Z</time>
      </trkpt>
      <trkpt lat="44.26255" lon="6.91041">
        <ele>1377.4000678753</ele>
        <time>2019-06-23T12:39:17Z</time>
      </trkpt>
      <trkpt lat="44.26257" lon="6.91038">
        <ele>1378.2272984672</ele>
        <time>2019-06-23T12:39:20Z</time>
      </trkpt>
      <trkpt lat="44.26258" lon="6.91036">
        <ele>1379.0790239296</ele>
        <time>2019-06-23T12:39:30Z</time>
      </trkpt>
      <trkpt lat="44.26259" lon="6.91035">
        <ele>1379.9376932807</ele>
        <time>2019-06-23T12:39:34Z</time>
      </trkpt>
      <trkpt lat="44.26261" lon="6.91032">
        <ele>1380.7704618251</ele>
        <time>2019-06-23T12:39:37Z</time>
      </trkpt>
      <trkpt lat="44.26261" lon="6.9103">
        <ele>1377.1652224753</ele>
        <time>2019-06-23T12:39:41Z</time>
      </trkpt>
      <trkpt lat="44.26262" lon="6.91027">
        <ele>1376.4675857627</ele>
        <time>2019-06-23T12:39:46Z</time>
      </trkpt>
      <trkpt lat="44.26264" lon="6.91026">
        <ele>1382.5271089827</ele>
        <time>2019-06-23T12:39:51Z</time>
      </trkpt>
      <trkpt lat="44.26265" lon="6.91023">
        <ele>1383.6731976844</ele>
        <time>2019-06-23T12:39:57Z</time>
      </trkpt>
      <trkpt lat="44.26265" lon="6.9102">
        <ele>1384.3220452298</ele>
        <time>2019-06-23T12:40:00Z</time>
      </trkpt>
      <trkpt lat="44.26267" lon="6.91018">
        <ele>1384.9791462793</ele>
        <time>2019-06-23T12:40:02Z</time>
      </trkpt>
      <trkpt lat="44.26265" lon="6.91019">
        <ele>1384.3014119417</ele>
        <time>2019-06-23T12:40:07Z</time>
      </trkpt>
      <trkpt lat="44.26263" lon="6.91021">
        <ele>1379.0194966296</ele>
        <time>2019-06-23T12:40:11Z</time>
      </trkpt>
      <trkpt lat="44.26261" lon="6.91022">
        <ele>1364.8739403213</ele>
        <time>2019-06-23T12:40:17Z</time>
      </trkpt>
      <trkpt lat="44.26259" lon="6.91021">
        <ele>1361.2530492247</ele>
        <time>2019-06-23T12:40:23Z</time>
      </trkpt>
      <trkpt lat="44.26257" lon="6.9102">
        <ele>1360.885559267</ele>
        <time>2019-06-23T12:40:28Z</time>
      </trkpt>
      <trkpt lat="44.26256" lon="6.91017">
        <ele>1380.3768974559</ele>
        <time>2019-06-23T12:40:35Z</time>
      </trkpt>
      <trkpt lat="44.26254" lon="6.91016">
        <ele>1380.1194359413</ele>
        <time>2019-06-23T12:40:38Z</time>
      </trkpt>
      <trkpt lat="44.26252" lon="6.91014">
        <ele>1380.0479705941</ele>
        <time>2019-06-23T12:40:41Z</time>
      </trkpt>
      <trkpt lat="44.2625" lon="6.91013">
        <ele>1379.3919757889</ele>
        <time>2019-06-23T12:40:44Z</time>
      </trkpt>
      <trkpt lat="44.26248" lon="6.91012">
        <ele>1379.0873766266</ele>
        <time>2019-06-23T12:40:48Z</time>
      </trkpt>
      <trkpt lat="44.26246" lon="6.91009">
        <ele>1379.398340019</ele>
        <time>2019-06-23T12:40:55Z</time>
      </trkpt>
      <trkpt lat="44.26244" lon="6.91008">
        <ele>1380.047926256</ele>
        <time>2019-06-23T12:40:58Z</time>
      </trkpt>
      <trkpt lat="44.26242" lon="6.91007">
        <ele>1380.0424586768</ele>
        <time>2019-06-23T12:41:02Z</time>
      </trkpt>
      <trkpt lat="44.2624" lon="6.91007">
        <ele>1380.3349246325</ele>
        <time>2019-06-23T12:41:04Z</time>
      </trkpt>
      <trkpt lat="44.26237" lon="6.91007">
        <ele>1379.9535762195</ele>
        <time>2019-06-23T12:41:07Z</time>
      </trkpt>
      <trkpt lat="44.26235" lon="6.91007">
        <ele>1379.7739308275</ele>
        <time>2019-06-23T12:41:09Z</time>
      </trkpt>
      <trkpt lat="44.26233" lon="6.91007">
        <ele>1379.5538432473</ele>
        <time>2019-06-23T12:41:14Z</time>
      </trkpt>
      <trkpt lat="44.26231" lon="6.91004">
        <ele>1380.212235334</ele>
        <time>2019-06-23T12:41:24Z</time>
      </trkpt>
      <trkpt lat="44.2623" lon="6.91001">
        <ele>1381.7381372917</ele>
        <time>2019-06-23T12:41:26Z</time>
      </trkpt>
      <trkpt lat="44.26228" lon="6.90998">
        <ele>1383.0197903542</ele>
        <time>2019-06-23T12:41:28Z</time>
      </trkpt>
      <trkpt lat="44.26226" lon="6.90997">
        <ele>1383.6596314465</ele>
        <time>2019-06-23T12:41:31Z</time>
      </trkpt>
      <trkpt lat="44.26225" lon="6.90995">
        <ele>1383.9604695299</ele>
        <time>2019-06-23T12:41:35Z</time>
      </trkpt>
      <trkpt lat="44.26223" lon="6.90995">
        <ele>1384.1592353563</ele>
        <time>2019-06-23T12:41:37Z</time>
      </trkpt>
      <trkpt lat="44.2622" lon="6.90995">
        <ele>1384.336707926</ele>
        <time>2019-06-23T12:41:43Z</time>
      </trkpt>
      <trkpt lat="44.26218" lon="6.90995">
        <ele>1384.4924815672</ele>
        <time>2019-06-23T12:41:46Z</time>
      </trkpt>
      <trkpt lat="44.26216" lon="6.90996">
        <ele>1384.3500704419</ele>
        <time>2019-06-23T12:41:50Z</time>
      </trkpt>
      <trkpt lat="44.26214" lon="6.90996">
        <ele>1384.2931147283</ele>
        <time>2019-06-23T12:41:56Z</time>
      </trkpt>
      <trkpt lat="44.26212" lon="6.90996">
        <ele>1384.3718733317</ele>
        <time>2019-06-23T12:41:58Z</time>
      </trkpt>
      <trkpt lat="44.2621" lon="6.90994">
        <ele>1385.2744246916</ele>
        <time>2019-06-23T12:42:01Z</time>
      </trkpt>
      <trkpt lat="44.26208" lon="6.90993">
        <ele>1385.7260943903</ele>
        <time>2019-06-23T12:42:03Z</time>
      </trkpt>
      <trkpt lat="44.26206" lon="6.90993">
        <ele>1385.8520846882</ele>
        <time>2019-06-23T12:42:11Z</time>
      </trkpt>
      <trkpt lat="44.26204" lon="6.90992">
        <ele>1386.4812639095</ele>
        <time>2019-06-23T12:42:15Z</time>
      </trkpt>
      <trkpt lat="44.26201" lon="6.90993">
        <ele>1386.5453539064</ele>
        <time>2019-06-23T12:42:18Z</time>
      </trkpt>
      <trkpt lat="44.26199" lon="6.90993">
        <ele>1386.496394943</ele>
        <time>2019-06-23T12:42:22Z</time>
      </trkpt>
      <trkpt lat="44.26197" lon="6.90993">
        <ele>1386.5424825275</ele>
        <time>2019-06-23T12:42:26Z</time>
      </trkpt>
      <trkpt lat="44.26194" lon="6.90993">
        <ele>1387.065503504</ele>
        <time>2019-06-23T12:42:29Z</time>
      </trkpt>
      <trkpt lat="44.26192" lon="6.90991">
        <ele>1387.7850427221</ele>
        <time>2019-06-23T12:42:33Z</time>
      </trkpt>
      <trkpt lat="44.26192" lon="6.90987">
        <ele>1386.0733440715</ele>
        <time>2019-06-23T12:42:36Z</time>
      </trkpt>
      <trkpt lat="44.26192" lon="6.90984">
        <ele>1385.0947944894</ele>
        <time>2019-06-23T12:42:38Z</time>
      </trkpt>
      <trkpt lat="44.2619" lon="6.90982">
        <ele>1385.9889006221</ele>
        <time>2019-06-23T12:42:47Z</time>
      </trkpt>
      <trkpt lat="44.26187" lon="6.9098">
        <ele>1386.0568251075</ele>
        <time>2019-06-23T12:42:50Z</time>
      </trkpt>
      <trkpt lat="44.26184" lon="6.90977">
        <ele>1395.3050097031</ele>
        <time>2019-06-23T12:42:52Z</time>
      </trkpt>
      <trkpt lat="44.26183" lon="6.90977">
        <ele>1396.192059244</ele>
        <time>2019-06-23T12:42:55Z</time>
      </trkpt>
      <trkpt lat="44.26181" lon="6.90979">
        <ele>1395.2660867497</ele>
        <time>2019-06-23T12:42:59Z</time>
      </trkpt>
      <trkpt lat="44.26178" lon="6.90979">
        <ele>1395.4520010012</ele>
        <time>2019-06-23T12:43:01Z</time>
      </trkpt>
      <trkpt lat="44.26176" lon="6.9098">
        <ele>1394.8264199581</ele>
        <time>2019-06-23T12:43:03Z</time>
      </trkpt>
      <trkpt lat="44.26175" lon="6.90981">
        <ele>1393.9905544949</ele>
        <time>2019-06-23T12:43:07Z</time>
      </trkpt>
      <trkpt lat="44.26173" lon="6.90982">
        <ele>1393.3205121958</ele>
        <time>2019-06-23T12:43:12Z</time>
      </trkpt>
      <trkpt lat="44.2617" lon="6.90981">
        <ele>1393.7407475981</ele>
        <time>2019-06-23T12:43:15Z</time>
      </trkpt>
      <trkpt lat="44.26169" lon="6.90979">
        <ele>1394.9148136034</ele>
        <time>2019-06-23T12:43:19Z</time>
      </trkpt>
      <trkpt lat="44.26167" lon="6.90977">
        <ele>1395.9431868702</ele>
        <time>2019-06-23T12:43:22Z</time>
      </trkpt>
      <trkpt lat="44.26166" lon="6.90975">
        <ele>1396.8629559176</ele>
        <time>2019-06-23T12:43:32Z</time>
      </trkpt>
      <trkpt lat="44.26164" lon="6.90973">
        <ele>1397.6233812091</ele>
        <time>2019-06-23T12:43:37Z</time>
      </trkpt>
      <trkpt lat="44.26162" lon="6.90972">
        <ele>1397.8190786653</ele>
        <time>2019-06-23T12:43:40Z</time>
      </trkpt>
      <trkpt lat="44.2616" lon="6.90975">
        <ele>1396.8026578734</ele>
        <time>2019-06-23T12:43:42Z</time>
      </trkpt>
      <trkpt lat="44.26158" lon="6.90977">
        <ele>1395.1533335093</ele>
        <time>2019-06-23T12:43:44Z</time>
      </trkpt>
      <trkpt lat="44.26156" lon="6.90976">
        <ele>1394.1504218086</ele>
        <time>2019-06-23T12:43:46Z</time>
      </trkpt>
      <trkpt lat="44.26154" lon="6.90975">
        <ele>1394.4697623221</ele>
        <time>2019-06-23T12:43:49Z</time>
      </trkpt>
      <trkpt lat="44.26153" lon="6.90975">
        <ele>1394.1097482061</ele>
        <time>2019-06-23T12:43:51Z</time>
      </trkpt>
      <trkpt lat="44.26152" lon="6.90972">
        <ele>1394.3891558774</ele>
        <time>2019-06-23T12:43:53Z</time>
      </trkpt>
      <trkpt lat="44.26151" lon="6.90969">
        <ele>1395.3431731952</ele>
        <time>2019-06-23T12:43:57Z</time>
      </trkpt>
      <trkpt lat="44.26151" lon="6.90966">
        <ele>1396.0759191502</ele>
        <time>2019-06-23T12:44:04Z</time>
      </trkpt>
      <trkpt lat="44.2615" lon="6.90963">
        <ele>1396.4567185561</ele>
        <time>2019-06-23T12:44:08Z</time>
      </trkpt>
      <trkpt lat="44.26151" lon="6.90961">
        <ele>1397.4612961304</ele>
        <time>2019-06-23T12:44:16Z</time>
      </trkpt>
      <trkpt lat="44.2615" lon="6.90958">
        <ele>1397.8776518254</ele>
        <time>2019-06-23T12:44:18Z</time>
      </trkpt>
      <trkpt lat="44.2615" lon="6.90955">
        <ele>1398.513816869</ele>
        <time>2019-06-23T12:44:22Z</time>
      </trkpt>
      <trkpt lat="44.26151" lon="6.90953">
        <ele>1399.8976957856</ele>
        <time>2019-06-23T12:44:25Z</time>
      </trkpt>
      <trkpt lat="44.2615" lon="6.9095">
        <ele>1400.5459568617</ele>
        <time>2019-06-23T12:44:28Z</time>
      </trkpt>
      <trkpt lat="44.2615" lon="6.90947">
        <ele>1401.0401450398</ele>
        <time>2019-06-23T12:44:31Z</time>
      </trkpt>
      <trkpt lat="44.26149" lon="6.90944">
        <ele>1401.6619644845</ele>
        <time>2019-06-23T12:44:33Z</time>
      </trkpt>
      <trkpt lat="44.2615" lon="6.90941">
        <ele>1402.6845718391</ele>
        <time>2019-06-23T12:44:35Z</time>
      </trkpt>
      <trkpt lat="44.26149" lon="6.90939">
        <ele>1403.2825541626</ele>
        <time>2019-06-23T12:44:38Z</time>
      </trkpt>
      <trkpt lat="44.26149" lon="6.90936">
        <ele>1404.0714373097</ele>
        <time>2019-06-23T12:44:45Z</time>
      </trkpt>
      <trkpt lat="44.26148" lon="6.90932">
        <ele>1404.6688412966</ele>
        <time>2019-06-23T12:44:48Z</time>
      </trkpt>
      <trkpt lat="44.26147" lon="6.9093">
        <ele>1405.4884797185</ele>
        <time>2019-06-23T12:44:50Z</time>
      </trkpt>
      <trkpt lat="44.26145" lon="6.90928">
        <ele>1405.7409900676</ele>
        <time>2019-06-23T12:44:52Z</time>
      </trkpt>
      <trkpt lat="44.26147" lon="6.90925">
        <ele>1406.5752689621</ele>
        <time>2019-06-23T12:44:56Z</time>
      </trkpt>
      <trkpt lat="44.26147" lon="6.90922">
        <ele>1407.2603577159</ele>
        <time>2019-06-23T12:44:58Z</time>
      </trkpt>
      <trkpt lat="44.26148" lon="6.90921">
        <ele>1408.0853812912</ele>
        <time>2019-06-23T12:45:01Z</time>
      </trkpt>
      <trkpt lat="44.26149" lon="6.90919">
        <ele>1409.2254280978</ele>
        <time>2019-06-23T12:45:09Z</time>
      </trkpt>
      <trkpt lat="44.2615" lon="6.90916">
        <ele>1409.9357069635</ele>
        <time>2019-06-23T12:45:11Z</time>
      </trkpt>
      <trkpt lat="44.26149" lon="6.90913">
        <ele>1410.4390429686</ele>
        <time>2019-06-23T12:45:14Z</time>
      </trkpt>
      <trkpt lat="44.26149" lon="6.9091">
        <ele>1410.5334673251</ele>
        <time>2019-06-23T12:45:17Z</time>
      </trkpt>
      <trkpt lat="44.26149" lon="6.90907">
        <ele>1410.8220528384</ele>
        <time>2019-06-23T12:45:20Z</time>
      </trkpt>
      <trkpt lat="44.26149" lon="6.90903">
        <ele>1411.1408021172</ele>
        <time>2019-06-23T12:45:23Z</time>
      </trkpt>
      <trkpt lat="44.26148" lon="6.90901">
        <ele>1411.4468096636</ele>
        <time>2019-06-23T12:45:27Z</time>
      </trkpt>
      <trkpt lat="44.26148" lon="6.90898">
        <ele>1411.7135519838</ele>
        <time>2019-06-23T12:45:34Z</time>
      </trkpt>
      <trkpt lat="44.26146" lon="6.90897">
        <ele>1411.0128465356</ele>
        <time>2019-06-23T12:45:40Z</time>
      </trkpt>
      <trkpt lat="44.26145" lon="6.90895">
        <ele>1410.2281344644</ele>
        <time>2019-06-23T12:45:55Z</time>
      </trkpt>
      <trkpt lat="44.26144" lon="6.90892">
        <ele>1409.928353656</ele>
        <time>2019-06-23T12:45:57Z</time>
      </trkpt>
      <trkpt lat="44.26143" lon="6.90889">
        <ele>1409.5113140999</ele>
        <time>2019-06-23T12:45:59Z</time>
      </trkpt>
      <trkpt lat="44.26142" lon="6.90887">
        <ele>1409.3618495149</ele>
        <time>2019-06-23T12:46:01Z</time>
      </trkpt>
      <trkpt lat="44.26142" lon="6.90884">
        <ele>1410.0388845515</ele>
        <time>2019-06-23T12:46:05Z</time>
      </trkpt>
      <trkpt lat="44.26141" lon="6.90882">
        <ele>1410.5580507657</ele>
        <time>2019-06-23T12:46:09Z</time>
      </trkpt>
      <trkpt lat="44.2614" lon="6.9088">
        <ele>1410.4114744231</ele>
        <time>2019-06-23T12:46:13Z</time>
      </trkpt>
      <trkpt lat="44.26139" lon="6.90877">
        <ele>1410.3667551863</ele>
        <time>2019-06-23T12:46:16Z</time>
      </trkpt>
      <trkpt lat="44.26137" lon="6.90876">
        <ele>1410.1986168292</ele>
        <time>2019-06-23T12:46:20Z</time>
      </trkpt>
      <trkpt lat="44.26134" lon="6.90874">
        <ele>1410.2592321586</ele>
        <time>2019-06-23T12:46:26Z</time>
      </trkpt>
      <trkpt lat="44.26132" lon="6.90872">
        <ele>1409.8461662985</ele>
        <time>2019-06-23T12:46:29Z</time>
      </trkpt>
      <trkpt lat="44.26131" lon="6.90869">
        <ele>1410.3745415769</ele>
        <time>2019-06-23T12:46:33Z</time>
      </trkpt>
      <trkpt lat="44.2613" lon="6.90868">
        <ele>1410.5489298013</ele>
        <time>2019-06-23T12:46:36Z</time>
      </trkpt>
      <trkpt lat="44.26127" lon="6.90866">
        <ele>1410.4019692385</ele>
        <time>2019-06-23T12:46:40Z</time>
      </trkpt>
      <trkpt lat="44.26126" lon="6.90863">
        <ele>1410.5199774926</ele>
        <time>2019-06-23T12:46:43Z</time>
      </trkpt>
      <trkpt lat="44.26125" lon="6.90859">
        <ele>1411.258025016</ele>
        <time>2019-06-23T12:46:45Z</time>
      </trkpt>
      <trkpt lat="44.26125" lon="6.90856">
        <ele>1412.7510906852</ele>
        <time>2019-06-23T12:46:49Z</time>
      </trkpt>
      <trkpt lat="44.26125" lon="6.90853">
        <ele>1414.2681031033</ele>
        <time>2019-06-23T12:46:52Z</time>
      </trkpt>
      <trkpt lat="44.26125" lon="6.9085">
        <ele>1415.827029962</ele>
        <time>2019-06-23T12:46:56Z</time>
      </trkpt>
      <trkpt lat="44.26125" lon="6.90847">
        <ele>1416.8590987203</ele>
        <time>2019-06-23T12:46:59Z</time>
      </trkpt>
      <trkpt lat="44.26123" lon="6.90846">
        <ele>1417.0284404103</ele>
        <time>2019-06-23T12:47:05Z</time>
      </trkpt>
      <trkpt lat="44.26122" lon="6.90843">
        <ele>1417.2569133561</ele>
        <time>2019-06-23T12:47:07Z</time>
      </trkpt>
      <trkpt lat="44.26121" lon="6.90841">
        <ele>1417.7496167868</ele>
        <time>2019-06-23T12:47:09Z</time>
      </trkpt>
      <trkpt lat="44.26119" lon="6.90839">
        <ele>1417.4354986021</ele>
        <time>2019-06-23T12:47:12Z</time>
      </trkpt>
      <trkpt lat="44.2612" lon="6.90835">
        <ele>1418.7696375025</ele>
        <time>2019-06-23T12:47:14Z</time>
      </trkpt>
      <trkpt lat="44.2612" lon="6.90831">
        <ele>1420.3082218114</ele>
        <time>2019-06-23T12:47:16Z</time>
      </trkpt>
      <trkpt lat="44.2612" lon="6.90828">
        <ele>1421.6343949004</ele>
        <time>2019-06-23T12:47:22Z</time>
      </trkpt>
      <trkpt lat="44.26119" lon="6.90826">
        <ele>1421.8175790589</ele>
        <time>2019-06-23T12:47:25Z</time>
      </trkpt>
      <trkpt lat="44.26118" lon="6.90823">
        <ele>1422.0054427851</ele>
        <time>2019-06-23T12:47:28Z</time>
      </trkpt>
      <trkpt lat="44.26117" lon="6.90821">
        <ele>1422.4238074033</ele>
        <time>2019-06-23T12:47:30Z</time>
      </trkpt>
      <trkpt lat="44.26116" lon="6.90819">
        <ele>1421.7467836206</ele>
        <time>2019-06-23T12:47:35Z</time>
      </trkpt>
      <trkpt lat="44.26115" lon="6.90816">
        <ele>1422.4114783129</ele>
        <time>2019-06-23T12:47:38Z</time>
      </trkpt>
      <trkpt lat="44.26115" lon="6.90813">
        <ele>1422.9145906394</ele>
        <time>2019-06-23T12:47:41Z</time>
      </trkpt>
      <trkpt lat="44.26114" lon="6.9081">
        <ele>1423.1876700457</ele>
        <time>2019-06-23T12:47:44Z</time>
      </trkpt>
      <trkpt lat="44.26114" lon="6.90807">
        <ele>1424.477680918</ele>
        <time>2019-06-23T12:47:47Z</time>
      </trkpt>
      <trkpt lat="44.26114" lon="6.90803">
        <ele>1425.0108997845</ele>
        <time>2019-06-23T12:47:51Z</time>
      </trkpt>
      <trkpt lat="44.26113" lon="6.90801">
        <ele>1425.4561725156</ele>
        <time>2019-06-23T12:47:55Z</time>
      </trkpt>
      <trkpt lat="44.26113" lon="6.90798">
        <ele>1425.9455839877</ele>
        <time>2019-06-23T12:47:57Z</time>
      </trkpt>
      <trkpt lat="44.26111" lon="6.90795">
        <ele>1426.4140790089</ele>
        <time>2019-06-23T12:48:01Z</time>
      </trkpt>
      <trkpt lat="44.26109" lon="6.90793">
        <ele>1426.4585002225</ele>
        <time>2019-06-23T12:48:04Z</time>
      </trkpt>
      <trkpt lat="44.26108" lon="6.9079">
        <ele>1426.7744124295</ele>
        <time>2019-06-23T12:48:08Z</time>
      </trkpt>
      <trkpt lat="44.26108" lon="6.90787">
        <ele>1427.4911073821</ele>
        <time>2019-06-23T12:48:11Z</time>
      </trkpt>
      <trkpt lat="44.26108" lon="6.90784">
        <ele>1428.4885760173</ele>
        <time>2019-06-23T12:48:15Z</time>
      </trkpt>
      <trkpt lat="44.26109" lon="6.90781">
        <ele>1429.3290892163</ele>
        <time>2019-06-23T12:48:19Z</time>
      </trkpt>
      <trkpt lat="44.26109" lon="6.90777">
        <ele>1430.42323347</ele>
        <time>2019-06-23T12:48:22Z</time>
      </trkpt>
      <trkpt lat="44.26107" lon="6.90775">
        <ele>1430.9178796162</ele>
        <time>2019-06-23T12:48:25Z</time>
      </trkpt>
      <trkpt lat="44.26108" lon="6.90772">
        <ele>1431.6635763029</ele>
        <time>2019-06-23T12:48:27Z</time>
      </trkpt>
      <trkpt lat="44.26108" lon="6.9077">
        <ele>1432.7449861758</ele>
        <time>2019-06-23T12:48:33Z</time>
      </trkpt>
      <trkpt lat="44.26107" lon="6.90767">
        <ele>1433.2051658324</ele>
        <time>2019-06-23T12:48:44Z</time>
      </trkpt>
      <trkpt lat="44.26106" lon="6.90764">
        <ele>1433.7551756336</ele>
        <time>2019-06-23T12:48:48Z</time>
      </trkpt>
      <trkpt lat="44.26104" lon="6.90762">
        <ele>1434.0044165965</ele>
        <time>2019-06-23T12:48:52Z</time>
      </trkpt>
      <trkpt lat="44.26104" lon="6.90758">
        <ele>1434.7210230552</ele>
        <time>2019-06-23T12:48:55Z</time>
      </trkpt>
      <trkpt lat="44.26103" lon="6.90757">
        <ele>1434.9906117164</ele>
        <time>2019-06-23T12:48:59Z</time>
      </trkpt>
      <trkpt lat="44.26101" lon="6.90755">
        <ele>1434.8980651279</ele>
        <time>2019-06-23T12:49:03Z</time>
      </trkpt>
      <trkpt lat="44.26102" lon="6.90753">
        <ele>1435.9423952</ele>
        <time>2019-06-23T12:49:11Z</time>
      </trkpt>
      <trkpt lat="44.26102" lon="6.90749">
        <ele>1436.701057281</ele>
        <time>2019-06-23T12:49:21Z</time>
      </trkpt>
      <trkpt lat="44.261" lon="6.90747">
        <ele>1436.8569218443</ele>
        <time>2019-06-23T12:49:24Z</time>
      </trkpt>
      <trkpt lat="44.261" lon="6.90744">
        <ele>1437.1241093033</ele>
        <time>2019-06-23T12:49:26Z</time>
      </trkpt>
      <trkpt lat="44.261" lon="6.90741">
        <ele>1437.6095018788</ele>
        <time>2019-06-23T12:49:29Z</time>
      </trkpt>
      <trkpt lat="44.26101" lon="6.90738">
        <ele>1438.5460479454</ele>
        <time>2019-06-23T12:49:31Z</time>
      </trkpt>
      <trkpt lat="44.26102" lon="6.90735">
        <ele>1439.3722409561</ele>
        <time>2019-06-23T12:49:34Z</time>
      </trkpt>
      <trkpt lat="44.26102" lon="6.90732">
        <ele>1439.9813911237</ele>
        <time>2019-06-23T12:49:37Z</time>
      </trkpt>
      <trkpt lat="44.26102" lon="6.90729">
        <ele>1440.5680371015</ele>
        <time>2019-06-23T12:49:39Z</time>
      </trkpt>
      <trkpt lat="44.26103" lon="6.90726">
        <ele>1441.4250583465</ele>
        <time>2019-06-23T12:49:41Z</time>
      </trkpt>
      <trkpt lat="44.26103" lon="6.90724">
        <ele>1442.2904742621</ele>
        <time>2019-06-23T12:49:43Z</time>
      </trkpt>
      <trkpt lat="44.26103" lon="6.90721">
        <ele>1442.633055939</ele>
        <time>2019-06-23T12:49:46Z</time>
      </trkpt>
      <trkpt lat="44.26102" lon="6.90718">
        <ele>1442.5449113381</ele>
        <time>2019-06-23T12:49:49Z</time>
      </trkpt>
      <trkpt lat="44.26102" lon="6.90716">
        <ele>1442.2949162002</ele>
        <time>2019-06-23T12:49:51Z</time>
      </trkpt>
      <trkpt lat="44.26102" lon="6.90712">
        <ele>1442.383830678</ele>
        <time>2019-06-23T12:49:55Z</time>
      </trkpt>
      <trkpt lat="44.26103" lon="6.90709">
        <ele>1442.6811557354</ele>
        <time>2019-06-23T12:49:57Z</time>
      </trkpt>
      <trkpt lat="44.26102" lon="6.90707">
        <ele>1442.3256780582</ele>
        <time>2019-06-23T12:49:59Z</time>
      </trkpt>
      <trkpt lat="44.26101" lon="6.90704">
        <ele>1441.790806719</ele>
        <time>2019-06-23T12:50:02Z</time>
      </trkpt>
      <trkpt lat="44.26101" lon="6.907">
        <ele>1441.8437675752</ele>
        <time>2019-06-23T12:50:05Z</time>
      </trkpt>
      <trkpt lat="44.26101" lon="6.90697">
        <ele>1441.9325241494</ele>
        <time>2019-06-23T12:50:08Z</time>
      </trkpt>
      <trkpt lat="44.26101" lon="6.90694">
        <ele>1441.7102408356</ele>
        <time>2019-06-23T12:50:11Z</time>
      </trkpt>
      <trkpt lat="44.261" lon="6.90691">
        <ele>1441.6787838506</ele>
        <time>2019-06-23T12:50:13Z</time>
      </trkpt>
      <trkpt lat="44.261" lon="6.90687">
        <ele>1442.5501465269</ele>
        <time>2019-06-23T12:50:15Z</time>
      </trkpt>
      <trkpt lat="44.26099" lon="6.90686">
        <ele>1442.6479795813</ele>
        <time>2019-06-23T12:50:20Z</time>
      </trkpt>
      <trkpt lat="44.26099" lon="6.90684">
        <ele>1443.6445939384</ele>
        <time>2019-06-23T12:50:24Z</time>
      </trkpt>
      <trkpt lat="44.26099" lon="6.9068">
        <ele>1444.23213495</ele>
        <time>2019-06-23T12:50:26Z</time>
      </trkpt>
      <trkpt lat="44.26099" lon="6.90677">
        <ele>1444.8916621339</ele>
        <time>2019-06-23T12:50:27Z</time>
      </trkpt>
      <trkpt lat="44.261" lon="6.90674">
        <ele>1446.2511266281</ele>
        <time>2019-06-23T12:50:29Z</time>
      </trkpt>
      <trkpt lat="44.261" lon="6.9067">
        <ele>1447.6462410484</ele>
        <time>2019-06-23T12:50:31Z</time>
      </trkpt>
      <trkpt lat="44.26099" lon="6.90667">
        <ele>1448.6912127312</ele>
        <time>2019-06-23T12:50:34Z</time>
      </trkpt>
      <trkpt lat="44.261" lon="6.90665">
        <ele>1449.043327664</ele>
        <time>2019-06-23T12:50:40Z</time>
      </trkpt>
      <trkpt lat="44.261" lon="6.90662">
        <ele>1449.0683280978</ele>
        <time>2019-06-23T12:50:42Z</time>
      </trkpt>
      <trkpt lat="44.261" lon="6.90659">
        <ele>1449.5095056679</ele>
        <time>2019-06-23T12:50:45Z</time>
      </trkpt>
      <trkpt lat="44.261" lon="6.90657">
        <ele>1449.3648009714</ele>
        <time>2019-06-23T12:50:48Z</time>
      </trkpt>
      <trkpt lat="44.261" lon="6.90654">
        <ele>1449.1582469324</ele>
        <time>2019-06-23T12:50:50Z</time>
      </trkpt>
      <trkpt lat="44.261" lon="6.90651">
        <ele>1449.3189738216</ele>
        <time>2019-06-23T12:50:56Z</time>
      </trkpt>
      <trkpt lat="44.26101" lon="6.90648">
        <ele>1449.4490843165</ele>
        <time>2019-06-23T12:50:59Z</time>
      </trkpt>
      <trkpt lat="44.26101" lon="6.90645">
        <ele>1449.9448527327</ele>
        <time>2019-06-23T12:51:02Z</time>
      </trkpt>
      <trkpt lat="44.26101" lon="6.90642">
        <ele>1449.9137485255</ele>
        <time>2019-06-23T12:51:05Z</time>
      </trkpt>
      <trkpt lat="44.26098" lon="6.90642">
        <ele>1449.0751646306</ele>
        <time>2019-06-23T12:51:07Z</time>
      </trkpt>
      <trkpt lat="44.26099" lon="6.9064">
        <ele>1448.3844036268</ele>
        <time>2019-06-23T12:51:14Z</time>
      </trkpt>
      <trkpt lat="44.26096" lon="6.9064">
        <ele>1447.3033570223</ele>
        <time>2019-06-23T12:51:29Z</time>
      </trkpt>
      <trkpt lat="44.26095" lon="6.90639">
        <ele>1443.2059132847</ele>
        <time>2019-06-23T12:51:36Z</time>
      </trkpt>
      <trkpt lat="44.26094" lon="6.90637">
        <ele>1446.2196051002</ele>
        <time>2019-06-23T12:51:47Z</time>
      </trkpt>
      <trkpt lat="44.26091" lon="6.90637">
        <ele>1446.0023283321</ele>
        <time>2019-06-23T12:51:57Z</time>
      </trkpt>
      <trkpt lat="44.26091" lon="6.90633">
        <ele>1445.1169027384</ele>
        <time>2019-06-23T12:52:02Z</time>
      </trkpt>
      <trkpt lat="44.26092" lon="6.90632">
        <ele>1437.5690754277</ele>
        <time>2019-06-23T12:52:11Z</time>
      </trkpt>
      <trkpt lat="44.26095" lon="6.90629">
        <ele>1436.0772644585</ele>
        <time>2019-06-23T12:52:14Z</time>
      </trkpt>
      <trkpt lat="44.26096" lon="6.90627">
        <ele>1435.6213261464</ele>
        <time>2019-06-23T12:52:15Z</time>
      </trkpt>
      <trkpt lat="44.26097" lon="6.90625">
        <ele>1451.2132206532</ele>
        <time>2019-06-23T12:52:18Z</time>
      </trkpt>
      <trkpt lat="44.26098" lon="6.90623">
        <ele>1451.3525392589</ele>
        <time>2019-06-23T12:52:19Z</time>
      </trkpt>
      <trkpt lat="44.26099" lon="6.90619">
        <ele>1453.5479833605</ele>
        <time>2019-06-23T12:52:22Z</time>
      </trkpt>
      <trkpt lat="44.26098" lon="6.90617">
        <ele>1454.5117571737</ele>
        <time>2019-06-23T12:52:25Z</time>
      </trkpt>
      <trkpt lat="44.26098" lon="6.90613">
        <ele>1454.6106585696</ele>
        <time>2019-06-23T12:52:28Z</time>
      </trkpt>
      <trkpt lat="44.26096" lon="6.90612">
        <ele>1454.9680501429</ele>
        <time>2019-06-23T12:52:32Z</time>
      </trkpt>
      <trkpt lat="44.26096" lon="6.90609">
        <ele>1454.9798494925</ele>
        <time>2019-06-23T12:52:34Z</time>
      </trkpt>
      <trkpt lat="44.26096" lon="6.90605">
        <ele>1454.9551558367</ele>
        <time>2019-06-23T12:52:37Z</time>
      </trkpt>
      <trkpt lat="44.26096" lon="6.90603">
        <ele>1454.8286524881</ele>
        <time>2019-06-23T12:52:41Z</time>
      </trkpt>
      <trkpt lat="44.26096" lon="6.90599">
        <ele>1455.0892904257</ele>
        <time>2019-06-23T12:52:47Z</time>
      </trkpt>
      <trkpt lat="44.26097" lon="6.90595">
        <ele>1455.3577516058</ele>
        <time>2019-06-23T12:52:50Z</time>
      </trkpt>
      <trkpt lat="44.26098" lon="6.90591">
        <ele>1455.9539108263</ele>
        <time>2019-06-23T12:52:54Z</time>
      </trkpt>
      <trkpt lat="44.26099" lon="6.90588">
        <ele>1456.2312943268</ele>
        <time>2019-06-23T12:52:57Z</time>
      </trkpt>
      <trkpt lat="44.261" lon="6.90585">
        <ele>1456.9291694886</ele>
        <time>2019-06-23T12:53:00Z</time>
      </trkpt>
      <trkpt lat="44.26102" lon="6.90584">
        <ele>1458.0994124706</ele>
        <time>2019-06-23T12:53:05Z</time>
      </trkpt>
      <trkpt lat="44.26104" lon="6.90581">
        <ele>1458.8774271331</ele>
        <time>2019-06-23T12:53:08Z</time>
      </trkpt>
      <trkpt lat="44.26107" lon="6.9058">
        <ele>1459.2340446253</ele>
        <time>2019-06-23T12:53:11Z</time>
      </trkpt>
      <trkpt lat="44.26109" lon="6.90579">
        <ele>1460.5664303358</ele>
        <time>2019-06-23T12:53:13Z</time>
      </trkpt>
      <trkpt lat="44.2611" lon="6.90577">
        <ele>1461.2019985211</ele>
        <time>2019-06-23T12:53:16Z</time>
      </trkpt>
      <trkpt lat="44.26112" lon="6.90576">
        <ele>1461.5127473705</ele>
        <time>2019-06-23T12:53:19Z</time>
      </trkpt>
      <trkpt lat="44.26114" lon="6.90575">
        <ele>1462.8223516188</ele>
        <time>2019-06-23T12:53:23Z</time>
      </trkpt>
      <trkpt lat="44.26116" lon="6.90574">
        <ele>1464.0281945059</ele>
        <time>2019-06-23T12:53:26Z</time>
      </trkpt>
      <trkpt lat="44.26118" lon="6.90573">
        <ele>1465.2434392174</ele>
        <time>2019-06-23T12:53:28Z</time>
      </trkpt>
      <trkpt lat="44.26119" lon="6.9057">
        <ele>1465.7483818288</ele>
        <time>2019-06-23T12:53:31Z</time>
      </trkpt>
      <trkpt lat="44.26121" lon="6.90567">
        <ele>1466.3665304482</ele>
        <time>2019-06-23T12:53:34Z</time>
      </trkpt>
      <trkpt lat="44.26123" lon="6.90565">
        <ele>1467.2309252662</ele>
        <time>2019-06-23T12:53:38Z</time>
      </trkpt>
      <trkpt lat="44.26124" lon="6.90562">
        <ele>1468.0639064664</ele>
        <time>2019-06-23T12:53:40Z</time>
      </trkpt>
      <trkpt lat="44.26125" lon="6.9056">
        <ele>1468.3385122326</ele>
        <time>2019-06-23T12:53:43Z</time>
      </trkpt>
      <trkpt lat="44.26126" lon="6.90557">
        <ele>1468.5623256567</ele>
        <time>2019-06-23T12:53:46Z</time>
      </trkpt>
      <trkpt lat="44.26128" lon="6.90554">
        <ele>1469.5306363999</ele>
        <time>2019-06-23T12:53:51Z</time>
      </trkpt>
      <trkpt lat="44.2613" lon="6.90551">
        <ele>1470.6115947399</ele>
        <time>2019-06-23T12:53:53Z</time>
      </trkpt>
      <trkpt lat="44.2613" lon="6.90548">
        <ele>1470.9957937912</ele>
        <time>2019-06-23T12:53:57Z</time>
      </trkpt>
      <trkpt lat="44.26129" lon="6.90545">
        <ele>1469.8199200284</ele>
        <time>2019-06-23T12:54:01Z</time>
      </trkpt>
      <trkpt lat="44.26129" lon="6.90544">
        <ele>1469.4917614425</ele>
        <time>2019-06-23T12:54:02Z</time>
      </trkpt>
      <trkpt lat="44.26128" lon="6.90541">
        <ele>1468.1934156417</ele>
        <time>2019-06-23T12:54:07Z</time>
      </trkpt>
      <trkpt lat="44.2613" lon="6.90539">
        <ele>1468.2297738218</ele>
        <time>2019-06-23T12:54:10Z</time>
      </trkpt>
      <trkpt lat="44.2613" lon="6.90535">
        <ele>1468.1217244867</ele>
        <time>2019-06-23T12:54:13Z</time>
      </trkpt>
      <trkpt lat="44.26128" lon="6.90533">
        <ele>1467.3500568903</ele>
        <time>2019-06-23T12:54:15Z</time>
      </trkpt>
      <trkpt lat="44.26126" lon="6.90532">
        <ele>1465.9848398441</ele>
        <time>2019-06-23T12:54:33Z</time>
      </trkpt>
      <trkpt lat="44.26125" lon="6.90529">
        <ele>1464.2203509631</ele>
        <time>2019-06-23T12:54:38Z</time>
      </trkpt>
      <trkpt lat="44.26124" lon="6.90526">
        <ele>1457.2971049518</ele>
        <time>2019-06-23T12:54:58Z</time>
      </trkpt>
      <trkpt lat="44.26123" lon="6.90526">
        <ele>1438.6247725508</ele>
        <time>2019-06-23T12:55:04Z</time>
      </trkpt>
      <trkpt lat="44.2612" lon="6.90528">
        <ele>1461.6487078362</ele>
        <time>2019-06-23T12:55:11Z</time>
      </trkpt>
      <trkpt lat="44.26119" lon="6.9053">
        <ele>1450.0298204722</ele>
        <time>2019-06-23T12:55:14Z</time>
      </trkpt>
      <trkpt lat="44.26119" lon="6.90534">
        <ele>1460.5390318725</ele>
        <time>2019-06-23T12:55:17Z</time>
      </trkpt>
      <trkpt lat="44.26121" lon="6.90535">
        <ele>1461.6341384514</ele>
        <time>2019-06-23T12:55:21Z</time>
      </trkpt>
      <trkpt lat="44.26122" lon="6.90533">
        <ele>1462.8840829903</ele>
        <time>2019-06-23T12:55:35Z</time>
      </trkpt>
      <trkpt lat="44.26121" lon="6.90532">
        <ele>1461.691154475</ele>
        <time>2019-06-23T12:55:39Z</time>
      </trkpt>
      <trkpt lat="44.26119" lon="6.90535">
        <ele>1461.0768574174</ele>
        <time>2019-06-23T12:55:48Z</time>
      </trkpt>
      <trkpt lat="44.26118" lon="6.90538">
        <ele>1461.1886780747</ele>
        <time>2019-06-23T12:55:53Z</time>
      </trkpt>
      <trkpt lat="44.2612" lon="6.90537">
        <ele>1461.3895718236</ele>
        <time>2019-06-23T12:56:01Z</time>
      </trkpt>
      <trkpt lat="44.26121" lon="6.90541">
        <ele>1462.788136153</ele>
        <time>2019-06-23T12:56:06Z</time>
      </trkpt>
      <trkpt lat="44.26123" lon="6.9054">
        <ele>1418.0784687988</ele>
        <time>2019-06-23T12:56:21Z</time>
      </trkpt>
      <trkpt lat="44.26122" lon="6.90537">
        <ele>1407.8664754163</ele>
        <time>2019-06-23T12:56:46Z</time>
      </trkpt>
      <trkpt lat="44.26122" lon="6.90535">
        <ele>1463.1244565335</ele>
        <time>2019-06-23T12:56:50Z</time>
      </trkpt>
      <trkpt lat="44.26121" lon="6.90534">
        <ele>1462.2439968107</ele>
        <time>2019-06-23T12:56:54Z</time>
      </trkpt>
      <trkpt lat="44.26119" lon="6.90533">
        <ele>1461.2635116693</ele>
        <time>2019-06-23T12:57:13Z</time>
      </trkpt>
      <trkpt lat="44.26118" lon="6.90531">
        <ele>1460.4250172425</ele>
        <time>2019-06-23T12:57:15Z</time>
      </trkpt>
      <trkpt lat="44.26118" lon="6.90528">
        <ele>1459.6999062241</ele>
        <time>2019-06-23T12:57:17Z</time>
      </trkpt>
      <trkpt lat="44.26117" lon="6.90525">
        <ele>1459.2855613183</ele>
        <time>2019-06-23T12:57:20Z</time>
      </trkpt>
      <trkpt lat="44.26119" lon="6.90525">
        <ele>1459.8624220051</ele>
        <time>2019-06-23T12:57:29Z</time>
      </trkpt>
      <trkpt lat="44.26121" lon="6.90527">
        <ele>1460.8314283203</ele>
        <time>2019-06-23T12:57:56Z</time>
      </trkpt>
      <trkpt lat="44.26123" lon="6.90526">
        <ele>1461.8511116333</ele>
        <time>2019-06-23T12:58:13Z</time>
      </trkpt>
      <trkpt lat="44.26124" lon="6.90528">
        <ele>1463.3042608332</ele>
        <time>2019-06-23T12:59:38Z</time>
      </trkpt>
      <trkpt lat="44.26122" lon="6.90529">
        <ele>1462.5875508597</ele>
        <time>2019-06-23T13:00:06Z</time>
      </trkpt>
      <trkpt lat="44.26123" lon="6.90526">
        <ele>1462.0676372905</ele>
        <time>2019-06-23T13:00:11Z</time>
      </trkpt>
      <trkpt lat="44.26124" lon="6.90523">
        <ele>1463.2144110507</ele>
        <time>2019-06-23T13:00:15Z</time>
      </trkpt>
      <trkpt lat="44.26126" lon="6.90521">
        <ele>1464.0627577693</ele>
        <time>2019-06-23T13:00:20Z</time>
      </trkpt>
      <trkpt lat="44.26128" lon="6.90519">
        <ele>1464.9125250844</ele>
        <time>2019-06-23T13:00:22Z</time>
      </trkpt>
      <trkpt lat="44.26128" lon="6.90516">
        <ele>1465.4371811596</ele>
        <time>2019-06-23T13:00:26Z</time>
      </trkpt>
      <trkpt lat="44.26129" lon="6.90512">
        <ele>1465.7369289337</ele>
        <time>2019-06-23T13:00:32Z</time>
      </trkpt>
      <trkpt lat="44.26129" lon="6.90509">
        <ele>1466.0349418449</ele>
        <time>2019-06-23T13:00:34Z</time>
      </trkpt>
      <trkpt lat="44.2613" lon="6.90506">
        <ele>1466.6186566559</ele>
        <time>2019-06-23T13:00:46Z</time>
      </trkpt>
      <trkpt lat="44.26131" lon="6.90503">
        <ele>1467.1712582983</ele>
        <time>2019-06-23T13:00:55Z</time>
      </trkpt>
      <trkpt lat="44.26131" lon="6.905">
        <ele>1465.1837320405</ele>
        <time>2019-06-23T13:00:58Z</time>
      </trkpt>
      <trkpt lat="44.26132" lon="6.90497">
        <ele>1468.4985997062</ele>
        <time>2019-06-23T13:01:03Z</time>
      </trkpt>
      <trkpt lat="44.26131" lon="6.90494">
        <ele>1468.6246487705</ele>
        <time>2019-06-23T13:01:07Z</time>
      </trkpt>
      <trkpt lat="44.2613" lon="6.90493">
        <ele>1468.864116641</ele>
        <time>2019-06-23T13:01:08Z</time>
      </trkpt>
      <trkpt lat="44.26131" lon="6.90489">
        <ele>1469.567578468</ele>
        <time>2019-06-23T13:01:10Z</time>
      </trkpt>
      <trkpt lat="44.26131" lon="6.90486">
        <ele>1470.888808643</ele>
        <time>2019-06-23T13:01:12Z</time>
      </trkpt>
      <trkpt lat="44.2613" lon="6.90484">
        <ele>1470.9480052772</ele>
        <time>2019-06-23T13:01:16Z</time>
      </trkpt>
      <trkpt lat="44.26132" lon="6.90483">
        <ele>1472.1518913848</ele>
        <time>2019-06-23T13:01:20Z</time>
      </trkpt>
      <trkpt lat="44.26132" lon="6.9048">
        <ele>1473.6213040765</ele>
        <time>2019-06-23T13:01:25Z</time>
      </trkpt>
      <trkpt lat="44.26131" lon="6.90477">
        <ele>1474.3986770375</ele>
        <time>2019-06-23T13:01:29Z</time>
      </trkpt>
      <trkpt lat="44.26133" lon="6.90475">
        <ele>1471.6067471873</ele>
        <time>2019-06-23T13:01:38Z</time>
      </trkpt>
      <trkpt lat="44.26132" lon="6.90473">
        <ele>1475.7408936097</ele>
        <time>2019-06-23T13:01:41Z</time>
      </trkpt>
      <trkpt lat="44.26132" lon="6.90471">
        <ele>1476.3446348338</ele>
        <time>2019-06-23T13:01:45Z</time>
      </trkpt>
      <trkpt lat="44.26131" lon="6.90468">
        <ele>1470.841298332</ele>
        <time>2019-06-23T13:01:48Z</time>
      </trkpt>
      <trkpt lat="44.26131" lon="6.90465">
        <ele>1476.5915409588</ele>
        <time>2019-06-23T13:01:50Z</time>
      </trkpt>
      <trkpt lat="44.26131" lon="6.90462">
        <ele>1477.0098719618</ele>
        <time>2019-06-23T13:01:55Z</time>
      </trkpt>
      <trkpt lat="44.26131" lon="6.9046">
        <ele>1473.6348501241</ele>
        <time>2019-06-23T13:01:59Z</time>
      </trkpt>
      <trkpt lat="44.26131" lon="6.90456">
        <ele>1466.4240202453</ele>
        <time>2019-06-23T13:02:02Z</time>
      </trkpt>
      <trkpt lat="44.26132" lon="6.90453">
        <ele>1478.627651381</ele>
        <time>2019-06-23T13:02:04Z</time>
      </trkpt>
      <trkpt lat="44.26133" lon="6.90452">
        <ele>1480.8516193799</ele>
        <time>2019-06-23T13:02:08Z</time>
      </trkpt>
      <trkpt lat="44.26134" lon="6.90448">
        <ele>1482.6630213004</ele>
        <time>2019-06-23T13:02:14Z</time>
      </trkpt>
      <trkpt lat="44.26135" lon="6.90446">
        <ele>1483.5522140085</ele>
        <time>2019-06-23T13:02:17Z</time>
      </trkpt>
      <trkpt lat="44.26135" lon="6.90442">
        <ele>1484.9868519805</ele>
        <time>2019-06-23T13:02:20Z</time>
      </trkpt>
      <trkpt lat="44.26137" lon="6.90442">
        <ele>1485.4771976514</ele>
        <time>2019-06-23T13:02:26Z</time>
      </trkpt>
      <trkpt lat="44.26136" lon="6.90437">
        <ele>1486.0291144153</ele>
        <time>2019-06-23T13:02:32Z</time>
      </trkpt>
      <trkpt lat="44.26137" lon="6.90434">
        <ele>1486.0037697484</ele>
        <time>2019-06-23T13:02:33Z</time>
      </trkpt>
      <trkpt lat="44.26137" lon="6.9043">
        <ele>1486.6040213858</ele>
        <time>2019-06-23T13:02:35Z</time>
      </trkpt>
      <trkpt lat="44.26137" lon="6.90428">
        <ele>1487.1717328866</ele>
        <time>2019-06-23T13:02:37Z</time>
      </trkpt>
      <trkpt lat="44.26138" lon="6.90426">
        <ele>1487.4219839847</ele>
        <time>2019-06-23T13:02:41Z</time>
      </trkpt>
      <trkpt lat="44.26139" lon="6.90423">
        <ele>1487.6597278688</ele>
        <time>2019-06-23T13:02:47Z</time>
      </trkpt>
      <trkpt lat="44.26139" lon="6.9042">
        <ele>1481.9089346459</ele>
        <time>2019-06-23T13:02:52Z</time>
      </trkpt>
      <trkpt lat="44.26142" lon="6.90421">
        <ele>1461.555603108</ele>
        <time>2019-06-23T13:02:59Z</time>
      </trkpt>
      <trkpt lat="44.26143" lon="6.90423">
        <ele>1459.4161886611</ele>
        <time>2019-06-23T13:03:03Z</time>
      </trkpt>
      <trkpt lat="44.26142" lon="6.90426">
        <ele>1490.2260533394</ele>
        <time>2019-06-23T13:03:16Z</time>
      </trkpt>
      <trkpt lat="44.26141" lon="6.90428">
        <ele>1490.2343570147</ele>
        <time>2019-06-23T13:03:18Z</time>
      </trkpt>
      <trkpt lat="44.26139" lon="6.9043">
        <ele>1489.1806644167</ele>
        <time>2019-06-23T13:03:20Z</time>
      </trkpt>
      <trkpt lat="44.2614" lon="6.90433">
        <ele>1488.1738337849</ele>
        <time>2019-06-23T13:03:29Z</time>
      </trkpt>
      <trkpt lat="44.26143" lon="6.90434">
        <ele>1489.3597697147</ele>
        <time>2019-06-23T13:03:32Z</time>
      </trkpt>
      <trkpt lat="44.26144" lon="6.90437">
        <ele>1491.2468444719</ele>
        <time>2019-06-23T13:03:40Z</time>
      </trkpt>
      <trkpt lat="44.26145" lon="6.90439">
        <ele>1492.2514768474</ele>
        <time>2019-06-23T13:03:44Z</time>
      </trkpt>
      <trkpt lat="44.26146" lon="6.90441">
        <ele>1492.5084797398</ele>
        <time>2019-06-23T13:03:48Z</time>
      </trkpt>
      <trkpt lat="44.26147" lon="6.90444">
        <ele>1493.0306606328</ele>
        <time>2019-06-23T13:03:56Z</time>
      </trkpt>
      <trkpt lat="44.26148" lon="6.90446">
        <ele>1492.7045475678</ele>
        <time>2019-06-23T13:04:02Z</time>
      </trkpt>
      <trkpt lat="44.26148" lon="6.90448">
        <ele>1492.4159427904</ele>
        <time>2019-06-23T13:04:08Z</time>
      </trkpt>
      <trkpt lat="44.2615" lon="6.9045">
        <ele>1492.6097910655</ele>
        <time>2019-06-23T13:04:10Z</time>
      </trkpt>
      <trkpt lat="44.2615" lon="6.90453">
        <ele>1492.7000860424</ele>
        <time>2019-06-23T13:04:14Z</time>
      </trkpt>
      <trkpt lat="44.2615" lon="6.90455">
        <ele>1491.6519659941</ele>
        <time>2019-06-23T13:04:16Z</time>
      </trkpt>
      <trkpt lat="44.26152" lon="6.90457">
        <ele>1491.585263256</ele>
        <time>2019-06-23T13:04:19Z</time>
      </trkpt>
      <trkpt lat="44.26153" lon="6.9046">
        <ele>1491.4560823543</ele>
        <time>2019-06-23T13:04:24Z</time>
      </trkpt>
      <trkpt lat="44.26154" lon="6.90459">
        <ele>1489.7351719472</ele>
        <time>2019-06-23T13:04:28Z</time>
      </trkpt>
      <trkpt lat="44.26156" lon="6.90456">
        <ele>1486.703587328</ele>
        <time>2019-06-23T13:04:35Z</time>
      </trkpt>
      <trkpt lat="44.26155" lon="6.90453">
        <ele>1493.6530092549</ele>
        <time>2019-06-23T13:04:38Z</time>
      </trkpt>
      <trkpt lat="44.26156" lon="6.90451">
        <ele>1495.5429645687</ele>
        <time>2019-06-23T13:04:43Z</time>
      </trkpt>
      <trkpt lat="44.26157" lon="6.90448">
        <ele>1496.1440410196</ele>
        <time>2019-06-23T13:04:45Z</time>
      </trkpt>
      <trkpt lat="44.26157" lon="6.90446">
        <ele>1496.9804080076</ele>
        <time>2019-06-23T13:04:50Z</time>
      </trkpt>
      <trkpt lat="44.26157" lon="6.90443">
        <ele>1498.8918780441</ele>
        <time>2019-06-23T13:04:56Z</time>
      </trkpt>
      <trkpt lat="44.26158" lon="6.9044">
        <ele>1499.910525751</ele>
        <time>2019-06-23T13:04:59Z</time>
      </trkpt>
      <trkpt lat="44.26157" lon="6.90437">
        <ele>1500.3949990627</ele>
        <time>2019-06-23T13:05:03Z</time>
      </trkpt>
      <trkpt lat="44.26156" lon="6.90435">
        <ele>1500.0969925169</ele>
        <time>2019-06-23T13:05:05Z</time>
      </trkpt>
      <trkpt lat="44.26155" lon="6.90433">
        <ele>1499.020918869</ele>
        <time>2019-06-23T13:05:09Z</time>
      </trkpt>
      <trkpt lat="44.26157" lon="6.90432">
        <ele>1499.8832417059</ele>
        <time>2019-06-23T13:05:12Z</time>
      </trkpt>
      <trkpt lat="44.26158" lon="6.9043">
        <ele>1488.7067266955</ele>
        <time>2019-06-23T13:05:17Z</time>
      </trkpt>
      <trkpt lat="44.26157" lon="6.90428">
        <ele>1491.6222368115</ele>
        <time>2019-06-23T13:05:28Z</time>
      </trkpt>
      <trkpt lat="44.26158" lon="6.90431">
        <ele>1502.3342720464</ele>
        <time>2019-06-23T13:05:32Z</time>
      </trkpt>
      <trkpt lat="44.26159" lon="6.90434">
        <ele>1502.2360900933</ele>
        <time>2019-06-23T13:05:35Z</time>
      </trkpt>
      <trkpt lat="44.26161" lon="6.90435">
        <ele>1502.7255415939</ele>
        <time>2019-06-23T13:05:38Z</time>
      </trkpt>
      <trkpt lat="44.26162" lon="6.90438">
        <ele>1502.8506742339</ele>
        <time>2019-06-23T13:05:41Z</time>
      </trkpt>
      <trkpt lat="44.26162" lon="6.90441">
        <ele>1502.8436447499</ele>
        <time>2019-06-23T13:05:45Z</time>
      </trkpt>
      <trkpt lat="44.26162" lon="6.90444">
        <ele>1501.8633346475</ele>
        <time>2019-06-23T13:05:49Z</time>
      </trkpt>
      <trkpt lat="44.26164" lon="6.90447">
        <ele>1501.7302920074</ele>
        <time>2019-06-23T13:05:52Z</time>
      </trkpt>
      <trkpt lat="44.26165" lon="6.90448">
        <ele>1502.302008044</ele>
        <time>2019-06-23T13:05:54Z</time>
      </trkpt>
      <trkpt lat="44.26167" lon="6.90451">
        <ele>1502.6605937179</ele>
        <time>2019-06-23T13:05:57Z</time>
      </trkpt>
      <trkpt lat="44.26167" lon="6.90453">
        <ele>1502.1798816177</ele>
        <time>2019-06-23T13:05:59Z</time>
      </trkpt>
      <trkpt lat="44.26167" lon="6.90456">
        <ele>1501.6801733737</ele>
        <time>2019-06-23T13:06:01Z</time>
      </trkpt>
      <trkpt lat="44.26167" lon="6.90459">
        <ele>1500.7638876548</ele>
        <time>2019-06-23T13:06:04Z</time>
      </trkpt>
      <trkpt lat="44.26169" lon="6.9046">
        <ele>1494.2901425429</ele>
        <time>2019-06-23T13:06:09Z</time>
      </trkpt>
      <trkpt lat="44.26168" lon="6.90457">
        <ele>1491.8249503513</ele>
        <time>2019-06-23T13:06:13Z</time>
      </trkpt>
      <trkpt lat="44.26169" lon="6.90454">
        <ele>1491.0566464709</ele>
        <time>2019-06-23T13:06:15Z</time>
      </trkpt>
      <trkpt lat="44.26169" lon="6.90451">
        <ele>1490.4452949388</ele>
        <time>2019-06-23T13:06:17Z</time>
      </trkpt>
      <trkpt lat="44.2617" lon="6.90448">
        <ele>1489.1722137412</ele>
        <time>2019-06-23T13:06:21Z</time>
      </trkpt>
      <trkpt lat="44.26171" lon="6.90445">
        <ele>1498.4739758044</ele>
        <time>2019-06-23T13:06:27Z</time>
      </trkpt>
      <trkpt lat="44.26171" lon="6.90442">
        <ele>1507.350938299</ele>
        <time>2019-06-23T13:06:29Z</time>
      </trkpt>
      <trkpt lat="44.26172" lon="6.90439">
        <ele>1509.9034037566</ele>
        <time>2019-06-23T13:06:32Z</time>
      </trkpt>
      <trkpt lat="44.26172" lon="6.90436">
        <ele>1510.5299785609</ele>
        <time>2019-06-23T13:06:35Z</time>
      </trkpt>
      <trkpt lat="44.26172" lon="6.90433">
        <ele>1510.7033719846</ele>
        <time>2019-06-23T13:06:40Z</time>
      </trkpt>
      <trkpt lat="44.26174" lon="6.90433">
        <ele>1512.727295921</ele>
        <time>2019-06-23T13:06:46Z</time>
      </trkpt>
      <trkpt lat="44.26174" lon="6.90431">
        <ele>1514.0129352505</ele>
        <time>2019-06-23T13:06:51Z</time>
      </trkpt>
      <trkpt lat="44.26172" lon="6.90428">
        <ele>1513.3069133338</ele>
        <time>2019-06-23T13:06:53Z</time>
      </trkpt>
      <trkpt lat="44.26172" lon="6.90425">
        <ele>1513.1956477924</ele>
        <time>2019-06-23T13:06:55Z</time>
      </trkpt>
      <trkpt lat="44.26172" lon="6.90422">
        <ele>1514.107125469</ele>
        <time>2019-06-23T13:06:57Z</time>
      </trkpt>
      <trkpt lat="44.26171" lon="6.9042">
        <ele>1514.3562113729</ele>
        <time>2019-06-23T13:07:04Z</time>
      </trkpt>
      <trkpt lat="44.26171" lon="6.90417">
        <ele>1514.4443455477</ele>
        <time>2019-06-23T13:07:08Z</time>
      </trkpt>
      <trkpt lat="44.26171" lon="6.90414">
        <ele>1515.7370281405</ele>
        <time>2019-06-23T13:07:12Z</time>
      </trkpt>
      <trkpt lat="44.26172" lon="6.90412">
        <ele>1507.4447610878</ele>
        <time>2019-06-23T13:07:16Z</time>
      </trkpt>
      <trkpt lat="44.26173" lon="6.90408">
        <ele>1518.0119592493</ele>
        <time>2019-06-23T13:07:19Z</time>
      </trkpt>
      <trkpt lat="44.26172" lon="6.90406">
        <ele>1518.9417711984</ele>
        <time>2019-06-23T13:07:22Z</time>
      </trkpt>
      <trkpt lat="44.26171" lon="6.90404">
        <ele>1518.5088662936</ele>
        <time>2019-06-23T13:07:25Z</time>
      </trkpt>
      <trkpt lat="44.26171" lon="6.90401">
        <ele>1519.0826993273</ele>
        <time>2019-06-23T13:07:36Z</time>
      </trkpt>
      <trkpt lat="44.26171" lon="6.90398">
        <ele>1520.1924378858</ele>
        <time>2019-06-23T13:07:39Z</time>
      </trkpt>
      <trkpt lat="44.26171" lon="6.90395">
        <ele>1520.9439827774</ele>
        <time>2019-06-23T13:07:52Z</time>
      </trkpt>
      <trkpt lat="44.26172" lon="6.90391">
        <ele>1522.0020217239</ele>
        <time>2019-06-23T13:08:01Z</time>
      </trkpt>
      <trkpt lat="44.26173" lon="6.90389">
        <ele>1523.460355224</ele>
        <time>2019-06-23T13:08:03Z</time>
      </trkpt>
      <trkpt lat="44.26174" lon="6.90386">
        <ele>1524.5664602956</ele>
        <time>2019-06-23T13:08:07Z</time>
      </trkpt>
      <trkpt lat="44.26176" lon="6.90384">
        <ele>1525.513408066</ele>
        <time>2019-06-23T13:08:12Z</time>
      </trkpt>
      <trkpt lat="44.26177" lon="6.90381">
        <ele>1526.3060354936</ele>
        <time>2019-06-23T13:08:14Z</time>
      </trkpt>
      <trkpt lat="44.26178" lon="6.90379">
        <ele>1527.0238920804</ele>
        <time>2019-06-23T13:08:18Z</time>
      </trkpt>
      <trkpt lat="44.26176" lon="6.90379">
        <ele>1526.6653031841</ele>
        <time>2019-06-23T13:08:28Z</time>
      </trkpt>
      <trkpt lat="44.26176" lon="6.90379">
        <ele>1525.9129532406</ele>
        <time>2019-06-23T13:08:36Z</time>
      </trkpt>
      <trkpt lat="44.26175" lon="6.90382">
        <ele>1525.9111526906</ele>
        <time>2019-06-23T13:08:41Z</time>
      </trkpt>
      <trkpt lat="44.26176" lon="6.90384">
        <ele>1525.3593874943</ele>
        <time>2019-06-23T13:08:43Z</time>
      </trkpt>
      <trkpt lat="44.26178" lon="6.90387">
        <ele>1526.4418683348</ele>
        <time>2019-06-23T13:08:45Z</time>
      </trkpt>
      <trkpt lat="44.26178" lon="6.90389">
        <ele>1527.0624563268</ele>
        <time>2019-06-23T13:08:47Z</time>
      </trkpt>
      <trkpt lat="44.2618" lon="6.90391">
        <ele>1527.4459834387</ele>
        <time>2019-06-23T13:08:50Z</time>
      </trkpt>
      <trkpt lat="44.26181" lon="6.90393">
        <ele>1528.0268252178</ele>
        <time>2019-06-23T13:08:53Z</time>
      </trkpt>
      <trkpt lat="44.26181" lon="6.90395">
        <ele>1527.6670182421</ele>
        <time>2019-06-23T13:08:56Z</time>
      </trkpt>
      <trkpt lat="44.26182" lon="6.90399">
        <ele>1526.8441988404</ele>
        <time>2019-06-23T13:08:59Z</time>
      </trkpt>
      <trkpt lat="44.26183" lon="6.90402">
        <ele>1526.4162208428</ele>
        <time>2019-06-23T13:09:01Z</time>
      </trkpt>
      <trkpt lat="44.26185" lon="6.90405">
        <ele>1526.2819674522</ele>
        <time>2019-06-23T13:09:04Z</time>
      </trkpt>
      <trkpt lat="44.26185" lon="6.90409">
        <ele>1525.9458219176</ele>
        <time>2019-06-23T13:09:06Z</time>
      </trkpt>
      <trkpt lat="44.26186" lon="6.90412">
        <ele>1525.0116987435</ele>
        <time>2019-06-23T13:09:08Z</time>
      </trkpt>
      <trkpt lat="44.26185" lon="6.90415">
        <ele>1524.1330203535</ele>
        <time>2019-06-23T13:09:10Z</time>
      </trkpt>
      <trkpt lat="44.26186" lon="6.90417">
        <ele>1523.4779188724</ele>
        <time>2019-06-23T13:09:12Z</time>
      </trkpt>
      <trkpt lat="44.26188" lon="6.90416">
        <ele>1524.124285338</ele>
        <time>2019-06-23T13:09:14Z</time>
      </trkpt>
      <trkpt lat="44.26187" lon="6.90412">
        <ele>1525.4698356873</ele>
        <time>2019-06-23T13:09:23Z</time>
      </trkpt>
      <trkpt lat="44.26186" lon="6.9041">
        <ele>1525.7506560768</ele>
        <time>2019-06-23T13:09:26Z</time>
      </trkpt>
      <trkpt lat="44.26186" lon="6.90407">
        <ele>1526.4877910232</ele>
        <time>2019-06-23T13:09:29Z</time>
      </trkpt>
      <trkpt lat="44.26185" lon="6.90404">
        <ele>1527.1881253945</ele>
        <time>2019-06-23T13:09:34Z</time>
      </trkpt>
      <trkpt lat="44.26185" lon="6.90401">
        <ele>1527.1307818864</ele>
        <time>2019-06-23T13:09:39Z</time>
      </trkpt>
      <trkpt lat="44.26185" lon="6.90398">
        <ele>1527.9569418978</ele>
        <time>2019-06-23T13:09:41Z</time>
      </trkpt>
      <trkpt lat="44.26184" lon="6.90396">
        <ele>1528.1539266425</ele>
        <time>2019-06-23T13:09:43Z</time>
      </trkpt>
      <trkpt lat="44.26184" lon="6.90392">
        <ele>1529.078264654</ele>
        <time>2019-06-23T13:09:45Z</time>
      </trkpt>
      <trkpt lat="44.26185" lon="6.9039">
        <ele>1530.47333079</ele>
        <time>2019-06-23T13:09:48Z</time>
      </trkpt>
      <trkpt lat="44.26184" lon="6.90387">
        <ele>1530.906164706</ele>
        <time>2019-06-23T13:09:52Z</time>
      </trkpt>
      <trkpt lat="44.26185" lon="6.90384">
        <ele>1530.8884396225</ele>
        <time>2019-06-23T13:09:54Z</time>
      </trkpt>
      <trkpt lat="44.26186" lon="6.90381">
        <ele>1531.0617942662</ele>
        <time>2019-06-23T13:09:58Z</time>
      </trkpt>
      <trkpt lat="44.26186" lon="6.90381">
        <ele>1531.7013911818</ele>
        <time>2019-06-23T13:10:00Z</time>
      </trkpt>
      <trkpt lat="44.26187" lon="6.90379">
        <ele>1532.3306075653</ele>
        <time>2019-06-23T13:10:07Z</time>
      </trkpt>
      <trkpt lat="44.26189" lon="6.90377">
        <ele>1533.0268306915</ele>
        <time>2019-06-23T13:10:10Z</time>
      </trkpt>
      <trkpt lat="44.26191" lon="6.90377">
        <ele>1534.284117857</ele>
        <time>2019-06-23T13:10:13Z</time>
      </trkpt>
      <trkpt lat="44.26193" lon="6.90375">
        <ele>1535.2194964821</ele>
        <time>2019-06-23T13:10:16Z</time>
      </trkpt>
      <trkpt lat="44.26194" lon="6.90373">
        <ele>1536.1729902014</ele>
        <time>2019-06-23T13:10:20Z</time>
      </trkpt>
      <trkpt lat="44.26195" lon="6.9037">
        <ele>1537.1015690702</ele>
        <time>2019-06-23T13:10:23Z</time>
      </trkpt>
      <trkpt lat="44.26196" lon="6.90367">
        <ele>1537.4818753346</ele>
        <time>2019-06-23T13:10:26Z</time>
      </trkpt>
      <trkpt lat="44.26197" lon="6.90364">
        <ele>1537.5756566897</ele>
        <time>2019-06-23T13:10:28Z</time>
      </trkpt>
      <trkpt lat="44.26198" lon="6.90362">
        <ele>1538.6435976771</ele>
        <time>2019-06-23T13:10:30Z</time>
      </trkpt>
      <trkpt lat="44.26198" lon="6.90359">
        <ele>1538.4278052607</ele>
        <time>2019-06-23T13:10:35Z</time>
      </trkpt>
      <trkpt lat="44.262" lon="6.90362">
        <ele>1539.2299619252</ele>
        <time>2019-06-23T13:10:55Z</time>
      </trkpt>
      <trkpt lat="44.262" lon="6.90363">
        <ele>1534.3548158817</ele>
        <time>2019-06-23T13:10:56Z</time>
      </trkpt>
      <trkpt lat="44.262" lon="6.90366">
        <ele>1540.1538584266</ele>
        <time>2019-06-23T13:11:00Z</time>
      </trkpt>
      <trkpt lat="44.262" lon="6.90369">
        <ele>1540.0963499093</ele>
        <time>2019-06-23T13:11:02Z</time>
      </trkpt>
      <trkpt lat="44.26201" lon="6.90372">
        <ele>1540.192046385</ele>
        <time>2019-06-23T13:11:05Z</time>
      </trkpt>
      <trkpt lat="44.26202" lon="6.90375">
        <ele>1540.6270418475</ele>
        <time>2019-06-23T13:11:07Z</time>
      </trkpt>
      <trkpt lat="44.26203" lon="6.90377">
        <ele>1541.4335593908</ele>
        <time>2019-06-23T13:11:12Z</time>
      </trkpt>
      <trkpt lat="44.26204" lon="6.9038">
        <ele>1542.439073658</ele>
        <time>2019-06-23T13:11:15Z</time>
      </trkpt>
      <trkpt lat="44.26204" lon="6.90384">
        <ele>1542.3416297315</ele>
        <time>2019-06-23T13:11:20Z</time>
      </trkpt>
      <trkpt lat="44.26205" lon="6.90385">
        <ele>1542.6709977317</ele>
        <time>2019-06-23T13:11:25Z</time>
      </trkpt>
      <trkpt lat="44.26207" lon="6.90386">
        <ele>1543.599385193</ele>
        <time>2019-06-23T13:11:28Z</time>
      </trkpt>
      <trkpt lat="44.26207" lon="6.90389">
        <ele>1544.2051793571</ele>
        <time>2019-06-23T13:11:33Z</time>
      </trkpt>
      <trkpt lat="44.26207" lon="6.90392">
        <ele>1543.8465381838</ele>
        <time>2019-06-23T13:11:37Z</time>
      </trkpt>
      <trkpt lat="44.26208" lon="6.90394">
        <ele>1543.7391235996</ele>
        <time>2019-06-23T13:11:40Z</time>
      </trkpt>
      <trkpt lat="44.26209" lon="6.90397">
        <ele>1543.8315033702</ele>
        <time>2019-06-23T13:11:44Z</time>
      </trkpt>
      <trkpt lat="44.2621" lon="6.90399">
        <ele>1541.6748756827</ele>
        <time>2019-06-23T13:11:46Z</time>
      </trkpt>
      <trkpt lat="44.26211" lon="6.904">
        <ele>1544.331385762</ele>
        <time>2019-06-23T13:11:48Z</time>
      </trkpt>
      <trkpt lat="44.26212" lon="6.90404">
        <ele>1544.7281391065</ele>
        <time>2019-06-23T13:11:51Z</time>
      </trkpt>
      <trkpt lat="44.26212" lon="6.90405">
        <ele>1545.0278348152</ele>
        <time>2019-06-23T13:11:52Z</time>
      </trkpt>
      <trkpt lat="44.26213" lon="6.90406">
        <ele>1545.2849663822</ele>
        <time>2019-06-23T13:11:54Z</time>
      </trkpt>
      <trkpt lat="44.26214" lon="6.90408">
        <ele>1546.3133091823</ele>
        <time>2019-06-23T13:11:56Z</time>
      </trkpt>
      <trkpt lat="44.26215" lon="6.90411">
        <ele>1546.5485706376</ele>
        <time>2019-06-23T13:11:58Z</time>
      </trkpt>
      <trkpt lat="44.26215" lon="6.90414">
        <ele>1546.6226759739</ele>
        <time>2019-06-23T13:12:01Z</time>
      </trkpt>
      <trkpt lat="44.26216" lon="6.90417">
        <ele>1546.7737199696</ele>
        <time>2019-06-23T13:12:03Z</time>
      </trkpt>
      <trkpt lat="44.26215" lon="6.9042">
        <ele>1547.0216569885</ele>
        <time>2019-06-23T13:12:07Z</time>
      </trkpt>
      <trkpt lat="44.26217" lon="6.90422">
        <ele>1547.8320844312</ele>
        <time>2019-06-23T13:12:11Z</time>
      </trkpt>
      <trkpt lat="44.26218" lon="6.90425">
        <ele>1549.2471022537</ele>
        <time>2019-06-23T13:12:15Z</time>
      </trkpt>
      <trkpt lat="44.26217" lon="6.90429">
        <ele>1543.8997452222</ele>
        <time>2019-06-23T13:12:18Z</time>
      </trkpt>
      <trkpt lat="44.26218" lon="6.90431">
        <ele>1540.380650114</ele>
        <time>2019-06-23T13:12:20Z</time>
      </trkpt>
      <trkpt lat="44.26219" lon="6.90434">
        <ele>1538.2249304971</ele>
        <time>2019-06-23T13:12:22Z</time>
      </trkpt>
      <trkpt lat="44.2622" lon="6.90436">
        <ele>1550.5835498879</ele>
        <time>2019-06-23T13:12:24Z</time>
      </trkpt>
      <trkpt lat="44.26221" lon="6.90439">
        <ele>1551.5624460091</ele>
        <time>2019-06-23T13:12:29Z</time>
      </trkpt>
      <trkpt lat="44.26223" lon="6.90441">
        <ele>1553.0600091852</ele>
        <time>2019-06-23T13:12:32Z</time>
      </trkpt>
      <trkpt lat="44.26225" lon="6.90442">
        <ele>1554.0808300866</ele>
        <time>2019-06-23T13:12:38Z</time>
      </trkpt>
      <trkpt lat="44.26226" lon="6.90443">
        <ele>1555.1442147234</ele>
        <time>2019-06-23T13:12:44Z</time>
      </trkpt>
      <trkpt lat="44.26226" lon="6.9044">
        <ele>1555.3656890419</ele>
        <time>2019-06-23T13:12:49Z</time>
      </trkpt>
      <trkpt lat="44.26227" lon="6.90438">
        <ele>1555.68394402</ele>
        <time>2019-06-23T13:12:52Z</time>
      </trkpt>
      <trkpt lat="44.26228" lon="6.90435">
        <ele>1556.1295316246</ele>
        <time>2019-06-23T13:12:54Z</time>
      </trkpt>
      <trkpt lat="44.26229" lon="6.90433">
        <ele>1553.5306322614</ele>
        <time>2019-06-23T13:12:58Z</time>
      </trkpt>
      <trkpt lat="44.26229" lon="6.90429">
        <ele>1557.6398640268</ele>
        <time>2019-06-23T13:13:01Z</time>
      </trkpt>
      <trkpt lat="44.26228" lon="6.90427">
        <ele>1557.6758745234</ele>
        <time>2019-06-23T13:13:05Z</time>
      </trkpt>
      <trkpt lat="44.26229" lon="6.90424">
        <ele>1558.4322558833</ele>
        <time>2019-06-23T13:13:11Z</time>
      </trkpt>
      <trkpt lat="44.2623" lon="6.90421">
        <ele>1553.6237303349</ele>
        <time>2019-06-23T13:13:14Z</time>
      </trkpt>
      <trkpt lat="44.26231" lon="6.90417">
        <ele>1560.1386912816</ele>
        <time>2019-06-23T13:13:18Z</time>
      </trkpt>
      <trkpt lat="44.26232" lon="6.90414">
        <ele>1560.9776243709</ele>
        <time>2019-06-23T13:13:21Z</time>
      </trkpt>
      <trkpt lat="44.26232" lon="6.90412">
        <ele>1561.2603747606</ele>
        <time>2019-06-23T13:13:26Z</time>
      </trkpt>
      <trkpt lat="44.26232" lon="6.90409">
        <ele>1561.0617085227</ele>
        <time>2019-06-23T13:13:30Z</time>
      </trkpt>
      <trkpt lat="44.26233" lon="6.90406">
        <ele>1561.121772852</ele>
        <time>2019-06-23T13:13:33Z</time>
      </trkpt>
      <trkpt lat="44.26233" lon="6.90403">
        <ele>1561.0282065741</ele>
        <time>2019-06-23T13:13:39Z</time>
      </trkpt>
      <trkpt lat="44.26232" lon="6.90401">
        <ele>1560.591401468</ele>
        <time>2019-06-23T13:13:43Z</time>
      </trkpt>
      <trkpt lat="44.26232" lon="6.90398">
        <ele>1559.3341998407</ele>
        <time>2019-06-23T13:13:47Z</time>
      </trkpt>
      <trkpt lat="44.26232" lon="6.90395">
        <ele>1559.2527331049</ele>
        <time>2019-06-23T13:13:51Z</time>
      </trkpt>
      <trkpt lat="44.26234" lon="6.90392">
        <ele>1559.9015910739</ele>
        <time>2019-06-23T13:13:54Z</time>
      </trkpt>
      <trkpt lat="44.26235" lon="6.90394">
        <ele>1556.218744937</ele>
        <time>2019-06-23T13:14:02Z</time>
      </trkpt>
      <trkpt lat="44.26235" lon="6.90398">
        <ele>1560.9420517026</ele>
        <time>2019-06-23T13:14:11Z</time>
      </trkpt>
      <trkpt lat="44.26234" lon="6.90401">
        <ele>1561.4869051819</ele>
        <time>2019-06-23T13:14:13Z</time>
      </trkpt>
      <trkpt lat="44.26234" lon="6.90404">
        <ele>1561.8196387225</ele>
        <time>2019-06-23T13:14:16Z</time>
      </trkpt>
      <trkpt lat="44.26235" lon="6.90407">
        <ele>1561.9849352025</ele>
        <time>2019-06-23T13:14:18Z</time>
      </trkpt>
      <trkpt lat="44.26236" lon="6.9041">
        <ele>1563.3541333333</ele>
        <time>2019-06-23T13:14:20Z</time>
      </trkpt>
      <trkpt lat="44.26237" lon="6.90412">
        <ele>1564.5430589292</ele>
        <time>2019-06-23T13:14:23Z</time>
      </trkpt>
      <trkpt lat="44.26237" lon="6.90415">
        <ele>1565.5303646032</ele>
        <time>2019-06-23T13:14:28Z</time>
      </trkpt>
      <trkpt lat="44.26239" lon="6.90417">
        <ele>1565.9744720852</ele>
        <time>2019-06-23T13:14:31Z</time>
      </trkpt>
      <trkpt lat="44.26241" lon="6.90419">
        <ele>1562.0083564003</ele>
        <time>2019-06-23T13:14:33Z</time>
      </trkpt>
      <trkpt lat="44.26242" lon="6.90421">
        <ele>1554.5448087461</ele>
        <time>2019-06-23T13:14:43Z</time>
      </trkpt>
      <trkpt lat="44.26243" lon="6.90424">
        <ele>1569.0107890292</ele>
        <time>2019-06-23T13:14:54Z</time>
      </trkpt>
      <trkpt lat="44.2624" lon="6.90427">
        <ele>1568.280205453</ele>
        <time>2019-06-23T13:14:57Z</time>
      </trkpt>
      <trkpt lat="44.26241" lon="6.9043">
        <ele>1566.5209889075</ele>
        <time>2019-06-23T13:15:00Z</time>
      </trkpt>
      <trkpt lat="44.26242" lon="6.90433">
        <ele>1566.8604870152</ele>
        <time>2019-06-23T13:15:03Z</time>
      </trkpt>
      <trkpt lat="44.26244" lon="6.90435">
        <ele>1567.2176166347</ele>
        <time>2019-06-23T13:15:05Z</time>
      </trkpt>
      <trkpt lat="44.26245" lon="6.90438">
        <ele>1568.0829907718</ele>
        <time>2019-06-23T13:15:08Z</time>
      </trkpt>
      <trkpt lat="44.26246" lon="6.9044">
        <ele>1568.0964904233</ele>
        <time>2019-06-23T13:15:11Z</time>
      </trkpt>
      <trkpt lat="44.26247" lon="6.90442">
        <ele>1567.9324954888</ele>
        <time>2019-06-23T13:15:19Z</time>
      </trkpt>
      <trkpt lat="44.26246" lon="6.90445">
        <ele>1567.515917931</ele>
        <time>2019-06-23T13:15:22Z</time>
      </trkpt>
      <trkpt lat="44.26247" lon="6.90447">
        <ele>1566.9361211145</ele>
        <time>2019-06-23T13:15:42Z</time>
      </trkpt>
      <trkpt lat="44.26248" lon="6.90451">
        <ele>1567.6447963155</ele>
        <time>2019-06-23T13:15:44Z</time>
      </trkpt>
      <trkpt lat="44.26249" lon="6.90454">
        <ele>1567.9466352648</ele>
        <time>2019-06-23T13:15:46Z</time>
      </trkpt>
      <trkpt lat="44.26249" lon="6.90457">
        <ele>1568.2216046878</ele>
        <time>2019-06-23T13:15:50Z</time>
      </trkpt>
      <trkpt lat="44.2625" lon="6.9046">
        <ele>1568.808613569</ele>
        <time>2019-06-23T13:15:54Z</time>
      </trkpt>
      <trkpt lat="44.26251" lon="6.90463">
        <ele>1568.5510654558</ele>
        <time>2019-06-23T13:16:04Z</time>
      </trkpt>
      <trkpt lat="44.26253" lon="6.90464">
        <ele>1567.3603788136</ele>
        <time>2019-06-23T13:16:07Z</time>
      </trkpt>
      <trkpt lat="44.26254" lon="6.90467">
        <ele>1571.7737167521</ele>
        <time>2019-06-23T13:16:11Z</time>
      </trkpt>
      <trkpt lat="44.26255" lon="6.90469">
        <ele>1572.847952789</ele>
        <time>2019-06-23T13:16:15Z</time>
      </trkpt>
      <trkpt lat="44.26256" lon="6.90472">
        <ele>1574.1168654813</ele>
        <time>2019-06-23T13:16:21Z</time>
      </trkpt>
      <trkpt lat="44.26257" lon="6.90475">
        <ele>1575.3358519232</ele>
        <time>2019-06-23T13:16:25Z</time>
      </trkpt>
      <trkpt lat="44.26258" lon="6.90477">
        <ele>1575.3115941146</ele>
        <time>2019-06-23T13:16:28Z</time>
      </trkpt>
      <trkpt lat="44.26258" lon="6.9048">
        <ele>1575.4602862874</ele>
        <time>2019-06-23T13:16:31Z</time>
      </trkpt>
      <trkpt lat="44.26257" lon="6.90483">
        <ele>1574.9940843732</ele>
        <time>2019-06-23T13:16:35Z</time>
      </trkpt>
      <trkpt lat="44.26258" lon="6.90485">
        <ele>1575.1765731478</ele>
        <time>2019-06-23T13:16:38Z</time>
      </trkpt>
      <trkpt lat="44.26259" lon="6.90488">
        <ele>1575.4438568198</ele>
        <time>2019-06-23T13:16:42Z</time>
      </trkpt>
      <trkpt lat="44.26261" lon="6.90489">
        <ele>1576.4249576569</ele>
        <time>2019-06-23T13:16:46Z</time>
      </trkpt>
      <trkpt lat="44.26263" lon="6.90491">
        <ele>1577.5896832203</ele>
        <time>2019-06-23T13:16:49Z</time>
      </trkpt>
      <trkpt lat="44.26264" lon="6.90494">
        <ele>1577.996577438</ele>
        <time>2019-06-23T13:16:52Z</time>
      </trkpt>
      <trkpt lat="44.26266" lon="6.90496">
        <ele>1578.4722016066</ele>
        <time>2019-06-23T13:16:57Z</time>
      </trkpt>
      <trkpt lat="44.26266" lon="6.90499">
        <ele>1578.3758686478</ele>
        <time>2019-06-23T13:17:00Z</time>
      </trkpt>
      <trkpt lat="44.26266" lon="6.90502">
        <ele>1578.3348859295</ele>
        <time>2019-06-23T13:17:02Z</time>
      </trkpt>
      <trkpt lat="44.26267" lon="6.90503">
        <ele>1578.8366682218</ele>
        <time>2019-06-23T13:17:05Z</time>
      </trkpt>
      <trkpt lat="44.26268" lon="6.90506">
        <ele>1578.7783113913</ele>
        <time>2019-06-23T13:17:09Z</time>
      </trkpt>
      <trkpt lat="44.2627" lon="6.90507">
        <ele>1579.5039445366</ele>
        <time>2019-06-23T13:17:11Z</time>
      </trkpt>
      <trkpt lat="44.26271" lon="6.9051">
        <ele>1580.6741986124</ele>
        <time>2019-06-23T13:17:17Z</time>
      </trkpt>
      <trkpt lat="44.26271" lon="6.90513">
        <ele>1581.2338040433</ele>
        <time>2019-06-23T13:17:20Z</time>
      </trkpt>
      <trkpt lat="44.26272" lon="6.90515">
        <ele>1580.9743117688</ele>
        <time>2019-06-23T13:17:23Z</time>
      </trkpt>
      <trkpt lat="44.26273" lon="6.90519">
        <ele>1581.1376468902</ele>
        <time>2019-06-23T13:17:29Z</time>
      </trkpt>
      <trkpt lat="44.26274" lon="6.90522">
        <ele>1581.7691808216</ele>
        <time>2019-06-23T13:17:32Z</time>
      </trkpt>
      <trkpt lat="44.26275" lon="6.90524">
        <ele>1582.5927436118</ele>
        <time>2019-06-23T13:17:34Z</time>
      </trkpt>
      <trkpt lat="44.26276" lon="6.90527">
        <ele>1583.4775652396</ele>
        <time>2019-06-23T13:17:37Z</time>
      </trkpt>
      <trkpt lat="44.26278" lon="6.9053">
        <ele>1584.6100649294</ele>
        <time>2019-06-23T13:17:40Z</time>
      </trkpt>
      <trkpt lat="44.26279" lon="6.90533">
        <ele>1585.6994142314</ele>
        <time>2019-06-23T13:17:44Z</time>
      </trkpt>
      <trkpt lat="44.2628" lon="6.90535">
        <ele>1585.9206055162</ele>
        <time>2019-06-23T13:17:46Z</time>
      </trkpt>
      <trkpt lat="44.26281" lon="6.90538">
        <ele>1586.8077800742</ele>
        <time>2019-06-23T13:17:51Z</time>
      </trkpt>
      <trkpt lat="44.26282" lon="6.9054">
        <ele>1587.0706430484</ele>
        <time>2019-06-23T13:17:55Z</time>
      </trkpt>
      <trkpt lat="44.26283" lon="6.90542">
        <ele>1587.5541919628</ele>
        <time>2019-06-23T13:18:00Z</time>
      </trkpt>
      <trkpt lat="44.26284" lon="6.90546">
        <ele>1587.7183068059</ele>
        <time>2019-06-23T13:18:06Z</time>
      </trkpt>
      <trkpt lat="44.26283" lon="6.90549">
        <ele>1587.3123204415</ele>
        <time>2019-06-23T13:18:09Z</time>
      </trkpt>
      <trkpt lat="44.26283" lon="6.90552">
        <ele>1587.0810045978</ele>
        <time>2019-06-23T13:18:11Z</time>
      </trkpt>
      <trkpt lat="44.26284" lon="6.90555">
        <ele>1587.1361828945</ele>
        <time>2019-06-23T13:18:13Z</time>
      </trkpt>
      <trkpt lat="44.26285" lon="6.90558">
        <ele>1587.1298904172</ele>
        <time>2019-06-23T13:18:16Z</time>
      </trkpt>
      <trkpt lat="44.26287" lon="6.90559">
        <ele>1587.1282891843</ele>
        <time>2019-06-23T13:18:18Z</time>
      </trkpt>
      <trkpt lat="44.26288" lon="6.90561">
        <ele>1586.8564185342</ele>
        <time>2019-06-23T13:18:21Z</time>
      </trkpt>
      <trkpt lat="44.2629" lon="6.90564">
        <ele>1586.8081955196</ele>
        <time>2019-06-23T13:18:25Z</time>
      </trkpt>
      <trkpt lat="44.26291" lon="6.90566">
        <ele>1586.4172890322</ele>
        <time>2019-06-23T13:18:27Z</time>
      </trkpt>
      <trkpt lat="44.26292" lon="6.90569">
        <ele>1585.8687441552</ele>
        <time>2019-06-23T13:18:30Z</time>
      </trkpt>
      <trkpt lat="44.26294" lon="6.90571">
        <ele>1585.5264073235</ele>
        <time>2019-06-23T13:18:34Z</time>
      </trkpt>
      <trkpt lat="44.26296" lon="6.90573">
        <ele>1585.7055868729</ele>
        <time>2019-06-23T13:18:36Z</time>
      </trkpt>
      <trkpt lat="44.26297" lon="6.90575">
        <ele>1585.48892652</ele>
        <time>2019-06-23T13:18:38Z</time>
      </trkpt>
      <trkpt lat="44.26299" lon="6.90576">
        <ele>1585.6265834929</ele>
        <time>2019-06-23T13:18:41Z</time>
      </trkpt>
      <trkpt lat="44.26301" lon="6.90573">
        <ele>1586.5914097485</ele>
        <time>2019-06-23T13:18:44Z</time>
      </trkpt>
      <trkpt lat="44.26303" lon="6.90572">
        <ele>1587.8264140993</ele>
        <time>2019-06-23T13:18:48Z</time>
      </trkpt>
      <trkpt lat="44.26303" lon="6.90569">
        <ele>1588.5286700949</ele>
        <time>2019-06-23T13:18:52Z</time>
      </trkpt>
      <trkpt lat="44.26303" lon="6.90569">
        <ele>1589.0615715216</ele>
        <time>2019-06-23T13:18:56Z</time>
      </trkpt>
      <trkpt lat="44.26303" lon="6.90566">
        <ele>1589.5657206062</ele>
        <time>2019-06-23T13:19:01Z</time>
      </trkpt>
      <trkpt lat="44.26303" lon="6.90563">
        <ele>1590.1143446481</ele>
        <time>2019-06-23T13:19:05Z</time>
      </trkpt>
      <trkpt lat="44.26302" lon="6.9056">
        <ele>1590.9167323594</ele>
        <time>2019-06-23T13:19:07Z</time>
      </trkpt>
      <trkpt lat="44.26303" lon="6.90557">
        <ele>1591.9542564159</ele>
        <time>2019-06-23T13:19:10Z</time>
      </trkpt>
      <trkpt lat="44.26303" lon="6.90554">
        <ele>1592.5193160474</ele>
        <time>2019-06-23T13:19:12Z</time>
      </trkpt>
      <trkpt lat="44.26303" lon="6.90551">
        <ele>1593.736692718</ele>
        <time>2019-06-23T13:19:14Z</time>
      </trkpt>
      <trkpt lat="44.26302" lon="6.90548">
        <ele>1594.1628388274</ele>
        <time>2019-06-23T13:19:17Z</time>
      </trkpt>
      <trkpt lat="44.26301" lon="6.90546">
        <ele>1594.5481206216</ele>
        <time>2019-06-23T13:19:19Z</time>
      </trkpt>
      <trkpt lat="44.26302" lon="6.90543">
        <ele>1595.2115328237</ele>
        <time>2019-06-23T13:19:22Z</time>
      </trkpt>
      <trkpt lat="44.26301" lon="6.9054">
        <ele>1595.8342436653</ele>
        <time>2019-06-23T13:19:26Z</time>
      </trkpt>
      <trkpt lat="44.263" lon="6.90537">
        <ele>1596.1320131606</ele>
        <time>2019-06-23T13:19:29Z</time>
      </trkpt>
      <trkpt lat="44.263" lon="6.90533">
        <ele>1596.7178294848</ele>
        <time>2019-06-23T13:19:32Z</time>
      </trkpt>
      <trkpt lat="44.263" lon="6.90531">
        <ele>1597.1854605892</ele>
        <time>2019-06-23T13:19:35Z</time>
      </trkpt>
      <trkpt lat="44.263" lon="6.90528">
        <ele>1598.0679490943</ele>
        <time>2019-06-23T13:19:38Z</time>
      </trkpt>
      <trkpt lat="44.263" lon="6.90525">
        <ele>1598.7323420809</ele>
        <time>2019-06-23T13:19:41Z</time>
      </trkpt>
      <trkpt lat="44.26301" lon="6.90521">
        <ele>1599.7059355561</ele>
        <time>2019-06-23T13:19:46Z</time>
      </trkpt>
      <trkpt lat="44.26301" lon="6.90518">
        <ele>1600.6628749415</ele>
        <time>2019-06-23T13:19:50Z</time>
      </trkpt>
      <trkpt lat="44.26301" lon="6.90515">
        <ele>1602.2980026519</ele>
        <time>2019-06-23T13:19:55Z</time>
      </trkpt>
      <trkpt lat="44.26302" lon="6.90518">
        <ele>1602.1141881341</ele>
        <time>2019-06-23T13:20:08Z</time>
      </trkpt>
      <trkpt lat="44.26303" lon="6.90521">
        <ele>1601.9706980795</ele>
        <time>2019-06-23T13:20:10Z</time>
      </trkpt>
      <trkpt lat="44.26303" lon="6.90524">
        <ele>1600.9375347468</ele>
        <time>2019-06-23T13:20:13Z</time>
      </trkpt>
      <trkpt lat="44.26303" lon="6.90527">
        <ele>1600.5777193874</ele>
        <time>2019-06-23T13:20:15Z</time>
      </trkpt>
      <trkpt lat="44.26303" lon="6.9053">
        <ele>1599.8253480404</ele>
        <time>2019-06-23T13:20:17Z</time>
      </trkpt>
      <trkpt lat="44.26303" lon="6.90534">
        <ele>1598.8246751634</ele>
        <time>2019-06-23T13:20:20Z</time>
      </trkpt>
      <trkpt lat="44.26304" lon="6.90536">
        <ele>1598.6063792024</ele>
        <time>2019-06-23T13:20:23Z</time>
      </trkpt>
      <trkpt lat="44.26306" lon="6.90538">
        <ele>1598.6770860546</ele>
        <time>2019-06-23T13:20:25Z</time>
      </trkpt>
      <trkpt lat="44.26306" lon="6.9054">
        <ele>1598.4679103106</ele>
        <time>2019-06-23T13:20:27Z</time>
      </trkpt>
      <trkpt lat="44.26307" lon="6.90543">
        <ele>1597.8739206303</ele>
        <time>2019-06-23T13:20:32Z</time>
      </trkpt>
      <trkpt lat="44.26307" lon="6.90546">
        <ele>1596.924265362</ele>
        <time>2019-06-23T13:20:35Z</time>
      </trkpt>
      <trkpt lat="44.26308" lon="6.90548">
        <ele>1596.6349353263</ele>
        <time>2019-06-23T13:20:37Z</time>
      </trkpt>
      <trkpt lat="44.2631" lon="6.90547">
        <ele>1597.4264043772</ele>
        <time>2019-06-23T13:20:41Z</time>
      </trkpt>
      <trkpt lat="44.26312" lon="6.90547">
        <ele>1598.2470529531</ele>
        <time>2019-06-23T13:20:44Z</time>
      </trkpt>
      <trkpt lat="44.26313" lon="6.90545">
        <ele>1599.1978611991</ele>
        <time>2019-06-23T13:20:50Z</time>
      </trkpt>
      <trkpt lat="44.26314" lon="6.90542">
        <ele>1600.6879287801</ele>
        <time>2019-06-23T13:20:53Z</time>
      </trkpt>
      <trkpt lat="44.26316" lon="6.90541">
        <ele>1600.3111626474</ele>
        <time>2019-06-23T13:20:58Z</time>
      </trkpt>
      <trkpt lat="44.26316" lon="6.90541">
        <ele>1602.3427487585</ele>
        <time>2019-06-23T13:21:04Z</time>
      </trkpt>
      <trkpt lat="44.26317" lon="6.90544">
        <ele>1602.0172431151</ele>
        <time>2019-06-23T13:21:08Z</time>
      </trkpt>
      <trkpt lat="44.26316" lon="6.90546">
        <ele>1600.676135247</ele>
        <time>2019-06-23T13:21:11Z</time>
      </trkpt>
      <trkpt lat="44.26313" lon="6.90547">
        <ele>1600.4620534629</ele>
        <time>2019-06-23T13:21:15Z</time>
      </trkpt>
      <trkpt lat="44.26312" lon="6.90549">
        <ele>1598.5006964754</ele>
        <time>2019-06-23T13:21:17Z</time>
      </trkpt>
      <trkpt lat="44.26312" lon="6.90553">
        <ele>1596.7953456336</ele>
        <time>2019-06-23T13:21:19Z</time>
      </trkpt>
      <trkpt lat="44.26313" lon="6.90555">
        <ele>1596.1434801276</ele>
        <time>2019-06-23T13:21:25Z</time>
      </trkpt>
      <trkpt lat="44.26315" lon="6.90552">
        <ele>1599.9855277319</ele>
        <time>2019-06-23T13:21:31Z</time>
      </trkpt>
      <trkpt lat="44.26315" lon="6.9055">
        <ele>1598.365527219</ele>
        <time>2019-06-23T13:21:34Z</time>
      </trkpt>
      <trkpt lat="44.26314" lon="6.90547">
        <ele>1598.8334603713</ele>
        <time>2019-06-23T13:21:37Z</time>
      </trkpt>
      <trkpt lat="44.26315" lon="6.90545">
        <ele>1600.0864124198</ele>
        <time>2019-06-23T13:21:45Z</time>
      </trkpt>
      <trkpt lat="44.26313" lon="6.90543">
        <ele>1599.9402221079</ele>
        <time>2019-06-23T13:21:49Z</time>
      </trkpt>
      <trkpt lat="44.26314" lon="6.9054">
        <ele>1601.1812584898</ele>
        <time>2019-06-23T13:21:53Z</time>
      </trkpt>
      <trkpt lat="44.26316" lon="6.90538">
        <ele>1603.1831651417</ele>
        <time>2019-06-23T13:21:58Z</time>
      </trkpt>
      <trkpt lat="44.26314" lon="6.90538">
        <ele>1601.6665717393</ele>
        <time>2019-06-23T13:22:07Z</time>
      </trkpt>
      <trkpt lat="44.26314" lon="6.90541">
        <ele>1601.9194079436</ele>
        <time>2019-06-23T13:22:11Z</time>
      </trkpt>
      <trkpt lat="44.26315" lon="6.90543">
        <ele>1601.2693565915</ele>
        <time>2019-06-23T13:22:15Z</time>
      </trkpt>
      <trkpt lat="44.26313" lon="6.90545">
        <ele>1599.9069380673</ele>
        <time>2019-06-23T13:22:36Z</time>
      </trkpt>
      <trkpt lat="44.26312" lon="6.90543">
        <ele>1599.6610732029</ele>
        <time>2019-06-23T13:22:50Z</time>
      </trkpt>
      <trkpt lat="44.2631" lon="6.90543">
        <ele>1599.2988454427</ele>
        <time>2019-06-23T13:23:01Z</time>
      </trkpt>
      <trkpt lat="44.26308" lon="6.90545">
        <ele>1597.8221384806</ele>
        <time>2019-06-23T13:23:05Z</time>
      </trkpt>
      <trkpt lat="44.26307" lon="6.90547">
        <ele>1596.5319458705</ele>
        <time>2019-06-23T13:23:10Z</time>
      </trkpt>
      <trkpt lat="44.26306" lon="6.90544">
        <ele>1596.6651970916</ele>
        <time>2019-06-23T13:23:26Z</time>
      </trkpt>
      <trkpt lat="44.26308" lon="6.90544">
        <ele>1597.6079368566</ele>
        <time>2019-06-23T13:23:39Z</time>
      </trkpt>
      <trkpt lat="44.2631" lon="6.90545">
        <ele>1598.1390609669</ele>
        <time>2019-06-23T13:23:43Z</time>
      </trkpt>
      <trkpt lat="44.26311" lon="6.90544">
        <ele>1598.710006965</ele>
        <time>2019-06-23T13:23:59Z</time>
      </trkpt>
      <trkpt lat="44.26313" lon="6.90542">
        <ele>1606.2358107698</ele>
        <time>2019-06-23T13:24:39Z</time>
      </trkpt>
      <trkpt lat="44.26314" lon="6.90543">
        <ele>1605.4051779786</ele>
        <time>2019-06-23T13:24:47Z</time>
      </trkpt>
      <trkpt lat="44.26316" lon="6.90541">
        <ele>1602.8446010951</ele>
        <time>2019-06-23T13:25:00Z</time>
      </trkpt>
      <trkpt lat="44.26318" lon="6.90539">
        <ele>1602.8404364686</ele>
        <time>2019-06-23T13:25:03Z</time>
      </trkpt>
      <trkpt lat="44.2632" lon="6.90538">
        <ele>1605.2659099659</ele>
        <time>2019-06-23T13:25:09Z</time>
      </trkpt>
      <trkpt lat="44.26321" lon="6.90535">
        <ele>1604.7354923105</ele>
        <time>2019-06-23T13:25:15Z</time>
      </trkpt>
      <trkpt lat="44.26322" lon="6.90532">
        <ele>1603.311664909</ele>
        <time>2019-06-23T13:25:19Z</time>
      </trkpt>
      <trkpt lat="44.2632" lon="6.90532">
        <ele>1602.1354341198</ele>
        <time>2019-06-23T13:25:23Z</time>
      </trkpt>
      <trkpt lat="44.26321" lon="6.9053">
        <ele>1601.1044103468</ele>
        <time>2019-06-23T13:25:31Z</time>
      </trkpt>
      <trkpt lat="44.26321" lon="6.90527">
        <ele>1610.2178494596</ele>
        <time>2019-06-23T13:25:35Z</time>
      </trkpt>
      <trkpt lat="44.26321" lon="6.90524">
        <ele>1611.4614552077</ele>
        <time>2019-06-23T13:25:38Z</time>
      </trkpt>
      <trkpt lat="44.2632" lon="6.90521">
        <ele>1611.8913863264</ele>
        <time>2019-06-23T13:25:40Z</time>
      </trkpt>
      <trkpt lat="44.2632" lon="6.90518">
        <ele>1612.4466719657</ele>
        <time>2019-06-23T13:25:42Z</time>
      </trkpt>
      <trkpt lat="44.2632" lon="6.90515">
        <ele>1613.4235810232</ele>
        <time>2019-06-23T13:25:44Z</time>
      </trkpt>
      <trkpt lat="44.26318" lon="6.90512">
        <ele>1613.4463908853</ele>
        <time>2019-06-23T13:25:46Z</time>
      </trkpt>
      <trkpt lat="44.26317" lon="6.9051">
        <ele>1613.5052640035</ele>
        <time>2019-06-23T13:25:48Z</time>
      </trkpt>
      <trkpt lat="44.26316" lon="6.90506">
        <ele>1613.7832176282</ele>
        <time>2019-06-23T13:25:51Z</time>
      </trkpt>
      <trkpt lat="44.26317" lon="6.90503">
        <ele>1614.5642645951</ele>
        <time>2019-06-23T13:25:53Z</time>
      </trkpt>
      <trkpt lat="44.26318" lon="6.90501">
        <ele>1616.0618321449</ele>
        <time>2019-06-23T13:25:55Z</time>
      </trkpt>
      <trkpt lat="44.26317" lon="6.90499">
        <ele>1616.7654915249</ele>
        <time>2019-06-23T13:25:59Z</time>
      </trkpt>
      <trkpt lat="44.26318" lon="6.90496">
        <ele>1616.4405780651</ele>
        <time>2019-06-23T13:26:03Z</time>
      </trkpt>
      <trkpt lat="44.26319" lon="6.90494">
        <ele>1613.0728435643</ele>
        <time>2019-06-23T13:26:18Z</time>
      </trkpt>
      <trkpt lat="44.26319" lon="6.90495">
        <ele>1610.1335505331</ele>
        <time>2019-06-23T13:26:19Z</time>
      </trkpt>
      <trkpt lat="44.2632" lon="6.90498">
        <ele>1617.6224225667</ele>
        <time>2019-06-23T13:26:22Z</time>
      </trkpt>
      <trkpt lat="44.26321" lon="6.90501">
        <ele>1618.6208075204</ele>
        <time>2019-06-23T13:26:26Z</time>
      </trkpt>
      <trkpt lat="44.26322" lon="6.90503">
        <ele>1618.2328555106</ele>
        <time>2019-06-23T13:26:29Z</time>
      </trkpt>
      <trkpt lat="44.26323" lon="6.90505">
        <ele>1618.3972415251</ele>
        <time>2019-06-23T13:26:33Z</time>
      </trkpt>
      <trkpt lat="44.26323" lon="6.90505">
        <ele>1618.3020967286</ele>
        <time>2019-06-23T13:26:35Z</time>
      </trkpt>
      <trkpt lat="44.26325" lon="6.90508">
        <ele>1618.6384755749</ele>
        <time>2019-06-23T13:26:40Z</time>
      </trkpt>
      <trkpt lat="44.26326" lon="6.9051">
        <ele>1618.9332022419</ele>
        <time>2019-06-23T13:26:45Z</time>
      </trkpt>
      <trkpt lat="44.26327" lon="6.90513">
        <ele>1618.5490206072</ele>
        <time>2019-06-23T13:26:51Z</time>
      </trkpt>
      <trkpt lat="44.26329" lon="6.90514">
        <ele>1618.8971606048</ele>
        <time>2019-06-23T13:26:57Z</time>
      </trkpt>
      <trkpt lat="44.26331" lon="6.90514">
        <ele>1619.6046362026</ele>
        <time>2019-06-23T13:26:59Z</time>
      </trkpt>
      <trkpt lat="44.26333" lon="6.90515">
        <ele>1621.16053394</ele>
        <time>2019-06-23T13:27:03Z</time>
      </trkpt>
      <trkpt lat="44.26335" lon="6.90516">
        <ele>1621.5604132465</ele>
        <time>2019-06-23T13:27:05Z</time>
      </trkpt>
      <trkpt lat="44.26337" lon="6.90515">
        <ele>1621.9464080944</ele>
        <time>2019-06-23T13:27:09Z</time>
      </trkpt>
      <trkpt lat="44.26338" lon="6.90513">
        <ele>1622.6463195389</ele>
        <time>2019-06-23T13:27:12Z</time>
      </trkpt>
      <trkpt lat="44.26341" lon="6.90513">
        <ele>1623.4875147685</ele>
        <time>2019-06-23T13:27:16Z</time>
      </trkpt>
      <trkpt lat="44.26344" lon="6.90515">
        <ele>1623.2157570294</ele>
        <time>2019-06-23T13:27:18Z</time>
      </trkpt>
      <trkpt lat="44.26346" lon="6.90516">
        <ele>1622.971867577</ele>
        <time>2019-06-23T13:27:20Z</time>
      </trkpt>
      <trkpt lat="44.26348" lon="6.90516">
        <ele>1622.9334814169</ele>
        <time>2019-06-23T13:27:22Z</time>
      </trkpt>
      <trkpt lat="44.26351" lon="6.90517">
        <ele>1622.9852504599</ele>
        <time>2019-06-23T13:27:25Z</time>
      </trkpt>
      <trkpt lat="44.26352" lon="6.90515">
        <ele>1623.871819807</ele>
        <time>2019-06-23T13:27:28Z</time>
      </trkpt>
      <trkpt lat="44.26354" lon="6.90516">
        <ele>1623.9940922673</ele>
        <time>2019-06-23T13:27:30Z</time>
      </trkpt>
      <trkpt lat="44.26357" lon="6.90516">
        <ele>1624.0722632341</ele>
        <time>2019-06-23T13:27:32Z</time>
      </trkpt>
      <trkpt lat="44.26358" lon="6.90515">
        <ele>1625.0863045115</ele>
        <time>2019-06-23T13:27:38Z</time>
      </trkpt>
      <trkpt lat="44.2636" lon="6.90516">
        <ele>1624.563120559</ele>
        <time>2019-06-23T13:27:42Z</time>
      </trkpt>
      <trkpt lat="44.26362" lon="6.90514">
        <ele>1625.0060259244</ele>
        <time>2019-06-23T13:27:47Z</time>
      </trkpt>
      <trkpt lat="44.26364" lon="6.90514">
        <ele>1625.7198702704</ele>
        <time>2019-06-23T13:27:51Z</time>
      </trkpt>
      <trkpt lat="44.26367" lon="6.90511">
        <ele>1626.6692269122</ele>
        <time>2019-06-23T13:27:54Z</time>
      </trkpt>
      <trkpt lat="44.26368" lon="6.90509">
        <ele>1627.8515636629</ele>
        <time>2019-06-23T13:27:58Z</time>
      </trkpt>
      <trkpt lat="44.2637" lon="6.90509">
        <ele>1628.5497918577</ele>
        <time>2019-06-23T13:28:03Z</time>
      </trkpt>
      <trkpt lat="44.26371" lon="6.90507">
        <ele>1629.5431416175</ele>
        <time>2019-06-23T13:28:12Z</time>
      </trkpt>
      <trkpt lat="44.26373" lon="6.90505">
        <ele>1630.5062602666</ele>
        <time>2019-06-23T13:28:15Z</time>
      </trkpt>
      <trkpt lat="44.26375" lon="6.90502">
        <ele>1631.993809811</ele>
        <time>2019-06-23T13:28:18Z</time>
      </trkpt>
      <trkpt lat="44.26377" lon="6.905">
        <ele>1633.2474459564</ele>
        <time>2019-06-23T13:28:20Z</time>
      </trkpt>
      <trkpt lat="44.26378" lon="6.90498">
        <ele>1634.3129864215</ele>
        <time>2019-06-23T13:28:23Z</time>
      </trkpt>
      <trkpt lat="44.2638" lon="6.90496">
        <ele>1635.0194259524</ele>
        <time>2019-06-23T13:28:28Z</time>
      </trkpt>
      <trkpt lat="44.26382" lon="6.90495">
        <ele>1635.1878290709</ele>
        <time>2019-06-23T13:28:30Z</time>
      </trkpt>
      <trkpt lat="44.26383" lon="6.90494">
        <ele>1635.4847213603</ele>
        <time>2019-06-23T13:28:33Z</time>
      </trkpt>
      <trkpt lat="44.26383" lon="6.90491">
        <ele>1636.5071442571</ele>
        <time>2019-06-23T13:28:39Z</time>
      </trkpt>
      <trkpt lat="44.26385" lon="6.90491">
        <ele>1636.676322463</ele>
        <time>2019-06-23T13:28:55Z</time>
      </trkpt>
      <trkpt lat="44.26387" lon="6.90491">
        <ele>1636.5057603714</ele>
        <time>2019-06-23T13:28:59Z</time>
      </trkpt>
      <trkpt lat="44.26389" lon="6.9049">
        <ele>1636.643486821</ele>
        <time>2019-06-23T13:29:03Z</time>
      </trkpt>
      <trkpt lat="44.26391" lon="6.90489">
        <ele>1636.992632912</ele>
        <time>2019-06-23T13:29:05Z</time>
      </trkpt>
      <trkpt lat="44.26393" lon="6.90488">
        <ele>1637.3340892745</ele>
        <time>2019-06-23T13:29:08Z</time>
      </trkpt>
      <trkpt lat="44.26393" lon="6.90485">
        <ele>1637.8879944515</ele>
        <time>2019-06-23T13:29:11Z</time>
      </trkpt>
      <trkpt lat="44.26394" lon="6.90482">
        <ele>1638.8980288042</ele>
        <time>2019-06-23T13:29:15Z</time>
      </trkpt>
      <trkpt lat="44.26395" lon="6.90479">
        <ele>1639.5221375604</ele>
        <time>2019-06-23T13:29:17Z</time>
      </trkpt>
      <trkpt lat="44.26396" lon="6.90476">
        <ele>1640.5375607768</ele>
        <time>2019-06-23T13:29:19Z</time>
      </trkpt>
      <trkpt lat="44.26394" lon="6.90473">
        <ele>1641.5305917222</ele>
        <time>2019-06-23T13:29:23Z</time>
      </trkpt>
      <trkpt lat="44.26393" lon="6.90472">
        <ele>1642.1744055906</ele>
        <time>2019-06-23T13:29:28Z</time>
      </trkpt>
      <trkpt lat="44.26392" lon="6.90469">
        <ele>1642.9534959081</ele>
        <time>2019-06-23T13:29:33Z</time>
      </trkpt>
      <trkpt lat="44.26391" lon="6.90467">
        <ele>1643.5912774324</ele>
        <time>2019-06-23T13:29:36Z</time>
      </trkpt>
      <trkpt lat="44.26391" lon="6.90465">
        <ele>1644.0051274942</ele>
        <time>2019-06-23T13:29:39Z</time>
      </trkpt>
      <trkpt lat="44.26389" lon="6.90464">
        <ele>1644.3844832909</ele>
        <time>2019-06-23T13:29:43Z</time>
      </trkpt>
      <trkpt lat="44.2639" lon="6.90462">
        <ele>1645.1715896136</ele>
        <time>2019-06-23T13:29:49Z</time>
      </trkpt>
      <trkpt lat="44.2639" lon="6.90458">
        <ele>1646.0447660849</ele>
        <time>2019-06-23T13:29:56Z</time>
      </trkpt>
      <trkpt lat="44.26392" lon="6.90455">
        <ele>1647.0530977065</ele>
        <time>2019-06-23T13:29:59Z</time>
      </trkpt>
      <trkpt lat="44.26392" lon="6.90453">
        <ele>1647.9862860918</ele>
        <time>2019-06-23T13:30:02Z</time>
      </trkpt>
      <trkpt lat="44.26392" lon="6.9045">
        <ele>1649.2173939434</ele>
        <time>2019-06-23T13:30:06Z</time>
      </trkpt>
      <trkpt lat="44.26393" lon="6.90447">
        <ele>1650.0619517308</ele>
        <time>2019-06-23T13:30:09Z</time>
      </trkpt>
      <trkpt lat="44.26394" lon="6.90445">
        <ele>1651.2535771773</ele>
        <time>2019-06-23T13:30:15Z</time>
      </trkpt>
      <trkpt lat="44.26397" lon="6.90445">
        <ele>1652.1369489903</ele>
        <time>2019-06-23T13:30:21Z</time>
      </trkpt>
      <trkpt lat="44.26397" lon="6.90442">
        <ele>1652.4325873895</ele>
        <time>2019-06-23T13:30:32Z</time>
      </trkpt>
      <trkpt lat="44.26399" lon="6.90441">
        <ele>1652.9866062553</ele>
        <time>2019-06-23T13:30:35Z</time>
      </trkpt>
      <trkpt lat="44.26401" lon="6.90439">
        <ele>1653.602372076</ele>
        <time>2019-06-23T13:30:39Z</time>
      </trkpt>
      <trkpt lat="44.26402" lon="6.90437">
        <ele>1653.8491362649</ele>
        <time>2019-06-23T13:30:43Z</time>
      </trkpt>
      <trkpt lat="44.26404" lon="6.90436">
        <ele>1654.3023054747</ele>
        <time>2019-06-23T13:30:50Z</time>
      </trkpt>
      <trkpt lat="44.26406" lon="6.90435">
        <ele>1654.7988997622</ele>
        <time>2019-06-23T13:30:56Z</time>
      </trkpt>
      <trkpt lat="44.26407" lon="6.90432">
        <ele>1655.3990483506</ele>
        <time>2019-06-23T13:31:01Z</time>
      </trkpt>
      <trkpt lat="44.26407" lon="6.90429">
        <ele>1655.5266007643</ele>
        <time>2019-06-23T13:31:11Z</time>
      </trkpt>
      <trkpt lat="44.26407" lon="6.90427">
        <ele>1655.378690614</ele>
        <time>2019-06-23T13:31:13Z</time>
      </trkpt>
      <trkpt lat="44.26408" lon="6.90426">
        <ele>1655.5169428615</ele>
        <time>2019-06-23T13:31:16Z</time>
      </trkpt>
      <trkpt lat="44.2641" lon="6.90424">
        <ele>1656.1707201</ele>
        <time>2019-06-23T13:31:27Z</time>
      </trkpt>
      <trkpt lat="44.26411" lon="6.90422">
        <ele>1656.6347050188</ele>
        <time>2019-06-23T13:31:40Z</time>
      </trkpt>
      <trkpt lat="44.26413" lon="6.9042">
        <ele>1656.9660129932</ele>
        <time>2019-06-23T13:31:46Z</time>
      </trkpt>
      <trkpt lat="44.26413" lon="6.90417">
        <ele>1657.2866370089</ele>
        <time>2019-06-23T13:31:50Z</time>
      </trkpt>
      <trkpt lat="44.26413" lon="6.90414">
        <ele>1657.7380561301</ele>
        <time>2019-06-23T13:31:53Z</time>
      </trkpt>
      <trkpt lat="44.26414" lon="6.9041">
        <ele>1658.4319349174</ele>
        <time>2019-06-23T13:31:56Z</time>
      </trkpt>
      <trkpt lat="44.26414" lon="6.90407">
        <ele>1660.1424123655</ele>
        <time>2019-06-23T13:31:59Z</time>
      </trkpt>
      <trkpt lat="44.26415" lon="6.90404">
        <ele>1660.7732679194</ele>
        <time>2019-06-23T13:32:01Z</time>
      </trkpt>
      <trkpt lat="44.26416" lon="6.90401">
        <ele>1661.7839273365</ele>
        <time>2019-06-23T13:32:07Z</time>
      </trkpt>
      <trkpt lat="44.26417" lon="6.90399">
        <ele>1662.7951823367</ele>
        <time>2019-06-23T13:32:09Z</time>
      </trkpt>
      <trkpt lat="44.26418" lon="6.90397">
        <ele>1663.7798807155</ele>
        <time>2019-06-23T13:32:12Z</time>
      </trkpt>
      <trkpt lat="44.26419" lon="6.90395">
        <ele>1664.4684634037</ele>
        <time>2019-06-23T13:32:14Z</time>
      </trkpt>
      <trkpt lat="44.26419" lon="6.90391">
        <ele>1665.3939243187</ele>
        <time>2019-06-23T13:32:19Z</time>
      </trkpt>
      <trkpt lat="44.26418" lon="6.90388">
        <ele>1666.3059401508</ele>
        <time>2019-06-23T13:32:22Z</time>
      </trkpt>
      <trkpt lat="44.26417" lon="6.90385">
        <ele>1665.6824447012</ele>
        <time>2019-06-23T13:32:24Z</time>
      </trkpt>
      <trkpt lat="44.26416" lon="6.90382">
        <ele>1664.7812241546</ele>
        <time>2019-06-23T13:32:27Z</time>
      </trkpt>
      <trkpt lat="44.26416" lon="6.90379">
        <ele>1663.7297154429</ele>
        <time>2019-06-23T13:32:33Z</time>
      </trkpt>
      <trkpt lat="44.26416" lon="6.90376">
        <ele>1662.7041762941</ele>
        <time>2019-06-23T13:32:37Z</time>
      </trkpt>
      <trkpt lat="44.26416" lon="6.90374">
        <ele>1661.94850592</ele>
        <time>2019-06-23T13:32:39Z</time>
      </trkpt>
      <trkpt lat="44.26416" lon="6.90371">
        <ele>1661.3225507788</ele>
        <time>2019-06-23T13:32:41Z</time>
      </trkpt>
      <trkpt lat="44.26418" lon="6.90369">
        <ele>1660.9899110136</ele>
        <time>2019-06-23T13:32:44Z</time>
      </trkpt>
      <trkpt lat="44.2642" lon="6.90367">
        <ele>1660.58716955</ele>
        <time>2019-06-23T13:32:48Z</time>
      </trkpt>
      <trkpt lat="44.26422" lon="6.90365">
        <ele>1660.7718232154</ele>
        <time>2019-06-23T13:32:51Z</time>
      </trkpt>
      <trkpt lat="44.26424" lon="6.90365">
        <ele>1660.9692959146</ele>
        <time>2019-06-23T13:32:53Z</time>
      </trkpt>
      <trkpt lat="44.26425" lon="6.90363">
        <ele>1661.2057738155</ele>
        <time>2019-06-23T13:32:55Z</time>
      </trkpt>
      <trkpt lat="44.26427" lon="6.90362">
        <ele>1661.3725160359</ele>
        <time>2019-06-23T13:32:57Z</time>
      </trkpt>
      <trkpt lat="44.26429" lon="6.9036">
        <ele>1661.7126042894</ele>
        <time>2019-06-23T13:33:00Z</time>
      </trkpt>
      <trkpt lat="44.26431" lon="6.90359">
        <ele>1662.2067225242</ele>
        <time>2019-06-23T13:33:02Z</time>
      </trkpt>
      <trkpt lat="44.26433" lon="6.90357">
        <ele>1662.7172435405</ele>
        <time>2019-06-23T13:33:04Z</time>
      </trkpt>
      <trkpt lat="44.26435" lon="6.90356">
        <ele>1663.3828907429</ele>
        <time>2019-06-23T13:33:06Z</time>
      </trkpt>
      <trkpt lat="44.26435" lon="6.90353">
        <ele>1663.6233606358</ele>
        <time>2019-06-23T13:33:09Z</time>
      </trkpt>
      <trkpt lat="44.26437" lon="6.9035">
        <ele>1664.0697927217</ele>
        <time>2019-06-23T13:33:13Z</time>
      </trkpt>
      <trkpt lat="44.2644" lon="6.9035">
        <ele>1664.6272542028</ele>
        <time>2019-06-23T13:33:16Z</time>
      </trkpt>
      <trkpt lat="44.26441" lon="6.90348">
        <ele>1665.2018846623</ele>
        <time>2019-06-23T13:33:19Z</time>
      </trkpt>
      <trkpt lat="44.26443" lon="6.90345">
        <ele>1665.6426703617</ele>
        <time>2019-06-23T13:33:23Z</time>
      </trkpt>
      <trkpt lat="44.26445" lon="6.90344">
        <ele>1666.2674554984</ele>
        <time>2019-06-23T13:33:26Z</time>
      </trkpt>
      <trkpt lat="44.26446" lon="6.90342">
        <ele>1666.8220246604</ele>
        <time>2019-06-23T13:33:30Z</time>
      </trkpt>
      <trkpt lat="44.26448" lon="6.9034">
        <ele>1667.1986431439</ele>
        <time>2019-06-23T13:33:32Z</time>
      </trkpt>
      <trkpt lat="44.26449" lon="6.90338">
        <ele>1667.601613522</ele>
        <time>2019-06-23T13:33:35Z</time>
      </trkpt>
      <trkpt lat="44.26451" lon="6.90336">
        <ele>1668.0959244514</ele>
        <time>2019-06-23T13:33:38Z</time>
      </trkpt>
      <trkpt lat="44.26452" lon="6.90334">
        <ele>1668.5332362672</ele>
        <time>2019-06-23T13:33:41Z</time>
      </trkpt>
      <trkpt lat="44.26453" lon="6.90331">
        <ele>1668.9183142645</ele>
        <time>2019-06-23T13:33:46Z</time>
      </trkpt>
      <trkpt lat="44.26453" lon="6.90328">
        <ele>1668.8786514501</ele>
        <time>2019-06-23T13:33:48Z</time>
      </trkpt>
      <trkpt lat="44.26454" lon="6.90325">
        <ele>1669.1606978272</ele>
        <time>2019-06-23T13:33:51Z</time>
      </trkpt>
      <trkpt lat="44.26455" lon="6.90323">
        <ele>1669.5313335403</ele>
        <time>2019-06-23T13:33:55Z</time>
      </trkpt>
      <trkpt lat="44.26457" lon="6.9032">
        <ele>1669.8319471889</ele>
        <time>2019-06-23T13:33:58Z</time>
      </trkpt>
      <trkpt lat="44.26458" lon="6.90317">
        <ele>1670.2157124022</ele>
        <time>2019-06-23T13:34:01Z</time>
      </trkpt>
      <trkpt lat="44.26459" lon="6.90315">
        <ele>1670.5147078618</ele>
        <time>2019-06-23T13:34:04Z</time>
      </trkpt>
      <trkpt lat="44.26461" lon="6.90312">
        <ele>1670.9615659392</ele>
        <time>2019-06-23T13:34:07Z</time>
      </trkpt>
      <trkpt lat="44.26463" lon="6.9031">
        <ele>1671.54688206</ele>
        <time>2019-06-23T13:34:10Z</time>
      </trkpt>
      <trkpt lat="44.26464" lon="6.90308">
        <ele>1672.0010341563</ele>
        <time>2019-06-23T13:34:18Z</time>
      </trkpt>
      <trkpt lat="44.26462" lon="6.90304">
        <ele>1671.6693266033</ele>
        <time>2019-06-23T13:34:40Z</time>
      </trkpt>
      <trkpt lat="44.26465" lon="6.90303">
        <ele>1671.9551100844</ele>
        <time>2019-06-23T13:34:43Z</time>
      </trkpt>
      <trkpt lat="44.26466" lon="6.903">
        <ele>1672.6820973688</ele>
        <time>2019-06-23T13:34:47Z</time>
      </trkpt>
      <trkpt lat="44.26467" lon="6.90297">
        <ele>1672.8919487195</ele>
        <time>2019-06-23T13:34:53Z</time>
      </trkpt>
      <trkpt lat="44.26469" lon="6.90297">
        <ele>1673.3212199244</ele>
        <time>2019-06-23T13:34:58Z</time>
      </trkpt>
      <trkpt lat="44.2647" lon="6.90295">
        <ele>1673.6534212794</ele>
        <time>2019-06-23T13:35:01Z</time>
      </trkpt>
      <trkpt lat="44.26472" lon="6.90292">
        <ele>1674.1503871478</ele>
        <time>2019-06-23T13:35:04Z</time>
      </trkpt>
      <trkpt lat="44.26473" lon="6.9029">
        <ele>1674.6262921315</ele>
        <time>2019-06-23T13:35:09Z</time>
      </trkpt>
      <trkpt lat="44.26474" lon="6.90288">
        <ele>1675.0539198331</ele>
        <time>2019-06-23T13:35:12Z</time>
      </trkpt>
      <trkpt lat="44.26476" lon="6.90285">
        <ele>1676.0701642444</ele>
        <time>2019-06-23T13:35:16Z</time>
      </trkpt>
      <trkpt lat="44.26478" lon="6.90282">
        <ele>1677.0477969031</ele>
        <time>2019-06-23T13:35:18Z</time>
      </trkpt>
      <trkpt lat="44.26479" lon="6.9028">
        <ele>1678.1794797656</ele>
        <time>2019-06-23T13:35:21Z</time>
      </trkpt>
      <trkpt lat="44.26481" lon="6.90278">
        <ele>1678.7885333235</ele>
        <time>2019-06-23T13:35:24Z</time>
      </trkpt>
      <trkpt lat="44.26482" lon="6.90276">
        <ele>1679.7925217633</ele>
        <time>2019-06-23T13:35:28Z</time>
      </trkpt>
      <trkpt lat="44.26484" lon="6.90275">
        <ele>1680.5480874055</ele>
        <time>2019-06-23T13:35:31Z</time>
      </trkpt>
      <trkpt lat="44.26487" lon="6.90273">
        <ele>1681.6091764765</ele>
        <time>2019-06-23T13:35:33Z</time>
      </trkpt>
      <trkpt lat="44.26489" lon="6.90272">
        <ele>1682.6686850723</ele>
        <time>2019-06-23T13:35:35Z</time>
      </trkpt>
      <trkpt lat="44.26489" lon="6.9027">
        <ele>1683.0609165717</ele>
        <time>2019-06-23T13:35:38Z</time>
      </trkpt>
      <trkpt lat="44.26491" lon="6.90268">
        <ele>1683.460636562</ele>
        <time>2019-06-23T13:35:41Z</time>
      </trkpt>
      <trkpt lat="44.26493" lon="6.90266">
        <ele>1683.7799330532</ele>
        <time>2019-06-23T13:35:45Z</time>
      </trkpt>
      <trkpt lat="44.26495" lon="6.90265">
        <ele>1684.4198314086</ele>
        <time>2019-06-23T13:35:48Z</time>
      </trkpt>
      <trkpt lat="44.26497" lon="6.90264">
        <ele>1685.0557766048</ele>
        <time>2019-06-23T13:35:51Z</time>
      </trkpt>
      <trkpt lat="44.265" lon="6.90262">
        <ele>1685.59054659</ele>
        <time>2019-06-23T13:36:32Z</time>
      </trkpt>
      <trkpt lat="44.26502" lon="6.90261">
        <ele>1686.0367311334</ele>
        <time>2019-06-23T13:36:35Z</time>
      </trkpt>
      <trkpt lat="44.26504" lon="6.90263">
        <ele>1686.6645838087</ele>
        <time>2019-06-23T13:36:40Z</time>
      </trkpt>
      <trkpt lat="44.26505" lon="6.90263">
        <ele>1687.2229428879</ele>
        <time>2019-06-23T13:37:04Z</time>
      </trkpt>
      <trkpt lat="44.26507" lon="6.90263">
        <ele>1687.2554455458</ele>
        <time>2019-06-23T13:37:14Z</time>
      </trkpt>
      <trkpt lat="44.26509" lon="6.90263">
        <ele>1687.7073671181</ele>
        <time>2019-06-23T13:37:20Z</time>
      </trkpt>
      <trkpt lat="44.26512" lon="6.90263">
        <ele>1688.1128019335</ele>
        <time>2019-06-23T13:37:23Z</time>
      </trkpt>
      <trkpt lat="44.26514" lon="6.90262">
        <ele>1688.3676551222</ele>
        <time>2019-06-23T13:37:26Z</time>
      </trkpt>
      <trkpt lat="44.26516" lon="6.90261">
        <ele>1688.5016091798</ele>
        <time>2019-06-23T13:37:32Z</time>
      </trkpt>
      <trkpt lat="44.26518" lon="6.90259">
        <ele>1688.6253074792</ele>
        <time>2019-06-23T13:37:35Z</time>
      </trkpt>
      <trkpt lat="44.2652" lon="6.90257">
        <ele>1688.7947898201</ele>
        <time>2019-06-23T13:37:38Z</time>
      </trkpt>
      <trkpt lat="44.26522" lon="6.90255">
        <ele>1689.0109220651</ele>
        <time>2019-06-23T13:37:40Z</time>
      </trkpt>
      <trkpt lat="44.26524" lon="6.90255">
        <ele>1689.5557039992</ele>
        <time>2019-06-23T13:37:43Z</time>
      </trkpt>
      <trkpt lat="44.26526" lon="6.90255">
        <ele>1689.9351205623</ele>
        <time>2019-06-23T13:37:45Z</time>
      </trkpt>
      <trkpt lat="44.26528" lon="6.90254">
        <ele>1690.4701146791</ele>
        <time>2019-06-23T13:37:47Z</time>
      </trkpt>
      <trkpt lat="44.2653" lon="6.90253">
        <ele>1691.028698348</ele>
        <time>2019-06-23T13:37:50Z</time>
      </trkpt>
      <trkpt lat="44.26531" lon="6.90252">
        <ele>1691.5369373516</ele>
        <time>2019-06-23T13:37:53Z</time>
      </trkpt>
      <trkpt lat="44.26533" lon="6.90251">
        <ele>1691.8714978373</ele>
        <time>2019-06-23T13:37:55Z</time>
      </trkpt>
      <trkpt lat="44.26534" lon="6.90248">
        <ele>1692.1779216306</ele>
        <time>2019-06-23T13:37:58Z</time>
      </trkpt>
      <trkpt lat="44.26536" lon="6.90246">
        <ele>1692.1337133441</ele>
        <time>2019-06-23T13:38:00Z</time>
      </trkpt>
      <trkpt lat="44.26539" lon="6.90245">
        <ele>1692.6547702847</ele>
        <time>2019-06-23T13:38:02Z</time>
      </trkpt>
      <trkpt lat="44.26541" lon="6.90243">
        <ele>1693.1929077839</ele>
        <time>2019-06-23T13:38:05Z</time>
      </trkpt>
      <trkpt lat="44.26542" lon="6.90242">
        <ele>1693.6640352636</ele>
        <time>2019-06-23T13:38:11Z</time>
      </trkpt>
      <trkpt lat="44.26545" lon="6.90242">
        <ele>1694.383729793</ele>
        <time>2019-06-23T13:38:14Z</time>
      </trkpt>
      <trkpt lat="44.26547" lon="6.90241">
        <ele>1695.2254573</ele>
        <time>2019-06-23T13:38:17Z</time>
      </trkpt>
      <trkpt lat="44.26549" lon="6.90239">
        <ele>1695.7538910686</ele>
        <time>2019-06-23T13:38:20Z</time>
      </trkpt>
      <trkpt lat="44.26551" lon="6.90238">
        <ele>1696.5717574837</ele>
        <time>2019-06-23T13:38:24Z</time>
      </trkpt>
      <trkpt lat="44.26553" lon="6.90237">
        <ele>1696.9641971128</ele>
        <time>2019-06-23T13:38:26Z</time>
      </trkpt>
      <trkpt lat="44.26555" lon="6.90236">
        <ele>1698.1401848621</ele>
        <time>2019-06-23T13:38:29Z</time>
      </trkpt>
      <trkpt lat="44.26556" lon="6.90233">
        <ele>1698.7735049876</ele>
        <time>2019-06-23T13:38:33Z</time>
      </trkpt>
      <trkpt lat="44.26557" lon="6.90231">
        <ele>1699.1397098682</ele>
        <time>2019-06-23T13:38:36Z</time>
      </trkpt>
      <trkpt lat="44.26558" lon="6.90229">
        <ele>1699.4464212821</ele>
        <time>2019-06-23T13:38:55Z</time>
      </trkpt>
      <trkpt lat="44.26559" lon="6.90226">
        <ele>1699.7253472689</ele>
        <time>2019-06-23T13:38:59Z</time>
      </trkpt>
      <trkpt lat="44.2656" lon="6.90224">
        <ele>1700.0396107328</ele>
        <time>2019-06-23T13:39:03Z</time>
      </trkpt>
      <trkpt lat="44.26562" lon="6.90222">
        <ele>1700.4219016331</ele>
        <time>2019-06-23T13:39:06Z</time>
      </trkpt>
      <trkpt lat="44.26564" lon="6.9022">
        <ele>1700.8305440133</ele>
        <time>2019-06-23T13:39:08Z</time>
      </trkpt>
      <trkpt lat="44.26565" lon="6.90218">
        <ele>1700.7575459595</ele>
        <time>2019-06-23T13:39:12Z</time>
      </trkpt>
      <trkpt lat="44.26567" lon="6.90217">
        <ele>1701.0322260723</ele>
        <time>2019-06-23T13:39:19Z</time>
      </trkpt>
      <trkpt lat="44.26568" lon="6.90215">
        <ele>1701.4315424418</ele>
        <time>2019-06-23T13:39:22Z</time>
      </trkpt>
      <trkpt lat="44.2657" lon="6.90214">
        <ele>1701.8076674517</ele>
        <time>2019-06-23T13:39:30Z</time>
      </trkpt>
      <trkpt lat="44.26572" lon="6.90213">
        <ele>1702.190402648</ele>
        <time>2019-06-23T13:39:32Z</time>
      </trkpt>
      <trkpt lat="44.26574" lon="6.90212">
        <ele>1702.8468358394</ele>
        <time>2019-06-23T13:39:36Z</time>
      </trkpt>
      <trkpt lat="44.26576" lon="6.90211">
        <ele>1703.6131197714</ele>
        <time>2019-06-23T13:39:38Z</time>
      </trkpt>
      <trkpt lat="44.26578" lon="6.90209">
        <ele>1704.1364259212</ele>
        <time>2019-06-23T13:39:40Z</time>
      </trkpt>
      <trkpt lat="44.2658" lon="6.90209">
        <ele>1705.1418542952</ele>
        <time>2019-06-23T13:39:42Z</time>
      </trkpt>
      <trkpt lat="44.26582" lon="6.90207">
        <ele>1705.9427525339</ele>
        <time>2019-06-23T13:39:45Z</time>
      </trkpt>
      <trkpt lat="44.26584" lon="6.90206">
        <ele>1706.7530559891</ele>
        <time>2019-06-23T13:39:47Z</time>
      </trkpt>
      <trkpt lat="44.26585" lon="6.90203">
        <ele>1707.3206073143</ele>
        <time>2019-06-23T13:39:56Z</time>
      </trkpt>
      <trkpt lat="44.26588" lon="6.90204">
        <ele>1707.9244698612</ele>
        <time>2019-06-23T13:39:59Z</time>
      </trkpt>
      <trkpt lat="44.2659" lon="6.90204">
        <ele>1708.5539937442</ele>
        <time>2019-06-23T13:40:05Z</time>
      </trkpt>
      <trkpt lat="44.26592" lon="6.90203">
        <ele>1709.176420899</ele>
        <time>2019-06-23T13:40:08Z</time>
      </trkpt>
      <trkpt lat="44.26595" lon="6.90202">
        <ele>1709.8813073416</ele>
        <time>2019-06-23T13:40:12Z</time>
      </trkpt>
      <trkpt lat="44.26597" lon="6.90203">
        <ele>1710.8549625725</ele>
        <time>2019-06-23T13:40:33Z</time>
      </trkpt>
      <trkpt lat="44.26599" lon="6.90202">
        <ele>1711.3173188576</ele>
        <time>2019-06-23T13:40:42Z</time>
      </trkpt>
      <trkpt lat="44.26601" lon="6.902">
        <ele>1711.9186339285</ele>
        <time>2019-06-23T13:40:53Z</time>
      </trkpt>
      <trkpt lat="44.26603" lon="6.90197">
        <ele>1712.2569249105</ele>
        <time>2019-06-23T13:40:55Z</time>
      </trkpt>
      <trkpt lat="44.26604" lon="6.90194">
        <ele>1712.6553102617</ele>
        <time>2019-06-23T13:40:57Z</time>
      </trkpt>
      <trkpt lat="44.26604" lon="6.90192">
        <ele>1712.5082211171</ele>
        <time>2019-06-23T13:40:59Z</time>
      </trkpt>
      <trkpt lat="44.26606" lon="6.9019">
        <ele>1712.1313810246</ele>
        <time>2019-06-23T13:41:03Z</time>
      </trkpt>
      <trkpt lat="44.26608" lon="6.90188">
        <ele>1711.9422709913</ele>
        <time>2019-06-23T13:41:06Z</time>
      </trkpt>
      <trkpt lat="44.2661" lon="6.90186">
        <ele>1712.1479461932</ele>
        <time>2019-06-23T13:41:08Z</time>
      </trkpt>
      <trkpt lat="44.26612" lon="6.90184">
        <ele>1712.1432154129</ele>
        <time>2019-06-23T13:41:11Z</time>
      </trkpt>
      <trkpt lat="44.26614" lon="6.90182">
        <ele>1712.445090984</ele>
        <time>2019-06-23T13:41:15Z</time>
      </trkpt>
      <trkpt lat="44.26615" lon="6.9018">
        <ele>1712.259820419</ele>
        <time>2019-06-23T13:41:18Z</time>
      </trkpt>
      <trkpt lat="44.26616" lon="6.90178">
        <ele>1712.3868157942</ele>
        <time>2019-06-23T13:41:23Z</time>
      </trkpt>
      <trkpt lat="44.26618" lon="6.90177">
        <ele>1712.9526687408</ele>
        <time>2019-06-23T13:41:25Z</time>
      </trkpt>
      <trkpt lat="44.26621" lon="6.90175">
        <ele>1713.5998629148</ele>
        <time>2019-06-23T13:41:27Z</time>
      </trkpt>
      <trkpt lat="44.26622" lon="6.90174">
        <ele>1714.2993084894</ele>
        <time>2019-06-23T13:41:29Z</time>
      </trkpt>
      <trkpt lat="44.26624" lon="6.90173">
        <ele>1715.2243677467</ele>
        <time>2019-06-23T13:41:34Z</time>
      </trkpt>
      <trkpt lat="44.26626" lon="6.90172">
        <ele>1716.0037364161</ele>
        <time>2019-06-23T13:41:38Z</time>
      </trkpt>
      <trkpt lat="44.26627" lon="6.9017">
        <ele>1716.4196498164</ele>
        <time>2019-06-23T13:41:41Z</time>
      </trkpt>
      <trkpt lat="44.26629" lon="6.90169">
        <ele>1717.1241860459</ele>
        <time>2019-06-23T13:41:43Z</time>
      </trkpt>
      <trkpt lat="44.26631" lon="6.90167">
        <ele>1718.124439416</ele>
        <time>2019-06-23T13:41:45Z</time>
      </trkpt>
      <trkpt lat="44.26633" lon="6.90166">
        <ele>1719.0305692089</ele>
        <time>2019-06-23T13:41:49Z</time>
      </trkpt>
      <trkpt lat="44.26635" lon="6.90165">
        <ele>1720.1944863416</ele>
        <time>2019-06-23T13:41:52Z</time>
      </trkpt>
      <trkpt lat="44.26637" lon="6.90164">
        <ele>1721.062378164</ele>
        <time>2019-06-23T13:41:55Z</time>
      </trkpt>
      <trkpt lat="44.26639" lon="6.90162">
        <ele>1721.4951616692</ele>
        <time>2019-06-23T13:41:57Z</time>
      </trkpt>
      <trkpt lat="44.2664" lon="6.90159">
        <ele>1721.4394068667</ele>
        <time>2019-06-23T13:42:00Z</time>
      </trkpt>
      <trkpt lat="44.26641" lon="6.90157">
        <ele>1721.0491120338</ele>
        <time>2019-06-23T13:42:04Z</time>
      </trkpt>
      <trkpt lat="44.26642" lon="6.90154">
        <ele>1721.0529940958</ele>
        <time>2019-06-23T13:42:06Z</time>
      </trkpt>
      <trkpt lat="44.26642" lon="6.90151">
        <ele>1720.319204079</ele>
        <time>2019-06-23T13:42:09Z</time>
      </trkpt>
      <trkpt lat="44.26643" lon="6.90148">
        <ele>1719.6549180429</ele>
        <time>2019-06-23T13:42:12Z</time>
      </trkpt>
      <trkpt lat="44.26644" lon="6.90144">
        <ele>1719.4110431227</ele>
        <time>2019-06-23T13:42:14Z</time>
      </trkpt>
      <trkpt lat="44.26644" lon="6.90141">
        <ele>1718.8255709262</ele>
        <time>2019-06-23T13:42:16Z</time>
      </trkpt>
      <trkpt lat="44.26644" lon="6.90139">
        <ele>1718.5345221125</ele>
        <time>2019-06-23T13:42:18Z</time>
      </trkpt>
      <trkpt lat="44.26644" lon="6.90136">
        <ele>1718.1748416048</ele>
        <time>2019-06-23T13:42:20Z</time>
      </trkpt>
      <trkpt lat="44.26645" lon="6.90133">
        <ele>1718.2741097899</ele>
        <time>2019-06-23T13:42:22Z</time>
      </trkpt>
      <trkpt lat="44.26646" lon="6.9013">
        <ele>1718.9126273431</ele>
        <time>2019-06-23T13:42:25Z</time>
      </trkpt>
      <trkpt lat="44.26647" lon="6.90128">
        <ele>1719.2595674813</ele>
        <time>2019-06-23T13:42:27Z</time>
      </trkpt>
      <trkpt lat="44.26649" lon="6.90126">
        <ele>1720.5831424639</ele>
        <time>2019-06-23T13:42:30Z</time>
      </trkpt>
      <trkpt lat="44.26651" lon="6.90124">
        <ele>1721.5410071766</ele>
        <time>2019-06-23T13:42:33Z</time>
      </trkpt>
      <trkpt lat="44.26652" lon="6.90121">
        <ele>1722.4629049827</ele>
        <time>2019-06-23T13:42:36Z</time>
      </trkpt>
      <trkpt lat="44.26653" lon="6.90118">
        <ele>1723.0379152594</ele>
        <time>2019-06-23T13:42:39Z</time>
      </trkpt>
      <trkpt lat="44.26654" lon="6.90116">
        <ele>1723.6517515002</ele>
        <time>2019-06-23T13:42:42Z</time>
      </trkpt>
      <trkpt lat="44.26655" lon="6.90113">
        <ele>1724.1063324995</ele>
        <time>2019-06-23T13:42:45Z</time>
      </trkpt>
      <trkpt lat="44.26656" lon="6.90111">
        <ele>1724.6869830485</ele>
        <time>2019-06-23T13:42:47Z</time>
      </trkpt>
      <trkpt lat="44.26658" lon="6.90109">
        <ele>1725.5927610416</ele>
        <time>2019-06-23T13:42:50Z</time>
      </trkpt>
      <trkpt lat="44.2666" lon="6.90108">
        <ele>1726.6762220103</ele>
        <time>2019-06-23T13:42:54Z</time>
      </trkpt>
      <trkpt lat="44.26662" lon="6.90107">
        <ele>1727.1496644385</ele>
        <time>2019-06-23T13:42:58Z</time>
      </trkpt>
      <trkpt lat="44.26664" lon="6.90106">
        <ele>1728.0274506517</ele>
        <time>2019-06-23T13:43:01Z</time>
      </trkpt>
      <trkpt lat="44.26666" lon="6.90105">
        <ele>1729.0515710823</ele>
        <time>2019-06-23T13:43:05Z</time>
      </trkpt>
      <trkpt lat="44.26668" lon="6.90105">
        <ele>1729.4983465769</ele>
        <time>2019-06-23T13:43:08Z</time>
      </trkpt>
      <trkpt lat="44.26669" lon="6.90102">
        <ele>1729.6272224295</ele>
        <time>2019-06-23T13:43:11Z</time>
      </trkpt>
      <trkpt lat="44.2667" lon="6.901">
        <ele>1729.4031588005</ele>
        <time>2019-06-23T13:43:14Z</time>
      </trkpt>
      <trkpt lat="44.26672" lon="6.90098">
        <ele>1729.649888951</ele>
        <time>2019-06-23T13:43:18Z</time>
      </trkpt>
      <trkpt lat="44.26673" lon="6.90097">
        <ele>1729.7132189426</ele>
        <time>2019-06-23T13:43:21Z</time>
      </trkpt>
      <trkpt lat="44.26676" lon="6.90095">
        <ele>1730.4492612412</ele>
        <time>2019-06-23T13:43:25Z</time>
      </trkpt>
      <trkpt lat="44.26678" lon="6.90095">
        <ele>1731.24904456</ele>
        <time>2019-06-23T13:43:28Z</time>
      </trkpt>
      <trkpt lat="44.2668" lon="6.90096">
        <ele>1732.4646954899</ele>
        <time>2019-06-23T13:43:33Z</time>
      </trkpt>
      <trkpt lat="44.26682" lon="6.90095">
        <ele>1733.3289877286</ele>
        <time>2019-06-23T13:43:36Z</time>
      </trkpt>
      <trkpt lat="44.26684" lon="6.90095">
        <ele>1734.0094157698</ele>
        <time>2019-06-23T13:43:42Z</time>
      </trkpt>
      <trkpt lat="44.26686" lon="6.90095">
        <ele>1734.8334434597</ele>
        <time>2019-06-23T13:43:45Z</time>
      </trkpt>
      <trkpt lat="44.26687" lon="6.90094">
        <ele>1735.5649316483</ele>
        <time>2019-06-23T13:43:47Z</time>
      </trkpt>
      <trkpt lat="44.26688" lon="6.90091">
        <ele>1736.3167486011</ele>
        <time>2019-06-23T13:44:16Z</time>
      </trkpt>
      <trkpt lat="44.26686" lon="6.9009">
        <ele>1735.4153936625</ele>
        <time>2019-06-23T13:44:25Z</time>
      </trkpt>
      <trkpt lat="44.26685" lon="6.90087">
        <ele>1734.420371632</ele>
        <time>2019-06-23T13:44:29Z</time>
      </trkpt>
      <trkpt lat="44.26685" lon="6.90085">
        <ele>1734.0078007877</ele>
        <time>2019-06-23T13:44:35Z</time>
      </trkpt>
      <trkpt lat="44.26683" lon="6.90084">
        <ele>1732.9762809235</ele>
        <time>2019-06-23T13:44:50Z</time>
      </trkpt>
      <trkpt lat="44.26683" lon="6.90082">
        <ele>1721.5555929737</ele>
        <time>2019-06-23T13:44:59Z</time>
      </trkpt>
      <trkpt lat="44.26684" lon="6.90077">
        <ele>1731.8026623837</ele>
        <time>2019-06-23T13:45:11Z</time>
      </trkpt>
      <trkpt lat="44.26685" lon="6.90074">
        <ele>1732.2877578244</ele>
        <time>2019-06-23T13:45:14Z</time>
      </trkpt>
      <trkpt lat="44.26687" lon="6.90072">
        <ele>1731.9836755371</ele>
        <time>2019-06-23T13:45:17Z</time>
      </trkpt>
      <trkpt lat="44.26689" lon="6.90072">
        <ele>1732.6781868988</ele>
        <time>2019-06-23T13:45:19Z</time>
      </trkpt>
      <trkpt lat="44.2669" lon="6.90071">
        <ele>1733.3839393855</ele>
        <time>2019-06-23T13:45:21Z</time>
      </trkpt>
      <trkpt lat="44.26692" lon="6.90069">
        <ele>1733.9865202538</ele>
        <time>2019-06-23T13:45:24Z</time>
      </trkpt>
      <trkpt lat="44.26694" lon="6.90069">
        <ele>1734.6606811663</ele>
        <time>2019-06-23T13:45:26Z</time>
      </trkpt>
      <trkpt lat="44.26696" lon="6.90069">
        <ele>1735.1490222153</ele>
        <time>2019-06-23T13:45:29Z</time>
      </trkpt>
      <trkpt lat="44.26698" lon="6.90068">
        <ele>1735.2858044737</ele>
        <time>2019-06-23T13:45:30Z</time>
      </trkpt>
      <trkpt lat="44.267" lon="6.90067">
        <ele>1735.4328622409</ele>
        <time>2019-06-23T13:45:32Z</time>
      </trkpt>
      <trkpt lat="44.26703" lon="6.9007">
        <ele>1736.016432428</ele>
        <time>2019-06-23T13:45:34Z</time>
      </trkpt>
      <trkpt lat="44.26704" lon="6.9007">
        <ele>1736.5195181512</ele>
        <time>2019-06-23T13:45:35Z</time>
      </trkpt>
      <trkpt lat="44.26706" lon="6.90072">
        <ele>1737.2599540293</ele>
        <time>2019-06-23T13:45:39Z</time>
      </trkpt>
      <trkpt lat="44.26708" lon="6.90074">
        <ele>1737.6708202892</ele>
        <time>2019-06-23T13:45:41Z</time>
      </trkpt>
      <trkpt lat="44.2671" lon="6.90073">
        <ele>1737.9128049284</ele>
        <time>2019-06-23T13:45:43Z</time>
      </trkpt>
      <trkpt lat="44.26712" lon="6.90073">
        <ele>1738.2075445176</ele>
        <time>2019-06-23T13:45:47Z</time>
      </trkpt>
      <trkpt lat="44.26714" lon="6.90073">
        <ele>1738.3931944872</ele>
        <time>2019-06-23T13:45:51Z</time>
      </trkpt>
      <trkpt lat="44.26716" lon="6.90071">
        <ele>1738.5149204741</ele>
        <time>2019-06-23T13:45:55Z</time>
      </trkpt>
      <trkpt lat="44.26718" lon="6.90069">
        <ele>1738.5721151021</ele>
        <time>2019-06-23T13:45:58Z</time>
      </trkpt>
      <trkpt lat="44.26719" lon="6.90066">
        <ele>1738.6957041467</ele>
        <time>2019-06-23T13:46:03Z</time>
      </trkpt>
      <trkpt lat="44.26721" lon="6.90064">
        <ele>1738.8803364818</ele>
        <time>2019-06-23T13:46:05Z</time>
      </trkpt>
      <trkpt lat="44.26722" lon="6.90062">
        <ele>1739.1861745043</ele>
        <time>2019-06-23T13:46:07Z</time>
      </trkpt>
      <trkpt lat="44.26723" lon="6.9006">
        <ele>1739.63654307</ele>
        <time>2019-06-23T13:46:10Z</time>
      </trkpt>
      <trkpt lat="44.26725" lon="6.90058">
        <ele>1739.961874542</ele>
        <time>2019-06-23T13:46:13Z</time>
      </trkpt>
      <trkpt lat="44.26726" lon="6.90056">
        <ele>1740.2055787521</ele>
        <time>2019-06-23T13:46:15Z</time>
      </trkpt>
      <trkpt lat="44.26727" lon="6.90053">
        <ele>1740.0750754137</ele>
        <time>2019-06-23T13:46:18Z</time>
      </trkpt>
      <trkpt lat="44.26729" lon="6.9005">
        <ele>1739.7038926642</ele>
        <time>2019-06-23T13:46:21Z</time>
      </trkpt>
      <trkpt lat="44.26731" lon="6.90049">
        <ele>1739.8005148025</ele>
        <time>2019-06-23T13:46:23Z</time>
      </trkpt>
      <trkpt lat="44.26733" lon="6.90046">
        <ele>1739.7339700376</ele>
        <time>2019-06-23T13:46:25Z</time>
      </trkpt>
      <trkpt lat="44.26735" lon="6.90045">
        <ele>1739.8196351563</ele>
        <time>2019-06-23T13:46:27Z</time>
      </trkpt>
      <trkpt lat="44.26737" lon="6.90043">
        <ele>1739.7330586107</ele>
        <time>2019-06-23T13:46:30Z</time>
      </trkpt>
      <trkpt lat="44.26739" lon="6.9004">
        <ele>1739.6726509444</ele>
        <time>2019-06-23T13:46:32Z</time>
      </trkpt>
      <trkpt lat="44.2674" lon="6.90038">
        <ele>1739.584969231</ele>
        <time>2019-06-23T13:46:34Z</time>
      </trkpt>
      <trkpt lat="44.26743" lon="6.90038">
        <ele>1739.9482994294</ele>
        <time>2019-06-23T13:46:38Z</time>
      </trkpt>
      <trkpt lat="44.26745" lon="6.90035">
        <ele>1740.1451829912</ele>
        <time>2019-06-23T13:46:40Z</time>
      </trkpt>
      <trkpt lat="44.26746" lon="6.90033">
        <ele>1739.8921152058</ele>
        <time>2019-06-23T13:46:42Z</time>
      </trkpt>
      <trkpt lat="44.26748" lon="6.90031">
        <ele>1739.8299151483</ele>
        <time>2019-06-23T13:46:45Z</time>
      </trkpt>
      <trkpt lat="44.2675" lon="6.90029">
        <ele>1739.7094482852</ele>
        <time>2019-06-23T13:46:48Z</time>
      </trkpt>
      <trkpt lat="44.26752" lon="6.90028">
        <ele>1739.9154796738</ele>
        <time>2019-06-23T13:46:51Z</time>
      </trkpt>
      <trkpt lat="44.26755" lon="6.90029">
        <ele>1740.7037097531</ele>
        <time>2019-06-23T13:46:54Z</time>
      </trkpt>
      <trkpt lat="44.26756" lon="6.90026">
        <ele>1740.6539498874</ele>
        <time>2019-06-23T13:46:57Z</time>
      </trkpt>
      <trkpt lat="44.26758" lon="6.90024">
        <ele>1740.3735371032</ele>
        <time>2019-06-23T13:46:59Z</time>
      </trkpt>
      <trkpt lat="44.2676" lon="6.90023">
        <ele>1740.6260882</ele>
        <time>2019-06-23T13:47:01Z</time>
      </trkpt>
      <trkpt lat="44.26762" lon="6.90022">
        <ele>1741.0903361231</ele>
        <time>2019-06-23T13:47:03Z</time>
      </trkpt>
      <trkpt lat="44.26764" lon="6.90019">
        <ele>1740.7842303113</ele>
        <time>2019-06-23T13:47:05Z</time>
      </trkpt>
      <trkpt lat="44.26766" lon="6.90017">
        <ele>1740.6880930813</ele>
        <time>2019-06-23T13:47:07Z</time>
      </trkpt>
      <trkpt lat="44.26767" lon="6.90014">
        <ele>1740.2767923535</ele>
        <time>2019-06-23T13:47:09Z</time>
      </trkpt>
      <trkpt lat="44.26769" lon="6.90012">
        <ele>1740.1788561041</ele>
        <time>2019-06-23T13:47:11Z</time>
      </trkpt>
      <trkpt lat="44.26771" lon="6.9001">
        <ele>1740.4211250326</ele>
        <time>2019-06-23T13:47:13Z</time>
      </trkpt>
      <trkpt lat="44.26772" lon="6.90008">
        <ele>1739.9945096359</ele>
        <time>2019-06-23T13:47:15Z</time>
      </trkpt>
      <trkpt lat="44.26773" lon="6.90005">
        <ele>1739.8301177496</ele>
        <time>2019-06-23T13:47:17Z</time>
      </trkpt>
      <trkpt lat="44.26776" lon="6.90004">
        <ele>1739.6849997699</ele>
        <time>2019-06-23T13:47:22Z</time>
      </trkpt>
      <trkpt lat="44.26778" lon="6.90002">
        <ele>1739.8514895271</ele>
        <time>2019-06-23T13:47:25Z</time>
      </trkpt>
      <trkpt lat="44.26779" lon="6.9">
        <ele>1739.5852305172</ele>
        <time>2019-06-23T13:47:27Z</time>
      </trkpt>
      <trkpt lat="44.26782" lon="6.89999">
        <ele>1739.6528646113</ele>
        <time>2019-06-23T13:47:30Z</time>
      </trkpt>
      <trkpt lat="44.26783" lon="6.89999">
        <ele>1740.45772143</ele>
        <time>2019-06-23T13:47:33Z</time>
      </trkpt>
      <trkpt lat="44.26785" lon="6.89998">
        <ele>1740.8407349749</ele>
        <time>2019-06-23T13:47:35Z</time>
      </trkpt>
      <trkpt lat="44.26788" lon="6.89996">
        <ele>1741.2163594957</ele>
        <time>2019-06-23T13:47:38Z</time>
      </trkpt>
      <trkpt lat="44.26789" lon="6.89995">
        <ele>1741.571013006</ele>
        <time>2019-06-23T13:47:40Z</time>
      </trkpt>
      <trkpt lat="44.26792" lon="6.89993">
        <ele>1742.1380812696</ele>
        <time>2019-06-23T13:47:42Z</time>
      </trkpt>
      <trkpt lat="44.26794" lon="6.89992">
        <ele>1742.7506037589</ele>
        <time>2019-06-23T13:47:44Z</time>
      </trkpt>
      <trkpt lat="44.26796" lon="6.8999">
        <ele>1743.2787663373</ele>
        <time>2019-06-23T13:47:46Z</time>
      </trkpt>
      <trkpt lat="44.26797" lon="6.89989">
        <ele>1743.6110103312</ele>
        <time>2019-06-23T13:47:47Z</time>
      </trkpt>
      <trkpt lat="44.26799" lon="6.89988">
        <ele>1744.2934438579</ele>
        <time>2019-06-23T13:47:50Z</time>
      </trkpt>
      <trkpt lat="44.26801" lon="6.89987">
        <ele>1744.9980643672</ele>
        <time>2019-06-23T13:47:52Z</time>
      </trkpt>
      <trkpt lat="44.26803" lon="6.89985">
        <ele>1745.7978290781</ele>
        <time>2019-06-23T13:47:54Z</time>
      </trkpt>
      <trkpt lat="44.26804" lon="6.89983">
        <ele>1746.6929046025</ele>
        <time>2019-06-23T13:47:57Z</time>
      </trkpt>
      <trkpt lat="44.26806" lon="6.89979">
        <ele>1747.1220830032</ele>
        <time>2019-06-23T13:48:00Z</time>
      </trkpt>
      <trkpt lat="44.26807" lon="6.89976">
        <ele>1747.6631354266</ele>
        <time>2019-06-23T13:48:02Z</time>
      </trkpt>
      <trkpt lat="44.26807" lon="6.89973">
        <ele>1747.8742807079</ele>
        <time>2019-06-23T13:48:06Z</time>
      </trkpt>
      <trkpt lat="44.26808" lon="6.8997">
        <ele>1747.9557962396</ele>
        <time>2019-06-23T13:48:09Z</time>
      </trkpt>
      <trkpt lat="44.26809" lon="6.89968">
        <ele>1748.2353019047</ele>
        <time>2019-06-23T13:48:11Z</time>
      </trkpt>
      <trkpt lat="44.26809" lon="6.89965">
        <ele>1748.3660986703</ele>
        <time>2019-06-23T13:48:13Z</time>
      </trkpt>
      <trkpt lat="44.26809" lon="6.89962">
        <ele>1748.3472137669</ele>
        <time>2019-06-23T13:48:15Z</time>
      </trkpt>
      <trkpt lat="44.2681" lon="6.89959">
        <ele>1748.574540787</ele>
        <time>2019-06-23T13:48:17Z</time>
      </trkpt>
      <trkpt lat="44.26811" lon="6.89955">
        <ele>1748.8398157661</ele>
        <time>2019-06-23T13:48:19Z</time>
      </trkpt>
      <trkpt lat="44.26811" lon="6.89952">
        <ele>1748.8877333323</ele>
        <time>2019-06-23T13:48:22Z</time>
      </trkpt>
      <trkpt lat="44.26811" lon="6.89949">
        <ele>1748.9031692378</ele>
        <time>2019-06-23T13:48:23Z</time>
      </trkpt>
      <trkpt lat="44.26812" lon="6.89947">
        <ele>1749.2927516418</ele>
        <time>2019-06-23T13:48:26Z</time>
      </trkpt>
      <trkpt lat="44.26814" lon="6.89944">
        <ele>1749.531767567</ele>
        <time>2019-06-23T13:48:29Z</time>
      </trkpt>
      <trkpt lat="44.26815" lon="6.89941">
        <ele>1749.6088509246</ele>
        <time>2019-06-23T13:48:31Z</time>
      </trkpt>
      <trkpt lat="44.26817" lon="6.8994">
        <ele>1749.5295776848</ele>
        <time>2019-06-23T13:48:34Z</time>
      </trkpt>
      <trkpt lat="44.26818" lon="6.89937">
        <ele>1749.0488558812</ele>
        <time>2019-06-23T13:48:36Z</time>
      </trkpt>
      <trkpt lat="44.26819" lon="6.89934">
        <ele>1748.5361726866</ele>
        <time>2019-06-23T13:48:38Z</time>
      </trkpt>
      <trkpt lat="44.2682" lon="6.89932">
        <ele>1748.1603891164</ele>
        <time>2019-06-23T13:48:40Z</time>
      </trkpt>
      <trkpt lat="44.26821" lon="6.89929">
        <ele>1747.8185929506</ele>
        <time>2019-06-23T13:48:42Z</time>
      </trkpt>
      <trkpt lat="44.26822" lon="6.89927">
        <ele>1747.3154540529</ele>
        <time>2019-06-23T13:48:45Z</time>
      </trkpt>
      <trkpt lat="44.26824" lon="6.89925">
        <ele>1747.1644238939</ele>
        <time>2019-06-23T13:48:49Z</time>
      </trkpt>
      <trkpt lat="44.26826" lon="6.89923">
        <ele>1747.0987245786</ele>
        <time>2019-06-23T13:48:55Z</time>
      </trkpt>
      <trkpt lat="44.26828" lon="6.89922">
        <ele>1747.563849108</ele>
        <time>2019-06-23T13:48:57Z</time>
      </trkpt>
      <trkpt lat="44.2683" lon="6.8992">
        <ele>1747.4266668572</ele>
        <time>2019-06-23T13:48:59Z</time>
      </trkpt>
      <trkpt lat="44.26832" lon="6.89919">
        <ele>1747.3187853934</ele>
        <time>2019-06-23T13:49:02Z</time>
      </trkpt>
      <trkpt lat="44.26833" lon="6.89917">
        <ele>1747.4212293918</ele>
        <time>2019-06-23T13:49:05Z</time>
      </trkpt>
      <trkpt lat="44.26835" lon="6.89914">
        <ele>1747.6694536619</ele>
        <time>2019-06-23T13:49:08Z</time>
      </trkpt>
      <trkpt lat="44.26836" lon="6.89912">
        <ele>1748.0347504906</ele>
        <time>2019-06-23T13:49:10Z</time>
      </trkpt>
      <trkpt lat="44.26838" lon="6.89908">
        <ele>1748.2788957982</ele>
        <time>2019-06-23T13:49:15Z</time>
      </trkpt>
      <trkpt lat="44.26839" lon="6.89907">
        <ele>1748.4186647362</ele>
        <time>2019-06-23T13:49:17Z</time>
      </trkpt>
      <trkpt lat="44.26841" lon="6.89904">
        <ele>1748.4999946764</ele>
        <time>2019-06-23T13:49:20Z</time>
      </trkpt>
      <trkpt lat="44.26843" lon="6.89903">
        <ele>1748.6083040636</ele>
        <time>2019-06-23T13:49:21Z</time>
      </trkpt>
      <trkpt lat="44.26845" lon="6.899">
        <ele>1748.8834175591</ele>
        <time>2019-06-23T13:49:23Z</time>
      </trkpt>
      <trkpt lat="44.26847" lon="6.89898">
        <ele>1748.7720106987</ele>
        <time>2019-06-23T13:49:26Z</time>
      </trkpt>
      <trkpt lat="44.26849" lon="6.89895">
        <ele>1748.6307870473</ele>
        <time>2019-06-23T13:49:28Z</time>
      </trkpt>
      <trkpt lat="44.26851" lon="6.89894">
        <ele>1748.5484605041</ele>
        <time>2019-06-23T13:49:30Z</time>
      </trkpt>
      <trkpt lat="44.26853" lon="6.89893">
        <ele>1748.1194857565</ele>
        <time>2019-06-23T13:49:34Z</time>
      </trkpt>
      <trkpt lat="44.26855" lon="6.89892">
        <ele>1748.3028787412</ele>
        <time>2019-06-23T13:49:36Z</time>
      </trkpt>
      <trkpt lat="44.26857" lon="6.89891">
        <ele>1747.8811457765</ele>
        <time>2019-06-23T13:49:38Z</time>
      </trkpt>
      <trkpt lat="44.26858" lon="6.8989">
        <ele>1747.848128158</ele>
        <time>2019-06-23T13:49:39Z</time>
      </trkpt>
      <trkpt lat="44.2686" lon="6.89888">
        <ele>1747.4391116984</ele>
        <time>2019-06-23T13:49:41Z</time>
      </trkpt>
      <trkpt lat="44.26863" lon="6.89886">
        <ele>1747.5826997565</ele>
        <time>2019-06-23T13:49:43Z</time>
      </trkpt>
      <trkpt lat="44.26865" lon="6.89883">
        <ele>1748.2075328539</ele>
        <time>2019-06-23T13:49:45Z</time>
      </trkpt>
      <trkpt lat="44.26867" lon="6.89881">
        <ele>1748.8772023678</ele>
        <time>2019-06-23T13:49:48Z</time>
      </trkpt>
      <trkpt lat="44.26868" lon="6.89878">
        <ele>1749.2223870597</ele>
        <time>2019-06-23T13:49:50Z</time>
      </trkpt>
      <trkpt lat="44.2687" lon="6.89875">
        <ele>1749.7880474607</ele>
        <time>2019-06-23T13:49:54Z</time>
      </trkpt>
      <trkpt lat="44.26872" lon="6.89872">
        <ele>1750.2034339872</ele>
        <time>2019-06-23T13:49:56Z</time>
      </trkpt>
      <trkpt lat="44.26873" lon="6.8987">
        <ele>1750.6175976181</ele>
        <time>2019-06-23T13:49:58Z</time>
      </trkpt>
      <trkpt lat="44.26874" lon="6.89868">
        <ele>1751.0230258755</ele>
        <time>2019-06-23T13:50:00Z</time>
      </trkpt>
      <trkpt lat="44.26876" lon="6.89868">
        <ele>1751.4398914373</ele>
        <time>2019-06-23T13:50:02Z</time>
      </trkpt>
      <trkpt lat="44.26877" lon="6.89864">
        <ele>1751.9164172707</ele>
        <time>2019-06-23T13:50:04Z</time>
      </trkpt>
      <trkpt lat="44.26879" lon="6.89862">
        <ele>1752.2527828708</ele>
        <time>2019-06-23T13:50:06Z</time>
      </trkpt>
      <trkpt lat="44.26881" lon="6.89862">
        <ele>1752.9036444684</ele>
        <time>2019-06-23T13:50:09Z</time>
      </trkpt>
      <trkpt lat="44.26883" lon="6.8986">
        <ele>1753.2365474608</ele>
        <time>2019-06-23T13:50:10Z</time>
      </trkpt>
      <trkpt lat="44.26885" lon="6.89858">
        <ele>1753.3084109305</ele>
        <time>2019-06-23T13:50:12Z</time>
      </trkpt>
      <trkpt lat="44.26887" lon="6.89855">
        <ele>1753.3039110594</ele>
        <time>2019-06-23T13:50:14Z</time>
      </trkpt>
      <trkpt lat="44.26889" lon="6.89852">
        <ele>1753.0769194735</ele>
        <time>2019-06-23T13:50:17Z</time>
      </trkpt>
      <trkpt lat="44.26891" lon="6.8985">
        <ele>1752.8399066917</ele>
        <time>2019-06-23T13:50:19Z</time>
      </trkpt>
      <trkpt lat="44.26893" lon="6.89849">
        <ele>1752.4857323646</ele>
        <time>2019-06-23T13:50:21Z</time>
      </trkpt>
      <trkpt lat="44.26895" lon="6.89847">
        <ele>1752.4542304163</ele>
        <time>2019-06-23T13:50:23Z</time>
      </trkpt>
      <trkpt lat="44.26897" lon="6.89845">
        <ele>1752.1831683265</ele>
        <time>2019-06-23T13:50:25Z</time>
      </trkpt>
      <trkpt lat="44.26899" lon="6.89841">
        <ele>1751.968762149</ele>
        <time>2019-06-23T13:50:27Z</time>
      </trkpt>
      <trkpt lat="44.269" lon="6.89839">
        <ele>1751.7009906458</ele>
        <time>2019-06-23T13:50:29Z</time>
      </trkpt>
      <trkpt lat="44.26902" lon="6.89837">
        <ele>1752.659076807</ele>
        <time>2019-06-23T13:50:31Z</time>
      </trkpt>
      <trkpt lat="44.26905" lon="6.89833">
        <ele>1753.2816590837</ele>
        <time>2019-06-23T13:50:33Z</time>
      </trkpt>
      <trkpt lat="44.26906" lon="6.89831">
        <ele>1753.7143538935</ele>
        <time>2019-06-23T13:50:35Z</time>
      </trkpt>
      <trkpt lat="44.26908" lon="6.89828">
        <ele>1753.7918969803</ele>
        <time>2019-06-23T13:50:36Z</time>
      </trkpt>
      <trkpt lat="44.26908" lon="6.89826">
        <ele>1753.749215334</ele>
        <time>2019-06-23T13:50:37Z</time>
      </trkpt>
      <trkpt lat="44.2691" lon="6.89822">
        <ele>1752.7020220692</ele>
        <time>2019-06-23T13:50:39Z</time>
      </trkpt>
      <trkpt lat="44.26912" lon="6.89819">
        <ele>1752.0173350146</ele>
        <time>2019-06-23T13:50:41Z</time>
      </trkpt>
      <trkpt lat="44.26913" lon="6.89816">
        <ele>1751.8030227048</ele>
        <time>2019-06-23T13:50:43Z</time>
      </trkpt>
      <trkpt lat="44.26914" lon="6.89814">
        <ele>1751.4416296634</ele>
        <time>2019-06-23T13:50:45Z</time>
      </trkpt>
      <trkpt lat="44.26915" lon="6.89811">
        <ele>1751.2428474622</ele>
        <time>2019-06-23T13:50:47Z</time>
      </trkpt>
      <trkpt lat="44.26916" lon="6.89808">
        <ele>1750.9492731471</ele>
        <time>2019-06-23T13:50:49Z</time>
      </trkpt>
      <trkpt lat="44.26918" lon="6.89807">
        <ele>1752.338482257</ele>
        <time>2019-06-23T13:50:52Z</time>
      </trkpt>
      <trkpt lat="44.26921" lon="6.89806">
        <ele>1753.1481478741</ele>
        <time>2019-06-23T13:50:54Z</time>
      </trkpt>
      <trkpt lat="44.26922" lon="6.89804">
        <ele>1753.4313319085</ele>
        <time>2019-06-23T13:50:55Z</time>
      </trkpt>
      <trkpt lat="44.26924" lon="6.89801">
        <ele>1753.2242063875</ele>
        <time>2019-06-23T13:50:57Z</time>
      </trkpt>
      <trkpt lat="44.26924" lon="6.89798">
        <ele>1753.0956984455</ele>
        <time>2019-06-23T13:50:59Z</time>
      </trkpt>
      <trkpt lat="44.26926" lon="6.89796">
        <ele>1752.475389025</ele>
        <time>2019-06-23T13:51:02Z</time>
      </trkpt>
      <trkpt lat="44.26928" lon="6.89795">
        <ele>1752.0815505467</ele>
        <time>2019-06-23T13:51:04Z</time>
      </trkpt>
      <trkpt lat="44.2693" lon="6.89791">
        <ele>1752.0150186996</ele>
        <time>2019-06-23T13:51:06Z</time>
      </trkpt>
      <trkpt lat="44.26933" lon="6.89789">
        <ele>1752.7037749454</ele>
        <time>2019-06-23T13:51:08Z</time>
      </trkpt>
      <trkpt lat="44.26935" lon="6.89787">
        <ele>1753.6033502294</ele>
        <time>2019-06-23T13:51:10Z</time>
      </trkpt>
      <trkpt lat="44.26936" lon="6.89783">
        <ele>1754.5605567168</ele>
        <time>2019-06-23T13:51:12Z</time>
      </trkpt>
      <trkpt lat="44.26937" lon="6.8978">
        <ele>1755.737766762</ele>
        <time>2019-06-23T13:51:14Z</time>
      </trkpt>
      <trkpt lat="44.26937" lon="6.89776">
        <ele>1757.0934486805</ele>
        <time>2019-06-23T13:51:16Z</time>
      </trkpt>
      <trkpt lat="44.26936" lon="6.89772">
        <ele>1758.4805820026</ele>
        <time>2019-06-23T13:51:19Z</time>
      </trkpt>
      <trkpt lat="44.26937" lon="6.89769">
        <ele>1758.5997617516</ele>
        <time>2019-06-23T13:51:21Z</time>
      </trkpt>
      <trkpt lat="44.26938" lon="6.89765">
        <ele>1758.4730457063</ele>
        <time>2019-06-23T13:51:23Z</time>
      </trkpt>
      <trkpt lat="44.26938" lon="6.89763">
        <ele>1757.9100054708</ele>
        <time>2019-06-23T13:51:25Z</time>
      </trkpt>
      <trkpt lat="44.26938" lon="6.89759">
        <ele>1756.6952839334</ele>
        <time>2019-06-23T13:51:27Z</time>
      </trkpt>
      <trkpt lat="44.26938" lon="6.89756">
        <ele>1755.9225153048</ele>
        <time>2019-06-23T13:51:29Z</time>
      </trkpt>
      <trkpt lat="44.2694" lon="6.89754">
        <ele>1755.8322369174</ele>
        <time>2019-06-23T13:51:31Z</time>
      </trkpt>
      <trkpt lat="44.26939" lon="6.8975">
        <ele>1755.4366609627</ele>
        <time>2019-06-23T13:51:33Z</time>
      </trkpt>
      <trkpt lat="44.2694" lon="6.89746">
        <ele>1754.8648334564</ele>
        <time>2019-06-23T13:51:35Z</time>
      </trkpt>
      <trkpt lat="44.2694" lon="6.89743">
        <ele>1754.1466789413</ele>
        <time>2019-06-23T13:51:37Z</time>
      </trkpt>
      <trkpt lat="44.2694" lon="6.89739">
        <ele>1753.6787272913</ele>
        <time>2019-06-23T13:51:39Z</time>
      </trkpt>
      <trkpt lat="44.26941" lon="6.89735">
        <ele>1753.3319113306</ele>
        <time>2019-06-23T13:51:41Z</time>
      </trkpt>
      <trkpt lat="44.26942" lon="6.89733">
        <ele>1752.7862645287</ele>
        <time>2019-06-23T13:51:43Z</time>
      </trkpt>
      <trkpt lat="44.26943" lon="6.89728">
        <ele>1752.5155511702</ele>
        <time>2019-06-23T13:51:45Z</time>
      </trkpt>
      <trkpt lat="44.26945" lon="6.89724">
        <ele>1751.9573924475</ele>
        <time>2019-06-23T13:51:47Z</time>
      </trkpt>
      <trkpt lat="44.26945" lon="6.89722">
        <ele>1751.5549386244</ele>
        <time>2019-06-23T13:51:48Z</time>
      </trkpt>
      <trkpt lat="44.26947" lon="6.89719">
        <ele>1751.0631842684</ele>
        <time>2019-06-23T13:51:50Z</time>
      </trkpt>
      <trkpt lat="44.26949" lon="6.89716">
        <ele>1750.4695949026</ele>
        <time>2019-06-23T13:51:53Z</time>
      </trkpt>
      <trkpt lat="44.26951" lon="6.89714">
        <ele>1750.279924941</ele>
        <time>2019-06-23T13:51:55Z</time>
      </trkpt>
      <trkpt lat="44.26953" lon="6.89712">
        <ele>1752.2699109655</ele>
        <time>2019-06-23T13:52:00Z</time>
      </trkpt>
      <trkpt lat="44.26954" lon="6.89709">
        <ele>1752.508205272</ele>
        <time>2019-06-23T13:52:02Z</time>
      </trkpt>
      <trkpt lat="44.26955" lon="6.89706">
        <ele>1753.1689957641</ele>
        <time>2019-06-23T13:52:04Z</time>
      </trkpt>
      <trkpt lat="44.26957" lon="6.89703">
        <ele>1753.4433204599</ele>
        <time>2019-06-23T13:52:06Z</time>
      </trkpt>
      <trkpt lat="44.26959" lon="6.89701">
        <ele>1753.5080186036</ele>
        <time>2019-06-23T13:52:09Z</time>
      </trkpt>
      <trkpt lat="44.2696" lon="6.89698">
        <ele>1753.8231380672</ele>
        <time>2019-06-23T13:52:12Z</time>
      </trkpt>
      <trkpt lat="44.26962" lon="6.89697">
        <ele>1754.0136893299</ele>
        <time>2019-06-23T13:52:14Z</time>
      </trkpt>
      <trkpt lat="44.26964" lon="6.89694">
        <ele>1754.2181677201</ele>
        <time>2019-06-23T13:52:16Z</time>
      </trkpt>
      <trkpt lat="44.26966" lon="6.89692">
        <ele>1754.4194220321</ele>
        <time>2019-06-23T13:52:17Z</time>
      </trkpt>
      <trkpt lat="44.26968" lon="6.89689">
        <ele>1755.093257201</ele>
        <time>2019-06-23T13:52:19Z</time>
      </trkpt>
      <trkpt lat="44.26969" lon="6.89687">
        <ele>1755.6841609746</ele>
        <time>2019-06-23T13:52:21Z</time>
      </trkpt>
      <trkpt lat="44.26972" lon="6.89685">
        <ele>1756.2467916396</ele>
        <time>2019-06-23T13:52:23Z</time>
      </trkpt>
      <trkpt lat="44.26974" lon="6.89684">
        <ele>1756.4155054043</ele>
        <time>2019-06-23T13:52:25Z</time>
      </trkpt>
      <trkpt lat="44.26976" lon="6.89681">
        <ele>1756.3795887372</ele>
        <time>2019-06-23T13:52:27Z</time>
      </trkpt>
      <trkpt lat="44.26978" lon="6.89679">
        <ele>1756.2910873476</ele>
        <time>2019-06-23T13:52:29Z</time>
      </trkpt>
      <trkpt lat="44.2698" lon="6.89678">
        <ele>1756.1024732721</ele>
        <time>2019-06-23T13:52:31Z</time>
      </trkpt>
      <trkpt lat="44.26983" lon="6.89678">
        <ele>1756.0839463394</ele>
        <time>2019-06-23T13:52:33Z</time>
      </trkpt>
      <trkpt lat="44.26984" lon="6.89676">
        <ele>1756.0148720221</ele>
        <time>2019-06-23T13:52:35Z</time>
      </trkpt>
      <trkpt lat="44.26987" lon="6.89673">
        <ele>1756.3230843428</ele>
        <time>2019-06-23T13:52:37Z</time>
      </trkpt>
      <trkpt lat="44.26989" lon="6.89671">
        <ele>1756.6736985688</ele>
        <time>2019-06-23T13:52:39Z</time>
      </trkpt>
      <trkpt lat="44.26991" lon="6.8967">
        <ele>1756.7659206988</ele>
        <time>2019-06-23T13:52:40Z</time>
      </trkpt>
      <trkpt lat="44.26993" lon="6.89669">
        <ele>1756.5669357077</ele>
        <time>2019-06-23T13:52:42Z</time>
      </trkpt>
      <trkpt lat="44.26995" lon="6.89669">
        <ele>1756.0622916661</ele>
        <time>2019-06-23T13:52:44Z</time>
      </trkpt>
      <trkpt lat="44.26998" lon="6.89667">
        <ele>1755.8392909702</ele>
        <time>2019-06-23T13:52:46Z</time>
      </trkpt>
      <trkpt lat="44.27" lon="6.89666">
        <ele>1755.659136387</ele>
        <time>2019-06-23T13:52:48Z</time>
      </trkpt>
      <trkpt lat="44.27002" lon="6.89664">
        <ele>1755.9769404335</ele>
        <time>2019-06-23T13:52:50Z</time>
      </trkpt>
      <trkpt lat="44.27004" lon="6.89661">
        <ele>1756.0133895967</ele>
        <time>2019-06-23T13:52:52Z</time>
      </trkpt>
      <trkpt lat="44.27006" lon="6.8966">
        <ele>1755.9370658525</ele>
        <time>2019-06-23T13:52:54Z</time>
      </trkpt>
      <trkpt lat="44.27007" lon="6.89658">
        <ele>1755.3089677782</ele>
        <time>2019-06-23T13:52:56Z</time>
      </trkpt>
      <trkpt lat="44.2701" lon="6.89656">
        <ele>1754.7041637577</ele>
        <time>2019-06-23T13:52:58Z</time>
      </trkpt>
      <trkpt lat="44.27012" lon="6.89654">
        <ele>1753.7671856883</ele>
        <time>2019-06-23T13:53:00Z</time>
      </trkpt>
      <trkpt lat="44.27014" lon="6.89654">
        <ele>1753.3946474771</ele>
        <time>2019-06-23T13:53:01Z</time>
      </trkpt>
      <trkpt lat="44.27017" lon="6.89654">
        <ele>1752.6755343367</ele>
        <time>2019-06-23T13:53:03Z</time>
      </trkpt>
      <trkpt lat="44.27019" lon="6.89652">
        <ele>1752.3773248422</ele>
        <time>2019-06-23T13:53:04Z</time>
      </trkpt>
      <trkpt lat="44.2702" lon="6.89651">
        <ele>1751.9965208376</ele>
        <time>2019-06-23T13:53:05Z</time>
      </trkpt>
      <trkpt lat="44.27022" lon="6.89647">
        <ele>1751.1873670466</ele>
        <time>2019-06-23T13:53:07Z</time>
      </trkpt>
      <trkpt lat="44.27024" lon="6.89645">
        <ele>1750.9306357395</ele>
        <time>2019-06-23T13:53:08Z</time>
      </trkpt>
      <trkpt lat="44.27025" lon="6.89643">
        <ele>1750.5921526646</ele>
        <time>2019-06-23T13:53:10Z</time>
      </trkpt>
      <trkpt lat="44.27027" lon="6.89641">
        <ele>1750.5739506749</ele>
        <time>2019-06-23T13:53:12Z</time>
      </trkpt>
      <trkpt lat="44.27029" lon="6.8964">
        <ele>1750.2555900567</ele>
        <time>2019-06-23T13:53:14Z</time>
      </trkpt>
      <trkpt lat="44.27031" lon="6.89639">
        <ele>1750.6008763495</ele>
        <time>2019-06-23T13:53:16Z</time>
      </trkpt>
      <trkpt lat="44.27033" lon="6.89637">
        <ele>1750.7931926053</ele>
        <time>2019-06-23T13:53:18Z</time>
      </trkpt>
      <trkpt lat="44.27035" lon="6.89635">
        <ele>1751.2704058889</ele>
        <time>2019-06-23T13:53:20Z</time>
      </trkpt>
      <trkpt lat="44.27036" lon="6.89633">
        <ele>1751.6021158473</ele>
        <time>2019-06-23T13:53:22Z</time>
      </trkpt>
      <trkpt lat="44.27039" lon="6.89632">
        <ele>1751.8591502963</ele>
        <time>2019-06-23T13:53:24Z</time>
      </trkpt>
      <trkpt lat="44.27042" lon="6.89632">
        <ele>1752.436347399</ele>
        <time>2019-06-23T13:53:26Z</time>
      </trkpt>
      <trkpt lat="44.27045" lon="6.8963">
        <ele>1752.787147459</ele>
        <time>2019-06-23T13:53:28Z</time>
      </trkpt>
      <trkpt lat="44.27046" lon="6.89628">
        <ele>1752.5026867153</ele>
        <time>2019-06-23T13:53:30Z</time>
      </trkpt>
      <trkpt lat="44.27047" lon="6.89624">
        <ele>1752.2065295556</ele>
        <time>2019-06-23T13:53:33Z</time>
      </trkpt>
      <trkpt lat="44.27048" lon="6.89622">
        <ele>1752.1309746516</ele>
        <time>2019-06-23T13:53:34Z</time>
      </trkpt>
      <trkpt lat="44.2705" lon="6.89619">
        <ele>1752.4112529655</ele>
        <time>2019-06-23T13:53:36Z</time>
      </trkpt>
      <trkpt lat="44.27051" lon="6.89616">
        <ele>1753.1296945546</ele>
        <time>2019-06-23T13:53:38Z</time>
      </trkpt>
      <trkpt lat="44.27053" lon="6.89613">
        <ele>1753.721571448</ele>
        <time>2019-06-23T13:53:40Z</time>
      </trkpt>
      <trkpt lat="44.27055" lon="6.89612">
        <ele>1753.6876471236</ele>
        <time>2019-06-23T13:53:42Z</time>
      </trkpt>
      <trkpt lat="44.27057" lon="6.89608">
        <ele>1753.3117687067</ele>
        <time>2019-06-23T13:53:44Z</time>
      </trkpt>
      <trkpt lat="44.27058" lon="6.89606">
        <ele>1752.7351784457</ele>
        <time>2019-06-23T13:53:46Z</time>
      </trkpt>
      <trkpt lat="44.27061" lon="6.89603">
        <ele>1752.389804586</ele>
        <time>2019-06-23T13:53:48Z</time>
      </trkpt>
      <trkpt lat="44.27063" lon="6.89601">
        <ele>1751.948243441</ele>
        <time>2019-06-23T13:53:50Z</time>
      </trkpt>
      <trkpt lat="44.27065" lon="6.89598">
        <ele>1751.4666035248</ele>
        <time>2019-06-23T13:53:52Z</time>
      </trkpt>
      <trkpt lat="44.27066" lon="6.89596">
        <ele>1751.0134561134</ele>
        <time>2019-06-23T13:53:54Z</time>
      </trkpt>
      <trkpt lat="44.27068" lon="6.89593">
        <ele>1749.9889490053</ele>
        <time>2019-06-23T13:53:56Z</time>
      </trkpt>
      <trkpt lat="44.2707" lon="6.89592">
        <ele>1748.6885046571</ele>
        <time>2019-06-23T13:53:58Z</time>
      </trkpt>
      <trkpt lat="44.27072" lon="6.89589">
        <ele>1747.9413957702</ele>
        <time>2019-06-23T13:54:00Z</time>
      </trkpt>
      <trkpt lat="44.27073" lon="6.89587">
        <ele>1747.496433281</ele>
        <time>2019-06-23T13:54:02Z</time>
      </trkpt>
      <trkpt lat="44.27075" lon="6.89585">
        <ele>1746.7917423027</ele>
        <time>2019-06-23T13:54:04Z</time>
      </trkpt>
      <trkpt lat="44.27077" lon="6.89583">
        <ele>1746.6416553535</ele>
        <time>2019-06-23T13:54:05Z</time>
      </trkpt>
      <trkpt lat="44.27078" lon="6.89581">
        <ele>1746.4989167606</ele>
        <time>2019-06-23T13:54:07Z</time>
      </trkpt>
      <trkpt lat="44.27079" lon="6.89578">
        <ele>1747.1118112181</ele>
        <time>2019-06-23T13:54:09Z</time>
      </trkpt>
      <trkpt lat="44.27082" lon="6.89577">
        <ele>1747.9038813848</ele>
        <time>2019-06-23T13:54:11Z</time>
      </trkpt>
      <trkpt lat="44.27083" lon="6.89575">
        <ele>1748.1344840184</ele>
        <time>2019-06-23T13:54:12Z</time>
      </trkpt>
      <trkpt lat="44.27085" lon="6.89572">
        <ele>1748.7081541523</ele>
        <time>2019-06-23T13:54:15Z</time>
      </trkpt>
      <trkpt lat="44.27087" lon="6.89569">
        <ele>1749.0258205683</ele>
        <time>2019-06-23T13:54:17Z</time>
      </trkpt>
      <trkpt lat="44.2709" lon="6.89567">
        <ele>1749.5788454705</ele>
        <time>2019-06-23T13:54:19Z</time>
      </trkpt>
      <trkpt lat="44.27092" lon="6.89566">
        <ele>1749.9516817042</ele>
        <time>2019-06-23T13:54:21Z</time>
      </trkpt>
      <trkpt lat="44.27094" lon="6.89564">
        <ele>1750.1576591858</ele>
        <time>2019-06-23T13:54:23Z</time>
      </trkpt>
      <trkpt lat="44.27096" lon="6.89561">
        <ele>1750.9017049623</ele>
        <time>2019-06-23T13:54:25Z</time>
      </trkpt>
      <trkpt lat="44.27097" lon="6.89558">
        <ele>1750.9929867382</ele>
        <time>2019-06-23T13:54:27Z</time>
      </trkpt>
      <trkpt lat="44.27099" lon="6.89556">
        <ele>1750.6454148709</ele>
        <time>2019-06-23T13:54:29Z</time>
      </trkpt>
      <trkpt lat="44.27101" lon="6.89554">
        <ele>1750.5901192442</ele>
        <time>2019-06-23T13:54:31Z</time>
      </trkpt>
      <trkpt lat="44.27103" lon="6.89551">
        <ele>1750.901124273</ele>
        <time>2019-06-23T13:54:33Z</time>
      </trkpt>
      <trkpt lat="44.27106" lon="6.89549">
        <ele>1750.8156072511</ele>
        <time>2019-06-23T13:54:35Z</time>
      </trkpt>
      <trkpt lat="44.27107" lon="6.89546">
        <ele>1750.3714276316</ele>
        <time>2019-06-23T13:54:37Z</time>
      </trkpt>
      <trkpt lat="44.27109" lon="6.89544">
        <ele>1750.0533817172</ele>
        <time>2019-06-23T13:54:40Z</time>
      </trkpt>
      <trkpt lat="44.2711" lon="6.89542">
        <ele>1749.9298412093</ele>
        <time>2019-06-23T13:54:42Z</time>
      </trkpt>
      <trkpt lat="44.27112" lon="6.89541">
        <ele>1750.2362765054</ele>
        <time>2019-06-23T13:54:44Z</time>
      </trkpt>
      <trkpt lat="44.27114" lon="6.89539">
        <ele>1750.9108366201</ele>
        <time>2019-06-23T13:54:46Z</time>
      </trkpt>
      <trkpt lat="44.27116" lon="6.89537">
        <ele>1751.7640737831</ele>
        <time>2019-06-23T13:54:48Z</time>
      </trkpt>
      <trkpt lat="44.27119" lon="6.89536">
        <ele>1752.4046928853</ele>
        <time>2019-06-23T13:54:51Z</time>
      </trkpt>
      <trkpt lat="44.27121" lon="6.89533">
        <ele>1753.2705874714</ele>
        <time>2019-06-23T13:54:53Z</time>
      </trkpt>
      <trkpt lat="44.27123" lon="6.8953">
        <ele>1753.9396814825</ele>
        <time>2019-06-23T13:54:55Z</time>
      </trkpt>
      <trkpt lat="44.27126" lon="6.89528">
        <ele>1754.2441252042</ele>
        <time>2019-06-23T13:54:57Z</time>
      </trkpt>
      <trkpt lat="44.27128" lon="6.89527">
        <ele>1754.1316699526</ele>
        <time>2019-06-23T13:54:59Z</time>
      </trkpt>
      <trkpt lat="44.27131" lon="6.89524">
        <ele>1753.7810801462</ele>
        <time>2019-06-23T13:55:01Z</time>
      </trkpt>
      <trkpt lat="44.27134" lon="6.89523">
        <ele>1753.7882799117</ele>
        <time>2019-06-23T13:55:03Z</time>
      </trkpt>
      <trkpt lat="44.27136" lon="6.89521">
        <ele>1753.6265657409</ele>
        <time>2019-06-23T13:55:05Z</time>
      </trkpt>
      <trkpt lat="44.27138" lon="6.8952">
        <ele>1753.5572568718</ele>
        <time>2019-06-23T13:55:07Z</time>
      </trkpt>
      <trkpt lat="44.2714" lon="6.89519">
        <ele>1753.49942746</ele>
        <time>2019-06-23T13:55:09Z</time>
      </trkpt>
      <trkpt lat="44.27142" lon="6.89518">
        <ele>1753.3571664784</ele>
        <time>2019-06-23T13:55:11Z</time>
      </trkpt>
      <trkpt lat="44.27144" lon="6.89516">
        <ele>1753.5303921948</ele>
        <time>2019-06-23T13:55:13Z</time>
      </trkpt>
      <trkpt lat="44.27147" lon="6.89514">
        <ele>1753.415339135</ele>
        <time>2019-06-23T13:55:16Z</time>
      </trkpt>
      <trkpt lat="44.27149" lon="6.89511">
        <ele>1754.0410619994</ele>
        <time>2019-06-23T13:55:19Z</time>
      </trkpt>
      <trkpt lat="44.2715" lon="6.89509">
        <ele>1754.5256807551</ele>
        <time>2019-06-23T13:55:21Z</time>
      </trkpt>
      <trkpt lat="44.27152" lon="6.89507">
        <ele>1754.5158647469</ele>
        <time>2019-06-23T13:55:23Z</time>
      </trkpt>
      <trkpt lat="44.27153" lon="6.89504">
        <ele>1754.6082411072</ele>
        <time>2019-06-23T13:55:25Z</time>
      </trkpt>
      <trkpt lat="44.27153" lon="6.89502">
        <ele>1754.4864018983</ele>
        <time>2019-06-23T13:55:27Z</time>
      </trkpt>
      <trkpt lat="44.27155" lon="6.89499">
        <ele>1754.081005312</ele>
        <time>2019-06-23T13:55:30Z</time>
      </trkpt>
      <trkpt lat="44.27156" lon="6.89496">
        <ele>1753.0712715481</ele>
        <time>2019-06-23T13:55:32Z</time>
      </trkpt>
      <trkpt lat="44.27158" lon="6.89495">
        <ele>1752.15365375</ele>
        <time>2019-06-23T13:55:35Z</time>
      </trkpt>
      <trkpt lat="44.27161" lon="6.89493">
        <ele>1751.4692209023</ele>
        <time>2019-06-23T13:55:38Z</time>
      </trkpt>
      <trkpt lat="44.27163" lon="6.89493">
        <ele>1750.5189657502</ele>
        <time>2019-06-23T13:55:40Z</time>
      </trkpt>
      <trkpt lat="44.27165" lon="6.89493">
        <ele>1750.4054358928</ele>
        <time>2019-06-23T13:55:42Z</time>
      </trkpt>
      <trkpt lat="44.27168" lon="6.89491">
        <ele>1750.3551940768</ele>
        <time>2019-06-23T13:55:45Z</time>
      </trkpt>
      <trkpt lat="44.27171" lon="6.8949">
        <ele>1750.4332461128</ele>
        <time>2019-06-23T13:55:46Z</time>
      </trkpt>
      <trkpt lat="44.27175" lon="6.8949">
        <ele>1750.9282368542</ele>
        <time>2019-06-23T13:55:48Z</time>
      </trkpt>
      <trkpt lat="44.27177" lon="6.89489">
        <ele>1751.3760267471</ele>
        <time>2019-06-23T13:55:49Z</time>
      </trkpt>
      <trkpt lat="44.27181" lon="6.8949">
        <ele>1752.1459100103</ele>
        <time>2019-06-23T13:55:51Z</time>
      </trkpt>
      <trkpt lat="44.27182" lon="6.89488">
        <ele>1752.4437211955</ele>
        <time>2019-06-23T13:55:52Z</time>
      </trkpt>
      <trkpt lat="44.27186" lon="6.89486">
        <ele>1753.1352452164</ele>
        <time>2019-06-23T13:55:54Z</time>
      </trkpt>
      <trkpt lat="44.27189" lon="6.89485">
        <ele>1752.8343979454</ele>
        <time>2019-06-23T13:55:56Z</time>
      </trkpt>
      <trkpt lat="44.27192" lon="6.89483">
        <ele>1752.3847245956</ele>
        <time>2019-06-23T13:55:58Z</time>
      </trkpt>
      <trkpt lat="44.27195" lon="6.89481">
        <ele>1751.9964286782</ele>
        <time>2019-06-23T13:56:00Z</time>
      </trkpt>
      <trkpt lat="44.27197" lon="6.8948">
        <ele>1751.3746781022</ele>
        <time>2019-06-23T13:56:02Z</time>
      </trkpt>
      <trkpt lat="44.27199" lon="6.89479">
        <ele>1751.0125487359</ele>
        <time>2019-06-23T13:56:03Z</time>
      </trkpt>
      <trkpt lat="44.27202" lon="6.89478">
        <ele>1750.4554768554</ele>
        <time>2019-06-23T13:56:05Z</time>
      </trkpt>
      <trkpt lat="44.27203" lon="6.89476">
        <ele>1750.2607948758</ele>
        <time>2019-06-23T13:56:06Z</time>
      </trkpt>
      <trkpt lat="44.27205" lon="6.89475">
        <ele>1749.9230430972</ele>
        <time>2019-06-23T13:56:08Z</time>
      </trkpt>
      <trkpt lat="44.27207" lon="6.89474">
        <ele>1749.6255359007</ele>
        <time>2019-06-23T13:56:10Z</time>
      </trkpt>
      <trkpt lat="44.27211" lon="6.89473">
        <ele>1749.7444654191</ele>
        <time>2019-06-23T13:56:12Z</time>
      </trkpt>
      <trkpt lat="44.27214" lon="6.89472">
        <ele>1749.8923625298</ele>
        <time>2019-06-23T13:56:14Z</time>
      </trkpt>
      <trkpt lat="44.27216" lon="6.89471">
        <ele>1750.23943036</ele>
        <time>2019-06-23T13:56:16Z</time>
      </trkpt>
      <trkpt lat="44.2722" lon="6.8947">
        <ele>1751.3741352385</ele>
        <time>2019-06-23T13:56:18Z</time>
      </trkpt>
      <trkpt lat="44.27222" lon="6.89471">
        <ele>1752.1093996226</ele>
        <time>2019-06-23T13:56:20Z</time>
      </trkpt>
      <trkpt lat="44.27224" lon="6.8947">
        <ele>1752.2817858631</ele>
        <time>2019-06-23T13:56:22Z</time>
      </trkpt>
      <trkpt lat="44.27227" lon="6.89469">
        <ele>1752.3694593852</ele>
        <time>2019-06-23T13:56:24Z</time>
      </trkpt>
      <trkpt lat="44.2723" lon="6.89468">
        <ele>1752.157702619</ele>
        <time>2019-06-23T13:56:26Z</time>
      </trkpt>
      <trkpt lat="44.27232" lon="6.89466">
        <ele>1751.7455141616</ele>
        <time>2019-06-23T13:56:28Z</time>
      </trkpt>
      <trkpt lat="44.27235" lon="6.89466">
        <ele>1751.605775391</ele>
        <time>2019-06-23T13:56:31Z</time>
      </trkpt>
      <trkpt lat="44.27236" lon="6.89464">
        <ele>1751.7269113852</ele>
        <time>2019-06-23T13:56:33Z</time>
      </trkpt>
      <trkpt lat="44.27239" lon="6.89461">
        <ele>1751.8016308261</ele>
        <time>2019-06-23T13:56:35Z</time>
      </trkpt>
      <trkpt lat="44.27241" lon="6.89458">
        <ele>1751.0879739051</ele>
        <time>2019-06-23T13:56:37Z</time>
      </trkpt>
      <trkpt lat="44.27243" lon="6.89457">
        <ele>1749.6985767858</ele>
        <time>2019-06-23T13:56:39Z</time>
      </trkpt>
      <trkpt lat="44.27246" lon="6.89455">
        <ele>1748.7880631775</ele>
        <time>2019-06-23T13:56:41Z</time>
      </trkpt>
      <trkpt lat="44.27247" lon="6.89452">
        <ele>1748.3077840675</ele>
        <time>2019-06-23T13:56:43Z</time>
      </trkpt>
      <trkpt lat="44.27248" lon="6.89449">
        <ele>1748.0607827206</ele>
        <time>2019-06-23T13:56:45Z</time>
      </trkpt>
      <trkpt lat="44.27251" lon="6.89446">
        <ele>1747.8246557085</ele>
        <time>2019-06-23T13:56:47Z</time>
      </trkpt>
      <trkpt lat="44.27252" lon="6.89444">
        <ele>1747.542969791</ele>
        <time>2019-06-23T13:56:49Z</time>
      </trkpt>
      <trkpt lat="44.27254" lon="6.89441">
        <ele>1747.727055474</ele>
        <time>2019-06-23T13:56:51Z</time>
      </trkpt>
      <trkpt lat="44.27257" lon="6.8944">
        <ele>1747.5222041117</ele>
        <time>2019-06-23T13:56:53Z</time>
      </trkpt>
      <trkpt lat="44.27259" lon="6.89438">
        <ele>1747.6569402459</ele>
        <time>2019-06-23T13:56:55Z</time>
      </trkpt>
      <trkpt lat="44.2726" lon="6.89436">
        <ele>1747.5447625801</ele>
        <time>2019-06-23T13:56:57Z</time>
      </trkpt>
      <trkpt lat="44.27262" lon="6.89434">
        <ele>1747.588757806</ele>
        <time>2019-06-23T13:57:00Z</time>
      </trkpt>
      <trkpt lat="44.27264" lon="6.89433">
        <ele>1747.7910775282</ele>
        <time>2019-06-23T13:57:01Z</time>
      </trkpt>
      <trkpt lat="44.27266" lon="6.89432">
        <ele>1747.7746507817</ele>
        <time>2019-06-23T13:57:03Z</time>
      </trkpt>
      <trkpt lat="44.27268" lon="6.89429">
        <ele>1747.5980864253</ele>
        <time>2019-06-23T13:57:05Z</time>
      </trkpt>
      <trkpt lat="44.2727" lon="6.89425">
        <ele>1747.9257248766</ele>
        <time>2019-06-23T13:57:07Z</time>
      </trkpt>
      <trkpt lat="44.27271" lon="6.89423">
        <ele>1748.2626995862</ele>
        <time>2019-06-23T13:57:08Z</time>
      </trkpt>
      <trkpt lat="44.27272" lon="6.89421">
        <ele>1748.679033528</ele>
        <time>2019-06-23T13:57:09Z</time>
      </trkpt>
      <trkpt lat="44.27274" lon="6.89418">
        <ele>1748.8491022668</ele>
        <time>2019-06-23T13:57:11Z</time>
      </trkpt>
      <trkpt lat="44.27276" lon="6.89415">
        <ele>1748.3109051036</ele>
        <time>2019-06-23T13:57:13Z</time>
      </trkpt>
      <trkpt lat="44.27278" lon="6.89413">
        <ele>1747.7199894596</ele>
        <time>2019-06-23T13:57:15Z</time>
      </trkpt>
      <trkpt lat="44.27279" lon="6.89411">
        <ele>1747.2377075757</ele>
        <time>2019-06-23T13:57:17Z</time>
      </trkpt>
      <trkpt lat="44.27282" lon="6.89408">
        <ele>1746.4556353955</ele>
        <time>2019-06-23T13:57:20Z</time>
      </trkpt>
      <trkpt lat="44.27283" lon="6.89406">
        <ele>1746.2816056193</ele>
        <time>2019-06-23T13:57:21Z</time>
      </trkpt>
      <trkpt lat="44.27285" lon="6.89404">
        <ele>1746.0186645398</ele>
        <time>2019-06-23T13:57:22Z</time>
      </trkpt>
      <trkpt lat="44.27286" lon="6.89401">
        <ele>1745.7544362537</ele>
        <time>2019-06-23T13:57:24Z</time>
      </trkpt>
      <trkpt lat="44.27288" lon="6.894">
        <ele>1745.4675088464</ele>
        <time>2019-06-23T13:57:25Z</time>
      </trkpt>
      <trkpt lat="44.2729" lon="6.89397">
        <ele>1745.0116889821</ele>
        <time>2019-06-23T13:57:27Z</time>
      </trkpt>
      <trkpt lat="44.27291" lon="6.89395">
        <ele>1744.3876546144</ele>
        <time>2019-06-23T13:57:29Z</time>
      </trkpt>
      <trkpt lat="44.27294" lon="6.89395">
        <ele>1743.3293338298</ele>
        <time>2019-06-23T13:57:32Z</time>
      </trkpt>
      <trkpt lat="44.27295" lon="6.89393">
        <ele>1742.7119411804</ele>
        <time>2019-06-23T13:57:34Z</time>
      </trkpt>
      <trkpt lat="44.27297" lon="6.89392">
        <ele>1742.2671432357</ele>
        <time>2019-06-23T13:57:35Z</time>
      </trkpt>
      <trkpt lat="44.273" lon="6.8939">
        <ele>1741.4989431752</ele>
        <time>2019-06-23T13:57:37Z</time>
      </trkpt>
      <trkpt lat="44.27302" lon="6.89387">
        <ele>1740.7434706418</ele>
        <time>2019-06-23T13:57:39Z</time>
      </trkpt>
      <trkpt lat="44.27305" lon="6.89386">
        <ele>1740.3555324109</ele>
        <time>2019-06-23T13:57:41Z</time>
      </trkpt>
      <trkpt lat="44.27307" lon="6.89385">
        <ele>1740.0478119247</ele>
        <time>2019-06-23T13:57:42Z</time>
      </trkpt>
      <trkpt lat="44.27309" lon="6.89385">
        <ele>1739.975943156</ele>
        <time>2019-06-23T13:57:43Z</time>
      </trkpt>
      <trkpt lat="44.27312" lon="6.89384">
        <ele>1739.8182653266</ele>
        <time>2019-06-23T13:57:44Z</time>
      </trkpt>
      <trkpt lat="44.27314" lon="6.89383">
        <ele>1739.6628267933</ele>
        <time>2019-06-23T13:57:45Z</time>
      </trkpt>
      <trkpt lat="44.27316" lon="6.89382">
        <ele>1739.635690846</ele>
        <time>2019-06-23T13:57:46Z</time>
      </trkpt>
      <trkpt lat="44.27319" lon="6.89381">
        <ele>1739.5021321594</ele>
        <time>2019-06-23T13:57:48Z</time>
      </trkpt>
      <trkpt lat="44.27322" lon="6.89379">
        <ele>1739.6435141813</ele>
        <time>2019-06-23T13:57:50Z</time>
      </trkpt>
      <trkpt lat="44.27324" lon="6.89378">
        <ele>1740.0846082506</ele>
        <time>2019-06-23T13:57:52Z</time>
      </trkpt>
      <trkpt lat="44.27327" lon="6.89376">
        <ele>1740.6628965436</ele>
        <time>2019-06-23T13:57:54Z</time>
      </trkpt>
      <trkpt lat="44.27328" lon="6.89375">
        <ele>1740.9255046851</ele>
        <time>2019-06-23T13:57:55Z</time>
      </trkpt>
      <trkpt lat="44.27331" lon="6.89372">
        <ele>1741.6649312659</ele>
        <time>2019-06-23T13:57:57Z</time>
      </trkpt>
      <trkpt lat="44.27332" lon="6.89369">
        <ele>1741.9304789388</ele>
        <time>2019-06-23T13:57:59Z</time>
      </trkpt>
      <trkpt lat="44.27334" lon="6.89366">
        <ele>1741.5971119421</ele>
        <time>2019-06-23T13:58:01Z</time>
      </trkpt>
      <trkpt lat="44.27337" lon="6.89363">
        <ele>1741.2046308529</ele>
        <time>2019-06-23T13:58:03Z</time>
      </trkpt>
      <trkpt lat="44.2734" lon="6.8936">
        <ele>1741.0594226539</ele>
        <time>2019-06-23T13:58:05Z</time>
      </trkpt>
      <trkpt lat="44.27341" lon="6.89357">
        <ele>1740.762158215</ele>
        <time>2019-06-23T13:58:07Z</time>
      </trkpt>
      <trkpt lat="44.27343" lon="6.89354">
        <ele>1740.4406976252</ele>
        <time>2019-06-23T13:58:09Z</time>
      </trkpt>
      <trkpt lat="44.27344" lon="6.89351">
        <ele>1739.6550237118</ele>
        <time>2019-06-23T13:58:12Z</time>
      </trkpt>
      <trkpt lat="44.27346" lon="6.89348">
        <ele>1739.1322960178</ele>
        <time>2019-06-23T13:58:14Z</time>
      </trkpt>
      <trkpt lat="44.27347" lon="6.89346">
        <ele>1738.4323561342</ele>
        <time>2019-06-23T13:58:16Z</time>
      </trkpt>
      <trkpt lat="44.27348" lon="6.89343">
        <ele>1737.3789672158</ele>
        <time>2019-06-23T13:58:18Z</time>
      </trkpt>
      <trkpt lat="44.27349" lon="6.8934">
        <ele>1736.4251218339</ele>
        <time>2019-06-23T13:58:20Z</time>
      </trkpt>
      <trkpt lat="44.27349" lon="6.89337">
        <ele>1735.9300467198</ele>
        <time>2019-06-23T13:58:21Z</time>
      </trkpt>
      <trkpt lat="44.27352" lon="6.89334">
        <ele>1735.0806662657</ele>
        <time>2019-06-23T13:58:23Z</time>
      </trkpt>
      <trkpt lat="44.27353" lon="6.89331">
        <ele>1734.0967641492</ele>
        <time>2019-06-23T13:58:25Z</time>
      </trkpt>
      <trkpt lat="44.27355" lon="6.89329">
        <ele>1733.784419518</ele>
        <time>2019-06-23T13:58:27Z</time>
      </trkpt>
      <trkpt lat="44.27355" lon="6.89325">
        <ele>1734.0318211091</ele>
        <time>2019-06-23T13:58:29Z</time>
      </trkpt>
      <trkpt lat="44.27356" lon="6.89321">
        <ele>1734.5679602534</ele>
        <time>2019-06-23T13:58:32Z</time>
      </trkpt>
      <trkpt lat="44.27356" lon="6.89317">
        <ele>1735.0609442116</ele>
        <time>2019-06-23T13:58:35Z</time>
      </trkpt>
      <trkpt lat="44.27357" lon="6.89315">
        <ele>1735.1381847908</ele>
        <time>2019-06-23T13:58:37Z</time>
      </trkpt>
      <trkpt lat="44.27357" lon="6.89311">
        <ele>1735.5701141006</ele>
        <time>2019-06-23T13:58:39Z</time>
      </trkpt>
      <trkpt lat="44.27357" lon="6.89308">
        <ele>1735.7803894689</ele>
        <time>2019-06-23T13:58:41Z</time>
      </trkpt>
      <trkpt lat="44.27357" lon="6.89304">
        <ele>1735.8502374974</ele>
        <time>2019-06-23T13:58:43Z</time>
      </trkpt>
      <trkpt lat="44.27357" lon="6.89302">
        <ele>1735.8701120823</ele>
        <time>2019-06-23T13:58:44Z</time>
      </trkpt>
      <trkpt lat="44.27358" lon="6.89296">
        <ele>1735.550825745</ele>
        <time>2019-06-23T13:58:46Z</time>
      </trkpt>
      <trkpt lat="44.27358" lon="6.89292">
        <ele>1735.0284553506</ele>
        <time>2019-06-23T13:58:48Z</time>
      </trkpt>
      <trkpt lat="44.27358" lon="6.89287">
        <ele>1734.7022779475</ele>
        <time>2019-06-23T13:58:50Z</time>
      </trkpt>
      <trkpt lat="44.27358" lon="6.89284">
        <ele>1734.4345804746</ele>
        <time>2019-06-23T13:58:52Z</time>
      </trkpt>
      <trkpt lat="44.27358" lon="6.89281">
        <ele>1734.2463646778</ele>
        <time>2019-06-23T13:58:54Z</time>
      </trkpt>
      <trkpt lat="44.27359" lon="6.89277">
        <ele>1733.8675148715</ele>
        <time>2019-06-23T13:58:56Z</time>
      </trkpt>
      <trkpt lat="44.2736" lon="6.89275">
        <ele>1733.2397745174</ele>
        <time>2019-06-23T13:58:57Z</time>
      </trkpt>
      <trkpt lat="44.27359" lon="6.89271">
        <ele>1731.6931516666</ele>
        <time>2019-06-23T13:58:59Z</time>
      </trkpt>
      <trkpt lat="44.27358" lon="6.89267">
        <ele>1731.1618257753</ele>
        <time>2019-06-23T13:59:01Z</time>
      </trkpt>
      <trkpt lat="44.27355" lon="6.89264">
        <ele>1730.4457874789</ele>
        <time>2019-06-23T13:59:03Z</time>
      </trkpt>
      <trkpt lat="44.27353" lon="6.89263">
        <ele>1730.2753260173</ele>
        <time>2019-06-23T13:59:04Z</time>
      </trkpt>
      <trkpt lat="44.27352" lon="6.8926">
        <ele>1730.0000202033</ele>
        <time>2019-06-23T13:59:05Z</time>
      </trkpt>
      <trkpt lat="44.2735" lon="6.89258">
        <ele>1729.8923706245</ele>
        <time>2019-06-23T13:59:07Z</time>
      </trkpt>
      <trkpt lat="44.27349" lon="6.89256">
        <ele>1729.793818891</ele>
        <time>2019-06-23T13:59:08Z</time>
      </trkpt>
      <trkpt lat="44.27347" lon="6.89253">
        <ele>1729.8481575085</ele>
        <time>2019-06-23T13:59:10Z</time>
      </trkpt>
      <trkpt lat="44.27345" lon="6.8925">
        <ele>1730.2789532411</ele>
        <time>2019-06-23T13:59:12Z</time>
      </trkpt>
      <trkpt lat="44.27344" lon="6.89248">
        <ele>1731.1359137649</ele>
        <time>2019-06-23T13:59:14Z</time>
      </trkpt>
      <trkpt lat="44.27342" lon="6.89245">
        <ele>1731.3167639761</ele>
        <time>2019-06-23T13:59:15Z</time>
      </trkpt>
      <trkpt lat="44.27341" lon="6.89243">
        <ele>1731.3668300693</ele>
        <time>2019-06-23T13:59:16Z</time>
      </trkpt>
      <trkpt lat="44.2734" lon="6.8924">
        <ele>1731.4558341796</ele>
        <time>2019-06-23T13:59:18Z</time>
      </trkpt>
      <trkpt lat="44.27339" lon="6.89236">
        <ele>1731.7535244132</ele>
        <time>2019-06-23T13:59:20Z</time>
      </trkpt>
      <trkpt lat="44.27337" lon="6.89233">
        <ele>1732.120636431</ele>
        <time>2019-06-23T13:59:22Z</time>
      </trkpt>
      <trkpt lat="44.27336" lon="6.89231">
        <ele>1732.4454894626</ele>
        <time>2019-06-23T13:59:24Z</time>
      </trkpt>
      <trkpt lat="44.27335" lon="6.89228">
        <ele>1732.531287542</ele>
        <time>2019-06-23T13:59:26Z</time>
      </trkpt>
      <trkpt lat="44.27333" lon="6.89224">
        <ele>1732.4932796012</ele>
        <time>2019-06-23T13:59:28Z</time>
      </trkpt>
      <trkpt lat="44.27333" lon="6.89221">
        <ele>1732.8549862438</ele>
        <time>2019-06-23T13:59:30Z</time>
      </trkpt>
      <trkpt lat="44.27333" lon="6.89218">
        <ele>1732.4050487442</ele>
        <time>2019-06-23T13:59:33Z</time>
      </trkpt>
      <trkpt lat="44.27332" lon="6.89214">
        <ele>1731.911160996</ele>
        <time>2019-06-23T13:59:36Z</time>
      </trkpt>
      <trkpt lat="44.27331" lon="6.89211">
        <ele>1731.7660347836</ele>
        <time>2019-06-23T13:59:38Z</time>
      </trkpt>
      <trkpt lat="44.2733" lon="6.89208">
        <ele>1731.3801449338</ele>
        <time>2019-06-23T13:59:40Z</time>
      </trkpt>
      <trkpt lat="44.27329" lon="6.89205">
        <ele>1730.9309983673</ele>
        <time>2019-06-23T13:59:42Z</time>
      </trkpt>
      <trkpt lat="44.27328" lon="6.89202">
        <ele>1730.5120168058</ele>
        <time>2019-06-23T13:59:44Z</time>
      </trkpt>
      <trkpt lat="44.27326" lon="6.89198">
        <ele>1730.413263081</ele>
        <time>2019-06-23T13:59:46Z</time>
      </trkpt>
      <trkpt lat="44.27324" lon="6.89195">
        <ele>1730.4858178551</ele>
        <time>2019-06-23T13:59:48Z</time>
      </trkpt>
      <trkpt lat="44.27322" lon="6.89194">
        <ele>1730.3828324615</ele>
        <time>2019-06-23T13:59:50Z</time>
      </trkpt>
      <trkpt lat="44.27322" lon="6.89191">
        <ele>1730.5821280836</ele>
        <time>2019-06-23T13:59:52Z</time>
      </trkpt>
      <trkpt lat="44.27321" lon="6.89188">
        <ele>1731.1190070812</ele>
        <time>2019-06-23T13:59:54Z</time>
      </trkpt>
      <trkpt lat="44.2732" lon="6.89185">
        <ele>1731.9260679213</ele>
        <time>2019-06-23T13:59:56Z</time>
      </trkpt>
      <trkpt lat="44.27319" lon="6.89181">
        <ele>1732.7884863785</ele>
        <time>2019-06-23T13:59:58Z</time>
      </trkpt>
      <trkpt lat="44.27318" lon="6.89178">
        <ele>1733.3857627886</ele>
        <time>2019-06-23T14:00:00Z</time>
      </trkpt>
      <trkpt lat="44.27316" lon="6.89176">
        <ele>1733.7529253117</ele>
        <time>2019-06-23T14:00:02Z</time>
      </trkpt>
      <trkpt lat="44.27315" lon="6.89173">
        <ele>1733.9271063826</ele>
        <time>2019-06-23T14:00:04Z</time>
      </trkpt>
      <trkpt lat="44.27314" lon="6.89169">
        <ele>1733.9181994551</ele>
        <time>2019-06-23T14:00:06Z</time>
      </trkpt>
      <trkpt lat="44.27314" lon="6.89166">
        <ele>1734.6147566905</ele>
        <time>2019-06-23T14:00:08Z</time>
      </trkpt>
      <trkpt lat="44.27312" lon="6.89164">
        <ele>1735.079617408</ele>
        <time>2019-06-23T14:00:10Z</time>
      </trkpt>
      <trkpt lat="44.27311" lon="6.89162">
        <ele>1735.6770116921</ele>
        <time>2019-06-23T14:00:12Z</time>
      </trkpt>
      <trkpt lat="44.2731" lon="6.8916">
        <ele>1736.2471169117</ele>
        <time>2019-06-23T14:00:14Z</time>
      </trkpt>
      <trkpt lat="44.27308" lon="6.89157">
        <ele>1737.2006887884</ele>
        <time>2019-06-23T14:00:17Z</time>
      </trkpt>
      <trkpt lat="44.27307" lon="6.89154">
        <ele>1738.0661162205</ele>
        <time>2019-06-23T14:00:19Z</time>
      </trkpt>
      <trkpt lat="44.27305" lon="6.89152">
        <ele>1738.9548581462</ele>
        <time>2019-06-23T14:00:22Z</time>
      </trkpt>
      <trkpt lat="44.27303" lon="6.8915">
        <ele>1739.4886040102</ele>
        <time>2019-06-23T14:00:24Z</time>
      </trkpt>
      <trkpt lat="44.27302" lon="6.89148">
        <ele>1740.8829782583</ele>
        <time>2019-06-23T14:00:27Z</time>
      </trkpt>
      <trkpt lat="44.273" lon="6.89148">
        <ele>1741.5529993784</ele>
        <time>2019-06-23T14:00:31Z</time>
      </trkpt>
      <trkpt lat="44.27299" lon="6.89145">
        <ele>1743.9669246831</ele>
        <time>2019-06-23T14:00:41Z</time>
      </trkpt>
      <trkpt lat="44.27297" lon="6.89142">
        <ele>1744.1619481863</ele>
        <time>2019-06-23T14:00:43Z</time>
      </trkpt>
      <trkpt lat="44.27297" lon="6.89138">
        <ele>1743.9434940937</ele>
        <time>2019-06-23T14:00:45Z</time>
      </trkpt>
      <trkpt lat="44.27298" lon="6.89135">
        <ele>1743.6337524501</ele>
        <time>2019-06-23T14:00:46Z</time>
      </trkpt>
      <trkpt lat="44.27298" lon="6.89131">
        <ele>1742.3831929127</ele>
        <time>2019-06-23T14:00:48Z</time>
      </trkpt>
      <trkpt lat="44.27299" lon="6.89128">
        <ele>1741.5948013522</ele>
        <time>2019-06-23T14:00:50Z</time>
      </trkpt>
      <trkpt lat="44.27299" lon="6.89127">
        <ele>1741.6093806492</ele>
        <time>2019-06-23T14:00:51Z</time>
      </trkpt>
      <trkpt lat="44.273" lon="6.89124">
        <ele>1741.5217747439</ele>
        <time>2019-06-23T14:00:53Z</time>
      </trkpt>
      <trkpt lat="44.27299" lon="6.8912">
        <ele>1741.0296286382</ele>
        <time>2019-06-23T14:00:56Z</time>
      </trkpt>
      <trkpt lat="44.273" lon="6.89117">
        <ele>1740.7167477922</ele>
        <time>2019-06-23T14:00:58Z</time>
      </trkpt>
      <trkpt lat="44.273" lon="6.89115">
        <ele>1740.3793278017</ele>
        <time>2019-06-23T14:00:59Z</time>
      </trkpt>
      <trkpt lat="44.273" lon="6.89113">
        <ele>1739.4971364034</ele>
        <time>2019-06-23T14:01:01Z</time>
      </trkpt>
      <trkpt lat="44.273" lon="6.89109">
        <ele>1738.8243738706</ele>
        <time>2019-06-23T14:01:03Z</time>
      </trkpt>
      <trkpt lat="44.273" lon="6.89106">
        <ele>1738.5966724849</ele>
        <time>2019-06-23T14:01:05Z</time>
      </trkpt>
      <trkpt lat="44.27301" lon="6.89102">
        <ele>1738.9323575832</ele>
        <time>2019-06-23T14:01:07Z</time>
      </trkpt>
      <trkpt lat="44.27301" lon="6.89099">
        <ele>1739.0747978758</ele>
        <time>2019-06-23T14:01:09Z</time>
      </trkpt>
      <trkpt lat="44.27302" lon="6.89096">
        <ele>1739.9292447459</ele>
        <time>2019-06-23T14:01:12Z</time>
      </trkpt>
      <trkpt lat="44.27302" lon="6.89093">
        <ele>1739.4590265328</ele>
        <time>2019-06-23T14:01:14Z</time>
      </trkpt>
      <trkpt lat="44.27303" lon="6.89089">
        <ele>1738.5330241086</ele>
        <time>2019-06-23T14:01:16Z</time>
      </trkpt>
      <trkpt lat="44.27303" lon="6.89086">
        <ele>1738.1296790322</ele>
        <time>2019-06-23T14:01:18Z</time>
      </trkpt>
      <trkpt lat="44.27304" lon="6.89082">
        <ele>1738.1408632351</ele>
        <time>2019-06-23T14:01:20Z</time>
      </trkpt>
      <trkpt lat="44.27305" lon="6.8908">
        <ele>1737.7427314294</ele>
        <time>2019-06-23T14:01:23Z</time>
      </trkpt>
      <trkpt lat="44.27306" lon="6.89078">
        <ele>1738.5426766716</ele>
        <time>2019-06-23T14:01:25Z</time>
      </trkpt>
      <trkpt lat="44.27307" lon="6.89075">
        <ele>1739.28457901</ele>
        <time>2019-06-23T14:01:27Z</time>
      </trkpt>
      <trkpt lat="44.27309" lon="6.89073">
        <ele>1738.5831720792</ele>
        <time>2019-06-23T14:01:56Z</time>
      </trkpt>
      <trkpt lat="44.2731" lon="6.89071">
        <ele>1737.4175956252</ele>
        <time>2019-06-23T14:02:00Z</time>
      </trkpt>
      <trkpt lat="44.27312" lon="6.8907">
        <ele>1738.0875576615</ele>
        <time>2019-06-23T14:02:06Z</time>
      </trkpt>
      <trkpt lat="44.27315" lon="6.8907">
        <ele>1738.7075639805</ele>
        <time>2019-06-23T14:02:10Z</time>
      </trkpt>
      <trkpt lat="44.27317" lon="6.8907">
        <ele>1738.5399595989</ele>
        <time>2019-06-23T14:02:13Z</time>
      </trkpt>
      <trkpt lat="44.2732" lon="6.8907">
        <ele>1738.0305549981</ele>
        <time>2019-06-23T14:02:15Z</time>
      </trkpt>
      <trkpt lat="44.27321" lon="6.8907">
        <ele>1737.8127258625</ele>
        <time>2019-06-23T14:02:17Z</time>
      </trkpt>
      <trkpt lat="44.27324" lon="6.89069">
        <ele>1738.0753977882</ele>
        <time>2019-06-23T14:02:20Z</time>
      </trkpt>
      <trkpt lat="44.27326" lon="6.89069">
        <ele>1737.8971955086</ele>
        <time>2019-06-23T14:02:23Z</time>
      </trkpt>
      <trkpt lat="44.27329" lon="6.89069">
        <ele>1738.5112612072</ele>
        <time>2019-06-23T14:02:26Z</time>
      </trkpt>
      <trkpt lat="44.27331" lon="6.89071">
        <ele>1739.4085215899</ele>
        <time>2019-06-23T14:02:28Z</time>
      </trkpt>
      <trkpt lat="44.27333" lon="6.89072">
        <ele>1739.854723008</ele>
        <time>2019-06-23T14:02:30Z</time>
      </trkpt>
      <trkpt lat="44.27335" lon="6.89073">
        <ele>1740.6890704876</ele>
        <time>2019-06-23T14:02:33Z</time>
      </trkpt>
      <trkpt lat="44.27337" lon="6.89075">
        <ele>1741.2967945506</ele>
        <time>2019-06-23T14:02:35Z</time>
      </trkpt>
      <trkpt lat="44.27339" lon="6.89074">
        <ele>1741.3949608541</ele>
        <time>2019-06-23T14:02:37Z</time>
      </trkpt>
      <trkpt lat="44.27341" lon="6.89075">
        <ele>1741.4996045247</ele>
        <time>2019-06-23T14:02:39Z</time>
      </trkpt>
      <trkpt lat="44.27343" lon="6.89074">
        <ele>1741.311404117</ele>
        <time>2019-06-23T14:02:41Z</time>
      </trkpt>
      <trkpt lat="44.27346" lon="6.89074">
        <ele>1741.5688304502</ele>
        <time>2019-06-23T14:02:44Z</time>
      </trkpt>
      <trkpt lat="44.27348" lon="6.89076">
        <ele>1741.6649996562</ele>
        <time>2019-06-23T14:02:48Z</time>
      </trkpt>
      <trkpt lat="44.27351" lon="6.89077">
        <ele>1741.7766943056</ele>
        <time>2019-06-23T14:02:51Z</time>
      </trkpt>
      <trkpt lat="44.27353" lon="6.89077">
        <ele>1742.00446039</ele>
        <time>2019-06-23T14:02:53Z</time>
      </trkpt>
      <trkpt lat="44.27355" lon="6.89074">
        <ele>1741.6947563578</ele>
        <time>2019-06-23T14:02:55Z</time>
      </trkpt>
      <trkpt lat="44.27357" lon="6.89073">
        <ele>1741.4587944325</ele>
        <time>2019-06-23T14:02:57Z</time>
      </trkpt>
      <trkpt lat="44.27359" lon="6.89073">
        <ele>1741.0911795799</ele>
        <time>2019-06-23T14:03:00Z</time>
      </trkpt>
      <trkpt lat="44.27361" lon="6.89073">
        <ele>1740.1359229606</ele>
        <time>2019-06-23T14:03:11Z</time>
      </trkpt>
      <trkpt lat="44.27363" lon="6.89072">
        <ele>1745.2284883556</ele>
        <time>2019-06-23T14:03:34Z</time>
      </trkpt>
      <trkpt lat="44.27362" lon="6.89075">
        <ele>1746.7012598013</ele>
        <time>2019-06-23T14:03:43Z</time>
      </trkpt>
      <trkpt lat="44.27362" lon="6.89075">
        <ele>1743.4014521392</ele>
        <time>2019-06-23T14:03:55Z</time>
      </trkpt>
      <trkpt lat="44.27364" lon="6.89076">
        <ele>1746.9707420869</ele>
        <time>2019-06-23T14:04:36Z</time>
      </trkpt>
      <trkpt lat="44.27364" lon="6.89076">
        <ele>1743.2798380029</ele>
        <time>2019-06-23T14:04:43Z</time>
      </trkpt>
      <trkpt lat="44.27363" lon="6.89078">
        <ele>1747.1442475926</ele>
        <time>2019-06-23T14:05:51Z</time>
      </trkpt>
      <trkpt lat="44.27362" lon="6.89075">
        <ele>1745.1744319211</ele>
        <time>2019-06-23T14:05:57Z</time>
      </trkpt>
      <trkpt lat="44.27365" lon="6.89076">
        <ele>1744.9700416378</ele>
        <time>2019-06-23T14:06:03Z</time>
      </trkpt>
      <trkpt lat="44.27366" lon="6.89072">
        <ele>1754.6292799428</ele>
        <time>2019-06-23T14:06:18Z</time>
      </trkpt>
      <trkpt lat="44.27364" lon="6.89073">
        <ele>1744.3822226799</ele>
        <time>2019-06-23T14:06:47Z</time>
      </trkpt>
      <trkpt lat="44.27366" lon="6.89075">
        <ele>1752.5107665817</ele>
        <time>2019-06-23T14:07:02Z</time>
      </trkpt>
      <trkpt lat="44.27365" lon="6.89073">
        <ele>1748.4499155387</ele>
        <time>2019-06-23T14:07:14Z</time>
      </trkpt>
      <trkpt lat="44.27364" lon="6.89072">
        <ele>1747.3524269304</ele>
        <time>2019-06-23T14:07:24Z</time>
      </trkpt>
      <trkpt lat="44.27361" lon="6.89071">
        <ele>1745.8729601112</ele>
        <time>2019-06-23T14:07:26Z</time>
      </trkpt>
      <trkpt lat="44.27359" lon="6.8907">
        <ele>1744.0194049031</ele>
        <time>2019-06-23T14:07:28Z</time>
      </trkpt>
      <trkpt lat="44.27359" lon="6.89072">
        <ele>1740.4667701353</ele>
        <time>2019-06-23T14:07:44Z</time>
      </trkpt>
      <trkpt lat="44.27358" lon="6.89075">
        <ele>1736.2810262176</ele>
        <time>2019-06-23T14:08:01Z</time>
      </trkpt>
      <trkpt lat="44.27359" lon="6.89076">
        <ele>1731.3405616453</ele>
        <time>2019-06-23T14:08:11Z</time>
      </trkpt>
      <trkpt lat="44.2736" lon="6.89074">
        <ele>1731.5702274564</ele>
        <time>2019-06-23T14:08:13Z</time>
      </trkpt>
      <trkpt lat="44.27361" lon="6.89072">
        <ele>1735.4141782478</ele>
        <time>2019-06-23T14:08:19Z</time>
      </trkpt>
      <trkpt lat="44.2736" lon="6.89069">
        <ele>1744.4829669923</ele>
        <time>2019-06-23T14:09:05Z</time>
      </trkpt>
      <trkpt lat="44.27361" lon="6.89068">
        <ele>1745.6896408808</ele>
        <time>2019-06-23T14:09:15Z</time>
      </trkpt>
      <trkpt lat="44.27363" lon="6.89069">
        <ele>1743.337590618</ele>
        <time>2019-06-23T14:09:32Z</time>
      </trkpt>
      <trkpt lat="44.27365" lon="6.8907">
        <ele>1742.2439044384</ele>
        <time>2019-06-23T14:09:35Z</time>
      </trkpt>
      <trkpt lat="44.27366" lon="6.89068">
        <ele>1736.3149663479</ele>
        <time>2019-06-23T14:09:45Z</time>
      </trkpt>
      <trkpt lat="44.27366" lon="6.8907">
        <ele>1723.3730081986</ele>
        <time>2019-06-23T14:10:45Z</time>
      </trkpt>
      <trkpt lat="44.27366" lon="6.89073">
        <ele>1724.7754949906</ele>
        <time>2019-06-23T14:10:57Z</time>
      </trkpt>
      <trkpt lat="44.27365" lon="6.89076">
        <ele>1725.1626073262</ele>
        <time>2019-06-23T14:10:59Z</time>
      </trkpt>
      <trkpt lat="44.27364" lon="6.89074">
        <ele>1724.8101543482</ele>
        <time>2019-06-23T14:11:06Z</time>
      </trkpt>
      <trkpt lat="44.27364" lon="6.89071">
        <ele>1724.7714233593</ele>
        <time>2019-06-23T14:11:10Z</time>
      </trkpt>
      <trkpt lat="44.27364" lon="6.89068">
        <ele>1724.2094202442</ele>
        <time>2019-06-23T14:11:13Z</time>
      </trkpt>
      <trkpt lat="44.27364" lon="6.89068">
        <ele>1723.7341207301</ele>
        <time>2019-06-23T14:11:15Z</time>
      </trkpt>
      <trkpt lat="44.27363" lon="6.89066">
        <ele>1721.5829926137</ele>
        <time>2019-06-23T14:11:34Z</time>
      </trkpt>
      <trkpt lat="44.27363" lon="6.89068">
        <ele>1719.7247376013</ele>
        <time>2019-06-23T14:11:43Z</time>
      </trkpt>
      <trkpt lat="44.27364" lon="6.8907">
        <ele>1711.4319418593</ele>
        <time>2019-06-23T14:11:58Z</time>
      </trkpt>
      <trkpt lat="44.27366" lon="6.89071">
        <ele>1711.5501736777</ele>
        <time>2019-06-23T14:12:00Z</time>
      </trkpt>
      <trkpt lat="44.27366" lon="6.89071">
        <ele>1711.2782780649</ele>
        <time>2019-06-23T14:12:07Z</time>
      </trkpt>
      <trkpt lat="44.27367" lon="6.89073">
        <ele>1718.347791399</ele>
        <time>2019-06-23T14:12:29Z</time>
      </trkpt>
      <trkpt lat="44.27366" lon="6.89075">
        <ele>1718.7498074794</ele>
        <time>2019-06-23T14:12:31Z</time>
      </trkpt>
      <trkpt lat="44.27365" lon="6.89073">
        <ele>1717.9517824013</ele>
        <time>2019-06-23T14:12:54Z</time>
      </trkpt>
      <trkpt lat="44.27367" lon="6.89074">
        <ele>1712.6914379597</ele>
        <time>2019-06-23T14:13:03Z</time>
      </trkpt>
      <trkpt lat="44.27367" lon="6.89076">
        <ele>1714.7596696628</ele>
        <time>2019-06-23T14:14:09Z</time>
      </trkpt>
      <trkpt lat="44.27368" lon="6.89078">
        <ele>1718.4686785927</ele>
        <time>2019-06-23T14:14:19Z</time>
      </trkpt>
      <trkpt lat="44.2737" lon="6.89077">
        <ele>1722.3054413305</ele>
        <time>2019-06-23T14:14:24Z</time>
      </trkpt>
      <trkpt lat="44.27372" lon="6.89075">
        <ele>1724.5470568627</ele>
        <time>2019-06-23T14:14:34Z</time>
      </trkpt>
      <trkpt lat="44.27373" lon="6.89073">
        <ele>1724.6408843759</ele>
        <time>2019-06-23T14:14:35Z</time>
      </trkpt>
      <trkpt lat="44.27375" lon="6.89071">
        <ele>1725.2106893804</ele>
        <time>2019-06-23T14:14:36Z</time>
      </trkpt>
      <trkpt lat="44.27376" lon="6.89068">
        <ele>1725.9642624827</ele>
        <time>2019-06-23T14:14:39Z</time>
      </trkpt>
      <trkpt lat="44.27378" lon="6.89065">
        <ele>1727.1038811867</ele>
        <time>2019-06-23T14:14:42Z</time>
      </trkpt>
      <trkpt lat="44.27379" lon="6.89063">
        <ele>1728.3898222963</ele>
        <time>2019-06-23T14:14:44Z</time>
      </trkpt>
      <trkpt lat="44.2738" lon="6.8906">
        <ele>1729.5850537237</ele>
        <time>2019-06-23T14:14:47Z</time>
      </trkpt>
      <trkpt lat="44.27382" lon="6.89057">
        <ele>1729.9602661735</ele>
        <time>2019-06-23T14:14:49Z</time>
      </trkpt>
      <trkpt lat="44.27384" lon="6.89054">
        <ele>1730.0656663839</ele>
        <time>2019-06-23T14:14:51Z</time>
      </trkpt>
      <trkpt lat="44.27386" lon="6.89053">
        <ele>1730.2373828732</ele>
        <time>2019-06-23T14:14:53Z</time>
      </trkpt>
      <trkpt lat="44.27387" lon="6.89051">
        <ele>1730.7207183767</ele>
        <time>2019-06-23T14:14:55Z</time>
      </trkpt>
      <trkpt lat="44.27389" lon="6.89048">
        <ele>1731.5143033134</ele>
        <time>2019-06-23T14:14:58Z</time>
      </trkpt>
      <trkpt lat="44.27389" lon="6.89044">
        <ele>1732.2224754493</ele>
        <time>2019-06-23T14:15:00Z</time>
      </trkpt>
      <trkpt lat="44.2739" lon="6.89042">
        <ele>1732.7431105488</ele>
        <time>2019-06-23T14:15:02Z</time>
      </trkpt>
      <trkpt lat="44.27392" lon="6.89039">
        <ele>1733.2573033054</ele>
        <time>2019-06-23T14:15:04Z</time>
      </trkpt>
      <trkpt lat="44.27393" lon="6.89037">
        <ele>1733.6359024805</ele>
        <time>2019-06-23T14:15:06Z</time>
      </trkpt>
      <trkpt lat="44.27395" lon="6.89034">
        <ele>1733.8065824294</ele>
        <time>2019-06-23T14:15:09Z</time>
      </trkpt>
      <trkpt lat="44.27397" lon="6.89032">
        <ele>1733.6578851093</ele>
        <time>2019-06-23T14:15:11Z</time>
      </trkpt>
      <trkpt lat="44.27399" lon="6.8903">
        <ele>1733.5225390465</ele>
        <time>2019-06-23T14:15:13Z</time>
      </trkpt>
      <trkpt lat="44.274" lon="6.89028">
        <ele>1733.4591003547</ele>
        <time>2019-06-23T14:15:16Z</time>
      </trkpt>
      <trkpt lat="44.27401" lon="6.89026">
        <ele>1733.6136456803</ele>
        <time>2019-06-23T14:15:17Z</time>
      </trkpt>
      <trkpt lat="44.27403" lon="6.89024">
        <ele>1733.9834583358</ele>
        <time>2019-06-23T14:15:19Z</time>
      </trkpt>
      <trkpt lat="44.27405" lon="6.89023">
        <ele>1735.0728918198</ele>
        <time>2019-06-23T14:15:22Z</time>
      </trkpt>
      <trkpt lat="44.27407" lon="6.8902">
        <ele>1735.9721594094</ele>
        <time>2019-06-23T14:15:24Z</time>
      </trkpt>
      <trkpt lat="44.27409" lon="6.89019">
        <ele>1736.3606607574</ele>
        <time>2019-06-23T14:15:25Z</time>
      </trkpt>
      <trkpt lat="44.27411" lon="6.89019">
        <ele>1736.4066995958</ele>
        <time>2019-06-23T14:15:27Z</time>
      </trkpt>
      <trkpt lat="44.27413" lon="6.89018">
        <ele>1736.5000165964</ele>
        <time>2019-06-23T14:15:29Z</time>
      </trkpt>
      <trkpt lat="44.27415" lon="6.89015">
        <ele>1736.0918911607</ele>
        <time>2019-06-23T14:15:31Z</time>
      </trkpt>
      <trkpt lat="44.27417" lon="6.89013">
        <ele>1735.9811781881</ele>
        <time>2019-06-23T14:15:32Z</time>
      </trkpt>
      <trkpt lat="44.27418" lon="6.89011">
        <ele>1736.0281544878</ele>
        <time>2019-06-23T14:15:33Z</time>
      </trkpt>
      <trkpt lat="44.2742" lon="6.89009">
        <ele>1736.0322284656</ele>
        <time>2019-06-23T14:15:35Z</time>
      </trkpt>
      <trkpt lat="44.27421" lon="6.89008">
        <ele>1735.834943568</ele>
        <time>2019-06-23T14:15:36Z</time>
      </trkpt>
      <trkpt lat="44.27423" lon="6.89006">
        <ele>1735.6790034274</ele>
        <time>2019-06-23T14:15:37Z</time>
      </trkpt>
      <trkpt lat="44.27425" lon="6.89006">
        <ele>1736.1836951788</ele>
        <time>2019-06-23T14:15:39Z</time>
      </trkpt>
      <trkpt lat="44.27427" lon="6.89005">
        <ele>1736.4508407834</ele>
        <time>2019-06-23T14:15:40Z</time>
      </trkpt>
      <trkpt lat="44.27428" lon="6.89002">
        <ele>1737.5003441394</ele>
        <time>2019-06-23T14:15:43Z</time>
      </trkpt>
      <trkpt lat="44.2743" lon="6.89001">
        <ele>1737.47745695</ele>
        <time>2019-06-23T14:15:45Z</time>
      </trkpt>
      <trkpt lat="44.27432" lon="6.89">
        <ele>1737.4714426605</ele>
        <time>2019-06-23T14:15:47Z</time>
      </trkpt>
      <trkpt lat="44.27434" lon="6.88999">
        <ele>1737.5725219727</ele>
        <time>2019-06-23T14:15:49Z</time>
      </trkpt>
      <trkpt lat="44.27436" lon="6.88997">
        <ele>1737.6683767599</ele>
        <time>2019-06-23T14:15:51Z</time>
      </trkpt>
      <trkpt lat="44.27437" lon="6.88994">
        <ele>1738.3299176976</ele>
        <time>2019-06-23T14:15:53Z</time>
      </trkpt>
      <trkpt lat="44.27438" lon="6.88992">
        <ele>1738.6749107967</ele>
        <time>2019-06-23T14:15:55Z</time>
      </trkpt>
      <trkpt lat="44.27441" lon="6.8899">
        <ele>1738.5704639034</ele>
        <time>2019-06-23T14:15:57Z</time>
      </trkpt>
      <trkpt lat="44.27442" lon="6.88988">
        <ele>1738.2730185215</ele>
        <time>2019-06-23T14:16:00Z</time>
      </trkpt>
      <trkpt lat="44.27444" lon="6.88987">
        <ele>1737.710401525</ele>
        <time>2019-06-23T14:16:03Z</time>
      </trkpt>
      <trkpt lat="44.27447" lon="6.88987">
        <ele>1736.1852086239</ele>
        <time>2019-06-23T14:16:06Z</time>
      </trkpt>
      <trkpt lat="44.2745" lon="6.88987">
        <ele>1734.7066023569</ele>
        <time>2019-06-23T14:16:08Z</time>
      </trkpt>
      <trkpt lat="44.27452" lon="6.88986">
        <ele>1734.1453641481</ele>
        <time>2019-06-23T14:16:10Z</time>
      </trkpt>
      <trkpt lat="44.27454" lon="6.88984">
        <ele>1733.5099465223</ele>
        <time>2019-06-23T14:16:13Z</time>
      </trkpt>
      <trkpt lat="44.27457" lon="6.88983">
        <ele>1732.8652941717</ele>
        <time>2019-06-23T14:16:15Z</time>
      </trkpt>
      <trkpt lat="44.2746" lon="6.88983">
        <ele>1732.4278915552</ele>
        <time>2019-06-23T14:16:16Z</time>
      </trkpt>
      <trkpt lat="44.27462" lon="6.88982">
        <ele>1731.6385724122</ele>
        <time>2019-06-23T14:16:18Z</time>
      </trkpt>
      <trkpt lat="44.27466" lon="6.8898">
        <ele>1730.8206274741</ele>
        <time>2019-06-23T14:16:20Z</time>
      </trkpt>
      <trkpt lat="44.27468" lon="6.88978">
        <ele>1730.0733648769</ele>
        <time>2019-06-23T14:16:22Z</time>
      </trkpt>
      <trkpt lat="44.27471" lon="6.88978">
        <ele>1729.3514080417</ele>
        <time>2019-06-23T14:16:24Z</time>
      </trkpt>
      <trkpt lat="44.27473" lon="6.88978">
        <ele>1728.6117470318</ele>
        <time>2019-06-23T14:16:27Z</time>
      </trkpt>
      <trkpt lat="44.27478" lon="6.88977">
        <ele>1728.5615569071</ele>
        <time>2019-06-23T14:16:29Z</time>
      </trkpt>
      <trkpt lat="44.2748" lon="6.88975">
        <ele>1728.5220024738</ele>
        <time>2019-06-23T14:16:30Z</time>
      </trkpt>
      <trkpt lat="44.27482" lon="6.88974">
        <ele>1728.5801389068</ele>
        <time>2019-06-23T14:16:31Z</time>
      </trkpt>
      <trkpt lat="44.27484" lon="6.88973">
        <ele>1728.8394322058</ele>
        <time>2019-06-23T14:16:32Z</time>
      </trkpt>
      <trkpt lat="44.27488" lon="6.88972">
        <ele>1729.2995236846</ele>
        <time>2019-06-23T14:16:33Z</time>
      </trkpt>
      <trkpt lat="44.2749" lon="6.88971">
        <ele>1730.0999099512</ele>
        <time>2019-06-23T14:16:35Z</time>
      </trkpt>
      <trkpt lat="44.27493" lon="6.88969">
        <ele>1731.0850257621</ele>
        <time>2019-06-23T14:16:37Z</time>
      </trkpt>
      <trkpt lat="44.27494" lon="6.88968">
        <ele>1731.4356168321</ele>
        <time>2019-06-23T14:16:38Z</time>
      </trkpt>
      <trkpt lat="44.27496" lon="6.88967">
        <ele>1732.0004991946</ele>
        <time>2019-06-23T14:16:39Z</time>
      </trkpt>
      <trkpt lat="44.27499" lon="6.88966">
        <ele>1732.6800605977</ele>
        <time>2019-06-23T14:16:40Z</time>
      </trkpt>
      <trkpt lat="44.27501" lon="6.88966">
        <ele>1733.2217915983</ele>
        <time>2019-06-23T14:16:41Z</time>
      </trkpt>
      <trkpt lat="44.27504" lon="6.88964">
        <ele>1734.2278110069</ele>
        <time>2019-06-23T14:16:43Z</time>
      </trkpt>
      <trkpt lat="44.27506" lon="6.88963">
        <ele>1734.3244471527</ele>
        <time>2019-06-23T14:16:44Z</time>
      </trkpt>
      <trkpt lat="44.27508" lon="6.88962">
        <ele>1734.3610110604</ele>
        <time>2019-06-23T14:16:45Z</time>
      </trkpt>
      <trkpt lat="44.2751" lon="6.88961">
        <ele>1734.3768384848</ele>
        <time>2019-06-23T14:16:46Z</time>
      </trkpt>
      <trkpt lat="44.27512" lon="6.8896">
        <ele>1734.5434039372</ele>
        <time>2019-06-23T14:16:47Z</time>
      </trkpt>
      <trkpt lat="44.27514" lon="6.88959">
        <ele>1734.5873690409</ele>
        <time>2019-06-23T14:16:48Z</time>
      </trkpt>
      <trkpt lat="44.27518" lon="6.88959">
        <ele>1733.9483413767</ele>
        <time>2019-06-23T14:16:50Z</time>
      </trkpt>
      <trkpt lat="44.27521" lon="6.88958">
        <ele>1733.2517179409</ele>
        <time>2019-06-23T14:16:52Z</time>
      </trkpt>
      <trkpt lat="44.27523" lon="6.88958">
        <ele>1732.4333052917</ele>
        <time>2019-06-23T14:16:55Z</time>
      </trkpt>
      <trkpt lat="44.27525" lon="6.88957">
        <ele>1731.8526176161</ele>
        <time>2019-06-23T14:16:57Z</time>
      </trkpt>
      <trkpt lat="44.27527" lon="6.88957">
        <ele>1730.8111032882</ele>
        <time>2019-06-23T14:17:00Z</time>
      </trkpt>
      <trkpt lat="44.27531" lon="6.88957">
        <ele>1730.0880361503</ele>
        <time>2019-06-23T14:17:02Z</time>
      </trkpt>
      <trkpt lat="44.27533" lon="6.88957">
        <ele>1729.8183291332</ele>
        <time>2019-06-23T14:17:03Z</time>
      </trkpt>
      <trkpt lat="44.27536" lon="6.88955">
        <ele>1729.577633441</ele>
        <time>2019-06-23T14:17:06Z</time>
      </trkpt>
      <trkpt lat="44.27538" lon="6.88956">
        <ele>1729.4142627266</ele>
        <time>2019-06-23T14:17:08Z</time>
      </trkpt>
      <trkpt lat="44.27541" lon="6.88957">
        <ele>1729.179852007</ele>
        <time>2019-06-23T14:17:10Z</time>
      </trkpt>
      <trkpt lat="44.27543" lon="6.88958">
        <ele>1729.0126661558</ele>
        <time>2019-06-23T14:17:12Z</time>
      </trkpt>
      <trkpt lat="44.27546" lon="6.88957">
        <ele>1729.3173507495</ele>
        <time>2019-06-23T14:17:14Z</time>
      </trkpt>
      <trkpt lat="44.27548" lon="6.88957">
        <ele>1729.5294456832</ele>
        <time>2019-06-23T14:17:16Z</time>
      </trkpt>
      <trkpt lat="44.27551" lon="6.88957">
        <ele>1729.3694004114</ele>
        <time>2019-06-23T14:17:18Z</time>
      </trkpt>
      <trkpt lat="44.27554" lon="6.88958">
        <ele>1729.0633324396</ele>
        <time>2019-06-23T14:17:20Z</time>
      </trkpt>
      <trkpt lat="44.27556" lon="6.88955">
        <ele>1728.822921134</ele>
        <time>2019-06-23T14:17:22Z</time>
      </trkpt>
      <trkpt lat="44.27559" lon="6.88953">
        <ele>1728.4017024396</ele>
        <time>2019-06-23T14:17:24Z</time>
      </trkpt>
      <trkpt lat="44.27561" lon="6.88951">
        <ele>1727.3602977892</ele>
        <time>2019-06-23T14:17:26Z</time>
      </trkpt>
      <trkpt lat="44.27562" lon="6.88949">
        <ele>1726.3062697299</ele>
        <time>2019-06-23T14:17:28Z</time>
      </trkpt>
      <trkpt lat="44.27564" lon="6.8895">
        <ele>1725.7608658362</ele>
        <time>2019-06-23T14:17:30Z</time>
      </trkpt>
      <trkpt lat="44.27566" lon="6.88949">
        <ele>1725.3500621364</ele>
        <time>2019-06-23T14:17:32Z</time>
      </trkpt>
      <trkpt lat="44.27568" lon="6.88948">
        <ele>1725.3692141681</ele>
        <time>2019-06-23T14:17:34Z</time>
      </trkpt>
      <trkpt lat="44.27571" lon="6.88947">
        <ele>1725.7317109006</ele>
        <time>2019-06-23T14:17:36Z</time>
      </trkpt>
      <trkpt lat="44.27574" lon="6.88945">
        <ele>1725.6907695298</ele>
        <time>2019-06-23T14:17:38Z</time>
      </trkpt>
      <trkpt lat="44.27576" lon="6.88944">
        <ele>1725.5782685989</ele>
        <time>2019-06-23T14:17:40Z</time>
      </trkpt>
      <trkpt lat="44.27579" lon="6.88944">
        <ele>1725.2683087653</ele>
        <time>2019-06-23T14:17:42Z</time>
      </trkpt>
      <trkpt lat="44.2758" lon="6.88942">
        <ele>1724.978320439</ele>
        <time>2019-06-23T14:17:44Z</time>
      </trkpt>
      <trkpt lat="44.27582" lon="6.88939">
        <ele>1724.6236744741</ele>
        <time>2019-06-23T14:17:46Z</time>
      </trkpt>
      <trkpt lat="44.27584" lon="6.88939">
        <ele>1723.956136908</ele>
        <time>2019-06-23T14:17:49Z</time>
      </trkpt>
      <trkpt lat="44.27587" lon="6.88939">
        <ele>1723.071955951</ele>
        <time>2019-06-23T14:17:51Z</time>
      </trkpt>
      <trkpt lat="44.27589" lon="6.88938">
        <ele>1722.6479760086</ele>
        <time>2019-06-23T14:17:53Z</time>
      </trkpt>
      <trkpt lat="44.27591" lon="6.88938">
        <ele>1722.3910577227</ele>
        <time>2019-06-23T14:17:55Z</time>
      </trkpt>
      <trkpt lat="44.27594" lon="6.88937">
        <ele>1721.6584117538</ele>
        <time>2019-06-23T14:17:58Z</time>
      </trkpt>
      <trkpt lat="44.27596" lon="6.88937">
        <ele>1720.8085361628</ele>
        <time>2019-06-23T14:18:00Z</time>
      </trkpt>
      <trkpt lat="44.27598" lon="6.88937">
        <ele>1719.882172561</ele>
        <time>2019-06-23T14:18:02Z</time>
      </trkpt>
      <trkpt lat="44.27601" lon="6.88937">
        <ele>1719.2766198919</ele>
        <time>2019-06-23T14:18:04Z</time>
      </trkpt>
      <trkpt lat="44.27603" lon="6.88939">
        <ele>1718.9293976336</ele>
        <time>2019-06-23T14:18:06Z</time>
      </trkpt>
      <trkpt lat="44.27605" lon="6.88939">
        <ele>1718.8602838394</ele>
        <time>2019-06-23T14:18:08Z</time>
      </trkpt>
      <trkpt lat="44.27608" lon="6.88939">
        <ele>1718.7642003341</ele>
        <time>2019-06-23T14:18:10Z</time>
      </trkpt>
      <trkpt lat="44.27611" lon="6.88938">
        <ele>1718.4916163008</ele>
        <time>2019-06-23T14:18:12Z</time>
      </trkpt>
      <trkpt lat="44.27613" lon="6.88938">
        <ele>1718.4620522681</ele>
        <time>2019-06-23T14:18:14Z</time>
      </trkpt>
      <trkpt lat="44.27615" lon="6.8894">
        <ele>1718.7985083223</ele>
        <time>2019-06-23T14:18:16Z</time>
      </trkpt>
      <trkpt lat="44.27617" lon="6.88939">
        <ele>1718.3394574882</ele>
        <time>2019-06-23T14:18:18Z</time>
      </trkpt>
      <trkpt lat="44.27619" lon="6.8894">
        <ele>1717.8862993966</ele>
        <time>2019-06-23T14:18:20Z</time>
      </trkpt>
      <trkpt lat="44.27622" lon="6.88941">
        <ele>1717.3466388588</ele>
        <time>2019-06-23T14:18:22Z</time>
      </trkpt>
      <trkpt lat="44.27623" lon="6.88939">
        <ele>1717.1982936067</ele>
        <time>2019-06-23T14:18:23Z</time>
      </trkpt>
      <trkpt lat="44.27626" lon="6.88937">
        <ele>1716.9682406725</ele>
        <time>2019-06-23T14:18:24Z</time>
      </trkpt>
      <trkpt lat="44.27627" lon="6.88935">
        <ele>1716.9323113605</ele>
        <time>2019-06-23T14:18:25Z</time>
      </trkpt>
      <trkpt lat="44.27628" lon="6.88934">
        <ele>1716.558755054</ele>
        <time>2019-06-23T14:18:27Z</time>
      </trkpt>
      <trkpt lat="44.2763" lon="6.88933">
        <ele>1715.8475109501</ele>
        <time>2019-06-23T14:18:29Z</time>
      </trkpt>
      <trkpt lat="44.27633" lon="6.88933">
        <ele>1714.9231539891</ele>
        <time>2019-06-23T14:18:31Z</time>
      </trkpt>
      <trkpt lat="44.27635" lon="6.88932">
        <ele>1714.6443335652</ele>
        <time>2019-06-23T14:18:33Z</time>
      </trkpt>
      <trkpt lat="44.27638" lon="6.88929">
        <ele>1714.766341445</ele>
        <time>2019-06-23T14:18:35Z</time>
      </trkpt>
      <trkpt lat="44.2764" lon="6.88926">
        <ele>1714.6434810529</ele>
        <time>2019-06-23T14:18:37Z</time>
      </trkpt>
      <trkpt lat="44.27642" lon="6.88924">
        <ele>1714.3855131909</ele>
        <time>2019-06-23T14:18:39Z</time>
      </trkpt>
      <trkpt lat="44.27645" lon="6.88921">
        <ele>1713.8769976837</ele>
        <time>2019-06-23T14:18:41Z</time>
      </trkpt>
      <trkpt lat="44.27647" lon="6.88919">
        <ele>1713.3281622067</ele>
        <time>2019-06-23T14:18:43Z</time>
      </trkpt>
      <trkpt lat="44.27649" lon="6.88917">
        <ele>1712.9173548307</ele>
        <time>2019-06-23T14:18:45Z</time>
      </trkpt>
      <trkpt lat="44.27651" lon="6.88915">
        <ele>1712.0867498436</ele>
        <time>2019-06-23T14:18:47Z</time>
      </trkpt>
      <trkpt lat="44.27654" lon="6.88914">
        <ele>1711.4150362707</ele>
        <time>2019-06-23T14:18:49Z</time>
      </trkpt>
      <trkpt lat="44.27656" lon="6.88913">
        <ele>1710.8247055657</ele>
        <time>2019-06-23T14:18:51Z</time>
      </trkpt>
      <trkpt lat="44.27659" lon="6.88911">
        <ele>1710.2802579071</ele>
        <time>2019-06-23T14:18:53Z</time>
      </trkpt>
      <trkpt lat="44.27661" lon="6.8891">
        <ele>1710.1241074814</ele>
        <time>2019-06-23T14:18:54Z</time>
      </trkpt>
      <trkpt lat="44.27663" lon="6.88908">
        <ele>1710.1586900793</ele>
        <time>2019-06-23T14:18:56Z</time>
      </trkpt>
      <trkpt lat="44.27665" lon="6.88905">
        <ele>1710.1421771342</ele>
        <time>2019-06-23T14:18:59Z</time>
      </trkpt>
      <trkpt lat="44.27667" lon="6.88903">
        <ele>1710.0919274583</ele>
        <time>2019-06-23T14:19:01Z</time>
      </trkpt>
      <trkpt lat="44.2767" lon="6.889">
        <ele>1710.1699848237</ele>
        <time>2019-06-23T14:19:03Z</time>
      </trkpt>
      <trkpt lat="44.27672" lon="6.88898">
        <ele>1710.5641049559</ele>
        <time>2019-06-23T14:19:05Z</time>
      </trkpt>
      <trkpt lat="44.27674" lon="6.88895">
        <ele>1710.7165808033</ele>
        <time>2019-06-23T14:19:07Z</time>
      </trkpt>
      <trkpt lat="44.27677" lon="6.88893">
        <ele>1710.3682438729</ele>
        <time>2019-06-23T14:19:09Z</time>
      </trkpt>
      <trkpt lat="44.27679" lon="6.88891">
        <ele>1710.0168637804</ele>
        <time>2019-06-23T14:19:11Z</time>
      </trkpt>
      <trkpt lat="44.2768" lon="6.88889">
        <ele>1709.9130641938</ele>
        <time>2019-06-23T14:19:13Z</time>
      </trkpt>
      <trkpt lat="44.27683" lon="6.88886">
        <ele>1709.8205407282</ele>
        <time>2019-06-23T14:19:15Z</time>
      </trkpt>
      <trkpt lat="44.27684" lon="6.88882">
        <ele>1708.8724591787</ele>
        <time>2019-06-23T14:19:18Z</time>
      </trkpt>
      <trkpt lat="44.27686" lon="6.8888">
        <ele>1708.3679581128</ele>
        <time>2019-06-23T14:19:20Z</time>
      </trkpt>
      <trkpt lat="44.27687" lon="6.88877">
        <ele>1707.7277791281</ele>
        <time>2019-06-23T14:19:22Z</time>
      </trkpt>
      <trkpt lat="44.27688" lon="6.88875">
        <ele>1707.6616795971</ele>
        <time>2019-06-23T14:19:24Z</time>
      </trkpt>
      <trkpt lat="44.27689" lon="6.88872">
        <ele>1707.9103495965</ele>
        <time>2019-06-23T14:19:26Z</time>
      </trkpt>
      <trkpt lat="44.27691" lon="6.88869">
        <ele>1707.8943019756</ele>
        <time>2019-06-23T14:19:28Z</time>
      </trkpt>
      <trkpt lat="44.27692" lon="6.88866">
        <ele>1708.0917622251</ele>
        <time>2019-06-23T14:19:30Z</time>
      </trkpt>
      <trkpt lat="44.27693" lon="6.88862">
        <ele>1708.0693148302</ele>
        <time>2019-06-23T14:19:32Z</time>
      </trkpt>
      <trkpt lat="44.27694" lon="6.88859">
        <ele>1707.9191727726</ele>
        <time>2019-06-23T14:19:34Z</time>
      </trkpt>
      <trkpt lat="44.27696" lon="6.88856">
        <ele>1707.3715964672</ele>
        <time>2019-06-23T14:19:36Z</time>
      </trkpt>
      <trkpt lat="44.27697" lon="6.88854">
        <ele>1707.0317459497</ele>
        <time>2019-06-23T14:19:38Z</time>
      </trkpt>
      <trkpt lat="44.27697" lon="6.88851">
        <ele>1706.9929551049</ele>
        <time>2019-06-23T14:19:40Z</time>
      </trkpt>
      <trkpt lat="44.27698" lon="6.88847">
        <ele>1706.9569608443</ele>
        <time>2019-06-23T14:19:42Z</time>
      </trkpt>
      <trkpt lat="44.27699" lon="6.88844">
        <ele>1707.245199722</ele>
        <time>2019-06-23T14:19:44Z</time>
      </trkpt>
      <trkpt lat="44.277" lon="6.88842">
        <ele>1707.2988310311</ele>
        <time>2019-06-23T14:19:45Z</time>
      </trkpt>
      <trkpt lat="44.27701" lon="6.88839">
        <ele>1707.0885724331</ele>
        <time>2019-06-23T14:19:47Z</time>
      </trkpt>
      <trkpt lat="44.27702" lon="6.88837">
        <ele>1706.7799604139</ele>
        <time>2019-06-23T14:19:49Z</time>
      </trkpt>
      <trkpt lat="44.27704" lon="6.88834">
        <ele>1707.0514211891</ele>
        <time>2019-06-23T14:19:51Z</time>
      </trkpt>
      <trkpt lat="44.27705" lon="6.88831">
        <ele>1707.1131424989</ele>
        <time>2019-06-23T14:19:53Z</time>
      </trkpt>
      <trkpt lat="44.27706" lon="6.88828">
        <ele>1706.8426867762</ele>
        <time>2019-06-23T14:19:55Z</time>
      </trkpt>
      <trkpt lat="44.27707" lon="6.88824">
        <ele>1706.507736217</ele>
        <time>2019-06-23T14:19:57Z</time>
      </trkpt>
      <trkpt lat="44.27707" lon="6.8882">
        <ele>1706.2748719238</ele>
        <time>2019-06-23T14:19:59Z</time>
      </trkpt>
      <trkpt lat="44.27708" lon="6.88817">
        <ele>1705.7237373538</ele>
        <time>2019-06-23T14:20:01Z</time>
      </trkpt>
      <trkpt lat="44.27708" lon="6.88814">
        <ele>1704.8081747125</ele>
        <time>2019-06-23T14:20:03Z</time>
      </trkpt>
      <trkpt lat="44.2771" lon="6.88811">
        <ele>1704.4167123811</ele>
        <time>2019-06-23T14:20:05Z</time>
      </trkpt>
      <trkpt lat="44.27712" lon="6.88808">
        <ele>1703.6715256947</ele>
        <time>2019-06-23T14:20:07Z</time>
      </trkpt>
      <trkpt lat="44.27713" lon="6.88805">
        <ele>1703.4175443907</ele>
        <time>2019-06-23T14:20:09Z</time>
      </trkpt>
      <trkpt lat="44.27713" lon="6.88802">
        <ele>1703.3517943951</ele>
        <time>2019-06-23T14:20:11Z</time>
      </trkpt>
      <trkpt lat="44.27714" lon="6.88799">
        <ele>1703.45043267</ele>
        <time>2019-06-23T14:20:13Z</time>
      </trkpt>
      <trkpt lat="44.27714" lon="6.88796">
        <ele>1703.3165679633</ele>
        <time>2019-06-23T14:20:15Z</time>
      </trkpt>
      <trkpt lat="44.27714" lon="6.88793">
        <ele>1703.5070038268</ele>
        <time>2019-06-23T14:20:17Z</time>
      </trkpt>
      <trkpt lat="44.27715" lon="6.88789">
        <ele>1703.6380244234</ele>
        <time>2019-06-23T14:20:19Z</time>
      </trkpt>
      <trkpt lat="44.27716" lon="6.88786">
        <ele>1703.3891303492</ele>
        <time>2019-06-23T14:20:21Z</time>
      </trkpt>
      <trkpt lat="44.27716" lon="6.88783">
        <ele>1703.3982374828</ele>
        <time>2019-06-23T14:20:23Z</time>
      </trkpt>
      <trkpt lat="44.27716" lon="6.8878">
        <ele>1703.5162168739</ele>
        <time>2019-06-23T14:20:25Z</time>
      </trkpt>
      <trkpt lat="44.27716" lon="6.88777">
        <ele>1703.3794749602</ele>
        <time>2019-06-23T14:20:27Z</time>
      </trkpt>
      <trkpt lat="44.27714" lon="6.88773">
        <ele>1702.8167427823</ele>
        <time>2019-06-23T14:20:30Z</time>
      </trkpt>
      <trkpt lat="44.27714" lon="6.88771">
        <ele>1702.7267344198</ele>
        <time>2019-06-23T14:20:32Z</time>
      </trkpt>
      <trkpt lat="44.27712" lon="6.88768">
        <ele>1701.5032370448</ele>
        <time>2019-06-23T14:20:35Z</time>
      </trkpt>
      <trkpt lat="44.27711" lon="6.88764">
        <ele>1701.088002212</ele>
        <time>2019-06-23T14:20:38Z</time>
      </trkpt>
      <trkpt lat="44.27708" lon="6.88763">
        <ele>1701.1312991191</ele>
        <time>2019-06-23T14:20:40Z</time>
      </trkpt>
      <trkpt lat="44.27706" lon="6.88759">
        <ele>1700.6329682898</ele>
        <time>2019-06-23T14:20:42Z</time>
      </trkpt>
      <trkpt lat="44.27706" lon="6.88758">
        <ele>1700.4590649053</ele>
        <time>2019-06-23T14:20:43Z</time>
      </trkpt>
      <trkpt lat="44.27705" lon="6.88754">
        <ele>1700.4847868293</ele>
        <time>2019-06-23T14:20:45Z</time>
      </trkpt>
      <trkpt lat="44.27703" lon="6.88752">
        <ele>1700.3227184314</ele>
        <time>2019-06-23T14:20:47Z</time>
      </trkpt>
      <trkpt lat="44.27703" lon="6.88748">
        <ele>1701.0599142835</ele>
        <time>2019-06-23T14:20:49Z</time>
      </trkpt>
      <trkpt lat="44.27702" lon="6.88745">
        <ele>1701.634394751</ele>
        <time>2019-06-23T14:20:51Z</time>
      </trkpt>
      <trkpt lat="44.27702" lon="6.88742">
        <ele>1702.0899993206</ele>
        <time>2019-06-23T14:20:53Z</time>
      </trkpt>
      <trkpt lat="44.277" lon="6.88739">
        <ele>1701.8270547615</ele>
        <time>2019-06-23T14:20:55Z</time>
      </trkpt>
      <trkpt lat="44.277" lon="6.88736">
        <ele>1701.7242522555</ele>
        <time>2019-06-23T14:20:57Z</time>
      </trkpt>
      <trkpt lat="44.27699" lon="6.88734">
        <ele>1701.5207303699</ele>
        <time>2019-06-23T14:20:59Z</time>
      </trkpt>
      <trkpt lat="44.27698" lon="6.8873">
        <ele>1701.1802972023</ele>
        <time>2019-06-23T14:21:01Z</time>
      </trkpt>
      <trkpt lat="44.27698" lon="6.88727">
        <ele>1700.6381225348</ele>
        <time>2019-06-23T14:21:03Z</time>
      </trkpt>
      <trkpt lat="44.27697" lon="6.88723">
        <ele>1700.0785056016</ele>
        <time>2019-06-23T14:21:05Z</time>
      </trkpt>
      <trkpt lat="44.27696" lon="6.88721">
        <ele>1699.5099274212</ele>
        <time>2019-06-23T14:21:07Z</time>
      </trkpt>
      <trkpt lat="44.27695" lon="6.88717">
        <ele>1699.1389749995</ele>
        <time>2019-06-23T14:21:09Z</time>
      </trkpt>
      <trkpt lat="44.27695" lon="6.88714">
        <ele>1698.9870085598</ele>
        <time>2019-06-23T14:21:11Z</time>
      </trkpt>
      <trkpt lat="44.27694" lon="6.8871">
        <ele>1699.5541105714</ele>
        <time>2019-06-23T14:21:13Z</time>
      </trkpt>
      <trkpt lat="44.27694" lon="6.88707">
        <ele>1699.6548099624</ele>
        <time>2019-06-23T14:21:15Z</time>
      </trkpt>
      <trkpt lat="44.27694" lon="6.88704">
        <ele>1699.4704898116</ele>
        <time>2019-06-23T14:21:17Z</time>
      </trkpt>
      <trkpt lat="44.27693" lon="6.887">
        <ele>1699.0266184742</ele>
        <time>2019-06-23T14:21:19Z</time>
      </trkpt>
      <trkpt lat="44.27693" lon="6.88696">
        <ele>1698.8431157286</ele>
        <time>2019-06-23T14:21:21Z</time>
      </trkpt>
      <trkpt lat="44.27692" lon="6.88694">
        <ele>1698.8282484439</ele>
        <time>2019-06-23T14:21:23Z</time>
      </trkpt>
      <trkpt lat="44.27692" lon="6.88691">
        <ele>1698.8434451821</ele>
        <time>2019-06-23T14:21:25Z</time>
      </trkpt>
      <trkpt lat="44.27691" lon="6.88688">
        <ele>1698.6682799448</ele>
        <time>2019-06-23T14:21:28Z</time>
      </trkpt>
      <trkpt lat="44.27691" lon="6.88685">
        <ele>1698.2712782157</ele>
        <time>2019-06-23T14:21:30Z</time>
      </trkpt>
      <trkpt lat="44.27691" lon="6.88683">
        <ele>1697.7049292152</ele>
        <time>2019-06-23T14:21:32Z</time>
      </trkpt>
      <trkpt lat="44.27691" lon="6.88679">
        <ele>1697.6151699735</ele>
        <time>2019-06-23T14:21:34Z</time>
      </trkpt>
      <trkpt lat="44.2769" lon="6.88675">
        <ele>1697.6298580065</ele>
        <time>2019-06-23T14:21:36Z</time>
      </trkpt>
      <trkpt lat="44.2769" lon="6.88672">
        <ele>1697.4071803115</ele>
        <time>2019-06-23T14:21:39Z</time>
      </trkpt>
      <trkpt lat="44.27689" lon="6.88669">
        <ele>1697.5544195223</ele>
        <time>2019-06-23T14:21:41Z</time>
      </trkpt>
      <trkpt lat="44.27689" lon="6.88664">
        <ele>1696.9871994042</ele>
        <time>2019-06-23T14:21:43Z</time>
      </trkpt>
      <trkpt lat="44.27689" lon="6.88661">
        <ele>1696.3366355927</ele>
        <time>2019-06-23T14:21:45Z</time>
      </trkpt>
      <trkpt lat="44.27688" lon="6.88658">
        <ele>1696.0225697411</ele>
        <time>2019-06-23T14:21:47Z</time>
      </trkpt>
      <trkpt lat="44.2769" lon="6.88656">
        <ele>1695.7304110712</ele>
        <time>2019-06-23T14:21:49Z</time>
      </trkpt>
      <trkpt lat="44.27691" lon="6.88653">
        <ele>1695.1802686747</ele>
        <time>2019-06-23T14:21:51Z</time>
      </trkpt>
      <trkpt lat="44.27692" lon="6.8865">
        <ele>1694.5434575753</ele>
        <time>2019-06-23T14:21:53Z</time>
      </trkpt>
      <trkpt lat="44.27693" lon="6.88648">
        <ele>1694.3137200248</ele>
        <time>2019-06-23T14:21:55Z</time>
      </trkpt>
      <trkpt lat="44.27695" lon="6.88645">
        <ele>1694.7212659789</ele>
        <time>2019-06-23T14:21:57Z</time>
      </trkpt>
      <trkpt lat="44.27697" lon="6.88642">
        <ele>1695.1008007652</ele>
        <time>2019-06-23T14:21:59Z</time>
      </trkpt>
      <trkpt lat="44.27698" lon="6.8864">
        <ele>1695.2199594198</ele>
        <time>2019-06-23T14:22:00Z</time>
      </trkpt>
      <trkpt lat="44.277" lon="6.88637">
        <ele>1695.3801726305</ele>
        <time>2019-06-23T14:22:02Z</time>
      </trkpt>
      <trkpt lat="44.27701" lon="6.88636">
        <ele>1695.305203677</ele>
        <time>2019-06-23T14:22:03Z</time>
      </trkpt>
      <trkpt lat="44.27702" lon="6.88633">
        <ele>1695.1258480148</ele>
        <time>2019-06-23T14:22:04Z</time>
      </trkpt>
      <trkpt lat="44.27703" lon="6.8863">
        <ele>1694.5890017345</ele>
        <time>2019-06-23T14:22:06Z</time>
      </trkpt>
      <trkpt lat="44.27704" lon="6.88628">
        <ele>1693.7575980109</ele>
        <time>2019-06-23T14:22:08Z</time>
      </trkpt>
      <trkpt lat="44.27705" lon="6.88625">
        <ele>1692.8675773015</ele>
        <time>2019-06-23T14:22:11Z</time>
      </trkpt>
      <trkpt lat="44.27705" lon="6.88622">
        <ele>1691.8193386043</ele>
        <time>2019-06-23T14:22:14Z</time>
      </trkpt>
      <trkpt lat="44.27706" lon="6.88619">
        <ele>1690.8803352279</ele>
        <time>2019-06-23T14:22:17Z</time>
      </trkpt>
      <trkpt lat="44.27708" lon="6.88616">
        <ele>1690.5137435008</ele>
        <time>2019-06-23T14:22:19Z</time>
      </trkpt>
      <trkpt lat="44.2771" lon="6.88614">
        <ele>1690.4348723499</ele>
        <time>2019-06-23T14:22:21Z</time>
      </trkpt>
      <trkpt lat="44.27711" lon="6.88612">
        <ele>1689.8319519276</ele>
        <time>2019-06-23T14:22:23Z</time>
      </trkpt>
      <trkpt lat="44.27713" lon="6.88609">
        <ele>1689.3454380632</ele>
        <time>2019-06-23T14:22:25Z</time>
      </trkpt>
      <trkpt lat="44.27714" lon="6.88607">
        <ele>1688.5347751481</ele>
        <time>2019-06-23T14:22:27Z</time>
      </trkpt>
      <trkpt lat="44.27716" lon="6.88605">
        <ele>1687.8858607718</ele>
        <time>2019-06-23T14:22:29Z</time>
      </trkpt>
      <trkpt lat="44.27718" lon="6.88602">
        <ele>1687.2307714299</ele>
        <time>2019-06-23T14:22:31Z</time>
      </trkpt>
      <trkpt lat="44.27719" lon="6.88599">
        <ele>1686.3399610581</ele>
        <time>2019-06-23T14:22:34Z</time>
      </trkpt>
      <trkpt lat="44.2772" lon="6.88597">
        <ele>1686.3200311367</ele>
        <time>2019-06-23T14:22:35Z</time>
      </trkpt>
      <trkpt lat="44.27721" lon="6.88595">
        <ele>1686.4483892684</ele>
        <time>2019-06-23T14:22:37Z</time>
      </trkpt>
      <trkpt lat="44.27723" lon="6.88592">
        <ele>1686.2412283183</ele>
        <time>2019-06-23T14:22:39Z</time>
      </trkpt>
      <trkpt lat="44.27723" lon="6.88588">
        <ele>1686.0093499916</ele>
        <time>2019-06-23T14:22:42Z</time>
      </trkpt>
      <trkpt lat="44.27723" lon="6.88585">
        <ele>1685.5908207095</ele>
        <time>2019-06-23T14:22:44Z</time>
      </trkpt>
      <trkpt lat="44.27723" lon="6.88582">
        <ele>1685.0901390828</ele>
        <time>2019-06-23T14:22:46Z</time>
      </trkpt>
      <trkpt lat="44.27723" lon="6.88577">
        <ele>1684.5431470939</ele>
        <time>2019-06-23T14:22:48Z</time>
      </trkpt>
      <trkpt lat="44.27724" lon="6.88574">
        <ele>1684.2308847243</ele>
        <time>2019-06-23T14:22:50Z</time>
      </trkpt>
      <trkpt lat="44.27724" lon="6.88571">
        <ele>1684.1484156947</ele>
        <time>2019-06-23T14:22:52Z</time>
      </trkpt>
      <trkpt lat="44.27726" lon="6.88572">
        <ele>1680.9288635765</ele>
        <time>2019-06-23T14:22:57Z</time>
      </trkpt>
      <trkpt lat="44.27727" lon="6.88575">
        <ele>1679.8059103282</ele>
        <time>2019-06-23T14:22:59Z</time>
      </trkpt>
      <trkpt lat="44.27727" lon="6.88578">
        <ele>1678.9933160762</ele>
        <time>2019-06-23T14:23:01Z</time>
      </trkpt>
      <trkpt lat="44.27728" lon="6.88583">
        <ele>1678.7958982619</ele>
        <time>2019-06-23T14:23:03Z</time>
      </trkpt>
      <trkpt lat="44.27729" lon="6.88586">
        <ele>1678.4485594977</ele>
        <time>2019-06-23T14:23:06Z</time>
      </trkpt>
      <trkpt lat="44.2773" lon="6.8859">
        <ele>1678.3366844166</ele>
        <time>2019-06-23T14:23:08Z</time>
      </trkpt>
      <trkpt lat="44.2773" lon="6.88594">
        <ele>1678.360430113</ele>
        <time>2019-06-23T14:23:10Z</time>
      </trkpt>
      <trkpt lat="44.27732" lon="6.88597">
        <ele>1678.2278372341</ele>
        <time>2019-06-23T14:23:12Z</time>
      </trkpt>
      <trkpt lat="44.27734" lon="6.88602">
        <ele>1678.2543605859</ele>
        <time>2019-06-23T14:23:14Z</time>
      </trkpt>
      <trkpt lat="44.27734" lon="6.88605">
        <ele>1678.186339444</ele>
        <time>2019-06-23T14:23:16Z</time>
      </trkpt>
      <trkpt lat="44.27734" lon="6.88607">
        <ele>1678.3014736648</ele>
        <time>2019-06-23T14:23:17Z</time>
      </trkpt>
      <trkpt lat="44.27735" lon="6.88612">
        <ele>1678.7510260564</ele>
        <time>2019-06-23T14:23:19Z</time>
      </trkpt>
      <trkpt lat="44.27735" lon="6.88615">
        <ele>1679.304191878</ele>
        <time>2019-06-23T14:23:21Z</time>
      </trkpt>
      <trkpt lat="44.27737" lon="6.88619">
        <ele>1679.7063502412</ele>
        <time>2019-06-23T14:23:23Z</time>
      </trkpt>
      <trkpt lat="44.27737" lon="6.88622">
        <ele>1679.7204409604</ele>
        <time>2019-06-23T14:23:25Z</time>
      </trkpt>
      <trkpt lat="44.2774" lon="6.88623">
        <ele>1679.8848402386</ele>
        <time>2019-06-23T14:23:26Z</time>
      </trkpt>
      <trkpt lat="44.2774" lon="6.88626">
        <ele>1680.6671369615</ele>
        <time>2019-06-23T14:23:29Z</time>
      </trkpt>
      <trkpt lat="44.27739" lon="6.88628">
        <ele>1681.2524030382</ele>
        <time>2019-06-23T14:23:31Z</time>
      </trkpt>
      <trkpt lat="44.27737" lon="6.88631">
        <ele>1682.536470331</ele>
        <time>2019-06-23T14:23:33Z</time>
      </trkpt>
      <trkpt lat="44.27736" lon="6.88635">
        <ele>1683.8034759952</ele>
        <time>2019-06-23T14:23:35Z</time>
      </trkpt>
      <trkpt lat="44.27734" lon="6.88638">
        <ele>1684.7786523399</ele>
        <time>2019-06-23T14:23:37Z</time>
      </trkpt>
      <trkpt lat="44.27733" lon="6.88641">
        <ele>1685.2512887765</ele>
        <time>2019-06-23T14:23:39Z</time>
      </trkpt>
      <trkpt lat="44.27732" lon="6.88643">
        <ele>1685.4165841257</ele>
        <time>2019-06-23T14:23:40Z</time>
      </trkpt>
      <trkpt lat="44.2773" lon="6.88646">
        <ele>1685.5618859016</ele>
        <time>2019-06-23T14:23:41Z</time>
      </trkpt>
      <trkpt lat="44.27729" lon="6.8865">
        <ele>1685.4458320057</ele>
        <time>2019-06-23T14:23:44Z</time>
      </trkpt>
      <trkpt lat="44.27727" lon="6.88653">
        <ele>1685.6080510852</ele>
        <time>2019-06-23T14:23:46Z</time>
      </trkpt>
      <trkpt lat="44.27727" lon="6.88657">
        <ele>1685.2674927059</ele>
        <time>2019-06-23T14:23:48Z</time>
      </trkpt>
      <trkpt lat="44.27727" lon="6.88662">
        <ele>1684.5645867276</ele>
        <time>2019-06-23T14:23:50Z</time>
      </trkpt>
      <trkpt lat="44.27727" lon="6.88666">
        <ele>1683.6047298672</ele>
        <time>2019-06-23T14:23:52Z</time>
      </trkpt>
      <trkpt lat="44.27727" lon="6.88668">
        <ele>1683.1972561547</ele>
        <time>2019-06-23T14:23:53Z</time>
      </trkpt>
      <trkpt lat="44.27726" lon="6.88672">
        <ele>1682.7318967326</ele>
        <time>2019-06-23T14:23:55Z</time>
      </trkpt>
      <trkpt lat="44.27726" lon="6.88676">
        <ele>1682.1897674423</ele>
        <time>2019-06-23T14:23:57Z</time>
      </trkpt>
      <trkpt lat="44.27727" lon="6.88678">
        <ele>1681.3303802229</ele>
        <time>2019-06-23T14:23:59Z</time>
      </trkpt>
      <trkpt lat="44.27729" lon="6.8868">
        <ele>1680.8820219392</ele>
        <time>2019-06-23T14:24:01Z</time>
      </trkpt>
      <trkpt lat="44.27731" lon="6.88681">
        <ele>1681.1107622152</ele>
        <time>2019-06-23T14:24:04Z</time>
      </trkpt>
      <trkpt lat="44.27734" lon="6.88678">
        <ele>1681.9352863963</ele>
        <time>2019-06-23T14:24:06Z</time>
      </trkpt>
      <trkpt lat="44.27735" lon="6.88675">
        <ele>1682.5327076326</ele>
        <time>2019-06-23T14:24:07Z</time>
      </trkpt>
      <trkpt lat="44.27736" lon="6.88673">
        <ele>1683.1773425293</ele>
        <time>2019-06-23T14:24:09Z</time>
      </trkpt>
      <trkpt lat="44.27737" lon="6.88669">
        <ele>1682.9021939062</ele>
        <time>2019-06-23T14:24:11Z</time>
      </trkpt>
      <trkpt lat="44.27739" lon="6.88667">
        <ele>1682.0097855674</ele>
        <time>2019-06-23T14:24:13Z</time>
      </trkpt>
      <trkpt lat="44.2774" lon="6.88665">
        <ele>1681.5076166342</ele>
        <time>2019-06-23T14:24:14Z</time>
      </trkpt>
      <trkpt lat="44.2774" lon="6.88662">
        <ele>1680.1543247298</ele>
        <time>2019-06-23T14:24:16Z</time>
      </trkpt>
      <trkpt lat="44.27742" lon="6.88659">
        <ele>1679.3480544743</ele>
        <time>2019-06-23T14:24:18Z</time>
      </trkpt>
      <trkpt lat="44.27744" lon="6.88655">
        <ele>1678.9895394215</ele>
        <time>2019-06-23T14:24:20Z</time>
      </trkpt>
      <trkpt lat="44.27746" lon="6.88653">
        <ele>1674.2054188693</ele>
        <time>2019-06-23T14:24:31Z</time>
      </trkpt>
      <trkpt lat="44.27747" lon="6.88649">
        <ele>1673.6758719726</ele>
        <time>2019-06-23T14:24:34Z</time>
      </trkpt>
      <trkpt lat="44.27748" lon="6.88646">
        <ele>1673.3673777713</ele>
        <time>2019-06-23T14:24:37Z</time>
      </trkpt>
      <trkpt lat="44.27749" lon="6.88643">
        <ele>1673.1256480577</ele>
        <time>2019-06-23T14:24:39Z</time>
      </trkpt>
      <trkpt lat="44.2775" lon="6.88639">
        <ele>1672.7282882796</ele>
        <time>2019-06-23T14:24:41Z</time>
      </trkpt>
      <trkpt lat="44.27752" lon="6.88636">
        <ele>1672.0023248865</ele>
        <time>2019-06-23T14:24:43Z</time>
      </trkpt>
      <trkpt lat="44.27752" lon="6.88633">
        <ele>1671.4004651761</ele>
        <time>2019-06-23T14:24:45Z</time>
      </trkpt>
      <trkpt lat="44.27754" lon="6.8863">
        <ele>1671.4045694372</ele>
        <time>2019-06-23T14:24:47Z</time>
      </trkpt>
      <trkpt lat="44.27755" lon="6.88628">
        <ele>1671.6741528546</ele>
        <time>2019-06-23T14:24:49Z</time>
      </trkpt>
      <trkpt lat="44.27757" lon="6.88625">
        <ele>1671.7803776204</ele>
        <time>2019-06-23T14:24:51Z</time>
      </trkpt>
      <trkpt lat="44.27758" lon="6.88622">
        <ele>1671.7717388406</ele>
        <time>2019-06-23T14:24:53Z</time>
      </trkpt>
      <trkpt lat="44.27759" lon="6.88618">
        <ele>1671.275625228</ele>
        <time>2019-06-23T14:24:56Z</time>
      </trkpt>
      <trkpt lat="44.27759" lon="6.88615">
        <ele>1671.1070328013</ele>
        <time>2019-06-23T14:24:57Z</time>
      </trkpt>
      <trkpt lat="44.2776" lon="6.88611">
        <ele>1670.8944269112</ele>
        <time>2019-06-23T14:24:59Z</time>
      </trkpt>
      <trkpt lat="44.27759" lon="6.88608">
        <ele>1670.5021669757</ele>
        <time>2019-06-23T14:25:01Z</time>
      </trkpt>
      <trkpt lat="44.27759" lon="6.88605">
        <ele>1669.7332066109</ele>
        <time>2019-06-23T14:25:03Z</time>
      </trkpt>
      <trkpt lat="44.27758" lon="6.88603">
        <ele>1669.2441034406</ele>
        <time>2019-06-23T14:25:05Z</time>
      </trkpt>
      <trkpt lat="44.27758" lon="6.88598">
        <ele>1668.7344160885</ele>
        <time>2019-06-23T14:25:07Z</time>
      </trkpt>
      <trkpt lat="44.27757" lon="6.88594">
        <ele>1667.9774092724</ele>
        <time>2019-06-23T14:25:09Z</time>
      </trkpt>
      <trkpt lat="44.27757" lon="6.88591">
        <ele>1667.117204166</ele>
        <time>2019-06-23T14:25:11Z</time>
      </trkpt>
      <trkpt lat="44.27759" lon="6.88588">
        <ele>1665.7433416666</ele>
        <time>2019-06-23T14:25:14Z</time>
      </trkpt>
      <trkpt lat="44.2776" lon="6.88586">
        <ele>1665.4981257791</ele>
        <time>2019-06-23T14:25:16Z</time>
      </trkpt>
      <trkpt lat="44.27761" lon="6.88583">
        <ele>1665.310103888</ele>
        <time>2019-06-23T14:25:18Z</time>
      </trkpt>
      <trkpt lat="44.27761" lon="6.8858">
        <ele>1664.6710640013</ele>
        <time>2019-06-23T14:25:20Z</time>
      </trkpt>
      <trkpt lat="44.27762" lon="6.88577">
        <ele>1664.5577381137</ele>
        <time>2019-06-23T14:25:22Z</time>
      </trkpt>
      <trkpt lat="44.27761" lon="6.88573">
        <ele>1664.5332401817</ele>
        <time>2019-06-23T14:25:24Z</time>
      </trkpt>
      <trkpt lat="44.2776" lon="6.8857">
        <ele>1664.2809165719</ele>
        <time>2019-06-23T14:25:25Z</time>
      </trkpt>
      <trkpt lat="44.2776" lon="6.88566">
        <ele>1663.5690217569</ele>
        <time>2019-06-23T14:25:28Z</time>
      </trkpt>
      <trkpt lat="44.2776" lon="6.88562">
        <ele>1662.9763432852</ele>
        <time>2019-06-23T14:25:30Z</time>
      </trkpt>
      <trkpt lat="44.27761" lon="6.88559">
        <ele>1662.5699074262</ele>
        <time>2019-06-23T14:25:31Z</time>
      </trkpt>
      <trkpt lat="44.2776" lon="6.88557">
        <ele>1662.032973079</ele>
        <time>2019-06-23T14:25:32Z</time>
      </trkpt>
      <trkpt lat="44.27759" lon="6.88555">
        <ele>1661.3802333571</ele>
        <time>2019-06-23T14:25:33Z</time>
      </trkpt>
      <trkpt lat="44.27758" lon="6.88551">
        <ele>1659.8724360203</ele>
        <time>2019-06-23T14:25:35Z</time>
      </trkpt>
      <trkpt lat="44.27757" lon="6.88548">
        <ele>1658.6934501378</ele>
        <time>2019-06-23T14:25:37Z</time>
      </trkpt>
      <trkpt lat="44.27756" lon="6.88544">
        <ele>1657.2080132964</ele>
        <time>2019-06-23T14:25:39Z</time>
      </trkpt>
      <trkpt lat="44.27755" lon="6.88541">
        <ele>1655.5793215841</ele>
        <time>2019-06-23T14:25:41Z</time>
      </trkpt>
      <trkpt lat="44.27755" lon="6.88538">
        <ele>1654.1466994203</ele>
        <time>2019-06-23T14:25:43Z</time>
      </trkpt>
      <trkpt lat="44.27753" lon="6.88536">
        <ele>1653.1424598856</ele>
        <time>2019-06-23T14:25:45Z</time>
      </trkpt>
      <trkpt lat="44.27752" lon="6.88532">
        <ele>1651.5081206929</ele>
        <time>2019-06-23T14:25:48Z</time>
      </trkpt>
      <trkpt lat="44.27751" lon="6.88529">
        <ele>1651.4200845731</ele>
        <time>2019-06-23T14:25:50Z</time>
      </trkpt>
      <trkpt lat="44.2775" lon="6.88526">
        <ele>1651.6064749617</ele>
        <time>2019-06-23T14:25:52Z</time>
      </trkpt>
      <trkpt lat="44.2775" lon="6.88522">
        <ele>1651.9447524757</ele>
        <time>2019-06-23T14:25:54Z</time>
      </trkpt>
      <trkpt lat="44.2775" lon="6.88519">
        <ele>1652.6826959954</ele>
        <time>2019-06-23T14:25:56Z</time>
      </trkpt>
      <trkpt lat="44.27748" lon="6.88515">
        <ele>1653.6843073208</ele>
        <time>2019-06-23T14:25:59Z</time>
      </trkpt>
      <trkpt lat="44.27747" lon="6.88512">
        <ele>1654.9728808467</ele>
        <time>2019-06-23T14:26:01Z</time>
      </trkpt>
      <trkpt lat="44.27747" lon="6.88509">
        <ele>1655.4645574028</ele>
        <time>2019-06-23T14:26:02Z</time>
      </trkpt>
      <trkpt lat="44.27747" lon="6.88506">
        <ele>1656.3545605416</ele>
        <time>2019-06-23T14:26:04Z</time>
      </trkpt>
      <trkpt lat="44.27747" lon="6.88502">
        <ele>1657.444253262</ele>
        <time>2019-06-23T14:26:06Z</time>
      </trkpt>
      <trkpt lat="44.27748" lon="6.88499">
        <ele>1658.4824029851</ele>
        <time>2019-06-23T14:26:08Z</time>
      </trkpt>
      <trkpt lat="44.27749" lon="6.88495">
        <ele>1659.5288160948</ele>
        <time>2019-06-23T14:26:10Z</time>
      </trkpt>
      <trkpt lat="44.2775" lon="6.88492">
        <ele>1659.8193306998</ele>
        <time>2019-06-23T14:26:11Z</time>
      </trkpt>
      <trkpt lat="44.2775" lon="6.88489">
        <ele>1660.0256613777</ele>
        <time>2019-06-23T14:26:13Z</time>
      </trkpt>
      <trkpt lat="44.27751" lon="6.88485">
        <ele>1659.741508796</ele>
        <time>2019-06-23T14:26:15Z</time>
      </trkpt>
      <trkpt lat="44.27751" lon="6.88481">
        <ele>1659.3026666783</ele>
        <time>2019-06-23T14:26:17Z</time>
      </trkpt>
      <trkpt lat="44.27751" lon="6.88478">
        <ele>1659.3175012721</ele>
        <time>2019-06-23T14:26:18Z</time>
      </trkpt>
      <trkpt lat="44.27752" lon="6.88475">
        <ele>1659.0390690254</ele>
        <time>2019-06-23T14:26:19Z</time>
      </trkpt>
      <trkpt lat="44.27752" lon="6.88472">
        <ele>1657.2522149744</ele>
        <time>2019-06-23T14:26:22Z</time>
      </trkpt>
      <trkpt lat="44.27753" lon="6.8847">
        <ele>1656.8116780118</ele>
        <time>2019-06-23T14:26:23Z</time>
      </trkpt>
      <trkpt lat="44.27753" lon="6.88466">
        <ele>1656.567722423</ele>
        <time>2019-06-23T14:26:25Z</time>
      </trkpt>
      <trkpt lat="44.27753" lon="6.88463">
        <ele>1656.156685768</ele>
        <time>2019-06-23T14:26:27Z</time>
      </trkpt>
      <trkpt lat="44.27755" lon="6.8846">
        <ele>1655.803351336</ele>
        <time>2019-06-23T14:26:29Z</time>
      </trkpt>
      <trkpt lat="44.27756" lon="6.88457">
        <ele>1655.9999708224</ele>
        <time>2019-06-23T14:26:31Z</time>
      </trkpt>
      <trkpt lat="44.27757" lon="6.88454">
        <ele>1656.2220625762</ele>
        <time>2019-06-23T14:26:33Z</time>
      </trkpt>
      <trkpt lat="44.27758" lon="6.88451">
        <ele>1655.8367501515</ele>
        <time>2019-06-23T14:26:35Z</time>
      </trkpt>
      <trkpt lat="44.27759" lon="6.88449">
        <ele>1655.7037700646</ele>
        <time>2019-06-23T14:26:36Z</time>
      </trkpt>
      <trkpt lat="44.27761" lon="6.88446">
        <ele>1655.8989606753</ele>
        <time>2019-06-23T14:26:38Z</time>
      </trkpt>
      <trkpt lat="44.27763" lon="6.88444">
        <ele>1656.0395305172</ele>
        <time>2019-06-23T14:26:40Z</time>
      </trkpt>
      <trkpt lat="44.27765" lon="6.88442">
        <ele>1656.2983255428</ele>
        <time>2019-06-23T14:26:42Z</time>
      </trkpt>
      <trkpt lat="44.27766" lon="6.8844">
        <ele>1656.5334412339</ele>
        <time>2019-06-23T14:26:44Z</time>
      </trkpt>
      <trkpt lat="44.27767" lon="6.88438">
        <ele>1656.5748898042</ele>
        <time>2019-06-23T14:26:45Z</time>
      </trkpt>
      <trkpt lat="44.27769" lon="6.88435">
        <ele>1656.8161895637</ele>
        <time>2019-06-23T14:26:46Z</time>
      </trkpt>
      <trkpt lat="44.2777" lon="6.88432">
        <ele>1657.0074139458</ele>
        <time>2019-06-23T14:26:48Z</time>
      </trkpt>
      <trkpt lat="44.27772" lon="6.8843">
        <ele>1657.1024869258</ele>
        <time>2019-06-23T14:26:51Z</time>
      </trkpt>
      <trkpt lat="44.27772" lon="6.88427">
        <ele>1656.8554683571</ele>
        <time>2019-06-23T14:26:53Z</time>
      </trkpt>
      <trkpt lat="44.27772" lon="6.88425">
        <ele>1656.6098349147</ele>
        <time>2019-06-23T14:26:55Z</time>
      </trkpt>
      <trkpt lat="44.27772" lon="6.88421">
        <ele>1656.3697377972</ele>
        <time>2019-06-23T14:26:57Z</time>
      </trkpt>
      <trkpt lat="44.27774" lon="6.88418">
        <ele>1655.9674418561</ele>
        <time>2019-06-23T14:26:59Z</time>
      </trkpt>
      <trkpt lat="44.27775" lon="6.88415">
        <ele>1655.4763284885</ele>
        <time>2019-06-23T14:27:01Z</time>
      </trkpt>
      <trkpt lat="44.27777" lon="6.88413">
        <ele>1654.7683474876</ele>
        <time>2019-06-23T14:27:03Z</time>
      </trkpt>
      <trkpt lat="44.27778" lon="6.8841">
        <ele>1654.1900778098</ele>
        <time>2019-06-23T14:27:05Z</time>
      </trkpt>
      <trkpt lat="44.2778" lon="6.88408">
        <ele>1653.4753669948</ele>
        <time>2019-06-23T14:27:08Z</time>
      </trkpt>
      <trkpt lat="44.27782" lon="6.88406">
        <ele>1653.0134228125</ele>
        <time>2019-06-23T14:27:11Z</time>
      </trkpt>
      <trkpt lat="44.27784" lon="6.88403">
        <ele>1652.36725458</ele>
        <time>2019-06-23T14:27:14Z</time>
      </trkpt>
      <trkpt lat="44.27785" lon="6.88401">
        <ele>1652.0144939419</ele>
        <time>2019-06-23T14:27:16Z</time>
      </trkpt>
      <trkpt lat="44.27788" lon="6.88399">
        <ele>1651.9050264725</ele>
        <time>2019-06-23T14:27:18Z</time>
      </trkpt>
      <trkpt lat="44.2779" lon="6.88397">
        <ele>1651.9625602196</ele>
        <time>2019-06-23T14:27:20Z</time>
      </trkpt>
      <trkpt lat="44.27793" lon="6.88396">
        <ele>1651.8380913287</ele>
        <time>2019-06-23T14:27:22Z</time>
      </trkpt>
      <trkpt lat="44.27796" lon="6.88393">
        <ele>1651.9042362642</ele>
        <time>2019-06-23T14:27:24Z</time>
      </trkpt>
      <trkpt lat="44.27798" lon="6.88391">
        <ele>1652.1746010011</ele>
        <time>2019-06-23T14:27:25Z</time>
      </trkpt>
      <trkpt lat="44.27799" lon="6.88389">
        <ele>1652.5210051547</ele>
        <time>2019-06-23T14:27:26Z</time>
      </trkpt>
      <trkpt lat="44.27801" lon="6.88387">
        <ele>1652.8117923244</ele>
        <time>2019-06-23T14:27:27Z</time>
      </trkpt>
      <trkpt lat="44.27802" lon="6.88385">
        <ele>1652.9336282987</ele>
        <time>2019-06-23T14:27:28Z</time>
      </trkpt>
      <trkpt lat="44.27804" lon="6.88383">
        <ele>1652.9194171711</ele>
        <time>2019-06-23T14:27:30Z</time>
      </trkpt>
      <trkpt lat="44.27804" lon="6.88379">
        <ele>1652.953007415</ele>
        <time>2019-06-23T14:27:32Z</time>
      </trkpt>
      <trkpt lat="44.27804" lon="6.88377">
        <ele>1652.9372677815</ele>
        <time>2019-06-23T14:27:34Z</time>
      </trkpt>
      <trkpt lat="44.27804" lon="6.88373">
        <ele>1653.2463122506</ele>
        <time>2019-06-23T14:27:36Z</time>
      </trkpt>
      <trkpt lat="44.27803" lon="6.8837">
        <ele>1653.0988163973</ele>
        <time>2019-06-23T14:27:38Z</time>
      </trkpt>
      <trkpt lat="44.27803" lon="6.88367">
        <ele>1652.5603876997</ele>
        <time>2019-06-23T14:27:40Z</time>
      </trkpt>
      <trkpt lat="44.27803" lon="6.88363">
        <ele>1652.0994354478</ele>
        <time>2019-06-23T14:27:42Z</time>
      </trkpt>
      <trkpt lat="44.27801" lon="6.88361">
        <ele>1651.2413363656</ele>
        <time>2019-06-23T14:27:44Z</time>
      </trkpt>
      <trkpt lat="44.278" lon="6.88358">
        <ele>1650.3179193224</ele>
        <time>2019-06-23T14:27:46Z</time>
      </trkpt>
      <trkpt lat="44.27799" lon="6.88355">
        <ele>1649.5143469705</ele>
        <time>2019-06-23T14:27:48Z</time>
      </trkpt>
      <trkpt lat="44.27798" lon="6.88351">
        <ele>1648.6554998973</ele>
        <time>2019-06-23T14:27:50Z</time>
      </trkpt>
      <trkpt lat="44.27797" lon="6.88349">
        <ele>1647.6271636339</ele>
        <time>2019-06-23T14:27:52Z</time>
      </trkpt>
      <trkpt lat="44.27796" lon="6.88346">
        <ele>1646.3523406286</ele>
        <time>2019-06-23T14:27:54Z</time>
      </trkpt>
      <trkpt lat="44.27796" lon="6.88342">
        <ele>1646.1778300244</ele>
        <time>2019-06-23T14:27:56Z</time>
      </trkpt>
      <trkpt lat="44.27795" lon="6.8834">
        <ele>1646.2145375151</ele>
        <time>2019-06-23T14:27:58Z</time>
      </trkpt>
      <trkpt lat="44.27796" lon="6.88336">
        <ele>1646.8138247169</ele>
        <time>2019-06-23T14:28:00Z</time>
      </trkpt>
      <trkpt lat="44.27796" lon="6.88333">
        <ele>1647.5276679219</ele>
        <time>2019-06-23T14:28:02Z</time>
      </trkpt>
      <trkpt lat="44.27797" lon="6.88331">
        <ele>1648.1008560174</ele>
        <time>2019-06-23T14:28:04Z</time>
      </trkpt>
      <trkpt lat="44.27797" lon="6.88328">
        <ele>1648.3512622463</ele>
        <time>2019-06-23T14:28:06Z</time>
      </trkpt>
      <trkpt lat="44.27798" lon="6.88324">
        <ele>1648.5141911964</ele>
        <time>2019-06-23T14:28:08Z</time>
      </trkpt>
      <trkpt lat="44.278" lon="6.8832">
        <ele>1648.4974988811</ele>
        <time>2019-06-23T14:28:10Z</time>
      </trkpt>
      <trkpt lat="44.27801" lon="6.88316">
        <ele>1648.6830812147</ele>
        <time>2019-06-23T14:28:12Z</time>
      </trkpt>
      <trkpt lat="44.27803" lon="6.88313">
        <ele>1648.9227940654</ele>
        <time>2019-06-23T14:28:14Z</time>
      </trkpt>
      <trkpt lat="44.27804" lon="6.88309">
        <ele>1648.9493782475</ele>
        <time>2019-06-23T14:28:16Z</time>
      </trkpt>
      <trkpt lat="44.27804" lon="6.88306">
        <ele>1648.9160488669</ele>
        <time>2019-06-23T14:28:18Z</time>
      </trkpt>
      <trkpt lat="44.27805" lon="6.88303">
        <ele>1648.5940349883</ele>
        <time>2019-06-23T14:28:20Z</time>
      </trkpt>
      <trkpt lat="44.27806" lon="6.88299">
        <ele>1648.5544878902</ele>
        <time>2019-06-23T14:28:22Z</time>
      </trkpt>
      <trkpt lat="44.27806" lon="6.88296">
        <ele>1648.1970062722</ele>
        <time>2019-06-23T14:28:24Z</time>
      </trkpt>
      <trkpt lat="44.27806" lon="6.88293">
        <ele>1647.910757805</ele>
        <time>2019-06-23T14:28:26Z</time>
      </trkpt>
      <trkpt lat="44.27807" lon="6.88289">
        <ele>1647.8247814448</ele>
        <time>2019-06-23T14:28:28Z</time>
      </trkpt>
      <trkpt lat="44.27807" lon="6.88285">
        <ele>1647.6246752717</ele>
        <time>2019-06-23T14:28:30Z</time>
      </trkpt>
      <trkpt lat="44.27806" lon="6.88281">
        <ele>1647.3653766566</ele>
        <time>2019-06-23T14:28:33Z</time>
      </trkpt>
      <trkpt lat="44.27804" lon="6.88279">
        <ele>1647.6607389769</ele>
        <time>2019-06-23T14:28:35Z</time>
      </trkpt>
      <trkpt lat="44.27801" lon="6.88276">
        <ele>1646.9720974911</ele>
        <time>2019-06-23T14:28:37Z</time>
      </trkpt>
      <trkpt lat="44.278" lon="6.88274">
        <ele>1646.512079611</ele>
        <time>2019-06-23T14:28:38Z</time>
      </trkpt>
      <trkpt lat="44.27799" lon="6.88272">
        <ele>1645.648584951</ele>
        <time>2019-06-23T14:28:41Z</time>
      </trkpt>
      <trkpt lat="44.27797" lon="6.88269">
        <ele>1645.0778608372</ele>
        <time>2019-06-23T14:28:43Z</time>
      </trkpt>
      <trkpt lat="44.27796" lon="6.88267">
        <ele>1644.2411784794</ele>
        <time>2019-06-23T14:28:45Z</time>
      </trkpt>
      <trkpt lat="44.27794" lon="6.88265">
        <ele>1643.2613989769</ele>
        <time>2019-06-23T14:28:47Z</time>
      </trkpt>
      <trkpt lat="44.27793" lon="6.88262">
        <ele>1642.2467303583</ele>
        <time>2019-06-23T14:28:49Z</time>
      </trkpt>
      <trkpt lat="44.27791" lon="6.8826">
        <ele>1641.3966198573</ele>
        <time>2019-06-23T14:28:51Z</time>
      </trkpt>
      <trkpt lat="44.27789" lon="6.88258">
        <ele>1640.2571103605</ele>
        <time>2019-06-23T14:28:53Z</time>
      </trkpt>
      <trkpt lat="44.27787" lon="6.88255">
        <ele>1639.15096017</ele>
        <time>2019-06-23T14:28:55Z</time>
      </trkpt>
      <trkpt lat="44.27785" lon="6.88254">
        <ele>1638.2775314535</ele>
        <time>2019-06-23T14:28:57Z</time>
      </trkpt>
      <trkpt lat="44.27784" lon="6.88251">
        <ele>1637.4176760291</ele>
        <time>2019-06-23T14:29:00Z</time>
      </trkpt>
      <trkpt lat="44.27783" lon="6.88248">
        <ele>1636.2239649926</ele>
        <time>2019-06-23T14:29:02Z</time>
      </trkpt>
      <trkpt lat="44.27782" lon="6.88244">
        <ele>1635.0348160676</ele>
        <time>2019-06-23T14:29:04Z</time>
      </trkpt>
      <trkpt lat="44.27782" lon="6.8824">
        <ele>1634.6315290231</ele>
        <time>2019-06-23T14:29:06Z</time>
      </trkpt>
      <trkpt lat="44.27782" lon="6.88237">
        <ele>1634.68579396</ele>
        <time>2019-06-23T14:29:08Z</time>
      </trkpt>
      <trkpt lat="44.27782" lon="6.88233">
        <ele>1634.8507388064</ele>
        <time>2019-06-23T14:29:10Z</time>
      </trkpt>
      <trkpt lat="44.27782" lon="6.8823">
        <ele>1634.8795446703</ele>
        <time>2019-06-23T14:29:11Z</time>
      </trkpt>
      <trkpt lat="44.27783" lon="6.88227">
        <ele>1634.8444061207</ele>
        <time>2019-06-23T14:29:13Z</time>
      </trkpt>
      <trkpt lat="44.27783" lon="6.88223">
        <ele>1635.010415284</ele>
        <time>2019-06-23T14:29:15Z</time>
      </trkpt>
      <trkpt lat="44.27784" lon="6.88219">
        <ele>1635.3955116587</ele>
        <time>2019-06-23T14:29:17Z</time>
      </trkpt>
      <trkpt lat="44.27785" lon="6.88216">
        <ele>1635.5443072945</ele>
        <time>2019-06-23T14:29:19Z</time>
      </trkpt>
      <trkpt lat="44.27786" lon="6.88213">
        <ele>1635.7157753429</ele>
        <time>2019-06-23T14:29:21Z</time>
      </trkpt>
      <trkpt lat="44.27786" lon="6.88209">
        <ele>1635.5407299444</ele>
        <time>2019-06-23T14:29:23Z</time>
      </trkpt>
      <trkpt lat="44.27788" lon="6.88206">
        <ele>1635.0332924962</ele>
        <time>2019-06-23T14:29:25Z</time>
      </trkpt>
      <trkpt lat="44.2779" lon="6.88204">
        <ele>1634.5350651095</ele>
        <time>2019-06-23T14:29:27Z</time>
      </trkpt>
      <trkpt lat="44.2779" lon="6.88201">
        <ele>1634.1844800648</ele>
        <time>2019-06-23T14:29:30Z</time>
      </trkpt>
      <trkpt lat="44.27791" lon="6.88197">
        <ele>1633.9679678796</ele>
        <time>2019-06-23T14:29:32Z</time>
      </trkpt>
      <trkpt lat="44.27791" lon="6.88192">
        <ele>1633.5824307605</ele>
        <time>2019-06-23T14:29:34Z</time>
      </trkpt>
      <trkpt lat="44.27791" lon="6.8819">
        <ele>1633.1780032611</ele>
        <time>2019-06-23T14:29:35Z</time>
      </trkpt>
      <trkpt lat="44.27792" lon="6.88187">
        <ele>1633.0201306079</ele>
        <time>2019-06-23T14:29:36Z</time>
      </trkpt>
      <trkpt lat="44.27792" lon="6.88184">
        <ele>1632.6945724044</ele>
        <time>2019-06-23T14:29:39Z</time>
      </trkpt>
      <trkpt lat="44.27792" lon="6.8818">
        <ele>1632.5859615303</ele>
        <time>2019-06-23T14:29:41Z</time>
      </trkpt>
      <trkpt lat="44.27792" lon="6.88177">
        <ele>1632.3454509392</ele>
        <time>2019-06-23T14:29:43Z</time>
      </trkpt>
      <trkpt lat="44.27793" lon="6.88173">
        <ele>1632.6095859924</ele>
        <time>2019-06-23T14:29:45Z</time>
      </trkpt>
      <trkpt lat="44.27794" lon="6.8817">
        <ele>1633.2218279478</ele>
        <time>2019-06-23T14:29:47Z</time>
      </trkpt>
      <trkpt lat="44.27796" lon="6.88168">
        <ele>1633.6325293711</ele>
        <time>2019-06-23T14:29:49Z</time>
      </trkpt>
      <trkpt lat="44.27797" lon="6.88166">
        <ele>1633.7104645167</ele>
        <time>2019-06-23T14:29:51Z</time>
      </trkpt>
      <trkpt lat="44.27799" lon="6.88165">
        <ele>1633.3822326823</ele>
        <time>2019-06-23T14:29:53Z</time>
      </trkpt>
      <trkpt lat="44.27801" lon="6.88161">
        <ele>1633.0457701246</ele>
        <time>2019-06-23T14:29:55Z</time>
      </trkpt>
      <trkpt lat="44.27802" lon="6.8816">
        <ele>1632.2169223757</ele>
        <time>2019-06-23T14:29:57Z</time>
      </trkpt>
      <trkpt lat="44.27804" lon="6.88157">
        <ele>1631.0097611329</ele>
        <time>2019-06-23T14:29:59Z</time>
      </trkpt>
      <trkpt lat="44.27805" lon="6.88154">
        <ele>1630.0020794907</ele>
        <time>2019-06-23T14:30:01Z</time>
      </trkpt>
      <trkpt lat="44.27806" lon="6.8815">
        <ele>1629.1533685229</ele>
        <time>2019-06-23T14:30:03Z</time>
      </trkpt>
      <trkpt lat="44.27807" lon="6.88146">
        <ele>1628.5549084401</ele>
        <time>2019-06-23T14:30:05Z</time>
      </trkpt>
      <trkpt lat="44.27809" lon="6.88145">
        <ele>1628.3058533783</ele>
        <time>2019-06-23T14:30:07Z</time>
      </trkpt>
      <trkpt lat="44.27811" lon="6.88142">
        <ele>1628.4825096361</ele>
        <time>2019-06-23T14:30:09Z</time>
      </trkpt>
      <trkpt lat="44.27814" lon="6.88142">
        <ele>1628.9898904461</ele>
        <time>2019-06-23T14:30:11Z</time>
      </trkpt>
      <trkpt lat="44.27817" lon="6.88143">
        <ele>1629.3881247756</ele>
        <time>2019-06-23T14:30:13Z</time>
      </trkpt>
      <trkpt lat="44.2782" lon="6.88146">
        <ele>1629.6595071067</ele>
        <time>2019-06-23T14:30:15Z</time>
      </trkpt>
      <trkpt lat="44.27821" lon="6.88148">
        <ele>1629.6122799491</ele>
        <time>2019-06-23T14:30:16Z</time>
      </trkpt>
      <trkpt lat="44.27821" lon="6.88151">
        <ele>1629.5340835287</ele>
        <time>2019-06-23T14:30:18Z</time>
      </trkpt>
      <trkpt lat="44.2782" lon="6.88155">
        <ele>1630.1333298979</ele>
        <time>2019-06-23T14:30:20Z</time>
      </trkpt>
      <trkpt lat="44.27818" lon="6.88158">
        <ele>1630.1048544763</ele>
        <time>2019-06-23T14:30:22Z</time>
      </trkpt>
      <trkpt lat="44.27816" lon="6.88161">
        <ele>1630.2378510435</ele>
        <time>2019-06-23T14:30:23Z</time>
      </trkpt>
      <trkpt lat="44.27815" lon="6.88164">
        <ele>1630.5930445673</ele>
        <time>2019-06-23T14:30:24Z</time>
      </trkpt>
      <trkpt lat="44.27814" lon="6.88166">
        <ele>1630.9220306149</ele>
        <time>2019-06-23T14:30:25Z</time>
      </trkpt>
      <trkpt lat="44.27813" lon="6.88169">
        <ele>1631.3043844001</ele>
        <time>2019-06-23T14:30:26Z</time>
      </trkpt>
      <trkpt lat="44.27812" lon="6.88172">
        <ele>1631.7587040941</ele>
        <time>2019-06-23T14:30:27Z</time>
      </trkpt>
      <trkpt lat="44.27811" lon="6.88174">
        <ele>1632.2116873414</ele>
        <time>2019-06-23T14:30:28Z</time>
      </trkpt>
      <trkpt lat="44.27808" lon="6.88177">
        <ele>1632.969556926</ele>
        <time>2019-06-23T14:30:30Z</time>
      </trkpt>
      <trkpt lat="44.27807" lon="6.88181">
        <ele>1632.9177334601</ele>
        <time>2019-06-23T14:30:32Z</time>
      </trkpt>
      <trkpt lat="44.27805" lon="6.88185">
        <ele>1632.9059008632</ele>
        <time>2019-06-23T14:30:34Z</time>
      </trkpt>
      <trkpt lat="44.27804" lon="6.88188">
        <ele>1633.1734941276</ele>
        <time>2019-06-23T14:30:36Z</time>
      </trkpt>
      <trkpt lat="44.27804" lon="6.88192">
        <ele>1633.023324113</ele>
        <time>2019-06-23T14:30:40Z</time>
      </trkpt>
      <trkpt lat="44.27803" lon="6.88196">
        <ele>1633.2400977131</ele>
        <time>2019-06-23T14:30:42Z</time>
      </trkpt>
      <trkpt lat="44.27802" lon="6.882">
        <ele>1633.5086807269</ele>
        <time>2019-06-23T14:30:44Z</time>
      </trkpt>
      <trkpt lat="44.27801" lon="6.88204">
        <ele>1633.7209125096</ele>
        <time>2019-06-23T14:30:46Z</time>
      </trkpt>
      <trkpt lat="44.27801" lon="6.88207">
        <ele>1633.6354941959</ele>
        <time>2019-06-23T14:30:47Z</time>
      </trkpt>
      <trkpt lat="44.27802" lon="6.8821">
        <ele>1633.3344892636</ele>
        <time>2019-06-23T14:30:48Z</time>
      </trkpt>
      <trkpt lat="44.27803" lon="6.88213">
        <ele>1633.0575089135</ele>
        <time>2019-06-23T14:30:50Z</time>
      </trkpt>
      <trkpt lat="44.27805" lon="6.88215">
        <ele>1632.5569229276</ele>
        <time>2019-06-23T14:30:52Z</time>
      </trkpt>
      <trkpt lat="44.27807" lon="6.88215">
        <ele>1631.8284059939</ele>
        <time>2019-06-23T14:30:54Z</time>
      </trkpt>
      <trkpt lat="44.27809" lon="6.88211">
        <ele>1630.9094086054</ele>
        <time>2019-06-23T14:30:57Z</time>
      </trkpt>
      <trkpt lat="44.27811" lon="6.88208">
        <ele>1630.6759119278</ele>
        <time>2019-06-23T14:30:58Z</time>
      </trkpt>
      <trkpt lat="44.27812" lon="6.88205">
        <ele>1630.0787324039</ele>
        <time>2019-06-23T14:31:00Z</time>
      </trkpt>
      <trkpt lat="44.27813" lon="6.882">
        <ele>1629.3256379775</ele>
        <time>2019-06-23T14:31:02Z</time>
      </trkpt>
      <trkpt lat="44.27813" lon="6.88196">
        <ele>1628.6919627137</ele>
        <time>2019-06-23T14:31:04Z</time>
      </trkpt>
      <trkpt lat="44.27814" lon="6.88192">
        <ele>1628.3366016242</ele>
        <time>2019-06-23T14:31:06Z</time>
      </trkpt>
      <trkpt lat="44.27814" lon="6.88189">
        <ele>1628.0308796913</ele>
        <time>2019-06-23T14:31:07Z</time>
      </trkpt>
      <trkpt lat="44.27815" lon="6.88184">
        <ele>1627.0498916199</ele>
        <time>2019-06-23T14:31:09Z</time>
      </trkpt>
      <trkpt lat="44.27816" lon="6.88182">
        <ele>1625.023942193</ele>
        <time>2019-06-23T14:31:12Z</time>
      </trkpt>
      <trkpt lat="44.27818" lon="6.8818">
        <ele>1623.8233299801</ele>
        <time>2019-06-23T14:31:14Z</time>
      </trkpt>
      <trkpt lat="44.2782" lon="6.88177">
        <ele>1622.7261808572</ele>
        <time>2019-06-23T14:31:16Z</time>
      </trkpt>
      <trkpt lat="44.27823" lon="6.88175">
        <ele>1621.5561103262</ele>
        <time>2019-06-23T14:31:18Z</time>
      </trkpt>
      <trkpt lat="44.27825" lon="6.88174">
        <ele>1620.591005316</ele>
        <time>2019-06-23T14:31:20Z</time>
      </trkpt>
      <trkpt lat="44.27827" lon="6.88172">
        <ele>1619.4169323008</ele>
        <time>2019-06-23T14:31:22Z</time>
      </trkpt>
      <trkpt lat="44.27828" lon="6.8817">
        <ele>1618.7331967042</ele>
        <time>2019-06-23T14:31:24Z</time>
      </trkpt>
      <trkpt lat="44.27829" lon="6.88168">
        <ele>1617.8124456877</ele>
        <time>2019-06-23T14:31:26Z</time>
      </trkpt>
      <trkpt lat="44.2783" lon="6.88165">
        <ele>1616.9086470678</ele>
        <time>2019-06-23T14:31:28Z</time>
      </trkpt>
      <trkpt lat="44.27832" lon="6.88162">
        <ele>1616.0309707179</ele>
        <time>2019-06-23T14:31:30Z</time>
      </trkpt>
      <trkpt lat="44.27833" lon="6.88158">
        <ele>1615.038121161</ele>
        <time>2019-06-23T14:31:32Z</time>
      </trkpt>
      <trkpt lat="44.27835" lon="6.88156">
        <ele>1614.2382429887</ele>
        <time>2019-06-23T14:31:34Z</time>
      </trkpt>
      <trkpt lat="44.27836" lon="6.88152">
        <ele>1614.7853784456</ele>
        <time>2019-06-23T14:31:37Z</time>
      </trkpt>
      <trkpt lat="44.27837" lon="6.8815">
        <ele>1614.95607667</ele>
        <time>2019-06-23T14:31:38Z</time>
      </trkpt>
      <trkpt lat="44.27838" lon="6.88147">
        <ele>1614.8235688587</ele>
        <time>2019-06-23T14:31:40Z</time>
      </trkpt>
      <trkpt lat="44.27838" lon="6.88143">
        <ele>1614.7708300355</ele>
        <time>2019-06-23T14:31:42Z</time>
      </trkpt>
      <trkpt lat="44.27838" lon="6.88141">
        <ele>1614.6441402013</ele>
        <time>2019-06-23T14:31:43Z</time>
      </trkpt>
      <trkpt lat="44.27839" lon="6.88138">
        <ele>1614.193656293</ele>
        <time>2019-06-23T14:31:45Z</time>
      </trkpt>
      <trkpt lat="44.2784" lon="6.88133">
        <ele>1613.8566744744</ele>
        <time>2019-06-23T14:31:47Z</time>
      </trkpt>
      <trkpt lat="44.27841" lon="6.88131">
        <ele>1613.4278925577</ele>
        <time>2019-06-23T14:31:49Z</time>
      </trkpt>
      <trkpt lat="44.27842" lon="6.88129">
        <ele>1612.9404514713</ele>
        <time>2019-06-23T14:31:51Z</time>
      </trkpt>
      <trkpt lat="44.27844" lon="6.88126">
        <ele>1613.2304869542</ele>
        <time>2019-06-23T14:31:54Z</time>
      </trkpt>
      <trkpt lat="44.27845" lon="6.88123">
        <ele>1613.2479548217</ele>
        <time>2019-06-23T14:31:56Z</time>
      </trkpt>
      <trkpt lat="44.27846" lon="6.8812">
        <ele>1612.6549004576</ele>
        <time>2019-06-23T14:31:58Z</time>
      </trkpt>
      <trkpt lat="44.27847" lon="6.88116">
        <ele>1612.5391639869</ele>
        <time>2019-06-23T14:32:00Z</time>
      </trkpt>
      <trkpt lat="44.27849" lon="6.88113">
        <ele>1611.7184100666</ele>
        <time>2019-06-23T14:32:03Z</time>
      </trkpt>
      <trkpt lat="44.2785" lon="6.8811">
        <ele>1610.5774955502</ele>
        <time>2019-06-23T14:32:06Z</time>
      </trkpt>
      <trkpt lat="44.27851" lon="6.88107">
        <ele>1610.0482993642</ele>
        <time>2019-06-23T14:32:08Z</time>
      </trkpt>
      <trkpt lat="44.27852" lon="6.88105">
        <ele>1609.3346019141</ele>
        <time>2019-06-23T14:32:10Z</time>
      </trkpt>
      <trkpt lat="44.27854" lon="6.88103">
        <ele>1608.13129838</ele>
        <time>2019-06-23T14:32:12Z</time>
      </trkpt>
      <trkpt lat="44.27856" lon="6.88101">
        <ele>1606.8803950972</ele>
        <time>2019-06-23T14:32:14Z</time>
      </trkpt>
      <trkpt lat="44.27857" lon="6.88098">
        <ele>1605.4953780257</ele>
        <time>2019-06-23T14:32:16Z</time>
      </trkpt>
      <trkpt lat="44.27858" lon="6.88093">
        <ele>1604.2425142745</ele>
        <time>2019-06-23T14:32:18Z</time>
      </trkpt>
      <trkpt lat="44.27859" lon="6.8809">
        <ele>1604.0230268886</ele>
        <time>2019-06-23T14:32:19Z</time>
      </trkpt>
      <trkpt lat="44.27858" lon="6.88086">
        <ele>1604.1650740273</ele>
        <time>2019-06-23T14:32:21Z</time>
      </trkpt>
      <trkpt lat="44.27858" lon="6.88081">
        <ele>1604.428938873</ele>
        <time>2019-06-23T14:32:23Z</time>
      </trkpt>
      <trkpt lat="44.27858" lon="6.88078">
        <ele>1604.6451909702</ele>
        <time>2019-06-23T14:32:25Z</time>
      </trkpt>
      <trkpt lat="44.27857" lon="6.88074">
        <ele>1604.6708959232</ele>
        <time>2019-06-23T14:32:28Z</time>
      </trkpt>
      <trkpt lat="44.27859" lon="6.88073">
        <ele>1604.0121349373</ele>
        <time>2019-06-23T14:32:30Z</time>
      </trkpt>
      <trkpt lat="44.27862" lon="6.88072">
        <ele>1603.4250010314</ele>
        <time>2019-06-23T14:32:32Z</time>
      </trkpt>
      <trkpt lat="44.27865" lon="6.88071">
        <ele>1602.8535592302</ele>
        <time>2019-06-23T14:32:34Z</time>
      </trkpt>
      <trkpt lat="44.27867" lon="6.8807">
        <ele>1602.8402208801</ele>
        <time>2019-06-23T14:32:36Z</time>
      </trkpt>
      <trkpt lat="44.27868" lon="6.88068">
        <ele>1602.8530990075</ele>
        <time>2019-06-23T14:32:38Z</time>
      </trkpt>
      <trkpt lat="44.2787" lon="6.88067">
        <ele>1602.7122189759</ele>
        <time>2019-06-23T14:32:40Z</time>
      </trkpt>
      <trkpt lat="44.27873" lon="6.88067">
        <ele>1602.8743130044</ele>
        <time>2019-06-23T14:32:42Z</time>
      </trkpt>
      <trkpt lat="44.27875" lon="6.88066">
        <ele>1603.0629156412</ele>
        <time>2019-06-23T14:32:44Z</time>
      </trkpt>
      <trkpt lat="44.27877" lon="6.88065">
        <ele>1603.0168759966</ele>
        <time>2019-06-23T14:32:46Z</time>
      </trkpt>
      <trkpt lat="44.27879" lon="6.88064">
        <ele>1603.0272152656</ele>
        <time>2019-06-23T14:32:49Z</time>
      </trkpt>
      <trkpt lat="44.27882" lon="6.88064">
        <ele>1602.8994072809</ele>
        <time>2019-06-23T14:32:51Z</time>
      </trkpt>
      <trkpt lat="44.27885" lon="6.88064">
        <ele>1602.907630039</ele>
        <time>2019-06-23T14:32:53Z</time>
      </trkpt>
      <trkpt lat="44.27888" lon="6.88063">
        <ele>1602.852788286</ele>
        <time>2019-06-23T14:32:55Z</time>
      </trkpt>
      <trkpt lat="44.27891" lon="6.88063">
        <ele>1602.8550760083</ele>
        <time>2019-06-23T14:32:57Z</time>
      </trkpt>
      <trkpt lat="44.27893" lon="6.88062">
        <ele>1603.0561257912</ele>
        <time>2019-06-23T14:32:58Z</time>
      </trkpt>
      <trkpt lat="44.27896" lon="6.88062">
        <ele>1603.3389762977</ele>
        <time>2019-06-23T14:33:00Z</time>
      </trkpt>
      <trkpt lat="44.27899" lon="6.8806">
        <ele>1603.6662003456</ele>
        <time>2019-06-23T14:33:02Z</time>
      </trkpt>
      <trkpt lat="44.27901" lon="6.88059">
        <ele>1604.2433056428</ele>
        <time>2019-06-23T14:33:04Z</time>
      </trkpt>
      <trkpt lat="44.27902" lon="6.88057">
        <ele>1604.7158748153</ele>
        <time>2019-06-23T14:33:06Z</time>
      </trkpt>
      <trkpt lat="44.27905" lon="6.88054">
        <ele>1604.8148087662</ele>
        <time>2019-06-23T14:33:08Z</time>
      </trkpt>
      <trkpt lat="44.27908" lon="6.88051">
        <ele>1604.5489133068</ele>
        <time>2019-06-23T14:33:10Z</time>
      </trkpt>
      <trkpt lat="44.27909" lon="6.88049">
        <ele>1604.4521705168</ele>
        <time>2019-06-23T14:33:12Z</time>
      </trkpt>
      <trkpt lat="44.27911" lon="6.88047">
        <ele>1604.5179312084</ele>
        <time>2019-06-23T14:33:14Z</time>
      </trkpt>
      <trkpt lat="44.27914" lon="6.88045">
        <ele>1604.7827818434</ele>
        <time>2019-06-23T14:33:17Z</time>
      </trkpt>
      <trkpt lat="44.27915" lon="6.88044">
        <ele>1605.015382533</ele>
        <time>2019-06-23T14:33:18Z</time>
      </trkpt>
      <trkpt lat="44.27917" lon="6.88042">
        <ele>1605.0825597893</ele>
        <time>2019-06-23T14:33:19Z</time>
      </trkpt>
      <trkpt lat="44.27918" lon="6.88039">
        <ele>1604.8257778999</ele>
        <time>2019-06-23T14:33:21Z</time>
      </trkpt>
      <trkpt lat="44.27919" lon="6.88036">
        <ele>1604.207109368</ele>
        <time>2019-06-23T14:33:23Z</time>
      </trkpt>
      <trkpt lat="44.2792" lon="6.88033">
        <ele>1603.5763877362</ele>
        <time>2019-06-23T14:33:25Z</time>
      </trkpt>
      <trkpt lat="44.27921" lon="6.8803">
        <ele>1602.6418079686</ele>
        <time>2019-06-23T14:33:27Z</time>
      </trkpt>
      <trkpt lat="44.27922" lon="6.88027">
        <ele>1601.1946176038</ele>
        <time>2019-06-23T14:33:30Z</time>
      </trkpt>
      <trkpt lat="44.27922" lon="6.88025">
        <ele>1600.8959284465</ele>
        <time>2019-06-23T14:33:32Z</time>
      </trkpt>
      <trkpt lat="44.27923" lon="6.88022">
        <ele>1600.7217731152</ele>
        <time>2019-06-23T14:33:34Z</time>
      </trkpt>
      <trkpt lat="44.27925" lon="6.8802">
        <ele>1600.1065896418</ele>
        <time>2019-06-23T14:33:37Z</time>
      </trkpt>
      <trkpt lat="44.27926" lon="6.88018">
        <ele>1599.9030540281</ele>
        <time>2019-06-23T14:33:39Z</time>
      </trkpt>
      <trkpt lat="44.27928" lon="6.88016">
        <ele>1599.1928818161</ele>
        <time>2019-06-23T14:33:44Z</time>
      </trkpt>
      <trkpt lat="44.2793" lon="6.88013">
        <ele>1598.3707068113</ele>
        <time>2019-06-23T14:33:46Z</time>
      </trkpt>
      <trkpt lat="44.27931" lon="6.88011">
        <ele>1596.7453538981</ele>
        <time>2019-06-23T14:33:48Z</time>
      </trkpt>
      <trkpt lat="44.27933" lon="6.88008">
        <ele>1595.0196452893</ele>
        <time>2019-06-23T14:33:50Z</time>
      </trkpt>
      <trkpt lat="44.27935" lon="6.88007">
        <ele>1593.4602813338</ele>
        <time>2019-06-23T14:33:52Z</time>
      </trkpt>
      <trkpt lat="44.27937" lon="6.88005">
        <ele>1591.8793155845</ele>
        <time>2019-06-23T14:33:54Z</time>
      </trkpt>
      <trkpt lat="44.27939" lon="6.88002">
        <ele>1591.1866290962</ele>
        <time>2019-06-23T14:33:55Z</time>
      </trkpt>
      <trkpt lat="44.2794" lon="6.88">
        <ele>1590.4244320338</ele>
        <time>2019-06-23T14:33:56Z</time>
      </trkpt>
      <trkpt lat="44.27942" lon="6.87998">
        <ele>1589.1406848762</ele>
        <time>2019-06-23T14:33:58Z</time>
      </trkpt>
      <trkpt lat="44.27944" lon="6.87996">
        <ele>1588.1064437087</ele>
        <time>2019-06-23T14:34:00Z</time>
      </trkpt>
      <trkpt lat="44.27946" lon="6.87994">
        <ele>1587.3506397333</ele>
        <time>2019-06-23T14:34:03Z</time>
      </trkpt>
      <trkpt lat="44.27947" lon="6.87991">
        <ele>1587.3544143957</ele>
        <time>2019-06-23T14:34:05Z</time>
      </trkpt>
      <trkpt lat="44.27949" lon="6.8799">
        <ele>1587.0199914394</ele>
        <time>2019-06-23T14:34:07Z</time>
      </trkpt>
      <trkpt lat="44.27951" lon="6.87987">
        <ele>1586.8148850817</ele>
        <time>2019-06-23T14:34:09Z</time>
      </trkpt>
      <trkpt lat="44.27953" lon="6.87986">
        <ele>1586.7053429417</ele>
        <time>2019-06-23T14:34:11Z</time>
      </trkpt>
      <trkpt lat="44.27956" lon="6.87983">
        <ele>1586.4814393723</ele>
        <time>2019-06-23T14:34:13Z</time>
      </trkpt>
      <trkpt lat="44.27958" lon="6.8798">
        <ele>1585.6569708471</ele>
        <time>2019-06-23T14:34:15Z</time>
      </trkpt>
      <trkpt lat="44.2796" lon="6.87978">
        <ele>1584.7736819028</ele>
        <time>2019-06-23T14:34:17Z</time>
      </trkpt>
      <trkpt lat="44.27961" lon="6.87976">
        <ele>1584.5492189198</ele>
        <time>2019-06-23T14:34:18Z</time>
      </trkpt>
      <trkpt lat="44.27963" lon="6.87973">
        <ele>1584.3234906425</ele>
        <time>2019-06-23T14:34:20Z</time>
      </trkpt>
      <trkpt lat="44.27965" lon="6.8797">
        <ele>1584.9310669729</ele>
        <time>2019-06-23T14:34:23Z</time>
      </trkpt>
      <trkpt lat="44.27967" lon="6.87967">
        <ele>1585.1690096532</ele>
        <time>2019-06-23T14:34:25Z</time>
      </trkpt>
      <trkpt lat="44.27968" lon="6.87964">
        <ele>1585.0516719188</ele>
        <time>2019-06-23T14:34:27Z</time>
      </trkpt>
      <trkpt lat="44.27968" lon="6.87961">
        <ele>1584.898921776</ele>
        <time>2019-06-23T14:34:28Z</time>
      </trkpt>
      <trkpt lat="44.27969" lon="6.87958">
        <ele>1583.0694837028</ele>
        <time>2019-06-23T14:34:31Z</time>
      </trkpt>
      <trkpt lat="44.27969" lon="6.87954">
        <ele>1580.7185054631</ele>
        <time>2019-06-23T14:34:34Z</time>
      </trkpt>
      <trkpt lat="44.27971" lon="6.87952">
        <ele>1578.4467933429</ele>
        <time>2019-06-23T14:34:37Z</time>
      </trkpt>
      <trkpt lat="44.27974" lon="6.87951">
        <ele>1576.4842204733</ele>
        <time>2019-06-23T14:34:39Z</time>
      </trkpt>
      <trkpt lat="44.27975" lon="6.87948">
        <ele>1573.4690175136</ele>
        <time>2019-06-23T14:34:43Z</time>
      </trkpt>
      <trkpt lat="44.27976" lon="6.87946">
        <ele>1572.3648539957</ele>
        <time>2019-06-23T14:34:45Z</time>
      </trkpt>
      <trkpt lat="44.27978" lon="6.87943">
        <ele>1571.41242279</ele>
        <time>2019-06-23T14:34:47Z</time>
      </trkpt>
      <trkpt lat="44.2798" lon="6.87942">
        <ele>1570.7039822954</ele>
        <time>2019-06-23T14:34:49Z</time>
      </trkpt>
      <trkpt lat="44.27982" lon="6.8794">
        <ele>1569.823273926</ele>
        <time>2019-06-23T14:34:52Z</time>
      </trkpt>
      <trkpt lat="44.27983" lon="6.87937">
        <ele>1569.6462573726</ele>
        <time>2019-06-23T14:34:54Z</time>
      </trkpt>
      <trkpt lat="44.27984" lon="6.87936">
        <ele>1569.6114627639</ele>
        <time>2019-06-23T14:34:56Z</time>
      </trkpt>
      <trkpt lat="44.27987" lon="6.87935">
        <ele>1569.7922143578</ele>
        <time>2019-06-23T14:34:58Z</time>
      </trkpt>
      <trkpt lat="44.27988" lon="6.87933">
        <ele>1568.9920179486</ele>
        <time>2019-06-23T14:35:00Z</time>
      </trkpt>
      <trkpt lat="44.27992" lon="6.87931">
        <ele>1568.3309258983</ele>
        <time>2019-06-23T14:35:02Z</time>
      </trkpt>
      <trkpt lat="44.27993" lon="6.87931">
        <ele>1568.0124440199</ele>
        <time>2019-06-23T14:35:03Z</time>
      </trkpt>
      <trkpt lat="44.27995" lon="6.8793">
        <ele>1567.6919590947</ele>
        <time>2019-06-23T14:35:04Z</time>
      </trkpt>
      <trkpt lat="44.27998" lon="6.87929">
        <ele>1567.497434979</ele>
        <time>2019-06-23T14:35:06Z</time>
      </trkpt>
      <trkpt lat="44.28" lon="6.87927">
        <ele>1567.5325259828</ele>
        <time>2019-06-23T14:35:07Z</time>
      </trkpt>
      <trkpt lat="44.28001" lon="6.87925">
        <ele>1567.5512774795</ele>
        <time>2019-06-23T14:35:08Z</time>
      </trkpt>
      <trkpt lat="44.28003" lon="6.87922">
        <ele>1567.6401066439</ele>
        <time>2019-06-23T14:35:10Z</time>
      </trkpt>
      <trkpt lat="44.28004" lon="6.87919">
        <ele>1567.3972077895</ele>
        <time>2019-06-23T14:35:12Z</time>
      </trkpt>
      <trkpt lat="44.28006" lon="6.87916">
        <ele>1567.1922666408</ele>
        <time>2019-06-23T14:35:14Z</time>
      </trkpt>
      <trkpt lat="44.28008" lon="6.87914">
        <ele>1566.7863047763</ele>
        <time>2019-06-23T14:35:16Z</time>
      </trkpt>
      <trkpt lat="44.2801" lon="6.87912">
        <ele>1566.8897104567</ele>
        <time>2019-06-23T14:35:17Z</time>
      </trkpt>
      <trkpt lat="44.2801" lon="6.87909">
        <ele>1566.8031170624</ele>
        <time>2019-06-23T14:35:19Z</time>
      </trkpt>
      <trkpt lat="44.2801" lon="6.87906">
        <ele>1566.2347860628</ele>
        <time>2019-06-23T14:35:21Z</time>
      </trkpt>
      <trkpt lat="44.28011" lon="6.87903">
        <ele>1566.1348490397</ele>
        <time>2019-06-23T14:35:23Z</time>
      </trkpt>
      <trkpt lat="44.28011" lon="6.879">
        <ele>1567.6443125387</ele>
        <time>2019-06-23T14:35:26Z</time>
      </trkpt>
      <trkpt lat="44.28013" lon="6.87897">
        <ele>1568.8539617925</ele>
        <time>2019-06-23T14:35:28Z</time>
      </trkpt>
      <trkpt lat="44.28014" lon="6.87894">
        <ele>1570.3323090112</ele>
        <time>2019-06-23T14:35:30Z</time>
      </trkpt>
      <trkpt lat="44.28016" lon="6.87891">
        <ele>1570.982920448</ele>
        <time>2019-06-23T14:35:32Z</time>
      </trkpt>
      <trkpt lat="44.28016" lon="6.87888">
        <ele>1570.9502913101</ele>
        <time>2019-06-23T14:35:34Z</time>
      </trkpt>
      <trkpt lat="44.28016" lon="6.87885">
        <ele>1570.738607376</ele>
        <time>2019-06-23T14:35:36Z</time>
      </trkpt>
      <trkpt lat="44.28017" lon="6.87881">
        <ele>1570.2403964712</ele>
        <time>2019-06-23T14:35:38Z</time>
      </trkpt>
      <trkpt lat="44.28018" lon="6.87877">
        <ele>1569.6248388079</ele>
        <time>2019-06-23T14:35:40Z</time>
      </trkpt>
      <trkpt lat="44.28019" lon="6.87872">
        <ele>1569.2696657469</ele>
        <time>2019-06-23T14:35:42Z</time>
      </trkpt>
      <trkpt lat="44.2802" lon="6.87867">
        <ele>1568.6975187562</ele>
        <time>2019-06-23T14:35:44Z</time>
      </trkpt>
      <trkpt lat="44.28021" lon="6.87863">
        <ele>1567.6931066518</ele>
        <time>2019-06-23T14:35:46Z</time>
      </trkpt>
      <trkpt lat="44.28022" lon="6.8786">
        <ele>1567.0146901156</ele>
        <time>2019-06-23T14:35:48Z</time>
      </trkpt>
      <trkpt lat="44.28022" lon="6.87856">
        <ele>1567.07932854</ele>
        <time>2019-06-23T14:35:50Z</time>
      </trkpt>
      <trkpt lat="44.28023" lon="6.87853">
        <ele>1566.7042540538</ele>
        <time>2019-06-23T14:35:53Z</time>
      </trkpt>
      <trkpt lat="44.28024" lon="6.87849">
        <ele>1566.8503996099</ele>
        <time>2019-06-23T14:35:56Z</time>
      </trkpt>
      <trkpt lat="44.28025" lon="6.87845">
        <ele>1567.2371843357</ele>
        <time>2019-06-23T14:35:58Z</time>
      </trkpt>
      <trkpt lat="44.28025" lon="6.8784">
        <ele>1566.8925950817</ele>
        <time>2019-06-23T14:36:00Z</time>
      </trkpt>
      <trkpt lat="44.28026" lon="6.87837">
        <ele>1566.5329150682</ele>
        <time>2019-06-23T14:36:02Z</time>
      </trkpt>
      <trkpt lat="44.28026" lon="6.87834">
        <ele>1566.5354637545</ele>
        <time>2019-06-23T14:36:03Z</time>
      </trkpt>
      <trkpt lat="44.28028" lon="6.87831">
        <ele>1566.8600246412</ele>
        <time>2019-06-23T14:36:05Z</time>
      </trkpt>
      <trkpt lat="44.28027" lon="6.87827">
        <ele>1567.8552683677</ele>
        <time>2019-06-23T14:36:08Z</time>
      </trkpt>
      <trkpt lat="44.28028" lon="6.87823">
        <ele>1568.0143313725</ele>
        <time>2019-06-23T14:36:10Z</time>
      </trkpt>
      <trkpt lat="44.28028" lon="6.87821">
        <ele>1568.0484667573</ele>
        <time>2019-06-23T14:36:11Z</time>
      </trkpt>
      <trkpt lat="44.28027" lon="6.87817">
        <ele>1568.1022906261</ele>
        <time>2019-06-23T14:36:13Z</time>
      </trkpt>
      <trkpt lat="44.28028" lon="6.87813">
        <ele>1568.293371251</ele>
        <time>2019-06-23T14:36:15Z</time>
      </trkpt>
      <trkpt lat="44.28028" lon="6.8781">
        <ele>1568.2597144877</ele>
        <time>2019-06-23T14:36:16Z</time>
      </trkpt>
      <trkpt lat="44.28029" lon="6.87806">
        <ele>1568.4212040208</ele>
        <time>2019-06-23T14:36:18Z</time>
      </trkpt>
      <trkpt lat="44.28029" lon="6.87803">
        <ele>1568.287901587</ele>
        <time>2019-06-23T14:36:20Z</time>
      </trkpt>
      <trkpt lat="44.28028" lon="6.87799">
        <ele>1567.3144988465</ele>
        <time>2019-06-23T14:36:22Z</time>
      </trkpt>
      <trkpt lat="44.28028" lon="6.87795">
        <ele>1566.5013885958</ele>
        <time>2019-06-23T14:36:24Z</time>
      </trkpt>
      <trkpt lat="44.28027" lon="6.87793">
        <ele>1566.1558055884</ele>
        <time>2019-06-23T14:36:26Z</time>
      </trkpt>
      <trkpt lat="44.28026" lon="6.8779">
        <ele>1565.7970521765</ele>
        <time>2019-06-23T14:36:28Z</time>
      </trkpt>
      <trkpt lat="44.28025" lon="6.87786">
        <ele>1565.2468477193</ele>
        <time>2019-06-23T14:36:30Z</time>
      </trkpt>
      <trkpt lat="44.28025" lon="6.87783">
        <ele>1564.5509781621</ele>
        <time>2019-06-23T14:36:32Z</time>
      </trkpt>
      <trkpt lat="44.28025" lon="6.87781">
        <ele>1564.3939340051</ele>
        <time>2019-06-23T14:36:34Z</time>
      </trkpt>
      <trkpt lat="44.28026" lon="6.87776">
        <ele>1564.2945814516</ele>
        <time>2019-06-23T14:36:36Z</time>
      </trkpt>
      <trkpt lat="44.28026" lon="6.87774">
        <ele>1564.271336454</ele>
        <time>2019-06-23T14:36:37Z</time>
      </trkpt>
      <trkpt lat="44.28026" lon="6.87769">
        <ele>1563.9259344736</ele>
        <time>2019-06-23T14:36:39Z</time>
      </trkpt>
      <trkpt lat="44.28026" lon="6.87765">
        <ele>1563.8492034072</ele>
        <time>2019-06-23T14:36:41Z</time>
      </trkpt>
      <trkpt lat="44.28026" lon="6.87761">
        <ele>1563.8356194466</ele>
        <time>2019-06-23T14:36:43Z</time>
      </trkpt>
      <trkpt lat="44.28026" lon="6.87758">
        <ele>1563.9366981115</ele>
        <time>2019-06-23T14:36:45Z</time>
      </trkpt>
      <trkpt lat="44.28026" lon="6.87755">
        <ele>1563.851046731</ele>
        <time>2019-06-23T14:36:47Z</time>
      </trkpt>
      <trkpt lat="44.28027" lon="6.87752">
        <ele>1563.5720957111</ele>
        <time>2019-06-23T14:36:49Z</time>
      </trkpt>
      <trkpt lat="44.28028" lon="6.8775">
        <ele>1563.1786543013</ele>
        <time>2019-06-23T14:36:51Z</time>
      </trkpt>
      <trkpt lat="44.28029" lon="6.87747">
        <ele>1562.9207925205</ele>
        <time>2019-06-23T14:36:53Z</time>
      </trkpt>
      <trkpt lat="44.28029" lon="6.87742">
        <ele>1562.9369329909</ele>
        <time>2019-06-23T14:36:55Z</time>
      </trkpt>
      <trkpt lat="44.2803" lon="6.87738">
        <ele>1563.2284492604</ele>
        <time>2019-06-23T14:36:57Z</time>
      </trkpt>
      <trkpt lat="44.28031" lon="6.87734">
        <ele>1563.3142701278</ele>
        <time>2019-06-23T14:36:59Z</time>
      </trkpt>
      <trkpt lat="44.28032" lon="6.87731">
        <ele>1563.6222526644</ele>
        <time>2019-06-23T14:37:01Z</time>
      </trkpt>
      <trkpt lat="44.28033" lon="6.87728">
        <ele>1564.0883068284</ele>
        <time>2019-06-23T14:37:03Z</time>
      </trkpt>
      <trkpt lat="44.28034" lon="6.87724">
        <ele>1564.1117568116</ele>
        <time>2019-06-23T14:37:05Z</time>
      </trkpt>
      <trkpt lat="44.28035" lon="6.87721">
        <ele>1563.6632085503</ele>
        <time>2019-06-23T14:37:07Z</time>
      </trkpt>
      <trkpt lat="44.28035" lon="6.87718">
        <ele>1563.4364767414</ele>
        <time>2019-06-23T14:37:09Z</time>
      </trkpt>
      <trkpt lat="44.28036" lon="6.87714">
        <ele>1563.3909381144</ele>
        <time>2019-06-23T14:37:11Z</time>
      </trkpt>
      <trkpt lat="44.28037" lon="6.87712">
        <ele>1563.2980673911</ele>
        <time>2019-06-23T14:37:13Z</time>
      </trkpt>
      <trkpt lat="44.28038" lon="6.87708">
        <ele>1563.1504327095</ele>
        <time>2019-06-23T14:37:15Z</time>
      </trkpt>
      <trkpt lat="44.28038" lon="6.87706">
        <ele>1562.7531980243</ele>
        <time>2019-06-23T14:37:17Z</time>
      </trkpt>
      <trkpt lat="44.28038" lon="6.87702">
        <ele>1562.4855811149</ele>
        <time>2019-06-23T14:37:19Z</time>
      </trkpt>
      <trkpt lat="44.28039" lon="6.87698">
        <ele>1562.3159718462</ele>
        <time>2019-06-23T14:37:21Z</time>
      </trkpt>
      <trkpt lat="44.2804" lon="6.87693">
        <ele>1561.9670877246</ele>
        <time>2019-06-23T14:37:23Z</time>
      </trkpt>
      <trkpt lat="44.2804" lon="6.87691">
        <ele>1561.680950129</ele>
        <time>2019-06-23T14:37:24Z</time>
      </trkpt>
      <trkpt lat="44.2804" lon="6.87687">
        <ele>1561.1842520423</ele>
        <time>2019-06-23T14:37:26Z</time>
      </trkpt>
      <trkpt lat="44.2804" lon="6.87685">
        <ele>1560.9181967768</ele>
        <time>2019-06-23T14:37:28Z</time>
      </trkpt>
      <trkpt lat="44.28042" lon="6.87682">
        <ele>1561.2969665378</ele>
        <time>2019-06-23T14:37:30Z</time>
      </trkpt>
      <trkpt lat="44.28043" lon="6.8768">
        <ele>1561.6648985201</ele>
        <time>2019-06-23T14:37:32Z</time>
      </trkpt>
      <trkpt lat="44.28043" lon="6.87675">
        <ele>1561.7752813663</ele>
        <time>2019-06-23T14:37:34Z</time>
      </trkpt>
      <trkpt lat="44.28044" lon="6.87673">
        <ele>1561.6403734983</ele>
        <time>2019-06-23T14:37:35Z</time>
      </trkpt>
      <trkpt lat="44.28044" lon="6.87671">
        <ele>1561.3318238197</ele>
        <time>2019-06-23T14:37:36Z</time>
      </trkpt>
      <trkpt lat="44.28044" lon="6.87667">
        <ele>1560.5861060908</ele>
        <time>2019-06-23T14:37:38Z</time>
      </trkpt>
      <trkpt lat="44.28045" lon="6.87665">
        <ele>1560.4149727858</ele>
        <time>2019-06-23T14:37:40Z</time>
      </trkpt>
      <trkpt lat="44.28046" lon="6.87662">
        <ele>1560.2010427828</ele>
        <time>2019-06-23T14:37:42Z</time>
      </trkpt>
      <trkpt lat="44.28045" lon="6.87658">
        <ele>1559.8358673976</ele>
        <time>2019-06-23T14:37:44Z</time>
      </trkpt>
      <trkpt lat="44.28045" lon="6.87655">
        <ele>1559.1803139921</ele>
        <time>2019-06-23T14:37:46Z</time>
      </trkpt>
      <trkpt lat="44.28045" lon="6.87652">
        <ele>1558.5947985289</ele>
        <time>2019-06-23T14:37:48Z</time>
      </trkpt>
      <trkpt lat="44.28046" lon="6.87649">
        <ele>1558.1418464398</ele>
        <time>2019-06-23T14:37:50Z</time>
      </trkpt>
      <trkpt lat="44.28046" lon="6.87646">
        <ele>1557.7235827896</ele>
        <time>2019-06-23T14:37:52Z</time>
      </trkpt>
      <trkpt lat="44.28046" lon="6.87643">
        <ele>1557.1394103748</ele>
        <time>2019-06-23T14:37:54Z</time>
      </trkpt>
      <trkpt lat="44.28047" lon="6.87639">
        <ele>1556.5878055682</ele>
        <time>2019-06-23T14:37:56Z</time>
      </trkpt>
      <trkpt lat="44.28048" lon="6.87635">
        <ele>1555.779048665</ele>
        <time>2019-06-23T14:37:58Z</time>
      </trkpt>
      <trkpt lat="44.28049" lon="6.87632">
        <ele>1555.1915388513</ele>
        <time>2019-06-23T14:38:00Z</time>
      </trkpt>
      <trkpt lat="44.2805" lon="6.87628">
        <ele>1554.4446337476</ele>
        <time>2019-06-23T14:38:02Z</time>
      </trkpt>
      <trkpt lat="44.2805" lon="6.87626">
        <ele>1552.8528793419</ele>
        <time>2019-06-23T14:38:05Z</time>
      </trkpt>
      <trkpt lat="44.28051" lon="6.87623">
        <ele>1551.7366773062</ele>
        <time>2019-06-23T14:38:07Z</time>
      </trkpt>
      <trkpt lat="44.28051" lon="6.8762">
        <ele>1552.8116889807</ele>
        <time>2019-06-23T14:38:25Z</time>
      </trkpt>
      <trkpt lat="44.28053" lon="6.87619">
        <ele>1557.3570367909</ele>
        <time>2019-06-23T14:38:33Z</time>
      </trkpt>
      <trkpt lat="44.28054" lon="6.87621">
        <ele>1557.045459784</ele>
        <time>2019-06-23T14:38:35Z</time>
      </trkpt>
      <trkpt lat="44.28057" lon="6.87619">
        <ele>1557.4517490709</ele>
        <time>2019-06-23T14:38:37Z</time>
      </trkpt>
      <trkpt lat="44.28059" lon="6.8762">
        <ele>1558.4473853277</ele>
        <time>2019-06-23T14:38:40Z</time>
      </trkpt>
      <trkpt lat="44.2806" lon="6.87617">
        <ele>1557.1469071718</ele>
        <time>2019-06-23T14:38:43Z</time>
      </trkpt>
      <trkpt lat="44.2806" lon="6.87614">
        <ele>1555.7559997564</ele>
        <time>2019-06-23T14:38:45Z</time>
      </trkpt>
      <trkpt lat="44.2806" lon="6.87612">
        <ele>1554.8277159913</ele>
        <time>2019-06-23T14:38:47Z</time>
      </trkpt>
      <trkpt lat="44.28059" lon="6.8761">
        <ele>1554.1085880299</ele>
        <time>2019-06-23T14:38:50Z</time>
      </trkpt>
      <trkpt lat="44.28057" lon="6.87606">
        <ele>1553.8162795817</ele>
        <time>2019-06-23T14:38:51Z</time>
      </trkpt>
      <trkpt lat="44.28054" lon="6.87604">
        <ele>1551.5887149989</ele>
        <time>2019-06-23T14:38:54Z</time>
      </trkpt>
      <trkpt lat="44.28054" lon="6.87601">
        <ele>1549.8794946534</ele>
        <time>2019-06-23T14:38:56Z</time>
      </trkpt>
      <trkpt lat="44.28052" lon="6.87599">
        <ele>1548.8451032819</ele>
        <time>2019-06-23T14:38:57Z</time>
      </trkpt>
      <trkpt lat="44.2805" lon="6.87596">
        <ele>1546.5262844703</ele>
        <time>2019-06-23T14:38:59Z</time>
      </trkpt>
      <trkpt lat="44.28049" lon="6.87594">
        <ele>1544.3393502433</ele>
        <time>2019-06-23T14:39:01Z</time>
      </trkpt>
      <trkpt lat="44.28047" lon="6.87592">
        <ele>1542.6289272091</ele>
        <time>2019-06-23T14:39:03Z</time>
      </trkpt>
      <trkpt lat="44.28045" lon="6.87589">
        <ele>1540.1468573179</ele>
        <time>2019-06-23T14:39:06Z</time>
      </trkpt>
      <trkpt lat="44.28044" lon="6.87585">
        <ele>1538.6153899541</ele>
        <time>2019-06-23T14:39:08Z</time>
      </trkpt>
      <trkpt lat="44.28042" lon="6.87582">
        <ele>1537.7148781282</ele>
        <time>2019-06-23T14:39:10Z</time>
      </trkpt>
      <trkpt lat="44.28041" lon="6.8758">
        <ele>1537.060439342</ele>
        <time>2019-06-23T14:39:12Z</time>
      </trkpt>
      <trkpt lat="44.2804" lon="6.87576">
        <ele>1536.5666570755</ele>
        <time>2019-06-23T14:39:15Z</time>
      </trkpt>
      <trkpt lat="44.28039" lon="6.87574">
        <ele>1536.6525464092</ele>
        <time>2019-06-23T14:39:16Z</time>
      </trkpt>
      <trkpt lat="44.28039" lon="6.8757">
        <ele>1536.9497941917</ele>
        <time>2019-06-23T14:39:18Z</time>
      </trkpt>
      <trkpt lat="44.28039" lon="6.87568">
        <ele>1536.9859049724</ele>
        <time>2019-06-23T14:39:19Z</time>
      </trkpt>
      <trkpt lat="44.28039" lon="6.87564">
        <ele>1536.985889031</ele>
        <time>2019-06-23T14:39:21Z</time>
      </trkpt>
      <trkpt lat="44.2804" lon="6.8756">
        <ele>1536.6038632295</ele>
        <time>2019-06-23T14:39:23Z</time>
      </trkpt>
      <trkpt lat="44.28041" lon="6.87556">
        <ele>1536.2136502176</ele>
        <time>2019-06-23T14:39:25Z</time>
      </trkpt>
      <trkpt lat="44.28041" lon="6.87553">
        <ele>1536.0386701714</ele>
        <time>2019-06-23T14:39:26Z</time>
      </trkpt>
      <trkpt lat="44.28041" lon="6.8755">
        <ele>1535.7676239145</ele>
        <time>2019-06-23T14:39:27Z</time>
      </trkpt>
      <trkpt lat="44.28041" lon="6.87546">
        <ele>1535.6807031939</ele>
        <time>2019-06-23T14:39:29Z</time>
      </trkpt>
      <trkpt lat="44.28041" lon="6.87543">
        <ele>1535.6529401519</ele>
        <time>2019-06-23T14:39:31Z</time>
      </trkpt>
      <trkpt lat="44.28042" lon="6.8754">
        <ele>1534.883437762</ele>
        <time>2019-06-23T14:39:33Z</time>
      </trkpt>
      <trkpt lat="44.28042" lon="6.87536">
        <ele>1533.8130600825</ele>
        <time>2019-06-23T14:39:35Z</time>
      </trkpt>
      <trkpt lat="44.28044" lon="6.87533">
        <ele>1533.1378166371</ele>
        <time>2019-06-23T14:39:38Z</time>
      </trkpt>
      <trkpt lat="44.28046" lon="6.87532">
        <ele>1533.2228702779</ele>
        <time>2019-06-23T14:39:41Z</time>
      </trkpt>
      <trkpt lat="44.28049" lon="6.87532">
        <ele>1533.5189555636</ele>
        <time>2019-06-23T14:39:43Z</time>
      </trkpt>
      <trkpt lat="44.2805" lon="6.87533">
        <ele>1533.7946827455</ele>
        <time>2019-06-23T14:39:44Z</time>
      </trkpt>
      <trkpt lat="44.28052" lon="6.87534">
        <ele>1534.2126540978</ele>
        <time>2019-06-23T14:39:45Z</time>
      </trkpt>
      <trkpt lat="44.28054" lon="6.87537">
        <ele>1534.806375806</ele>
        <time>2019-06-23T14:39:46Z</time>
      </trkpt>
      <trkpt lat="44.28056" lon="6.87539">
        <ele>1535.2471399019</ele>
        <time>2019-06-23T14:39:47Z</time>
      </trkpt>
      <trkpt lat="44.28058" lon="6.87542">
        <ele>1535.717706769</ele>
        <time>2019-06-23T14:39:48Z</time>
      </trkpt>
      <trkpt lat="44.2806" lon="6.87543">
        <ele>1536.3307301867</ele>
        <time>2019-06-23T14:39:49Z</time>
      </trkpt>
      <trkpt lat="44.28062" lon="6.87547">
        <ele>1537.5803670987</ele>
        <time>2019-06-23T14:39:51Z</time>
      </trkpt>
      <trkpt lat="44.28063" lon="6.87549">
        <ele>1538.2206080512</ele>
        <time>2019-06-23T14:39:52Z</time>
      </trkpt>
      <trkpt lat="44.28065" lon="6.8755">
        <ele>1538.9181606152</ele>
        <time>2019-06-23T14:39:54Z</time>
      </trkpt>
      <trkpt lat="44.28067" lon="6.87551">
        <ele>1539.4874145695</ele>
        <time>2019-06-23T14:39:56Z</time>
      </trkpt>
      <trkpt lat="44.28069" lon="6.87554">
        <ele>1540.2115435538</ele>
        <time>2019-06-23T14:39:58Z</time>
      </trkpt>
      <trkpt lat="44.28069" lon="6.87558">
        <ele>1541.0511265465</ele>
        <time>2019-06-23T14:40:01Z</time>
      </trkpt>
      <trkpt lat="44.2807" lon="6.8756">
        <ele>1541.6745125854</ele>
        <time>2019-06-23T14:40:03Z</time>
      </trkpt>
      <trkpt lat="44.28071" lon="6.87564">
        <ele>1542.6733907278</ele>
        <time>2019-06-23T14:40:06Z</time>
      </trkpt>
      <trkpt lat="44.28071" lon="6.87568">
        <ele>1543.2376168819</ele>
        <time>2019-06-23T14:40:08Z</time>
      </trkpt>
      <trkpt lat="44.28072" lon="6.87571">
        <ele>1543.9279136962</ele>
        <time>2019-06-23T14:40:11Z</time>
      </trkpt>
      <trkpt lat="44.28072" lon="6.87574">
        <ele>1543.8484870193</ele>
        <time>2019-06-23T14:40:13Z</time>
      </trkpt>
      <trkpt lat="44.28073" lon="6.87577">
        <ele>1542.9841070942</ele>
        <time>2019-06-23T14:40:16Z</time>
      </trkpt>
      <trkpt lat="44.28073" lon="6.87579">
        <ele>1541.626480672</ele>
        <time>2019-06-23T14:40:20Z</time>
      </trkpt>
      <trkpt lat="44.28073" lon="6.87577">
        <ele>1539.5086422923</ele>
        <time>2019-06-23T14:40:26Z</time>
      </trkpt>
      <trkpt lat="44.28074" lon="6.87574">
        <ele>1537.841297104</ele>
        <time>2019-06-23T14:40:28Z</time>
      </trkpt>
      <trkpt lat="44.28075" lon="6.8757">
        <ele>1535.300119319</ele>
        <time>2019-06-23T14:40:31Z</time>
      </trkpt>
      <trkpt lat="44.28077" lon="6.87569">
        <ele>1533.7031305706</ele>
        <time>2019-06-23T14:40:33Z</time>
      </trkpt>
      <trkpt lat="44.28078" lon="6.87566">
        <ele>1532.6728692648</ele>
        <time>2019-06-23T14:40:35Z</time>
      </trkpt>
      <trkpt lat="44.2808" lon="6.87563">
        <ele>1531.5069770611</ele>
        <time>2019-06-23T14:40:37Z</time>
      </trkpt>
      <trkpt lat="44.28081" lon="6.8756">
        <ele>1530.5244644766</ele>
        <time>2019-06-23T14:40:39Z</time>
      </trkpt>
      <trkpt lat="44.28083" lon="6.87558">
        <ele>1529.2606841811</ele>
        <time>2019-06-23T14:40:41Z</time>
      </trkpt>
      <trkpt lat="44.28086" lon="6.87555">
        <ele>1527.8781097135</ele>
        <time>2019-06-23T14:40:43Z</time>
      </trkpt>
      <trkpt lat="44.28088" lon="6.87552">
        <ele>1527.20711357</ele>
        <time>2019-06-23T14:40:44Z</time>
      </trkpt>
      <trkpt lat="44.2809" lon="6.87549">
        <ele>1526.4334011448</ele>
        <time>2019-06-23T14:40:46Z</time>
      </trkpt>
      <trkpt lat="44.28092" lon="6.87546">
        <ele>1526.0535145004</ele>
        <time>2019-06-23T14:40:48Z</time>
      </trkpt>
      <trkpt lat="44.28094" lon="6.87544">
        <ele>1525.7533903383</ele>
        <time>2019-06-23T14:40:50Z</time>
      </trkpt>
      <trkpt lat="44.28096" lon="6.87541">
        <ele>1525.5048480093</ele>
        <time>2019-06-23T14:40:52Z</time>
      </trkpt>
      <trkpt lat="44.28098" lon="6.8754">
        <ele>1525.5653295744</ele>
        <time>2019-06-23T14:40:54Z</time>
      </trkpt>
      <trkpt lat="44.28099" lon="6.87537">
        <ele>1525.7384238686</ele>
        <time>2019-06-23T14:40:57Z</time>
      </trkpt>
      <trkpt lat="44.28101" lon="6.87535">
        <ele>1525.9762437502</ele>
        <time>2019-06-23T14:40:59Z</time>
      </trkpt>
      <trkpt lat="44.28104" lon="6.87532">
        <ele>1526.0686661081</ele>
        <time>2019-06-23T14:41:01Z</time>
      </trkpt>
      <trkpt lat="44.28105" lon="6.87529">
        <ele>1525.9986133862</ele>
        <time>2019-06-23T14:41:03Z</time>
      </trkpt>
      <trkpt lat="44.28106" lon="6.87526">
        <ele>1525.7980877213</ele>
        <time>2019-06-23T14:41:05Z</time>
      </trkpt>
      <trkpt lat="44.28106" lon="6.87523">
        <ele>1525.4563050329</ele>
        <time>2019-06-23T14:41:07Z</time>
      </trkpt>
      <trkpt lat="44.28105" lon="6.8752">
        <ele>1524.9815462918</ele>
        <time>2019-06-23T14:41:09Z</time>
      </trkpt>
      <trkpt lat="44.28104" lon="6.87518">
        <ele>1524.0544649136</ele>
        <time>2019-06-23T14:41:11Z</time>
      </trkpt>
      <trkpt lat="44.28103" lon="6.87517">
        <ele>1522.5670800256</ele>
        <time>2019-06-23T14:41:13Z</time>
      </trkpt>
      <trkpt lat="44.28101" lon="6.87515">
        <ele>1520.4470848467</ele>
        <time>2019-06-23T14:41:16Z</time>
      </trkpt>
      <trkpt lat="44.28099" lon="6.87513">
        <ele>1519.3355973937</ele>
        <time>2019-06-23T14:41:18Z</time>
      </trkpt>
      <trkpt lat="44.28097" lon="6.87512">
        <ele>1518.5487132051</ele>
        <time>2019-06-23T14:41:20Z</time>
      </trkpt>
      <trkpt lat="44.28095" lon="6.87511">
        <ele>1517.8570467339</ele>
        <time>2019-06-23T14:41:22Z</time>
      </trkpt>
      <trkpt lat="44.28092" lon="6.8751">
        <ele>1517.2395175208</ele>
        <time>2019-06-23T14:41:24Z</time>
      </trkpt>
      <trkpt lat="44.2809" lon="6.87511">
        <ele>1516.8979215689</ele>
        <time>2019-06-23T14:41:26Z</time>
      </trkpt>
      <trkpt lat="44.28088" lon="6.87511">
        <ele>1516.3385847351</ele>
        <time>2019-06-23T14:41:28Z</time>
      </trkpt>
      <trkpt lat="44.28087" lon="6.8751">
        <ele>1515.3347876402</ele>
        <time>2019-06-23T14:41:30Z</time>
      </trkpt>
      <trkpt lat="44.28084" lon="6.87508">
        <ele>1513.9549558627</ele>
        <time>2019-06-23T14:41:33Z</time>
      </trkpt>
      <trkpt lat="44.28082" lon="6.87506">
        <ele>1512.590547429</ele>
        <time>2019-06-23T14:41:36Z</time>
      </trkpt>
      <trkpt lat="44.2808" lon="6.87504">
        <ele>1511.8637592656</ele>
        <time>2019-06-23T14:41:38Z</time>
      </trkpt>
      <trkpt lat="44.28077" lon="6.87503">
        <ele>1511.2240322546</ele>
        <time>2019-06-23T14:41:40Z</time>
      </trkpt>
      <trkpt lat="44.28075" lon="6.87503">
        <ele>1510.8837144486</ele>
        <time>2019-06-23T14:41:41Z</time>
      </trkpt>
      <trkpt lat="44.28073" lon="6.87501">
        <ele>1510.065989766</ele>
        <time>2019-06-23T14:41:43Z</time>
      </trkpt>
      <trkpt lat="44.28071" lon="6.875">
        <ele>1509.0993619251</ele>
        <time>2019-06-23T14:41:46Z</time>
      </trkpt>
      <trkpt lat="44.28069" lon="6.87499">
        <ele>1509.1125911455</ele>
        <time>2019-06-23T14:41:49Z</time>
      </trkpt>
      <trkpt lat="44.28067" lon="6.87497">
        <ele>1508.8228749973</ele>
        <time>2019-06-23T14:41:51Z</time>
      </trkpt>
      <trkpt lat="44.28065" lon="6.87495">
        <ele>1508.4371388286</ele>
        <time>2019-06-23T14:41:54Z</time>
      </trkpt>
      <trkpt lat="44.28064" lon="6.87492">
        <ele>1507.6609538232</ele>
        <time>2019-06-23T14:42:00Z</time>
      </trkpt>
      <trkpt lat="44.28064" lon="6.8749">
        <ele>1507.2269481408</ele>
        <time>2019-06-23T14:42:02Z</time>
      </trkpt>
      <trkpt lat="44.28064" lon="6.87485">
        <ele>1506.986370836</ele>
        <time>2019-06-23T14:42:04Z</time>
      </trkpt>
      <trkpt lat="44.28066" lon="6.8748">
        <ele>1506.5313330767</ele>
        <time>2019-06-23T14:42:06Z</time>
      </trkpt>
      <trkpt lat="44.28067" lon="6.87476">
        <ele>1506.0268631415</ele>
        <time>2019-06-23T14:42:08Z</time>
      </trkpt>
      <trkpt lat="44.28069" lon="6.87472">
        <ele>1506.3178843564</ele>
        <time>2019-06-23T14:42:10Z</time>
      </trkpt>
      <trkpt lat="44.28071" lon="6.8747">
        <ele>1507.6010691295</ele>
        <time>2019-06-23T14:42:12Z</time>
      </trkpt>
      <trkpt lat="44.28073" lon="6.87468">
        <ele>1509.032221853</ele>
        <time>2019-06-23T14:42:14Z</time>
      </trkpt>
      <trkpt lat="44.28075" lon="6.87467">
        <ele>1511.2178536296</ele>
        <time>2019-06-23T14:42:17Z</time>
      </trkpt>
      <trkpt lat="44.28077" lon="6.87465">
        <ele>1511.8986057296</ele>
        <time>2019-06-23T14:42:18Z</time>
      </trkpt>
      <trkpt lat="44.28078" lon="6.87463">
        <ele>1512.5528776673</ele>
        <time>2019-06-23T14:42:19Z</time>
      </trkpt>
      <trkpt lat="44.2808" lon="6.87461">
        <ele>1513.4633030554</ele>
        <time>2019-06-23T14:42:21Z</time>
      </trkpt>
      <trkpt lat="44.28082" lon="6.8746">
        <ele>1514.0655874678</ele>
        <time>2019-06-23T14:42:23Z</time>
      </trkpt>
      <trkpt lat="44.28085" lon="6.87459">
        <ele>1515.1740039689</ele>
        <time>2019-06-23T14:42:26Z</time>
      </trkpt>
      <trkpt lat="44.28087" lon="6.87458">
        <ele>1515.8174301034</ele>
        <time>2019-06-23T14:42:28Z</time>
      </trkpt>
      <trkpt lat="44.28089" lon="6.87456">
        <ele>1516.5508098481</ele>
        <time>2019-06-23T14:42:30Z</time>
      </trkpt>
      <trkpt lat="44.28091" lon="6.87454">
        <ele>1517.7345609024</ele>
        <time>2019-06-23T14:42:32Z</time>
      </trkpt>
      <trkpt lat="44.28093" lon="6.87455">
        <ele>1518.5512413619</ele>
        <time>2019-06-23T14:42:33Z</time>
      </trkpt>
      <trkpt lat="44.28095" lon="6.87455">
        <ele>1519.0764979765</ele>
        <time>2019-06-23T14:42:34Z</time>
      </trkpt>
      <trkpt lat="44.28097" lon="6.87455">
        <ele>1519.9567476208</ele>
        <time>2019-06-23T14:42:36Z</time>
      </trkpt>
      <trkpt lat="44.28099" lon="6.87452">
        <ele>1520.5185832989</ele>
        <time>2019-06-23T14:42:38Z</time>
      </trkpt>
      <trkpt lat="44.28102" lon="6.87451">
        <ele>1521.0723834838</ele>
        <time>2019-06-23T14:42:40Z</time>
      </trkpt>
      <trkpt lat="44.28104" lon="6.8745">
        <ele>1521.4031148779</ele>
        <time>2019-06-23T14:42:42Z</time>
      </trkpt>
      <trkpt lat="44.28106" lon="6.87449">
        <ele>1522.0906290545</ele>
        <time>2019-06-23T14:42:44Z</time>
      </trkpt>
      <trkpt lat="44.28108" lon="6.87449">
        <ele>1522.5374588948</ele>
        <time>2019-06-23T14:42:46Z</time>
      </trkpt>
      <trkpt lat="44.2811" lon="6.87448">
        <ele>1522.6330208962</ele>
        <time>2019-06-23T14:42:48Z</time>
      </trkpt>
      <trkpt lat="44.28113" lon="6.87447">
        <ele>1522.3505130065</ele>
        <time>2019-06-23T14:42:50Z</time>
      </trkpt>
      <trkpt lat="44.28115" lon="6.87445">
        <ele>1521.8385142243</ele>
        <time>2019-06-23T14:42:52Z</time>
      </trkpt>
      <trkpt lat="44.28118" lon="6.87444">
        <ele>1521.6164638967</ele>
        <time>2019-06-23T14:42:54Z</time>
      </trkpt>
      <trkpt lat="44.2812" lon="6.87442">
        <ele>1521.2740724871</ele>
        <time>2019-06-23T14:42:56Z</time>
      </trkpt>
      <trkpt lat="44.28123" lon="6.8744">
        <ele>1520.8956452217</ele>
        <time>2019-06-23T14:42:58Z</time>
      </trkpt>
      <trkpt lat="44.28125" lon="6.87437">
        <ele>1520.3463171407</ele>
        <time>2019-06-23T14:43:01Z</time>
      </trkpt>
      <trkpt lat="44.28127" lon="6.87435">
        <ele>1519.9509979403</ele>
        <time>2019-06-23T14:43:03Z</time>
      </trkpt>
      <trkpt lat="44.2813" lon="6.87434">
        <ele>1519.794042478</ele>
        <time>2019-06-23T14:43:05Z</time>
      </trkpt>
      <trkpt lat="44.28132" lon="6.87434">
        <ele>1519.6291907585</ele>
        <time>2019-06-23T14:43:06Z</time>
      </trkpt>
      <trkpt lat="44.28134" lon="6.87433">
        <ele>1519.2614495342</ele>
        <time>2019-06-23T14:43:07Z</time>
      </trkpt>
      <trkpt lat="44.28137" lon="6.87432">
        <ele>1518.5765358159</ele>
        <time>2019-06-23T14:43:09Z</time>
      </trkpt>
      <trkpt lat="44.2814" lon="6.8743">
        <ele>1517.5951995317</ele>
        <time>2019-06-23T14:43:12Z</time>
      </trkpt>
      <trkpt lat="44.28141" lon="6.87428">
        <ele>1517.404109287</ele>
        <time>2019-06-23T14:43:14Z</time>
      </trkpt>
      <trkpt lat="44.28145" lon="6.87428">
        <ele>1517.4620037273</ele>
        <time>2019-06-23T14:43:16Z</time>
      </trkpt>
      <trkpt lat="44.28146" lon="6.87428">
        <ele>1517.2611846058</ele>
        <time>2019-06-23T14:43:17Z</time>
      </trkpt>
      <trkpt lat="44.2815" lon="6.87428">
        <ele>1516.4444197219</ele>
        <time>2019-06-23T14:43:19Z</time>
      </trkpt>
      <trkpt lat="44.28153" lon="6.87427">
        <ele>1515.7981869801</ele>
        <time>2019-06-23T14:43:21Z</time>
      </trkpt>
      <trkpt lat="44.28155" lon="6.87427">
        <ele>1515.3403848249</ele>
        <time>2019-06-23T14:43:22Z</time>
      </trkpt>
      <trkpt lat="44.28157" lon="6.87426">
        <ele>1514.7807728489</ele>
        <time>2019-06-23T14:43:23Z</time>
      </trkpt>
      <trkpt lat="44.2816" lon="6.87427">
        <ele>1514.172244484</ele>
        <time>2019-06-23T14:43:24Z</time>
      </trkpt>
      <trkpt lat="44.28163" lon="6.87425">
        <ele>1513.1203548663</ele>
        <time>2019-06-23T14:43:26Z</time>
      </trkpt>
      <trkpt lat="44.28167" lon="6.87424">
        <ele>1511.9585136142</ele>
        <time>2019-06-23T14:43:28Z</time>
      </trkpt>
      <trkpt lat="44.2817" lon="6.87423">
        <ele>1511.5957624143</ele>
        <time>2019-06-23T14:43:30Z</time>
      </trkpt>
      <trkpt lat="44.28172" lon="6.87423">
        <ele>1511.0298930424</ele>
        <time>2019-06-23T14:43:34Z</time>
      </trkpt>
      <trkpt lat="44.28174" lon="6.87422">
        <ele>1510.3408049286</ele>
        <time>2019-06-23T14:43:36Z</time>
      </trkpt>
      <trkpt lat="44.28175" lon="6.87421">
        <ele>1509.7869704642</ele>
        <time>2019-06-23T14:43:38Z</time>
      </trkpt>
      <trkpt lat="44.28178" lon="6.8742">
        <ele>1509.229627577</ele>
        <time>2019-06-23T14:43:41Z</time>
      </trkpt>
      <trkpt lat="44.2818" lon="6.8742">
        <ele>1509.4413496036</ele>
        <time>2019-06-23T14:43:43Z</time>
      </trkpt>
      <trkpt lat="44.28183" lon="6.87419">
        <ele>1509.657348803</ele>
        <time>2019-06-23T14:43:45Z</time>
      </trkpt>
      <trkpt lat="44.28186" lon="6.87419">
        <ele>1509.3073888274</ele>
        <time>2019-06-23T14:43:47Z</time>
      </trkpt>
      <trkpt lat="44.28188" lon="6.87419">
        <ele>1509.1938856836</ele>
        <time>2019-06-23T14:43:49Z</time>
      </trkpt>
      <trkpt lat="44.2819" lon="6.87418">
        <ele>1509.2931268378</ele>
        <time>2019-06-23T14:43:51Z</time>
      </trkpt>
      <trkpt lat="44.28192" lon="6.87416">
        <ele>1509.4486592153</ele>
        <time>2019-06-23T14:43:54Z</time>
      </trkpt>
      <trkpt lat="44.28194" lon="6.87413">
        <ele>1509.3247146694</ele>
        <time>2019-06-23T14:43:56Z</time>
      </trkpt>
      <trkpt lat="44.28195" lon="6.87411">
        <ele>1509.1167897157</ele>
        <time>2019-06-23T14:43:58Z</time>
      </trkpt>
      <trkpt lat="44.28197" lon="6.8741">
        <ele>1509.23629704</ele>
        <time>2019-06-23T14:44:00Z</time>
      </trkpt>
      <trkpt lat="44.28197" lon="6.87406">
        <ele>1508.7080280897</ele>
        <time>2019-06-23T14:44:03Z</time>
      </trkpt>
      <trkpt lat="44.28198" lon="6.87402">
        <ele>1508.3356102605</ele>
        <time>2019-06-23T14:44:05Z</time>
      </trkpt>
      <trkpt lat="44.28199" lon="6.87399">
        <ele>1507.9320654237</ele>
        <time>2019-06-23T14:44:07Z</time>
      </trkpt>
      <trkpt lat="44.282" lon="6.87396">
        <ele>1506.827895811</ele>
        <time>2019-06-23T14:44:09Z</time>
      </trkpt>
      <trkpt lat="44.28201" lon="6.87393">
        <ele>1505.5017733276</ele>
        <time>2019-06-23T14:44:11Z</time>
      </trkpt>
      <trkpt lat="44.28201" lon="6.87391">
        <ele>1504.4872833641</ele>
        <time>2019-06-23T14:44:13Z</time>
      </trkpt>
      <trkpt lat="44.282" lon="6.87387">
        <ele>1504.2561858735</ele>
        <time>2019-06-23T14:44:15Z</time>
      </trkpt>
      <trkpt lat="44.282" lon="6.87384">
        <ele>1504.2380371414</ele>
        <time>2019-06-23T14:44:17Z</time>
      </trkpt>
      <trkpt lat="44.28199" lon="6.8738">
        <ele>1504.2188956653</ele>
        <time>2019-06-23T14:44:19Z</time>
      </trkpt>
      <trkpt lat="44.28198" lon="6.87377">
        <ele>1504.5179664955</ele>
        <time>2019-06-23T14:44:21Z</time>
      </trkpt>
      <trkpt lat="44.28198" lon="6.87373">
        <ele>1504.1780888743</ele>
        <time>2019-06-23T14:44:24Z</time>
      </trkpt>
      <trkpt lat="44.28198" lon="6.87369">
        <ele>1503.5823352005</ele>
        <time>2019-06-23T14:44:26Z</time>
      </trkpt>
      <trkpt lat="44.28197" lon="6.87366">
        <ele>1502.8675863372</ele>
        <time>2019-06-23T14:44:28Z</time>
      </trkpt>
      <trkpt lat="44.28197" lon="6.87363">
        <ele>1502.4975346527</ele>
        <time>2019-06-23T14:44:29Z</time>
      </trkpt>
      <trkpt lat="44.28198" lon="6.87361">
        <ele>1502.1882539099</ele>
        <time>2019-06-23T14:44:30Z</time>
      </trkpt>
      <trkpt lat="44.28198" lon="6.87356">
        <ele>1501.6936510943</ele>
        <time>2019-06-23T14:44:32Z</time>
      </trkpt>
      <trkpt lat="44.28199" lon="6.87352">
        <ele>1501.7897175624</ele>
        <time>2019-06-23T14:44:34Z</time>
      </trkpt>
      <trkpt lat="44.28199" lon="6.87347">
        <ele>1501.8970349689</ele>
        <time>2019-06-23T14:44:36Z</time>
      </trkpt>
      <trkpt lat="44.28199" lon="6.87344">
        <ele>1502.1318464259</ele>
        <time>2019-06-23T14:44:39Z</time>
      </trkpt>
      <trkpt lat="44.28198" lon="6.8734">
        <ele>1502.5312887269</ele>
        <time>2019-06-23T14:44:42Z</time>
      </trkpt>
      <trkpt lat="44.28198" lon="6.87338">
        <ele>1502.5611368221</ele>
        <time>2019-06-23T14:44:44Z</time>
      </trkpt>
      <trkpt lat="44.28198" lon="6.87334">
        <ele>1501.9615445281</ele>
        <time>2019-06-23T14:44:46Z</time>
      </trkpt>
      <trkpt lat="44.28197" lon="6.87331">
        <ele>1501.2528028485</ele>
        <time>2019-06-23T14:44:48Z</time>
      </trkpt>
      <trkpt lat="44.28197" lon="6.87328">
        <ele>1500.459328885</ele>
        <time>2019-06-23T14:44:50Z</time>
      </trkpt>
      <trkpt lat="44.28197" lon="6.87323">
        <ele>1499.9192177137</ele>
        <time>2019-06-23T14:44:52Z</time>
      </trkpt>
      <trkpt lat="44.28197" lon="6.8732">
        <ele>1499.7507655207</ele>
        <time>2019-06-23T14:44:54Z</time>
      </trkpt>
      <trkpt lat="44.28197" lon="6.87317">
        <ele>1498.7708471842</ele>
        <time>2019-06-23T14:44:57Z</time>
      </trkpt>
      <trkpt lat="44.28197" lon="6.87314">
        <ele>1498.1473724234</ele>
        <time>2019-06-23T14:44:59Z</time>
      </trkpt>
      <trkpt lat="44.28198" lon="6.8731">
        <ele>1497.2337430713</ele>
        <time>2019-06-23T14:45:01Z</time>
      </trkpt>
      <trkpt lat="44.28198" lon="6.87306">
        <ele>1496.8276056188</ele>
        <time>2019-06-23T14:45:03Z</time>
      </trkpt>
      <trkpt lat="44.28198" lon="6.87302">
        <ele>1497.0308880965</ele>
        <time>2019-06-23T14:45:05Z</time>
      </trkpt>
      <trkpt lat="44.28198" lon="6.87299">
        <ele>1497.2270163238</ele>
        <time>2019-06-23T14:45:06Z</time>
      </trkpt>
      <trkpt lat="44.28198" lon="6.87295">
        <ele>1497.4903666802</ele>
        <time>2019-06-23T14:45:08Z</time>
      </trkpt>
      <trkpt lat="44.28198" lon="6.87292">
        <ele>1497.7743631337</ele>
        <time>2019-06-23T14:45:10Z</time>
      </trkpt>
      <trkpt lat="44.28199" lon="6.87288">
        <ele>1498.2122752869</ele>
        <time>2019-06-23T14:45:12Z</time>
      </trkpt>
      <trkpt lat="44.28199" lon="6.87284">
        <ele>1498.7362123346</ele>
        <time>2019-06-23T14:45:14Z</time>
      </trkpt>
      <trkpt lat="44.28199" lon="6.87281">
        <ele>1499.2440414673</ele>
        <time>2019-06-23T14:45:16Z</time>
      </trkpt>
      <trkpt lat="44.28199" lon="6.87277">
        <ele>1499.5029466269</ele>
        <time>2019-06-23T14:45:18Z</time>
      </trkpt>
      <trkpt lat="44.282" lon="6.87273">
        <ele>1499.6821931275</ele>
        <time>2019-06-23T14:45:20Z</time>
      </trkpt>
      <trkpt lat="44.28198" lon="6.8727">
        <ele>1499.5912499237</ele>
        <time>2019-06-23T14:45:22Z</time>
      </trkpt>
      <trkpt lat="44.28197" lon="6.87267">
        <ele>1499.2736532366</ele>
        <time>2019-06-23T14:45:24Z</time>
      </trkpt>
      <trkpt lat="44.28197" lon="6.87264">
        <ele>1499.2162047183</ele>
        <time>2019-06-23T14:45:26Z</time>
      </trkpt>
      <trkpt lat="44.28196" lon="6.87261">
        <ele>1499.4209749235</ele>
        <time>2019-06-23T14:45:28Z</time>
      </trkpt>
      <trkpt lat="44.28194" lon="6.87258">
        <ele>1499.3904902567</ele>
        <time>2019-06-23T14:45:30Z</time>
      </trkpt>
      <trkpt lat="44.28194" lon="6.87255">
        <ele>1499.0990429693</ele>
        <time>2019-06-23T14:45:32Z</time>
      </trkpt>
      <trkpt lat="44.28193" lon="6.87252">
        <ele>1498.3634258185</ele>
        <time>2019-06-23T14:45:35Z</time>
      </trkpt>
      <trkpt lat="44.28194" lon="6.87248">
        <ele>1497.0549474675</ele>
        <time>2019-06-23T14:45:38Z</time>
      </trkpt>
      <trkpt lat="44.28194" lon="6.87246">
        <ele>1496.9536239645</ele>
        <time>2019-06-23T14:45:41Z</time>
      </trkpt>
      <trkpt lat="44.28194" lon="6.87242">
        <ele>1496.4344463763</ele>
        <time>2019-06-23T14:45:43Z</time>
      </trkpt>
      <trkpt lat="44.28195" lon="6.87239">
        <ele>1495.4661505263</ele>
        <time>2019-06-23T14:45:45Z</time>
      </trkpt>
      <trkpt lat="44.28196" lon="6.87236">
        <ele>1494.0372117976</ele>
        <time>2019-06-23T14:45:47Z</time>
      </trkpt>
      <trkpt lat="44.28195" lon="6.87234">
        <ele>1493.3841547944</ele>
        <time>2019-06-23T14:45:48Z</time>
      </trkpt>
      <trkpt lat="44.28195" lon="6.8723">
        <ele>1492.2018413319</ele>
        <time>2019-06-23T14:45:50Z</time>
      </trkpt>
      <trkpt lat="44.28194" lon="6.87226">
        <ele>1491.1791020243</ele>
        <time>2019-06-23T14:45:52Z</time>
      </trkpt>
      <trkpt lat="44.28194" lon="6.87223">
        <ele>1490.8632059268</ele>
        <time>2019-06-23T14:45:53Z</time>
      </trkpt>
      <trkpt lat="44.28194" lon="6.87221">
        <ele>1490.361500789</ele>
        <time>2019-06-23T14:45:55Z</time>
      </trkpt>
      <trkpt lat="44.28193" lon="6.87218">
        <ele>1490.2365394097</ele>
        <time>2019-06-23T14:45:56Z</time>
      </trkpt>
      <trkpt lat="44.28193" lon="6.87215">
        <ele>1489.9954651335</ele>
        <time>2019-06-23T14:45:58Z</time>
      </trkpt>
      <trkpt lat="44.28193" lon="6.87212">
        <ele>1490.1885437794</ele>
        <time>2019-06-23T14:46:00Z</time>
      </trkpt>
      <trkpt lat="44.28195" lon="6.87209">
        <ele>1490.7092777296</ele>
        <time>2019-06-23T14:46:02Z</time>
      </trkpt>
      <trkpt lat="44.28196" lon="6.87205">
        <ele>1490.9681178928</ele>
        <time>2019-06-23T14:46:04Z</time>
      </trkpt>
      <trkpt lat="44.28197" lon="6.87201">
        <ele>1491.6651365022</ele>
        <time>2019-06-23T14:46:06Z</time>
      </trkpt>
      <trkpt lat="44.28197" lon="6.87198">
        <ele>1491.6367816075</ele>
        <time>2019-06-23T14:46:07Z</time>
      </trkpt>
      <trkpt lat="44.28198" lon="6.87195">
        <ele>1491.2760038408</ele>
        <time>2019-06-23T14:46:09Z</time>
      </trkpt>
      <trkpt lat="44.28197" lon="6.87191">
        <ele>1490.7665481721</ele>
        <time>2019-06-23T14:46:11Z</time>
      </trkpt>
      <trkpt lat="44.28198" lon="6.87189">
        <ele>1490.3759948579</ele>
        <time>2019-06-23T14:46:13Z</time>
      </trkpt>
      <trkpt lat="44.28199" lon="6.87185">
        <ele>1490.0908928214</ele>
        <time>2019-06-23T14:46:15Z</time>
      </trkpt>
      <trkpt lat="44.28199" lon="6.87182">
        <ele>1489.7717350407</ele>
        <time>2019-06-23T14:46:17Z</time>
      </trkpt>
      <trkpt lat="44.28199" lon="6.87179">
        <ele>1489.2371296916</ele>
        <time>2019-06-23T14:46:19Z</time>
      </trkpt>
      <trkpt lat="44.28198" lon="6.87176">
        <ele>1488.7126009096</ele>
        <time>2019-06-23T14:46:21Z</time>
      </trkpt>
      <trkpt lat="44.28199" lon="6.87173">
        <ele>1488.5199317215</ele>
        <time>2019-06-23T14:46:23Z</time>
      </trkpt>
      <trkpt lat="44.282" lon="6.87171">
        <ele>1488.6173451086</ele>
        <time>2019-06-23T14:46:25Z</time>
      </trkpt>
      <trkpt lat="44.282" lon="6.87167">
        <ele>1488.9600876092</ele>
        <time>2019-06-23T14:46:27Z</time>
      </trkpt>
      <trkpt lat="44.28201" lon="6.87163">
        <ele>1489.6835197484</ele>
        <time>2019-06-23T14:46:29Z</time>
      </trkpt>
      <trkpt lat="44.282" lon="6.8716">
        <ele>1489.9956117849</ele>
        <time>2019-06-23T14:46:31Z</time>
      </trkpt>
      <trkpt lat="44.282" lon="6.87155">
        <ele>1489.9588994513</ele>
        <time>2019-06-23T14:46:33Z</time>
      </trkpt>
      <trkpt lat="44.28199" lon="6.8715">
        <ele>1489.8179246885</ele>
        <time>2019-06-23T14:46:35Z</time>
      </trkpt>
      <trkpt lat="44.28201" lon="6.87147">
        <ele>1489.6813934033</ele>
        <time>2019-06-23T14:46:37Z</time>
      </trkpt>
      <trkpt lat="44.28201" lon="6.87143">
        <ele>1489.5554363063</ele>
        <time>2019-06-23T14:46:39Z</time>
      </trkpt>
      <trkpt lat="44.28201" lon="6.87139">
        <ele>1489.8843852681</ele>
        <time>2019-06-23T14:46:41Z</time>
      </trkpt>
      <trkpt lat="44.28202" lon="6.87137">
        <ele>1490.0578971707</ele>
        <time>2019-06-23T14:46:42Z</time>
      </trkpt>
      <trkpt lat="44.28203" lon="6.87134">
        <ele>1490.4207338493</ele>
        <time>2019-06-23T14:46:44Z</time>
      </trkpt>
      <trkpt lat="44.28204" lon="6.87131">
        <ele>1490.5183406343</ele>
        <time>2019-06-23T14:46:45Z</time>
      </trkpt>
      <trkpt lat="44.28206" lon="6.87127">
        <ele>1490.6879603739</ele>
        <time>2019-06-23T14:46:47Z</time>
      </trkpt>
      <trkpt lat="44.28207" lon="6.87125">
        <ele>1490.8287393784</ele>
        <time>2019-06-23T14:46:48Z</time>
      </trkpt>
      <trkpt lat="44.28209" lon="6.87122">
        <ele>1491.2310109076</ele>
        <time>2019-06-23T14:46:50Z</time>
      </trkpt>
      <trkpt lat="44.2821" lon="6.87119">
        <ele>1491.3374956998</ele>
        <time>2019-06-23T14:46:52Z</time>
      </trkpt>
      <trkpt lat="44.28211" lon="6.87116">
        <ele>1491.8493226835</ele>
        <time>2019-06-23T14:46:54Z</time>
      </trkpt>
      <trkpt lat="44.28211" lon="6.87113">
        <ele>1492.5224197925</ele>
        <time>2019-06-23T14:46:56Z</time>
      </trkpt>
      <trkpt lat="44.28211" lon="6.87111">
        <ele>1492.6743985964</ele>
        <time>2019-06-23T14:46:58Z</time>
      </trkpt>
      <trkpt lat="44.28213" lon="6.87108">
        <ele>1492.4077528943</ele>
        <time>2019-06-23T14:47:00Z</time>
      </trkpt>
      <trkpt lat="44.28215" lon="6.87105">
        <ele>1492.3815798648</ele>
        <time>2019-06-23T14:47:02Z</time>
      </trkpt>
      <trkpt lat="44.28216" lon="6.87103">
        <ele>1492.4424112685</ele>
        <time>2019-06-23T14:47:04Z</time>
      </trkpt>
      <trkpt lat="44.28218" lon="6.871">
        <ele>1491.9991050773</ele>
        <time>2019-06-23T14:47:06Z</time>
      </trkpt>
      <trkpt lat="44.28219" lon="6.87099">
        <ele>1491.3979044871</ele>
        <time>2019-06-23T14:47:09Z</time>
      </trkpt>
      <trkpt lat="44.28222" lon="6.87097">
        <ele>1491.3123749502</ele>
        <time>2019-06-23T14:47:11Z</time>
      </trkpt>
      <trkpt lat="44.28223" lon="6.87095">
        <ele>1491.026933985</ele>
        <time>2019-06-23T14:47:13Z</time>
      </trkpt>
      <trkpt lat="44.28227" lon="6.87092">
        <ele>1490.9614612911</ele>
        <time>2019-06-23T14:47:15Z</time>
      </trkpt>
      <trkpt lat="44.28228" lon="6.8709">
        <ele>1490.9029207776</ele>
        <time>2019-06-23T14:47:17Z</time>
      </trkpt>
      <trkpt lat="44.2823" lon="6.87087">
        <ele>1490.6594259146</ele>
        <time>2019-06-23T14:47:19Z</time>
      </trkpt>
      <trkpt lat="44.28232" lon="6.87083">
        <ele>1490.0931275918</ele>
        <time>2019-06-23T14:47:21Z</time>
      </trkpt>
      <trkpt lat="44.28233" lon="6.8708">
        <ele>1489.3140735197</ele>
        <time>2019-06-23T14:47:23Z</time>
      </trkpt>
      <trkpt lat="44.28235" lon="6.87079">
        <ele>1488.5290533981</ele>
        <time>2019-06-23T14:47:26Z</time>
      </trkpt>
      <trkpt lat="44.28237" lon="6.87077">
        <ele>1488.7152891024</ele>
        <time>2019-06-23T14:47:28Z</time>
      </trkpt>
      <trkpt lat="44.28238" lon="6.87074">
        <ele>1488.5200158717</ele>
        <time>2019-06-23T14:47:30Z</time>
      </trkpt>
      <trkpt lat="44.2824" lon="6.87071">
        <ele>1488.4815760141</ele>
        <time>2019-06-23T14:47:32Z</time>
      </trkpt>
      <trkpt lat="44.28242" lon="6.87068">
        <ele>1488.4317311795</ele>
        <time>2019-06-23T14:47:34Z</time>
      </trkpt>
      <trkpt lat="44.28243" lon="6.87064">
        <ele>1488.2838589507</ele>
        <time>2019-06-23T14:47:36Z</time>
      </trkpt>
      <trkpt lat="44.28244" lon="6.8706">
        <ele>1488.126510383</ele>
        <time>2019-06-23T14:47:38Z</time>
      </trkpt>
      <trkpt lat="44.28245" lon="6.87057">
        <ele>1487.8648957142</ele>
        <time>2019-06-23T14:47:40Z</time>
      </trkpt>
      <trkpt lat="44.28246" lon="6.87054">
        <ele>1488.0041306827</ele>
        <time>2019-06-23T14:47:42Z</time>
      </trkpt>
      <trkpt lat="44.28249" lon="6.87051">
        <ele>1488.5271342195</ele>
        <time>2019-06-23T14:47:44Z</time>
      </trkpt>
      <trkpt lat="44.28251" lon="6.87048">
        <ele>1489.2676961309</ele>
        <time>2019-06-23T14:47:46Z</time>
      </trkpt>
      <trkpt lat="44.28253" lon="6.87045">
        <ele>1490.4035128916</ele>
        <time>2019-06-23T14:47:48Z</time>
      </trkpt>
      <trkpt lat="44.28254" lon="6.87041">
        <ele>1491.2286347242</ele>
        <time>2019-06-23T14:47:50Z</time>
      </trkpt>
      <trkpt lat="44.28254" lon="6.87038">
        <ele>1491.4355563404</ele>
        <time>2019-06-23T14:47:52Z</time>
      </trkpt>
      <trkpt lat="44.28255" lon="6.87036">
        <ele>1491.3274536287</ele>
        <time>2019-06-23T14:47:54Z</time>
      </trkpt>
      <trkpt lat="44.28256" lon="6.87033">
        <ele>1491.1707447495</ele>
        <time>2019-06-23T14:47:55Z</time>
      </trkpt>
      <trkpt lat="44.28256" lon="6.8703">
        <ele>1490.3741790468</ele>
        <time>2019-06-23T14:47:57Z</time>
      </trkpt>
      <trkpt lat="44.28256" lon="6.87026">
        <ele>1489.0283970644</ele>
        <time>2019-06-23T14:47:59Z</time>
      </trkpt>
      <trkpt lat="44.28256" lon="6.87022">
        <ele>1487.4219458308</ele>
        <time>2019-06-23T14:48:01Z</time>
      </trkpt>
      <trkpt lat="44.28256" lon="6.87019">
        <ele>1486.1155590814</ele>
        <time>2019-06-23T14:48:03Z</time>
      </trkpt>
      <trkpt lat="44.28257" lon="6.87017">
        <ele>1485.3276614832</ele>
        <time>2019-06-23T14:48:05Z</time>
      </trkpt>
      <trkpt lat="44.28256" lon="6.87013">
        <ele>1484.3990707946</ele>
        <time>2019-06-23T14:48:07Z</time>
      </trkpt>
      <trkpt lat="44.28257" lon="6.8701">
        <ele>1483.2638391586</ele>
        <time>2019-06-23T14:48:09Z</time>
      </trkpt>
      <trkpt lat="44.28257" lon="6.87006">
        <ele>1481.9860630991</ele>
        <time>2019-06-23T14:48:12Z</time>
      </trkpt>
      <trkpt lat="44.28258" lon="6.87003">
        <ele>1480.9923328238</ele>
        <time>2019-06-23T14:48:15Z</time>
      </trkpt>
      <trkpt lat="44.28259" lon="6.86999">
        <ele>1480.0472432579</ele>
        <time>2019-06-23T14:48:18Z</time>
      </trkpt>
      <trkpt lat="44.28261" lon="6.86997">
        <ele>1479.4826975341</ele>
        <time>2019-06-23T14:48:20Z</time>
      </trkpt>
      <trkpt lat="44.28262" lon="6.86994">
        <ele>1478.6473791401</ele>
        <time>2019-06-23T14:48:22Z</time>
      </trkpt>
      <trkpt lat="44.28263" lon="6.86991">
        <ele>1477.5832641285</ele>
        <time>2019-06-23T14:48:24Z</time>
      </trkpt>
      <trkpt lat="44.28264" lon="6.86988">
        <ele>1477.0554472878</ele>
        <time>2019-06-23T14:48:25Z</time>
      </trkpt>
      <trkpt lat="44.28264" lon="6.86985">
        <ele>1475.938236787</ele>
        <time>2019-06-23T14:48:28Z</time>
      </trkpt>
      <trkpt lat="44.28264" lon="6.86982">
        <ele>1474.9588691656</ele>
        <time>2019-06-23T14:48:30Z</time>
      </trkpt>
      <trkpt lat="44.28264" lon="6.86978">
        <ele>1474.1258810609</ele>
        <time>2019-06-23T14:48:32Z</time>
      </trkpt>
      <trkpt lat="44.28263" lon="6.86975">
        <ele>1474.1610959401</ele>
        <time>2019-06-23T14:48:34Z</time>
      </trkpt>
      <trkpt lat="44.28264" lon="6.86972">
        <ele>1474.0383718406</ele>
        <time>2019-06-23T14:48:36Z</time>
      </trkpt>
      <trkpt lat="44.28265" lon="6.86969">
        <ele>1473.681306482</ele>
        <time>2019-06-23T14:48:38Z</time>
      </trkpt>
      <trkpt lat="44.28265" lon="6.86966">
        <ele>1473.0968482936</ele>
        <time>2019-06-23T14:48:40Z</time>
      </trkpt>
      <trkpt lat="44.28265" lon="6.86963">
        <ele>1472.4288238996</ele>
        <time>2019-06-23T14:48:42Z</time>
      </trkpt>
      <trkpt lat="44.28266" lon="6.8696">
        <ele>1471.8821196015</ele>
        <time>2019-06-23T14:48:44Z</time>
      </trkpt>
      <trkpt lat="44.28266" lon="6.86957">
        <ele>1471.3917885954</ele>
        <time>2019-06-23T14:48:46Z</time>
      </trkpt>
      <trkpt lat="44.28266" lon="6.86953">
        <ele>1471.0185930938</ele>
        <time>2019-06-23T14:48:48Z</time>
      </trkpt>
      <trkpt lat="44.28267" lon="6.8695">
        <ele>1470.7419358735</ele>
        <time>2019-06-23T14:48:50Z</time>
      </trkpt>
      <trkpt lat="44.28268" lon="6.86947">
        <ele>1470.4103877845</ele>
        <time>2019-06-23T14:48:52Z</time>
      </trkpt>
      <trkpt lat="44.28266" lon="6.86945">
        <ele>1472.1767686645</ele>
        <time>2019-06-23T14:48:59Z</time>
      </trkpt>
      <trkpt lat="44.28266" lon="6.86943">
        <ele>1475.231921706</ele>
        <time>2019-06-23T14:49:04Z</time>
      </trkpt>
      <trkpt lat="44.28265" lon="6.8694">
        <ele>1479.4237894794</ele>
        <time>2019-06-23T14:49:11Z</time>
      </trkpt>
      <trkpt lat="44.28265" lon="6.86937">
        <ele>1479.5246710073</ele>
        <time>2019-06-23T14:49:12Z</time>
      </trkpt>
      <trkpt lat="44.28265" lon="6.86934">
        <ele>1478.4147809315</ele>
        <time>2019-06-23T14:49:15Z</time>
      </trkpt>
      <trkpt lat="44.28266" lon="6.86931">
        <ele>1477.1160895448</ele>
        <time>2019-06-23T14:49:18Z</time>
      </trkpt>
      <trkpt lat="44.28267" lon="6.86929">
        <ele>1476.1551821712</ele>
        <time>2019-06-23T14:49:20Z</time>
      </trkpt>
      <trkpt lat="44.28267" lon="6.86925">
        <ele>1475.6865492082</ele>
        <time>2019-06-23T14:49:22Z</time>
      </trkpt>
      <trkpt lat="44.28267" lon="6.86921">
        <ele>1475.6756872835</ele>
        <time>2019-06-23T14:49:24Z</time>
      </trkpt>
      <trkpt lat="44.28268" lon="6.86918">
        <ele>1475.6909564627</ele>
        <time>2019-06-23T14:49:26Z</time>
      </trkpt>
      <trkpt lat="44.28268" lon="6.86915">
        <ele>1475.7824847899</ele>
        <time>2019-06-23T14:49:28Z</time>
      </trkpt>
      <trkpt lat="44.28268" lon="6.86912">
        <ele>1476.3020570756</ele>
        <time>2019-06-23T14:49:31Z</time>
      </trkpt>
      <trkpt lat="44.28269" lon="6.86909">
        <ele>1476.4732776004</ele>
        <time>2019-06-23T14:49:33Z</time>
      </trkpt>
      <trkpt lat="44.2827" lon="6.86909">
        <ele>1479.2025652809</ele>
        <time>2019-06-23T14:49:38Z</time>
      </trkpt>
      <trkpt lat="44.28271" lon="6.86907">
        <ele>1480.0740506754</ele>
        <time>2019-06-23T14:49:42Z</time>
      </trkpt>
      <trkpt lat="44.28273" lon="6.86903">
        <ele>1479.8960098389</ele>
        <time>2019-06-23T14:49:44Z</time>
      </trkpt>
      <trkpt lat="44.28274" lon="6.869">
        <ele>1480.0053270661</ele>
        <time>2019-06-23T14:49:46Z</time>
      </trkpt>
      <trkpt lat="44.28274" lon="6.86897">
        <ele>1480.1425510234</ele>
        <time>2019-06-23T14:49:48Z</time>
      </trkpt>
      <trkpt lat="44.28275" lon="6.86896">
        <ele>1480.0883715241</ele>
        <time>2019-06-23T14:49:49Z</time>
      </trkpt>
      <trkpt lat="44.28277" lon="6.86893">
        <ele>1479.8519538684</ele>
        <time>2019-06-23T14:49:51Z</time>
      </trkpt>
      <trkpt lat="44.28277" lon="6.86891">
        <ele>1479.3623024358</ele>
        <time>2019-06-23T14:49:53Z</time>
      </trkpt>
      <trkpt lat="44.28279" lon="6.8689">
        <ele>1478.5560156465</ele>
        <time>2019-06-23T14:49:57Z</time>
      </trkpt>
      <trkpt lat="44.2828" lon="6.86893">
        <ele>1479.7599601863</ele>
        <time>2019-06-23T14:50:03Z</time>
      </trkpt>
      <trkpt lat="44.2828" lon="6.86894">
        <ele>1481.6002278916</ele>
        <time>2019-06-23T14:50:06Z</time>
      </trkpt>
      <trkpt lat="44.2828" lon="6.86889">
        <ele>1483.0639032189</ele>
        <time>2019-06-23T14:50:12Z</time>
      </trkpt>
      <trkpt lat="44.2828" lon="6.86885">
        <ele>1482.9878258519</ele>
        <time>2019-06-23T14:50:14Z</time>
      </trkpt>
      <trkpt lat="44.28279" lon="6.86882">
        <ele>1482.296950196</ele>
        <time>2019-06-23T14:50:16Z</time>
      </trkpt>
      <trkpt lat="44.28279" lon="6.86879">
        <ele>1480.8231822334</ele>
        <time>2019-06-23T14:50:18Z</time>
      </trkpt>
      <trkpt lat="44.28279" lon="6.86875">
        <ele>1478.6958030777</ele>
        <time>2019-06-23T14:50:20Z</time>
      </trkpt>
      <trkpt lat="44.28279" lon="6.86872">
        <ele>1478.1523604532</ele>
        <time>2019-06-23T14:50:21Z</time>
      </trkpt>
      <trkpt lat="44.28278" lon="6.86868">
        <ele>1476.8149038185</ele>
        <time>2019-06-23T14:50:23Z</time>
      </trkpt>
      <trkpt lat="44.28279" lon="6.86866">
        <ele>1475.2094244046</ele>
        <time>2019-06-23T14:50:25Z</time>
      </trkpt>
      <trkpt lat="44.28278" lon="6.86862">
        <ele>1473.8089106035</ele>
        <time>2019-06-23T14:50:27Z</time>
      </trkpt>
      <trkpt lat="44.28278" lon="6.86858">
        <ele>1472.7659015545</ele>
        <time>2019-06-23T14:50:29Z</time>
      </trkpt>
      <trkpt lat="44.28279" lon="6.86854">
        <ele>1471.8769371913</ele>
        <time>2019-06-23T14:50:31Z</time>
      </trkpt>
      <trkpt lat="44.28279" lon="6.86851">
        <ele>1471.3855428974</ele>
        <time>2019-06-23T14:50:33Z</time>
      </trkpt>
      <trkpt lat="44.28278" lon="6.86848">
        <ele>1471.3433685349</ele>
        <time>2019-06-23T14:50:35Z</time>
      </trkpt>
      <trkpt lat="44.28278" lon="6.86845">
        <ele>1471.681690854</ele>
        <time>2019-06-23T14:50:37Z</time>
      </trkpt>
      <trkpt lat="44.28277" lon="6.86841">
        <ele>1472.0109480077</ele>
        <time>2019-06-23T14:50:39Z</time>
      </trkpt>
      <trkpt lat="44.28277" lon="6.86837">
        <ele>1471.6255010205</ele>
        <time>2019-06-23T14:50:41Z</time>
      </trkpt>
      <trkpt lat="44.28278" lon="6.86834">
        <ele>1471.3537094267</ele>
        <time>2019-06-23T14:50:42Z</time>
      </trkpt>
      <trkpt lat="44.28277" lon="6.86831">
        <ele>1470.5669574881</ele>
        <time>2019-06-23T14:50:44Z</time>
      </trkpt>
      <trkpt lat="44.28276" lon="6.86827">
        <ele>1469.9729271207</ele>
        <time>2019-06-23T14:50:46Z</time>
      </trkpt>
      <trkpt lat="44.28276" lon="6.86824">
        <ele>1468.9758001172</ele>
        <time>2019-06-23T14:50:48Z</time>
      </trkpt>
      <trkpt lat="44.28276" lon="6.8682">
        <ele>1468.3018098441</ele>
        <time>2019-06-23T14:50:50Z</time>
      </trkpt>
      <trkpt lat="44.28276" lon="6.86817">
        <ele>1468.2106614928</ele>
        <time>2019-06-23T14:50:51Z</time>
      </trkpt>
      <trkpt lat="44.28277" lon="6.86814">
        <ele>1468.2305363748</ele>
        <time>2019-06-23T14:50:52Z</time>
      </trkpt>
      <trkpt lat="44.28277" lon="6.86809">
        <ele>1467.8803853399</ele>
        <time>2019-06-23T14:50:54Z</time>
      </trkpt>
      <trkpt lat="44.28276" lon="6.86806">
        <ele>1468.0411877862</ele>
        <time>2019-06-23T14:50:56Z</time>
      </trkpt>
      <trkpt lat="44.28276" lon="6.86802">
        <ele>1468.3192588017</ele>
        <time>2019-06-23T14:50:58Z</time>
      </trkpt>
      <trkpt lat="44.28275" lon="6.868">
        <ele>1468.5368430746</ele>
        <time>2019-06-23T14:50:59Z</time>
      </trkpt>
      <trkpt lat="44.28275" lon="6.86796">
        <ele>1469.4163300241</ele>
        <time>2019-06-23T14:51:01Z</time>
      </trkpt>
      <trkpt lat="44.28275" lon="6.86792">
        <ele>1470.5478256604</ele>
        <time>2019-06-23T14:51:03Z</time>
      </trkpt>
      <trkpt lat="44.28274" lon="6.86789">
        <ele>1471.7178990678</ele>
        <time>2019-06-23T14:51:05Z</time>
      </trkpt>
      <trkpt lat="44.28274" lon="6.86786">
        <ele>1472.8002483377</ele>
        <time>2019-06-23T14:51:07Z</time>
      </trkpt>
      <trkpt lat="44.28273" lon="6.86782">
        <ele>1473.5813906077</ele>
        <time>2019-06-23T14:51:09Z</time>
      </trkpt>
      <trkpt lat="44.28273" lon="6.86779">
        <ele>1474.0057492765</ele>
        <time>2019-06-23T14:51:10Z</time>
      </trkpt>
      <trkpt lat="44.28272" lon="6.86775">
        <ele>1474.4297447434</ele>
        <time>2019-06-23T14:51:12Z</time>
      </trkpt>
      <trkpt lat="44.28271" lon="6.86771">
        <ele>1474.6152253658</ele>
        <time>2019-06-23T14:51:14Z</time>
      </trkpt>
      <trkpt lat="44.2827" lon="6.86769">
        <ele>1474.4763002875</ele>
        <time>2019-06-23T14:51:15Z</time>
      </trkpt>
      <trkpt lat="44.28271" lon="6.86765">
        <ele>1474.0903768967</ele>
        <time>2019-06-23T14:51:17Z</time>
      </trkpt>
      <trkpt lat="44.28271" lon="6.86762">
        <ele>1473.9302942146</ele>
        <time>2019-06-23T14:51:18Z</time>
      </trkpt>
      <trkpt lat="44.2827" lon="6.86759">
        <ele>1474.0057501208</ele>
        <time>2019-06-23T14:51:19Z</time>
      </trkpt>
      <trkpt lat="44.28269" lon="6.86756">
        <ele>1474.201608023</ele>
        <time>2019-06-23T14:51:21Z</time>
      </trkpt>
      <trkpt lat="44.28268" lon="6.86752">
        <ele>1474.3127487817</ele>
        <time>2019-06-23T14:51:23Z</time>
      </trkpt>
      <trkpt lat="44.2827" lon="6.86754">
        <ele>1475.1384910759</ele>
        <time>2019-06-23T14:51:24Z</time>
      </trkpt>
      <trkpt lat="44.28271" lon="6.86751">
        <ele>1476.4684681763</ele>
        <time>2019-06-23T14:51:26Z</time>
      </trkpt>
      <trkpt lat="44.28272" lon="6.86748">
        <ele>1477.4607972643</ele>
        <time>2019-06-23T14:51:28Z</time>
      </trkpt>
      <trkpt lat="44.28274" lon="6.86746">
        <ele>1477.843699514</ele>
        <time>2019-06-23T14:51:31Z</time>
      </trkpt>
      <trkpt lat="44.28275" lon="6.86742">
        <ele>1478.0992770959</ele>
        <time>2019-06-23T14:51:33Z</time>
      </trkpt>
      <trkpt lat="44.28277" lon="6.8674">
        <ele>1478.6374705981</ele>
        <time>2019-06-23T14:51:35Z</time>
      </trkpt>
      <trkpt lat="44.28278" lon="6.86736">
        <ele>1478.0704368233</ele>
        <time>2019-06-23T14:51:37Z</time>
      </trkpt>
      <trkpt lat="44.28279" lon="6.86733">
        <ele>1477.706866648</ele>
        <time>2019-06-23T14:51:38Z</time>
      </trkpt>
      <trkpt lat="44.2828" lon="6.8673">
        <ele>1477.4434080168</ele>
        <time>2019-06-23T14:51:40Z</time>
      </trkpt>
      <trkpt lat="44.28282" lon="6.86728">
        <ele>1477.6321952624</ele>
        <time>2019-06-23T14:51:42Z</time>
      </trkpt>
      <trkpt lat="44.28282" lon="6.86724">
        <ele>1478.1616347767</ele>
        <time>2019-06-23T14:51:45Z</time>
      </trkpt>
      <trkpt lat="44.28283" lon="6.86722">
        <ele>1478.4214812402</ele>
        <time>2019-06-23T14:51:47Z</time>
      </trkpt>
      <trkpt lat="44.28284" lon="6.86719">
        <ele>1478.7084684798</ele>
        <time>2019-06-23T14:51:49Z</time>
      </trkpt>
      <trkpt lat="44.28283" lon="6.86716">
        <ele>1478.577071684</ele>
        <time>2019-06-23T14:51:51Z</time>
      </trkpt>
      <trkpt lat="44.28285" lon="6.86715">
        <ele>1478.5909362416</ele>
        <time>2019-06-23T14:51:55Z</time>
      </trkpt>
      <trkpt lat="44.28288" lon="6.86715">
        <ele>1479.4099957633</ele>
        <time>2019-06-23T14:51:58Z</time>
      </trkpt>
      <trkpt lat="44.2829" lon="6.86715">
        <ele>1480.1008956119</ele>
        <time>2019-06-23T14:52:01Z</time>
      </trkpt>
      <trkpt lat="44.28293" lon="6.86715">
        <ele>1480.7370335358</ele>
        <time>2019-06-23T14:52:03Z</time>
      </trkpt>
      <trkpt lat="44.28295" lon="6.86716">
        <ele>1481.6652605595</ele>
        <time>2019-06-23T14:52:05Z</time>
      </trkpt>
      <trkpt lat="44.28297" lon="6.86717">
        <ele>1482.0441993878</ele>
        <time>2019-06-23T14:52:06Z</time>
      </trkpt>
      <trkpt lat="44.28299" lon="6.86716">
        <ele>1482.5660944248</ele>
        <time>2019-06-23T14:52:07Z</time>
      </trkpt>
      <trkpt lat="44.28303" lon="6.86717">
        <ele>1483.4252732647</ele>
        <time>2019-06-23T14:52:09Z</time>
      </trkpt>
      <trkpt lat="44.28305" lon="6.86718">
        <ele>1483.8286100578</ele>
        <time>2019-06-23T14:52:11Z</time>
      </trkpt>
      <trkpt lat="44.28308" lon="6.86719">
        <ele>1484.0724809383</ele>
        <time>2019-06-23T14:52:13Z</time>
      </trkpt>
      <trkpt lat="44.2831" lon="6.8672">
        <ele>1484.1185313976</ele>
        <time>2019-06-23T14:52:15Z</time>
      </trkpt>
      <trkpt lat="44.28312" lon="6.8672">
        <ele>1483.886276782</ele>
        <time>2019-06-23T14:52:17Z</time>
      </trkpt>
      <trkpt lat="44.28315" lon="6.86719">
        <ele>1482.7478945745</ele>
        <time>2019-06-23T14:52:20Z</time>
      </trkpt>
      <trkpt lat="44.28317" lon="6.8672">
        <ele>1482.7581804981</ele>
        <time>2019-06-23T14:52:22Z</time>
      </trkpt>
      <trkpt lat="44.28319" lon="6.8672">
        <ele>1483.0250888126</ele>
        <time>2019-06-23T14:52:24Z</time>
      </trkpt>
      <trkpt lat="44.28321" lon="6.8672">
        <ele>1483.0508751836</ele>
        <time>2019-06-23T14:52:27Z</time>
      </trkpt>
      <trkpt lat="44.28324" lon="6.86721">
        <ele>1482.8351630596</ele>
        <time>2019-06-23T14:52:30Z</time>
      </trkpt>
      <trkpt lat="44.28326" lon="6.86721">
        <ele>1482.8937929903</ele>
        <time>2019-06-23T14:52:32Z</time>
      </trkpt>
      <trkpt lat="44.28328" lon="6.86722">
        <ele>1483.1324923485</ele>
        <time>2019-06-23T14:52:34Z</time>
      </trkpt>
      <trkpt lat="44.2833" lon="6.86723">
        <ele>1482.6740906498</ele>
        <time>2019-06-23T14:52:37Z</time>
      </trkpt>
      <trkpt lat="44.28332" lon="6.86725">
        <ele>1481.9358542844</ele>
        <time>2019-06-23T14:52:40Z</time>
      </trkpt>
      <trkpt lat="44.28334" lon="6.86726">
        <ele>1481.8172342547</ele>
        <time>2019-06-23T14:52:42Z</time>
      </trkpt>
      <trkpt lat="44.28335" lon="6.86728">
        <ele>1481.2973200845</ele>
        <time>2019-06-23T14:52:45Z</time>
      </trkpt>
      <trkpt lat="44.28337" lon="6.8673">
        <ele>1481.0894299861</ele>
        <time>2019-06-23T14:52:47Z</time>
      </trkpt>
      <trkpt lat="44.28338" lon="6.86731">
        <ele>1481.2663611943</ele>
        <time>2019-06-23T14:52:50Z</time>
      </trkpt>
      <trkpt lat="44.2834" lon="6.86731">
        <ele>1481.6989525211</ele>
        <time>2019-06-23T14:52:56Z</time>
      </trkpt>
      <trkpt lat="44.2834" lon="6.86727">
        <ele>1484.5562120615</ele>
        <time>2019-06-23T14:53:04Z</time>
      </trkpt>
      <trkpt lat="44.28337" lon="6.86725">
        <ele>1485.5220893281</ele>
        <time>2019-06-23T14:53:07Z</time>
      </trkpt>
      <trkpt lat="44.28335" lon="6.86725">
        <ele>1485.7447401823</ele>
        <time>2019-06-23T14:53:09Z</time>
      </trkpt>
      <trkpt lat="44.28333" lon="6.86724">
        <ele>1485.6225691206</ele>
        <time>2019-06-23T14:53:11Z</time>
      </trkpt>
      <trkpt lat="44.28331" lon="6.86723">
        <ele>1485.7020612356</ele>
        <time>2019-06-23T14:53:15Z</time>
      </trkpt>
      <trkpt lat="44.28329" lon="6.86722">
        <ele>1485.037481821</ele>
        <time>2019-06-23T14:53:17Z</time>
      </trkpt>
      <trkpt lat="44.28326" lon="6.86721">
        <ele>1484.2575469566</ele>
        <time>2019-06-23T14:53:19Z</time>
      </trkpt>
      <trkpt lat="44.28324" lon="6.86719">
        <ele>1483.4523315245</ele>
        <time>2019-06-23T14:53:22Z</time>
      </trkpt>
      <trkpt lat="44.28324" lon="6.86716">
        <ele>1482.6201970028</ele>
        <time>2019-06-23T14:53:24Z</time>
      </trkpt>
      <trkpt lat="44.28323" lon="6.86714">
        <ele>1482.2208072874</ele>
        <time>2019-06-23T14:53:25Z</time>
      </trkpt>
      <trkpt lat="44.28322" lon="6.8671">
        <ele>1481.754487516</ele>
        <time>2019-06-23T14:53:27Z</time>
      </trkpt>
      <trkpt lat="44.28323" lon="6.86706">
        <ele>1481.911527098</ele>
        <time>2019-06-23T14:53:29Z</time>
      </trkpt>
      <trkpt lat="44.28324" lon="6.86703">
        <ele>1482.2022549042</ele>
        <time>2019-06-23T14:53:30Z</time>
      </trkpt>
      <trkpt lat="44.28324" lon="6.86698">
        <ele>1482.8502168425</ele>
        <time>2019-06-23T14:53:32Z</time>
      </trkpt>
      <trkpt lat="44.28325" lon="6.86695">
        <ele>1483.2989012605</ele>
        <time>2019-06-23T14:53:34Z</time>
      </trkpt>
      <trkpt lat="44.28326" lon="6.86692">
        <ele>1484.1207045108</ele>
        <time>2019-06-23T14:53:36Z</time>
      </trkpt>
      <trkpt lat="44.28326" lon="6.86689">
        <ele>1485.6184012988</ele>
        <time>2019-06-23T14:53:41Z</time>
      </trkpt>
      <trkpt lat="44.28326" lon="6.86686">
        <ele>1485.6144747432</ele>
        <time>2019-06-23T14:53:45Z</time>
      </trkpt>
      <trkpt lat="44.28328" lon="6.86683">
        <ele>1486.8344816318</ele>
        <time>2019-06-23T14:53:50Z</time>
      </trkpt>
      <trkpt lat="44.28329" lon="6.86681">
        <ele>1487.1151886017</ele>
        <time>2019-06-23T14:53:52Z</time>
      </trkpt>
      <trkpt lat="44.2833" lon="6.86679">
        <ele>1487.3043453877</ele>
        <time>2019-06-23T14:53:54Z</time>
      </trkpt>
      <trkpt lat="44.2833" lon="6.86675">
        <ele>1486.664573826</ele>
        <time>2019-06-23T14:54:03Z</time>
      </trkpt>
      <trkpt lat="44.28331" lon="6.86673">
        <ele>1486.2491996655</ele>
        <time>2019-06-23T14:54:06Z</time>
      </trkpt>
      <trkpt lat="44.28332" lon="6.8667">
        <ele>1486.1282802733</ele>
        <time>2019-06-23T14:54:09Z</time>
      </trkpt>
      <trkpt lat="44.28333" lon="6.86667">
        <ele>1486.1149337547</ele>
        <time>2019-06-23T14:54:11Z</time>
      </trkpt>
      <trkpt lat="44.28333" lon="6.86665">
        <ele>1486.9713511745</ele>
        <time>2019-06-23T14:54:15Z</time>
      </trkpt>
      <trkpt lat="44.28335" lon="6.86665">
        <ele>1487.2097361854</ele>
        <time>2019-06-23T14:54:19Z</time>
      </trkpt>
      <trkpt lat="44.28337" lon="6.86667">
        <ele>1486.8079232578</ele>
        <time>2019-06-23T14:54:21Z</time>
      </trkpt>
      <trkpt lat="44.2834" lon="6.86667">
        <ele>1486.4791142486</ele>
        <time>2019-06-23T14:54:25Z</time>
      </trkpt>
      <trkpt lat="44.2834" lon="6.86668">
        <ele>1486.5559606458</ele>
        <time>2019-06-23T14:54:26Z</time>
      </trkpt>
      <trkpt lat="44.28342" lon="6.86666">
        <ele>1487.0335025059</ele>
        <time>2019-06-23T14:54:30Z</time>
      </trkpt>
      <trkpt lat="44.28344" lon="6.86665">
        <ele>1489.5669448981</ele>
        <time>2019-06-23T14:54:34Z</time>
      </trkpt>
      <trkpt lat="44.28346" lon="6.86663">
        <ele>1491.6404600335</ele>
        <time>2019-06-23T14:54:36Z</time>
      </trkpt>
      <trkpt lat="44.28348" lon="6.86662">
        <ele>1494.181847179</ele>
        <time>2019-06-23T14:54:39Z</time>
      </trkpt>
      <trkpt lat="44.28351" lon="6.8666">
        <ele>1496.6375042011</ele>
        <time>2019-06-23T14:54:43Z</time>
      </trkpt>
      <trkpt lat="44.28353" lon="6.86659">
        <ele>1497.5283443083</ele>
        <time>2019-06-23T14:54:45Z</time>
      </trkpt>
      <trkpt lat="44.28355" lon="6.86657">
        <ele>1498.1432095939</ele>
        <time>2019-06-23T14:54:48Z</time>
      </trkpt>
      <trkpt lat="44.28357" lon="6.86656">
        <ele>1498.496986447</ele>
        <time>2019-06-23T14:54:51Z</time>
      </trkpt>
      <trkpt lat="44.28359" lon="6.86655">
        <ele>1498.0065954123</ele>
        <time>2019-06-23T14:54:56Z</time>
      </trkpt>
      <trkpt lat="44.2836" lon="6.86652">
        <ele>1499.3777015575</ele>
        <time>2019-06-23T14:55:02Z</time>
      </trkpt>
      <trkpt lat="44.28361" lon="6.86649">
        <ele>1500.2807744285</ele>
        <time>2019-06-23T14:55:04Z</time>
      </trkpt>
      <trkpt lat="44.28362" lon="6.86646">
        <ele>1500.4168273506</ele>
        <time>2019-06-23T14:55:07Z</time>
      </trkpt>
      <trkpt lat="44.28363" lon="6.86643">
        <ele>1500.4949926299</ele>
        <time>2019-06-23T14:55:09Z</time>
      </trkpt>
      <trkpt lat="44.28364" lon="6.8664">
        <ele>1500.7819190022</ele>
        <time>2019-06-23T14:55:11Z</time>
      </trkpt>
      <trkpt lat="44.28364" lon="6.86637">
        <ele>1500.6329128933</ele>
        <time>2019-06-23T14:55:13Z</time>
      </trkpt>
      <trkpt lat="44.28365" lon="6.86634">
        <ele>1499.213562003</ele>
        <time>2019-06-23T14:55:16Z</time>
      </trkpt>
      <trkpt lat="44.28367" lon="6.86634">
        <ele>1497.3889078378</ele>
        <time>2019-06-23T14:55:21Z</time>
      </trkpt>
      <trkpt lat="44.28369" lon="6.86634">
        <ele>1495.0526626987</ele>
        <time>2019-06-23T14:55:29Z</time>
      </trkpt>
      <trkpt lat="44.28371" lon="6.86634">
        <ele>1494.8871688518</ele>
        <time>2019-06-23T14:55:33Z</time>
      </trkpt>
      <trkpt lat="44.28374" lon="6.86634">
        <ele>1496.6499244803</ele>
        <time>2019-06-23T14:55:41Z</time>
      </trkpt>
      <trkpt lat="44.28376" lon="6.86634">
        <ele>1498.1302148845</ele>
        <time>2019-06-23T14:55:44Z</time>
      </trkpt>
      <trkpt lat="44.28378" lon="6.86635">
        <ele>1499.1981518334</ele>
        <time>2019-06-23T14:55:46Z</time>
      </trkpt>
      <trkpt lat="44.28379" lon="6.86637">
        <ele>1499.9056142597</ele>
        <time>2019-06-23T14:55:48Z</time>
      </trkpt>
      <trkpt lat="44.2838" lon="6.8664">
        <ele>1501.6030001589</ele>
        <time>2019-06-23T14:55:53Z</time>
      </trkpt>
      <trkpt lat="44.28381" lon="6.86643">
        <ele>1502.2668257303</ele>
        <time>2019-06-23T14:55:55Z</time>
      </trkpt>
      <trkpt lat="44.28381" lon="6.86646">
        <ele>1501.9065923473</ele>
        <time>2019-06-23T14:55:58Z</time>
      </trkpt>
      <trkpt lat="44.2838" lon="6.86648">
        <ele>1501.6304717756</ele>
        <time>2019-06-23T14:56:00Z</time>
      </trkpt>
      <trkpt lat="44.28382" lon="6.86651">
        <ele>1500.817046591</ele>
        <time>2019-06-23T14:56:03Z</time>
      </trkpt>
      <trkpt lat="44.28383" lon="6.86654">
        <ele>1501.1597578269</ele>
        <time>2019-06-23T14:56:06Z</time>
      </trkpt>
      <trkpt lat="44.28385" lon="6.86656">
        <ele>1501.2791712432</ele>
        <time>2019-06-23T14:56:08Z</time>
      </trkpt>
      <trkpt lat="44.28386" lon="6.86661">
        <ele>1500.8958381077</ele>
        <time>2019-06-23T14:56:11Z</time>
      </trkpt>
      <trkpt lat="44.28386" lon="6.86663">
        <ele>1500.6048211462</ele>
        <time>2019-06-23T14:56:13Z</time>
      </trkpt>
      <trkpt lat="44.28388" lon="6.86666">
        <ele>1500.5290446823</ele>
        <time>2019-06-23T14:56:16Z</time>
      </trkpt>
      <trkpt lat="44.2839" lon="6.86666">
        <ele>1500.4435185776</ele>
        <time>2019-06-23T14:56:20Z</time>
      </trkpt>
      <trkpt lat="44.28392" lon="6.86668">
        <ele>1500.2822926606</ele>
        <time>2019-06-23T14:56:23Z</time>
      </trkpt>
      <trkpt lat="44.28394" lon="6.86669">
        <ele>1500.0527791616</ele>
        <time>2019-06-23T14:56:25Z</time>
      </trkpt>
      <trkpt lat="44.28395" lon="6.86671">
        <ele>1500.3550977808</ele>
        <time>2019-06-23T14:56:27Z</time>
      </trkpt>
      <trkpt lat="44.28396" lon="6.86674">
        <ele>1501.0553744067</ele>
        <time>2019-06-23T14:56:30Z</time>
      </trkpt>
      <trkpt lat="44.28399" lon="6.86675">
        <ele>1501.8384664244</ele>
        <time>2019-06-23T14:56:32Z</time>
      </trkpt>
      <trkpt lat="44.284" lon="6.86677">
        <ele>1502.8524291272</ele>
        <time>2019-06-23T14:56:36Z</time>
      </trkpt>
      <trkpt lat="44.28402" lon="6.86678">
        <ele>1502.2887165726</ele>
        <time>2019-06-23T14:56:40Z</time>
      </trkpt>
      <trkpt lat="44.284" lon="6.86678">
        <ele>1502.0135688147</ele>
        <time>2019-06-23T14:56:41Z</time>
      </trkpt>
      <trkpt lat="44.28398" lon="6.86678">
        <ele>1501.9557469804</ele>
        <time>2019-06-23T14:56:49Z</time>
      </trkpt>
      <trkpt lat="44.28397" lon="6.86681">
        <ele>1502.5865378181</ele>
        <time>2019-06-23T14:56:52Z</time>
      </trkpt>
      <trkpt lat="44.28394" lon="6.8668">
        <ele>1501.6828313117</ele>
        <time>2019-06-23T14:56:57Z</time>
      </trkpt>
      <trkpt lat="44.28391" lon="6.8668">
        <ele>1501.3393830846</ele>
        <time>2019-06-23T14:57:01Z</time>
      </trkpt>
      <trkpt lat="44.28388" lon="6.8668">
        <ele>1500.5170905013</ele>
        <time>2019-06-23T14:57:03Z</time>
      </trkpt>
      <trkpt lat="44.28384" lon="6.86679">
        <ele>1499.4616179632</ele>
        <time>2019-06-23T14:57:05Z</time>
      </trkpt>
      <trkpt lat="44.28384" lon="6.86677">
        <ele>1497.1309204215</ele>
        <time>2019-06-23T14:57:11Z</time>
      </trkpt>
      <trkpt lat="44.28383" lon="6.86674">
        <ele>1496.2146144512</ele>
        <time>2019-06-23T14:57:26Z</time>
      </trkpt>
      <trkpt lat="44.28382" lon="6.86672">
        <ele>1495.5135495387</ele>
        <time>2019-06-23T14:57:37Z</time>
      </trkpt>
      <trkpt lat="44.28381" lon="6.86674">
        <ele>1491.7519780076</ele>
        <time>2019-06-23T14:57:51Z</time>
      </trkpt>
      <trkpt lat="44.28381" lon="6.86671">
        <ele>1491.5617360367</ele>
        <time>2019-06-23T14:57:53Z</time>
      </trkpt>
      <trkpt lat="44.2838" lon="6.86669">
        <ele>1493.1701067165</ele>
        <time>2019-06-23T14:57:57Z</time>
      </trkpt>
      <trkpt lat="44.2838" lon="6.86673">
        <ele>1497.8419908144</ele>
        <time>2019-06-23T14:58:02Z</time>
      </trkpt>
      <trkpt lat="44.28382" lon="6.86676">
        <ele>1499.3388661098</ele>
        <time>2019-06-23T14:58:04Z</time>
      </trkpt>
      <trkpt lat="44.28382" lon="6.86679">
        <ele>1500.2048107085</ele>
        <time>2019-06-23T14:58:06Z</time>
      </trkpt>
      <trkpt lat="44.28382" lon="6.86682">
        <ele>1501.0457711971</ele>
        <time>2019-06-23T14:58:09Z</time>
      </trkpt>
      <trkpt lat="44.28383" lon="6.86685">
        <ele>1501.8567281786</ele>
        <time>2019-06-23T14:58:12Z</time>
      </trkpt>
      <trkpt lat="44.28383" lon="6.86687">
        <ele>1502.890516423</ele>
        <time>2019-06-23T14:58:15Z</time>
      </trkpt>
      <trkpt lat="44.28385" lon="6.86689">
        <ele>1503.0985891088</ele>
        <time>2019-06-23T14:58:24Z</time>
      </trkpt>
      <trkpt lat="44.28386" lon="6.86691">
        <ele>1503.7510292742</ele>
        <time>2019-06-23T14:58:27Z</time>
      </trkpt>
      <trkpt lat="44.28389" lon="6.86692">
        <ele>1504.363073044</ele>
        <time>2019-06-23T14:58:29Z</time>
      </trkpt>
      <trkpt lat="44.28391" lon="6.86691">
        <ele>1504.8181389119</ele>
        <time>2019-06-23T14:58:31Z</time>
      </trkpt>
      <trkpt lat="44.28393" lon="6.8669">
        <ele>1504.8740668403</ele>
        <time>2019-06-23T14:58:34Z</time>
      </trkpt>
      <trkpt lat="44.28396" lon="6.86689">
        <ele>1504.839252037</ele>
        <time>2019-06-23T14:58:38Z</time>
      </trkpt>
      <trkpt lat="44.28398" lon="6.8669">
        <ele>1505.4858104087</ele>
        <time>2019-06-23T14:58:42Z</time>
      </trkpt>
      <trkpt lat="44.284" lon="6.86689">
        <ele>1505.9508631033</ele>
        <time>2019-06-23T14:58:45Z</time>
      </trkpt>
      <trkpt lat="44.28402" lon="6.86688">
        <ele>1506.3566394535</ele>
        <time>2019-06-23T14:58:48Z</time>
      </trkpt>
      <trkpt lat="44.28405" lon="6.86687">
        <ele>1506.4331865209</ele>
        <time>2019-06-23T14:58:50Z</time>
      </trkpt>
      <trkpt lat="44.28407" lon="6.86686">
        <ele>1506.301148731</ele>
        <time>2019-06-23T14:58:53Z</time>
      </trkpt>
      <trkpt lat="44.28409" lon="6.86684">
        <ele>1506.219083837</ele>
        <time>2019-06-23T14:58:56Z</time>
      </trkpt>
      <trkpt lat="44.28412" lon="6.86684">
        <ele>1506.8188864164</ele>
        <time>2019-06-23T14:58:59Z</time>
      </trkpt>
      <trkpt lat="44.28414" lon="6.86682">
        <ele>1508.8386727211</ele>
        <time>2019-06-23T14:59:05Z</time>
      </trkpt>
      <trkpt lat="44.28415" lon="6.8668">
        <ele>1510.4899755873</ele>
        <time>2019-06-23T14:59:13Z</time>
      </trkpt>
      <trkpt lat="44.28418" lon="6.86679">
        <ele>1511.7694721324</ele>
        <time>2019-06-23T14:59:28Z</time>
      </trkpt>
      <trkpt lat="44.2842" lon="6.8668">
        <ele>1511.0049245538</ele>
        <time>2019-06-23T14:59:32Z</time>
      </trkpt>
      <trkpt lat="44.28422" lon="6.86679">
        <ele>1510.2936789503</ele>
        <time>2019-06-23T14:59:35Z</time>
      </trkpt>
      <trkpt lat="44.28424" lon="6.86679">
        <ele>1510.1751404507</ele>
        <time>2019-06-23T14:59:38Z</time>
      </trkpt>
      <trkpt lat="44.28427" lon="6.86677">
        <ele>1510.1287297939</ele>
        <time>2019-06-23T14:59:40Z</time>
      </trkpt>
      <trkpt lat="44.28429" lon="6.86676">
        <ele>1510.2245404799</ele>
        <time>2019-06-23T14:59:42Z</time>
      </trkpt>
      <trkpt lat="44.28431" lon="6.86674">
        <ele>1509.1589092844</ele>
        <time>2019-06-23T14:59:49Z</time>
      </trkpt>
      <trkpt lat="44.28432" lon="6.86671">
        <ele>1508.8505833362</ele>
        <time>2019-06-23T14:59:50Z</time>
      </trkpt>
      <trkpt lat="44.28434" lon="6.86667">
        <ele>1508.5021585723</ele>
        <time>2019-06-23T14:59:52Z</time>
      </trkpt>
      <trkpt lat="44.28435" lon="6.86664">
        <ele>1508.6109886961</ele>
        <time>2019-06-23T14:59:54Z</time>
      </trkpt>
      <trkpt lat="44.28435" lon="6.86661">
        <ele>1509.3794616674</ele>
        <time>2019-06-23T15:00:08Z</time>
      </trkpt>
      <trkpt lat="44.28437" lon="6.86661">
        <ele>1510.9729225372</ele>
        <time>2019-06-23T15:00:13Z</time>
      </trkpt>
      <trkpt lat="44.28439" lon="6.86661">
        <ele>1511.2154992839</ele>
        <time>2019-06-23T15:00:16Z</time>
      </trkpt>
      <trkpt lat="44.2844" lon="6.86661">
        <ele>1510.9983598856</ele>
        <time>2019-06-23T15:00:19Z</time>
      </trkpt>
      <trkpt lat="44.28443" lon="6.86662">
        <ele>1511.0502350408</ele>
        <time>2019-06-23T15:00:21Z</time>
      </trkpt>
      <trkpt lat="44.28445" lon="6.86661">
        <ele>1511.1127683915</ele>
        <time>2019-06-23T15:00:23Z</time>
      </trkpt>
      <trkpt lat="44.28448" lon="6.8666">
        <ele>1510.8562826324</ele>
        <time>2019-06-23T15:00:26Z</time>
      </trkpt>
      <trkpt lat="44.2845" lon="6.86659">
        <ele>1510.3347233479</ele>
        <time>2019-06-23T15:00:29Z</time>
      </trkpt>
      <trkpt lat="44.28452" lon="6.86659">
        <ele>1510.1073012951</ele>
        <time>2019-06-23T15:00:31Z</time>
      </trkpt>
      <trkpt lat="44.28454" lon="6.86658">
        <ele>1510.0519106071</ele>
        <time>2019-06-23T15:00:33Z</time>
      </trkpt>
      <trkpt lat="44.28457" lon="6.86657">
        <ele>1510.278041341</ele>
        <time>2019-06-23T15:00:35Z</time>
      </trkpt>
      <trkpt lat="44.28459" lon="6.86656">
        <ele>1510.5910318055</ele>
        <time>2019-06-23T15:00:38Z</time>
      </trkpt>
      <trkpt lat="44.28461" lon="6.86656">
        <ele>1511.034156445</ele>
        <time>2019-06-23T15:00:41Z</time>
      </trkpt>
      <trkpt lat="44.28464" lon="6.86655">
        <ele>1511.0249683871</ele>
        <time>2019-06-23T15:00:45Z</time>
      </trkpt>
      <trkpt lat="44.28466" lon="6.86656">
        <ele>1510.8227342147</ele>
        <time>2019-06-23T15:00:47Z</time>
      </trkpt>
      <trkpt lat="44.28468" lon="6.86657">
        <ele>1510.789925497</ele>
        <time>2019-06-23T15:00:50Z</time>
      </trkpt>
      <trkpt lat="44.28471" lon="6.86659">
        <ele>1510.4611932142</ele>
        <time>2019-06-23T15:00:53Z</time>
      </trkpt>
      <trkpt lat="44.28472" lon="6.8666">
        <ele>1509.3643736628</ele>
        <time>2019-06-23T15:00:56Z</time>
      </trkpt>
      <trkpt lat="44.28474" lon="6.86662">
        <ele>1507.6224306546</ele>
        <time>2019-06-23T15:01:04Z</time>
      </trkpt>
      <trkpt lat="44.28476" lon="6.86663">
        <ele>1507.2111528985</ele>
        <time>2019-06-23T15:01:06Z</time>
      </trkpt>
      <trkpt lat="44.28478" lon="6.86664">
        <ele>1506.5205957759</ele>
        <time>2019-06-23T15:01:09Z</time>
      </trkpt>
    </trkseg>
  </trk>
</gpx>